<?xml version="1.0" encoding="UTF-8" standalone="no" ?>
<gpx xmlns="http://www.topografix.com/GPX/1/1" xmlns:xsi="http://www.w3.org/2001/XMLSchema-instance" xsi:schemaLocation="http://www.topografix.com/GPX/1/1 http://www.topografix.com/GPX/1/1/gpx.xsd" version="1.1" creator="VisuGPX - https://www.visugpx.com">
  <metadata>
    <name>tFondettes - azay le rideau - fondettes</name>
  </metadata>
  <trk>
    <name><![CDATA[trace]]></name>
    <extensions>
      <line xmlns="http://www.topografix.com/GPX/gpx_style/0/2">
        <color>0000FF</color>
        <width>4</width>
      </line>
    </extensions>
    <trkseg>
      <trkpt lat="47.40847" lon="0.60842">
        <ele>99</ele>
        <time>2023-07-18T06:23:23Z</time>
      </trkpt>
      <trkpt lat="47.40848" lon="0.60841">
        <ele>99</ele>
        <time>2023-07-18T06:23:24Z</time>
      </trkpt>
      <trkpt lat="47.40848" lon="0.60841">
        <ele>99</ele>
        <time>2023-07-18T06:23:25Z</time>
      </trkpt>
      <trkpt lat="47.40848" lon="0.60841">
        <ele>99</ele>
        <time>2023-07-18T06:23:26Z</time>
      </trkpt>
      <trkpt lat="47.40849" lon="0.60841">
        <ele>99</ele>
        <time>2023-07-18T06:23:27Z</time>
      </trkpt>
      <trkpt lat="47.40849" lon="0.60841">
        <ele>99</ele>
        <time>2023-07-18T06:23:28Z</time>
      </trkpt>
      <trkpt lat="47.40851" lon="0.60842">
        <ele>99</ele>
        <time>2023-07-18T06:23:29Z</time>
      </trkpt>
      <trkpt lat="47.40852" lon="0.60842">
        <ele>99</ele>
        <time>2023-07-18T06:23:30Z</time>
      </trkpt>
      <trkpt lat="47.40854" lon="0.60841">
        <ele>99</ele>
        <time>2023-07-18T06:23:31Z</time>
      </trkpt>
      <trkpt lat="47.40855" lon="0.60839">
        <ele>99</ele>
        <time>2023-07-18T06:23:32Z</time>
      </trkpt>
      <trkpt lat="47.40857" lon="0.60836">
        <ele>99</ele>
        <time>2023-07-18T06:23:33Z</time>
      </trkpt>
      <trkpt lat="47.40859" lon="0.60833">
        <ele>99.2</ele>
        <time>2023-07-18T06:23:34Z</time>
      </trkpt>
      <trkpt lat="47.40861" lon="0.6083">
        <ele>99.2</ele>
        <time>2023-07-18T06:23:35Z</time>
      </trkpt>
      <trkpt lat="47.40862" lon="0.60828">
        <ele>99</ele>
        <time>2023-07-18T06:23:36Z</time>
      </trkpt>
      <trkpt lat="47.40864" lon="0.60825">
        <ele>99.2</ele>
        <time>2023-07-18T06:23:37Z</time>
      </trkpt>
      <trkpt lat="47.40866" lon="0.60822">
        <ele>99.2</ele>
        <time>2023-07-18T06:23:38Z</time>
      </trkpt>
      <trkpt lat="47.40868" lon="0.6082">
        <ele>99.2</ele>
        <time>2023-07-18T06:23:39Z</time>
      </trkpt>
      <trkpt lat="47.4087" lon="0.60816">
        <ele>99.2</ele>
        <time>2023-07-18T06:23:40Z</time>
      </trkpt>
      <trkpt lat="47.40872" lon="0.60813">
        <ele>99.2</ele>
        <time>2023-07-18T06:23:41Z</time>
      </trkpt>
      <trkpt lat="47.40874" lon="0.60809">
        <ele>99.2</ele>
        <time>2023-07-18T06:23:42Z</time>
      </trkpt>
      <trkpt lat="47.40876" lon="0.60806">
        <ele>99</ele>
        <time>2023-07-18T06:23:43Z</time>
      </trkpt>
      <trkpt lat="47.40878" lon="0.60803">
        <ele>99</ele>
        <time>2023-07-18T06:23:44Z</time>
      </trkpt>
      <trkpt lat="47.4088" lon="0.60799">
        <ele>99</ele>
        <time>2023-07-18T06:23:45Z</time>
      </trkpt>
      <trkpt lat="47.40881" lon="0.60796">
        <ele>99</ele>
        <time>2023-07-18T06:23:46Z</time>
      </trkpt>
      <trkpt lat="47.40883" lon="0.60792">
        <ele>99</ele>
        <time>2023-07-18T06:23:47Z</time>
      </trkpt>
      <trkpt lat="47.40885" lon="0.6079">
        <ele>99</ele>
        <time>2023-07-18T06:23:48Z</time>
      </trkpt>
      <trkpt lat="47.40887" lon="0.60787">
        <ele>99</ele>
        <time>2023-07-18T06:23:49Z</time>
      </trkpt>
      <trkpt lat="47.40889" lon="0.60784">
        <ele>99</ele>
        <time>2023-07-18T06:23:50Z</time>
      </trkpt>
      <trkpt lat="47.4089" lon="0.60781">
        <ele>99</ele>
        <time>2023-07-18T06:23:51Z</time>
      </trkpt>
      <trkpt lat="47.4089" lon="0.60779">
        <ele>99.2</ele>
        <time>2023-07-18T06:23:52Z</time>
      </trkpt>
      <trkpt lat="47.40889" lon="0.60776">
        <ele>99.2</ele>
        <time>2023-07-18T06:23:53Z</time>
      </trkpt>
      <trkpt lat="47.40886" lon="0.60773">
        <ele>99.2</ele>
        <time>2023-07-18T06:23:54Z</time>
      </trkpt>
      <trkpt lat="47.40883" lon="0.60772">
        <ele>99.2</ele>
        <time>2023-07-18T06:23:55Z</time>
      </trkpt>
      <trkpt lat="47.40881" lon="0.6077">
        <ele>99.2</ele>
        <time>2023-07-18T06:23:56Z</time>
      </trkpt>
      <trkpt lat="47.40877" lon="0.60767">
        <ele>99.2</ele>
        <time>2023-07-18T06:23:57Z</time>
      </trkpt>
      <trkpt lat="47.40874" lon="0.60765">
        <ele>99.2</ele>
        <time>2023-07-18T06:23:58Z</time>
      </trkpt>
      <trkpt lat="47.40871" lon="0.60763">
        <ele>99.2</ele>
        <time>2023-07-18T06:23:59Z</time>
      </trkpt>
      <trkpt lat="47.40867" lon="0.6076">
        <ele>99.2</ele>
        <time>2023-07-18T06:24:00Z</time>
      </trkpt>
      <trkpt lat="47.40864" lon="0.60758">
        <ele>99.2</ele>
        <time>2023-07-18T06:24:01Z</time>
      </trkpt>
      <trkpt lat="47.40862" lon="0.60757">
        <ele>99.2</ele>
        <time>2023-07-18T06:24:02Z</time>
      </trkpt>
      <trkpt lat="47.40858" lon="0.60755">
        <ele>99.2</ele>
        <time>2023-07-18T06:24:03Z</time>
      </trkpt>
      <trkpt lat="47.40855" lon="0.60754">
        <ele>99.2</ele>
        <time>2023-07-18T06:24:04Z</time>
      </trkpt>
      <trkpt lat="47.40851" lon="0.60752">
        <ele>99.2</ele>
        <time>2023-07-18T06:24:05Z</time>
      </trkpt>
      <trkpt lat="47.40847" lon="0.60749">
        <ele>99.2</ele>
        <time>2023-07-18T06:24:06Z</time>
      </trkpt>
      <trkpt lat="47.40844" lon="0.60747">
        <ele>99.2</ele>
        <time>2023-07-18T06:24:07Z</time>
      </trkpt>
      <trkpt lat="47.4084" lon="0.60745">
        <ele>99.2</ele>
        <time>2023-07-18T06:24:08Z</time>
      </trkpt>
      <trkpt lat="47.40836" lon="0.60742">
        <ele>99.2</ele>
        <time>2023-07-18T06:24:09Z</time>
      </trkpt>
      <trkpt lat="47.40833" lon="0.60739">
        <ele>99.2</ele>
        <time>2023-07-18T06:24:10Z</time>
      </trkpt>
      <trkpt lat="47.40829" lon="0.60736">
        <ele>99.2</ele>
        <time>2023-07-18T06:24:11Z</time>
      </trkpt>
      <trkpt lat="47.40825" lon="0.60733">
        <ele>99.2</ele>
        <time>2023-07-18T06:24:12Z</time>
      </trkpt>
      <trkpt lat="47.40821" lon="0.6073">
        <ele>99.4</ele>
        <time>2023-07-18T06:24:13Z</time>
      </trkpt>
      <trkpt lat="47.40818" lon="0.60727">
        <ele>99.4</ele>
        <time>2023-07-18T06:24:14Z</time>
      </trkpt>
      <trkpt lat="47.40814" lon="0.60724">
        <ele>99.2</ele>
        <time>2023-07-18T06:24:15Z</time>
      </trkpt>
      <trkpt lat="47.40809" lon="0.60721">
        <ele>99.2</ele>
        <time>2023-07-18T06:24:16Z</time>
      </trkpt>
      <trkpt lat="47.40806" lon="0.60718">
        <ele>99.2</ele>
        <time>2023-07-18T06:24:17Z</time>
      </trkpt>
      <trkpt lat="47.40802" lon="0.60715">
        <ele>99.4</ele>
        <time>2023-07-18T06:24:18Z</time>
      </trkpt>
      <trkpt lat="47.40797" lon="0.60711">
        <ele>99.4</ele>
        <time>2023-07-18T06:24:19Z</time>
      </trkpt>
      <trkpt lat="47.40794" lon="0.60708">
        <ele>99.4</ele>
        <time>2023-07-18T06:24:20Z</time>
      </trkpt>
      <trkpt lat="47.40791" lon="0.60706">
        <ele>99.4</ele>
        <time>2023-07-18T06:24:21Z</time>
      </trkpt>
      <trkpt lat="47.40788" lon="0.60706">
        <ele>99.4</ele>
        <time>2023-07-18T06:24:22Z</time>
      </trkpt>
      <trkpt lat="47.40784" lon="0.60705">
        <ele>99.2</ele>
        <time>2023-07-18T06:24:23Z</time>
      </trkpt>
      <trkpt lat="47.4078" lon="0.60706">
        <ele>99.2</ele>
        <time>2023-07-18T06:24:24Z</time>
      </trkpt>
      <trkpt lat="47.40776" lon="0.60708">
        <ele>99.2</ele>
        <time>2023-07-18T06:24:25Z</time>
      </trkpt>
      <trkpt lat="47.40773" lon="0.60711">
        <ele>99.2</ele>
        <time>2023-07-18T06:24:26Z</time>
      </trkpt>
      <trkpt lat="47.4077" lon="0.60715">
        <ele>99.4</ele>
        <time>2023-07-18T06:24:27Z</time>
      </trkpt>
      <trkpt lat="47.40767" lon="0.6072">
        <ele>99.4</ele>
        <time>2023-07-18T06:24:28Z</time>
      </trkpt>
      <trkpt lat="47.40764" lon="0.60724">
        <ele>99.4</ele>
        <time>2023-07-18T06:24:29Z</time>
      </trkpt>
      <trkpt lat="47.40761" lon="0.60729">
        <ele>99.4</ele>
        <time>2023-07-18T06:24:30Z</time>
      </trkpt>
      <trkpt lat="47.40757" lon="0.60733">
        <ele>99.4</ele>
        <time>2023-07-18T06:24:31Z</time>
      </trkpt>
      <trkpt lat="47.40754" lon="0.60739">
        <ele>99.4</ele>
        <time>2023-07-18T06:24:32Z</time>
      </trkpt>
      <trkpt lat="47.40751" lon="0.60745">
        <ele>99.4</ele>
        <time>2023-07-18T06:24:33Z</time>
      </trkpt>
      <trkpt lat="47.40748" lon="0.6075">
        <ele>99.4</ele>
        <time>2023-07-18T06:24:34Z</time>
      </trkpt>
      <trkpt lat="47.40744" lon="0.60755">
        <ele>99.6</ele>
        <time>2023-07-18T06:24:35Z</time>
      </trkpt>
      <trkpt lat="47.40741" lon="0.6076">
        <ele>99.6</ele>
        <time>2023-07-18T06:24:36Z</time>
      </trkpt>
      <trkpt lat="47.40738" lon="0.60764">
        <ele>99.6</ele>
        <time>2023-07-18T06:24:37Z</time>
      </trkpt>
      <trkpt lat="47.40734" lon="0.60769">
        <ele>99.6</ele>
        <time>2023-07-18T06:24:38Z</time>
      </trkpt>
      <trkpt lat="47.40731" lon="0.60774">
        <ele>99.4</ele>
        <time>2023-07-18T06:24:39Z</time>
      </trkpt>
      <trkpt lat="47.40728" lon="0.60779">
        <ele>99.4</ele>
        <time>2023-07-18T06:24:40Z</time>
      </trkpt>
      <trkpt lat="47.40725" lon="0.60784">
        <ele>99.4</ele>
        <time>2023-07-18T06:24:41Z</time>
      </trkpt>
      <trkpt lat="47.40721" lon="0.60789">
        <ele>99.4</ele>
        <time>2023-07-18T06:24:42Z</time>
      </trkpt>
      <trkpt lat="47.40718" lon="0.60794">
        <ele>99.4</ele>
        <time>2023-07-18T06:24:43Z</time>
      </trkpt>
      <trkpt lat="47.40715" lon="0.60799">
        <ele>99.4</ele>
        <time>2023-07-18T06:24:44Z</time>
      </trkpt>
      <trkpt lat="47.40712" lon="0.60804">
        <ele>99.4</ele>
        <time>2023-07-18T06:24:45Z</time>
      </trkpt>
      <trkpt lat="47.40708" lon="0.6081">
        <ele>99.6</ele>
        <time>2023-07-18T06:24:46Z</time>
      </trkpt>
      <trkpt lat="47.40705" lon="0.60815">
        <ele>99.6</ele>
        <time>2023-07-18T06:24:47Z</time>
      </trkpt>
      <trkpt lat="47.40702" lon="0.6082">
        <ele>99.6</ele>
        <time>2023-07-18T06:24:48Z</time>
      </trkpt>
      <trkpt lat="47.40699" lon="0.60825">
        <ele>99.6</ele>
        <time>2023-07-18T06:24:49Z</time>
      </trkpt>
      <trkpt lat="47.40695" lon="0.6083">
        <ele>99.8</ele>
        <time>2023-07-18T06:24:50Z</time>
      </trkpt>
      <trkpt lat="47.40692" lon="0.60836">
        <ele>99.8</ele>
        <time>2023-07-18T06:24:51Z</time>
      </trkpt>
      <trkpt lat="47.40689" lon="0.60841">
        <ele>100</ele>
        <time>2023-07-18T06:24:52Z</time>
      </trkpt>
      <trkpt lat="47.40686" lon="0.60846">
        <ele>100</ele>
        <time>2023-07-18T06:24:53Z</time>
      </trkpt>
      <trkpt lat="47.40682" lon="0.60851">
        <ele>99.8</ele>
        <time>2023-07-18T06:24:54Z</time>
      </trkpt>
      <trkpt lat="47.40679" lon="0.60856">
        <ele>99.8</ele>
        <time>2023-07-18T06:24:55Z</time>
      </trkpt>
      <trkpt lat="47.40676" lon="0.60861">
        <ele>99.8</ele>
        <time>2023-07-18T06:24:56Z</time>
      </trkpt>
      <trkpt lat="47.40673" lon="0.60866">
        <ele>100</ele>
        <time>2023-07-18T06:24:57Z</time>
      </trkpt>
      <trkpt lat="47.40669" lon="0.60871">
        <ele>100</ele>
        <time>2023-07-18T06:24:58Z</time>
      </trkpt>
      <trkpt lat="47.40666" lon="0.60876">
        <ele>100</ele>
        <time>2023-07-18T06:24:59Z</time>
      </trkpt>
      <trkpt lat="47.40663" lon="0.60881">
        <ele>100.2</ele>
        <time>2023-07-18T06:25:00Z</time>
      </trkpt>
      <trkpt lat="47.40659" lon="0.60886">
        <ele>100.2</ele>
        <time>2023-07-18T06:25:01Z</time>
      </trkpt>
      <trkpt lat="47.40656" lon="0.60892">
        <ele>100.2</ele>
        <time>2023-07-18T06:25:02Z</time>
      </trkpt>
      <trkpt lat="47.40653" lon="0.60897">
        <ele>100.4</ele>
        <time>2023-07-18T06:25:03Z</time>
      </trkpt>
      <trkpt lat="47.40649" lon="0.60902">
        <ele>100.2</ele>
        <time>2023-07-18T06:25:04Z</time>
      </trkpt>
      <trkpt lat="47.40646" lon="0.60908">
        <ele>100.4</ele>
        <time>2023-07-18T06:25:05Z</time>
      </trkpt>
      <trkpt lat="47.40642" lon="0.60915">
        <ele>100.4</ele>
        <time>2023-07-18T06:25:06Z</time>
      </trkpt>
      <trkpt lat="47.40639" lon="0.60919">
        <ele>100.4</ele>
        <time>2023-07-18T06:25:07Z</time>
      </trkpt>
      <trkpt lat="47.40636" lon="0.60925">
        <ele>100.4</ele>
        <time>2023-07-18T06:25:08Z</time>
      </trkpt>
      <trkpt lat="47.40633" lon="0.60931">
        <ele>100.6</ele>
        <time>2023-07-18T06:25:09Z</time>
      </trkpt>
      <trkpt lat="47.4063" lon="0.60937">
        <ele>100.6</ele>
        <time>2023-07-18T06:25:10Z</time>
      </trkpt>
      <trkpt lat="47.40626" lon="0.60942">
        <ele>100.6</ele>
        <time>2023-07-18T06:25:11Z</time>
      </trkpt>
      <trkpt lat="47.40623" lon="0.60948">
        <ele>100.4</ele>
        <time>2023-07-18T06:25:12Z</time>
      </trkpt>
      <trkpt lat="47.4062" lon="0.60954">
        <ele>100.4</ele>
        <time>2023-07-18T06:25:13Z</time>
      </trkpt>
      <trkpt lat="47.40616" lon="0.6096">
        <ele>100.4</ele>
        <time>2023-07-18T06:25:14Z</time>
      </trkpt>
      <trkpt lat="47.40613" lon="0.60966">
        <ele>100.4</ele>
        <time>2023-07-18T06:25:15Z</time>
      </trkpt>
      <trkpt lat="47.40609" lon="0.60972">
        <ele>100.4</ele>
        <time>2023-07-18T06:25:16Z</time>
      </trkpt>
      <trkpt lat="47.40606" lon="0.60978">
        <ele>100.4</ele>
        <time>2023-07-18T06:25:17Z</time>
      </trkpt>
      <trkpt lat="47.40603" lon="0.60984">
        <ele>100.4</ele>
        <time>2023-07-18T06:25:18Z</time>
      </trkpt>
      <trkpt lat="47.406" lon="0.6099">
        <ele>100.4</ele>
        <time>2023-07-18T06:25:19Z</time>
      </trkpt>
      <trkpt lat="47.40596" lon="0.60996">
        <ele>100.4</ele>
        <time>2023-07-18T06:25:20Z</time>
      </trkpt>
      <trkpt lat="47.40593" lon="0.61002">
        <ele>100.4</ele>
        <time>2023-07-18T06:25:21Z</time>
      </trkpt>
      <trkpt lat="47.4059" lon="0.61007">
        <ele>100.4</ele>
        <time>2023-07-18T06:25:22Z</time>
      </trkpt>
      <trkpt lat="47.40587" lon="0.61014">
        <ele>100.4</ele>
        <time>2023-07-18T06:25:23Z</time>
      </trkpt>
      <trkpt lat="47.40584" lon="0.6102">
        <ele>100.4</ele>
        <time>2023-07-18T06:25:24Z</time>
      </trkpt>
      <trkpt lat="47.40581" lon="0.61026">
        <ele>100.4</ele>
        <time>2023-07-18T06:25:25Z</time>
      </trkpt>
      <trkpt lat="47.40578" lon="0.61032">
        <ele>100.4</ele>
        <time>2023-07-18T06:25:26Z</time>
      </trkpt>
      <trkpt lat="47.40575" lon="0.61038">
        <ele>100.4</ele>
        <time>2023-07-18T06:25:27Z</time>
      </trkpt>
      <trkpt lat="47.40572" lon="0.61045">
        <ele>100.4</ele>
        <time>2023-07-18T06:25:28Z</time>
      </trkpt>
      <trkpt lat="47.40569" lon="0.61051">
        <ele>100.4</ele>
        <time>2023-07-18T06:25:29Z</time>
      </trkpt>
      <trkpt lat="47.40566" lon="0.61057">
        <ele>100.4</ele>
        <time>2023-07-18T06:25:30Z</time>
      </trkpt>
      <trkpt lat="47.40563" lon="0.61064">
        <ele>100.4</ele>
        <time>2023-07-18T06:25:31Z</time>
      </trkpt>
      <trkpt lat="47.4056" lon="0.6107">
        <ele>100.2</ele>
        <time>2023-07-18T06:25:32Z</time>
      </trkpt>
      <trkpt lat="47.40557" lon="0.61076">
        <ele>100</ele>
        <time>2023-07-18T06:25:33Z</time>
      </trkpt>
      <trkpt lat="47.40555" lon="0.61083">
        <ele>100</ele>
        <time>2023-07-18T06:25:34Z</time>
      </trkpt>
      <trkpt lat="47.40553" lon="0.6109">
        <ele>100</ele>
        <time>2023-07-18T06:25:35Z</time>
      </trkpt>
      <trkpt lat="47.4055" lon="0.61097">
        <ele>99.8</ele>
        <time>2023-07-18T06:25:36Z</time>
      </trkpt>
      <trkpt lat="47.40548" lon="0.61104">
        <ele>99.8</ele>
        <time>2023-07-18T06:25:37Z</time>
      </trkpt>
      <trkpt lat="47.40545" lon="0.61111">
        <ele>99.8</ele>
        <time>2023-07-18T06:25:38Z</time>
      </trkpt>
      <trkpt lat="47.40543" lon="0.61118">
        <ele>99.8</ele>
        <time>2023-07-18T06:25:39Z</time>
      </trkpt>
      <trkpt lat="47.4054" lon="0.61125">
        <ele>99.8</ele>
        <time>2023-07-18T06:25:40Z</time>
      </trkpt>
      <trkpt lat="47.40538" lon="0.61132">
        <ele>99.8</ele>
        <time>2023-07-18T06:25:41Z</time>
      </trkpt>
      <trkpt lat="47.40536" lon="0.6114">
        <ele>99.8</ele>
        <time>2023-07-18T06:25:42Z</time>
      </trkpt>
      <trkpt lat="47.40534" lon="0.61147">
        <ele>99.8</ele>
        <time>2023-07-18T06:25:43Z</time>
      </trkpt>
      <trkpt lat="47.40532" lon="0.61154">
        <ele>99.8</ele>
        <time>2023-07-18T06:25:44Z</time>
      </trkpt>
      <trkpt lat="47.4053" lon="0.6116">
        <ele>99.8</ele>
        <time>2023-07-18T06:25:45Z</time>
      </trkpt>
      <trkpt lat="47.40527" lon="0.61167">
        <ele>99.8</ele>
        <time>2023-07-18T06:25:46Z</time>
      </trkpt>
      <trkpt lat="47.40525" lon="0.61174">
        <ele>99.8</ele>
        <time>2023-07-18T06:25:47Z</time>
      </trkpt>
      <trkpt lat="47.40523" lon="0.61181">
        <ele>99.8</ele>
        <time>2023-07-18T06:25:48Z</time>
      </trkpt>
      <trkpt lat="47.4052" lon="0.61187">
        <ele>99.8</ele>
        <time>2023-07-18T06:25:49Z</time>
      </trkpt>
      <trkpt lat="47.40518" lon="0.61194">
        <ele>99.8</ele>
        <time>2023-07-18T06:25:50Z</time>
      </trkpt>
      <trkpt lat="47.40516" lon="0.61201">
        <ele>99.8</ele>
        <time>2023-07-18T06:25:51Z</time>
      </trkpt>
      <trkpt lat="47.40514" lon="0.61208">
        <ele>99.8</ele>
        <time>2023-07-18T06:25:52Z</time>
      </trkpt>
      <trkpt lat="47.40511" lon="0.61215">
        <ele>100</ele>
        <time>2023-07-18T06:25:53Z</time>
      </trkpt>
      <trkpt lat="47.40509" lon="0.61222">
        <ele>100</ele>
        <time>2023-07-18T06:25:54Z</time>
      </trkpt>
      <trkpt lat="47.40507" lon="0.61228">
        <ele>100</ele>
        <time>2023-07-18T06:25:55Z</time>
      </trkpt>
      <trkpt lat="47.40505" lon="0.61235">
        <ele>100</ele>
        <time>2023-07-18T06:25:56Z</time>
      </trkpt>
      <trkpt lat="47.40503" lon="0.61241">
        <ele>99.8</ele>
        <time>2023-07-18T06:25:57Z</time>
      </trkpt>
      <trkpt lat="47.40501" lon="0.61248">
        <ele>99.8</ele>
        <time>2023-07-18T06:25:58Z</time>
      </trkpt>
      <trkpt lat="47.405" lon="0.61251">
        <ele>99.8</ele>
        <time>2023-07-18T06:25:59Z</time>
      </trkpt>
      <trkpt lat="47.40499" lon="0.61254">
        <ele>99.8</ele>
        <time>2023-07-18T06:26:00Z</time>
      </trkpt>
      <trkpt lat="47.40494" lon="0.61266">
        <ele>99.8</ele>
        <time>2023-07-18T06:26:01Z</time>
      </trkpt>
      <trkpt lat="47.40492" lon="0.61272">
        <ele>99.8</ele>
        <time>2023-07-18T06:26:02Z</time>
      </trkpt>
      <trkpt lat="47.4049" lon="0.61277">
        <ele>99.6</ele>
        <time>2023-07-18T06:26:03Z</time>
      </trkpt>
      <trkpt lat="47.40488" lon="0.61282">
        <ele>99.6</ele>
        <time>2023-07-18T06:26:04Z</time>
      </trkpt>
      <trkpt lat="47.40486" lon="0.61286">
        <ele>99.6</ele>
        <time>2023-07-18T06:26:05Z</time>
      </trkpt>
      <trkpt lat="47.40484" lon="0.61288">
        <ele>99.6</ele>
        <time>2023-07-18T06:26:06Z</time>
      </trkpt>
      <trkpt lat="47.40482" lon="0.6129">
        <ele>99.6</ele>
        <time>2023-07-18T06:26:07Z</time>
      </trkpt>
      <trkpt lat="47.4048" lon="0.61291">
        <ele>99.6</ele>
        <time>2023-07-18T06:26:08Z</time>
      </trkpt>
      <trkpt lat="47.40477" lon="0.61291">
        <ele>99.8</ele>
        <time>2023-07-18T06:26:09Z</time>
      </trkpt>
      <trkpt lat="47.40474" lon="0.61292">
        <ele>99.8</ele>
        <time>2023-07-18T06:26:10Z</time>
      </trkpt>
      <trkpt lat="47.40471" lon="0.61294">
        <ele>99.8</ele>
        <time>2023-07-18T06:26:11Z</time>
      </trkpt>
      <trkpt lat="47.4047" lon="0.61298">
        <ele>99.8</ele>
        <time>2023-07-18T06:26:12Z</time>
      </trkpt>
      <trkpt lat="47.40469" lon="0.61304">
        <ele>100</ele>
        <time>2023-07-18T06:26:13Z</time>
      </trkpt>
      <trkpt lat="47.40469" lon="0.6131">
        <ele>99.8</ele>
        <time>2023-07-18T06:26:14Z</time>
      </trkpt>
      <trkpt lat="47.40469" lon="0.61317">
        <ele>99.8</ele>
        <time>2023-07-18T06:26:15Z</time>
      </trkpt>
      <trkpt lat="47.40469" lon="0.61324">
        <ele>100</ele>
        <time>2023-07-18T06:26:16Z</time>
      </trkpt>
      <trkpt lat="47.4047" lon="0.61331">
        <ele>100</ele>
        <time>2023-07-18T06:26:17Z</time>
      </trkpt>
      <trkpt lat="47.40469" lon="0.61337">
        <ele>99.8</ele>
        <time>2023-07-18T06:26:18Z</time>
      </trkpt>
      <trkpt lat="47.40468" lon="0.61343">
        <ele>99.8</ele>
        <time>2023-07-18T06:26:19Z</time>
      </trkpt>
      <trkpt lat="47.40466" lon="0.61347">
        <ele>99.6</ele>
        <time>2023-07-18T06:26:20Z</time>
      </trkpt>
      <trkpt lat="47.40462" lon="0.6135">
        <ele>99.6</ele>
        <time>2023-07-18T06:26:21Z</time>
      </trkpt>
      <trkpt lat="47.40458" lon="0.61351">
        <ele>99.6</ele>
        <time>2023-07-18T06:26:22Z</time>
      </trkpt>
      <trkpt lat="47.40453" lon="0.61353">
        <ele>99.6</ele>
        <time>2023-07-18T06:26:23Z</time>
      </trkpt>
      <trkpt lat="47.40449" lon="0.61354">
        <ele>99.6</ele>
        <time>2023-07-18T06:26:24Z</time>
      </trkpt>
      <trkpt lat="47.40443" lon="0.61354">
        <ele>99.6</ele>
        <time>2023-07-18T06:26:25Z</time>
      </trkpt>
      <trkpt lat="47.40438" lon="0.61354">
        <ele>99.4</ele>
        <time>2023-07-18T06:26:26Z</time>
      </trkpt>
      <trkpt lat="47.40433" lon="0.61354">
        <ele>99.4</ele>
        <time>2023-07-18T06:26:27Z</time>
      </trkpt>
      <trkpt lat="47.40428" lon="0.61355">
        <ele>99.4</ele>
        <time>2023-07-18T06:26:28Z</time>
      </trkpt>
      <trkpt lat="47.40423" lon="0.61355">
        <ele>99.6</ele>
        <time>2023-07-18T06:26:29Z</time>
      </trkpt>
      <trkpt lat="47.40418" lon="0.61356">
        <ele>99.6</ele>
        <time>2023-07-18T06:26:30Z</time>
      </trkpt>
      <trkpt lat="47.40413" lon="0.61357">
        <ele>99.6</ele>
        <time>2023-07-18T06:26:31Z</time>
      </trkpt>
      <trkpt lat="47.40408" lon="0.61359">
        <ele>99.6</ele>
        <time>2023-07-18T06:26:32Z</time>
      </trkpt>
      <trkpt lat="47.40402" lon="0.6136">
        <ele>99.4</ele>
        <time>2023-07-18T06:26:33Z</time>
      </trkpt>
      <trkpt lat="47.40396" lon="0.61361">
        <ele>99.4</ele>
        <time>2023-07-18T06:26:34Z</time>
      </trkpt>
      <trkpt lat="47.40391" lon="0.61362">
        <ele>99.4</ele>
        <time>2023-07-18T06:26:35Z</time>
      </trkpt>
      <trkpt lat="47.40386" lon="0.61363">
        <ele>99.6</ele>
        <time>2023-07-18T06:26:36Z</time>
      </trkpt>
      <trkpt lat="47.40381" lon="0.61364">
        <ele>99.6</ele>
        <time>2023-07-18T06:26:37Z</time>
      </trkpt>
      <trkpt lat="47.40376" lon="0.61366">
        <ele>99.6</ele>
        <time>2023-07-18T06:26:38Z</time>
      </trkpt>
      <trkpt lat="47.40371" lon="0.61367">
        <ele>99.6</ele>
        <time>2023-07-18T06:26:39Z</time>
      </trkpt>
      <trkpt lat="47.40366" lon="0.61369">
        <ele>99.6</ele>
        <time>2023-07-18T06:26:40Z</time>
      </trkpt>
      <trkpt lat="47.40361" lon="0.61371">
        <ele>99.6</ele>
        <time>2023-07-18T06:26:41Z</time>
      </trkpt>
      <trkpt lat="47.40356" lon="0.61373">
        <ele>99.6</ele>
        <time>2023-07-18T06:26:42Z</time>
      </trkpt>
      <trkpt lat="47.40351" lon="0.61376">
        <ele>99.6</ele>
        <time>2023-07-18T06:26:43Z</time>
      </trkpt>
      <trkpt lat="47.40346" lon="0.61379">
        <ele>99.6</ele>
        <time>2023-07-18T06:26:44Z</time>
      </trkpt>
      <trkpt lat="47.40342" lon="0.61382">
        <ele>99.8</ele>
        <time>2023-07-18T06:26:45Z</time>
      </trkpt>
      <trkpt lat="47.40337" lon="0.61385">
        <ele>99.8</ele>
        <time>2023-07-18T06:26:46Z</time>
      </trkpt>
      <trkpt lat="47.40332" lon="0.61389">
        <ele>99.8</ele>
        <time>2023-07-18T06:26:47Z</time>
      </trkpt>
      <trkpt lat="47.40327" lon="0.61393">
        <ele>99.8</ele>
        <time>2023-07-18T06:26:48Z</time>
      </trkpt>
      <trkpt lat="47.40322" lon="0.61396">
        <ele>99.8</ele>
        <time>2023-07-18T06:26:49Z</time>
      </trkpt>
      <trkpt lat="47.40318" lon="0.61399">
        <ele>99.8</ele>
        <time>2023-07-18T06:26:50Z</time>
      </trkpt>
      <trkpt lat="47.40313" lon="0.61402">
        <ele>99.8</ele>
        <time>2023-07-18T06:26:51Z</time>
      </trkpt>
      <trkpt lat="47.40309" lon="0.61405">
        <ele>99.8</ele>
        <time>2023-07-18T06:26:52Z</time>
      </trkpt>
      <trkpt lat="47.40305" lon="0.61409">
        <ele>100</ele>
        <time>2023-07-18T06:26:53Z</time>
      </trkpt>
      <trkpt lat="47.403" lon="0.61411">
        <ele>100</ele>
        <time>2023-07-18T06:26:54Z</time>
      </trkpt>
      <trkpt lat="47.40295" lon="0.61415">
        <ele>100</ele>
        <time>2023-07-18T06:26:55Z</time>
      </trkpt>
      <trkpt lat="47.4029" lon="0.61418">
        <ele>100.2</ele>
        <time>2023-07-18T06:26:56Z</time>
      </trkpt>
      <trkpt lat="47.40285" lon="0.61422">
        <ele>100.4</ele>
        <time>2023-07-18T06:26:57Z</time>
      </trkpt>
      <trkpt lat="47.4028" lon="0.61426">
        <ele>100.4</ele>
        <time>2023-07-18T06:26:58Z</time>
      </trkpt>
      <trkpt lat="47.40275" lon="0.61429">
        <ele>100.4</ele>
        <time>2023-07-18T06:26:59Z</time>
      </trkpt>
      <trkpt lat="47.40271" lon="0.61432">
        <ele>100.4</ele>
        <time>2023-07-18T06:27:00Z</time>
      </trkpt>
      <trkpt lat="47.40266" lon="0.61436">
        <ele>100.4</ele>
        <time>2023-07-18T06:27:01Z</time>
      </trkpt>
      <trkpt lat="47.4026" lon="0.6144">
        <ele>100.4</ele>
        <time>2023-07-18T06:27:02Z</time>
      </trkpt>
      <trkpt lat="47.40255" lon="0.61443">
        <ele>100.4</ele>
        <time>2023-07-18T06:27:03Z</time>
      </trkpt>
      <trkpt lat="47.4025" lon="0.61446">
        <ele>100.4</ele>
        <time>2023-07-18T06:27:04Z</time>
      </trkpt>
      <trkpt lat="47.40245" lon="0.6145">
        <ele>100.4</ele>
        <time>2023-07-18T06:27:05Z</time>
      </trkpt>
      <trkpt lat="47.4024" lon="0.61453">
        <ele>100.4</ele>
        <time>2023-07-18T06:27:06Z</time>
      </trkpt>
      <trkpt lat="47.40235" lon="0.61457">
        <ele>100.6</ele>
        <time>2023-07-18T06:27:07Z</time>
      </trkpt>
      <trkpt lat="47.4023" lon="0.6146">
        <ele>100.4</ele>
        <time>2023-07-18T06:27:08Z</time>
      </trkpt>
      <trkpt lat="47.40225" lon="0.61464">
        <ele>100.4</ele>
        <time>2023-07-18T06:27:09Z</time>
      </trkpt>
      <trkpt lat="47.40219" lon="0.61468">
        <ele>100.4</ele>
        <time>2023-07-18T06:27:10Z</time>
      </trkpt>
      <trkpt lat="47.40215" lon="0.61472">
        <ele>100.4</ele>
        <time>2023-07-18T06:27:11Z</time>
      </trkpt>
      <trkpt lat="47.4021" lon="0.61475">
        <ele>100.4</ele>
        <time>2023-07-18T06:27:12Z</time>
      </trkpt>
      <trkpt lat="47.40205" lon="0.61479">
        <ele>100.4</ele>
        <time>2023-07-18T06:27:13Z</time>
      </trkpt>
      <trkpt lat="47.402" lon="0.61482">
        <ele>100.6</ele>
        <time>2023-07-18T06:27:14Z</time>
      </trkpt>
      <trkpt lat="47.40194" lon="0.61486">
        <ele>100.6</ele>
        <time>2023-07-18T06:27:15Z</time>
      </trkpt>
      <trkpt lat="47.40189" lon="0.6149">
        <ele>100.4</ele>
        <time>2023-07-18T06:27:16Z</time>
      </trkpt>
      <trkpt lat="47.40185" lon="0.61494">
        <ele>100.4</ele>
        <time>2023-07-18T06:27:17Z</time>
      </trkpt>
      <trkpt lat="47.4018" lon="0.61498">
        <ele>100.4</ele>
        <time>2023-07-18T06:27:18Z</time>
      </trkpt>
      <trkpt lat="47.40175" lon="0.61501">
        <ele>100.2</ele>
        <time>2023-07-18T06:27:19Z</time>
      </trkpt>
      <trkpt lat="47.4017" lon="0.61505">
        <ele>100.2</ele>
        <time>2023-07-18T06:27:20Z</time>
      </trkpt>
      <trkpt lat="47.40165" lon="0.61508">
        <ele>100</ele>
        <time>2023-07-18T06:27:21Z</time>
      </trkpt>
      <trkpt lat="47.40159" lon="0.61512">
        <ele>99.8</ele>
        <time>2023-07-18T06:27:22Z</time>
      </trkpt>
      <trkpt lat="47.40154" lon="0.61515">
        <ele>99.8</ele>
        <time>2023-07-18T06:27:23Z</time>
      </trkpt>
      <trkpt lat="47.40149" lon="0.61519">
        <ele>99.6</ele>
        <time>2023-07-18T06:27:24Z</time>
      </trkpt>
      <trkpt lat="47.40144" lon="0.61522">
        <ele>99.6</ele>
        <time>2023-07-18T06:27:25Z</time>
      </trkpt>
      <trkpt lat="47.40139" lon="0.61526">
        <ele>99.6</ele>
        <time>2023-07-18T06:27:26Z</time>
      </trkpt>
      <trkpt lat="47.40133" lon="0.6153">
        <ele>99.4</ele>
        <time>2023-07-18T06:27:27Z</time>
      </trkpt>
      <trkpt lat="47.40128" lon="0.61533">
        <ele>99.2</ele>
        <time>2023-07-18T06:27:28Z</time>
      </trkpt>
      <trkpt lat="47.40123" lon="0.61537">
        <ele>99</ele>
        <time>2023-07-18T06:27:29Z</time>
      </trkpt>
      <trkpt lat="47.40117" lon="0.6154">
        <ele>99</ele>
        <time>2023-07-18T06:27:30Z</time>
      </trkpt>
      <trkpt lat="47.40112" lon="0.61543">
        <ele>98.8</ele>
        <time>2023-07-18T06:27:31Z</time>
      </trkpt>
      <trkpt lat="47.40107" lon="0.61545">
        <ele>98.6</ele>
        <time>2023-07-18T06:27:32Z</time>
      </trkpt>
      <trkpt lat="47.40102" lon="0.61548">
        <ele>98.6</ele>
        <time>2023-07-18T06:27:33Z</time>
      </trkpt>
      <trkpt lat="47.40096" lon="0.6155">
        <ele>98.8</ele>
        <time>2023-07-18T06:27:34Z</time>
      </trkpt>
      <trkpt lat="47.4009" lon="0.61552">
        <ele>98.8</ele>
        <time>2023-07-18T06:27:35Z</time>
      </trkpt>
      <trkpt lat="47.40084" lon="0.61553">
        <ele>98.8</ele>
        <time>2023-07-18T06:27:36Z</time>
      </trkpt>
      <trkpt lat="47.40078" lon="0.61556">
        <ele>98.6</ele>
        <time>2023-07-18T06:27:37Z</time>
      </trkpt>
      <trkpt lat="47.40073" lon="0.61558">
        <ele>98.6</ele>
        <time>2023-07-18T06:27:38Z</time>
      </trkpt>
      <trkpt lat="47.40067" lon="0.61559">
        <ele>98.4</ele>
        <time>2023-07-18T06:27:39Z</time>
      </trkpt>
      <trkpt lat="47.4006" lon="0.61561">
        <ele>98.4</ele>
        <time>2023-07-18T06:27:40Z</time>
      </trkpt>
      <trkpt lat="47.40054" lon="0.61563">
        <ele>98.2</ele>
        <time>2023-07-18T06:27:41Z</time>
      </trkpt>
      <trkpt lat="47.40048" lon="0.61564">
        <ele>98.2</ele>
        <time>2023-07-18T06:27:42Z</time>
      </trkpt>
      <trkpt lat="47.40042" lon="0.61565">
        <ele>98.2</ele>
        <time>2023-07-18T06:27:43Z</time>
      </trkpt>
      <trkpt lat="47.40036" lon="0.61566">
        <ele>98.2</ele>
        <time>2023-07-18T06:27:44Z</time>
      </trkpt>
      <trkpt lat="47.4003" lon="0.61568">
        <ele>98</ele>
        <time>2023-07-18T06:27:45Z</time>
      </trkpt>
      <trkpt lat="47.40024" lon="0.6157">
        <ele>97.8</ele>
        <time>2023-07-18T06:27:46Z</time>
      </trkpt>
      <trkpt lat="47.40018" lon="0.61572">
        <ele>97.6</ele>
        <time>2023-07-18T06:27:47Z</time>
      </trkpt>
      <trkpt lat="47.40012" lon="0.61573">
        <ele>97.4</ele>
        <time>2023-07-18T06:27:48Z</time>
      </trkpt>
      <trkpt lat="47.40005" lon="0.61573">
        <ele>97.2</ele>
        <time>2023-07-18T06:27:49Z</time>
      </trkpt>
      <trkpt lat="47.39999" lon="0.61572">
        <ele>97</ele>
        <time>2023-07-18T06:27:50Z</time>
      </trkpt>
      <trkpt lat="47.39992" lon="0.61571">
        <ele>96.8</ele>
        <time>2023-07-18T06:27:51Z</time>
      </trkpt>
      <trkpt lat="47.39985" lon="0.61571">
        <ele>96.4</ele>
        <time>2023-07-18T06:27:52Z</time>
      </trkpt>
      <trkpt lat="47.39977" lon="0.61569">
        <ele>96</ele>
        <time>2023-07-18T06:27:53Z</time>
      </trkpt>
      <trkpt lat="47.39967" lon="0.61568">
        <ele>95.6</ele>
        <time>2023-07-18T06:27:54Z</time>
      </trkpt>
      <trkpt lat="47.39961" lon="0.61568">
        <ele>95.2</ele>
        <time>2023-07-18T06:27:55Z</time>
      </trkpt>
      <trkpt lat="47.39953" lon="0.61568">
        <ele>94.8</ele>
        <time>2023-07-18T06:27:56Z</time>
      </trkpt>
      <trkpt lat="47.39945" lon="0.61567">
        <ele>94.2</ele>
        <time>2023-07-18T06:27:57Z</time>
      </trkpt>
      <trkpt lat="47.39936" lon="0.61567">
        <ele>93.8</ele>
        <time>2023-07-18T06:27:58Z</time>
      </trkpt>
      <trkpt lat="47.39928" lon="0.61567">
        <ele>93.4</ele>
        <time>2023-07-18T06:27:59Z</time>
      </trkpt>
      <trkpt lat="47.39919" lon="0.61567">
        <ele>92.8</ele>
        <time>2023-07-18T06:28:00Z</time>
      </trkpt>
      <trkpt lat="47.39909" lon="0.61567">
        <ele>92.6</ele>
        <time>2023-07-18T06:28:01Z</time>
      </trkpt>
      <trkpt lat="47.399" lon="0.61567">
        <ele>92.2</ele>
        <time>2023-07-18T06:28:02Z</time>
      </trkpt>
      <trkpt lat="47.3989" lon="0.61567">
        <ele>91.8</ele>
        <time>2023-07-18T06:28:03Z</time>
      </trkpt>
      <trkpt lat="47.39882" lon="0.61567">
        <ele>91.4</ele>
        <time>2023-07-18T06:28:04Z</time>
      </trkpt>
      <trkpt lat="47.39874" lon="0.61568">
        <ele>91</ele>
        <time>2023-07-18T06:28:05Z</time>
      </trkpt>
      <trkpt lat="47.39865" lon="0.61568">
        <ele>90.4</ele>
        <time>2023-07-18T06:28:06Z</time>
      </trkpt>
      <trkpt lat="47.39856" lon="0.61566">
        <ele>90</ele>
        <time>2023-07-18T06:28:07Z</time>
      </trkpt>
      <trkpt lat="47.39851" lon="0.61564">
        <ele>89.8</ele>
        <time>2023-07-18T06:28:08Z</time>
      </trkpt>
      <trkpt lat="47.39843" lon="0.61561">
        <ele>89.2</ele>
        <time>2023-07-18T06:28:09Z</time>
      </trkpt>
      <trkpt lat="47.39837" lon="0.61558">
        <ele>88.8</ele>
        <time>2023-07-18T06:28:10Z</time>
      </trkpt>
      <trkpt lat="47.3983" lon="0.61555">
        <ele>88.4</ele>
        <time>2023-07-18T06:28:11Z</time>
      </trkpt>
      <trkpt lat="47.39825" lon="0.61553">
        <ele>88</ele>
        <time>2023-07-18T06:28:12Z</time>
      </trkpt>
      <trkpt lat="47.39818" lon="0.61551">
        <ele>87.6</ele>
        <time>2023-07-18T06:28:13Z</time>
      </trkpt>
      <trkpt lat="47.39814" lon="0.61551">
        <ele>87.4</ele>
        <time>2023-07-18T06:28:14Z</time>
      </trkpt>
      <trkpt lat="47.39808" lon="0.61554">
        <ele>87.2</ele>
        <time>2023-07-18T06:28:15Z</time>
      </trkpt>
      <trkpt lat="47.39803" lon="0.61559">
        <ele>87</ele>
        <time>2023-07-18T06:28:16Z</time>
      </trkpt>
      <trkpt lat="47.39801" lon="0.61565">
        <ele>87</ele>
        <time>2023-07-18T06:28:17Z</time>
      </trkpt>
      <trkpt lat="47.39798" lon="0.61571">
        <ele>87</ele>
        <time>2023-07-18T06:28:18Z</time>
      </trkpt>
      <trkpt lat="47.39794" lon="0.61577">
        <ele>87</ele>
        <time>2023-07-18T06:28:19Z</time>
      </trkpt>
      <trkpt lat="47.39791" lon="0.61583">
        <ele>87</ele>
        <time>2023-07-18T06:28:20Z</time>
      </trkpt>
      <trkpt lat="47.39787" lon="0.61588">
        <ele>87.2</ele>
        <time>2023-07-18T06:28:21Z</time>
      </trkpt>
      <trkpt lat="47.39784" lon="0.61594">
        <ele>87.2</ele>
        <time>2023-07-18T06:28:22Z</time>
      </trkpt>
      <trkpt lat="47.39781" lon="0.616">
        <ele>87.4</ele>
        <time>2023-07-18T06:28:23Z</time>
      </trkpt>
      <trkpt lat="47.39777" lon="0.61606">
        <ele>87.6</ele>
        <time>2023-07-18T06:28:24Z</time>
      </trkpt>
      <trkpt lat="47.39774" lon="0.61612">
        <ele>87.8</ele>
        <time>2023-07-18T06:28:25Z</time>
      </trkpt>
      <trkpt lat="47.39771" lon="0.61617">
        <ele>87.8</ele>
        <time>2023-07-18T06:28:26Z</time>
      </trkpt>
      <trkpt lat="47.39767" lon="0.61623">
        <ele>88</ele>
        <time>2023-07-18T06:28:27Z</time>
      </trkpt>
      <trkpt lat="47.39765" lon="0.61627">
        <ele>88.4</ele>
        <time>2023-07-18T06:28:28Z</time>
      </trkpt>
      <trkpt lat="47.39761" lon="0.61633">
        <ele>88.6</ele>
        <time>2023-07-18T06:28:29Z</time>
      </trkpt>
      <trkpt lat="47.39758" lon="0.61639">
        <ele>89</ele>
        <time>2023-07-18T06:28:30Z</time>
      </trkpt>
      <trkpt lat="47.39756" lon="0.61644">
        <ele>89.2</ele>
        <time>2023-07-18T06:28:31Z</time>
      </trkpt>
      <trkpt lat="47.39753" lon="0.61649">
        <ele>89.4</ele>
        <time>2023-07-18T06:28:32Z</time>
      </trkpt>
      <trkpt lat="47.39751" lon="0.61654">
        <ele>89.8</ele>
        <time>2023-07-18T06:28:33Z</time>
      </trkpt>
      <trkpt lat="47.39749" lon="0.6166">
        <ele>90.2</ele>
        <time>2023-07-18T06:28:34Z</time>
      </trkpt>
      <trkpt lat="47.39746" lon="0.61667">
        <ele>90.4</ele>
        <time>2023-07-18T06:28:35Z</time>
      </trkpt>
      <trkpt lat="47.39745" lon="0.61672">
        <ele>90.8</ele>
        <time>2023-07-18T06:28:36Z</time>
      </trkpt>
      <trkpt lat="47.39743" lon="0.61678">
        <ele>91</ele>
        <time>2023-07-18T06:28:37Z</time>
      </trkpt>
      <trkpt lat="47.39742" lon="0.61685">
        <ele>91.4</ele>
        <time>2023-07-18T06:28:38Z</time>
      </trkpt>
      <trkpt lat="47.3974" lon="0.61691">
        <ele>91.6</ele>
        <time>2023-07-18T06:28:39Z</time>
      </trkpt>
      <trkpt lat="47.3974" lon="0.61696">
        <ele>92</ele>
        <time>2023-07-18T06:28:40Z</time>
      </trkpt>
      <trkpt lat="47.39738" lon="0.61702">
        <ele>92.2</ele>
        <time>2023-07-18T06:28:41Z</time>
      </trkpt>
      <trkpt lat="47.39737" lon="0.61708">
        <ele>92.6</ele>
        <time>2023-07-18T06:28:42Z</time>
      </trkpt>
      <trkpt lat="47.39735" lon="0.61714">
        <ele>92.8</ele>
        <time>2023-07-18T06:28:43Z</time>
      </trkpt>
      <trkpt lat="47.39734" lon="0.6172">
        <ele>93</ele>
        <time>2023-07-18T06:28:44Z</time>
      </trkpt>
      <trkpt lat="47.39732" lon="0.61726">
        <ele>93.2</ele>
        <time>2023-07-18T06:28:45Z</time>
      </trkpt>
      <trkpt lat="47.39731" lon="0.61731">
        <ele>93.6</ele>
        <time>2023-07-18T06:28:46Z</time>
      </trkpt>
      <trkpt lat="47.3973" lon="0.61736">
        <ele>93.8</ele>
        <time>2023-07-18T06:28:47Z</time>
      </trkpt>
      <trkpt lat="47.39729" lon="0.61742">
        <ele>94.2</ele>
        <time>2023-07-18T06:28:48Z</time>
      </trkpt>
      <trkpt lat="47.39727" lon="0.6175">
        <ele>94.4</ele>
        <time>2023-07-18T06:28:49Z</time>
      </trkpt>
      <trkpt lat="47.39726" lon="0.61756">
        <ele>94.6</ele>
        <time>2023-07-18T06:28:50Z</time>
      </trkpt>
      <trkpt lat="47.39725" lon="0.61761">
        <ele>95</ele>
        <time>2023-07-18T06:28:51Z</time>
      </trkpt>
      <trkpt lat="47.39723" lon="0.61766">
        <ele>95.2</ele>
        <time>2023-07-18T06:28:52Z</time>
      </trkpt>
      <trkpt lat="47.39721" lon="0.61773">
        <ele>95.6</ele>
        <time>2023-07-18T06:28:53Z</time>
      </trkpt>
      <trkpt lat="47.3972" lon="0.61777">
        <ele>96</ele>
        <time>2023-07-18T06:28:54Z</time>
      </trkpt>
      <trkpt lat="47.39718" lon="0.61782">
        <ele>96.2</ele>
        <time>2023-07-18T06:28:55Z</time>
      </trkpt>
      <trkpt lat="47.39717" lon="0.61788">
        <ele>96.4</ele>
        <time>2023-07-18T06:28:56Z</time>
      </trkpt>
      <trkpt lat="47.39715" lon="0.61794">
        <ele>96.6</ele>
        <time>2023-07-18T06:28:57Z</time>
      </trkpt>
      <trkpt lat="47.39714" lon="0.61801">
        <ele>96.8</ele>
        <time>2023-07-18T06:28:58Z</time>
      </trkpt>
      <trkpt lat="47.39712" lon="0.61807">
        <ele>97.2</ele>
        <time>2023-07-18T06:28:59Z</time>
      </trkpt>
      <trkpt lat="47.39711" lon="0.61811">
        <ele>97.4</ele>
        <time>2023-07-18T06:29:00Z</time>
      </trkpt>
      <trkpt lat="47.39709" lon="0.61817">
        <ele>97.6</ele>
        <time>2023-07-18T06:29:01Z</time>
      </trkpt>
      <trkpt lat="47.39707" lon="0.61823">
        <ele>97.8</ele>
        <time>2023-07-18T06:29:02Z</time>
      </trkpt>
      <trkpt lat="47.39706" lon="0.61829">
        <ele>98</ele>
        <time>2023-07-18T06:29:03Z</time>
      </trkpt>
      <trkpt lat="47.39705" lon="0.61834">
        <ele>98.2</ele>
        <time>2023-07-18T06:29:04Z</time>
      </trkpt>
      <trkpt lat="47.39703" lon="0.6184">
        <ele>98.4</ele>
        <time>2023-07-18T06:29:05Z</time>
      </trkpt>
      <trkpt lat="47.39702" lon="0.61846">
        <ele>98.4</ele>
        <time>2023-07-18T06:29:06Z</time>
      </trkpt>
      <trkpt lat="47.397" lon="0.61852">
        <ele>98.6</ele>
        <time>2023-07-18T06:29:07Z</time>
      </trkpt>
      <trkpt lat="47.39698" lon="0.61858">
        <ele>98.8</ele>
        <time>2023-07-18T06:29:08Z</time>
      </trkpt>
      <trkpt lat="47.39697" lon="0.61864">
        <ele>98.8</ele>
        <time>2023-07-18T06:29:09Z</time>
      </trkpt>
      <trkpt lat="47.39695" lon="0.61871">
        <ele>98.8</ele>
        <time>2023-07-18T06:29:10Z</time>
      </trkpt>
      <trkpt lat="47.39694" lon="0.61878">
        <ele>98.8</ele>
        <time>2023-07-18T06:29:11Z</time>
      </trkpt>
      <trkpt lat="47.39692" lon="0.61885">
        <ele>98.8</ele>
        <time>2023-07-18T06:29:12Z</time>
      </trkpt>
      <trkpt lat="47.3969" lon="0.61892">
        <ele>98.8</ele>
        <time>2023-07-18T06:29:13Z</time>
      </trkpt>
      <trkpt lat="47.39689" lon="0.61898">
        <ele>98.8</ele>
        <time>2023-07-18T06:29:14Z</time>
      </trkpt>
      <trkpt lat="47.39687" lon="0.61905">
        <ele>98.8</ele>
        <time>2023-07-18T06:29:15Z</time>
      </trkpt>
      <trkpt lat="47.39685" lon="0.61912">
        <ele>98.8</ele>
        <time>2023-07-18T06:29:16Z</time>
      </trkpt>
      <trkpt lat="47.39684" lon="0.61921">
        <ele>98.6</ele>
        <time>2023-07-18T06:29:17Z</time>
      </trkpt>
      <trkpt lat="47.39682" lon="0.61928">
        <ele>98.4</ele>
        <time>2023-07-18T06:29:18Z</time>
      </trkpt>
      <trkpt lat="47.3968" lon="0.61935">
        <ele>98.4</ele>
        <time>2023-07-18T06:29:19Z</time>
      </trkpt>
      <trkpt lat="47.39679" lon="0.61943">
        <ele>98.2</ele>
        <time>2023-07-18T06:29:20Z</time>
      </trkpt>
      <trkpt lat="47.39677" lon="0.61953">
        <ele>98</ele>
        <time>2023-07-18T06:29:21Z</time>
      </trkpt>
      <trkpt lat="47.39677" lon="0.6196">
        <ele>97.8</ele>
        <time>2023-07-18T06:29:22Z</time>
      </trkpt>
      <trkpt lat="47.39675" lon="0.61969">
        <ele>97.6</ele>
        <time>2023-07-18T06:29:23Z</time>
      </trkpt>
      <trkpt lat="47.39674" lon="0.61978">
        <ele>97.4</ele>
        <time>2023-07-18T06:29:24Z</time>
      </trkpt>
      <trkpt lat="47.39673" lon="0.61988">
        <ele>97.4</ele>
        <time>2023-07-18T06:29:25Z</time>
      </trkpt>
      <trkpt lat="47.39672" lon="0.61998">
        <ele>97.4</ele>
        <time>2023-07-18T06:29:26Z</time>
      </trkpt>
      <trkpt lat="47.39672" lon="0.62007">
        <ele>97.2</ele>
        <time>2023-07-18T06:29:27Z</time>
      </trkpt>
      <trkpt lat="47.39673" lon="0.62017">
        <ele>97</ele>
        <time>2023-07-18T06:29:28Z</time>
      </trkpt>
      <trkpt lat="47.39673" lon="0.62026">
        <ele>96.8</ele>
        <time>2023-07-18T06:29:29Z</time>
      </trkpt>
      <trkpt lat="47.39674" lon="0.62038">
        <ele>96.6</ele>
        <time>2023-07-18T06:29:30Z</time>
      </trkpt>
      <trkpt lat="47.39674" lon="0.62045">
        <ele>96.4</ele>
        <time>2023-07-18T06:29:31Z</time>
      </trkpt>
      <trkpt lat="47.39675" lon="0.62054">
        <ele>96</ele>
        <time>2023-07-18T06:29:32Z</time>
      </trkpt>
      <trkpt lat="47.39676" lon="0.62063">
        <ele>95.8</ele>
        <time>2023-07-18T06:29:33Z</time>
      </trkpt>
      <trkpt lat="47.39677" lon="0.62074">
        <ele>95.6</ele>
        <time>2023-07-18T06:29:34Z</time>
      </trkpt>
      <trkpt lat="47.39677" lon="0.62081">
        <ele>95.2</ele>
        <time>2023-07-18T06:29:35Z</time>
      </trkpt>
      <trkpt lat="47.39678" lon="0.6209">
        <ele>95</ele>
        <time>2023-07-18T06:29:36Z</time>
      </trkpt>
      <trkpt lat="47.39679" lon="0.62099">
        <ele>94.6</ele>
        <time>2023-07-18T06:29:37Z</time>
      </trkpt>
      <trkpt lat="47.39679" lon="0.6211">
        <ele>94.4</ele>
        <time>2023-07-18T06:29:38Z</time>
      </trkpt>
      <trkpt lat="47.3968" lon="0.62118">
        <ele>94.4</ele>
        <time>2023-07-18T06:29:39Z</time>
      </trkpt>
      <trkpt lat="47.3968" lon="0.62129">
        <ele>94.2</ele>
        <time>2023-07-18T06:29:40Z</time>
      </trkpt>
      <trkpt lat="47.3968" lon="0.62136">
        <ele>93.8</ele>
        <time>2023-07-18T06:29:41Z</time>
      </trkpt>
      <trkpt lat="47.39681" lon="0.62145">
        <ele>93.6</ele>
        <time>2023-07-18T06:29:42Z</time>
      </trkpt>
      <trkpt lat="47.3968" lon="0.62156">
        <ele>93.2</ele>
        <time>2023-07-18T06:29:43Z</time>
      </trkpt>
      <trkpt lat="47.3968" lon="0.62164">
        <ele>93</ele>
        <time>2023-07-18T06:29:44Z</time>
      </trkpt>
      <trkpt lat="47.39679" lon="0.62174">
        <ele>92.8</ele>
        <time>2023-07-18T06:29:45Z</time>
      </trkpt>
      <trkpt lat="47.39678" lon="0.62183">
        <ele>92.6</ele>
        <time>2023-07-18T06:29:46Z</time>
      </trkpt>
      <trkpt lat="47.39676" lon="0.62192">
        <ele>92.2</ele>
        <time>2023-07-18T06:29:47Z</time>
      </trkpt>
      <trkpt lat="47.39675" lon="0.62203">
        <ele>92</ele>
        <time>2023-07-18T06:29:48Z</time>
      </trkpt>
      <trkpt lat="47.39673" lon="0.62214">
        <ele>91.8</ele>
        <time>2023-07-18T06:29:49Z</time>
      </trkpt>
      <trkpt lat="47.39671" lon="0.62224">
        <ele>91.8</ele>
        <time>2023-07-18T06:29:50Z</time>
      </trkpt>
      <trkpt lat="47.3967" lon="0.62231">
        <ele>91.6</ele>
        <time>2023-07-18T06:29:51Z</time>
      </trkpt>
      <trkpt lat="47.39668" lon="0.6224">
        <ele>91.4</ele>
        <time>2023-07-18T06:29:52Z</time>
      </trkpt>
      <trkpt lat="47.39666" lon="0.62249">
        <ele>91.2</ele>
        <time>2023-07-18T06:29:53Z</time>
      </trkpt>
      <trkpt lat="47.39664" lon="0.62259">
        <ele>91</ele>
        <time>2023-07-18T06:29:54Z</time>
      </trkpt>
      <trkpt lat="47.39663" lon="0.62268">
        <ele>91</ele>
        <time>2023-07-18T06:29:55Z</time>
      </trkpt>
      <trkpt lat="47.39661" lon="0.62276">
        <ele>90.8</ele>
        <time>2023-07-18T06:29:56Z</time>
      </trkpt>
      <trkpt lat="47.39659" lon="0.62285">
        <ele>90.8</ele>
        <time>2023-07-18T06:29:57Z</time>
      </trkpt>
      <trkpt lat="47.39657" lon="0.62295">
        <ele>90.6</ele>
        <time>2023-07-18T06:29:58Z</time>
      </trkpt>
      <trkpt lat="47.39655" lon="0.62304">
        <ele>90.6</ele>
        <time>2023-07-18T06:29:59Z</time>
      </trkpt>
      <trkpt lat="47.39654" lon="0.62311">
        <ele>90.4</ele>
        <time>2023-07-18T06:30:00Z</time>
      </trkpt>
      <trkpt lat="47.39652" lon="0.62321">
        <ele>90.4</ele>
        <time>2023-07-18T06:30:01Z</time>
      </trkpt>
      <trkpt lat="47.39651" lon="0.62328">
        <ele>90.2</ele>
        <time>2023-07-18T06:30:02Z</time>
      </trkpt>
      <trkpt lat="47.3965" lon="0.62336">
        <ele>90</ele>
        <time>2023-07-18T06:30:03Z</time>
      </trkpt>
      <trkpt lat="47.39648" lon="0.62345">
        <ele>89.8</ele>
        <time>2023-07-18T06:30:04Z</time>
      </trkpt>
      <trkpt lat="47.39647" lon="0.62353">
        <ele>89.6</ele>
        <time>2023-07-18T06:30:05Z</time>
      </trkpt>
      <trkpt lat="47.39645" lon="0.62362">
        <ele>89.6</ele>
        <time>2023-07-18T06:30:06Z</time>
      </trkpt>
      <trkpt lat="47.39643" lon="0.6237">
        <ele>89.2</ele>
        <time>2023-07-18T06:30:07Z</time>
      </trkpt>
      <trkpt lat="47.39642" lon="0.6238">
        <ele>89.2</ele>
        <time>2023-07-18T06:30:08Z</time>
      </trkpt>
      <trkpt lat="47.3964" lon="0.62388">
        <ele>89.2</ele>
        <time>2023-07-18T06:30:09Z</time>
      </trkpt>
      <trkpt lat="47.39639" lon="0.62397">
        <ele>89.2</ele>
        <time>2023-07-18T06:30:10Z</time>
      </trkpt>
      <trkpt lat="47.39637" lon="0.62406">
        <ele>89.2</ele>
        <time>2023-07-18T06:30:11Z</time>
      </trkpt>
      <trkpt lat="47.39635" lon="0.62414">
        <ele>89.4</ele>
        <time>2023-07-18T06:30:12Z</time>
      </trkpt>
      <trkpt lat="47.39633" lon="0.62423">
        <ele>89.2</ele>
        <time>2023-07-18T06:30:13Z</time>
      </trkpt>
      <trkpt lat="47.39631" lon="0.62432">
        <ele>89.2</ele>
        <time>2023-07-18T06:30:14Z</time>
      </trkpt>
      <trkpt lat="47.39629" lon="0.6244">
        <ele>89</ele>
        <time>2023-07-18T06:30:15Z</time>
      </trkpt>
      <trkpt lat="47.39628" lon="0.62448">
        <ele>89</ele>
        <time>2023-07-18T06:30:16Z</time>
      </trkpt>
      <trkpt lat="47.39626" lon="0.62458">
        <ele>88.8</ele>
        <time>2023-07-18T06:30:17Z</time>
      </trkpt>
      <trkpt lat="47.39625" lon="0.62465">
        <ele>88.6</ele>
        <time>2023-07-18T06:30:18Z</time>
      </trkpt>
      <trkpt lat="47.39623" lon="0.62473">
        <ele>88.4</ele>
        <time>2023-07-18T06:30:19Z</time>
      </trkpt>
      <trkpt lat="47.39622" lon="0.62481">
        <ele>88.4</ele>
        <time>2023-07-18T06:30:20Z</time>
      </trkpt>
      <trkpt lat="47.3962" lon="0.6249">
        <ele>88.4</ele>
        <time>2023-07-18T06:30:21Z</time>
      </trkpt>
      <trkpt lat="47.39618" lon="0.62498">
        <ele>88.2</ele>
        <time>2023-07-18T06:30:22Z</time>
      </trkpt>
      <trkpt lat="47.39616" lon="0.62506">
        <ele>88.2</ele>
        <time>2023-07-18T06:30:23Z</time>
      </trkpt>
      <trkpt lat="47.39615" lon="0.62514">
        <ele>88</ele>
        <time>2023-07-18T06:30:24Z</time>
      </trkpt>
      <trkpt lat="47.39614" lon="0.62522">
        <ele>87.8</ele>
        <time>2023-07-18T06:30:25Z</time>
      </trkpt>
      <trkpt lat="47.39615" lon="0.62532">
        <ele>87.6</ele>
        <time>2023-07-18T06:30:26Z</time>
      </trkpt>
      <trkpt lat="47.39617" lon="0.62539">
        <ele>87.6</ele>
        <time>2023-07-18T06:30:27Z</time>
      </trkpt>
      <trkpt lat="47.3962" lon="0.62545">
        <ele>87.6</ele>
        <time>2023-07-18T06:30:28Z</time>
      </trkpt>
      <trkpt lat="47.39624" lon="0.6255">
        <ele>87.6</ele>
        <time>2023-07-18T06:30:29Z</time>
      </trkpt>
      <trkpt lat="47.39629" lon="0.62553">
        <ele>87.8</ele>
        <time>2023-07-18T06:30:30Z</time>
      </trkpt>
      <trkpt lat="47.39635" lon="0.62557">
        <ele>87.8</ele>
        <time>2023-07-18T06:30:31Z</time>
      </trkpt>
      <trkpt lat="47.39639" lon="0.62559">
        <ele>88</ele>
        <time>2023-07-18T06:30:32Z</time>
      </trkpt>
      <trkpt lat="47.39644" lon="0.62561">
        <ele>88.2</ele>
        <time>2023-07-18T06:30:33Z</time>
      </trkpt>
      <trkpt lat="47.39649" lon="0.62564">
        <ele>88.4</ele>
        <time>2023-07-18T06:30:34Z</time>
      </trkpt>
      <trkpt lat="47.39654" lon="0.62567">
        <ele>88.8</ele>
        <time>2023-07-18T06:30:35Z</time>
      </trkpt>
      <trkpt lat="47.39659" lon="0.62569">
        <ele>89</ele>
        <time>2023-07-18T06:30:36Z</time>
      </trkpt>
      <trkpt lat="47.39664" lon="0.62571">
        <ele>89.2</ele>
        <time>2023-07-18T06:30:37Z</time>
      </trkpt>
      <trkpt lat="47.39669" lon="0.62573">
        <ele>89.4</ele>
        <time>2023-07-18T06:30:38Z</time>
      </trkpt>
      <trkpt lat="47.39674" lon="0.62575">
        <ele>89.6</ele>
        <time>2023-07-18T06:30:39Z</time>
      </trkpt>
      <trkpt lat="47.39679" lon="0.62577">
        <ele>89.8</ele>
        <time>2023-07-18T06:30:40Z</time>
      </trkpt>
      <trkpt lat="47.39683" lon="0.62578">
        <ele>89.8</ele>
        <time>2023-07-18T06:30:41Z</time>
      </trkpt>
      <trkpt lat="47.39688" lon="0.62579">
        <ele>90</ele>
        <time>2023-07-18T06:30:42Z</time>
      </trkpt>
      <trkpt lat="47.39692" lon="0.62581">
        <ele>90.2</ele>
        <time>2023-07-18T06:30:43Z</time>
      </trkpt>
      <trkpt lat="47.39696" lon="0.62585">
        <ele>90.2</ele>
        <time>2023-07-18T06:30:44Z</time>
      </trkpt>
      <trkpt lat="47.39699" lon="0.62591">
        <ele>90.2</ele>
        <time>2023-07-18T06:30:45Z</time>
      </trkpt>
      <trkpt lat="47.39701" lon="0.62599">
        <ele>90.2</ele>
        <time>2023-07-18T06:30:46Z</time>
      </trkpt>
      <trkpt lat="47.39702" lon="0.62606">
        <ele>90.2</ele>
        <time>2023-07-18T06:30:47Z</time>
      </trkpt>
      <trkpt lat="47.39704" lon="0.62614">
        <ele>90.2</ele>
        <time>2023-07-18T06:30:48Z</time>
      </trkpt>
      <trkpt lat="47.39705" lon="0.62623">
        <ele>90.4</ele>
        <time>2023-07-18T06:30:49Z</time>
      </trkpt>
      <trkpt lat="47.39707" lon="0.62632">
        <ele>90.2</ele>
        <time>2023-07-18T06:30:50Z</time>
      </trkpt>
      <trkpt lat="47.39708" lon="0.6264">
        <ele>90.4</ele>
        <time>2023-07-18T06:30:51Z</time>
      </trkpt>
      <trkpt lat="47.3971" lon="0.62649">
        <ele>90.6</ele>
        <time>2023-07-18T06:30:52Z</time>
      </trkpt>
      <trkpt lat="47.39711" lon="0.62658">
        <ele>90.6</ele>
        <time>2023-07-18T06:30:53Z</time>
      </trkpt>
      <trkpt lat="47.39713" lon="0.62666">
        <ele>90.6</ele>
        <time>2023-07-18T06:30:54Z</time>
      </trkpt>
      <trkpt lat="47.39714" lon="0.62674">
        <ele>90.4</ele>
        <time>2023-07-18T06:30:55Z</time>
      </trkpt>
      <trkpt lat="47.39716" lon="0.62682">
        <ele>90.6</ele>
        <time>2023-07-18T06:30:56Z</time>
      </trkpt>
      <trkpt lat="47.39717" lon="0.6269">
        <ele>90.8</ele>
        <time>2023-07-18T06:30:57Z</time>
      </trkpt>
      <trkpt lat="47.39719" lon="0.62697">
        <ele>90.8</ele>
        <time>2023-07-18T06:30:58Z</time>
      </trkpt>
      <trkpt lat="47.3972" lon="0.62705">
        <ele>91</ele>
        <time>2023-07-18T06:30:59Z</time>
      </trkpt>
      <trkpt lat="47.39721" lon="0.62713">
        <ele>91.2</ele>
        <time>2023-07-18T06:31:00Z</time>
      </trkpt>
      <trkpt lat="47.39722" lon="0.62721">
        <ele>91.2</ele>
        <time>2023-07-18T06:31:01Z</time>
      </trkpt>
      <trkpt lat="47.39724" lon="0.62728">
        <ele>91.4</ele>
        <time>2023-07-18T06:31:02Z</time>
      </trkpt>
      <trkpt lat="47.39725" lon="0.62736">
        <ele>91.6</ele>
        <time>2023-07-18T06:31:03Z</time>
      </trkpt>
      <trkpt lat="47.39726" lon="0.62743">
        <ele>91.8</ele>
        <time>2023-07-18T06:31:04Z</time>
      </trkpt>
      <trkpt lat="47.39727" lon="0.6275">
        <ele>92</ele>
        <time>2023-07-18T06:31:05Z</time>
      </trkpt>
      <trkpt lat="47.39728" lon="0.62758">
        <ele>92.2</ele>
        <time>2023-07-18T06:31:06Z</time>
      </trkpt>
      <trkpt lat="47.3973" lon="0.62765">
        <ele>92.4</ele>
        <time>2023-07-18T06:31:07Z</time>
      </trkpt>
      <trkpt lat="47.39731" lon="0.62772">
        <ele>92.8</ele>
        <time>2023-07-18T06:31:08Z</time>
      </trkpt>
      <trkpt lat="47.39732" lon="0.62779">
        <ele>93</ele>
        <time>2023-07-18T06:31:09Z</time>
      </trkpt>
      <trkpt lat="47.39734" lon="0.62787">
        <ele>93.2</ele>
        <time>2023-07-18T06:31:10Z</time>
      </trkpt>
      <trkpt lat="47.39734" lon="0.62795">
        <ele>93.6</ele>
        <time>2023-07-18T06:31:11Z</time>
      </trkpt>
      <trkpt lat="47.39735" lon="0.62802">
        <ele>93.8</ele>
        <time>2023-07-18T06:31:12Z</time>
      </trkpt>
      <trkpt lat="47.39737" lon="0.62809">
        <ele>94</ele>
        <time>2023-07-18T06:31:13Z</time>
      </trkpt>
      <trkpt lat="47.39737" lon="0.62817">
        <ele>94.2</ele>
        <time>2023-07-18T06:31:14Z</time>
      </trkpt>
      <trkpt lat="47.39739" lon="0.62824">
        <ele>94.4</ele>
        <time>2023-07-18T06:31:15Z</time>
      </trkpt>
      <trkpt lat="47.3974" lon="0.62831">
        <ele>94.6</ele>
        <time>2023-07-18T06:31:16Z</time>
      </trkpt>
      <trkpt lat="47.3974" lon="0.62839">
        <ele>94.8</ele>
        <time>2023-07-18T06:31:17Z</time>
      </trkpt>
      <trkpt lat="47.39741" lon="0.62846">
        <ele>94.8</ele>
        <time>2023-07-18T06:31:18Z</time>
      </trkpt>
      <trkpt lat="47.39741" lon="0.62853">
        <ele>95</ele>
        <time>2023-07-18T06:31:19Z</time>
      </trkpt>
      <trkpt lat="47.39741" lon="0.6286">
        <ele>95.4</ele>
        <time>2023-07-18T06:31:20Z</time>
      </trkpt>
      <trkpt lat="47.3974" lon="0.62868">
        <ele>95.4</ele>
        <time>2023-07-18T06:31:21Z</time>
      </trkpt>
      <trkpt lat="47.3974" lon="0.62876">
        <ele>95.6</ele>
        <time>2023-07-18T06:31:22Z</time>
      </trkpt>
      <trkpt lat="47.39739" lon="0.62882">
        <ele>95.8</ele>
        <time>2023-07-18T06:31:23Z</time>
      </trkpt>
      <trkpt lat="47.39738" lon="0.6289">
        <ele>96</ele>
        <time>2023-07-18T06:31:24Z</time>
      </trkpt>
      <trkpt lat="47.39737" lon="0.62897">
        <ele>96</ele>
        <time>2023-07-18T06:31:25Z</time>
      </trkpt>
      <trkpt lat="47.39736" lon="0.62907">
        <ele>96.2</ele>
        <time>2023-07-18T06:31:26Z</time>
      </trkpt>
      <trkpt lat="47.39735" lon="0.62913">
        <ele>96.2</ele>
        <time>2023-07-18T06:31:27Z</time>
      </trkpt>
      <trkpt lat="47.39734" lon="0.6292">
        <ele>96.4</ele>
        <time>2023-07-18T06:31:28Z</time>
      </trkpt>
      <trkpt lat="47.39732" lon="0.62928">
        <ele>96.4</ele>
        <time>2023-07-18T06:31:29Z</time>
      </trkpt>
      <trkpt lat="47.39731" lon="0.62936">
        <ele>96.6</ele>
        <time>2023-07-18T06:31:30Z</time>
      </trkpt>
      <trkpt lat="47.3973" lon="0.62945">
        <ele>96.6</ele>
        <time>2023-07-18T06:31:31Z</time>
      </trkpt>
      <trkpt lat="47.3973" lon="0.62953">
        <ele>96.6</ele>
        <time>2023-07-18T06:31:32Z</time>
      </trkpt>
      <trkpt lat="47.3973" lon="0.62961">
        <ele>96.6</ele>
        <time>2023-07-18T06:31:33Z</time>
      </trkpt>
      <trkpt lat="47.3973" lon="0.62969">
        <ele>96.8</ele>
        <time>2023-07-18T06:31:34Z</time>
      </trkpt>
      <trkpt lat="47.3973" lon="0.62977">
        <ele>96.8</ele>
        <time>2023-07-18T06:31:35Z</time>
      </trkpt>
      <trkpt lat="47.39732" lon="0.62985">
        <ele>96.8</ele>
        <time>2023-07-18T06:31:36Z</time>
      </trkpt>
      <trkpt lat="47.39733" lon="0.62994">
        <ele>96.8</ele>
        <time>2023-07-18T06:31:37Z</time>
      </trkpt>
      <trkpt lat="47.39734" lon="0.63001">
        <ele>97</ele>
        <time>2023-07-18T06:31:38Z</time>
      </trkpt>
      <trkpt lat="47.39735" lon="0.63009">
        <ele>97</ele>
        <time>2023-07-18T06:31:39Z</time>
      </trkpt>
      <trkpt lat="47.39737" lon="0.63017">
        <ele>97</ele>
        <time>2023-07-18T06:31:40Z</time>
      </trkpt>
      <trkpt lat="47.39739" lon="0.63025">
        <ele>97</ele>
        <time>2023-07-18T06:31:41Z</time>
      </trkpt>
      <trkpt lat="47.39741" lon="0.63032">
        <ele>96.8</ele>
        <time>2023-07-18T06:31:42Z</time>
      </trkpt>
      <trkpt lat="47.39743" lon="0.63039">
        <ele>96.8</ele>
        <time>2023-07-18T06:31:43Z</time>
      </trkpt>
      <trkpt lat="47.39745" lon="0.63046">
        <ele>96.8</ele>
        <time>2023-07-18T06:31:44Z</time>
      </trkpt>
      <trkpt lat="47.39748" lon="0.63053">
        <ele>96.8</ele>
        <time>2023-07-18T06:31:45Z</time>
      </trkpt>
      <trkpt lat="47.39751" lon="0.63061">
        <ele>96.8</ele>
        <time>2023-07-18T06:31:46Z</time>
      </trkpt>
      <trkpt lat="47.39754" lon="0.63068">
        <ele>96.8</ele>
        <time>2023-07-18T06:31:47Z</time>
      </trkpt>
      <trkpt lat="47.39757" lon="0.63075">
        <ele>97</ele>
        <time>2023-07-18T06:31:48Z</time>
      </trkpt>
      <trkpt lat="47.3976" lon="0.63081">
        <ele>97</ele>
        <time>2023-07-18T06:31:49Z</time>
      </trkpt>
      <trkpt lat="47.39764" lon="0.63087">
        <ele>97</ele>
        <time>2023-07-18T06:31:50Z</time>
      </trkpt>
      <trkpt lat="47.39768" lon="0.63093">
        <ele>97</ele>
        <time>2023-07-18T06:31:51Z</time>
      </trkpt>
      <trkpt lat="47.39772" lon="0.63099">
        <ele>97</ele>
        <time>2023-07-18T06:31:52Z</time>
      </trkpt>
      <trkpt lat="47.39776" lon="0.63104">
        <ele>97</ele>
        <time>2023-07-18T06:31:53Z</time>
      </trkpt>
      <trkpt lat="47.3978" lon="0.63109">
        <ele>97</ele>
        <time>2023-07-18T06:31:54Z</time>
      </trkpt>
      <trkpt lat="47.39785" lon="0.63114">
        <ele>96.8</ele>
        <time>2023-07-18T06:31:55Z</time>
      </trkpt>
      <trkpt lat="47.39789" lon="0.63119">
        <ele>97</ele>
        <time>2023-07-18T06:31:56Z</time>
      </trkpt>
      <trkpt lat="47.39794" lon="0.63124">
        <ele>97</ele>
        <time>2023-07-18T06:31:57Z</time>
      </trkpt>
      <trkpt lat="47.39798" lon="0.6313">
        <ele>97</ele>
        <time>2023-07-18T06:31:58Z</time>
      </trkpt>
      <trkpt lat="47.39802" lon="0.63135">
        <ele>97</ele>
        <time>2023-07-18T06:31:59Z</time>
      </trkpt>
      <trkpt lat="47.39806" lon="0.63141">
        <ele>97</ele>
        <time>2023-07-18T06:32:00Z</time>
      </trkpt>
      <trkpt lat="47.3981" lon="0.63147">
        <ele>96.8</ele>
        <time>2023-07-18T06:32:01Z</time>
      </trkpt>
      <trkpt lat="47.39814" lon="0.63153">
        <ele>97</ele>
        <time>2023-07-18T06:32:02Z</time>
      </trkpt>
      <trkpt lat="47.39818" lon="0.6316">
        <ele>97.2</ele>
        <time>2023-07-18T06:32:03Z</time>
      </trkpt>
      <trkpt lat="47.39822" lon="0.63167">
        <ele>97.2</ele>
        <time>2023-07-18T06:32:04Z</time>
      </trkpt>
      <trkpt lat="47.39826" lon="0.63173">
        <ele>97</ele>
        <time>2023-07-18T06:32:05Z</time>
      </trkpt>
      <trkpt lat="47.3983" lon="0.6318">
        <ele>96.8</ele>
        <time>2023-07-18T06:32:06Z</time>
      </trkpt>
      <trkpt lat="47.39833" lon="0.63187">
        <ele>96.6</ele>
        <time>2023-07-18T06:32:07Z</time>
      </trkpt>
      <trkpt lat="47.39837" lon="0.63193">
        <ele>96.4</ele>
        <time>2023-07-18T06:32:08Z</time>
      </trkpt>
      <trkpt lat="47.39841" lon="0.632">
        <ele>96.2</ele>
        <time>2023-07-18T06:32:09Z</time>
      </trkpt>
      <trkpt lat="47.39845" lon="0.63207">
        <ele>96.2</ele>
        <time>2023-07-18T06:32:10Z</time>
      </trkpt>
      <trkpt lat="47.39849" lon="0.63214">
        <ele>96</ele>
        <time>2023-07-18T06:32:11Z</time>
      </trkpt>
      <trkpt lat="47.39853" lon="0.63221">
        <ele>96</ele>
        <time>2023-07-18T06:32:12Z</time>
      </trkpt>
      <trkpt lat="47.39856" lon="0.63227">
        <ele>95.8</ele>
        <time>2023-07-18T06:32:13Z</time>
      </trkpt>
      <trkpt lat="47.3986" lon="0.63234">
        <ele>95.6</ele>
        <time>2023-07-18T06:32:14Z</time>
      </trkpt>
      <trkpt lat="47.39864" lon="0.6324">
        <ele>95.6</ele>
        <time>2023-07-18T06:32:15Z</time>
      </trkpt>
      <trkpt lat="47.39867" lon="0.63247">
        <ele>95.4</ele>
        <time>2023-07-18T06:32:16Z</time>
      </trkpt>
      <trkpt lat="47.39871" lon="0.63253">
        <ele>95.2</ele>
        <time>2023-07-18T06:32:17Z</time>
      </trkpt>
      <trkpt lat="47.39874" lon="0.63259">
        <ele>95</ele>
        <time>2023-07-18T06:32:18Z</time>
      </trkpt>
      <trkpt lat="47.39875" lon="0.63265">
        <ele>94.8</ele>
        <time>2023-07-18T06:32:19Z</time>
      </trkpt>
      <trkpt lat="47.39874" lon="0.63272">
        <ele>94.6</ele>
        <time>2023-07-18T06:32:20Z</time>
      </trkpt>
      <trkpt lat="47.39872" lon="0.63278">
        <ele>94.6</ele>
        <time>2023-07-18T06:32:21Z</time>
      </trkpt>
      <trkpt lat="47.3987" lon="0.63284">
        <ele>94.6</ele>
        <time>2023-07-18T06:32:22Z</time>
      </trkpt>
      <trkpt lat="47.39866" lon="0.63289">
        <ele>94.4</ele>
        <time>2023-07-18T06:32:23Z</time>
      </trkpt>
      <trkpt lat="47.39862" lon="0.63294">
        <ele>94.4</ele>
        <time>2023-07-18T06:32:24Z</time>
      </trkpt>
      <trkpt lat="47.39857" lon="0.633">
        <ele>94.4</ele>
        <time>2023-07-18T06:32:25Z</time>
      </trkpt>
      <trkpt lat="47.39854" lon="0.63306">
        <ele>94.2</ele>
        <time>2023-07-18T06:32:26Z</time>
      </trkpt>
      <trkpt lat="47.39851" lon="0.63313">
        <ele>94.2</ele>
        <time>2023-07-18T06:32:27Z</time>
      </trkpt>
      <trkpt lat="47.39849" lon="0.63321">
        <ele>94</ele>
        <time>2023-07-18T06:32:28Z</time>
      </trkpt>
      <trkpt lat="47.39847" lon="0.63329">
        <ele>93.8</ele>
        <time>2023-07-18T06:32:29Z</time>
      </trkpt>
      <trkpt lat="47.39846" lon="0.63336">
        <ele>93.8</ele>
        <time>2023-07-18T06:32:30Z</time>
      </trkpt>
      <trkpt lat="47.39843" lon="0.63343">
        <ele>93.8</ele>
        <time>2023-07-18T06:32:31Z</time>
      </trkpt>
      <trkpt lat="47.39839" lon="0.63349">
        <ele>93.6</ele>
        <time>2023-07-18T06:32:32Z</time>
      </trkpt>
      <trkpt lat="47.39833" lon="0.63355">
        <ele>93.6</ele>
        <time>2023-07-18T06:32:33Z</time>
      </trkpt>
      <trkpt lat="47.39828" lon="0.63359">
        <ele>93.6</ele>
        <time>2023-07-18T06:32:34Z</time>
      </trkpt>
      <trkpt lat="47.39823" lon="0.63363">
        <ele>93.4</ele>
        <time>2023-07-18T06:32:35Z</time>
      </trkpt>
      <trkpt lat="47.39817" lon="0.63366">
        <ele>93.2</ele>
        <time>2023-07-18T06:32:36Z</time>
      </trkpt>
      <trkpt lat="47.39812" lon="0.6337">
        <ele>93.2</ele>
        <time>2023-07-18T06:32:37Z</time>
      </trkpt>
      <trkpt lat="47.39806" lon="0.63374">
        <ele>93</ele>
        <time>2023-07-18T06:32:38Z</time>
      </trkpt>
      <trkpt lat="47.39802" lon="0.63379">
        <ele>92.8</ele>
        <time>2023-07-18T06:32:39Z</time>
      </trkpt>
      <trkpt lat="47.39798" lon="0.63385">
        <ele>92.8</ele>
        <time>2023-07-18T06:32:40Z</time>
      </trkpt>
      <trkpt lat="47.39796" lon="0.63392">
        <ele>93</ele>
        <time>2023-07-18T06:32:41Z</time>
      </trkpt>
      <trkpt lat="47.39796" lon="0.63401">
        <ele>93</ele>
        <time>2023-07-18T06:32:42Z</time>
      </trkpt>
      <trkpt lat="47.39797" lon="0.63408">
        <ele>93.2</ele>
        <time>2023-07-18T06:32:43Z</time>
      </trkpt>
      <trkpt lat="47.39798" lon="0.63416">
        <ele>93.4</ele>
        <time>2023-07-18T06:32:44Z</time>
      </trkpt>
      <trkpt lat="47.39799" lon="0.63424">
        <ele>93.6</ele>
        <time>2023-07-18T06:32:45Z</time>
      </trkpt>
      <trkpt lat="47.39801" lon="0.63431">
        <ele>94</ele>
        <time>2023-07-18T06:32:46Z</time>
      </trkpt>
      <trkpt lat="47.39803" lon="0.63438">
        <ele>94.2</ele>
        <time>2023-07-18T06:32:47Z</time>
      </trkpt>
      <trkpt lat="47.39804" lon="0.63444">
        <ele>94.6</ele>
        <time>2023-07-18T06:32:48Z</time>
      </trkpt>
      <trkpt lat="47.39806" lon="0.63451">
        <ele>94.8</ele>
        <time>2023-07-18T06:32:49Z</time>
      </trkpt>
      <trkpt lat="47.39808" lon="0.63458">
        <ele>95.2</ele>
        <time>2023-07-18T06:32:50Z</time>
      </trkpt>
      <trkpt lat="47.3981" lon="0.63465">
        <ele>95.4</ele>
        <time>2023-07-18T06:32:51Z</time>
      </trkpt>
      <trkpt lat="47.39811" lon="0.63472">
        <ele>95.8</ele>
        <time>2023-07-18T06:32:52Z</time>
      </trkpt>
      <trkpt lat="47.39813" lon="0.63479">
        <ele>96</ele>
        <time>2023-07-18T06:32:53Z</time>
      </trkpt>
      <trkpt lat="47.39815" lon="0.63487">
        <ele>96.2</ele>
        <time>2023-07-18T06:32:54Z</time>
      </trkpt>
      <trkpt lat="47.39817" lon="0.63494">
        <ele>96.4</ele>
        <time>2023-07-18T06:32:55Z</time>
      </trkpt>
      <trkpt lat="47.39819" lon="0.63501">
        <ele>96.6</ele>
        <time>2023-07-18T06:32:56Z</time>
      </trkpt>
      <trkpt lat="47.3982" lon="0.63508">
        <ele>96.6</ele>
        <time>2023-07-18T06:32:57Z</time>
      </trkpt>
      <trkpt lat="47.39823" lon="0.63514">
        <ele>96.8</ele>
        <time>2023-07-18T06:32:58Z</time>
      </trkpt>
      <trkpt lat="47.39825" lon="0.63521">
        <ele>97</ele>
        <time>2023-07-18T06:32:59Z</time>
      </trkpt>
      <trkpt lat="47.39827" lon="0.63528">
        <ele>97.2</ele>
        <time>2023-07-18T06:33:00Z</time>
      </trkpt>
      <trkpt lat="47.39829" lon="0.63534">
        <ele>97.2</ele>
        <time>2023-07-18T06:33:01Z</time>
      </trkpt>
      <trkpt lat="47.39831" lon="0.6354">
        <ele>97.4</ele>
        <time>2023-07-18T06:33:02Z</time>
      </trkpt>
      <trkpt lat="47.39831" lon="0.63546">
        <ele>97.6</ele>
        <time>2023-07-18T06:33:03Z</time>
      </trkpt>
      <trkpt lat="47.3983" lon="0.63551">
        <ele>97.8</ele>
        <time>2023-07-18T06:33:04Z</time>
      </trkpt>
      <trkpt lat="47.39828" lon="0.63556">
        <ele>98</ele>
        <time>2023-07-18T06:33:05Z</time>
      </trkpt>
      <trkpt lat="47.39825" lon="0.63561">
        <ele>98.2</ele>
        <time>2023-07-18T06:33:06Z</time>
      </trkpt>
      <trkpt lat="47.39821" lon="0.63565">
        <ele>98.4</ele>
        <time>2023-07-18T06:33:07Z</time>
      </trkpt>
      <trkpt lat="47.39817" lon="0.6357">
        <ele>98.6</ele>
        <time>2023-07-18T06:33:08Z</time>
      </trkpt>
      <trkpt lat="47.39813" lon="0.63575">
        <ele>98.6</ele>
        <time>2023-07-18T06:33:09Z</time>
      </trkpt>
      <trkpt lat="47.39808" lon="0.63579">
        <ele>98.8</ele>
        <time>2023-07-18T06:33:10Z</time>
      </trkpt>
      <trkpt lat="47.39804" lon="0.63584">
        <ele>98.8</ele>
        <time>2023-07-18T06:33:11Z</time>
      </trkpt>
      <trkpt lat="47.39799" lon="0.63589">
        <ele>98.8</ele>
        <time>2023-07-18T06:33:12Z</time>
      </trkpt>
      <trkpt lat="47.39795" lon="0.63595">
        <ele>98.8</ele>
        <time>2023-07-18T06:33:13Z</time>
      </trkpt>
      <trkpt lat="47.39791" lon="0.636">
        <ele>98.8</ele>
        <time>2023-07-18T06:33:14Z</time>
      </trkpt>
      <trkpt lat="47.39786" lon="0.63605">
        <ele>98.8</ele>
        <time>2023-07-18T06:33:15Z</time>
      </trkpt>
      <trkpt lat="47.39782" lon="0.6361">
        <ele>98.8</ele>
        <time>2023-07-18T06:33:16Z</time>
      </trkpt>
      <trkpt lat="47.39777" lon="0.63616">
        <ele>98.8</ele>
        <time>2023-07-18T06:33:17Z</time>
      </trkpt>
      <trkpt lat="47.39773" lon="0.63621">
        <ele>98.8</ele>
        <time>2023-07-18T06:33:18Z</time>
      </trkpt>
      <trkpt lat="47.39768" lon="0.63627">
        <ele>98.6</ele>
        <time>2023-07-18T06:33:19Z</time>
      </trkpt>
      <trkpt lat="47.39764" lon="0.63632">
        <ele>98.6</ele>
        <time>2023-07-18T06:33:20Z</time>
      </trkpt>
      <trkpt lat="47.39759" lon="0.63638">
        <ele>98.4</ele>
        <time>2023-07-18T06:33:21Z</time>
      </trkpt>
      <trkpt lat="47.39753" lon="0.63643">
        <ele>98.4</ele>
        <time>2023-07-18T06:33:22Z</time>
      </trkpt>
      <trkpt lat="47.39748" lon="0.63648">
        <ele>98.4</ele>
        <time>2023-07-18T06:33:23Z</time>
      </trkpt>
      <trkpt lat="47.39744" lon="0.63653">
        <ele>98.4</ele>
        <time>2023-07-18T06:33:24Z</time>
      </trkpt>
      <trkpt lat="47.39739" lon="0.63659">
        <ele>98.6</ele>
        <time>2023-07-18T06:33:25Z</time>
      </trkpt>
      <trkpt lat="47.39735" lon="0.63664">
        <ele>98.6</ele>
        <time>2023-07-18T06:33:26Z</time>
      </trkpt>
      <trkpt lat="47.3973" lon="0.63669">
        <ele>98.6</ele>
        <time>2023-07-18T06:33:27Z</time>
      </trkpt>
      <trkpt lat="47.39726" lon="0.63674">
        <ele>98.4</ele>
        <time>2023-07-18T06:33:28Z</time>
      </trkpt>
      <trkpt lat="47.39722" lon="0.63679">
        <ele>98.6</ele>
        <time>2023-07-18T06:33:29Z</time>
      </trkpt>
      <trkpt lat="47.39717" lon="0.63684">
        <ele>98.4</ele>
        <time>2023-07-18T06:33:30Z</time>
      </trkpt>
      <trkpt lat="47.39713" lon="0.63689">
        <ele>98.4</ele>
        <time>2023-07-18T06:33:31Z</time>
      </trkpt>
      <trkpt lat="47.39709" lon="0.63694">
        <ele>98.4</ele>
        <time>2023-07-18T06:33:32Z</time>
      </trkpt>
      <trkpt lat="47.39706" lon="0.63699">
        <ele>98.6</ele>
        <time>2023-07-18T06:33:33Z</time>
      </trkpt>
      <trkpt lat="47.39704" lon="0.63706">
        <ele>98.6</ele>
        <time>2023-07-18T06:33:34Z</time>
      </trkpt>
      <trkpt lat="47.39704" lon="0.63713">
        <ele>98.8</ele>
        <time>2023-07-18T06:33:35Z</time>
      </trkpt>
      <trkpt lat="47.39705" lon="0.63721">
        <ele>98.8</ele>
        <time>2023-07-18T06:33:36Z</time>
      </trkpt>
      <trkpt lat="47.39707" lon="0.63728">
        <ele>99</ele>
        <time>2023-07-18T06:33:37Z</time>
      </trkpt>
      <trkpt lat="47.39709" lon="0.63735">
        <ele>99</ele>
        <time>2023-07-18T06:33:38Z</time>
      </trkpt>
      <trkpt lat="47.39711" lon="0.63742">
        <ele>99.2</ele>
        <time>2023-07-18T06:33:39Z</time>
      </trkpt>
      <trkpt lat="47.39713" lon="0.63749">
        <ele>99.2</ele>
        <time>2023-07-18T06:33:40Z</time>
      </trkpt>
      <trkpt lat="47.39715" lon="0.63756">
        <ele>99.2</ele>
        <time>2023-07-18T06:33:41Z</time>
      </trkpt>
      <trkpt lat="47.39716" lon="0.63764">
        <ele>99.2</ele>
        <time>2023-07-18T06:33:42Z</time>
      </trkpt>
      <trkpt lat="47.39718" lon="0.63771">
        <ele>99</ele>
        <time>2023-07-18T06:33:43Z</time>
      </trkpt>
      <trkpt lat="47.3972" lon="0.63778">
        <ele>99.2</ele>
        <time>2023-07-18T06:33:44Z</time>
      </trkpt>
      <trkpt lat="47.39722" lon="0.63785">
        <ele>99.2</ele>
        <time>2023-07-18T06:33:45Z</time>
      </trkpt>
      <trkpt lat="47.39724" lon="0.63793">
        <ele>99.4</ele>
        <time>2023-07-18T06:33:46Z</time>
      </trkpt>
      <trkpt lat="47.39725" lon="0.638">
        <ele>99.4</ele>
        <time>2023-07-18T06:33:47Z</time>
      </trkpt>
      <trkpt lat="47.39726" lon="0.63808">
        <ele>99.4</ele>
        <time>2023-07-18T06:33:48Z</time>
      </trkpt>
      <trkpt lat="47.39727" lon="0.63816">
        <ele>99.6</ele>
        <time>2023-07-18T06:33:49Z</time>
      </trkpt>
      <trkpt lat="47.39728" lon="0.63824">
        <ele>99.6</ele>
        <time>2023-07-18T06:33:50Z</time>
      </trkpt>
      <trkpt lat="47.3973" lon="0.63831">
        <ele>99.8</ele>
        <time>2023-07-18T06:33:51Z</time>
      </trkpt>
      <trkpt lat="47.3973" lon="0.63839">
        <ele>99.8</ele>
        <time>2023-07-18T06:33:52Z</time>
      </trkpt>
      <trkpt lat="47.39731" lon="0.63847">
        <ele>99.8</ele>
        <time>2023-07-18T06:33:53Z</time>
      </trkpt>
      <trkpt lat="47.39732" lon="0.63855">
        <ele>99.8</ele>
        <time>2023-07-18T06:33:54Z</time>
      </trkpt>
      <trkpt lat="47.39733" lon="0.63863">
        <ele>99.6</ele>
        <time>2023-07-18T06:33:55Z</time>
      </trkpt>
      <trkpt lat="47.39734" lon="0.63871">
        <ele>99.4</ele>
        <time>2023-07-18T06:33:56Z</time>
      </trkpt>
      <trkpt lat="47.39734" lon="0.63878">
        <ele>99.4</ele>
        <time>2023-07-18T06:33:57Z</time>
      </trkpt>
      <trkpt lat="47.39735" lon="0.63886">
        <ele>99.6</ele>
        <time>2023-07-18T06:33:58Z</time>
      </trkpt>
      <trkpt lat="47.39736" lon="0.63893">
        <ele>99.6</ele>
        <time>2023-07-18T06:33:59Z</time>
      </trkpt>
      <trkpt lat="47.39737" lon="0.63901">
        <ele>99.6</ele>
        <time>2023-07-18T06:34:00Z</time>
      </trkpt>
      <trkpt lat="47.39738" lon="0.63908">
        <ele>99.6</ele>
        <time>2023-07-18T06:34:01Z</time>
      </trkpt>
      <trkpt lat="47.39739" lon="0.63916">
        <ele>99.6</ele>
        <time>2023-07-18T06:34:02Z</time>
      </trkpt>
      <trkpt lat="47.3974" lon="0.63923">
        <ele>99.6</ele>
        <time>2023-07-18T06:34:03Z</time>
      </trkpt>
      <trkpt lat="47.39741" lon="0.6393">
        <ele>99.6</ele>
        <time>2023-07-18T06:34:04Z</time>
      </trkpt>
      <trkpt lat="47.39742" lon="0.63938">
        <ele>99.4</ele>
        <time>2023-07-18T06:34:05Z</time>
      </trkpt>
      <trkpt lat="47.39742" lon="0.63945">
        <ele>99.4</ele>
        <time>2023-07-18T06:34:06Z</time>
      </trkpt>
      <trkpt lat="47.39742" lon="0.63953">
        <ele>99.4</ele>
        <time>2023-07-18T06:34:07Z</time>
      </trkpt>
      <trkpt lat="47.39741" lon="0.6396">
        <ele>99.2</ele>
        <time>2023-07-18T06:34:08Z</time>
      </trkpt>
      <trkpt lat="47.39739" lon="0.63966">
        <ele>99</ele>
        <time>2023-07-18T06:34:09Z</time>
      </trkpt>
      <trkpt lat="47.39736" lon="0.63972">
        <ele>99</ele>
        <time>2023-07-18T06:34:10Z</time>
      </trkpt>
      <trkpt lat="47.39732" lon="0.63977">
        <ele>99</ele>
        <time>2023-07-18T06:34:11Z</time>
      </trkpt>
      <trkpt lat="47.39728" lon="0.63982">
        <ele>99</ele>
        <time>2023-07-18T06:34:12Z</time>
      </trkpt>
      <trkpt lat="47.39724" lon="0.63987">
        <ele>99</ele>
        <time>2023-07-18T06:34:13Z</time>
      </trkpt>
      <trkpt lat="47.39719" lon="0.63992">
        <ele>99</ele>
        <time>2023-07-18T06:34:14Z</time>
      </trkpt>
      <trkpt lat="47.39715" lon="0.63997">
        <ele>99.2</ele>
        <time>2023-07-18T06:34:15Z</time>
      </trkpt>
      <trkpt lat="47.3971" lon="0.64003">
        <ele>99.2</ele>
        <time>2023-07-18T06:34:16Z</time>
      </trkpt>
      <trkpt lat="47.39706" lon="0.64008">
        <ele>99.2</ele>
        <time>2023-07-18T06:34:17Z</time>
      </trkpt>
      <trkpt lat="47.39703" lon="0.64013">
        <ele>99.2</ele>
        <time>2023-07-18T06:34:18Z</time>
      </trkpt>
      <trkpt lat="47.397" lon="0.64019">
        <ele>99.2</ele>
        <time>2023-07-18T06:34:19Z</time>
      </trkpt>
      <trkpt lat="47.39696" lon="0.64025">
        <ele>99</ele>
        <time>2023-07-18T06:34:20Z</time>
      </trkpt>
      <trkpt lat="47.39695" lon="0.64032">
        <ele>99</ele>
        <time>2023-07-18T06:34:21Z</time>
      </trkpt>
      <trkpt lat="47.39695" lon="0.64039">
        <ele>99</ele>
        <time>2023-07-18T06:34:22Z</time>
      </trkpt>
      <trkpt lat="47.39696" lon="0.64046">
        <ele>99</ele>
        <time>2023-07-18T06:34:23Z</time>
      </trkpt>
      <trkpt lat="47.39699" lon="0.64054">
        <ele>99</ele>
        <time>2023-07-18T06:34:24Z</time>
      </trkpt>
      <trkpt lat="47.39701" lon="0.64061">
        <ele>99.2</ele>
        <time>2023-07-18T06:34:25Z</time>
      </trkpt>
      <trkpt lat="47.39703" lon="0.64068">
        <ele>99.2</ele>
        <time>2023-07-18T06:34:26Z</time>
      </trkpt>
      <trkpt lat="47.39706" lon="0.64075">
        <ele>99.2</ele>
        <time>2023-07-18T06:34:27Z</time>
      </trkpt>
      <trkpt lat="47.39708" lon="0.64082">
        <ele>99</ele>
        <time>2023-07-18T06:34:28Z</time>
      </trkpt>
      <trkpt lat="47.39711" lon="0.6409">
        <ele>99.2</ele>
        <time>2023-07-18T06:34:29Z</time>
      </trkpt>
      <trkpt lat="47.39713" lon="0.64097">
        <ele>99.2</ele>
        <time>2023-07-18T06:34:30Z</time>
      </trkpt>
      <trkpt lat="47.39715" lon="0.64104">
        <ele>99.2</ele>
        <time>2023-07-18T06:34:31Z</time>
      </trkpt>
      <trkpt lat="47.39717" lon="0.64111">
        <ele>99.2</ele>
        <time>2023-07-18T06:34:32Z</time>
      </trkpt>
      <trkpt lat="47.39717" lon="0.64119">
        <ele>99.2</ele>
        <time>2023-07-18T06:34:33Z</time>
      </trkpt>
      <trkpt lat="47.39717" lon="0.64127">
        <ele>99.2</ele>
        <time>2023-07-18T06:34:34Z</time>
      </trkpt>
      <trkpt lat="47.39717" lon="0.64135">
        <ele>99.2</ele>
        <time>2023-07-18T06:34:35Z</time>
      </trkpt>
      <trkpt lat="47.39716" lon="0.64143">
        <ele>99</ele>
        <time>2023-07-18T06:34:36Z</time>
      </trkpt>
      <trkpt lat="47.39714" lon="0.64151">
        <ele>99</ele>
        <time>2023-07-18T06:34:37Z</time>
      </trkpt>
      <trkpt lat="47.39713" lon="0.64158">
        <ele>98.8</ele>
        <time>2023-07-18T06:34:38Z</time>
      </trkpt>
      <trkpt lat="47.39711" lon="0.64166">
        <ele>98.6</ele>
        <time>2023-07-18T06:34:39Z</time>
      </trkpt>
      <trkpt lat="47.3971" lon="0.64174">
        <ele>98.6</ele>
        <time>2023-07-18T06:34:40Z</time>
      </trkpt>
      <trkpt lat="47.39708" lon="0.64182">
        <ele>98.4</ele>
        <time>2023-07-18T06:34:41Z</time>
      </trkpt>
      <trkpt lat="47.39706" lon="0.6419">
        <ele>98.2</ele>
        <time>2023-07-18T06:34:42Z</time>
      </trkpt>
      <trkpt lat="47.39703" lon="0.64199">
        <ele>98</ele>
        <time>2023-07-18T06:34:43Z</time>
      </trkpt>
      <trkpt lat="47.39701" lon="0.64208">
        <ele>97.8</ele>
        <time>2023-07-18T06:34:44Z</time>
      </trkpt>
      <trkpt lat="47.39699" lon="0.64218">
        <ele>97.4</ele>
        <time>2023-07-18T06:34:45Z</time>
      </trkpt>
      <trkpt lat="47.39697" lon="0.64229">
        <ele>97</ele>
        <time>2023-07-18T06:34:46Z</time>
      </trkpt>
      <trkpt lat="47.39695" lon="0.64239">
        <ele>96.6</ele>
        <time>2023-07-18T06:34:47Z</time>
      </trkpt>
      <trkpt lat="47.39692" lon="0.6425">
        <ele>96</ele>
        <time>2023-07-18T06:34:48Z</time>
      </trkpt>
      <trkpt lat="47.3969" lon="0.64261">
        <ele>95.4</ele>
        <time>2023-07-18T06:34:49Z</time>
      </trkpt>
      <trkpt lat="47.39687" lon="0.6427">
        <ele>94.8</ele>
        <time>2023-07-18T06:34:50Z</time>
      </trkpt>
      <trkpt lat="47.39685" lon="0.6428">
        <ele>94</ele>
        <time>2023-07-18T06:34:51Z</time>
      </trkpt>
      <trkpt lat="47.39683" lon="0.64288">
        <ele>93.2</ele>
        <time>2023-07-18T06:34:52Z</time>
      </trkpt>
      <trkpt lat="47.39681" lon="0.64295">
        <ele>92.6</ele>
        <time>2023-07-18T06:34:53Z</time>
      </trkpt>
      <trkpt lat="47.39679" lon="0.64302">
        <ele>92</ele>
        <time>2023-07-18T06:34:54Z</time>
      </trkpt>
      <trkpt lat="47.39678" lon="0.64308">
        <ele>91.6</ele>
        <time>2023-07-18T06:34:55Z</time>
      </trkpt>
      <trkpt lat="47.39677" lon="0.64313">
        <ele>91</ele>
        <time>2023-07-18T06:34:56Z</time>
      </trkpt>
      <trkpt lat="47.39676" lon="0.64319">
        <ele>90.6</ele>
        <time>2023-07-18T06:34:57Z</time>
      </trkpt>
      <trkpt lat="47.39674" lon="0.64326">
        <ele>90</ele>
        <time>2023-07-18T06:34:58Z</time>
      </trkpt>
      <trkpt lat="47.39671" lon="0.64332">
        <ele>89.6</ele>
        <time>2023-07-18T06:34:59Z</time>
      </trkpt>
      <trkpt lat="47.39668" lon="0.64338">
        <ele>89.2</ele>
        <time>2023-07-18T06:35:00Z</time>
      </trkpt>
      <trkpt lat="47.39666" lon="0.64347">
        <ele>88.8</ele>
        <time>2023-07-18T06:35:01Z</time>
      </trkpt>
      <trkpt lat="47.39661" lon="0.64358">
        <ele>88.2</ele>
        <time>2023-07-18T06:35:02Z</time>
      </trkpt>
      <trkpt lat="47.39656" lon="0.64368">
        <ele>87.8</ele>
        <time>2023-07-18T06:35:03Z</time>
      </trkpt>
      <trkpt lat="47.3965" lon="0.64379">
        <ele>87.2</ele>
        <time>2023-07-18T06:35:04Z</time>
      </trkpt>
      <trkpt lat="47.39644" lon="0.64389">
        <ele>86.6</ele>
        <time>2023-07-18T06:35:05Z</time>
      </trkpt>
      <trkpt lat="47.39638" lon="0.64398">
        <ele>86</ele>
        <time>2023-07-18T06:35:06Z</time>
      </trkpt>
      <trkpt lat="47.39632" lon="0.64409">
        <ele>85.4</ele>
        <time>2023-07-18T06:35:07Z</time>
      </trkpt>
      <trkpt lat="47.39625" lon="0.64418">
        <ele>84.8</ele>
        <time>2023-07-18T06:35:08Z</time>
      </trkpt>
      <trkpt lat="47.39618" lon="0.64427">
        <ele>84.2</ele>
        <time>2023-07-18T06:35:09Z</time>
      </trkpt>
      <trkpt lat="47.39611" lon="0.64435">
        <ele>83.6</ele>
        <time>2023-07-18T06:35:10Z</time>
      </trkpt>
      <trkpt lat="47.39604" lon="0.64443">
        <ele>83</ele>
        <time>2023-07-18T06:35:11Z</time>
      </trkpt>
      <trkpt lat="47.39596" lon="0.6445">
        <ele>82.4</ele>
        <time>2023-07-18T06:35:12Z</time>
      </trkpt>
      <trkpt lat="47.39588" lon="0.64455">
        <ele>81.8</ele>
        <time>2023-07-18T06:35:13Z</time>
      </trkpt>
      <trkpt lat="47.39579" lon="0.64462">
        <ele>81.2</ele>
        <time>2023-07-18T06:35:14Z</time>
      </trkpt>
      <trkpt lat="47.3957" lon="0.64468">
        <ele>80.4</ele>
        <time>2023-07-18T06:35:15Z</time>
      </trkpt>
      <trkpt lat="47.39562" lon="0.64474">
        <ele>79.8</ele>
        <time>2023-07-18T06:35:16Z</time>
      </trkpt>
      <trkpt lat="47.39553" lon="0.64481">
        <ele>79</ele>
        <time>2023-07-18T06:35:17Z</time>
      </trkpt>
      <trkpt lat="47.39545" lon="0.64486">
        <ele>78.2</ele>
        <time>2023-07-18T06:35:18Z</time>
      </trkpt>
      <trkpt lat="47.39537" lon="0.64491">
        <ele>77.4</ele>
        <time>2023-07-18T06:35:19Z</time>
      </trkpt>
      <trkpt lat="47.39528" lon="0.64498">
        <ele>76.4</ele>
        <time>2023-07-18T06:35:20Z</time>
      </trkpt>
      <trkpt lat="47.39518" lon="0.64504">
        <ele>75.6</ele>
        <time>2023-07-18T06:35:21Z</time>
      </trkpt>
      <trkpt lat="47.39509" lon="0.6451">
        <ele>75</ele>
        <time>2023-07-18T06:35:22Z</time>
      </trkpt>
      <trkpt lat="47.395" lon="0.64515">
        <ele>74.6</ele>
        <time>2023-07-18T06:35:23Z</time>
      </trkpt>
      <trkpt lat="47.39492" lon="0.6452">
        <ele>73.8</ele>
        <time>2023-07-18T06:35:24Z</time>
      </trkpt>
      <trkpt lat="47.39486" lon="0.64524">
        <ele>72.8</ele>
        <time>2023-07-18T06:35:25Z</time>
      </trkpt>
      <trkpt lat="47.39481" lon="0.64528">
        <ele>72</ele>
        <time>2023-07-18T06:35:26Z</time>
      </trkpt>
      <trkpt lat="47.39475" lon="0.64532">
        <ele>71.2</ele>
        <time>2023-07-18T06:35:27Z</time>
      </trkpt>
      <trkpt lat="47.3947" lon="0.64536">
        <ele>70.4</ele>
        <time>2023-07-18T06:35:28Z</time>
      </trkpt>
      <trkpt lat="47.39464" lon="0.64542">
        <ele>69.8</ele>
        <time>2023-07-18T06:35:29Z</time>
      </trkpt>
      <trkpt lat="47.39461" lon="0.6455">
        <ele>69.2</ele>
        <time>2023-07-18T06:35:30Z</time>
      </trkpt>
      <trkpt lat="47.39457" lon="0.64558">
        <ele>68.6</ele>
        <time>2023-07-18T06:35:31Z</time>
      </trkpt>
      <trkpt lat="47.39454" lon="0.64566">
        <ele>68.2</ele>
        <time>2023-07-18T06:35:32Z</time>
      </trkpt>
      <trkpt lat="47.39449" lon="0.64575">
        <ele>67.8</ele>
        <time>2023-07-18T06:35:33Z</time>
      </trkpt>
      <trkpt lat="47.39444" lon="0.64584">
        <ele>67.2</ele>
        <time>2023-07-18T06:35:34Z</time>
      </trkpt>
      <trkpt lat="47.39438" lon="0.64591">
        <ele>66.4</ele>
        <time>2023-07-18T06:35:35Z</time>
      </trkpt>
      <trkpt lat="47.39433" lon="0.64596">
        <ele>65.6</ele>
        <time>2023-07-18T06:35:36Z</time>
      </trkpt>
      <trkpt lat="47.39429" lon="0.646">
        <ele>65</ele>
        <time>2023-07-18T06:35:37Z</time>
      </trkpt>
      <trkpt lat="47.39425" lon="0.64603">
        <ele>64.4</ele>
        <time>2023-07-18T06:35:38Z</time>
      </trkpt>
      <trkpt lat="47.3942" lon="0.64605">
        <ele>64</ele>
        <time>2023-07-18T06:35:39Z</time>
      </trkpt>
      <trkpt lat="47.39417" lon="0.64609">
        <ele>63.6</ele>
        <time>2023-07-18T06:35:40Z</time>
      </trkpt>
      <trkpt lat="47.39415" lon="0.64614">
        <ele>63.2</ele>
        <time>2023-07-18T06:35:41Z</time>
      </trkpt>
      <trkpt lat="47.39415" lon="0.64618">
        <ele>63</ele>
        <time>2023-07-18T06:35:42Z</time>
      </trkpt>
      <trkpt lat="47.39415" lon="0.6462">
        <ele>62.8</ele>
        <time>2023-07-18T06:35:43Z</time>
      </trkpt>
      <trkpt lat="47.39414" lon="0.64623">
        <ele>62.6</ele>
        <time>2023-07-18T06:35:44Z</time>
      </trkpt>
      <trkpt lat="47.39412" lon="0.64626">
        <ele>62.6</ele>
        <time>2023-07-18T06:35:45Z</time>
      </trkpt>
      <trkpt lat="47.3941" lon="0.64629">
        <ele>62.4</ele>
        <time>2023-07-18T06:35:46Z</time>
      </trkpt>
      <trkpt lat="47.39406" lon="0.64632">
        <ele>62.4</ele>
        <time>2023-07-18T06:35:47Z</time>
      </trkpt>
      <trkpt lat="47.39402" lon="0.64634">
        <ele>62.4</ele>
        <time>2023-07-18T06:35:48Z</time>
      </trkpt>
      <trkpt lat="47.39396" lon="0.64637">
        <ele>62.4</ele>
        <time>2023-07-18T06:35:49Z</time>
      </trkpt>
      <trkpt lat="47.39391" lon="0.64641">
        <ele>62.2</ele>
        <time>2023-07-18T06:35:50Z</time>
      </trkpt>
      <trkpt lat="47.39386" lon="0.64645">
        <ele>62.2</ele>
        <time>2023-07-18T06:35:51Z</time>
      </trkpt>
      <trkpt lat="47.3938" lon="0.64649">
        <ele>62.2</ele>
        <time>2023-07-18T06:35:52Z</time>
      </trkpt>
      <trkpt lat="47.39374" lon="0.64653">
        <ele>62</ele>
        <time>2023-07-18T06:35:53Z</time>
      </trkpt>
      <trkpt lat="47.39368" lon="0.64658">
        <ele>62</ele>
        <time>2023-07-18T06:35:54Z</time>
      </trkpt>
      <trkpt lat="47.39361" lon="0.64662">
        <ele>61.8</ele>
        <time>2023-07-18T06:35:55Z</time>
      </trkpt>
      <trkpt lat="47.39355" lon="0.64666">
        <ele>61.6</ele>
        <time>2023-07-18T06:35:56Z</time>
      </trkpt>
      <trkpt lat="47.39349" lon="0.6467">
        <ele>61.4</ele>
        <time>2023-07-18T06:35:57Z</time>
      </trkpt>
      <trkpt lat="47.39343" lon="0.64675">
        <ele>61.2</ele>
        <time>2023-07-18T06:35:58Z</time>
      </trkpt>
      <trkpt lat="47.39339" lon="0.64683">
        <ele>61.2</ele>
        <time>2023-07-18T06:35:59Z</time>
      </trkpt>
      <trkpt lat="47.39336" lon="0.64691">
        <ele>61</ele>
        <time>2023-07-18T06:36:00Z</time>
      </trkpt>
      <trkpt lat="47.39333" lon="0.64701">
        <ele>61</ele>
        <time>2023-07-18T06:36:01Z</time>
      </trkpt>
      <trkpt lat="47.39332" lon="0.6471">
        <ele>61</ele>
        <time>2023-07-18T06:36:02Z</time>
      </trkpt>
      <trkpt lat="47.39333" lon="0.64719">
        <ele>60.8</ele>
        <time>2023-07-18T06:36:03Z</time>
      </trkpt>
      <trkpt lat="47.39333" lon="0.64729">
        <ele>60.8</ele>
        <time>2023-07-18T06:36:04Z</time>
      </trkpt>
      <trkpt lat="47.39334" lon="0.64739">
        <ele>60.8</ele>
        <time>2023-07-18T06:36:05Z</time>
      </trkpt>
      <trkpt lat="47.39337" lon="0.64749">
        <ele>61</ele>
        <time>2023-07-18T06:36:06Z</time>
      </trkpt>
      <trkpt lat="47.39339" lon="0.64759">
        <ele>61</ele>
        <time>2023-07-18T06:36:07Z</time>
      </trkpt>
      <trkpt lat="47.39342" lon="0.64769">
        <ele>61</ele>
        <time>2023-07-18T06:36:08Z</time>
      </trkpt>
      <trkpt lat="47.39345" lon="0.64779">
        <ele>61</ele>
        <time>2023-07-18T06:36:09Z</time>
      </trkpt>
      <trkpt lat="47.39348" lon="0.64789">
        <ele>61</ele>
        <time>2023-07-18T06:36:10Z</time>
      </trkpt>
      <trkpt lat="47.39351" lon="0.64797">
        <ele>61.2</ele>
        <time>2023-07-18T06:36:11Z</time>
      </trkpt>
      <trkpt lat="47.39353" lon="0.64806">
        <ele>61</ele>
        <time>2023-07-18T06:36:12Z</time>
      </trkpt>
      <trkpt lat="47.39356" lon="0.64815">
        <ele>61.2</ele>
        <time>2023-07-18T06:36:13Z</time>
      </trkpt>
      <trkpt lat="47.39359" lon="0.64825">
        <ele>61.2</ele>
        <time>2023-07-18T06:36:14Z</time>
      </trkpt>
      <trkpt lat="47.39361" lon="0.64834">
        <ele>61.2</ele>
        <time>2023-07-18T06:36:15Z</time>
      </trkpt>
      <trkpt lat="47.39363" lon="0.64844">
        <ele>61.4</ele>
        <time>2023-07-18T06:36:16Z</time>
      </trkpt>
      <trkpt lat="47.39366" lon="0.64854">
        <ele>61.4</ele>
        <time>2023-07-18T06:36:17Z</time>
      </trkpt>
      <trkpt lat="47.39368" lon="0.64863">
        <ele>61.6</ele>
        <time>2023-07-18T06:36:18Z</time>
      </trkpt>
      <trkpt lat="47.39371" lon="0.64873">
        <ele>61.8</ele>
        <time>2023-07-18T06:36:19Z</time>
      </trkpt>
      <trkpt lat="47.39373" lon="0.64882">
        <ele>62</ele>
        <time>2023-07-18T06:36:20Z</time>
      </trkpt>
      <trkpt lat="47.39376" lon="0.64892">
        <ele>62</ele>
        <time>2023-07-18T06:36:21Z</time>
      </trkpt>
      <trkpt lat="47.39378" lon="0.64901">
        <ele>62.2</ele>
        <time>2023-07-18T06:36:22Z</time>
      </trkpt>
      <trkpt lat="47.3938" lon="0.64912">
        <ele>62.2</ele>
        <time>2023-07-18T06:36:23Z</time>
      </trkpt>
      <trkpt lat="47.39382" lon="0.64921">
        <ele>62.2</ele>
        <time>2023-07-18T06:36:24Z</time>
      </trkpt>
      <trkpt lat="47.39384" lon="0.64931">
        <ele>62.4</ele>
        <time>2023-07-18T06:36:25Z</time>
      </trkpt>
      <trkpt lat="47.39387" lon="0.6494">
        <ele>62.4</ele>
        <time>2023-07-18T06:36:26Z</time>
      </trkpt>
      <trkpt lat="47.39389" lon="0.6495">
        <ele>62.2</ele>
        <time>2023-07-18T06:36:27Z</time>
      </trkpt>
      <trkpt lat="47.39391" lon="0.64959">
        <ele>62.2</ele>
        <time>2023-07-18T06:36:28Z</time>
      </trkpt>
      <trkpt lat="47.39394" lon="0.64968">
        <ele>62.2</ele>
        <time>2023-07-18T06:36:29Z</time>
      </trkpt>
      <trkpt lat="47.39396" lon="0.64977">
        <ele>62.2</ele>
        <time>2023-07-18T06:36:30Z</time>
      </trkpt>
      <trkpt lat="47.39398" lon="0.64987">
        <ele>62.2</ele>
        <time>2023-07-18T06:36:31Z</time>
      </trkpt>
      <trkpt lat="47.394" lon="0.64995">
        <ele>62.4</ele>
        <time>2023-07-18T06:36:32Z</time>
      </trkpt>
      <trkpt lat="47.39402" lon="0.65005">
        <ele>62.2</ele>
        <time>2023-07-18T06:36:33Z</time>
      </trkpt>
      <trkpt lat="47.39405" lon="0.65014">
        <ele>62.4</ele>
        <time>2023-07-18T06:36:34Z</time>
      </trkpt>
      <trkpt lat="47.39407" lon="0.65023">
        <ele>62.4</ele>
        <time>2023-07-18T06:36:35Z</time>
      </trkpt>
      <trkpt lat="47.39409" lon="0.65033">
        <ele>62.4</ele>
        <time>2023-07-18T06:36:36Z</time>
      </trkpt>
      <trkpt lat="47.39412" lon="0.65043">
        <ele>62.4</ele>
        <time>2023-07-18T06:36:37Z</time>
      </trkpt>
      <trkpt lat="47.39414" lon="0.65052">
        <ele>62.4</ele>
        <time>2023-07-18T06:36:38Z</time>
      </trkpt>
      <trkpt lat="47.39416" lon="0.65062">
        <ele>62.6</ele>
        <time>2023-07-18T06:36:39Z</time>
      </trkpt>
      <trkpt lat="47.39419" lon="0.65072">
        <ele>62.6</ele>
        <time>2023-07-18T06:36:40Z</time>
      </trkpt>
      <trkpt lat="47.39421" lon="0.65081">
        <ele>62.6</ele>
        <time>2023-07-18T06:36:41Z</time>
      </trkpt>
      <trkpt lat="47.39424" lon="0.65091">
        <ele>62.6</ele>
        <time>2023-07-18T06:36:42Z</time>
      </trkpt>
      <trkpt lat="47.39426" lon="0.651">
        <ele>62.6</ele>
        <time>2023-07-18T06:36:43Z</time>
      </trkpt>
      <trkpt lat="47.39428" lon="0.65109">
        <ele>62.6</ele>
        <time>2023-07-18T06:36:44Z</time>
      </trkpt>
      <trkpt lat="47.3943" lon="0.65118">
        <ele>62.6</ele>
        <time>2023-07-18T06:36:45Z</time>
      </trkpt>
      <trkpt lat="47.39432" lon="0.65128">
        <ele>62.6</ele>
        <time>2023-07-18T06:36:46Z</time>
      </trkpt>
      <trkpt lat="47.39434" lon="0.65137">
        <ele>62.6</ele>
        <time>2023-07-18T06:36:47Z</time>
      </trkpt>
      <trkpt lat="47.39437" lon="0.65146">
        <ele>62.6</ele>
        <time>2023-07-18T06:36:48Z</time>
      </trkpt>
      <trkpt lat="47.39439" lon="0.65156">
        <ele>62.4</ele>
        <time>2023-07-18T06:36:49Z</time>
      </trkpt>
      <trkpt lat="47.39441" lon="0.65165">
        <ele>62.4</ele>
        <time>2023-07-18T06:36:50Z</time>
      </trkpt>
      <trkpt lat="47.39443" lon="0.65175">
        <ele>62.4</ele>
        <time>2023-07-18T06:36:51Z</time>
      </trkpt>
      <trkpt lat="47.39445" lon="0.65185">
        <ele>62.4</ele>
        <time>2023-07-18T06:36:52Z</time>
      </trkpt>
      <trkpt lat="47.39448" lon="0.65194">
        <ele>62.4</ele>
        <time>2023-07-18T06:36:53Z</time>
      </trkpt>
      <trkpt lat="47.3945" lon="0.65205">
        <ele>62.4</ele>
        <time>2023-07-18T06:36:54Z</time>
      </trkpt>
      <trkpt lat="47.39453" lon="0.65215">
        <ele>62.4</ele>
        <time>2023-07-18T06:36:55Z</time>
      </trkpt>
      <trkpt lat="47.39455" lon="0.65224">
        <ele>62.6</ele>
        <time>2023-07-18T06:36:56Z</time>
      </trkpt>
      <trkpt lat="47.39458" lon="0.65235">
        <ele>62.8</ele>
        <time>2023-07-18T06:36:57Z</time>
      </trkpt>
      <trkpt lat="47.3946" lon="0.65245">
        <ele>62.8</ele>
        <time>2023-07-18T06:36:58Z</time>
      </trkpt>
      <trkpt lat="47.39463" lon="0.65255">
        <ele>63</ele>
        <time>2023-07-18T06:36:59Z</time>
      </trkpt>
      <trkpt lat="47.39465" lon="0.65265">
        <ele>63</ele>
        <time>2023-07-18T06:37:00Z</time>
      </trkpt>
      <trkpt lat="47.39466" lon="0.65274">
        <ele>63</ele>
        <time>2023-07-18T06:37:01Z</time>
      </trkpt>
      <trkpt lat="47.39469" lon="0.65285">
        <ele>63.2</ele>
        <time>2023-07-18T06:37:02Z</time>
      </trkpt>
      <trkpt lat="47.39471" lon="0.65295">
        <ele>63.2</ele>
        <time>2023-07-18T06:37:03Z</time>
      </trkpt>
      <trkpt lat="47.39473" lon="0.65304">
        <ele>63.2</ele>
        <time>2023-07-18T06:37:04Z</time>
      </trkpt>
      <trkpt lat="47.39475" lon="0.65315">
        <ele>63.4</ele>
        <time>2023-07-18T06:37:05Z</time>
      </trkpt>
      <trkpt lat="47.39477" lon="0.65324">
        <ele>63.4</ele>
        <time>2023-07-18T06:37:06Z</time>
      </trkpt>
      <trkpt lat="47.39479" lon="0.65335">
        <ele>63.4</ele>
        <time>2023-07-18T06:37:07Z</time>
      </trkpt>
      <trkpt lat="47.39481" lon="0.65345">
        <ele>63.2</ele>
        <time>2023-07-18T06:37:08Z</time>
      </trkpt>
      <trkpt lat="47.39483" lon="0.65355">
        <ele>63.2</ele>
        <time>2023-07-18T06:37:09Z</time>
      </trkpt>
      <trkpt lat="47.39485" lon="0.65365">
        <ele>63</ele>
        <time>2023-07-18T06:37:10Z</time>
      </trkpt>
      <trkpt lat="47.39487" lon="0.65376">
        <ele>63</ele>
        <time>2023-07-18T06:37:11Z</time>
      </trkpt>
      <trkpt lat="47.39489" lon="0.65386">
        <ele>63</ele>
        <time>2023-07-18T06:37:12Z</time>
      </trkpt>
      <trkpt lat="47.39491" lon="0.65396">
        <ele>63</ele>
        <time>2023-07-18T06:37:13Z</time>
      </trkpt>
      <trkpt lat="47.39493" lon="0.65406">
        <ele>63</ele>
        <time>2023-07-18T06:37:14Z</time>
      </trkpt>
      <trkpt lat="47.39495" lon="0.65415">
        <ele>63</ele>
        <time>2023-07-18T06:37:15Z</time>
      </trkpt>
      <trkpt lat="47.39496" lon="0.65425">
        <ele>63</ele>
        <time>2023-07-18T06:37:16Z</time>
      </trkpt>
      <trkpt lat="47.39498" lon="0.65435">
        <ele>62.8</ele>
        <time>2023-07-18T06:37:17Z</time>
      </trkpt>
      <trkpt lat="47.39499" lon="0.65445">
        <ele>62.8</ele>
        <time>2023-07-18T06:37:18Z</time>
      </trkpt>
      <trkpt lat="47.39501" lon="0.65454">
        <ele>62.8</ele>
        <time>2023-07-18T06:37:19Z</time>
      </trkpt>
      <trkpt lat="47.39503" lon="0.65463">
        <ele>62.8</ele>
        <time>2023-07-18T06:37:20Z</time>
      </trkpt>
      <trkpt lat="47.39505" lon="0.65472">
        <ele>62.8</ele>
        <time>2023-07-18T06:37:21Z</time>
      </trkpt>
      <trkpt lat="47.39507" lon="0.65481">
        <ele>62.8</ele>
        <time>2023-07-18T06:37:22Z</time>
      </trkpt>
      <trkpt lat="47.39508" lon="0.6549">
        <ele>62.8</ele>
        <time>2023-07-18T06:37:23Z</time>
      </trkpt>
      <trkpt lat="47.3951" lon="0.65499">
        <ele>62.8</ele>
        <time>2023-07-18T06:37:24Z</time>
      </trkpt>
      <trkpt lat="47.39511" lon="0.65507">
        <ele>62.8</ele>
        <time>2023-07-18T06:37:25Z</time>
      </trkpt>
      <trkpt lat="47.39513" lon="0.65515">
        <ele>62.8</ele>
        <time>2023-07-18T06:37:26Z</time>
      </trkpt>
      <trkpt lat="47.39515" lon="0.65522">
        <ele>63</ele>
        <time>2023-07-18T06:37:27Z</time>
      </trkpt>
      <trkpt lat="47.39516" lon="0.6553">
        <ele>63</ele>
        <time>2023-07-18T06:37:28Z</time>
      </trkpt>
      <trkpt lat="47.39518" lon="0.65537">
        <ele>63</ele>
        <time>2023-07-18T06:37:29Z</time>
      </trkpt>
      <trkpt lat="47.39519" lon="0.65544">
        <ele>63</ele>
        <time>2023-07-18T06:37:30Z</time>
      </trkpt>
      <trkpt lat="47.3952" lon="0.6555">
        <ele>62.8</ele>
        <time>2023-07-18T06:37:31Z</time>
      </trkpt>
      <trkpt lat="47.39521" lon="0.65555">
        <ele>62.8</ele>
        <time>2023-07-18T06:37:32Z</time>
      </trkpt>
      <trkpt lat="47.39523" lon="0.6556">
        <ele>62.6</ele>
        <time>2023-07-18T06:37:33Z</time>
      </trkpt>
      <trkpt lat="47.39524" lon="0.65565">
        <ele>62.6</ele>
        <time>2023-07-18T06:37:34Z</time>
      </trkpt>
      <trkpt lat="47.39524" lon="0.65569">
        <ele>62.4</ele>
        <time>2023-07-18T06:37:35Z</time>
      </trkpt>
      <trkpt lat="47.39525" lon="0.65573">
        <ele>62.4</ele>
        <time>2023-07-18T06:37:36Z</time>
      </trkpt>
      <trkpt lat="47.39526" lon="0.65575">
        <ele>62.4</ele>
        <time>2023-07-18T06:37:37Z</time>
      </trkpt>
      <trkpt lat="47.39526" lon="0.65577">
        <ele>62.2</ele>
        <time>2023-07-18T06:37:38Z</time>
      </trkpt>
      <trkpt lat="47.39526" lon="0.65577">
        <ele>62.2</ele>
        <time>2023-07-18T06:37:39Z</time>
      </trkpt>
      <trkpt lat="47.39526" lon="0.65578">
        <ele>62.2</ele>
        <time>2023-07-18T06:37:40Z</time>
      </trkpt>
      <trkpt lat="47.39527" lon="0.6558">
        <ele>62.2</ele>
        <time>2023-07-18T06:37:41Z</time>
      </trkpt>
      <trkpt lat="47.39528" lon="0.65584">
        <ele>62.2</ele>
        <time>2023-07-18T06:37:42Z</time>
      </trkpt>
      <trkpt lat="47.39529" lon="0.65588">
        <ele>62.4</ele>
        <time>2023-07-18T06:37:43Z</time>
      </trkpt>
      <trkpt lat="47.39531" lon="0.65594">
        <ele>62.4</ele>
        <time>2023-07-18T06:37:44Z</time>
      </trkpt>
      <trkpt lat="47.39533" lon="0.656">
        <ele>62.4</ele>
        <time>2023-07-18T06:37:45Z</time>
      </trkpt>
      <trkpt lat="47.39535" lon="0.65607">
        <ele>62.4</ele>
        <time>2023-07-18T06:37:46Z</time>
      </trkpt>
      <trkpt lat="47.39537" lon="0.65613">
        <ele>62.4</ele>
        <time>2023-07-18T06:37:47Z</time>
      </trkpt>
      <trkpt lat="47.39538" lon="0.6562">
        <ele>62.4</ele>
        <time>2023-07-18T06:37:48Z</time>
      </trkpt>
      <trkpt lat="47.39539" lon="0.65628">
        <ele>62.4</ele>
        <time>2023-07-18T06:37:49Z</time>
      </trkpt>
      <trkpt lat="47.3954" lon="0.65635">
        <ele>62.4</ele>
        <time>2023-07-18T06:37:50Z</time>
      </trkpt>
      <trkpt lat="47.39542" lon="0.65643">
        <ele>62.2</ele>
        <time>2023-07-18T06:37:51Z</time>
      </trkpt>
      <trkpt lat="47.39544" lon="0.65649">
        <ele>62.4</ele>
        <time>2023-07-18T06:37:52Z</time>
      </trkpt>
      <trkpt lat="47.39547" lon="0.65655">
        <ele>62.2</ele>
        <time>2023-07-18T06:37:53Z</time>
      </trkpt>
      <trkpt lat="47.39548" lon="0.65662">
        <ele>62.2</ele>
        <time>2023-07-18T06:37:54Z</time>
      </trkpt>
      <trkpt lat="47.39548" lon="0.65669">
        <ele>62.2</ele>
        <time>2023-07-18T06:37:55Z</time>
      </trkpt>
      <trkpt lat="47.39547" lon="0.65675">
        <ele>62</ele>
        <time>2023-07-18T06:37:56Z</time>
      </trkpt>
      <trkpt lat="47.39546" lon="0.65681">
        <ele>61.6</ele>
        <time>2023-07-18T06:37:57Z</time>
      </trkpt>
      <trkpt lat="47.39545" lon="0.65689">
        <ele>61.4</ele>
        <time>2023-07-18T06:37:58Z</time>
      </trkpt>
      <trkpt lat="47.39546" lon="0.65697">
        <ele>61.2</ele>
        <time>2023-07-18T06:37:59Z</time>
      </trkpt>
      <trkpt lat="47.39548" lon="0.65706">
        <ele>61</ele>
        <time>2023-07-18T06:38:00Z</time>
      </trkpt>
      <trkpt lat="47.3955" lon="0.65714">
        <ele>61</ele>
        <time>2023-07-18T06:38:01Z</time>
      </trkpt>
      <trkpt lat="47.39552" lon="0.65722">
        <ele>61</ele>
        <time>2023-07-18T06:38:02Z</time>
      </trkpt>
      <trkpt lat="47.39554" lon="0.65731">
        <ele>61</ele>
        <time>2023-07-18T06:38:03Z</time>
      </trkpt>
      <trkpt lat="47.39557" lon="0.65739">
        <ele>61</ele>
        <time>2023-07-18T06:38:04Z</time>
      </trkpt>
      <trkpt lat="47.39559" lon="0.65748">
        <ele>60.8</ele>
        <time>2023-07-18T06:38:05Z</time>
      </trkpt>
      <trkpt lat="47.39561" lon="0.65757">
        <ele>60.8</ele>
        <time>2023-07-18T06:38:06Z</time>
      </trkpt>
      <trkpt lat="47.39564" lon="0.65765">
        <ele>60.8</ele>
        <time>2023-07-18T06:38:07Z</time>
      </trkpt>
      <trkpt lat="47.39567" lon="0.65773">
        <ele>60.8</ele>
        <time>2023-07-18T06:38:08Z</time>
      </trkpt>
      <trkpt lat="47.3957" lon="0.6578">
        <ele>60.8</ele>
        <time>2023-07-18T06:38:09Z</time>
      </trkpt>
      <trkpt lat="47.39573" lon="0.65789">
        <ele>60.8</ele>
        <time>2023-07-18T06:38:10Z</time>
      </trkpt>
      <trkpt lat="47.39576" lon="0.65796">
        <ele>60.8</ele>
        <time>2023-07-18T06:38:11Z</time>
      </trkpt>
      <trkpt lat="47.39578" lon="0.65805">
        <ele>61</ele>
        <time>2023-07-18T06:38:12Z</time>
      </trkpt>
      <trkpt lat="47.39581" lon="0.65812">
        <ele>61</ele>
        <time>2023-07-18T06:38:13Z</time>
      </trkpt>
      <trkpt lat="47.39584" lon="0.6582">
        <ele>61</ele>
        <time>2023-07-18T06:38:14Z</time>
      </trkpt>
      <trkpt lat="47.39588" lon="0.65827">
        <ele>61</ele>
        <time>2023-07-18T06:38:15Z</time>
      </trkpt>
      <trkpt lat="47.39591" lon="0.65835">
        <ele>60.8</ele>
        <time>2023-07-18T06:38:16Z</time>
      </trkpt>
      <trkpt lat="47.39594" lon="0.65842">
        <ele>60.8</ele>
        <time>2023-07-18T06:38:17Z</time>
      </trkpt>
      <trkpt lat="47.39595" lon="0.65851">
        <ele>60.8</ele>
        <time>2023-07-18T06:38:18Z</time>
      </trkpt>
      <trkpt lat="47.39597" lon="0.65859">
        <ele>60.8</ele>
        <time>2023-07-18T06:38:19Z</time>
      </trkpt>
      <trkpt lat="47.396" lon="0.65867">
        <ele>61</ele>
        <time>2023-07-18T06:38:20Z</time>
      </trkpt>
      <trkpt lat="47.39601" lon="0.65876">
        <ele>61</ele>
        <time>2023-07-18T06:38:21Z</time>
      </trkpt>
      <trkpt lat="47.39603" lon="0.65884">
        <ele>61</ele>
        <time>2023-07-18T06:38:22Z</time>
      </trkpt>
      <trkpt lat="47.39605" lon="0.65892">
        <ele>61</ele>
        <time>2023-07-18T06:38:23Z</time>
      </trkpt>
      <trkpt lat="47.39607" lon="0.659">
        <ele>61.2</ele>
        <time>2023-07-18T06:38:24Z</time>
      </trkpt>
      <trkpt lat="47.39608" lon="0.65909">
        <ele>61.4</ele>
        <time>2023-07-18T06:38:25Z</time>
      </trkpt>
      <trkpt lat="47.3961" lon="0.65917">
        <ele>61.4</ele>
        <time>2023-07-18T06:38:26Z</time>
      </trkpt>
      <trkpt lat="47.39612" lon="0.65925">
        <ele>61.4</ele>
        <time>2023-07-18T06:38:27Z</time>
      </trkpt>
      <trkpt lat="47.39613" lon="0.65933">
        <ele>61.6</ele>
        <time>2023-07-18T06:38:28Z</time>
      </trkpt>
      <trkpt lat="47.39615" lon="0.65941">
        <ele>61.6</ele>
        <time>2023-07-18T06:38:29Z</time>
      </trkpt>
      <trkpt lat="47.39617" lon="0.65949">
        <ele>61.6</ele>
        <time>2023-07-18T06:38:30Z</time>
      </trkpt>
      <trkpt lat="47.39619" lon="0.65957">
        <ele>61.8</ele>
        <time>2023-07-18T06:38:31Z</time>
      </trkpt>
      <trkpt lat="47.39621" lon="0.65964">
        <ele>62</ele>
        <time>2023-07-18T06:38:32Z</time>
      </trkpt>
      <trkpt lat="47.39622" lon="0.65971">
        <ele>62.4</ele>
        <time>2023-07-18T06:38:33Z</time>
      </trkpt>
      <trkpt lat="47.39624" lon="0.65977">
        <ele>62.6</ele>
        <time>2023-07-18T06:38:34Z</time>
      </trkpt>
      <trkpt lat="47.39625" lon="0.65983">
        <ele>63</ele>
        <time>2023-07-18T06:38:35Z</time>
      </trkpt>
      <trkpt lat="47.39627" lon="0.65989">
        <ele>63.4</ele>
        <time>2023-07-18T06:38:36Z</time>
      </trkpt>
      <trkpt lat="47.39628" lon="0.65994">
        <ele>63.8</ele>
        <time>2023-07-18T06:38:37Z</time>
      </trkpt>
      <trkpt lat="47.3963" lon="0.65999">
        <ele>64.2</ele>
        <time>2023-07-18T06:38:38Z</time>
      </trkpt>
      <trkpt lat="47.39632" lon="0.66004">
        <ele>64.4</ele>
        <time>2023-07-18T06:38:39Z</time>
      </trkpt>
      <trkpt lat="47.39633" lon="0.66009">
        <ele>64.8</ele>
        <time>2023-07-18T06:38:40Z</time>
      </trkpt>
      <trkpt lat="47.39634" lon="0.66015">
        <ele>65</ele>
        <time>2023-07-18T06:38:41Z</time>
      </trkpt>
      <trkpt lat="47.39635" lon="0.66021">
        <ele>65.2</ele>
        <time>2023-07-18T06:38:42Z</time>
      </trkpt>
      <trkpt lat="47.39637" lon="0.66027">
        <ele>65.2</ele>
        <time>2023-07-18T06:38:43Z</time>
      </trkpt>
      <trkpt lat="47.39639" lon="0.66033">
        <ele>65.4</ele>
        <time>2023-07-18T06:38:44Z</time>
      </trkpt>
      <trkpt lat="47.39639" lon="0.6604">
        <ele>65.4</ele>
        <time>2023-07-18T06:38:45Z</time>
      </trkpt>
      <trkpt lat="47.3964" lon="0.66048">
        <ele>65.4</ele>
        <time>2023-07-18T06:38:46Z</time>
      </trkpt>
      <trkpt lat="47.39641" lon="0.66056">
        <ele>65.4</ele>
        <time>2023-07-18T06:38:47Z</time>
      </trkpt>
      <trkpt lat="47.39642" lon="0.66065">
        <ele>65.4</ele>
        <time>2023-07-18T06:38:48Z</time>
      </trkpt>
      <trkpt lat="47.39643" lon="0.66073">
        <ele>65.4</ele>
        <time>2023-07-18T06:38:49Z</time>
      </trkpt>
      <trkpt lat="47.39645" lon="0.66081">
        <ele>65.4</ele>
        <time>2023-07-18T06:38:50Z</time>
      </trkpt>
      <trkpt lat="47.39646" lon="0.6609">
        <ele>65.2</ele>
        <time>2023-07-18T06:38:51Z</time>
      </trkpt>
      <trkpt lat="47.39648" lon="0.66098">
        <ele>65.2</ele>
        <time>2023-07-18T06:38:52Z</time>
      </trkpt>
      <trkpt lat="47.3965" lon="0.66107">
        <ele>65</ele>
        <time>2023-07-18T06:38:53Z</time>
      </trkpt>
      <trkpt lat="47.39651" lon="0.66118">
        <ele>65</ele>
        <time>2023-07-18T06:38:54Z</time>
      </trkpt>
      <trkpt lat="47.39653" lon="0.66127">
        <ele>65</ele>
        <time>2023-07-18T06:38:55Z</time>
      </trkpt>
      <trkpt lat="47.39655" lon="0.66138">
        <ele>64.8</ele>
        <time>2023-07-18T06:38:56Z</time>
      </trkpt>
      <trkpt lat="47.39657" lon="0.66148">
        <ele>64.6</ele>
        <time>2023-07-18T06:38:57Z</time>
      </trkpt>
      <trkpt lat="47.39658" lon="0.66158">
        <ele>64.6</ele>
        <time>2023-07-18T06:38:58Z</time>
      </trkpt>
      <trkpt lat="47.39659" lon="0.66168">
        <ele>64.4</ele>
        <time>2023-07-18T06:38:59Z</time>
      </trkpt>
      <trkpt lat="47.39661" lon="0.66179">
        <ele>64.2</ele>
        <time>2023-07-18T06:39:00Z</time>
      </trkpt>
      <trkpt lat="47.39663" lon="0.66188">
        <ele>64.2</ele>
        <time>2023-07-18T06:39:01Z</time>
      </trkpt>
      <trkpt lat="47.39665" lon="0.66199">
        <ele>64</ele>
        <time>2023-07-18T06:39:02Z</time>
      </trkpt>
      <trkpt lat="47.39667" lon="0.6621">
        <ele>64</ele>
        <time>2023-07-18T06:39:03Z</time>
      </trkpt>
      <trkpt lat="47.39669" lon="0.66219">
        <ele>64</ele>
        <time>2023-07-18T06:39:04Z</time>
      </trkpt>
      <trkpt lat="47.39671" lon="0.66229">
        <ele>63.8</ele>
        <time>2023-07-18T06:39:05Z</time>
      </trkpt>
      <trkpt lat="47.39674" lon="0.66239">
        <ele>63.8</ele>
        <time>2023-07-18T06:39:06Z</time>
      </trkpt>
      <trkpt lat="47.39676" lon="0.6625">
        <ele>63.8</ele>
        <time>2023-07-18T06:39:07Z</time>
      </trkpt>
      <trkpt lat="47.39678" lon="0.6626">
        <ele>63.8</ele>
        <time>2023-07-18T06:39:08Z</time>
      </trkpt>
      <trkpt lat="47.39679" lon="0.6627">
        <ele>63.6</ele>
        <time>2023-07-18T06:39:09Z</time>
      </trkpt>
      <trkpt lat="47.39681" lon="0.6628">
        <ele>63.6</ele>
        <time>2023-07-18T06:39:10Z</time>
      </trkpt>
      <trkpt lat="47.39682" lon="0.66289">
        <ele>63.4</ele>
        <time>2023-07-18T06:39:11Z</time>
      </trkpt>
      <trkpt lat="47.39685" lon="0.66299">
        <ele>63.4</ele>
        <time>2023-07-18T06:39:12Z</time>
      </trkpt>
      <trkpt lat="47.39686" lon="0.66309">
        <ele>63.4</ele>
        <time>2023-07-18T06:39:13Z</time>
      </trkpt>
      <trkpt lat="47.39688" lon="0.6632">
        <ele>63.2</ele>
        <time>2023-07-18T06:39:14Z</time>
      </trkpt>
      <trkpt lat="47.3969" lon="0.6633">
        <ele>63.2</ele>
        <time>2023-07-18T06:39:15Z</time>
      </trkpt>
      <trkpt lat="47.39692" lon="0.6634">
        <ele>63.2</ele>
        <time>2023-07-18T06:39:16Z</time>
      </trkpt>
      <trkpt lat="47.39695" lon="0.66349">
        <ele>63</ele>
        <time>2023-07-18T06:39:17Z</time>
      </trkpt>
      <trkpt lat="47.39697" lon="0.66358">
        <ele>63</ele>
        <time>2023-07-18T06:39:18Z</time>
      </trkpt>
      <trkpt lat="47.39699" lon="0.66368">
        <ele>63</ele>
        <time>2023-07-18T06:39:19Z</time>
      </trkpt>
      <trkpt lat="47.397" lon="0.66378">
        <ele>62.8</ele>
        <time>2023-07-18T06:39:20Z</time>
      </trkpt>
      <trkpt lat="47.39701" lon="0.6639">
        <ele>62.6</ele>
        <time>2023-07-18T06:39:21Z</time>
      </trkpt>
      <trkpt lat="47.39703" lon="0.664">
        <ele>62.6</ele>
        <time>2023-07-18T06:39:22Z</time>
      </trkpt>
      <trkpt lat="47.39704" lon="0.6641">
        <ele>62.6</ele>
        <time>2023-07-18T06:39:23Z</time>
      </trkpt>
      <trkpt lat="47.39705" lon="0.6642">
        <ele>62.6</ele>
        <time>2023-07-18T06:39:24Z</time>
      </trkpt>
      <trkpt lat="47.39706" lon="0.6643">
        <ele>62.6</ele>
        <time>2023-07-18T06:39:25Z</time>
      </trkpt>
      <trkpt lat="47.39706" lon="0.6644">
        <ele>62.6</ele>
        <time>2023-07-18T06:39:26Z</time>
      </trkpt>
      <trkpt lat="47.39708" lon="0.66449">
        <ele>62.6</ele>
        <time>2023-07-18T06:39:27Z</time>
      </trkpt>
      <trkpt lat="47.39709" lon="0.66458">
        <ele>62.6</ele>
        <time>2023-07-18T06:39:28Z</time>
      </trkpt>
      <trkpt lat="47.39711" lon="0.66467">
        <ele>62.6</ele>
        <time>2023-07-18T06:39:29Z</time>
      </trkpt>
      <trkpt lat="47.39713" lon="0.66476">
        <ele>62.6</ele>
        <time>2023-07-18T06:39:30Z</time>
      </trkpt>
      <trkpt lat="47.39714" lon="0.66485">
        <ele>62.6</ele>
        <time>2023-07-18T06:39:31Z</time>
      </trkpt>
      <trkpt lat="47.39716" lon="0.66494">
        <ele>62.6</ele>
        <time>2023-07-18T06:39:32Z</time>
      </trkpt>
      <trkpt lat="47.39717" lon="0.66503">
        <ele>62.6</ele>
        <time>2023-07-18T06:39:33Z</time>
      </trkpt>
      <trkpt lat="47.39718" lon="0.66513">
        <ele>62.6</ele>
        <time>2023-07-18T06:39:34Z</time>
      </trkpt>
      <trkpt lat="47.3972" lon="0.66523">
        <ele>62.6</ele>
        <time>2023-07-18T06:39:35Z</time>
      </trkpt>
      <trkpt lat="47.39721" lon="0.66533">
        <ele>62.8</ele>
        <time>2023-07-18T06:39:36Z</time>
      </trkpt>
      <trkpt lat="47.39722" lon="0.66543">
        <ele>62.6</ele>
        <time>2023-07-18T06:39:37Z</time>
      </trkpt>
      <trkpt lat="47.39724" lon="0.66552">
        <ele>62.6</ele>
        <time>2023-07-18T06:39:38Z</time>
      </trkpt>
      <trkpt lat="47.39725" lon="0.66562">
        <ele>62.8</ele>
        <time>2023-07-18T06:39:39Z</time>
      </trkpt>
      <trkpt lat="47.39726" lon="0.66571">
        <ele>62.8</ele>
        <time>2023-07-18T06:39:40Z</time>
      </trkpt>
      <trkpt lat="47.39727" lon="0.6658">
        <ele>62.8</ele>
        <time>2023-07-18T06:39:41Z</time>
      </trkpt>
      <trkpt lat="47.39729" lon="0.66589">
        <ele>62.8</ele>
        <time>2023-07-18T06:39:42Z</time>
      </trkpt>
      <trkpt lat="47.3973" lon="0.66598">
        <ele>62.8</ele>
        <time>2023-07-18T06:39:43Z</time>
      </trkpt>
      <trkpt lat="47.39732" lon="0.66607">
        <ele>63</ele>
        <time>2023-07-18T06:39:44Z</time>
      </trkpt>
      <trkpt lat="47.39732" lon="0.66616">
        <ele>62.8</ele>
        <time>2023-07-18T06:39:45Z</time>
      </trkpt>
      <trkpt lat="47.39734" lon="0.66624">
        <ele>62.6</ele>
        <time>2023-07-18T06:39:46Z</time>
      </trkpt>
      <trkpt lat="47.39735" lon="0.66633">
        <ele>62.6</ele>
        <time>2023-07-18T06:39:47Z</time>
      </trkpt>
      <trkpt lat="47.39736" lon="0.66641">
        <ele>62.6</ele>
        <time>2023-07-18T06:39:48Z</time>
      </trkpt>
      <trkpt lat="47.39737" lon="0.6665">
        <ele>62.4</ele>
        <time>2023-07-18T06:39:49Z</time>
      </trkpt>
      <trkpt lat="47.39738" lon="0.66658">
        <ele>62.4</ele>
        <time>2023-07-18T06:39:50Z</time>
      </trkpt>
      <trkpt lat="47.39739" lon="0.66666">
        <ele>62.2</ele>
        <time>2023-07-18T06:39:51Z</time>
      </trkpt>
      <trkpt lat="47.3974" lon="0.66673">
        <ele>62.2</ele>
        <time>2023-07-18T06:39:52Z</time>
      </trkpt>
      <trkpt lat="47.39741" lon="0.6668">
        <ele>62.2</ele>
        <time>2023-07-18T06:39:53Z</time>
      </trkpt>
      <trkpt lat="47.39742" lon="0.66688">
        <ele>62.2</ele>
        <time>2023-07-18T06:39:54Z</time>
      </trkpt>
      <trkpt lat="47.39743" lon="0.66696">
        <ele>62.2</ele>
        <time>2023-07-18T06:39:55Z</time>
      </trkpt>
      <trkpt lat="47.39743" lon="0.66705">
        <ele>62.2</ele>
        <time>2023-07-18T06:39:56Z</time>
      </trkpt>
      <trkpt lat="47.39744" lon="0.66714">
        <ele>62.4</ele>
        <time>2023-07-18T06:39:57Z</time>
      </trkpt>
      <trkpt lat="47.39745" lon="0.66723">
        <ele>62.4</ele>
        <time>2023-07-18T06:39:58Z</time>
      </trkpt>
      <trkpt lat="47.39746" lon="0.66732">
        <ele>62.4</ele>
        <time>2023-07-18T06:39:59Z</time>
      </trkpt>
      <trkpt lat="47.39748" lon="0.66741">
        <ele>62.4</ele>
        <time>2023-07-18T06:40:00Z</time>
      </trkpt>
      <trkpt lat="47.39749" lon="0.6675">
        <ele>62.4</ele>
        <time>2023-07-18T06:40:01Z</time>
      </trkpt>
      <trkpt lat="47.39751" lon="0.66759">
        <ele>62.4</ele>
        <time>2023-07-18T06:40:02Z</time>
      </trkpt>
      <trkpt lat="47.39753" lon="0.66768">
        <ele>62.6</ele>
        <time>2023-07-18T06:40:03Z</time>
      </trkpt>
      <trkpt lat="47.39754" lon="0.66777">
        <ele>62.4</ele>
        <time>2023-07-18T06:40:04Z</time>
      </trkpt>
      <trkpt lat="47.39756" lon="0.66785">
        <ele>62.4</ele>
        <time>2023-07-18T06:40:05Z</time>
      </trkpt>
      <trkpt lat="47.39758" lon="0.66794">
        <ele>62.4</ele>
        <time>2023-07-18T06:40:06Z</time>
      </trkpt>
      <trkpt lat="47.3976" lon="0.66802">
        <ele>62.2</ele>
        <time>2023-07-18T06:40:07Z</time>
      </trkpt>
      <trkpt lat="47.39761" lon="0.66812">
        <ele>62.2</ele>
        <time>2023-07-18T06:40:08Z</time>
      </trkpt>
      <trkpt lat="47.39762" lon="0.66821">
        <ele>62.2</ele>
        <time>2023-07-18T06:40:09Z</time>
      </trkpt>
      <trkpt lat="47.39764" lon="0.6683">
        <ele>62.4</ele>
        <time>2023-07-18T06:40:10Z</time>
      </trkpt>
      <trkpt lat="47.39766" lon="0.66839">
        <ele>62.4</ele>
        <time>2023-07-18T06:40:11Z</time>
      </trkpt>
      <trkpt lat="47.39767" lon="0.66848">
        <ele>62.6</ele>
        <time>2023-07-18T06:40:12Z</time>
      </trkpt>
      <trkpt lat="47.39769" lon="0.66857">
        <ele>62.6</ele>
        <time>2023-07-18T06:40:13Z</time>
      </trkpt>
      <trkpt lat="47.3977" lon="0.66865">
        <ele>62.6</ele>
        <time>2023-07-18T06:40:14Z</time>
      </trkpt>
      <trkpt lat="47.39772" lon="0.66873">
        <ele>62.8</ele>
        <time>2023-07-18T06:40:15Z</time>
      </trkpt>
      <trkpt lat="47.39774" lon="0.66882">
        <ele>62.8</ele>
        <time>2023-07-18T06:40:16Z</time>
      </trkpt>
      <trkpt lat="47.39775" lon="0.66891">
        <ele>62.8</ele>
        <time>2023-07-18T06:40:17Z</time>
      </trkpt>
      <trkpt lat="47.39777" lon="0.669">
        <ele>63</ele>
        <time>2023-07-18T06:40:18Z</time>
      </trkpt>
      <trkpt lat="47.39779" lon="0.66908">
        <ele>63</ele>
        <time>2023-07-18T06:40:19Z</time>
      </trkpt>
      <trkpt lat="47.39781" lon="0.66917">
        <ele>63.2</ele>
        <time>2023-07-18T06:40:20Z</time>
      </trkpt>
      <trkpt lat="47.39783" lon="0.66925">
        <ele>63.2</ele>
        <time>2023-07-18T06:40:21Z</time>
      </trkpt>
      <trkpt lat="47.39784" lon="0.66935">
        <ele>63.4</ele>
        <time>2023-07-18T06:40:22Z</time>
      </trkpt>
      <trkpt lat="47.39785" lon="0.66943">
        <ele>63.4</ele>
        <time>2023-07-18T06:40:23Z</time>
      </trkpt>
      <trkpt lat="47.39787" lon="0.66952">
        <ele>63.4</ele>
        <time>2023-07-18T06:40:24Z</time>
      </trkpt>
      <trkpt lat="47.39789" lon="0.6696">
        <ele>63.4</ele>
        <time>2023-07-18T06:40:25Z</time>
      </trkpt>
      <trkpt lat="47.39791" lon="0.66969">
        <ele>63.4</ele>
        <time>2023-07-18T06:40:26Z</time>
      </trkpt>
      <trkpt lat="47.39794" lon="0.66977">
        <ele>63.4</ele>
        <time>2023-07-18T06:40:27Z</time>
      </trkpt>
      <trkpt lat="47.39797" lon="0.66985">
        <ele>63.2</ele>
        <time>2023-07-18T06:40:28Z</time>
      </trkpt>
      <trkpt lat="47.39799" lon="0.66992">
        <ele>63.2</ele>
        <time>2023-07-18T06:40:29Z</time>
      </trkpt>
      <trkpt lat="47.39802" lon="0.66999">
        <ele>63</ele>
        <time>2023-07-18T06:40:30Z</time>
      </trkpt>
      <trkpt lat="47.39805" lon="0.67007">
        <ele>62.8</ele>
        <time>2023-07-18T06:40:31Z</time>
      </trkpt>
      <trkpt lat="47.39808" lon="0.67015">
        <ele>62.6</ele>
        <time>2023-07-18T06:40:32Z</time>
      </trkpt>
      <trkpt lat="47.39812" lon="0.67022">
        <ele>62.6</ele>
        <time>2023-07-18T06:40:33Z</time>
      </trkpt>
      <trkpt lat="47.39816" lon="0.6703">
        <ele>62.6</ele>
        <time>2023-07-18T06:40:34Z</time>
      </trkpt>
      <trkpt lat="47.39819" lon="0.67038">
        <ele>62.6</ele>
        <time>2023-07-18T06:40:35Z</time>
      </trkpt>
      <trkpt lat="47.39822" lon="0.67046">
        <ele>62.4</ele>
        <time>2023-07-18T06:40:36Z</time>
      </trkpt>
      <trkpt lat="47.39825" lon="0.67054">
        <ele>62.4</ele>
        <time>2023-07-18T06:40:37Z</time>
      </trkpt>
      <trkpt lat="47.39828" lon="0.67063">
        <ele>62.2</ele>
        <time>2023-07-18T06:40:38Z</time>
      </trkpt>
      <trkpt lat="47.39831" lon="0.67073">
        <ele>62.2</ele>
        <time>2023-07-18T06:40:39Z</time>
      </trkpt>
      <trkpt lat="47.39833" lon="0.67082">
        <ele>62.2</ele>
        <time>2023-07-18T06:40:40Z</time>
      </trkpt>
      <trkpt lat="47.39835" lon="0.67092">
        <ele>62.2</ele>
        <time>2023-07-18T06:40:41Z</time>
      </trkpt>
      <trkpt lat="47.39838" lon="0.671">
        <ele>62.2</ele>
        <time>2023-07-18T06:40:42Z</time>
      </trkpt>
      <trkpt lat="47.3984" lon="0.67109">
        <ele>62.2</ele>
        <time>2023-07-18T06:40:43Z</time>
      </trkpt>
      <trkpt lat="47.39841" lon="0.67118">
        <ele>62</ele>
        <time>2023-07-18T06:40:44Z</time>
      </trkpt>
      <trkpt lat="47.39843" lon="0.67126">
        <ele>62</ele>
        <time>2023-07-18T06:40:45Z</time>
      </trkpt>
      <trkpt lat="47.39845" lon="0.67135">
        <ele>62</ele>
        <time>2023-07-18T06:40:46Z</time>
      </trkpt>
      <trkpt lat="47.39848" lon="0.67143">
        <ele>62</ele>
        <time>2023-07-18T06:40:47Z</time>
      </trkpt>
      <trkpt lat="47.3985" lon="0.67152">
        <ele>62</ele>
        <time>2023-07-18T06:40:48Z</time>
      </trkpt>
      <trkpt lat="47.39852" lon="0.67161">
        <ele>62.2</ele>
        <time>2023-07-18T06:40:49Z</time>
      </trkpt>
      <trkpt lat="47.39854" lon="0.67169">
        <ele>62</ele>
        <time>2023-07-18T06:40:50Z</time>
      </trkpt>
      <trkpt lat="47.39857" lon="0.67178">
        <ele>62</ele>
        <time>2023-07-18T06:40:51Z</time>
      </trkpt>
      <trkpt lat="47.39859" lon="0.67187">
        <ele>62</ele>
        <time>2023-07-18T06:40:52Z</time>
      </trkpt>
      <trkpt lat="47.39861" lon="0.67195">
        <ele>62</ele>
        <time>2023-07-18T06:40:53Z</time>
      </trkpt>
      <trkpt lat="47.39863" lon="0.67204">
        <ele>62</ele>
        <time>2023-07-18T06:40:54Z</time>
      </trkpt>
      <trkpt lat="47.39865" lon="0.67213">
        <ele>62.2</ele>
        <time>2023-07-18T06:40:55Z</time>
      </trkpt>
      <trkpt lat="47.39868" lon="0.67221">
        <ele>62.2</ele>
        <time>2023-07-18T06:40:56Z</time>
      </trkpt>
      <trkpt lat="47.39871" lon="0.6723">
        <ele>62.2</ele>
        <time>2023-07-18T06:40:57Z</time>
      </trkpt>
      <trkpt lat="47.39874" lon="0.67237">
        <ele>62.2</ele>
        <time>2023-07-18T06:40:58Z</time>
      </trkpt>
      <trkpt lat="47.39877" lon="0.67246">
        <ele>62.2</ele>
        <time>2023-07-18T06:40:59Z</time>
      </trkpt>
      <trkpt lat="47.3988" lon="0.67254">
        <ele>62.2</ele>
        <time>2023-07-18T06:41:00Z</time>
      </trkpt>
      <trkpt lat="47.39883" lon="0.67261">
        <ele>62.2</ele>
        <time>2023-07-18T06:41:01Z</time>
      </trkpt>
      <trkpt lat="47.39886" lon="0.67268">
        <ele>62</ele>
        <time>2023-07-18T06:41:02Z</time>
      </trkpt>
      <trkpt lat="47.39888" lon="0.67275">
        <ele>62</ele>
        <time>2023-07-18T06:41:03Z</time>
      </trkpt>
      <trkpt lat="47.39891" lon="0.67283">
        <ele>62</ele>
        <time>2023-07-18T06:41:04Z</time>
      </trkpt>
      <trkpt lat="47.39893" lon="0.67291">
        <ele>62</ele>
        <time>2023-07-18T06:41:05Z</time>
      </trkpt>
      <trkpt lat="47.39895" lon="0.67299">
        <ele>62</ele>
        <time>2023-07-18T06:41:06Z</time>
      </trkpt>
      <trkpt lat="47.39897" lon="0.67306">
        <ele>62</ele>
        <time>2023-07-18T06:41:07Z</time>
      </trkpt>
      <trkpt lat="47.39899" lon="0.67313">
        <ele>62.2</ele>
        <time>2023-07-18T06:41:08Z</time>
      </trkpt>
      <trkpt lat="47.39902" lon="0.67321">
        <ele>62.2</ele>
        <time>2023-07-18T06:41:09Z</time>
      </trkpt>
      <trkpt lat="47.39904" lon="0.67329">
        <ele>62.2</ele>
        <time>2023-07-18T06:41:10Z</time>
      </trkpt>
      <trkpt lat="47.39906" lon="0.67336">
        <ele>62.4</ele>
        <time>2023-07-18T06:41:11Z</time>
      </trkpt>
      <trkpt lat="47.39908" lon="0.67343">
        <ele>62.4</ele>
        <time>2023-07-18T06:41:12Z</time>
      </trkpt>
      <trkpt lat="47.39909" lon="0.6735">
        <ele>62.4</ele>
        <time>2023-07-18T06:41:13Z</time>
      </trkpt>
      <trkpt lat="47.39911" lon="0.67357">
        <ele>62.6</ele>
        <time>2023-07-18T06:41:14Z</time>
      </trkpt>
      <trkpt lat="47.39912" lon="0.67364">
        <ele>62.6</ele>
        <time>2023-07-18T06:41:15Z</time>
      </trkpt>
      <trkpt lat="47.39913" lon="0.67371">
        <ele>62.6</ele>
        <time>2023-07-18T06:41:16Z</time>
      </trkpt>
      <trkpt lat="47.39915" lon="0.67378">
        <ele>62.6</ele>
        <time>2023-07-18T06:41:17Z</time>
      </trkpt>
      <trkpt lat="47.39917" lon="0.67385">
        <ele>62.6</ele>
        <time>2023-07-18T06:41:18Z</time>
      </trkpt>
      <trkpt lat="47.39918" lon="0.6739">
        <ele>62.6</ele>
        <time>2023-07-18T06:41:19Z</time>
      </trkpt>
      <trkpt lat="47.39919" lon="0.67394">
        <ele>62.4</ele>
        <time>2023-07-18T06:41:20Z</time>
      </trkpt>
      <trkpt lat="47.39921" lon="0.67396">
        <ele>62.4</ele>
        <time>2023-07-18T06:41:21Z</time>
      </trkpt>
      <trkpt lat="47.39923" lon="0.67398">
        <ele>62.4</ele>
        <time>2023-07-18T06:41:22Z</time>
      </trkpt>
      <trkpt lat="47.39924" lon="0.67399">
        <ele>62.4</ele>
        <time>2023-07-18T06:41:23Z</time>
      </trkpt>
      <trkpt lat="47.39925" lon="0.67401">
        <ele>62.4</ele>
        <time>2023-07-18T06:41:24Z</time>
      </trkpt>
      <trkpt lat="47.39927" lon="0.67402">
        <ele>62.4</ele>
        <time>2023-07-18T06:41:25Z</time>
      </trkpt>
      <trkpt lat="47.39928" lon="0.67404">
        <ele>62.4</ele>
        <time>2023-07-18T06:41:26Z</time>
      </trkpt>
      <trkpt lat="47.39928" lon="0.67406">
        <ele>62.4</ele>
        <time>2023-07-18T06:41:27Z</time>
      </trkpt>
      <trkpt lat="47.39929" lon="0.67408">
        <ele>62.4</ele>
        <time>2023-07-18T06:41:28Z</time>
      </trkpt>
      <trkpt lat="47.3993" lon="0.67411">
        <ele>62.4</ele>
        <time>2023-07-18T06:41:29Z</time>
      </trkpt>
      <trkpt lat="47.39932" lon="0.67415">
        <ele>62.4</ele>
        <time>2023-07-18T06:41:30Z</time>
      </trkpt>
      <trkpt lat="47.39934" lon="0.67418">
        <ele>62.6</ele>
        <time>2023-07-18T06:41:31Z</time>
      </trkpt>
      <trkpt lat="47.39936" lon="0.67422">
        <ele>62.6</ele>
        <time>2023-07-18T06:41:32Z</time>
      </trkpt>
      <trkpt lat="47.39937" lon="0.67427">
        <ele>62.6</ele>
        <time>2023-07-18T06:41:33Z</time>
      </trkpt>
      <trkpt lat="47.39938" lon="0.67433">
        <ele>62.6</ele>
        <time>2023-07-18T06:41:34Z</time>
      </trkpt>
      <trkpt lat="47.3994" lon="0.67439">
        <ele>62.8</ele>
        <time>2023-07-18T06:41:35Z</time>
      </trkpt>
      <trkpt lat="47.39943" lon="0.67445">
        <ele>63</ele>
        <time>2023-07-18T06:41:36Z</time>
      </trkpt>
      <trkpt lat="47.39944" lon="0.67452">
        <ele>63</ele>
        <time>2023-07-18T06:41:37Z</time>
      </trkpt>
      <trkpt lat="47.39946" lon="0.67459">
        <ele>63.2</ele>
        <time>2023-07-18T06:41:38Z</time>
      </trkpt>
      <trkpt lat="47.39948" lon="0.67467">
        <ele>63.2</ele>
        <time>2023-07-18T06:41:39Z</time>
      </trkpt>
      <trkpt lat="47.39951" lon="0.67474">
        <ele>63.4</ele>
        <time>2023-07-18T06:41:40Z</time>
      </trkpt>
      <trkpt lat="47.39953" lon="0.67482">
        <ele>63.4</ele>
        <time>2023-07-18T06:41:41Z</time>
      </trkpt>
      <trkpt lat="47.39954" lon="0.6749">
        <ele>63.4</ele>
        <time>2023-07-18T06:41:42Z</time>
      </trkpt>
      <trkpt lat="47.39956" lon="0.67497">
        <ele>63.4</ele>
        <time>2023-07-18T06:41:43Z</time>
      </trkpt>
      <trkpt lat="47.39958" lon="0.67503">
        <ele>63.4</ele>
        <time>2023-07-18T06:41:44Z</time>
      </trkpt>
      <trkpt lat="47.39957" lon="0.67509">
        <ele>63.4</ele>
        <time>2023-07-18T06:41:45Z</time>
      </trkpt>
      <trkpt lat="47.39955" lon="0.67515">
        <ele>63.6</ele>
        <time>2023-07-18T06:41:46Z</time>
      </trkpt>
      <trkpt lat="47.39951" lon="0.67519">
        <ele>63.8</ele>
        <time>2023-07-18T06:41:47Z</time>
      </trkpt>
      <trkpt lat="47.39948" lon="0.67523">
        <ele>64</ele>
        <time>2023-07-18T06:41:48Z</time>
      </trkpt>
      <trkpt lat="47.39942" lon="0.67525">
        <ele>64.2</ele>
        <time>2023-07-18T06:41:49Z</time>
      </trkpt>
      <trkpt lat="47.39937" lon="0.67528">
        <ele>64.4</ele>
        <time>2023-07-18T06:41:50Z</time>
      </trkpt>
      <trkpt lat="47.39933" lon="0.67529">
        <ele>64.6</ele>
        <time>2023-07-18T06:41:51Z</time>
      </trkpt>
      <trkpt lat="47.39927" lon="0.6753">
        <ele>64.8</ele>
        <time>2023-07-18T06:41:52Z</time>
      </trkpt>
      <trkpt lat="47.39922" lon="0.67533">
        <ele>65.2</ele>
        <time>2023-07-18T06:41:53Z</time>
      </trkpt>
      <trkpt lat="47.39917" lon="0.67536">
        <ele>65.2</ele>
        <time>2023-07-18T06:41:54Z</time>
      </trkpt>
      <trkpt lat="47.39911" lon="0.67539">
        <ele>65.4</ele>
        <time>2023-07-18T06:41:55Z</time>
      </trkpt>
      <trkpt lat="47.39906" lon="0.67542">
        <ele>65.4</ele>
        <time>2023-07-18T06:41:56Z</time>
      </trkpt>
      <trkpt lat="47.39901" lon="0.67545">
        <ele>65.6</ele>
        <time>2023-07-18T06:41:57Z</time>
      </trkpt>
      <trkpt lat="47.39896" lon="0.67548">
        <ele>65.6</ele>
        <time>2023-07-18T06:41:58Z</time>
      </trkpt>
      <trkpt lat="47.3989" lon="0.6755">
        <ele>65.6</ele>
        <time>2023-07-18T06:41:59Z</time>
      </trkpt>
      <trkpt lat="47.39885" lon="0.67553">
        <ele>65.6</ele>
        <time>2023-07-18T06:42:00Z</time>
      </trkpt>
      <trkpt lat="47.39879" lon="0.67557">
        <ele>65.6</ele>
        <time>2023-07-18T06:42:01Z</time>
      </trkpt>
      <trkpt lat="47.39874" lon="0.67559">
        <ele>65.6</ele>
        <time>2023-07-18T06:42:02Z</time>
      </trkpt>
      <trkpt lat="47.39868" lon="0.67563">
        <ele>65.6</ele>
        <time>2023-07-18T06:42:03Z</time>
      </trkpt>
      <trkpt lat="47.39862" lon="0.67566">
        <ele>65.6</ele>
        <time>2023-07-18T06:42:04Z</time>
      </trkpt>
      <trkpt lat="47.39857" lon="0.67569">
        <ele>65.6</ele>
        <time>2023-07-18T06:42:05Z</time>
      </trkpt>
      <trkpt lat="47.39852" lon="0.67572">
        <ele>65.6</ele>
        <time>2023-07-18T06:42:06Z</time>
      </trkpt>
      <trkpt lat="47.39846" lon="0.67575">
        <ele>65.6</ele>
        <time>2023-07-18T06:42:07Z</time>
      </trkpt>
      <trkpt lat="47.3984" lon="0.67578">
        <ele>65.6</ele>
        <time>2023-07-18T06:42:08Z</time>
      </trkpt>
      <trkpt lat="47.39835" lon="0.67581">
        <ele>65.6</ele>
        <time>2023-07-18T06:42:09Z</time>
      </trkpt>
      <trkpt lat="47.39829" lon="0.67584">
        <ele>65.6</ele>
        <time>2023-07-18T06:42:10Z</time>
      </trkpt>
      <trkpt lat="47.39824" lon="0.67586">
        <ele>65.6</ele>
        <time>2023-07-18T06:42:11Z</time>
      </trkpt>
      <trkpt lat="47.39818" lon="0.67589">
        <ele>65.6</ele>
        <time>2023-07-18T06:42:12Z</time>
      </trkpt>
      <trkpt lat="47.39812" lon="0.67592">
        <ele>65.6</ele>
        <time>2023-07-18T06:42:13Z</time>
      </trkpt>
      <trkpt lat="47.39806" lon="0.67595">
        <ele>65.6</ele>
        <time>2023-07-18T06:42:14Z</time>
      </trkpt>
      <trkpt lat="47.398" lon="0.67598">
        <ele>65.6</ele>
        <time>2023-07-18T06:42:15Z</time>
      </trkpt>
      <trkpt lat="47.39794" lon="0.67601">
        <ele>65.6</ele>
        <time>2023-07-18T06:42:16Z</time>
      </trkpt>
      <trkpt lat="47.39789" lon="0.67604">
        <ele>65.6</ele>
        <time>2023-07-18T06:42:17Z</time>
      </trkpt>
      <trkpt lat="47.39783" lon="0.67606">
        <ele>65.6</ele>
        <time>2023-07-18T06:42:18Z</time>
      </trkpt>
      <trkpt lat="47.39777" lon="0.67609">
        <ele>65.6</ele>
        <time>2023-07-18T06:42:19Z</time>
      </trkpt>
      <trkpt lat="47.39771" lon="0.67612">
        <ele>65.6</ele>
        <time>2023-07-18T06:42:20Z</time>
      </trkpt>
      <trkpt lat="47.39765" lon="0.67615">
        <ele>65.6</ele>
        <time>2023-07-18T06:42:21Z</time>
      </trkpt>
      <trkpt lat="47.39759" lon="0.67618">
        <ele>65.6</ele>
        <time>2023-07-18T06:42:22Z</time>
      </trkpt>
      <trkpt lat="47.39754" lon="0.67621">
        <ele>65.8</ele>
        <time>2023-07-18T06:42:23Z</time>
      </trkpt>
      <trkpt lat="47.39748" lon="0.67624">
        <ele>66</ele>
        <time>2023-07-18T06:42:24Z</time>
      </trkpt>
      <trkpt lat="47.39742" lon="0.67627">
        <ele>66.2</ele>
        <time>2023-07-18T06:42:25Z</time>
      </trkpt>
      <trkpt lat="47.39737" lon="0.67629">
        <ele>66.2</ele>
        <time>2023-07-18T06:42:26Z</time>
      </trkpt>
      <trkpt lat="47.39731" lon="0.67633">
        <ele>66.2</ele>
        <time>2023-07-18T06:42:27Z</time>
      </trkpt>
      <trkpt lat="47.39725" lon="0.67636">
        <ele>66.4</ele>
        <time>2023-07-18T06:42:28Z</time>
      </trkpt>
      <trkpt lat="47.3972" lon="0.67639">
        <ele>66.2</ele>
        <time>2023-07-18T06:42:29Z</time>
      </trkpt>
      <trkpt lat="47.39714" lon="0.67641">
        <ele>66.4</ele>
        <time>2023-07-18T06:42:30Z</time>
      </trkpt>
      <trkpt lat="47.39709" lon="0.67644">
        <ele>66.4</ele>
        <time>2023-07-18T06:42:31Z</time>
      </trkpt>
      <trkpt lat="47.39703" lon="0.67647">
        <ele>66.4</ele>
        <time>2023-07-18T06:42:32Z</time>
      </trkpt>
      <trkpt lat="47.39698" lon="0.6765">
        <ele>66.2</ele>
        <time>2023-07-18T06:42:33Z</time>
      </trkpt>
      <trkpt lat="47.39692" lon="0.67653">
        <ele>66</ele>
        <time>2023-07-18T06:42:34Z</time>
      </trkpt>
      <trkpt lat="47.39687" lon="0.67656">
        <ele>65.8</ele>
        <time>2023-07-18T06:42:35Z</time>
      </trkpt>
      <trkpt lat="47.39681" lon="0.67659">
        <ele>65.6</ele>
        <time>2023-07-18T06:42:36Z</time>
      </trkpt>
      <trkpt lat="47.39676" lon="0.67662">
        <ele>65.6</ele>
        <time>2023-07-18T06:42:37Z</time>
      </trkpt>
      <trkpt lat="47.3967" lon="0.67664">
        <ele>65.6</ele>
        <time>2023-07-18T06:42:38Z</time>
      </trkpt>
      <trkpt lat="47.39664" lon="0.67667">
        <ele>65.6</ele>
        <time>2023-07-18T06:42:39Z</time>
      </trkpt>
      <trkpt lat="47.39658" lon="0.6767">
        <ele>65.4</ele>
        <time>2023-07-18T06:42:40Z</time>
      </trkpt>
      <trkpt lat="47.39652" lon="0.67673">
        <ele>65.4</ele>
        <time>2023-07-18T06:42:41Z</time>
      </trkpt>
      <trkpt lat="47.39646" lon="0.67676">
        <ele>65.2</ele>
        <time>2023-07-18T06:42:42Z</time>
      </trkpt>
      <trkpt lat="47.3964" lon="0.67679">
        <ele>65.2</ele>
        <time>2023-07-18T06:42:43Z</time>
      </trkpt>
      <trkpt lat="47.39634" lon="0.67683">
        <ele>64.8</ele>
        <time>2023-07-18T06:42:44Z</time>
      </trkpt>
      <trkpt lat="47.39627" lon="0.67686">
        <ele>64.6</ele>
        <time>2023-07-18T06:42:45Z</time>
      </trkpt>
      <trkpt lat="47.39622" lon="0.67689">
        <ele>64.2</ele>
        <time>2023-07-18T06:42:46Z</time>
      </trkpt>
      <trkpt lat="47.39616" lon="0.67691">
        <ele>63.8</ele>
        <time>2023-07-18T06:42:47Z</time>
      </trkpt>
      <trkpt lat="47.39611" lon="0.67693">
        <ele>63.4</ele>
        <time>2023-07-18T06:42:48Z</time>
      </trkpt>
      <trkpt lat="47.39607" lon="0.67693">
        <ele>63.2</ele>
        <time>2023-07-18T06:42:49Z</time>
      </trkpt>
      <trkpt lat="47.39603" lon="0.67692">
        <ele>62.8</ele>
        <time>2023-07-18T06:42:50Z</time>
      </trkpt>
      <trkpt lat="47.39599" lon="0.67691">
        <ele>62.6</ele>
        <time>2023-07-18T06:42:51Z</time>
      </trkpt>
      <trkpt lat="47.39595" lon="0.67689">
        <ele>62.2</ele>
        <time>2023-07-18T06:42:52Z</time>
      </trkpt>
      <trkpt lat="47.39592" lon="0.67686">
        <ele>62</ele>
        <time>2023-07-18T06:42:53Z</time>
      </trkpt>
      <trkpt lat="47.39591" lon="0.67682">
        <ele>61.8</ele>
        <time>2023-07-18T06:42:54Z</time>
      </trkpt>
      <trkpt lat="47.3959" lon="0.67677">
        <ele>61.6</ele>
        <time>2023-07-18T06:42:55Z</time>
      </trkpt>
      <trkpt lat="47.39589" lon="0.67669">
        <ele>61.6</ele>
        <time>2023-07-18T06:42:56Z</time>
      </trkpt>
      <trkpt lat="47.39587" lon="0.67661">
        <ele>61.4</ele>
        <time>2023-07-18T06:42:57Z</time>
      </trkpt>
      <trkpt lat="47.39586" lon="0.67653">
        <ele>61.4</ele>
        <time>2023-07-18T06:42:58Z</time>
      </trkpt>
      <trkpt lat="47.39585" lon="0.67645">
        <ele>61.4</ele>
        <time>2023-07-18T06:42:59Z</time>
      </trkpt>
      <trkpt lat="47.39584" lon="0.67637">
        <ele>61.4</ele>
        <time>2023-07-18T06:43:00Z</time>
      </trkpt>
      <trkpt lat="47.39583" lon="0.67629">
        <ele>61.4</ele>
        <time>2023-07-18T06:43:01Z</time>
      </trkpt>
      <trkpt lat="47.39581" lon="0.6762">
        <ele>61.4</ele>
        <time>2023-07-18T06:43:02Z</time>
      </trkpt>
      <trkpt lat="47.39579" lon="0.67612">
        <ele>61.6</ele>
        <time>2023-07-18T06:43:03Z</time>
      </trkpt>
      <trkpt lat="47.39577" lon="0.67603">
        <ele>61.6</ele>
        <time>2023-07-18T06:43:04Z</time>
      </trkpt>
      <trkpt lat="47.39574" lon="0.67595">
        <ele>61.6</ele>
        <time>2023-07-18T06:43:05Z</time>
      </trkpt>
      <trkpt lat="47.39571" lon="0.67587">
        <ele>61.6</ele>
        <time>2023-07-18T06:43:06Z</time>
      </trkpt>
      <trkpt lat="47.39569" lon="0.6758">
        <ele>61.6</ele>
        <time>2023-07-18T06:43:07Z</time>
      </trkpt>
      <trkpt lat="47.39567" lon="0.67572">
        <ele>61.6</ele>
        <time>2023-07-18T06:43:08Z</time>
      </trkpt>
      <trkpt lat="47.39565" lon="0.67565">
        <ele>61.6</ele>
        <time>2023-07-18T06:43:09Z</time>
      </trkpt>
      <trkpt lat="47.39565" lon="0.67558">
        <ele>61.6</ele>
        <time>2023-07-18T06:43:10Z</time>
      </trkpt>
      <trkpt lat="47.39565" lon="0.67552">
        <ele>61.4</ele>
        <time>2023-07-18T06:43:11Z</time>
      </trkpt>
      <trkpt lat="47.39564" lon="0.67547">
        <ele>61.4</ele>
        <time>2023-07-18T06:43:12Z</time>
      </trkpt>
      <trkpt lat="47.39563" lon="0.67543">
        <ele>61.4</ele>
        <time>2023-07-18T06:43:13Z</time>
      </trkpt>
      <trkpt lat="47.39563" lon="0.6754">
        <ele>61.4</ele>
        <time>2023-07-18T06:43:14Z</time>
      </trkpt>
      <trkpt lat="47.39562" lon="0.67539">
        <ele>61.4</ele>
        <time>2023-07-18T06:43:15Z</time>
      </trkpt>
      <trkpt lat="47.3956" lon="0.67537">
        <ele>61.4</ele>
        <time>2023-07-18T06:43:16Z</time>
      </trkpt>
      <trkpt lat="47.39559" lon="0.67536">
        <ele>61.2</ele>
        <time>2023-07-18T06:43:17Z</time>
      </trkpt>
      <trkpt lat="47.39559" lon="0.67534">
        <ele>61.2</ele>
        <time>2023-07-18T06:43:18Z</time>
      </trkpt>
      <trkpt lat="47.39558" lon="0.67532">
        <ele>61.2</ele>
        <time>2023-07-18T06:43:19Z</time>
      </trkpt>
      <trkpt lat="47.39557" lon="0.67531">
        <ele>61</ele>
        <time>2023-07-18T06:43:25Z</time>
      </trkpt>
      <trkpt lat="47.39555" lon="0.67529">
        <ele>61</ele>
        <time>2023-07-18T06:43:26Z</time>
      </trkpt>
      <trkpt lat="47.39553" lon="0.67527">
        <ele>61</ele>
        <time>2023-07-18T06:43:27Z</time>
      </trkpt>
      <trkpt lat="47.3955" lon="0.67525">
        <ele>60.8</ele>
        <time>2023-07-18T06:43:28Z</time>
      </trkpt>
      <trkpt lat="47.39548" lon="0.67522">
        <ele>60.8</ele>
        <time>2023-07-18T06:43:29Z</time>
      </trkpt>
      <trkpt lat="47.39548" lon="0.67519">
        <ele>60.6</ele>
        <time>2023-07-18T06:43:30Z</time>
      </trkpt>
      <trkpt lat="47.39547" lon="0.67515">
        <ele>60.8</ele>
        <time>2023-07-18T06:43:31Z</time>
      </trkpt>
      <trkpt lat="47.39547" lon="0.67511">
        <ele>60.8</ele>
        <time>2023-07-18T06:43:32Z</time>
      </trkpt>
      <trkpt lat="47.39546" lon="0.67505">
        <ele>60.8</ele>
        <time>2023-07-18T06:43:33Z</time>
      </trkpt>
      <trkpt lat="47.39543" lon="0.67498">
        <ele>60.8</ele>
        <time>2023-07-18T06:43:34Z</time>
      </trkpt>
      <trkpt lat="47.39542" lon="0.67492">
        <ele>60.8</ele>
        <time>2023-07-18T06:43:35Z</time>
      </trkpt>
      <trkpt lat="47.3954" lon="0.67485">
        <ele>60.8</ele>
        <time>2023-07-18T06:43:36Z</time>
      </trkpt>
      <trkpt lat="47.39539" lon="0.67479">
        <ele>60.8</ele>
        <time>2023-07-18T06:43:37Z</time>
      </trkpt>
      <trkpt lat="47.39537" lon="0.67472">
        <ele>60.8</ele>
        <time>2023-07-18T06:43:38Z</time>
      </trkpt>
      <trkpt lat="47.39536" lon="0.67467">
        <ele>60.8</ele>
        <time>2023-07-18T06:43:39Z</time>
      </trkpt>
      <trkpt lat="47.39535" lon="0.67461">
        <ele>60.8</ele>
        <time>2023-07-18T06:43:40Z</time>
      </trkpt>
      <trkpt lat="47.39533" lon="0.67455">
        <ele>60.8</ele>
        <time>2023-07-18T06:43:41Z</time>
      </trkpt>
      <trkpt lat="47.39532" lon="0.67449">
        <ele>60.8</ele>
        <time>2023-07-18T06:43:42Z</time>
      </trkpt>
      <trkpt lat="47.3953" lon="0.67442">
        <ele>60.8</ele>
        <time>2023-07-18T06:43:43Z</time>
      </trkpt>
      <trkpt lat="47.39528" lon="0.67435">
        <ele>60.8</ele>
        <time>2023-07-18T06:43:44Z</time>
      </trkpt>
      <trkpt lat="47.39526" lon="0.67427">
        <ele>60.8</ele>
        <time>2023-07-18T06:43:45Z</time>
      </trkpt>
      <trkpt lat="47.39525" lon="0.67419">
        <ele>61</ele>
        <time>2023-07-18T06:43:46Z</time>
      </trkpt>
      <trkpt lat="47.39523" lon="0.67411">
        <ele>61</ele>
        <time>2023-07-18T06:43:47Z</time>
      </trkpt>
      <trkpt lat="47.39521" lon="0.67403">
        <ele>61.2</ele>
        <time>2023-07-18T06:43:48Z</time>
      </trkpt>
      <trkpt lat="47.39519" lon="0.67395">
        <ele>61.2</ele>
        <time>2023-07-18T06:43:49Z</time>
      </trkpt>
      <trkpt lat="47.39517" lon="0.67386">
        <ele>61.2</ele>
        <time>2023-07-18T06:43:50Z</time>
      </trkpt>
      <trkpt lat="47.39515" lon="0.67375">
        <ele>61.2</ele>
        <time>2023-07-18T06:43:51Z</time>
      </trkpt>
      <trkpt lat="47.39512" lon="0.67366">
        <ele>61.2</ele>
        <time>2023-07-18T06:43:52Z</time>
      </trkpt>
      <trkpt lat="47.3951" lon="0.67357">
        <ele>61.2</ele>
        <time>2023-07-18T06:43:53Z</time>
      </trkpt>
      <trkpt lat="47.39509" lon="0.67348">
        <ele>61.2</ele>
        <time>2023-07-18T06:43:54Z</time>
      </trkpt>
      <trkpt lat="47.39507" lon="0.67339">
        <ele>61.2</ele>
        <time>2023-07-18T06:43:55Z</time>
      </trkpt>
      <trkpt lat="47.3951" lon="0.6733">
        <ele>61.2</ele>
        <time>2023-07-18T06:43:56Z</time>
      </trkpt>
      <trkpt lat="47.39515" lon="0.67323">
        <ele>61.2</ele>
        <time>2023-07-18T06:43:57Z</time>
      </trkpt>
      <trkpt lat="47.39514" lon="0.67316">
        <ele>61</ele>
        <time>2023-07-18T06:43:58Z</time>
      </trkpt>
      <trkpt lat="47.39515" lon="0.67309">
        <ele>61</ele>
        <time>2023-07-18T06:43:59Z</time>
      </trkpt>
      <trkpt lat="47.39516" lon="0.67301">
        <ele>61</ele>
        <time>2023-07-18T06:44:00Z</time>
      </trkpt>
      <trkpt lat="47.39516" lon="0.67294">
        <ele>61</ele>
        <time>2023-07-18T06:44:01Z</time>
      </trkpt>
      <trkpt lat="47.39516" lon="0.67287">
        <ele>61</ele>
        <time>2023-07-18T06:44:02Z</time>
      </trkpt>
      <trkpt lat="47.39515" lon="0.67279">
        <ele>60.8</ele>
        <time>2023-07-18T06:44:03Z</time>
      </trkpt>
      <trkpt lat="47.39515" lon="0.67272">
        <ele>60.8</ele>
        <time>2023-07-18T06:44:04Z</time>
      </trkpt>
      <trkpt lat="47.39514" lon="0.67264">
        <ele>60.8</ele>
        <time>2023-07-18T06:44:05Z</time>
      </trkpt>
      <trkpt lat="47.39515" lon="0.67256">
        <ele>60.8</ele>
        <time>2023-07-18T06:44:06Z</time>
      </trkpt>
      <trkpt lat="47.39515" lon="0.67247">
        <ele>61</ele>
        <time>2023-07-18T06:44:07Z</time>
      </trkpt>
      <trkpt lat="47.39514" lon="0.6724">
        <ele>61</ele>
        <time>2023-07-18T06:44:08Z</time>
      </trkpt>
      <trkpt lat="47.39513" lon="0.67231">
        <ele>61</ele>
        <time>2023-07-18T06:44:09Z</time>
      </trkpt>
      <trkpt lat="47.39511" lon="0.67222">
        <ele>61</ele>
        <time>2023-07-18T06:44:10Z</time>
      </trkpt>
      <trkpt lat="47.3951" lon="0.67214">
        <ele>61</ele>
        <time>2023-07-18T06:44:11Z</time>
      </trkpt>
      <trkpt lat="47.39507" lon="0.67206">
        <ele>61</ele>
        <time>2023-07-18T06:44:12Z</time>
      </trkpt>
      <trkpt lat="47.39506" lon="0.67197">
        <ele>61</ele>
        <time>2023-07-18T06:44:13Z</time>
      </trkpt>
      <trkpt lat="47.39505" lon="0.67189">
        <ele>61</ele>
        <time>2023-07-18T06:44:14Z</time>
      </trkpt>
      <trkpt lat="47.39503" lon="0.67181">
        <ele>61</ele>
        <time>2023-07-18T06:44:15Z</time>
      </trkpt>
      <trkpt lat="47.39503" lon="0.67174">
        <ele>60.8</ele>
        <time>2023-07-18T06:44:16Z</time>
      </trkpt>
      <trkpt lat="47.39499" lon="0.67166">
        <ele>60.8</ele>
        <time>2023-07-18T06:44:17Z</time>
      </trkpt>
      <trkpt lat="47.39494" lon="0.6716">
        <ele>60.6</ele>
        <time>2023-07-18T06:44:18Z</time>
      </trkpt>
      <trkpt lat="47.39489" lon="0.67156">
        <ele>60.6</ele>
        <time>2023-07-18T06:44:19Z</time>
      </trkpt>
      <trkpt lat="47.39483" lon="0.67153">
        <ele>60.4</ele>
        <time>2023-07-18T06:44:20Z</time>
      </trkpt>
      <trkpt lat="47.39478" lon="0.67152">
        <ele>60.4</ele>
        <time>2023-07-18T06:44:21Z</time>
      </trkpt>
      <trkpt lat="47.39473" lon="0.67151">
        <ele>60.4</ele>
        <time>2023-07-18T06:44:22Z</time>
      </trkpt>
      <trkpt lat="47.39467" lon="0.67152">
        <ele>60.4</ele>
        <time>2023-07-18T06:44:23Z</time>
      </trkpt>
      <trkpt lat="47.39462" lon="0.67153">
        <ele>60.4</ele>
        <time>2023-07-18T06:44:24Z</time>
      </trkpt>
      <trkpt lat="47.39457" lon="0.67155">
        <ele>60.4</ele>
        <time>2023-07-18T06:44:25Z</time>
      </trkpt>
      <trkpt lat="47.39451" lon="0.67159">
        <ele>60.2</ele>
        <time>2023-07-18T06:44:26Z</time>
      </trkpt>
      <trkpt lat="47.39445" lon="0.67161">
        <ele>60.2</ele>
        <time>2023-07-18T06:44:27Z</time>
      </trkpt>
      <trkpt lat="47.39439" lon="0.67163">
        <ele>60.2</ele>
        <time>2023-07-18T06:44:28Z</time>
      </trkpt>
      <trkpt lat="47.39433" lon="0.67165">
        <ele>60.2</ele>
        <time>2023-07-18T06:44:29Z</time>
      </trkpt>
      <trkpt lat="47.39428" lon="0.67167">
        <ele>60.2</ele>
        <time>2023-07-18T06:44:30Z</time>
      </trkpt>
      <trkpt lat="47.39423" lon="0.67168">
        <ele>60</ele>
        <time>2023-07-18T06:44:31Z</time>
      </trkpt>
      <trkpt lat="47.3942" lon="0.67168">
        <ele>60</ele>
        <time>2023-07-18T06:44:32Z</time>
      </trkpt>
      <trkpt lat="47.39418" lon="0.67167">
        <ele>59.8</ele>
        <time>2023-07-18T06:44:33Z</time>
      </trkpt>
      <trkpt lat="47.39416" lon="0.67165">
        <ele>59.8</ele>
        <time>2023-07-18T06:44:34Z</time>
      </trkpt>
      <trkpt lat="47.39416" lon="0.67162">
        <ele>59.8</ele>
        <time>2023-07-18T06:44:35Z</time>
      </trkpt>
      <trkpt lat="47.39383" lon="0.67168">
        <ele>51</ele>
      </trkpt>
      <trkpt lat="47.3934" lon="0.67187">
        <ele>50.4</ele>
        <time>2023-07-18T06:44:36Z</time>
      </trkpt>
      <trkpt lat="47.3926" lon="0.66997">
        <ele>50.4</ele>
      </trkpt>
      <trkpt lat="47.39223" lon="0.66908">
        <ele>50</ele>
      </trkpt>
      <trkpt lat="47.39205" lon="0.66806">
        <ele>49.4</ele>
      </trkpt>
      <trkpt lat="47.39153" lon="0.6682">
        <ele>49</ele>
      </trkpt>
      <trkpt lat="47.39095" lon="0.66662">
        <ele>48.9</ele>
      </trkpt>
      <trkpt lat="47.39064" lon="0.6663">
        <ele>48</ele>
      </trkpt>
      <trkpt lat="47.39053" lon="0.66614">
        <ele>48</ele>
      </trkpt>
      <trkpt lat="47.38757" lon="0.66193">
        <ele>48</ele>
      </trkpt>
      <trkpt lat="47.38647" lon="0.66127">
        <ele>47.1</ele>
      </trkpt>
      <trkpt lat="47.38549" lon="0.66033">
        <ele>47</ele>
      </trkpt>
      <trkpt lat="47.38473" lon="0.66025">
        <ele>47</ele>
      </trkpt>
      <trkpt lat="47.38406" lon="0.6593">
        <ele>47</ele>
      </trkpt>
      <trkpt lat="47.38315" lon="0.65686">
        <ele>47</ele>
      </trkpt>
      <trkpt lat="47.38283" lon="0.65503">
        <ele>46.3</ele>
        <time>2023-07-18T07:03:00Z</time>
      </trkpt>
      <trkpt lat="47.38279" lon="0.65502">
        <ele>47.8</ele>
        <time>2023-07-18T07:03:01Z</time>
      </trkpt>
      <trkpt lat="47.38282" lon="0.65503">
        <ele>47.6</ele>
        <time>2023-07-18T07:03:02Z</time>
      </trkpt>
      <trkpt lat="47.38284" lon="0.65503">
        <ele>47.6</ele>
        <time>2023-07-18T07:03:03Z</time>
      </trkpt>
      <trkpt lat="47.38287" lon="0.65503">
        <ele>47.6</ele>
        <time>2023-07-18T07:03:04Z</time>
      </trkpt>
      <trkpt lat="47.38289" lon="0.65502">
        <ele>47.4</ele>
        <time>2023-07-18T07:03:05Z</time>
      </trkpt>
      <trkpt lat="47.38292" lon="0.65501">
        <ele>47.4</ele>
        <time>2023-07-18T07:03:06Z</time>
      </trkpt>
      <trkpt lat="47.38294" lon="0.65499">
        <ele>47.4</ele>
        <time>2023-07-18T07:03:07Z</time>
      </trkpt>
      <trkpt lat="47.38297" lon="0.65496">
        <ele>47.6</ele>
        <time>2023-07-18T07:03:08Z</time>
      </trkpt>
      <trkpt lat="47.38299" lon="0.65492">
        <ele>47.6</ele>
        <time>2023-07-18T07:03:09Z</time>
      </trkpt>
      <trkpt lat="47.38301" lon="0.65489">
        <ele>47.6</ele>
        <time>2023-07-18T07:03:10Z</time>
      </trkpt>
      <trkpt lat="47.38303" lon="0.65486">
        <ele>47.6</ele>
        <time>2023-07-18T07:03:11Z</time>
      </trkpt>
      <trkpt lat="47.38303" lon="0.65483">
        <ele>47.6</ele>
        <time>2023-07-18T07:03:12Z</time>
      </trkpt>
      <trkpt lat="47.38303" lon="0.65479">
        <ele>47.6</ele>
        <time>2023-07-18T07:03:13Z</time>
      </trkpt>
      <trkpt lat="47.38303" lon="0.65474">
        <ele>47.6</ele>
        <time>2023-07-18T07:03:14Z</time>
      </trkpt>
      <trkpt lat="47.38302" lon="0.65469">
        <ele>47.8</ele>
        <time>2023-07-18T07:03:15Z</time>
      </trkpt>
      <trkpt lat="47.383" lon="0.65464">
        <ele>47.8</ele>
        <time>2023-07-18T07:03:16Z</time>
      </trkpt>
      <trkpt lat="47.38299" lon="0.6546">
        <ele>47.8</ele>
        <time>2023-07-18T07:03:17Z</time>
      </trkpt>
      <trkpt lat="47.38297" lon="0.65456">
        <ele>47.8</ele>
        <time>2023-07-18T07:03:18Z</time>
      </trkpt>
      <trkpt lat="47.38295" lon="0.65452">
        <ele>47.6</ele>
        <time>2023-07-18T07:03:19Z</time>
      </trkpt>
      <trkpt lat="47.38293" lon="0.6545">
        <ele>47.6</ele>
        <time>2023-07-18T07:03:20Z</time>
      </trkpt>
      <trkpt lat="47.3829" lon="0.65449">
        <ele>47.6</ele>
        <time>2023-07-18T07:03:21Z</time>
      </trkpt>
      <trkpt lat="47.38288" lon="0.6545">
        <ele>47.6</ele>
        <time>2023-07-18T07:03:22Z</time>
      </trkpt>
      <trkpt lat="47.38286" lon="0.65453">
        <ele>47.4</ele>
        <time>2023-07-18T07:03:23Z</time>
      </trkpt>
      <trkpt lat="47.38282" lon="0.65456">
        <ele>47.4</ele>
        <time>2023-07-18T07:03:24Z</time>
      </trkpt>
      <trkpt lat="47.38278" lon="0.65456">
        <ele>47.6</ele>
        <time>2023-07-18T07:03:25Z</time>
      </trkpt>
      <trkpt lat="47.38274" lon="0.65454">
        <ele>47.4</ele>
        <time>2023-07-18T07:03:26Z</time>
      </trkpt>
      <trkpt lat="47.38271" lon="0.65451">
        <ele>47.4</ele>
        <time>2023-07-18T07:03:27Z</time>
      </trkpt>
      <trkpt lat="47.38268" lon="0.65447">
        <ele>47.6</ele>
        <time>2023-07-18T07:03:28Z</time>
      </trkpt>
      <trkpt lat="47.38264" lon="0.65443">
        <ele>47.6</ele>
        <time>2023-07-18T07:03:29Z</time>
      </trkpt>
      <trkpt lat="47.38261" lon="0.65438">
        <ele>47.6</ele>
        <time>2023-07-18T07:03:30Z</time>
      </trkpt>
      <trkpt lat="47.38258" lon="0.65432">
        <ele>47.6</ele>
        <time>2023-07-18T07:03:31Z</time>
      </trkpt>
      <trkpt lat="47.38256" lon="0.65425">
        <ele>47.6</ele>
        <time>2023-07-18T07:03:32Z</time>
      </trkpt>
      <trkpt lat="47.38254" lon="0.65417">
        <ele>47.6</ele>
        <time>2023-07-18T07:03:33Z</time>
      </trkpt>
      <trkpt lat="47.38252" lon="0.65409">
        <ele>47.6</ele>
        <time>2023-07-18T07:03:34Z</time>
      </trkpt>
      <trkpt lat="47.3825" lon="0.65402">
        <ele>47.6</ele>
        <time>2023-07-18T07:03:35Z</time>
      </trkpt>
      <trkpt lat="47.38249" lon="0.65394">
        <ele>47.6</ele>
        <time>2023-07-18T07:03:36Z</time>
      </trkpt>
      <trkpt lat="47.38247" lon="0.65386">
        <ele>47.6</ele>
        <time>2023-07-18T07:03:37Z</time>
      </trkpt>
      <trkpt lat="47.38245" lon="0.65379">
        <ele>47.6</ele>
        <time>2023-07-18T07:03:38Z</time>
      </trkpt>
      <trkpt lat="47.38243" lon="0.65371">
        <ele>47.6</ele>
        <time>2023-07-18T07:03:39Z</time>
      </trkpt>
      <trkpt lat="47.38241" lon="0.65363">
        <ele>47.6</ele>
        <time>2023-07-18T07:03:40Z</time>
      </trkpt>
      <trkpt lat="47.38239" lon="0.65355">
        <ele>47.6</ele>
        <time>2023-07-18T07:03:41Z</time>
      </trkpt>
      <trkpt lat="47.38237" lon="0.65348">
        <ele>47.8</ele>
        <time>2023-07-18T07:03:42Z</time>
      </trkpt>
      <trkpt lat="47.38234" lon="0.65341">
        <ele>47.8</ele>
        <time>2023-07-18T07:03:43Z</time>
      </trkpt>
      <trkpt lat="47.38231" lon="0.65334">
        <ele>47.8</ele>
        <time>2023-07-18T07:03:44Z</time>
      </trkpt>
      <trkpt lat="47.38228" lon="0.65325">
        <ele>47.8</ele>
        <time>2023-07-18T07:03:45Z</time>
      </trkpt>
      <trkpt lat="47.38226" lon="0.65318">
        <ele>47.8</ele>
        <time>2023-07-18T07:03:46Z</time>
      </trkpt>
      <trkpt lat="47.38223" lon="0.65311">
        <ele>47.8</ele>
        <time>2023-07-18T07:03:47Z</time>
      </trkpt>
      <trkpt lat="47.3822" lon="0.65304">
        <ele>47.6</ele>
        <time>2023-07-18T07:03:48Z</time>
      </trkpt>
      <trkpt lat="47.38217" lon="0.65298">
        <ele>47.6</ele>
        <time>2023-07-18T07:03:49Z</time>
      </trkpt>
      <trkpt lat="47.38214" lon="0.65291">
        <ele>47.6</ele>
        <time>2023-07-18T07:03:50Z</time>
      </trkpt>
      <trkpt lat="47.38212" lon="0.65283">
        <ele>47.8</ele>
        <time>2023-07-18T07:03:51Z</time>
      </trkpt>
      <trkpt lat="47.3821" lon="0.65277">
        <ele>47.8</ele>
        <time>2023-07-18T07:03:52Z</time>
      </trkpt>
      <trkpt lat="47.38206" lon="0.6527">
        <ele>47.8</ele>
        <time>2023-07-18T07:03:53Z</time>
      </trkpt>
      <trkpt lat="47.38202" lon="0.65266">
        <ele>47.8</ele>
        <time>2023-07-18T07:03:54Z</time>
      </trkpt>
      <trkpt lat="47.38196" lon="0.65262">
        <ele>48</ele>
        <time>2023-07-18T07:03:55Z</time>
      </trkpt>
      <trkpt lat="47.3819" lon="0.65257">
        <ele>48</ele>
        <time>2023-07-18T07:03:56Z</time>
      </trkpt>
      <trkpt lat="47.38186" lon="0.65251">
        <ele>48</ele>
        <time>2023-07-18T07:03:57Z</time>
      </trkpt>
      <trkpt lat="47.38181" lon="0.65245">
        <ele>47.8</ele>
        <time>2023-07-18T07:03:58Z</time>
      </trkpt>
      <trkpt lat="47.38177" lon="0.65238">
        <ele>47.8</ele>
        <time>2023-07-18T07:03:59Z</time>
      </trkpt>
      <trkpt lat="47.38173" lon="0.65232">
        <ele>47.6</ele>
        <time>2023-07-18T07:04:00Z</time>
      </trkpt>
      <trkpt lat="47.38168" lon="0.65225">
        <ele>47.6</ele>
        <time>2023-07-18T07:04:01Z</time>
      </trkpt>
      <trkpt lat="47.38165" lon="0.65218">
        <ele>47.6</ele>
        <time>2023-07-18T07:04:02Z</time>
      </trkpt>
      <trkpt lat="47.38161" lon="0.6521">
        <ele>47.8</ele>
        <time>2023-07-18T07:04:03Z</time>
      </trkpt>
      <trkpt lat="47.38157" lon="0.65202">
        <ele>47.8</ele>
        <time>2023-07-18T07:04:04Z</time>
      </trkpt>
      <trkpt lat="47.38153" lon="0.65195">
        <ele>47.8</ele>
        <time>2023-07-18T07:04:05Z</time>
      </trkpt>
      <trkpt lat="47.38149" lon="0.65188">
        <ele>47.8</ele>
        <time>2023-07-18T07:04:06Z</time>
      </trkpt>
      <trkpt lat="47.38145" lon="0.6518">
        <ele>47.8</ele>
        <time>2023-07-18T07:04:07Z</time>
      </trkpt>
      <trkpt lat="47.38141" lon="0.65173">
        <ele>47.8</ele>
        <time>2023-07-18T07:04:08Z</time>
      </trkpt>
      <trkpt lat="47.38137" lon="0.65166">
        <ele>48</ele>
        <time>2023-07-18T07:04:09Z</time>
      </trkpt>
      <trkpt lat="47.38133" lon="0.65159">
        <ele>48</ele>
        <time>2023-07-18T07:04:10Z</time>
      </trkpt>
      <trkpt lat="47.38129" lon="0.65152">
        <ele>48.2</ele>
        <time>2023-07-18T07:04:11Z</time>
      </trkpt>
      <trkpt lat="47.38126" lon="0.65145">
        <ele>48.2</ele>
        <time>2023-07-18T07:04:12Z</time>
      </trkpt>
      <trkpt lat="47.38122" lon="0.65137">
        <ele>48.2</ele>
        <time>2023-07-18T07:04:13Z</time>
      </trkpt>
      <trkpt lat="47.3812" lon="0.65129">
        <ele>48.2</ele>
        <time>2023-07-18T07:04:14Z</time>
      </trkpt>
      <trkpt lat="47.38117" lon="0.65121">
        <ele>48.4</ele>
        <time>2023-07-18T07:04:15Z</time>
      </trkpt>
      <trkpt lat="47.38114" lon="0.65113">
        <ele>48.4</ele>
        <time>2023-07-18T07:04:16Z</time>
      </trkpt>
      <trkpt lat="47.38111" lon="0.65105">
        <ele>48.4</ele>
        <time>2023-07-18T07:04:17Z</time>
      </trkpt>
      <trkpt lat="47.38109" lon="0.65097">
        <ele>48.4</ele>
        <time>2023-07-18T07:04:18Z</time>
      </trkpt>
      <trkpt lat="47.38106" lon="0.65088">
        <ele>48.4</ele>
        <time>2023-07-18T07:04:19Z</time>
      </trkpt>
      <trkpt lat="47.38103" lon="0.6508">
        <ele>48.4</ele>
        <time>2023-07-18T07:04:20Z</time>
      </trkpt>
      <trkpt lat="47.38101" lon="0.65072">
        <ele>48.4</ele>
        <time>2023-07-18T07:04:21Z</time>
      </trkpt>
      <trkpt lat="47.38098" lon="0.65063">
        <ele>48.4</ele>
        <time>2023-07-18T07:04:22Z</time>
      </trkpt>
      <trkpt lat="47.38096" lon="0.65055">
        <ele>48.4</ele>
        <time>2023-07-18T07:04:23Z</time>
      </trkpt>
      <trkpt lat="47.38093" lon="0.65046">
        <ele>48.4</ele>
        <time>2023-07-18T07:04:24Z</time>
      </trkpt>
      <trkpt lat="47.38091" lon="0.65038">
        <ele>48.4</ele>
        <time>2023-07-18T07:04:25Z</time>
      </trkpt>
      <trkpt lat="47.38088" lon="0.6503">
        <ele>48.4</ele>
        <time>2023-07-18T07:04:26Z</time>
      </trkpt>
      <trkpt lat="47.38085" lon="0.65021">
        <ele>48.4</ele>
        <time>2023-07-18T07:04:27Z</time>
      </trkpt>
      <trkpt lat="47.38083" lon="0.65013">
        <ele>48.6</ele>
        <time>2023-07-18T07:04:28Z</time>
      </trkpt>
      <trkpt lat="47.38079" lon="0.65005">
        <ele>48.6</ele>
        <time>2023-07-18T07:04:29Z</time>
      </trkpt>
      <trkpt lat="47.38076" lon="0.64997">
        <ele>48.6</ele>
        <time>2023-07-18T07:04:30Z</time>
      </trkpt>
      <trkpt lat="47.38072" lon="0.6499">
        <ele>48.6</ele>
        <time>2023-07-18T07:04:31Z</time>
      </trkpt>
      <trkpt lat="47.38068" lon="0.64982">
        <ele>48.6</ele>
        <time>2023-07-18T07:04:32Z</time>
      </trkpt>
      <trkpt lat="47.38063" lon="0.64973">
        <ele>48.6</ele>
        <time>2023-07-18T07:04:33Z</time>
      </trkpt>
      <trkpt lat="47.38057" lon="0.64964">
        <ele>48.8</ele>
        <time>2023-07-18T07:04:34Z</time>
      </trkpt>
      <trkpt lat="47.38054" lon="0.64957">
        <ele>48.8</ele>
        <time>2023-07-18T07:04:35Z</time>
      </trkpt>
      <trkpt lat="47.38049" lon="0.64949">
        <ele>48.8</ele>
        <time>2023-07-18T07:04:36Z</time>
      </trkpt>
      <trkpt lat="47.38045" lon="0.64941">
        <ele>48.8</ele>
        <time>2023-07-18T07:04:37Z</time>
      </trkpt>
      <trkpt lat="47.38039" lon="0.64936">
        <ele>48.8</ele>
        <time>2023-07-18T07:04:38Z</time>
      </trkpt>
      <trkpt lat="47.38034" lon="0.64932">
        <ele>48.8</ele>
        <time>2023-07-18T07:04:39Z</time>
      </trkpt>
      <trkpt lat="47.38029" lon="0.64927">
        <ele>48.8</ele>
        <time>2023-07-18T07:04:40Z</time>
      </trkpt>
      <trkpt lat="47.38025" lon="0.64923">
        <ele>48.8</ele>
        <time>2023-07-18T07:04:41Z</time>
      </trkpt>
      <trkpt lat="47.38019" lon="0.64918">
        <ele>48.8</ele>
        <time>2023-07-18T07:04:42Z</time>
      </trkpt>
      <trkpt lat="47.38014" lon="0.64914">
        <ele>48.8</ele>
        <time>2023-07-18T07:04:43Z</time>
      </trkpt>
      <trkpt lat="47.38009" lon="0.64909">
        <ele>48.8</ele>
        <time>2023-07-18T07:04:44Z</time>
      </trkpt>
      <trkpt lat="47.38005" lon="0.64902">
        <ele>49</ele>
        <time>2023-07-18T07:04:45Z</time>
      </trkpt>
      <trkpt lat="47.38002" lon="0.64894">
        <ele>49</ele>
        <time>2023-07-18T07:04:46Z</time>
      </trkpt>
      <trkpt lat="47.37999" lon="0.64888">
        <ele>49</ele>
        <time>2023-07-18T07:04:47Z</time>
      </trkpt>
      <trkpt lat="47.37995" lon="0.6488">
        <ele>49</ele>
        <time>2023-07-18T07:04:48Z</time>
      </trkpt>
      <trkpt lat="47.37991" lon="0.64871">
        <ele>49</ele>
        <time>2023-07-18T07:04:49Z</time>
      </trkpt>
      <trkpt lat="47.37988" lon="0.64863">
        <ele>49</ele>
        <time>2023-07-18T07:04:50Z</time>
      </trkpt>
      <trkpt lat="47.37985" lon="0.64855">
        <ele>49</ele>
        <time>2023-07-18T07:04:51Z</time>
      </trkpt>
      <trkpt lat="47.37983" lon="0.64846">
        <ele>49</ele>
        <time>2023-07-18T07:04:52Z</time>
      </trkpt>
      <trkpt lat="47.37981" lon="0.64837">
        <ele>49</ele>
        <time>2023-07-18T07:04:53Z</time>
      </trkpt>
      <trkpt lat="47.37978" lon="0.64829">
        <ele>49</ele>
        <time>2023-07-18T07:04:54Z</time>
      </trkpt>
      <trkpt lat="47.37976" lon="0.64821">
        <ele>49.2</ele>
        <time>2023-07-18T07:04:55Z</time>
      </trkpt>
      <trkpt lat="47.37974" lon="0.64812">
        <ele>49.2</ele>
        <time>2023-07-18T07:04:56Z</time>
      </trkpt>
      <trkpt lat="47.37971" lon="0.64803">
        <ele>49.2</ele>
        <time>2023-07-18T07:04:57Z</time>
      </trkpt>
      <trkpt lat="47.3797" lon="0.64794">
        <ele>49.2</ele>
        <time>2023-07-18T07:04:58Z</time>
      </trkpt>
      <trkpt lat="47.37969" lon="0.64786">
        <ele>49.2</ele>
        <time>2023-07-18T07:04:59Z</time>
      </trkpt>
      <trkpt lat="47.37968" lon="0.64777">
        <ele>49.2</ele>
        <time>2023-07-18T07:05:00Z</time>
      </trkpt>
      <trkpt lat="47.37966" lon="0.64767">
        <ele>49.2</ele>
        <time>2023-07-18T07:05:01Z</time>
      </trkpt>
      <trkpt lat="47.37965" lon="0.64757">
        <ele>49.2</ele>
        <time>2023-07-18T07:05:02Z</time>
      </trkpt>
      <trkpt lat="47.37964" lon="0.64748">
        <ele>49</ele>
        <time>2023-07-18T07:05:03Z</time>
      </trkpt>
      <trkpt lat="47.37963" lon="0.64739">
        <ele>49</ele>
        <time>2023-07-18T07:05:04Z</time>
      </trkpt>
      <trkpt lat="47.37961" lon="0.6473">
        <ele>49</ele>
        <time>2023-07-18T07:05:05Z</time>
      </trkpt>
      <trkpt lat="47.37959" lon="0.64721">
        <ele>49</ele>
        <time>2023-07-18T07:05:06Z</time>
      </trkpt>
      <trkpt lat="47.37958" lon="0.64711">
        <ele>49</ele>
        <time>2023-07-18T07:05:07Z</time>
      </trkpt>
      <trkpt lat="47.37956" lon="0.64702">
        <ele>48.8</ele>
        <time>2023-07-18T07:05:08Z</time>
      </trkpt>
      <trkpt lat="47.37955" lon="0.64692">
        <ele>48.8</ele>
        <time>2023-07-18T07:05:09Z</time>
      </trkpt>
      <trkpt lat="47.37953" lon="0.64682">
        <ele>48.8</ele>
        <time>2023-07-18T07:05:10Z</time>
      </trkpt>
      <trkpt lat="47.37952" lon="0.64673">
        <ele>48.8</ele>
        <time>2023-07-18T07:05:11Z</time>
      </trkpt>
      <trkpt lat="47.3795" lon="0.64663">
        <ele>48.8</ele>
        <time>2023-07-18T07:05:12Z</time>
      </trkpt>
      <trkpt lat="47.37948" lon="0.64654">
        <ele>48.8</ele>
        <time>2023-07-18T07:05:13Z</time>
      </trkpt>
      <trkpt lat="47.37946" lon="0.64644">
        <ele>48.8</ele>
        <time>2023-07-18T07:05:14Z</time>
      </trkpt>
      <trkpt lat="47.37944" lon="0.64635">
        <ele>48.8</ele>
        <time>2023-07-18T07:05:15Z</time>
      </trkpt>
      <trkpt lat="47.37943" lon="0.64625">
        <ele>48.8</ele>
        <time>2023-07-18T07:05:16Z</time>
      </trkpt>
      <trkpt lat="47.37941" lon="0.64616">
        <ele>48.8</ele>
        <time>2023-07-18T07:05:17Z</time>
      </trkpt>
      <trkpt lat="47.3794" lon="0.64606">
        <ele>48.8</ele>
        <time>2023-07-18T07:05:18Z</time>
      </trkpt>
      <trkpt lat="47.37939" lon="0.64597">
        <ele>48.8</ele>
        <time>2023-07-18T07:05:19Z</time>
      </trkpt>
      <trkpt lat="47.37937" lon="0.64587">
        <ele>48.8</ele>
        <time>2023-07-18T07:05:20Z</time>
      </trkpt>
      <trkpt lat="47.37935" lon="0.64578">
        <ele>48.6</ele>
        <time>2023-07-18T07:05:21Z</time>
      </trkpt>
      <trkpt lat="47.37934" lon="0.64569">
        <ele>48.6</ele>
        <time>2023-07-18T07:05:22Z</time>
      </trkpt>
      <trkpt lat="47.37932" lon="0.6456">
        <ele>48.8</ele>
        <time>2023-07-18T07:05:23Z</time>
      </trkpt>
      <trkpt lat="47.37931" lon="0.64551">
        <ele>48.8</ele>
        <time>2023-07-18T07:05:24Z</time>
      </trkpt>
      <trkpt lat="47.37929" lon="0.64542">
        <ele>48.8</ele>
        <time>2023-07-18T07:05:25Z</time>
      </trkpt>
      <trkpt lat="47.37928" lon="0.64532">
        <ele>48.8</ele>
        <time>2023-07-18T07:05:26Z</time>
      </trkpt>
      <trkpt lat="47.37926" lon="0.64523">
        <ele>48.8</ele>
        <time>2023-07-18T07:05:27Z</time>
      </trkpt>
      <trkpt lat="47.37925" lon="0.64514">
        <ele>48.8</ele>
        <time>2023-07-18T07:05:28Z</time>
      </trkpt>
      <trkpt lat="47.37923" lon="0.64505">
        <ele>48.6</ele>
        <time>2023-07-18T07:05:29Z</time>
      </trkpt>
      <trkpt lat="47.37922" lon="0.64496">
        <ele>48.6</ele>
        <time>2023-07-18T07:05:30Z</time>
      </trkpt>
      <trkpt lat="47.37921" lon="0.64487">
        <ele>48.6</ele>
        <time>2023-07-18T07:05:31Z</time>
      </trkpt>
      <trkpt lat="47.3792" lon="0.64478">
        <ele>48.6</ele>
        <time>2023-07-18T07:05:32Z</time>
      </trkpt>
      <trkpt lat="47.37919" lon="0.6447">
        <ele>48.4</ele>
        <time>2023-07-18T07:05:33Z</time>
      </trkpt>
      <trkpt lat="47.37918" lon="0.64461">
        <ele>48.4</ele>
        <time>2023-07-18T07:05:34Z</time>
      </trkpt>
      <trkpt lat="47.37917" lon="0.64452">
        <ele>48.4</ele>
        <time>2023-07-18T07:05:35Z</time>
      </trkpt>
      <trkpt lat="47.37915" lon="0.64443">
        <ele>48.4</ele>
        <time>2023-07-18T07:05:36Z</time>
      </trkpt>
      <trkpt lat="47.37914" lon="0.64434">
        <ele>48.4</ele>
        <time>2023-07-18T07:05:37Z</time>
      </trkpt>
      <trkpt lat="47.37913" lon="0.64425">
        <ele>48.4</ele>
        <time>2023-07-18T07:05:38Z</time>
      </trkpt>
      <trkpt lat="47.37912" lon="0.64416">
        <ele>48.4</ele>
        <time>2023-07-18T07:05:39Z</time>
      </trkpt>
      <trkpt lat="47.37911" lon="0.64409">
        <ele>48.2</ele>
        <time>2023-07-18T07:05:40Z</time>
      </trkpt>
      <trkpt lat="47.3791" lon="0.64401">
        <ele>48.2</ele>
        <time>2023-07-18T07:05:41Z</time>
      </trkpt>
      <trkpt lat="47.3791" lon="0.64395">
        <ele>48</ele>
        <time>2023-07-18T07:05:42Z</time>
      </trkpt>
      <trkpt lat="47.3791" lon="0.64392">
        <ele>48</ele>
        <time>2023-07-18T07:05:43Z</time>
      </trkpt>
      <trkpt lat="47.37911" lon="0.64389">
        <ele>48</ele>
        <time>2023-07-18T07:05:44Z</time>
      </trkpt>
      <trkpt lat="47.37911" lon="0.64388">
        <ele>47.8</ele>
        <time>2023-07-18T07:05:45Z</time>
      </trkpt>
      <trkpt lat="47.37912" lon="0.64387">
        <ele>47.8</ele>
        <time>2023-07-18T07:05:46Z</time>
      </trkpt>
      <trkpt lat="47.37913" lon="0.64385">
        <ele>47.8</ele>
        <time>2023-07-18T07:05:47Z</time>
      </trkpt>
      <trkpt lat="47.37914" lon="0.64384">
        <ele>47.8</ele>
        <time>2023-07-18T07:05:48Z</time>
      </trkpt>
      <trkpt lat="47.37914" lon="0.64382">
        <ele>47.8</ele>
        <time>2023-07-18T07:05:49Z</time>
      </trkpt>
      <trkpt lat="47.37912" lon="0.64379">
        <ele>47.8</ele>
        <time>2023-07-18T07:05:50Z</time>
      </trkpt>
      <trkpt lat="47.3791" lon="0.64375">
        <ele>47.8</ele>
        <time>2023-07-18T07:05:51Z</time>
      </trkpt>
      <trkpt lat="47.37907" lon="0.64371">
        <ele>48</ele>
        <time>2023-07-18T07:05:52Z</time>
      </trkpt>
      <trkpt lat="47.37906" lon="0.64366">
        <ele>48</ele>
        <time>2023-07-18T07:05:53Z</time>
      </trkpt>
      <trkpt lat="47.37904" lon="0.64359">
        <ele>48.2</ele>
        <time>2023-07-18T07:05:54Z</time>
      </trkpt>
      <trkpt lat="47.37903" lon="0.64351">
        <ele>48.2</ele>
        <time>2023-07-18T07:05:55Z</time>
      </trkpt>
      <trkpt lat="47.37901" lon="0.64343">
        <ele>48.2</ele>
        <time>2023-07-18T07:05:56Z</time>
      </trkpt>
      <trkpt lat="47.379" lon="0.64334">
        <ele>48.4</ele>
        <time>2023-07-18T07:05:57Z</time>
      </trkpt>
      <trkpt lat="47.37898" lon="0.64325">
        <ele>48.4</ele>
        <time>2023-07-18T07:05:58Z</time>
      </trkpt>
      <trkpt lat="47.37896" lon="0.64316">
        <ele>48.4</ele>
        <time>2023-07-18T07:05:59Z</time>
      </trkpt>
      <trkpt lat="47.37894" lon="0.64306">
        <ele>48.6</ele>
        <time>2023-07-18T07:06:00Z</time>
      </trkpt>
      <trkpt lat="47.37893" lon="0.64296">
        <ele>48.4</ele>
        <time>2023-07-18T07:06:01Z</time>
      </trkpt>
      <trkpt lat="47.37891" lon="0.64287">
        <ele>48.4</ele>
        <time>2023-07-18T07:06:02Z</time>
      </trkpt>
      <trkpt lat="47.3789" lon="0.64277">
        <ele>48.4</ele>
        <time>2023-07-18T07:06:03Z</time>
      </trkpt>
      <trkpt lat="47.37889" lon="0.64267">
        <ele>48.4</ele>
        <time>2023-07-18T07:06:04Z</time>
      </trkpt>
      <trkpt lat="47.37887" lon="0.64258">
        <ele>48.4</ele>
        <time>2023-07-18T07:06:05Z</time>
      </trkpt>
      <trkpt lat="47.37886" lon="0.64248">
        <ele>48.4</ele>
        <time>2023-07-18T07:06:06Z</time>
      </trkpt>
      <trkpt lat="47.37885" lon="0.64239">
        <ele>48.4</ele>
        <time>2023-07-18T07:06:07Z</time>
      </trkpt>
      <trkpt lat="47.37883" lon="0.64229">
        <ele>48.4</ele>
        <time>2023-07-18T07:06:08Z</time>
      </trkpt>
      <trkpt lat="47.37883" lon="0.64219">
        <ele>48.4</ele>
        <time>2023-07-18T07:06:09Z</time>
      </trkpt>
      <trkpt lat="47.37882" lon="0.64209">
        <ele>48.4</ele>
        <time>2023-07-18T07:06:10Z</time>
      </trkpt>
      <trkpt lat="47.37881" lon="0.64199">
        <ele>48.4</ele>
        <time>2023-07-18T07:06:11Z</time>
      </trkpt>
      <trkpt lat="47.3788" lon="0.6419">
        <ele>48.4</ele>
        <time>2023-07-18T07:06:12Z</time>
      </trkpt>
      <trkpt lat="47.37879" lon="0.64181">
        <ele>48.4</ele>
        <time>2023-07-18T07:06:13Z</time>
      </trkpt>
      <trkpt lat="47.37878" lon="0.64171">
        <ele>48.4</ele>
        <time>2023-07-18T07:06:14Z</time>
      </trkpt>
      <trkpt lat="47.37878" lon="0.64161">
        <ele>48.6</ele>
        <time>2023-07-18T07:06:15Z</time>
      </trkpt>
      <trkpt lat="47.37877" lon="0.64151">
        <ele>48.6</ele>
        <time>2023-07-18T07:06:16Z</time>
      </trkpt>
      <trkpt lat="47.37875" lon="0.64142">
        <ele>48.6</ele>
        <time>2023-07-18T07:06:17Z</time>
      </trkpt>
      <trkpt lat="47.37875" lon="0.64132">
        <ele>48.6</ele>
        <time>2023-07-18T07:06:18Z</time>
      </trkpt>
      <trkpt lat="47.37874" lon="0.64123">
        <ele>48.6</ele>
        <time>2023-07-18T07:06:19Z</time>
      </trkpt>
      <trkpt lat="47.37874" lon="0.64113">
        <ele>48.6</ele>
        <time>2023-07-18T07:06:20Z</time>
      </trkpt>
      <trkpt lat="47.37874" lon="0.64104">
        <ele>48.6</ele>
        <time>2023-07-18T07:06:21Z</time>
      </trkpt>
      <trkpt lat="47.37873" lon="0.64094">
        <ele>48.6</ele>
        <time>2023-07-18T07:06:22Z</time>
      </trkpt>
      <trkpt lat="47.37873" lon="0.64084">
        <ele>48.6</ele>
        <time>2023-07-18T07:06:23Z</time>
      </trkpt>
      <trkpt lat="47.37873" lon="0.64074">
        <ele>48.6</ele>
        <time>2023-07-18T07:06:24Z</time>
      </trkpt>
      <trkpt lat="47.37873" lon="0.64064">
        <ele>48.4</ele>
        <time>2023-07-18T07:06:25Z</time>
      </trkpt>
      <trkpt lat="47.37874" lon="0.64055">
        <ele>48.4</ele>
        <time>2023-07-18T07:06:26Z</time>
      </trkpt>
      <trkpt lat="47.37874" lon="0.64045">
        <ele>48.4</ele>
        <time>2023-07-18T07:06:27Z</time>
      </trkpt>
      <trkpt lat="47.37874" lon="0.64035">
        <ele>48.4</ele>
        <time>2023-07-18T07:06:28Z</time>
      </trkpt>
      <trkpt lat="47.37874" lon="0.64026">
        <ele>48.4</ele>
        <time>2023-07-18T07:06:29Z</time>
      </trkpt>
      <trkpt lat="47.37875" lon="0.64017">
        <ele>48.4</ele>
        <time>2023-07-18T07:06:30Z</time>
      </trkpt>
      <trkpt lat="47.37875" lon="0.64007">
        <ele>48.4</ele>
        <time>2023-07-18T07:06:31Z</time>
      </trkpt>
      <trkpt lat="47.37875" lon="0.63997">
        <ele>48.4</ele>
        <time>2023-07-18T07:06:32Z</time>
      </trkpt>
      <trkpt lat="47.37875" lon="0.63988">
        <ele>48.6</ele>
        <time>2023-07-18T07:06:33Z</time>
      </trkpt>
      <trkpt lat="47.37875" lon="0.63979">
        <ele>48.6</ele>
        <time>2023-07-18T07:06:34Z</time>
      </trkpt>
      <trkpt lat="47.37876" lon="0.6397">
        <ele>48.6</ele>
        <time>2023-07-18T07:06:35Z</time>
      </trkpt>
      <trkpt lat="47.37877" lon="0.6396">
        <ele>48.6</ele>
        <time>2023-07-18T07:06:36Z</time>
      </trkpt>
      <trkpt lat="47.37877" lon="0.6395">
        <ele>48.6</ele>
        <time>2023-07-18T07:06:37Z</time>
      </trkpt>
      <trkpt lat="47.37877" lon="0.63941">
        <ele>48.6</ele>
        <time>2023-07-18T07:06:38Z</time>
      </trkpt>
      <trkpt lat="47.37878" lon="0.63931">
        <ele>48.6</ele>
        <time>2023-07-18T07:06:39Z</time>
      </trkpt>
      <trkpt lat="47.37878" lon="0.63922">
        <ele>48.6</ele>
        <time>2023-07-18T07:06:40Z</time>
      </trkpt>
      <trkpt lat="47.37878" lon="0.63913">
        <ele>48.8</ele>
        <time>2023-07-18T07:06:41Z</time>
      </trkpt>
      <trkpt lat="47.37879" lon="0.63903">
        <ele>48.8</ele>
        <time>2023-07-18T07:06:42Z</time>
      </trkpt>
      <trkpt lat="47.3788" lon="0.63894">
        <ele>48.8</ele>
        <time>2023-07-18T07:06:43Z</time>
      </trkpt>
      <trkpt lat="47.37881" lon="0.63885">
        <ele>48.8</ele>
        <time>2023-07-18T07:06:44Z</time>
      </trkpt>
      <trkpt lat="47.37882" lon="0.63876">
        <ele>48.8</ele>
        <time>2023-07-18T07:06:45Z</time>
      </trkpt>
      <trkpt lat="47.37884" lon="0.63867">
        <ele>48.8</ele>
        <time>2023-07-18T07:06:46Z</time>
      </trkpt>
      <trkpt lat="47.37885" lon="0.63859">
        <ele>48.8</ele>
        <time>2023-07-18T07:06:47Z</time>
      </trkpt>
      <trkpt lat="47.37887" lon="0.63849">
        <ele>48.8</ele>
        <time>2023-07-18T07:06:48Z</time>
      </trkpt>
      <trkpt lat="47.37888" lon="0.63841">
        <ele>48.8</ele>
        <time>2023-07-18T07:06:49Z</time>
      </trkpt>
      <trkpt lat="47.3789" lon="0.63832">
        <ele>49</ele>
        <time>2023-07-18T07:06:50Z</time>
      </trkpt>
      <trkpt lat="47.37892" lon="0.63823">
        <ele>49</ele>
        <time>2023-07-18T07:06:51Z</time>
      </trkpt>
      <trkpt lat="47.37894" lon="0.63814">
        <ele>49</ele>
        <time>2023-07-18T07:06:52Z</time>
      </trkpt>
      <trkpt lat="47.37896" lon="0.63805">
        <ele>49</ele>
        <time>2023-07-18T07:06:53Z</time>
      </trkpt>
      <trkpt lat="47.37898" lon="0.63797">
        <ele>49</ele>
        <time>2023-07-18T07:06:54Z</time>
      </trkpt>
      <trkpt lat="47.37901" lon="0.63789">
        <ele>49</ele>
        <time>2023-07-18T07:06:55Z</time>
      </trkpt>
      <trkpt lat="47.37903" lon="0.6378">
        <ele>48.8</ele>
        <time>2023-07-18T07:06:56Z</time>
      </trkpt>
      <trkpt lat="47.37905" lon="0.63772">
        <ele>48.8</ele>
        <time>2023-07-18T07:06:57Z</time>
      </trkpt>
      <trkpt lat="47.37906" lon="0.63763">
        <ele>48.8</ele>
        <time>2023-07-18T07:06:58Z</time>
      </trkpt>
      <trkpt lat="47.37907" lon="0.63754">
        <ele>48.8</ele>
        <time>2023-07-18T07:06:59Z</time>
      </trkpt>
      <trkpt lat="47.37908" lon="0.63746">
        <ele>48.6</ele>
        <time>2023-07-18T07:07:00Z</time>
      </trkpt>
      <trkpt lat="47.37909" lon="0.6374">
        <ele>48.4</ele>
        <time>2023-07-18T07:07:01Z</time>
      </trkpt>
      <trkpt lat="47.37912" lon="0.63734">
        <ele>48.4</ele>
        <time>2023-07-18T07:07:02Z</time>
      </trkpt>
      <trkpt lat="47.37914" lon="0.63731">
        <ele>48.2</ele>
        <time>2023-07-18T07:07:03Z</time>
      </trkpt>
      <trkpt lat="47.37916" lon="0.63727">
        <ele>48.2</ele>
        <time>2023-07-18T07:07:04Z</time>
      </trkpt>
      <trkpt lat="47.37918" lon="0.63723">
        <ele>48.2</ele>
        <time>2023-07-18T07:07:05Z</time>
      </trkpt>
      <trkpt lat="47.37918" lon="0.63717">
        <ele>48</ele>
        <time>2023-07-18T07:07:06Z</time>
      </trkpt>
      <trkpt lat="47.37918" lon="0.63711">
        <ele>48.2</ele>
        <time>2023-07-18T07:07:07Z</time>
      </trkpt>
      <trkpt lat="47.37917" lon="0.63703">
        <ele>48.2</ele>
        <time>2023-07-18T07:07:08Z</time>
      </trkpt>
      <trkpt lat="47.37916" lon="0.63695">
        <ele>48.4</ele>
        <time>2023-07-18T07:07:09Z</time>
      </trkpt>
      <trkpt lat="47.37915" lon="0.63687">
        <ele>48.4</ele>
        <time>2023-07-18T07:07:10Z</time>
      </trkpt>
      <trkpt lat="47.37915" lon="0.63678">
        <ele>48.4</ele>
        <time>2023-07-18T07:07:11Z</time>
      </trkpt>
      <trkpt lat="47.37914" lon="0.6367">
        <ele>48.4</ele>
        <time>2023-07-18T07:07:12Z</time>
      </trkpt>
      <trkpt lat="47.37912" lon="0.63661">
        <ele>48.6</ele>
        <time>2023-07-18T07:07:13Z</time>
      </trkpt>
      <trkpt lat="47.37911" lon="0.63652">
        <ele>48.8</ele>
        <time>2023-07-18T07:07:14Z</time>
      </trkpt>
      <trkpt lat="47.3791" lon="0.63643">
        <ele>48.8</ele>
        <time>2023-07-18T07:07:15Z</time>
      </trkpt>
      <trkpt lat="47.37909" lon="0.63634">
        <ele>48.8</ele>
        <time>2023-07-18T07:07:16Z</time>
      </trkpt>
      <trkpt lat="47.37908" lon="0.63624">
        <ele>48.8</ele>
        <time>2023-07-18T07:07:17Z</time>
      </trkpt>
      <trkpt lat="47.37907" lon="0.63615">
        <ele>48.8</ele>
        <time>2023-07-18T07:07:18Z</time>
      </trkpt>
      <trkpt lat="47.37906" lon="0.63606">
        <ele>48.8</ele>
        <time>2023-07-18T07:07:19Z</time>
      </trkpt>
      <trkpt lat="47.37905" lon="0.63596">
        <ele>49</ele>
        <time>2023-07-18T07:07:20Z</time>
      </trkpt>
      <trkpt lat="47.37904" lon="0.63586">
        <ele>49</ele>
        <time>2023-07-18T07:07:21Z</time>
      </trkpt>
      <trkpt lat="47.37903" lon="0.63576">
        <ele>49</ele>
        <time>2023-07-18T07:07:22Z</time>
      </trkpt>
      <trkpt lat="47.37901" lon="0.63566">
        <ele>49</ele>
        <time>2023-07-18T07:07:23Z</time>
      </trkpt>
      <trkpt lat="47.379" lon="0.63557">
        <ele>49</ele>
        <time>2023-07-18T07:07:24Z</time>
      </trkpt>
      <trkpt lat="47.37899" lon="0.63547">
        <ele>49.2</ele>
        <time>2023-07-18T07:07:25Z</time>
      </trkpt>
      <trkpt lat="47.37898" lon="0.63538">
        <ele>49.2</ele>
        <time>2023-07-18T07:07:26Z</time>
      </trkpt>
      <trkpt lat="47.37897" lon="0.63528">
        <ele>49.2</ele>
        <time>2023-07-18T07:07:27Z</time>
      </trkpt>
      <trkpt lat="47.37896" lon="0.63519">
        <ele>49</ele>
        <time>2023-07-18T07:07:28Z</time>
      </trkpt>
      <trkpt lat="47.37895" lon="0.63509">
        <ele>49.2</ele>
        <time>2023-07-18T07:07:29Z</time>
      </trkpt>
      <trkpt lat="47.37894" lon="0.63499">
        <ele>49.2</ele>
        <time>2023-07-18T07:07:30Z</time>
      </trkpt>
      <trkpt lat="47.37893" lon="0.6349">
        <ele>49.2</ele>
        <time>2023-07-18T07:07:31Z</time>
      </trkpt>
      <trkpt lat="47.37891" lon="0.6348">
        <ele>49.2</ele>
        <time>2023-07-18T07:07:32Z</time>
      </trkpt>
      <trkpt lat="47.3789" lon="0.6347">
        <ele>49.4</ele>
        <time>2023-07-18T07:07:33Z</time>
      </trkpt>
      <trkpt lat="47.37889" lon="0.6346">
        <ele>49.6</ele>
        <time>2023-07-18T07:07:34Z</time>
      </trkpt>
      <trkpt lat="47.37888" lon="0.6345">
        <ele>49.6</ele>
        <time>2023-07-18T07:07:35Z</time>
      </trkpt>
      <trkpt lat="47.37887" lon="0.6344">
        <ele>49.6</ele>
        <time>2023-07-18T07:07:36Z</time>
      </trkpt>
      <trkpt lat="47.37886" lon="0.6343">
        <ele>49.6</ele>
        <time>2023-07-18T07:07:37Z</time>
      </trkpt>
      <trkpt lat="47.37885" lon="0.63421">
        <ele>49.6</ele>
        <time>2023-07-18T07:07:38Z</time>
      </trkpt>
      <trkpt lat="47.37883" lon="0.63411">
        <ele>49.6</ele>
        <time>2023-07-18T07:07:39Z</time>
      </trkpt>
      <trkpt lat="47.37882" lon="0.63401">
        <ele>49.6</ele>
        <time>2023-07-18T07:07:40Z</time>
      </trkpt>
      <trkpt lat="47.37881" lon="0.63391">
        <ele>49.4</ele>
        <time>2023-07-18T07:07:41Z</time>
      </trkpt>
      <trkpt lat="47.3788" lon="0.63381">
        <ele>49.4</ele>
        <time>2023-07-18T07:07:42Z</time>
      </trkpt>
      <trkpt lat="47.37878" lon="0.63371">
        <ele>49.4</ele>
        <time>2023-07-18T07:07:43Z</time>
      </trkpt>
      <trkpt lat="47.37877" lon="0.63361">
        <ele>49.4</ele>
        <time>2023-07-18T07:07:44Z</time>
      </trkpt>
      <trkpt lat="47.37876" lon="0.63352">
        <ele>49.4</ele>
        <time>2023-07-18T07:07:45Z</time>
      </trkpt>
      <trkpt lat="47.37875" lon="0.63342">
        <ele>49.4</ele>
        <time>2023-07-18T07:07:46Z</time>
      </trkpt>
      <trkpt lat="47.37874" lon="0.63332">
        <ele>49.4</ele>
        <time>2023-07-18T07:07:47Z</time>
      </trkpt>
      <trkpt lat="47.37872" lon="0.63322">
        <ele>49.4</ele>
        <time>2023-07-18T07:07:48Z</time>
      </trkpt>
      <trkpt lat="47.37871" lon="0.63311">
        <ele>49.4</ele>
        <time>2023-07-18T07:07:49Z</time>
      </trkpt>
      <trkpt lat="47.3787" lon="0.63301">
        <ele>49.4</ele>
        <time>2023-07-18T07:07:50Z</time>
      </trkpt>
      <trkpt lat="47.37869" lon="0.63291">
        <ele>49.4</ele>
        <time>2023-07-18T07:07:51Z</time>
      </trkpt>
      <trkpt lat="47.37867" lon="0.63281">
        <ele>49.4</ele>
        <time>2023-07-18T07:07:52Z</time>
      </trkpt>
      <trkpt lat="47.37866" lon="0.63271">
        <ele>49.4</ele>
        <time>2023-07-18T07:07:53Z</time>
      </trkpt>
      <trkpt lat="47.37865" lon="0.63262">
        <ele>49.4</ele>
        <time>2023-07-18T07:07:54Z</time>
      </trkpt>
      <trkpt lat="47.37863" lon="0.63252">
        <ele>49.4</ele>
        <time>2023-07-18T07:07:55Z</time>
      </trkpt>
      <trkpt lat="47.37862" lon="0.63242">
        <ele>49.4</ele>
        <time>2023-07-18T07:07:56Z</time>
      </trkpt>
      <trkpt lat="47.37861" lon="0.63232">
        <ele>49.4</ele>
        <time>2023-07-18T07:07:57Z</time>
      </trkpt>
      <trkpt lat="47.3786" lon="0.63222">
        <ele>49.6</ele>
        <time>2023-07-18T07:07:58Z</time>
      </trkpt>
      <trkpt lat="47.3786" lon="0.63212">
        <ele>49.6</ele>
        <time>2023-07-18T07:07:59Z</time>
      </trkpt>
      <trkpt lat="47.3786" lon="0.63202">
        <ele>49.6</ele>
        <time>2023-07-18T07:08:00Z</time>
      </trkpt>
      <trkpt lat="47.3786" lon="0.63192">
        <ele>49.6</ele>
        <time>2023-07-18T07:08:01Z</time>
      </trkpt>
      <trkpt lat="47.37861" lon="0.63182">
        <ele>49.6</ele>
        <time>2023-07-18T07:08:02Z</time>
      </trkpt>
      <trkpt lat="47.37862" lon="0.63172">
        <ele>49.6</ele>
        <time>2023-07-18T07:08:03Z</time>
      </trkpt>
      <trkpt lat="47.37864" lon="0.63162">
        <ele>49.6</ele>
        <time>2023-07-18T07:08:04Z</time>
      </trkpt>
      <trkpt lat="47.37865" lon="0.63152">
        <ele>49.6</ele>
        <time>2023-07-18T07:08:05Z</time>
      </trkpt>
      <trkpt lat="47.37867" lon="0.63142">
        <ele>49.4</ele>
        <time>2023-07-18T07:08:06Z</time>
      </trkpt>
      <trkpt lat="47.37869" lon="0.63132">
        <ele>49.4</ele>
        <time>2023-07-18T07:08:07Z</time>
      </trkpt>
      <trkpt lat="47.3787" lon="0.63123">
        <ele>49.2</ele>
        <time>2023-07-18T07:08:08Z</time>
      </trkpt>
      <trkpt lat="47.37872" lon="0.63113">
        <ele>49.2</ele>
        <time>2023-07-18T07:08:09Z</time>
      </trkpt>
      <trkpt lat="47.37874" lon="0.63102">
        <ele>49</ele>
        <time>2023-07-18T07:08:10Z</time>
      </trkpt>
      <trkpt lat="47.37875" lon="0.63092">
        <ele>49</ele>
        <time>2023-07-18T07:08:11Z</time>
      </trkpt>
      <trkpt lat="47.37877" lon="0.63081">
        <ele>49</ele>
        <time>2023-07-18T07:08:12Z</time>
      </trkpt>
      <trkpt lat="47.37878" lon="0.63071">
        <ele>48.8</ele>
        <time>2023-07-18T07:08:13Z</time>
      </trkpt>
      <trkpt lat="47.3788" lon="0.63061">
        <ele>48.8</ele>
        <time>2023-07-18T07:08:14Z</time>
      </trkpt>
      <trkpt lat="47.37881" lon="0.63051">
        <ele>48.8</ele>
        <time>2023-07-18T07:08:15Z</time>
      </trkpt>
      <trkpt lat="47.37883" lon="0.63041">
        <ele>49</ele>
        <time>2023-07-18T07:08:16Z</time>
      </trkpt>
      <trkpt lat="47.37885" lon="0.6303">
        <ele>49</ele>
        <time>2023-07-18T07:08:17Z</time>
      </trkpt>
      <trkpt lat="47.37886" lon="0.6302">
        <ele>49.2</ele>
        <time>2023-07-18T07:08:18Z</time>
      </trkpt>
      <trkpt lat="47.37888" lon="0.6301">
        <ele>49.2</ele>
        <time>2023-07-18T07:08:19Z</time>
      </trkpt>
      <trkpt lat="47.37889" lon="0.62999">
        <ele>49.2</ele>
        <time>2023-07-18T07:08:20Z</time>
      </trkpt>
      <trkpt lat="47.37891" lon="0.62988">
        <ele>49.2</ele>
        <time>2023-07-18T07:08:21Z</time>
      </trkpt>
      <trkpt lat="47.37891" lon="0.62977">
        <ele>49.2</ele>
        <time>2023-07-18T07:08:22Z</time>
      </trkpt>
      <trkpt lat="47.37892" lon="0.62967">
        <ele>49.2</ele>
        <time>2023-07-18T07:08:23Z</time>
      </trkpt>
      <trkpt lat="47.37892" lon="0.62956">
        <ele>49.2</ele>
        <time>2023-07-18T07:08:24Z</time>
      </trkpt>
      <trkpt lat="47.37891" lon="0.62945">
        <ele>49.2</ele>
        <time>2023-07-18T07:08:25Z</time>
      </trkpt>
      <trkpt lat="47.3789" lon="0.62934">
        <ele>49.2</ele>
        <time>2023-07-18T07:08:26Z</time>
      </trkpt>
      <trkpt lat="47.37889" lon="0.62923">
        <ele>49.2</ele>
        <time>2023-07-18T07:08:27Z</time>
      </trkpt>
      <trkpt lat="47.37889" lon="0.62913">
        <ele>49.2</ele>
        <time>2023-07-18T07:08:28Z</time>
      </trkpt>
      <trkpt lat="47.37888" lon="0.62902">
        <ele>49</ele>
        <time>2023-07-18T07:08:29Z</time>
      </trkpt>
      <trkpt lat="47.37887" lon="0.62891">
        <ele>49</ele>
        <time>2023-07-18T07:08:30Z</time>
      </trkpt>
      <trkpt lat="47.37886" lon="0.62881">
        <ele>49</ele>
        <time>2023-07-18T07:08:31Z</time>
      </trkpt>
      <trkpt lat="47.37885" lon="0.6287">
        <ele>49</ele>
        <time>2023-07-18T07:08:32Z</time>
      </trkpt>
      <trkpt lat="47.37884" lon="0.62859">
        <ele>49.2</ele>
        <time>2023-07-18T07:08:33Z</time>
      </trkpt>
      <trkpt lat="47.37883" lon="0.62849">
        <ele>49.4</ele>
        <time>2023-07-18T07:08:34Z</time>
      </trkpt>
      <trkpt lat="47.37881" lon="0.62837">
        <ele>49.4</ele>
        <time>2023-07-18T07:08:35Z</time>
      </trkpt>
      <trkpt lat="47.3788" lon="0.62827">
        <ele>49.6</ele>
        <time>2023-07-18T07:08:36Z</time>
      </trkpt>
      <trkpt lat="47.37879" lon="0.62816">
        <ele>49.6</ele>
        <time>2023-07-18T07:08:37Z</time>
      </trkpt>
      <trkpt lat="47.37878" lon="0.62805">
        <ele>49.8</ele>
        <time>2023-07-18T07:08:38Z</time>
      </trkpt>
      <trkpt lat="47.37878" lon="0.62794">
        <ele>49.8</ele>
        <time>2023-07-18T07:08:39Z</time>
      </trkpt>
      <trkpt lat="47.37877" lon="0.62783">
        <ele>49.8</ele>
        <time>2023-07-18T07:08:40Z</time>
      </trkpt>
      <trkpt lat="47.37877" lon="0.62773">
        <ele>49.8</ele>
        <time>2023-07-18T07:08:41Z</time>
      </trkpt>
      <trkpt lat="47.37877" lon="0.62761">
        <ele>50</ele>
        <time>2023-07-18T07:08:42Z</time>
      </trkpt>
      <trkpt lat="47.37877" lon="0.62751">
        <ele>50</ele>
        <time>2023-07-18T07:08:43Z</time>
      </trkpt>
      <trkpt lat="47.37877" lon="0.62741">
        <ele>50</ele>
        <time>2023-07-18T07:08:44Z</time>
      </trkpt>
      <trkpt lat="47.37878" lon="0.62731">
        <ele>50</ele>
        <time>2023-07-18T07:08:45Z</time>
      </trkpt>
      <trkpt lat="47.37878" lon="0.6272">
        <ele>50</ele>
        <time>2023-07-18T07:08:46Z</time>
      </trkpt>
      <trkpt lat="47.37878" lon="0.62709">
        <ele>50.2</ele>
        <time>2023-07-18T07:08:47Z</time>
      </trkpt>
      <trkpt lat="47.37878" lon="0.62699">
        <ele>50.2</ele>
        <time>2023-07-18T07:08:48Z</time>
      </trkpt>
      <trkpt lat="47.37878" lon="0.62689">
        <ele>50.2</ele>
        <time>2023-07-18T07:08:49Z</time>
      </trkpt>
      <trkpt lat="47.37878" lon="0.62679">
        <ele>50.2</ele>
        <time>2023-07-18T07:08:50Z</time>
      </trkpt>
      <trkpt lat="47.37878" lon="0.62669">
        <ele>50.2</ele>
        <time>2023-07-18T07:08:51Z</time>
      </trkpt>
      <trkpt lat="47.37878" lon="0.62657">
        <ele>50.2</ele>
        <time>2023-07-18T07:08:52Z</time>
      </trkpt>
      <trkpt lat="47.37879" lon="0.62647">
        <ele>50.2</ele>
        <time>2023-07-18T07:08:53Z</time>
      </trkpt>
      <trkpt lat="47.37879" lon="0.62638">
        <ele>50.2</ele>
        <time>2023-07-18T07:08:54Z</time>
      </trkpt>
      <trkpt lat="47.37879" lon="0.62627">
        <ele>50</ele>
        <time>2023-07-18T07:08:55Z</time>
      </trkpt>
      <trkpt lat="47.3788" lon="0.62617">
        <ele>50</ele>
        <time>2023-07-18T07:08:56Z</time>
      </trkpt>
      <trkpt lat="47.3788" lon="0.62606">
        <ele>50</ele>
        <time>2023-07-18T07:08:57Z</time>
      </trkpt>
      <trkpt lat="47.3788" lon="0.62597">
        <ele>50</ele>
        <time>2023-07-18T07:08:58Z</time>
      </trkpt>
      <trkpt lat="47.3788" lon="0.62586">
        <ele>50</ele>
        <time>2023-07-18T07:08:59Z</time>
      </trkpt>
      <trkpt lat="47.3788" lon="0.62577">
        <ele>50</ele>
        <time>2023-07-18T07:09:00Z</time>
      </trkpt>
      <trkpt lat="47.3788" lon="0.62567">
        <ele>50.2</ele>
        <time>2023-07-18T07:09:01Z</time>
      </trkpt>
      <trkpt lat="47.3788" lon="0.62556">
        <ele>50.2</ele>
        <time>2023-07-18T07:09:02Z</time>
      </trkpt>
      <trkpt lat="47.3788" lon="0.62546">
        <ele>50.2</ele>
        <time>2023-07-18T07:09:03Z</time>
      </trkpt>
      <trkpt lat="47.3788" lon="0.62537">
        <ele>50.2</ele>
        <time>2023-07-18T07:09:04Z</time>
      </trkpt>
      <trkpt lat="47.3788" lon="0.62527">
        <ele>50.2</ele>
        <time>2023-07-18T07:09:05Z</time>
      </trkpt>
      <trkpt lat="47.37881" lon="0.62518">
        <ele>50.2</ele>
        <time>2023-07-18T07:09:06Z</time>
      </trkpt>
      <trkpt lat="47.37881" lon="0.62509">
        <ele>50</ele>
        <time>2023-07-18T07:09:07Z</time>
      </trkpt>
      <trkpt lat="47.37881" lon="0.625">
        <ele>50</ele>
        <time>2023-07-18T07:09:08Z</time>
      </trkpt>
      <trkpt lat="47.3788" lon="0.6249">
        <ele>50</ele>
        <time>2023-07-18T07:09:09Z</time>
      </trkpt>
      <trkpt lat="47.3788" lon="0.62481">
        <ele>49.8</ele>
        <time>2023-07-18T07:09:10Z</time>
      </trkpt>
      <trkpt lat="47.3788" lon="0.62472">
        <ele>49.8</ele>
        <time>2023-07-18T07:09:11Z</time>
      </trkpt>
      <trkpt lat="47.3788" lon="0.62463">
        <ele>49.6</ele>
        <time>2023-07-18T07:09:12Z</time>
      </trkpt>
      <trkpt lat="47.3788" lon="0.62453">
        <ele>49.8</ele>
        <time>2023-07-18T07:09:13Z</time>
      </trkpt>
      <trkpt lat="47.3788" lon="0.62443">
        <ele>50</ele>
        <time>2023-07-18T07:09:14Z</time>
      </trkpt>
      <trkpt lat="47.3788" lon="0.62433">
        <ele>50.2</ele>
        <time>2023-07-18T07:09:15Z</time>
      </trkpt>
      <trkpt lat="47.37879" lon="0.62423">
        <ele>50</ele>
        <time>2023-07-18T07:09:16Z</time>
      </trkpt>
      <trkpt lat="47.37879" lon="0.62413">
        <ele>49.8</ele>
        <time>2023-07-18T07:09:17Z</time>
      </trkpt>
      <trkpt lat="47.37878" lon="0.62403">
        <ele>49.6</ele>
        <time>2023-07-18T07:09:18Z</time>
      </trkpt>
      <trkpt lat="47.37878" lon="0.62393">
        <ele>49.6</ele>
        <time>2023-07-18T07:09:19Z</time>
      </trkpt>
      <trkpt lat="47.37878" lon="0.62383">
        <ele>49.4</ele>
        <time>2023-07-18T07:09:20Z</time>
      </trkpt>
      <trkpt lat="47.37878" lon="0.62373">
        <ele>49.4</ele>
        <time>2023-07-18T07:09:21Z</time>
      </trkpt>
      <trkpt lat="47.37878" lon="0.62363">
        <ele>49.4</ele>
        <time>2023-07-18T07:09:22Z</time>
      </trkpt>
      <trkpt lat="47.37878" lon="0.62353">
        <ele>49.4</ele>
        <time>2023-07-18T07:09:23Z</time>
      </trkpt>
      <trkpt lat="47.37879" lon="0.62343">
        <ele>49.4</ele>
        <time>2023-07-18T07:09:24Z</time>
      </trkpt>
      <trkpt lat="47.3788" lon="0.62332">
        <ele>49.4</ele>
        <time>2023-07-18T07:09:25Z</time>
      </trkpt>
      <trkpt lat="47.37883" lon="0.62323">
        <ele>49.6</ele>
        <time>2023-07-18T07:09:26Z</time>
      </trkpt>
      <trkpt lat="47.37885" lon="0.62314">
        <ele>49.8</ele>
        <time>2023-07-18T07:09:27Z</time>
      </trkpt>
      <trkpt lat="47.37888" lon="0.62305">
        <ele>49.8</ele>
        <time>2023-07-18T07:09:28Z</time>
      </trkpt>
      <trkpt lat="47.37891" lon="0.62296">
        <ele>49.8</ele>
        <time>2023-07-18T07:09:29Z</time>
      </trkpt>
      <trkpt lat="47.37894" lon="0.62288">
        <ele>50</ele>
        <time>2023-07-18T07:09:30Z</time>
      </trkpt>
      <trkpt lat="47.37897" lon="0.62279">
        <ele>50</ele>
        <time>2023-07-18T07:09:31Z</time>
      </trkpt>
      <trkpt lat="47.379" lon="0.6227">
        <ele>50</ele>
        <time>2023-07-18T07:09:32Z</time>
      </trkpt>
      <trkpt lat="47.37902" lon="0.62262">
        <ele>49.8</ele>
        <time>2023-07-18T07:09:33Z</time>
      </trkpt>
      <trkpt lat="47.37904" lon="0.62253">
        <ele>49.8</ele>
        <time>2023-07-18T07:09:34Z</time>
      </trkpt>
      <trkpt lat="47.37905" lon="0.62243">
        <ele>49.8</ele>
        <time>2023-07-18T07:09:35Z</time>
      </trkpt>
      <trkpt lat="47.37905" lon="0.62234">
        <ele>50</ele>
        <time>2023-07-18T07:09:36Z</time>
      </trkpt>
      <trkpt lat="47.37904" lon="0.62226">
        <ele>50</ele>
        <time>2023-07-18T07:09:37Z</time>
      </trkpt>
      <trkpt lat="47.37902" lon="0.62216">
        <ele>50</ele>
        <time>2023-07-18T07:09:38Z</time>
      </trkpt>
      <trkpt lat="47.379" lon="0.62208">
        <ele>50.2</ele>
        <time>2023-07-18T07:09:39Z</time>
      </trkpt>
      <trkpt lat="47.37898" lon="0.62198">
        <ele>50.2</ele>
        <time>2023-07-18T07:09:40Z</time>
      </trkpt>
      <trkpt lat="47.37896" lon="0.62189">
        <ele>50.2</ele>
        <time>2023-07-18T07:09:41Z</time>
      </trkpt>
      <trkpt lat="47.37894" lon="0.6218">
        <ele>50.2</ele>
        <time>2023-07-18T07:09:42Z</time>
      </trkpt>
      <trkpt lat="47.37892" lon="0.62171">
        <ele>50.2</ele>
        <time>2023-07-18T07:09:43Z</time>
      </trkpt>
      <trkpt lat="47.37891" lon="0.62162">
        <ele>50.2</ele>
        <time>2023-07-18T07:09:44Z</time>
      </trkpt>
      <trkpt lat="47.37889" lon="0.62153">
        <ele>50.2</ele>
        <time>2023-07-18T07:09:45Z</time>
      </trkpt>
      <trkpt lat="47.37887" lon="0.62144">
        <ele>50.2</ele>
        <time>2023-07-18T07:09:46Z</time>
      </trkpt>
      <trkpt lat="47.37885" lon="0.62135">
        <ele>50</ele>
        <time>2023-07-18T07:09:47Z</time>
      </trkpt>
      <trkpt lat="47.37883" lon="0.62127">
        <ele>50</ele>
        <time>2023-07-18T07:09:48Z</time>
      </trkpt>
      <trkpt lat="47.37881" lon="0.62118">
        <ele>50</ele>
        <time>2023-07-18T07:09:49Z</time>
      </trkpt>
      <trkpt lat="47.3788" lon="0.62109">
        <ele>50</ele>
        <time>2023-07-18T07:09:50Z</time>
      </trkpt>
      <trkpt lat="47.3788" lon="0.62101">
        <ele>50</ele>
        <time>2023-07-18T07:09:51Z</time>
      </trkpt>
      <trkpt lat="47.37881" lon="0.62093">
        <ele>50</ele>
        <time>2023-07-18T07:09:52Z</time>
      </trkpt>
      <trkpt lat="47.37885" lon="0.62085">
        <ele>50</ele>
        <time>2023-07-18T07:09:53Z</time>
      </trkpt>
      <trkpt lat="47.37889" lon="0.62078">
        <ele>50</ele>
        <time>2023-07-18T07:09:54Z</time>
      </trkpt>
      <trkpt lat="47.37894" lon="0.62073">
        <ele>50.2</ele>
        <time>2023-07-18T07:09:55Z</time>
      </trkpt>
      <trkpt lat="47.379" lon="0.62069">
        <ele>50.2</ele>
        <time>2023-07-18T07:09:56Z</time>
      </trkpt>
      <trkpt lat="47.37906" lon="0.62066">
        <ele>50.4</ele>
        <time>2023-07-18T07:09:57Z</time>
      </trkpt>
      <trkpt lat="47.37913" lon="0.62063">
        <ele>50.4</ele>
        <time>2023-07-18T07:09:58Z</time>
      </trkpt>
      <trkpt lat="47.37919" lon="0.62059">
        <ele>50.6</ele>
        <time>2023-07-18T07:09:59Z</time>
      </trkpt>
      <trkpt lat="47.37925" lon="0.62056">
        <ele>50.6</ele>
        <time>2023-07-18T07:10:00Z</time>
      </trkpt>
      <trkpt lat="47.37931" lon="0.62053">
        <ele>50.6</ele>
        <time>2023-07-18T07:10:01Z</time>
      </trkpt>
      <trkpt lat="47.37938" lon="0.6205">
        <ele>50.8</ele>
        <time>2023-07-18T07:10:02Z</time>
      </trkpt>
      <trkpt lat="47.37944" lon="0.62046">
        <ele>50.8</ele>
        <time>2023-07-18T07:10:03Z</time>
      </trkpt>
      <trkpt lat="47.3795" lon="0.62043">
        <ele>50.8</ele>
        <time>2023-07-18T07:10:04Z</time>
      </trkpt>
      <trkpt lat="47.37956" lon="0.6204">
        <ele>50.6</ele>
        <time>2023-07-18T07:10:05Z</time>
      </trkpt>
      <trkpt lat="47.37962" lon="0.62037">
        <ele>50.4</ele>
        <time>2023-07-18T07:10:06Z</time>
      </trkpt>
      <trkpt lat="47.37968" lon="0.62034">
        <ele>50.4</ele>
        <time>2023-07-18T07:10:07Z</time>
      </trkpt>
      <trkpt lat="47.37974" lon="0.62032">
        <ele>50.2</ele>
        <time>2023-07-18T07:10:08Z</time>
      </trkpt>
      <trkpt lat="47.3798" lon="0.62029">
        <ele>50.4</ele>
        <time>2023-07-18T07:10:09Z</time>
      </trkpt>
      <trkpt lat="47.37986" lon="0.62027">
        <ele>50.4</ele>
        <time>2023-07-18T07:10:10Z</time>
      </trkpt>
      <trkpt lat="47.37992" lon="0.62025">
        <ele>50.4</ele>
        <time>2023-07-18T07:10:11Z</time>
      </trkpt>
      <trkpt lat="47.37998" lon="0.62023">
        <ele>50.4</ele>
        <time>2023-07-18T07:10:12Z</time>
      </trkpt>
      <trkpt lat="47.38003" lon="0.62019">
        <ele>50.4</ele>
        <time>2023-07-18T07:10:13Z</time>
      </trkpt>
      <trkpt lat="47.38007" lon="0.62014">
        <ele>50.2</ele>
        <time>2023-07-18T07:10:14Z</time>
      </trkpt>
      <trkpt lat="47.3801" lon="0.62006">
        <ele>50.2</ele>
        <time>2023-07-18T07:10:15Z</time>
      </trkpt>
      <trkpt lat="47.38011" lon="0.61998">
        <ele>50.2</ele>
        <time>2023-07-18T07:10:16Z</time>
      </trkpt>
      <trkpt lat="47.3801" lon="0.61989">
        <ele>50.2</ele>
        <time>2023-07-18T07:10:17Z</time>
      </trkpt>
      <trkpt lat="47.38008" lon="0.6198">
        <ele>50.4</ele>
        <time>2023-07-18T07:10:18Z</time>
      </trkpt>
      <trkpt lat="47.38007" lon="0.61971">
        <ele>50.4</ele>
        <time>2023-07-18T07:10:19Z</time>
      </trkpt>
      <trkpt lat="47.38005" lon="0.61962">
        <ele>50.4</ele>
        <time>2023-07-18T07:10:20Z</time>
      </trkpt>
      <trkpt lat="47.38003" lon="0.61952">
        <ele>50.6</ele>
        <time>2023-07-18T07:10:21Z</time>
      </trkpt>
      <trkpt lat="47.38001" lon="0.61943">
        <ele>50.6</ele>
        <time>2023-07-18T07:10:22Z</time>
      </trkpt>
      <trkpt lat="47.37999" lon="0.61934">
        <ele>50.8</ele>
        <time>2023-07-18T07:10:23Z</time>
      </trkpt>
      <trkpt lat="47.37997" lon="0.61925">
        <ele>50.8</ele>
        <time>2023-07-18T07:10:24Z</time>
      </trkpt>
      <trkpt lat="47.37995" lon="0.61915">
        <ele>51</ele>
        <time>2023-07-18T07:10:25Z</time>
      </trkpt>
      <trkpt lat="47.37993" lon="0.61906">
        <ele>51</ele>
        <time>2023-07-18T07:10:26Z</time>
      </trkpt>
      <trkpt lat="47.37992" lon="0.61897">
        <ele>51.2</ele>
        <time>2023-07-18T07:10:27Z</time>
      </trkpt>
      <trkpt lat="47.3799" lon="0.61887">
        <ele>51.2</ele>
        <time>2023-07-18T07:10:28Z</time>
      </trkpt>
      <trkpt lat="47.37989" lon="0.61876">
        <ele>51.2</ele>
        <time>2023-07-18T07:10:29Z</time>
      </trkpt>
      <trkpt lat="47.37986" lon="0.61867">
        <ele>51.2</ele>
        <time>2023-07-18T07:10:30Z</time>
      </trkpt>
      <trkpt lat="47.37984" lon="0.61856">
        <ele>51.2</ele>
        <time>2023-07-18T07:10:31Z</time>
      </trkpt>
      <trkpt lat="47.37981" lon="0.61847">
        <ele>51.2</ele>
        <time>2023-07-18T07:10:32Z</time>
      </trkpt>
      <trkpt lat="47.37979" lon="0.61838">
        <ele>51.2</ele>
        <time>2023-07-18T07:10:33Z</time>
      </trkpt>
      <trkpt lat="47.37977" lon="0.61829">
        <ele>51.2</ele>
        <time>2023-07-18T07:10:34Z</time>
      </trkpt>
      <trkpt lat="47.37975" lon="0.6182">
        <ele>51.2</ele>
        <time>2023-07-18T07:10:35Z</time>
      </trkpt>
      <trkpt lat="47.37973" lon="0.6181">
        <ele>51.2</ele>
        <time>2023-07-18T07:10:36Z</time>
      </trkpt>
      <trkpt lat="47.3797" lon="0.61801">
        <ele>51.4</ele>
        <time>2023-07-18T07:10:37Z</time>
      </trkpt>
      <trkpt lat="47.37968" lon="0.61792">
        <ele>51.4</ele>
        <time>2023-07-18T07:10:38Z</time>
      </trkpt>
      <trkpt lat="47.37966" lon="0.61783">
        <ele>51.4</ele>
        <time>2023-07-18T07:10:39Z</time>
      </trkpt>
      <trkpt lat="47.37963" lon="0.61774">
        <ele>51.4</ele>
        <time>2023-07-18T07:10:40Z</time>
      </trkpt>
      <trkpt lat="47.3796" lon="0.61765">
        <ele>51.6</ele>
        <time>2023-07-18T07:10:41Z</time>
      </trkpt>
      <trkpt lat="47.37957" lon="0.61756">
        <ele>51.6</ele>
        <time>2023-07-18T07:10:42Z</time>
      </trkpt>
      <trkpt lat="47.37954" lon="0.61747">
        <ele>51.6</ele>
        <time>2023-07-18T07:10:43Z</time>
      </trkpt>
      <trkpt lat="47.37952" lon="0.61738">
        <ele>51.6</ele>
        <time>2023-07-18T07:10:44Z</time>
      </trkpt>
      <trkpt lat="47.37949" lon="0.61729">
        <ele>51.6</ele>
        <time>2023-07-18T07:10:45Z</time>
      </trkpt>
      <trkpt lat="47.37946" lon="0.6172">
        <ele>51.6</ele>
        <time>2023-07-18T07:10:46Z</time>
      </trkpt>
      <trkpt lat="47.37944" lon="0.61711">
        <ele>51.6</ele>
        <time>2023-07-18T07:10:47Z</time>
      </trkpt>
      <trkpt lat="47.37941" lon="0.61702">
        <ele>51.6</ele>
        <time>2023-07-18T07:10:48Z</time>
      </trkpt>
      <trkpt lat="47.37939" lon="0.61693">
        <ele>51.6</ele>
        <time>2023-07-18T07:10:49Z</time>
      </trkpt>
      <trkpt lat="47.37938" lon="0.61684">
        <ele>51.8</ele>
        <time>2023-07-18T07:10:50Z</time>
      </trkpt>
      <trkpt lat="47.37936" lon="0.61675">
        <ele>51.8</ele>
        <time>2023-07-18T07:10:51Z</time>
      </trkpt>
      <trkpt lat="47.37934" lon="0.61666">
        <ele>51.8</ele>
        <time>2023-07-18T07:10:52Z</time>
      </trkpt>
      <trkpt lat="47.37933" lon="0.61656">
        <ele>51.8</ele>
        <time>2023-07-18T07:10:53Z</time>
      </trkpt>
      <trkpt lat="47.37932" lon="0.61648">
        <ele>51.6</ele>
        <time>2023-07-18T07:10:54Z</time>
      </trkpt>
      <trkpt lat="47.37931" lon="0.61639">
        <ele>51.6</ele>
        <time>2023-07-18T07:10:55Z</time>
      </trkpt>
      <trkpt lat="47.37931" lon="0.61631">
        <ele>51.6</ele>
        <time>2023-07-18T07:10:56Z</time>
      </trkpt>
      <trkpt lat="47.3793" lon="0.61622">
        <ele>51.4</ele>
        <time>2023-07-18T07:10:57Z</time>
      </trkpt>
      <trkpt lat="47.37929" lon="0.61613">
        <ele>51.4</ele>
        <time>2023-07-18T07:10:58Z</time>
      </trkpt>
      <trkpt lat="47.37928" lon="0.61604">
        <ele>51.4</ele>
        <time>2023-07-18T07:10:59Z</time>
      </trkpt>
      <trkpt lat="47.37927" lon="0.61594">
        <ele>51.4</ele>
        <time>2023-07-18T07:11:00Z</time>
      </trkpt>
      <trkpt lat="47.37926" lon="0.61585">
        <ele>51.4</ele>
        <time>2023-07-18T07:11:01Z</time>
      </trkpt>
      <trkpt lat="47.37925" lon="0.61574">
        <ele>51.4</ele>
        <time>2023-07-18T07:11:02Z</time>
      </trkpt>
      <trkpt lat="47.37925" lon="0.61564">
        <ele>51.4</ele>
        <time>2023-07-18T07:11:03Z</time>
      </trkpt>
      <trkpt lat="47.37923" lon="0.61554">
        <ele>51.4</ele>
        <time>2023-07-18T07:11:04Z</time>
      </trkpt>
      <trkpt lat="47.37922" lon="0.61544">
        <ele>51.4</ele>
        <time>2023-07-18T07:11:05Z</time>
      </trkpt>
      <trkpt lat="47.3792" lon="0.61534">
        <ele>51.4</ele>
        <time>2023-07-18T07:11:06Z</time>
      </trkpt>
      <trkpt lat="47.37919" lon="0.61525">
        <ele>51.6</ele>
        <time>2023-07-18T07:11:07Z</time>
      </trkpt>
      <trkpt lat="47.37918" lon="0.61515">
        <ele>51.6</ele>
        <time>2023-07-18T07:11:08Z</time>
      </trkpt>
      <trkpt lat="47.37917" lon="0.61505">
        <ele>51.6</ele>
        <time>2023-07-18T07:11:09Z</time>
      </trkpt>
      <trkpt lat="47.37916" lon="0.61495">
        <ele>51.6</ele>
        <time>2023-07-18T07:11:10Z</time>
      </trkpt>
      <trkpt lat="47.37915" lon="0.61485">
        <ele>51.6</ele>
        <time>2023-07-18T07:11:11Z</time>
      </trkpt>
      <trkpt lat="47.37914" lon="0.61475">
        <ele>51.8</ele>
        <time>2023-07-18T07:11:12Z</time>
      </trkpt>
      <trkpt lat="47.37912" lon="0.61464">
        <ele>51.6</ele>
        <time>2023-07-18T07:11:13Z</time>
      </trkpt>
      <trkpt lat="47.37911" lon="0.61454">
        <ele>51.6</ele>
        <time>2023-07-18T07:11:14Z</time>
      </trkpt>
      <trkpt lat="47.37909" lon="0.61444">
        <ele>51.6</ele>
        <time>2023-07-18T07:11:15Z</time>
      </trkpt>
      <trkpt lat="47.37909" lon="0.61434">
        <ele>51.6</ele>
        <time>2023-07-18T07:11:16Z</time>
      </trkpt>
      <trkpt lat="47.37907" lon="0.61423">
        <ele>51.4</ele>
        <time>2023-07-18T07:11:17Z</time>
      </trkpt>
      <trkpt lat="47.37907" lon="0.61413">
        <ele>51.4</ele>
        <time>2023-07-18T07:11:18Z</time>
      </trkpt>
      <trkpt lat="47.37906" lon="0.61403">
        <ele>51.4</ele>
        <time>2023-07-18T07:11:19Z</time>
      </trkpt>
      <trkpt lat="47.37905" lon="0.61392">
        <ele>51.4</ele>
        <time>2023-07-18T07:11:20Z</time>
      </trkpt>
      <trkpt lat="47.37904" lon="0.61382">
        <ele>51.4</ele>
        <time>2023-07-18T07:11:21Z</time>
      </trkpt>
      <trkpt lat="47.37902" lon="0.61373">
        <ele>51.6</ele>
        <time>2023-07-18T07:11:22Z</time>
      </trkpt>
      <trkpt lat="47.379" lon="0.61362">
        <ele>51.6</ele>
        <time>2023-07-18T07:11:23Z</time>
      </trkpt>
      <trkpt lat="47.37898" lon="0.61353">
        <ele>51.6</ele>
        <time>2023-07-18T07:11:24Z</time>
      </trkpt>
      <trkpt lat="47.37896" lon="0.61343">
        <ele>51.6</ele>
        <time>2023-07-18T07:11:25Z</time>
      </trkpt>
      <trkpt lat="47.37894" lon="0.61334">
        <ele>51.6</ele>
        <time>2023-07-18T07:11:26Z</time>
      </trkpt>
      <trkpt lat="47.37891" lon="0.61325">
        <ele>51.6</ele>
        <time>2023-07-18T07:11:27Z</time>
      </trkpt>
      <trkpt lat="47.37889" lon="0.61315">
        <ele>51.6</ele>
        <time>2023-07-18T07:11:28Z</time>
      </trkpt>
      <trkpt lat="47.37886" lon="0.61306">
        <ele>51.6</ele>
        <time>2023-07-18T07:11:29Z</time>
      </trkpt>
      <trkpt lat="47.37884" lon="0.61297">
        <ele>51.6</ele>
        <time>2023-07-18T07:11:30Z</time>
      </trkpt>
      <trkpt lat="47.37881" lon="0.61288">
        <ele>51.6</ele>
        <time>2023-07-18T07:11:31Z</time>
      </trkpt>
      <trkpt lat="47.37878" lon="0.61279">
        <ele>51.8</ele>
        <time>2023-07-18T07:11:32Z</time>
      </trkpt>
      <trkpt lat="47.37876" lon="0.61269">
        <ele>51.8</ele>
        <time>2023-07-18T07:11:33Z</time>
      </trkpt>
      <trkpt lat="47.37873" lon="0.6126">
        <ele>51.8</ele>
        <time>2023-07-18T07:11:34Z</time>
      </trkpt>
      <trkpt lat="47.3787" lon="0.61251">
        <ele>51.8</ele>
        <time>2023-07-18T07:11:35Z</time>
      </trkpt>
      <trkpt lat="47.37867" lon="0.61242">
        <ele>51.8</ele>
        <time>2023-07-18T07:11:36Z</time>
      </trkpt>
      <trkpt lat="47.37865" lon="0.61233">
        <ele>51.8</ele>
        <time>2023-07-18T07:11:37Z</time>
      </trkpt>
      <trkpt lat="47.37862" lon="0.61223">
        <ele>51.8</ele>
        <time>2023-07-18T07:11:38Z</time>
      </trkpt>
      <trkpt lat="47.37859" lon="0.61214">
        <ele>51.8</ele>
        <time>2023-07-18T07:11:39Z</time>
      </trkpt>
      <trkpt lat="47.37857" lon="0.61205">
        <ele>51.8</ele>
        <time>2023-07-18T07:11:40Z</time>
      </trkpt>
      <trkpt lat="47.37854" lon="0.61196">
        <ele>52</ele>
        <time>2023-07-18T07:11:41Z</time>
      </trkpt>
      <trkpt lat="47.37851" lon="0.61186">
        <ele>52</ele>
        <time>2023-07-18T07:11:42Z</time>
      </trkpt>
      <trkpt lat="47.37849" lon="0.61176">
        <ele>52</ele>
        <time>2023-07-18T07:11:43Z</time>
      </trkpt>
      <trkpt lat="47.37846" lon="0.61167">
        <ele>52</ele>
        <time>2023-07-18T07:11:44Z</time>
      </trkpt>
      <trkpt lat="47.37843" lon="0.61157">
        <ele>52.2</ele>
        <time>2023-07-18T07:11:45Z</time>
      </trkpt>
      <trkpt lat="47.37841" lon="0.61148">
        <ele>52.2</ele>
        <time>2023-07-18T07:11:46Z</time>
      </trkpt>
      <trkpt lat="47.37838" lon="0.61139">
        <ele>52.2</ele>
        <time>2023-07-18T07:11:47Z</time>
      </trkpt>
      <trkpt lat="47.37836" lon="0.61129">
        <ele>52.2</ele>
        <time>2023-07-18T07:11:48Z</time>
      </trkpt>
      <trkpt lat="47.37833" lon="0.6112">
        <ele>52</ele>
        <time>2023-07-18T07:11:49Z</time>
      </trkpt>
      <trkpt lat="47.37831" lon="0.61111">
        <ele>52</ele>
        <time>2023-07-18T07:11:50Z</time>
      </trkpt>
      <trkpt lat="47.37828" lon="0.61102">
        <ele>52</ele>
        <time>2023-07-18T07:11:51Z</time>
      </trkpt>
      <trkpt lat="47.37825" lon="0.61093">
        <ele>52</ele>
        <time>2023-07-18T07:11:52Z</time>
      </trkpt>
      <trkpt lat="47.37823" lon="0.61084">
        <ele>52</ele>
        <time>2023-07-18T07:11:53Z</time>
      </trkpt>
      <trkpt lat="47.3782" lon="0.61075">
        <ele>52</ele>
        <time>2023-07-18T07:11:54Z</time>
      </trkpt>
      <trkpt lat="47.37817" lon="0.61067">
        <ele>52</ele>
        <time>2023-07-18T07:11:55Z</time>
      </trkpt>
      <trkpt lat="47.37814" lon="0.61057">
        <ele>52</ele>
        <time>2023-07-18T07:11:56Z</time>
      </trkpt>
      <trkpt lat="47.37811" lon="0.61049">
        <ele>52</ele>
        <time>2023-07-18T07:11:57Z</time>
      </trkpt>
      <trkpt lat="47.37808" lon="0.61041">
        <ele>52</ele>
        <time>2023-07-18T07:11:58Z</time>
      </trkpt>
      <trkpt lat="47.37805" lon="0.61033">
        <ele>52</ele>
        <time>2023-07-18T07:11:59Z</time>
      </trkpt>
      <trkpt lat="47.37803" lon="0.61024">
        <ele>52</ele>
        <time>2023-07-18T07:12:00Z</time>
      </trkpt>
      <trkpt lat="47.37799" lon="0.61016">
        <ele>52</ele>
        <time>2023-07-18T07:12:01Z</time>
      </trkpt>
      <trkpt lat="47.37796" lon="0.61007">
        <ele>52</ele>
        <time>2023-07-18T07:12:02Z</time>
      </trkpt>
      <trkpt lat="47.37793" lon="0.60998">
        <ele>52</ele>
        <time>2023-07-18T07:12:03Z</time>
      </trkpt>
      <trkpt lat="47.3779" lon="0.6099">
        <ele>52</ele>
        <time>2023-07-18T07:12:04Z</time>
      </trkpt>
      <trkpt lat="47.37788" lon="0.60981">
        <ele>52</ele>
        <time>2023-07-18T07:12:05Z</time>
      </trkpt>
      <trkpt lat="47.37785" lon="0.60972">
        <ele>52</ele>
        <time>2023-07-18T07:12:06Z</time>
      </trkpt>
      <trkpt lat="47.37782" lon="0.60963">
        <ele>52</ele>
        <time>2023-07-18T07:12:07Z</time>
      </trkpt>
      <trkpt lat="47.3778" lon="0.60954">
        <ele>52</ele>
        <time>2023-07-18T07:12:08Z</time>
      </trkpt>
      <trkpt lat="47.37777" lon="0.60945">
        <ele>52</ele>
        <time>2023-07-18T07:12:09Z</time>
      </trkpt>
      <trkpt lat="47.37774" lon="0.60937">
        <ele>52</ele>
        <time>2023-07-18T07:12:10Z</time>
      </trkpt>
      <trkpt lat="47.37772" lon="0.60928">
        <ele>52</ele>
        <time>2023-07-18T07:12:11Z</time>
      </trkpt>
      <trkpt lat="47.37769" lon="0.60919">
        <ele>52</ele>
        <time>2023-07-18T07:12:12Z</time>
      </trkpt>
      <trkpt lat="47.37766" lon="0.6091">
        <ele>52</ele>
        <time>2023-07-18T07:12:13Z</time>
      </trkpt>
      <trkpt lat="47.37763" lon="0.60901">
        <ele>52</ele>
        <time>2023-07-18T07:12:14Z</time>
      </trkpt>
      <trkpt lat="47.37761" lon="0.60893">
        <ele>52</ele>
        <time>2023-07-18T07:12:15Z</time>
      </trkpt>
      <trkpt lat="47.37757" lon="0.60884">
        <ele>52.2</ele>
        <time>2023-07-18T07:12:16Z</time>
      </trkpt>
      <trkpt lat="47.37754" lon="0.60876">
        <ele>52.2</ele>
        <time>2023-07-18T07:12:17Z</time>
      </trkpt>
      <trkpt lat="47.37751" lon="0.60867">
        <ele>52.2</ele>
        <time>2023-07-18T07:12:18Z</time>
      </trkpt>
      <trkpt lat="47.37748" lon="0.60859">
        <ele>52.2</ele>
        <time>2023-07-18T07:12:19Z</time>
      </trkpt>
      <trkpt lat="47.37744" lon="0.6085">
        <ele>52.2</ele>
        <time>2023-07-18T07:12:20Z</time>
      </trkpt>
      <trkpt lat="47.37741" lon="0.60841">
        <ele>52.2</ele>
        <time>2023-07-18T07:12:21Z</time>
      </trkpt>
      <trkpt lat="47.37738" lon="0.60833">
        <ele>52.4</ele>
        <time>2023-07-18T07:12:22Z</time>
      </trkpt>
      <trkpt lat="47.37735" lon="0.60825">
        <ele>52.2</ele>
        <time>2023-07-18T07:12:23Z</time>
      </trkpt>
      <trkpt lat="47.37732" lon="0.60816">
        <ele>52.2</ele>
        <time>2023-07-18T07:12:24Z</time>
      </trkpt>
      <trkpt lat="47.37729" lon="0.60808">
        <ele>52.2</ele>
        <time>2023-07-18T07:12:25Z</time>
      </trkpt>
      <trkpt lat="47.37726" lon="0.608">
        <ele>52.4</ele>
        <time>2023-07-18T07:12:26Z</time>
      </trkpt>
      <trkpt lat="47.37723" lon="0.60792">
        <ele>52.4</ele>
        <time>2023-07-18T07:12:27Z</time>
      </trkpt>
      <trkpt lat="47.3772" lon="0.60784">
        <ele>52.2</ele>
        <time>2023-07-18T07:12:28Z</time>
      </trkpt>
      <trkpt lat="47.37716" lon="0.60776">
        <ele>52.2</ele>
        <time>2023-07-18T07:12:29Z</time>
      </trkpt>
      <trkpt lat="47.37712" lon="0.60768">
        <ele>52.2</ele>
        <time>2023-07-18T07:12:30Z</time>
      </trkpt>
      <trkpt lat="47.37709" lon="0.6076">
        <ele>52.2</ele>
        <time>2023-07-18T07:12:31Z</time>
      </trkpt>
      <trkpt lat="47.37706" lon="0.60752">
        <ele>52</ele>
        <time>2023-07-18T07:12:32Z</time>
      </trkpt>
      <trkpt lat="47.37702" lon="0.60745">
        <ele>52</ele>
        <time>2023-07-18T07:12:33Z</time>
      </trkpt>
      <trkpt lat="47.37698" lon="0.60737">
        <ele>51.8</ele>
        <time>2023-07-18T07:12:34Z</time>
      </trkpt>
      <trkpt lat="47.37695" lon="0.6073">
        <ele>52</ele>
        <time>2023-07-18T07:12:35Z</time>
      </trkpt>
      <trkpt lat="47.37691" lon="0.60723">
        <ele>52</ele>
        <time>2023-07-18T07:12:36Z</time>
      </trkpt>
      <trkpt lat="47.37687" lon="0.60716">
        <ele>52</ele>
        <time>2023-07-18T07:12:37Z</time>
      </trkpt>
      <trkpt lat="47.37683" lon="0.60708">
        <ele>52.2</ele>
        <time>2023-07-18T07:12:38Z</time>
      </trkpt>
      <trkpt lat="47.3768" lon="0.607">
        <ele>52.2</ele>
        <time>2023-07-18T07:12:39Z</time>
      </trkpt>
      <trkpt lat="47.37678" lon="0.60692">
        <ele>52.2</ele>
        <time>2023-07-18T07:12:40Z</time>
      </trkpt>
      <trkpt lat="47.37676" lon="0.60683">
        <ele>52.4</ele>
        <time>2023-07-18T07:12:41Z</time>
      </trkpt>
      <trkpt lat="47.37674" lon="0.60673">
        <ele>52.4</ele>
        <time>2023-07-18T07:12:42Z</time>
      </trkpt>
      <trkpt lat="47.37673" lon="0.60664">
        <ele>52.4</ele>
        <time>2023-07-18T07:12:43Z</time>
      </trkpt>
      <trkpt lat="47.37672" lon="0.60655">
        <ele>52.4</ele>
        <time>2023-07-18T07:12:44Z</time>
      </trkpt>
      <trkpt lat="47.37672" lon="0.60646">
        <ele>52.4</ele>
        <time>2023-07-18T07:12:45Z</time>
      </trkpt>
      <trkpt lat="47.37671" lon="0.60637">
        <ele>52.6</ele>
        <time>2023-07-18T07:12:46Z</time>
      </trkpt>
      <trkpt lat="47.37671" lon="0.60628">
        <ele>52.6</ele>
        <time>2023-07-18T07:12:47Z</time>
      </trkpt>
      <trkpt lat="47.37671" lon="0.60619">
        <ele>52.8</ele>
        <time>2023-07-18T07:12:48Z</time>
      </trkpt>
      <trkpt lat="47.37671" lon="0.6061">
        <ele>52.8</ele>
        <time>2023-07-18T07:12:49Z</time>
      </trkpt>
      <trkpt lat="47.37671" lon="0.606">
        <ele>53</ele>
        <time>2023-07-18T07:12:50Z</time>
      </trkpt>
      <trkpt lat="47.37671" lon="0.60591">
        <ele>53</ele>
        <time>2023-07-18T07:12:51Z</time>
      </trkpt>
      <trkpt lat="47.37671" lon="0.60581">
        <ele>52.8</ele>
        <time>2023-07-18T07:12:52Z</time>
      </trkpt>
      <trkpt lat="47.37671" lon="0.60571">
        <ele>52.8</ele>
        <time>2023-07-18T07:12:53Z</time>
      </trkpt>
      <trkpt lat="47.37671" lon="0.60562">
        <ele>52.8</ele>
        <time>2023-07-18T07:12:54Z</time>
      </trkpt>
      <trkpt lat="47.3767" lon="0.60553">
        <ele>52.8</ele>
        <time>2023-07-18T07:12:55Z</time>
      </trkpt>
      <trkpt lat="47.3767" lon="0.60543">
        <ele>52.8</ele>
        <time>2023-07-18T07:12:56Z</time>
      </trkpt>
      <trkpt lat="47.3767" lon="0.60533">
        <ele>52.8</ele>
        <time>2023-07-18T07:12:57Z</time>
      </trkpt>
      <trkpt lat="47.3767" lon="0.60524">
        <ele>52.8</ele>
        <time>2023-07-18T07:12:58Z</time>
      </trkpt>
      <trkpt lat="47.3767" lon="0.60514">
        <ele>52.6</ele>
        <time>2023-07-18T07:12:59Z</time>
      </trkpt>
      <trkpt lat="47.37671" lon="0.60504">
        <ele>52.6</ele>
        <time>2023-07-18T07:13:00Z</time>
      </trkpt>
      <trkpt lat="47.37673" lon="0.60495">
        <ele>52.6</ele>
        <time>2023-07-18T07:13:01Z</time>
      </trkpt>
      <trkpt lat="47.37675" lon="0.60486">
        <ele>52.6</ele>
        <time>2023-07-18T07:13:02Z</time>
      </trkpt>
      <trkpt lat="47.37676" lon="0.60476">
        <ele>52.6</ele>
        <time>2023-07-18T07:13:03Z</time>
      </trkpt>
      <trkpt lat="47.37677" lon="0.60466">
        <ele>52.4</ele>
        <time>2023-07-18T07:13:04Z</time>
      </trkpt>
      <trkpt lat="47.37678" lon="0.60456">
        <ele>52.4</ele>
        <time>2023-07-18T07:13:05Z</time>
      </trkpt>
      <trkpt lat="47.37678" lon="0.60446">
        <ele>52.4</ele>
        <time>2023-07-18T07:13:06Z</time>
      </trkpt>
      <trkpt lat="47.37678" lon="0.60437">
        <ele>52.4</ele>
        <time>2023-07-18T07:13:07Z</time>
      </trkpt>
      <trkpt lat="47.37678" lon="0.60427">
        <ele>52.6</ele>
        <time>2023-07-18T07:13:08Z</time>
      </trkpt>
      <trkpt lat="47.37678" lon="0.60418">
        <ele>52.6</ele>
        <time>2023-07-18T07:13:09Z</time>
      </trkpt>
      <trkpt lat="47.37678" lon="0.60409">
        <ele>52.6</ele>
        <time>2023-07-18T07:13:10Z</time>
      </trkpt>
      <trkpt lat="47.37678" lon="0.60399">
        <ele>52.6</ele>
        <time>2023-07-18T07:13:11Z</time>
      </trkpt>
      <trkpt lat="47.37678" lon="0.6039">
        <ele>52.6</ele>
        <time>2023-07-18T07:13:12Z</time>
      </trkpt>
      <trkpt lat="47.37677" lon="0.6038">
        <ele>52.6</ele>
        <time>2023-07-18T07:13:13Z</time>
      </trkpt>
      <trkpt lat="47.37677" lon="0.60371">
        <ele>52.6</ele>
        <time>2023-07-18T07:13:14Z</time>
      </trkpt>
      <trkpt lat="47.37677" lon="0.60362">
        <ele>52.6</ele>
        <time>2023-07-18T07:13:15Z</time>
      </trkpt>
      <trkpt lat="47.37677" lon="0.60353">
        <ele>52.6</ele>
        <time>2023-07-18T07:13:16Z</time>
      </trkpt>
      <trkpt lat="47.37677" lon="0.60344">
        <ele>52.6</ele>
        <time>2023-07-18T07:13:17Z</time>
      </trkpt>
      <trkpt lat="47.37677" lon="0.60334">
        <ele>52.6</ele>
        <time>2023-07-18T07:13:18Z</time>
      </trkpt>
      <trkpt lat="47.37677" lon="0.60325">
        <ele>52.6</ele>
        <time>2023-07-18T07:13:19Z</time>
      </trkpt>
      <trkpt lat="47.37677" lon="0.60316">
        <ele>52.8</ele>
        <time>2023-07-18T07:13:20Z</time>
      </trkpt>
      <trkpt lat="47.37677" lon="0.60306">
        <ele>52.8</ele>
        <time>2023-07-18T07:13:21Z</time>
      </trkpt>
      <trkpt lat="47.37677" lon="0.60297">
        <ele>52.8</ele>
        <time>2023-07-18T07:13:22Z</time>
      </trkpt>
      <trkpt lat="47.37677" lon="0.60287">
        <ele>52.8</ele>
        <time>2023-07-18T07:13:23Z</time>
      </trkpt>
      <trkpt lat="47.37677" lon="0.60278">
        <ele>52.8</ele>
        <time>2023-07-18T07:13:24Z</time>
      </trkpt>
      <trkpt lat="47.37676" lon="0.60268">
        <ele>52.8</ele>
        <time>2023-07-18T07:13:25Z</time>
      </trkpt>
      <trkpt lat="47.37675" lon="0.60258">
        <ele>52.8</ele>
        <time>2023-07-18T07:13:26Z</time>
      </trkpt>
      <trkpt lat="47.37674" lon="0.60248">
        <ele>52.8</ele>
        <time>2023-07-18T07:13:27Z</time>
      </trkpt>
      <trkpt lat="47.37672" lon="0.60239">
        <ele>52.8</ele>
        <time>2023-07-18T07:13:28Z</time>
      </trkpt>
      <trkpt lat="47.37671" lon="0.60229">
        <ele>52.8</ele>
        <time>2023-07-18T07:13:29Z</time>
      </trkpt>
      <trkpt lat="47.37669" lon="0.60219">
        <ele>52.8</ele>
        <time>2023-07-18T07:13:30Z</time>
      </trkpt>
      <trkpt lat="47.37667" lon="0.60209">
        <ele>52.8</ele>
        <time>2023-07-18T07:13:31Z</time>
      </trkpt>
      <trkpt lat="47.37666" lon="0.602">
        <ele>52.8</ele>
        <time>2023-07-18T07:13:32Z</time>
      </trkpt>
      <trkpt lat="47.37664" lon="0.60191">
        <ele>52.8</ele>
        <time>2023-07-18T07:13:33Z</time>
      </trkpt>
      <trkpt lat="47.37663" lon="0.60183">
        <ele>52.6</ele>
        <time>2023-07-18T07:13:34Z</time>
      </trkpt>
      <trkpt lat="47.37661" lon="0.60175">
        <ele>52.4</ele>
        <time>2023-07-18T07:13:35Z</time>
      </trkpt>
      <trkpt lat="47.37659" lon="0.60166">
        <ele>52.2</ele>
        <time>2023-07-18T07:13:36Z</time>
      </trkpt>
      <trkpt lat="47.37658" lon="0.60158">
        <ele>52.4</ele>
        <time>2023-07-18T07:13:37Z</time>
      </trkpt>
      <trkpt lat="47.37656" lon="0.60149">
        <ele>52.4</ele>
        <time>2023-07-18T07:13:38Z</time>
      </trkpt>
      <trkpt lat="47.37654" lon="0.6014">
        <ele>52.6</ele>
        <time>2023-07-18T07:13:39Z</time>
      </trkpt>
      <trkpt lat="47.37652" lon="0.60132">
        <ele>52.6</ele>
        <time>2023-07-18T07:13:40Z</time>
      </trkpt>
      <trkpt lat="47.37651" lon="0.60122">
        <ele>52.8</ele>
        <time>2023-07-18T07:13:41Z</time>
      </trkpt>
      <trkpt lat="47.3765" lon="0.60112">
        <ele>52.8</ele>
        <time>2023-07-18T07:13:42Z</time>
      </trkpt>
      <trkpt lat="47.37648" lon="0.60103">
        <ele>52.6</ele>
        <time>2023-07-18T07:13:43Z</time>
      </trkpt>
      <trkpt lat="47.37647" lon="0.60093">
        <ele>52.6</ele>
        <time>2023-07-18T07:13:44Z</time>
      </trkpt>
      <trkpt lat="47.37646" lon="0.60084">
        <ele>52.6</ele>
        <time>2023-07-18T07:13:45Z</time>
      </trkpt>
      <trkpt lat="47.37645" lon="0.60075">
        <ele>52.6</ele>
        <time>2023-07-18T07:13:46Z</time>
      </trkpt>
      <trkpt lat="47.37644" lon="0.60066">
        <ele>52.4</ele>
        <time>2023-07-18T07:13:47Z</time>
      </trkpt>
      <trkpt lat="47.37644" lon="0.60057">
        <ele>52.4</ele>
        <time>2023-07-18T07:13:48Z</time>
      </trkpt>
      <trkpt lat="47.37644" lon="0.60049">
        <ele>52.4</ele>
        <time>2023-07-18T07:13:49Z</time>
      </trkpt>
      <trkpt lat="47.37643" lon="0.6004">
        <ele>52.4</ele>
        <time>2023-07-18T07:13:50Z</time>
      </trkpt>
      <trkpt lat="47.37643" lon="0.60031">
        <ele>52.4</ele>
        <time>2023-07-18T07:13:51Z</time>
      </trkpt>
      <trkpt lat="47.37643" lon="0.60022">
        <ele>52.6</ele>
        <time>2023-07-18T07:13:52Z</time>
      </trkpt>
      <trkpt lat="47.37643" lon="0.60012">
        <ele>52.8</ele>
        <time>2023-07-18T07:13:53Z</time>
      </trkpt>
      <trkpt lat="47.37643" lon="0.60002">
        <ele>53</ele>
        <time>2023-07-18T07:13:54Z</time>
      </trkpt>
      <trkpt lat="47.37643" lon="0.59992">
        <ele>53</ele>
        <time>2023-07-18T07:13:55Z</time>
      </trkpt>
      <trkpt lat="47.37643" lon="0.59982">
        <ele>53.2</ele>
        <time>2023-07-18T07:13:56Z</time>
      </trkpt>
      <trkpt lat="47.37643" lon="0.59972">
        <ele>53.2</ele>
        <time>2023-07-18T07:13:57Z</time>
      </trkpt>
      <trkpt lat="47.37643" lon="0.59962">
        <ele>53.2</ele>
        <time>2023-07-18T07:13:58Z</time>
      </trkpt>
      <trkpt lat="47.37642" lon="0.59951">
        <ele>53.2</ele>
        <time>2023-07-18T07:13:59Z</time>
      </trkpt>
      <trkpt lat="47.37642" lon="0.59942">
        <ele>53.2</ele>
        <time>2023-07-18T07:14:00Z</time>
      </trkpt>
      <trkpt lat="47.37641" lon="0.59931">
        <ele>53.2</ele>
        <time>2023-07-18T07:14:01Z</time>
      </trkpt>
      <trkpt lat="47.3764" lon="0.59922">
        <ele>53.4</ele>
        <time>2023-07-18T07:14:02Z</time>
      </trkpt>
      <trkpt lat="47.3764" lon="0.59912">
        <ele>53.4</ele>
        <time>2023-07-18T07:14:03Z</time>
      </trkpt>
      <trkpt lat="47.37639" lon="0.59902">
        <ele>53.4</ele>
        <time>2023-07-18T07:14:04Z</time>
      </trkpt>
      <trkpt lat="47.37638" lon="0.59893">
        <ele>53.4</ele>
        <time>2023-07-18T07:14:05Z</time>
      </trkpt>
      <trkpt lat="47.37637" lon="0.59883">
        <ele>53.6</ele>
        <time>2023-07-18T07:14:06Z</time>
      </trkpt>
      <trkpt lat="47.37635" lon="0.59873">
        <ele>53.6</ele>
        <time>2023-07-18T07:14:07Z</time>
      </trkpt>
      <trkpt lat="47.37634" lon="0.59864">
        <ele>53.4</ele>
        <time>2023-07-18T07:14:08Z</time>
      </trkpt>
      <trkpt lat="47.37633" lon="0.59855">
        <ele>53.4</ele>
        <time>2023-07-18T07:14:09Z</time>
      </trkpt>
      <trkpt lat="47.37632" lon="0.59846">
        <ele>53.2</ele>
        <time>2023-07-18T07:14:10Z</time>
      </trkpt>
      <trkpt lat="47.37631" lon="0.59837">
        <ele>53.2</ele>
        <time>2023-07-18T07:14:11Z</time>
      </trkpt>
      <trkpt lat="47.37631" lon="0.5983">
        <ele>53</ele>
        <time>2023-07-18T07:14:12Z</time>
      </trkpt>
      <trkpt lat="47.37632" lon="0.59823">
        <ele>53</ele>
        <time>2023-07-18T07:14:13Z</time>
      </trkpt>
      <trkpt lat="47.37633" lon="0.59817">
        <ele>53</ele>
        <time>2023-07-18T07:14:14Z</time>
      </trkpt>
      <trkpt lat="47.37635" lon="0.5981">
        <ele>53</ele>
        <time>2023-07-18T07:14:15Z</time>
      </trkpt>
      <trkpt lat="47.37636" lon="0.59803">
        <ele>52.8</ele>
        <time>2023-07-18T07:14:16Z</time>
      </trkpt>
      <trkpt lat="47.37637" lon="0.59795">
        <ele>52.8</ele>
        <time>2023-07-18T07:14:17Z</time>
      </trkpt>
      <trkpt lat="47.37637" lon="0.59786">
        <ele>52.8</ele>
        <time>2023-07-18T07:14:18Z</time>
      </trkpt>
      <trkpt lat="47.37638" lon="0.59778">
        <ele>53</ele>
        <time>2023-07-18T07:14:19Z</time>
      </trkpt>
      <trkpt lat="47.37637" lon="0.59768">
        <ele>53</ele>
        <time>2023-07-18T07:14:20Z</time>
      </trkpt>
      <trkpt lat="47.37637" lon="0.59759">
        <ele>53</ele>
        <time>2023-07-18T07:14:21Z</time>
      </trkpt>
      <trkpt lat="47.37637" lon="0.59749">
        <ele>53.2</ele>
        <time>2023-07-18T07:14:22Z</time>
      </trkpt>
      <trkpt lat="47.37636" lon="0.59739">
        <ele>53</ele>
        <time>2023-07-18T07:14:23Z</time>
      </trkpt>
      <trkpt lat="47.37635" lon="0.59729">
        <ele>53</ele>
        <time>2023-07-18T07:14:24Z</time>
      </trkpt>
      <trkpt lat="47.37635" lon="0.5972">
        <ele>53</ele>
        <time>2023-07-18T07:14:25Z</time>
      </trkpt>
      <trkpt lat="47.37634" lon="0.5971">
        <ele>53</ele>
        <time>2023-07-18T07:14:26Z</time>
      </trkpt>
      <trkpt lat="47.37634" lon="0.597">
        <ele>53</ele>
        <time>2023-07-18T07:14:27Z</time>
      </trkpt>
      <trkpt lat="47.37632" lon="0.59691">
        <ele>53</ele>
        <time>2023-07-18T07:14:28Z</time>
      </trkpt>
      <trkpt lat="47.37632" lon="0.59681">
        <ele>53.2</ele>
        <time>2023-07-18T07:14:29Z</time>
      </trkpt>
      <trkpt lat="47.3763" lon="0.59671">
        <ele>53.2</ele>
        <time>2023-07-18T07:14:30Z</time>
      </trkpt>
      <trkpt lat="47.37628" lon="0.59661">
        <ele>53.2</ele>
        <time>2023-07-18T07:14:31Z</time>
      </trkpt>
      <trkpt lat="47.37627" lon="0.59652">
        <ele>53.2</ele>
        <time>2023-07-18T07:14:32Z</time>
      </trkpt>
      <trkpt lat="47.37626" lon="0.59642">
        <ele>53.2</ele>
        <time>2023-07-18T07:14:33Z</time>
      </trkpt>
      <trkpt lat="47.37625" lon="0.59633">
        <ele>53.2</ele>
        <time>2023-07-18T07:14:34Z</time>
      </trkpt>
      <trkpt lat="47.37623" lon="0.59624">
        <ele>53.2</ele>
        <time>2023-07-18T07:14:35Z</time>
      </trkpt>
      <trkpt lat="47.37622" lon="0.59615">
        <ele>53.2</ele>
        <time>2023-07-18T07:14:36Z</time>
      </trkpt>
      <trkpt lat="47.37621" lon="0.59606">
        <ele>53.2</ele>
        <time>2023-07-18T07:14:37Z</time>
      </trkpt>
      <trkpt lat="47.37619" lon="0.59597">
        <ele>53</ele>
        <time>2023-07-18T07:14:38Z</time>
      </trkpt>
      <trkpt lat="47.37617" lon="0.59588">
        <ele>52.8</ele>
        <time>2023-07-18T07:14:39Z</time>
      </trkpt>
      <trkpt lat="47.37614" lon="0.59579">
        <ele>52.8</ele>
        <time>2023-07-18T07:14:40Z</time>
      </trkpt>
      <trkpt lat="47.37611" lon="0.5957">
        <ele>52.8</ele>
        <time>2023-07-18T07:14:41Z</time>
      </trkpt>
      <trkpt lat="47.37607" lon="0.59564">
        <ele>52.8</ele>
        <time>2023-07-18T07:14:42Z</time>
      </trkpt>
      <trkpt lat="47.37601" lon="0.59558">
        <ele>52.8</ele>
        <time>2023-07-18T07:14:43Z</time>
      </trkpt>
      <trkpt lat="47.37595" lon="0.59553">
        <ele>52.8</ele>
        <time>2023-07-18T07:14:44Z</time>
      </trkpt>
      <trkpt lat="47.3759" lon="0.59548">
        <ele>53</ele>
        <time>2023-07-18T07:14:45Z</time>
      </trkpt>
      <trkpt lat="47.37584" lon="0.59543">
        <ele>53</ele>
        <time>2023-07-18T07:14:46Z</time>
      </trkpt>
      <trkpt lat="47.37578" lon="0.59539">
        <ele>53</ele>
        <time>2023-07-18T07:14:47Z</time>
      </trkpt>
      <trkpt lat="47.37572" lon="0.59534">
        <ele>52.8</ele>
        <time>2023-07-18T07:14:48Z</time>
      </trkpt>
      <trkpt lat="47.37568" lon="0.5953">
        <ele>52.8</ele>
        <time>2023-07-18T07:14:49Z</time>
      </trkpt>
      <trkpt lat="47.37563" lon="0.59525">
        <ele>52.6</ele>
        <time>2023-07-18T07:14:50Z</time>
      </trkpt>
      <trkpt lat="47.3756" lon="0.59519">
        <ele>52.6</ele>
        <time>2023-07-18T07:14:51Z</time>
      </trkpt>
      <trkpt lat="47.37557" lon="0.59512">
        <ele>52.8</ele>
        <time>2023-07-18T07:14:52Z</time>
      </trkpt>
      <trkpt lat="47.37555" lon="0.59504">
        <ele>52.8</ele>
        <time>2023-07-18T07:14:53Z</time>
      </trkpt>
      <trkpt lat="47.37554" lon="0.59495">
        <ele>52.8</ele>
        <time>2023-07-18T07:14:54Z</time>
      </trkpt>
      <trkpt lat="47.37553" lon="0.59487">
        <ele>52.8</ele>
        <time>2023-07-18T07:14:55Z</time>
      </trkpt>
      <trkpt lat="47.37552" lon="0.59478">
        <ele>52.8</ele>
        <time>2023-07-18T07:14:56Z</time>
      </trkpt>
      <trkpt lat="47.37551" lon="0.59469">
        <ele>53</ele>
        <time>2023-07-18T07:14:57Z</time>
      </trkpt>
      <trkpt lat="47.3755" lon="0.5946">
        <ele>53</ele>
        <time>2023-07-18T07:14:58Z</time>
      </trkpt>
      <trkpt lat="47.37548" lon="0.59451">
        <ele>53</ele>
        <time>2023-07-18T07:14:59Z</time>
      </trkpt>
      <trkpt lat="47.37547" lon="0.59441">
        <ele>53</ele>
        <time>2023-07-18T07:15:00Z</time>
      </trkpt>
      <trkpt lat="47.37546" lon="0.59431">
        <ele>53.2</ele>
        <time>2023-07-18T07:15:01Z</time>
      </trkpt>
      <trkpt lat="47.37545" lon="0.59422">
        <ele>53.2</ele>
        <time>2023-07-18T07:15:02Z</time>
      </trkpt>
      <trkpt lat="47.37543" lon="0.59413">
        <ele>53.4</ele>
        <time>2023-07-18T07:15:03Z</time>
      </trkpt>
      <trkpt lat="47.37542" lon="0.59403">
        <ele>53.4</ele>
        <time>2023-07-18T07:15:04Z</time>
      </trkpt>
      <trkpt lat="47.37541" lon="0.59393">
        <ele>53.4</ele>
        <time>2023-07-18T07:15:05Z</time>
      </trkpt>
      <trkpt lat="47.37539" lon="0.59384">
        <ele>53.4</ele>
        <time>2023-07-18T07:15:06Z</time>
      </trkpt>
      <trkpt lat="47.37538" lon="0.59374">
        <ele>53.6</ele>
        <time>2023-07-18T07:15:07Z</time>
      </trkpt>
      <trkpt lat="47.37536" lon="0.59364">
        <ele>53.6</ele>
        <time>2023-07-18T07:15:08Z</time>
      </trkpt>
      <trkpt lat="47.37534" lon="0.59354">
        <ele>53.6</ele>
        <time>2023-07-18T07:15:09Z</time>
      </trkpt>
      <trkpt lat="47.37532" lon="0.59344">
        <ele>53.6</ele>
        <time>2023-07-18T07:15:10Z</time>
      </trkpt>
      <trkpt lat="47.37529" lon="0.59334">
        <ele>53.4</ele>
        <time>2023-07-18T07:15:11Z</time>
      </trkpt>
      <trkpt lat="47.37527" lon="0.59324">
        <ele>53.4</ele>
        <time>2023-07-18T07:15:12Z</time>
      </trkpt>
      <trkpt lat="47.37524" lon="0.59315">
        <ele>53.4</ele>
        <time>2023-07-18T07:15:13Z</time>
      </trkpt>
      <trkpt lat="47.37522" lon="0.59305">
        <ele>53.4</ele>
        <time>2023-07-18T07:15:14Z</time>
      </trkpt>
      <trkpt lat="47.37519" lon="0.59295">
        <ele>53.4</ele>
        <time>2023-07-18T07:15:15Z</time>
      </trkpt>
      <trkpt lat="47.37516" lon="0.59286">
        <ele>53.4</ele>
        <time>2023-07-18T07:15:16Z</time>
      </trkpt>
      <trkpt lat="47.37514" lon="0.59276">
        <ele>53.4</ele>
        <time>2023-07-18T07:15:17Z</time>
      </trkpt>
      <trkpt lat="47.37511" lon="0.59266">
        <ele>53.4</ele>
        <time>2023-07-18T07:15:18Z</time>
      </trkpt>
      <trkpt lat="47.37508" lon="0.59256">
        <ele>53.6</ele>
        <time>2023-07-18T07:15:19Z</time>
      </trkpt>
      <trkpt lat="47.37505" lon="0.59247">
        <ele>53.6</ele>
        <time>2023-07-18T07:15:20Z</time>
      </trkpt>
      <trkpt lat="47.37502" lon="0.59237">
        <ele>53.4</ele>
        <time>2023-07-18T07:15:21Z</time>
      </trkpt>
      <trkpt lat="47.37499" lon="0.59227">
        <ele>53.4</ele>
        <time>2023-07-18T07:15:22Z</time>
      </trkpt>
      <trkpt lat="47.37497" lon="0.59218">
        <ele>53.4</ele>
        <time>2023-07-18T07:15:23Z</time>
      </trkpt>
      <trkpt lat="47.37494" lon="0.59208">
        <ele>53.4</ele>
        <time>2023-07-18T07:15:24Z</time>
      </trkpt>
      <trkpt lat="47.37491" lon="0.59198">
        <ele>53.4</ele>
        <time>2023-07-18T07:15:25Z</time>
      </trkpt>
      <trkpt lat="47.37489" lon="0.59187">
        <ele>53.4</ele>
        <time>2023-07-18T07:15:26Z</time>
      </trkpt>
      <trkpt lat="47.37486" lon="0.59177">
        <ele>53.2</ele>
        <time>2023-07-18T07:15:27Z</time>
      </trkpt>
      <trkpt lat="47.37483" lon="0.59167">
        <ele>53.2</ele>
        <time>2023-07-18T07:15:28Z</time>
      </trkpt>
      <trkpt lat="47.3748" lon="0.59158">
        <ele>53.2</ele>
        <time>2023-07-18T07:15:29Z</time>
      </trkpt>
      <trkpt lat="47.37477" lon="0.59148">
        <ele>53.2</ele>
        <time>2023-07-18T07:15:30Z</time>
      </trkpt>
      <trkpt lat="47.37475" lon="0.59138">
        <ele>53.2</ele>
        <time>2023-07-18T07:15:31Z</time>
      </trkpt>
      <trkpt lat="47.37472" lon="0.59128">
        <ele>53.2</ele>
        <time>2023-07-18T07:15:32Z</time>
      </trkpt>
      <trkpt lat="47.37469" lon="0.59117">
        <ele>53.2</ele>
        <time>2023-07-18T07:15:33Z</time>
      </trkpt>
      <trkpt lat="47.37467" lon="0.59108">
        <ele>53.2</ele>
        <time>2023-07-18T07:15:34Z</time>
      </trkpt>
      <trkpt lat="47.37465" lon="0.59098">
        <ele>53.2</ele>
        <time>2023-07-18T07:15:35Z</time>
      </trkpt>
      <trkpt lat="47.37463" lon="0.59088">
        <ele>53.2</ele>
        <time>2023-07-18T07:15:36Z</time>
      </trkpt>
      <trkpt lat="47.37461" lon="0.59077">
        <ele>53.2</ele>
        <time>2023-07-18T07:15:37Z</time>
      </trkpt>
      <trkpt lat="47.3746" lon="0.59067">
        <ele>53.2</ele>
        <time>2023-07-18T07:15:38Z</time>
      </trkpt>
      <trkpt lat="47.37461" lon="0.59057">
        <ele>53.2</ele>
        <time>2023-07-18T07:15:39Z</time>
      </trkpt>
      <trkpt lat="47.37463" lon="0.59047">
        <ele>53</ele>
        <time>2023-07-18T07:15:40Z</time>
      </trkpt>
      <trkpt lat="47.37466" lon="0.59039">
        <ele>53</ele>
        <time>2023-07-18T07:15:41Z</time>
      </trkpt>
      <trkpt lat="47.3747" lon="0.59031">
        <ele>53</ele>
        <time>2023-07-18T07:15:42Z</time>
      </trkpt>
      <trkpt lat="47.37474" lon="0.59024">
        <ele>53</ele>
        <time>2023-07-18T07:15:43Z</time>
      </trkpt>
      <trkpt lat="47.37479" lon="0.59017">
        <ele>52.8</ele>
        <time>2023-07-18T07:15:44Z</time>
      </trkpt>
      <trkpt lat="47.37483" lon="0.59011">
        <ele>52.8</ele>
        <time>2023-07-18T07:15:45Z</time>
      </trkpt>
      <trkpt lat="47.37487" lon="0.59004">
        <ele>52.8</ele>
        <time>2023-07-18T07:15:46Z</time>
      </trkpt>
      <trkpt lat="47.3749" lon="0.58997">
        <ele>52.6</ele>
        <time>2023-07-18T07:15:47Z</time>
      </trkpt>
      <trkpt lat="47.37492" lon="0.5899">
        <ele>52.6</ele>
        <time>2023-07-18T07:15:48Z</time>
      </trkpt>
      <trkpt lat="47.37492" lon="0.58981">
        <ele>52.6</ele>
        <time>2023-07-18T07:15:49Z</time>
      </trkpt>
      <trkpt lat="47.37491" lon="0.58973">
        <ele>52.6</ele>
        <time>2023-07-18T07:15:50Z</time>
      </trkpt>
      <trkpt lat="47.37489" lon="0.58964">
        <ele>52.6</ele>
        <time>2023-07-18T07:15:51Z</time>
      </trkpt>
      <trkpt lat="47.37487" lon="0.58956">
        <ele>52.6</ele>
        <time>2023-07-18T07:15:52Z</time>
      </trkpt>
      <trkpt lat="47.37485" lon="0.58947">
        <ele>52.6</ele>
        <time>2023-07-18T07:15:53Z</time>
      </trkpt>
      <trkpt lat="47.37482" lon="0.58938">
        <ele>52.6</ele>
        <time>2023-07-18T07:15:54Z</time>
      </trkpt>
      <trkpt lat="47.3748" lon="0.58929">
        <ele>52.8</ele>
        <time>2023-07-18T07:15:55Z</time>
      </trkpt>
      <trkpt lat="47.37477" lon="0.5892">
        <ele>52.8</ele>
        <time>2023-07-18T07:15:56Z</time>
      </trkpt>
      <trkpt lat="47.37475" lon="0.5891">
        <ele>52.8</ele>
        <time>2023-07-18T07:15:57Z</time>
      </trkpt>
      <trkpt lat="47.37473" lon="0.58901">
        <ele>52.8</ele>
        <time>2023-07-18T07:15:58Z</time>
      </trkpt>
      <trkpt lat="47.3747" lon="0.58892">
        <ele>53</ele>
        <time>2023-07-18T07:15:59Z</time>
      </trkpt>
      <trkpt lat="47.37468" lon="0.58883">
        <ele>53</ele>
        <time>2023-07-18T07:16:00Z</time>
      </trkpt>
      <trkpt lat="47.37465" lon="0.58873">
        <ele>53</ele>
        <time>2023-07-18T07:16:01Z</time>
      </trkpt>
      <trkpt lat="47.37462" lon="0.58864">
        <ele>53</ele>
        <time>2023-07-18T07:16:02Z</time>
      </trkpt>
      <trkpt lat="47.37459" lon="0.58854">
        <ele>53</ele>
        <time>2023-07-18T07:16:03Z</time>
      </trkpt>
      <trkpt lat="47.37457" lon="0.58845">
        <ele>53</ele>
        <time>2023-07-18T07:16:04Z</time>
      </trkpt>
      <trkpt lat="47.37453" lon="0.58836">
        <ele>53</ele>
        <time>2023-07-18T07:16:05Z</time>
      </trkpt>
      <trkpt lat="47.37451" lon="0.58826">
        <ele>52.8</ele>
        <time>2023-07-18T07:16:06Z</time>
      </trkpt>
      <trkpt lat="47.37448" lon="0.58817">
        <ele>52.8</ele>
        <time>2023-07-18T07:16:07Z</time>
      </trkpt>
      <trkpt lat="47.37445" lon="0.58807">
        <ele>52.8</ele>
        <time>2023-07-18T07:16:08Z</time>
      </trkpt>
      <trkpt lat="47.37443" lon="0.58798">
        <ele>52.8</ele>
        <time>2023-07-18T07:16:09Z</time>
      </trkpt>
      <trkpt lat="47.3744" lon="0.58788">
        <ele>52.8</ele>
        <time>2023-07-18T07:16:10Z</time>
      </trkpt>
      <trkpt lat="47.37438" lon="0.58778">
        <ele>52.8</ele>
        <time>2023-07-18T07:16:11Z</time>
      </trkpt>
      <trkpt lat="47.37436" lon="0.58769">
        <ele>52.8</ele>
        <time>2023-07-18T07:16:12Z</time>
      </trkpt>
      <trkpt lat="47.37433" lon="0.58759">
        <ele>52.8</ele>
        <time>2023-07-18T07:16:13Z</time>
      </trkpt>
      <trkpt lat="47.37431" lon="0.58749">
        <ele>52.8</ele>
        <time>2023-07-18T07:16:14Z</time>
      </trkpt>
      <trkpt lat="47.37429" lon="0.58739">
        <ele>52.8</ele>
        <time>2023-07-18T07:16:15Z</time>
      </trkpt>
      <trkpt lat="47.37428" lon="0.58728">
        <ele>52.8</ele>
        <time>2023-07-18T07:16:16Z</time>
      </trkpt>
      <trkpt lat="47.37426" lon="0.58719">
        <ele>52.8</ele>
        <time>2023-07-18T07:16:17Z</time>
      </trkpt>
      <trkpt lat="47.37425" lon="0.58709">
        <ele>52.8</ele>
        <time>2023-07-18T07:16:18Z</time>
      </trkpt>
      <trkpt lat="47.37423" lon="0.58698">
        <ele>53</ele>
        <time>2023-07-18T07:16:19Z</time>
      </trkpt>
      <trkpt lat="47.37422" lon="0.58688">
        <ele>52.8</ele>
        <time>2023-07-18T07:16:20Z</time>
      </trkpt>
      <trkpt lat="47.37421" lon="0.58678">
        <ele>52.8</ele>
        <time>2023-07-18T07:16:21Z</time>
      </trkpt>
      <trkpt lat="47.3742" lon="0.58668">
        <ele>52.8</ele>
        <time>2023-07-18T07:16:22Z</time>
      </trkpt>
      <trkpt lat="47.37418" lon="0.58658">
        <ele>52.8</ele>
        <time>2023-07-18T07:16:23Z</time>
      </trkpt>
      <trkpt lat="47.37416" lon="0.58648">
        <ele>53</ele>
        <time>2023-07-18T07:16:24Z</time>
      </trkpt>
      <trkpt lat="47.37415" lon="0.58638">
        <ele>52.8</ele>
        <time>2023-07-18T07:16:25Z</time>
      </trkpt>
      <trkpt lat="47.37413" lon="0.58628">
        <ele>52.8</ele>
        <time>2023-07-18T07:16:26Z</time>
      </trkpt>
      <trkpt lat="47.37412" lon="0.58617">
        <ele>52.8</ele>
        <time>2023-07-18T07:16:27Z</time>
      </trkpt>
      <trkpt lat="47.3741" lon="0.58607">
        <ele>52.8</ele>
        <time>2023-07-18T07:16:28Z</time>
      </trkpt>
      <trkpt lat="47.37408" lon="0.58597">
        <ele>52.8</ele>
        <time>2023-07-18T07:16:29Z</time>
      </trkpt>
      <trkpt lat="47.37407" lon="0.58587">
        <ele>52.8</ele>
        <time>2023-07-18T07:16:30Z</time>
      </trkpt>
      <trkpt lat="47.37405" lon="0.58578">
        <ele>52.6</ele>
        <time>2023-07-18T07:16:31Z</time>
      </trkpt>
      <trkpt lat="47.37402" lon="0.58568">
        <ele>52.6</ele>
        <time>2023-07-18T07:16:32Z</time>
      </trkpt>
      <trkpt lat="47.374" lon="0.58559">
        <ele>52.6</ele>
        <time>2023-07-18T07:16:33Z</time>
      </trkpt>
      <trkpt lat="47.37397" lon="0.5855">
        <ele>52.4</ele>
        <time>2023-07-18T07:16:34Z</time>
      </trkpt>
      <trkpt lat="47.37394" lon="0.58541">
        <ele>52.6</ele>
        <time>2023-07-18T07:16:35Z</time>
      </trkpt>
      <trkpt lat="47.37391" lon="0.58532">
        <ele>52.6</ele>
        <time>2023-07-18T07:16:36Z</time>
      </trkpt>
      <trkpt lat="47.37386" lon="0.58524">
        <ele>52.6</ele>
        <time>2023-07-18T07:16:37Z</time>
      </trkpt>
      <trkpt lat="47.37381" lon="0.58516">
        <ele>52.8</ele>
        <time>2023-07-18T07:16:38Z</time>
      </trkpt>
      <trkpt lat="47.37376" lon="0.58509">
        <ele>52.6</ele>
        <time>2023-07-18T07:16:39Z</time>
      </trkpt>
      <trkpt lat="47.3737" lon="0.58501">
        <ele>52.6</ele>
        <time>2023-07-18T07:16:40Z</time>
      </trkpt>
      <trkpt lat="47.37365" lon="0.58495">
        <ele>52.6</ele>
        <time>2023-07-18T07:16:41Z</time>
      </trkpt>
      <trkpt lat="47.37359" lon="0.58488">
        <ele>52.6</ele>
        <time>2023-07-18T07:16:42Z</time>
      </trkpt>
      <trkpt lat="47.37354" lon="0.58481">
        <ele>52.6</ele>
        <time>2023-07-18T07:16:43Z</time>
      </trkpt>
      <trkpt lat="47.37348" lon="0.58475">
        <ele>52.6</ele>
        <time>2023-07-18T07:16:44Z</time>
      </trkpt>
      <trkpt lat="47.37343" lon="0.58468">
        <ele>52.6</ele>
        <time>2023-07-18T07:16:45Z</time>
      </trkpt>
      <trkpt lat="47.37338" lon="0.58461">
        <ele>52.6</ele>
        <time>2023-07-18T07:16:46Z</time>
      </trkpt>
      <trkpt lat="47.37333" lon="0.58454">
        <ele>52.4</ele>
        <time>2023-07-18T07:16:47Z</time>
      </trkpt>
      <trkpt lat="47.37328" lon="0.58447">
        <ele>52.2</ele>
        <time>2023-07-18T07:16:48Z</time>
      </trkpt>
      <trkpt lat="47.37324" lon="0.5844">
        <ele>52.2</ele>
        <time>2023-07-18T07:16:49Z</time>
      </trkpt>
      <trkpt lat="47.37319" lon="0.58434">
        <ele>52.2</ele>
        <time>2023-07-18T07:16:50Z</time>
      </trkpt>
      <trkpt lat="47.37314" lon="0.58427">
        <ele>52</ele>
        <time>2023-07-18T07:16:51Z</time>
      </trkpt>
      <trkpt lat="47.37309" lon="0.58422">
        <ele>52</ele>
        <time>2023-07-18T07:16:52Z</time>
      </trkpt>
      <trkpt lat="47.37302" lon="0.58417">
        <ele>52</ele>
        <time>2023-07-18T07:16:53Z</time>
      </trkpt>
      <trkpt lat="47.37296" lon="0.58414">
        <ele>52</ele>
        <time>2023-07-18T07:16:54Z</time>
      </trkpt>
      <trkpt lat="47.37289" lon="0.58412">
        <ele>52</ele>
        <time>2023-07-18T07:16:55Z</time>
      </trkpt>
      <trkpt lat="47.37283" lon="0.5841">
        <ele>51.8</ele>
        <time>2023-07-18T07:16:56Z</time>
      </trkpt>
      <trkpt lat="47.37276" lon="0.58408">
        <ele>51.8</ele>
        <time>2023-07-18T07:16:57Z</time>
      </trkpt>
      <trkpt lat="47.3727" lon="0.58407">
        <ele>51.8</ele>
        <time>2023-07-18T07:16:58Z</time>
      </trkpt>
      <trkpt lat="47.37263" lon="0.58405">
        <ele>51.6</ele>
        <time>2023-07-18T07:16:59Z</time>
      </trkpt>
      <trkpt lat="47.37256" lon="0.58403">
        <ele>51.6</ele>
        <time>2023-07-18T07:17:00Z</time>
      </trkpt>
      <trkpt lat="47.37251" lon="0.584">
        <ele>51.6</ele>
        <time>2023-07-18T07:17:01Z</time>
      </trkpt>
      <trkpt lat="47.37244" lon="0.58396">
        <ele>51.4</ele>
        <time>2023-07-18T07:17:02Z</time>
      </trkpt>
      <trkpt lat="47.37239" lon="0.58392">
        <ele>51.4</ele>
        <time>2023-07-18T07:17:03Z</time>
      </trkpt>
      <trkpt lat="47.37234" lon="0.58387">
        <ele>51.4</ele>
        <time>2023-07-18T07:17:04Z</time>
      </trkpt>
      <trkpt lat="47.3723" lon="0.58381">
        <ele>51.4</ele>
        <time>2023-07-18T07:17:05Z</time>
      </trkpt>
      <trkpt lat="47.37225" lon="0.58375">
        <ele>51.4</ele>
        <time>2023-07-18T07:17:06Z</time>
      </trkpt>
      <trkpt lat="47.37222" lon="0.58367">
        <ele>51.4</ele>
        <time>2023-07-18T07:17:07Z</time>
      </trkpt>
      <trkpt lat="47.37219" lon="0.5836">
        <ele>51.6</ele>
        <time>2023-07-18T07:17:08Z</time>
      </trkpt>
      <trkpt lat="47.37216" lon="0.58352">
        <ele>51.6</ele>
        <time>2023-07-18T07:17:09Z</time>
      </trkpt>
      <trkpt lat="47.37213" lon="0.58344">
        <ele>51.8</ele>
        <time>2023-07-18T07:17:10Z</time>
      </trkpt>
      <trkpt lat="47.37209" lon="0.58336">
        <ele>51.8</ele>
        <time>2023-07-18T07:17:11Z</time>
      </trkpt>
      <trkpt lat="47.37206" lon="0.58328">
        <ele>52</ele>
        <time>2023-07-18T07:17:12Z</time>
      </trkpt>
      <trkpt lat="47.37202" lon="0.5832">
        <ele>52</ele>
        <time>2023-07-18T07:17:13Z</time>
      </trkpt>
      <trkpt lat="47.37199" lon="0.58312">
        <ele>52</ele>
        <time>2023-07-18T07:17:14Z</time>
      </trkpt>
      <trkpt lat="47.37195" lon="0.58305">
        <ele>52.2</ele>
        <time>2023-07-18T07:17:15Z</time>
      </trkpt>
      <trkpt lat="47.37191" lon="0.58297">
        <ele>52.2</ele>
        <time>2023-07-18T07:17:16Z</time>
      </trkpt>
      <trkpt lat="47.37186" lon="0.5829">
        <ele>52.2</ele>
        <time>2023-07-18T07:17:17Z</time>
      </trkpt>
      <trkpt lat="47.37182" lon="0.58284">
        <ele>52.4</ele>
        <time>2023-07-18T07:17:18Z</time>
      </trkpt>
      <trkpt lat="47.37177" lon="0.58278">
        <ele>52.4</ele>
        <time>2023-07-18T07:17:19Z</time>
      </trkpt>
      <trkpt lat="47.37172" lon="0.58271">
        <ele>52.6</ele>
        <time>2023-07-18T07:17:20Z</time>
      </trkpt>
      <trkpt lat="47.37168" lon="0.58265">
        <ele>52.6</ele>
        <time>2023-07-18T07:17:21Z</time>
      </trkpt>
      <trkpt lat="47.37163" lon="0.58259">
        <ele>52.8</ele>
        <time>2023-07-18T07:17:22Z</time>
      </trkpt>
      <trkpt lat="47.37159" lon="0.58252">
        <ele>52.8</ele>
        <time>2023-07-18T07:17:23Z</time>
      </trkpt>
      <trkpt lat="47.37154" lon="0.58245">
        <ele>52.8</ele>
        <time>2023-07-18T07:17:24Z</time>
      </trkpt>
      <trkpt lat="47.37149" lon="0.58239">
        <ele>52.8</ele>
        <time>2023-07-18T07:17:25Z</time>
      </trkpt>
      <trkpt lat="47.37145" lon="0.58233">
        <ele>52.8</ele>
        <time>2023-07-18T07:17:26Z</time>
      </trkpt>
      <trkpt lat="47.37141" lon="0.58227">
        <ele>52.8</ele>
        <time>2023-07-18T07:17:27Z</time>
      </trkpt>
      <trkpt lat="47.37136" lon="0.58221">
        <ele>52.6</ele>
        <time>2023-07-18T07:17:28Z</time>
      </trkpt>
      <trkpt lat="47.37131" lon="0.58215">
        <ele>52.6</ele>
        <time>2023-07-18T07:17:29Z</time>
      </trkpt>
      <trkpt lat="47.37126" lon="0.5821">
        <ele>52.6</ele>
        <time>2023-07-18T07:17:30Z</time>
      </trkpt>
      <trkpt lat="47.3712" lon="0.58205">
        <ele>52.4</ele>
        <time>2023-07-18T07:17:31Z</time>
      </trkpt>
      <trkpt lat="47.37114" lon="0.58199">
        <ele>52.4</ele>
        <time>2023-07-18T07:17:32Z</time>
      </trkpt>
      <trkpt lat="47.37107" lon="0.58195">
        <ele>52.4</ele>
        <time>2023-07-18T07:17:33Z</time>
      </trkpt>
      <trkpt lat="47.37101" lon="0.58192">
        <ele>52.4</ele>
        <time>2023-07-18T07:17:34Z</time>
      </trkpt>
      <trkpt lat="47.37094" lon="0.5819">
        <ele>52.4</ele>
        <time>2023-07-18T07:17:35Z</time>
      </trkpt>
      <trkpt lat="47.37087" lon="0.58188">
        <ele>52.4</ele>
        <time>2023-07-18T07:17:36Z</time>
      </trkpt>
      <trkpt lat="47.3708" lon="0.58186">
        <ele>52.2</ele>
        <time>2023-07-18T07:17:37Z</time>
      </trkpt>
      <trkpt lat="47.37074" lon="0.58183">
        <ele>52.2</ele>
        <time>2023-07-18T07:17:38Z</time>
      </trkpt>
      <trkpt lat="47.37068" lon="0.5818">
        <ele>52.2</ele>
        <time>2023-07-18T07:17:39Z</time>
      </trkpt>
      <trkpt lat="47.37062" lon="0.58175">
        <ele>52.2</ele>
        <time>2023-07-18T07:17:40Z</time>
      </trkpt>
      <trkpt lat="47.37057" lon="0.5817">
        <ele>52</ele>
        <time>2023-07-18T07:17:41Z</time>
      </trkpt>
      <trkpt lat="47.37052" lon="0.58163">
        <ele>52</ele>
        <time>2023-07-18T07:17:42Z</time>
      </trkpt>
      <trkpt lat="47.37047" lon="0.58156">
        <ele>52</ele>
        <time>2023-07-18T07:17:43Z</time>
      </trkpt>
      <trkpt lat="47.37043" lon="0.58148">
        <ele>52</ele>
        <time>2023-07-18T07:17:44Z</time>
      </trkpt>
      <trkpt lat="47.37039" lon="0.5814">
        <ele>51.8</ele>
        <time>2023-07-18T07:17:45Z</time>
      </trkpt>
      <trkpt lat="47.37035" lon="0.58132">
        <ele>51.8</ele>
        <time>2023-07-18T07:17:46Z</time>
      </trkpt>
      <trkpt lat="47.37032" lon="0.58125">
        <ele>51.8</ele>
        <time>2023-07-18T07:17:47Z</time>
      </trkpt>
      <trkpt lat="47.37028" lon="0.58117">
        <ele>51.8</ele>
        <time>2023-07-18T07:17:48Z</time>
      </trkpt>
      <trkpt lat="47.37025" lon="0.58108">
        <ele>52</ele>
        <time>2023-07-18T07:17:49Z</time>
      </trkpt>
      <trkpt lat="47.37021" lon="0.581">
        <ele>52</ele>
        <time>2023-07-18T07:17:50Z</time>
      </trkpt>
      <trkpt lat="47.37017" lon="0.58091">
        <ele>52</ele>
        <time>2023-07-18T07:17:51Z</time>
      </trkpt>
      <trkpt lat="47.37013" lon="0.58082">
        <ele>52</ele>
        <time>2023-07-18T07:17:52Z</time>
      </trkpt>
      <trkpt lat="47.3701" lon="0.58074">
        <ele>52</ele>
        <time>2023-07-18T07:17:53Z</time>
      </trkpt>
      <trkpt lat="47.37006" lon="0.58065">
        <ele>52</ele>
        <time>2023-07-18T07:17:54Z</time>
      </trkpt>
      <trkpt lat="47.37002" lon="0.58056">
        <ele>51.8</ele>
        <time>2023-07-18T07:17:55Z</time>
      </trkpt>
      <trkpt lat="47.36999" lon="0.58047">
        <ele>51.8</ele>
        <time>2023-07-18T07:17:56Z</time>
      </trkpt>
      <trkpt lat="47.36995" lon="0.58038">
        <ele>51.8</ele>
        <time>2023-07-18T07:17:57Z</time>
      </trkpt>
      <trkpt lat="47.36991" lon="0.58029">
        <ele>51.6</ele>
        <time>2023-07-18T07:17:58Z</time>
      </trkpt>
      <trkpt lat="47.36987" lon="0.58021">
        <ele>51.6</ele>
        <time>2023-07-18T07:17:59Z</time>
      </trkpt>
      <trkpt lat="47.36983" lon="0.58012">
        <ele>51.6</ele>
        <time>2023-07-18T07:18:00Z</time>
      </trkpt>
      <trkpt lat="47.36979" lon="0.58004">
        <ele>51.6</ele>
        <time>2023-07-18T07:18:01Z</time>
      </trkpt>
      <trkpt lat="47.36975" lon="0.57996">
        <ele>51.6</ele>
        <time>2023-07-18T07:18:02Z</time>
      </trkpt>
      <trkpt lat="47.36971" lon="0.57988">
        <ele>51.6</ele>
        <time>2023-07-18T07:18:03Z</time>
      </trkpt>
      <trkpt lat="47.36966" lon="0.57979">
        <ele>51.6</ele>
        <time>2023-07-18T07:18:04Z</time>
      </trkpt>
      <trkpt lat="47.36962" lon="0.57971">
        <ele>51.6</ele>
        <time>2023-07-18T07:18:05Z</time>
      </trkpt>
      <trkpt lat="47.36958" lon="0.57962">
        <ele>51.4</ele>
        <time>2023-07-18T07:18:06Z</time>
      </trkpt>
      <trkpt lat="47.36953" lon="0.57954">
        <ele>51.4</ele>
        <time>2023-07-18T07:18:07Z</time>
      </trkpt>
      <trkpt lat="47.36949" lon="0.57946">
        <ele>51.4</ele>
        <time>2023-07-18T07:18:08Z</time>
      </trkpt>
      <trkpt lat="47.36945" lon="0.57938">
        <ele>51.4</ele>
        <time>2023-07-18T07:18:09Z</time>
      </trkpt>
      <trkpt lat="47.3694" lon="0.5793">
        <ele>51.4</ele>
        <time>2023-07-18T07:18:10Z</time>
      </trkpt>
      <trkpt lat="47.36936" lon="0.57921">
        <ele>51.2</ele>
        <time>2023-07-18T07:18:11Z</time>
      </trkpt>
      <trkpt lat="47.36932" lon="0.57913">
        <ele>51.2</ele>
        <time>2023-07-18T07:18:12Z</time>
      </trkpt>
      <trkpt lat="47.36928" lon="0.57905">
        <ele>51.2</ele>
        <time>2023-07-18T07:18:13Z</time>
      </trkpt>
      <trkpt lat="47.36924" lon="0.57897">
        <ele>51.2</ele>
        <time>2023-07-18T07:18:14Z</time>
      </trkpt>
      <trkpt lat="47.36919" lon="0.57889">
        <ele>51.2</ele>
        <time>2023-07-18T07:18:15Z</time>
      </trkpt>
      <trkpt lat="47.36915" lon="0.57881">
        <ele>51.2</ele>
        <time>2023-07-18T07:18:16Z</time>
      </trkpt>
      <trkpt lat="47.36911" lon="0.57873">
        <ele>51.4</ele>
        <time>2023-07-18T07:18:17Z</time>
      </trkpt>
      <trkpt lat="47.36907" lon="0.57864">
        <ele>51.4</ele>
        <time>2023-07-18T07:18:18Z</time>
      </trkpt>
      <trkpt lat="47.36903" lon="0.57856">
        <ele>51.4</ele>
        <time>2023-07-18T07:18:19Z</time>
      </trkpt>
      <trkpt lat="47.36899" lon="0.57848">
        <ele>51.4</ele>
        <time>2023-07-18T07:18:20Z</time>
      </trkpt>
      <trkpt lat="47.36894" lon="0.5784">
        <ele>51.6</ele>
        <time>2023-07-18T07:18:21Z</time>
      </trkpt>
      <trkpt lat="47.36891" lon="0.57831">
        <ele>51.6</ele>
        <time>2023-07-18T07:18:22Z</time>
      </trkpt>
      <trkpt lat="47.36887" lon="0.57823">
        <ele>51.6</ele>
        <time>2023-07-18T07:18:23Z</time>
      </trkpt>
      <trkpt lat="47.36884" lon="0.57815">
        <ele>51.6</ele>
        <time>2023-07-18T07:18:24Z</time>
      </trkpt>
      <trkpt lat="47.3688" lon="0.57806">
        <ele>51.6</ele>
        <time>2023-07-18T07:18:25Z</time>
      </trkpt>
      <trkpt lat="47.36876" lon="0.57798">
        <ele>51.4</ele>
        <time>2023-07-18T07:18:26Z</time>
      </trkpt>
      <trkpt lat="47.36872" lon="0.5779">
        <ele>51.4</ele>
        <time>2023-07-18T07:18:27Z</time>
      </trkpt>
      <trkpt lat="47.36869" lon="0.57781">
        <ele>51.4</ele>
        <time>2023-07-18T07:18:28Z</time>
      </trkpt>
      <trkpt lat="47.36866" lon="0.57773">
        <ele>51.4</ele>
        <time>2023-07-18T07:18:29Z</time>
      </trkpt>
      <trkpt lat="47.36863" lon="0.57764">
        <ele>51.6</ele>
        <time>2023-07-18T07:18:30Z</time>
      </trkpt>
      <trkpt lat="47.36859" lon="0.57756">
        <ele>51.6</ele>
        <time>2023-07-18T07:18:31Z</time>
      </trkpt>
      <trkpt lat="47.36856" lon="0.57748">
        <ele>51.6</ele>
        <time>2023-07-18T07:18:32Z</time>
      </trkpt>
      <trkpt lat="47.36852" lon="0.57739">
        <ele>51.8</ele>
        <time>2023-07-18T07:18:33Z</time>
      </trkpt>
      <trkpt lat="47.36849" lon="0.57731">
        <ele>51.8</ele>
        <time>2023-07-18T07:18:34Z</time>
      </trkpt>
      <trkpt lat="47.36846" lon="0.57723">
        <ele>51.8</ele>
        <time>2023-07-18T07:18:35Z</time>
      </trkpt>
      <trkpt lat="47.36843" lon="0.57714">
        <ele>51.8</ele>
        <time>2023-07-18T07:18:36Z</time>
      </trkpt>
      <trkpt lat="47.3684" lon="0.57706">
        <ele>52</ele>
        <time>2023-07-18T07:18:37Z</time>
      </trkpt>
      <trkpt lat="47.36837" lon="0.57696">
        <ele>52</ele>
        <time>2023-07-18T07:18:38Z</time>
      </trkpt>
      <trkpt lat="47.36834" lon="0.57687">
        <ele>51.8</ele>
        <time>2023-07-18T07:18:39Z</time>
      </trkpt>
      <trkpt lat="47.36832" lon="0.57678">
        <ele>51.8</ele>
        <time>2023-07-18T07:18:40Z</time>
      </trkpt>
      <trkpt lat="47.36829" lon="0.57668">
        <ele>51.8</ele>
        <time>2023-07-18T07:18:41Z</time>
      </trkpt>
      <trkpt lat="47.36826" lon="0.57659">
        <ele>51.6</ele>
        <time>2023-07-18T07:18:42Z</time>
      </trkpt>
      <trkpt lat="47.36824" lon="0.57648">
        <ele>51.6</ele>
        <time>2023-07-18T07:18:43Z</time>
      </trkpt>
      <trkpt lat="47.36821" lon="0.57639">
        <ele>51.4</ele>
        <time>2023-07-18T07:18:44Z</time>
      </trkpt>
      <trkpt lat="47.36819" lon="0.57629">
        <ele>51.4</ele>
        <time>2023-07-18T07:18:45Z</time>
      </trkpt>
      <trkpt lat="47.36817" lon="0.57619">
        <ele>51.4</ele>
        <time>2023-07-18T07:18:46Z</time>
      </trkpt>
      <trkpt lat="47.36814" lon="0.57609">
        <ele>51.4</ele>
        <time>2023-07-18T07:18:47Z</time>
      </trkpt>
      <trkpt lat="47.36812" lon="0.57598">
        <ele>51.4</ele>
        <time>2023-07-18T07:18:48Z</time>
      </trkpt>
      <trkpt lat="47.3681" lon="0.57588">
        <ele>51.4</ele>
        <time>2023-07-18T07:18:49Z</time>
      </trkpt>
      <trkpt lat="47.36808" lon="0.57578">
        <ele>51.4</ele>
        <time>2023-07-18T07:18:50Z</time>
      </trkpt>
      <trkpt lat="47.36806" lon="0.57569">
        <ele>51.4</ele>
        <time>2023-07-18T07:18:51Z</time>
      </trkpt>
      <trkpt lat="47.36804" lon="0.57559">
        <ele>51.4</ele>
        <time>2023-07-18T07:18:52Z</time>
      </trkpt>
      <trkpt lat="47.36802" lon="0.57549">
        <ele>51.6</ele>
        <time>2023-07-18T07:18:53Z</time>
      </trkpt>
      <trkpt lat="47.368" lon="0.57539">
        <ele>51.6</ele>
        <time>2023-07-18T07:18:54Z</time>
      </trkpt>
      <trkpt lat="47.36797" lon="0.57529">
        <ele>51.6</ele>
        <time>2023-07-18T07:18:55Z</time>
      </trkpt>
      <trkpt lat="47.36795" lon="0.57519">
        <ele>51.6</ele>
        <time>2023-07-18T07:18:56Z</time>
      </trkpt>
      <trkpt lat="47.36794" lon="0.57509">
        <ele>51.6</ele>
        <time>2023-07-18T07:18:57Z</time>
      </trkpt>
      <trkpt lat="47.36791" lon="0.575">
        <ele>51.6</ele>
        <time>2023-07-18T07:18:58Z</time>
      </trkpt>
      <trkpt lat="47.36789" lon="0.5749">
        <ele>51.6</ele>
        <time>2023-07-18T07:18:59Z</time>
      </trkpt>
      <trkpt lat="47.36787" lon="0.57481">
        <ele>51.6</ele>
        <time>2023-07-18T07:19:00Z</time>
      </trkpt>
      <trkpt lat="47.36786" lon="0.57471">
        <ele>51.8</ele>
        <time>2023-07-18T07:19:01Z</time>
      </trkpt>
      <trkpt lat="47.36784" lon="0.57462">
        <ele>51.8</ele>
        <time>2023-07-18T07:19:02Z</time>
      </trkpt>
      <trkpt lat="47.36782" lon="0.57452">
        <ele>51.8</ele>
        <time>2023-07-18T07:19:03Z</time>
      </trkpt>
      <trkpt lat="47.3678" lon="0.57442">
        <ele>51.8</ele>
        <time>2023-07-18T07:19:04Z</time>
      </trkpt>
      <trkpt lat="47.36777" lon="0.57433">
        <ele>52</ele>
        <time>2023-07-18T07:19:05Z</time>
      </trkpt>
      <trkpt lat="47.36775" lon="0.57423">
        <ele>52</ele>
        <time>2023-07-18T07:19:06Z</time>
      </trkpt>
      <trkpt lat="47.36773" lon="0.57413">
        <ele>52</ele>
        <time>2023-07-18T07:19:07Z</time>
      </trkpt>
      <trkpt lat="47.3677" lon="0.57404">
        <ele>52</ele>
        <time>2023-07-18T07:19:08Z</time>
      </trkpt>
      <trkpt lat="47.36767" lon="0.57394">
        <ele>52</ele>
        <time>2023-07-18T07:19:09Z</time>
      </trkpt>
      <trkpt lat="47.36764" lon="0.57385">
        <ele>52</ele>
        <time>2023-07-18T07:19:10Z</time>
      </trkpt>
      <trkpt lat="47.36761" lon="0.57376">
        <ele>52</ele>
        <time>2023-07-18T07:19:11Z</time>
      </trkpt>
      <trkpt lat="47.36758" lon="0.57367">
        <ele>52</ele>
        <time>2023-07-18T07:19:12Z</time>
      </trkpt>
      <trkpt lat="47.36755" lon="0.57358">
        <ele>52</ele>
        <time>2023-07-18T07:19:13Z</time>
      </trkpt>
      <trkpt lat="47.36752" lon="0.57349">
        <ele>52</ele>
        <time>2023-07-18T07:19:14Z</time>
      </trkpt>
      <trkpt lat="47.36749" lon="0.57341">
        <ele>52</ele>
        <time>2023-07-18T07:19:15Z</time>
      </trkpt>
      <trkpt lat="47.36746" lon="0.57332">
        <ele>52</ele>
        <time>2023-07-18T07:19:16Z</time>
      </trkpt>
      <trkpt lat="47.36743" lon="0.57323">
        <ele>52</ele>
        <time>2023-07-18T07:19:17Z</time>
      </trkpt>
      <trkpt lat="47.3674" lon="0.57314">
        <ele>51.8</ele>
        <time>2023-07-18T07:19:18Z</time>
      </trkpt>
      <trkpt lat="47.36738" lon="0.57305">
        <ele>51.8</ele>
        <time>2023-07-18T07:19:19Z</time>
      </trkpt>
      <trkpt lat="47.36735" lon="0.57296">
        <ele>51.8</ele>
        <time>2023-07-18T07:19:20Z</time>
      </trkpt>
      <trkpt lat="47.36732" lon="0.57287">
        <ele>51.8</ele>
        <time>2023-07-18T07:19:21Z</time>
      </trkpt>
      <trkpt lat="47.36731" lon="0.57278">
        <ele>51.8</ele>
        <time>2023-07-18T07:19:22Z</time>
      </trkpt>
      <trkpt lat="47.36729" lon="0.57268">
        <ele>51.8</ele>
        <time>2023-07-18T07:19:23Z</time>
      </trkpt>
      <trkpt lat="47.36727" lon="0.57258">
        <ele>51.8</ele>
        <time>2023-07-18T07:19:24Z</time>
      </trkpt>
      <trkpt lat="47.36725" lon="0.5725">
        <ele>51.8</ele>
        <time>2023-07-18T07:19:25Z</time>
      </trkpt>
      <trkpt lat="47.36724" lon="0.57241">
        <ele>52</ele>
        <time>2023-07-18T07:19:26Z</time>
      </trkpt>
      <trkpt lat="47.36723" lon="0.57232">
        <ele>52</ele>
        <time>2023-07-18T07:19:27Z</time>
      </trkpt>
      <trkpt lat="47.36723" lon="0.57222">
        <ele>52</ele>
        <time>2023-07-18T07:19:28Z</time>
      </trkpt>
      <trkpt lat="47.36722" lon="0.57212">
        <ele>52</ele>
        <time>2023-07-18T07:19:29Z</time>
      </trkpt>
      <trkpt lat="47.36721" lon="0.57201">
        <ele>52</ele>
        <time>2023-07-18T07:19:30Z</time>
      </trkpt>
      <trkpt lat="47.36721" lon="0.57191">
        <ele>52</ele>
        <time>2023-07-18T07:19:31Z</time>
      </trkpt>
      <trkpt lat="47.3672" lon="0.57181">
        <ele>52</ele>
        <time>2023-07-18T07:19:32Z</time>
      </trkpt>
      <trkpt lat="47.3672" lon="0.57171">
        <ele>52</ele>
        <time>2023-07-18T07:19:33Z</time>
      </trkpt>
      <trkpt lat="47.36719" lon="0.57161">
        <ele>52</ele>
        <time>2023-07-18T07:19:34Z</time>
      </trkpt>
      <trkpt lat="47.36718" lon="0.57151">
        <ele>52</ele>
        <time>2023-07-18T07:19:35Z</time>
      </trkpt>
      <trkpt lat="47.36718" lon="0.57141">
        <ele>52</ele>
        <time>2023-07-18T07:19:36Z</time>
      </trkpt>
      <trkpt lat="47.36717" lon="0.57131">
        <ele>52</ele>
        <time>2023-07-18T07:19:37Z</time>
      </trkpt>
      <trkpt lat="47.36717" lon="0.5712">
        <ele>52</ele>
        <time>2023-07-18T07:19:38Z</time>
      </trkpt>
      <trkpt lat="47.36716" lon="0.5711">
        <ele>52</ele>
        <time>2023-07-18T07:19:39Z</time>
      </trkpt>
      <trkpt lat="47.36716" lon="0.571">
        <ele>52</ele>
        <time>2023-07-18T07:19:40Z</time>
      </trkpt>
      <trkpt lat="47.36715" lon="0.5709">
        <ele>52</ele>
        <time>2023-07-18T07:19:41Z</time>
      </trkpt>
      <trkpt lat="47.36714" lon="0.5708">
        <ele>52</ele>
        <time>2023-07-18T07:19:42Z</time>
      </trkpt>
      <trkpt lat="47.36713" lon="0.5707">
        <ele>51.8</ele>
        <time>2023-07-18T07:19:43Z</time>
      </trkpt>
      <trkpt lat="47.36712" lon="0.5706">
        <ele>51.8</ele>
        <time>2023-07-18T07:19:44Z</time>
      </trkpt>
      <trkpt lat="47.36711" lon="0.5705">
        <ele>51.8</ele>
        <time>2023-07-18T07:19:45Z</time>
      </trkpt>
      <trkpt lat="47.3671" lon="0.5704">
        <ele>51.8</ele>
        <time>2023-07-18T07:19:46Z</time>
      </trkpt>
      <trkpt lat="47.36708" lon="0.5703">
        <ele>51.8</ele>
        <time>2023-07-18T07:19:47Z</time>
      </trkpt>
      <trkpt lat="47.36707" lon="0.5702">
        <ele>51.8</ele>
        <time>2023-07-18T07:19:48Z</time>
      </trkpt>
      <trkpt lat="47.36705" lon="0.57011">
        <ele>52</ele>
        <time>2023-07-18T07:19:49Z</time>
      </trkpt>
      <trkpt lat="47.36703" lon="0.57001">
        <ele>52</ele>
        <time>2023-07-18T07:19:50Z</time>
      </trkpt>
      <trkpt lat="47.36702" lon="0.56991">
        <ele>52</ele>
        <time>2023-07-18T07:19:51Z</time>
      </trkpt>
      <trkpt lat="47.367" lon="0.56982">
        <ele>52</ele>
        <time>2023-07-18T07:19:52Z</time>
      </trkpt>
      <trkpt lat="47.36699" lon="0.56972">
        <ele>52</ele>
        <time>2023-07-18T07:19:53Z</time>
      </trkpt>
      <trkpt lat="47.36696" lon="0.56963">
        <ele>52</ele>
        <time>2023-07-18T07:19:54Z</time>
      </trkpt>
      <trkpt lat="47.36694" lon="0.56953">
        <ele>52</ele>
        <time>2023-07-18T07:19:55Z</time>
      </trkpt>
      <trkpt lat="47.36692" lon="0.56944">
        <ele>52</ele>
        <time>2023-07-18T07:19:56Z</time>
      </trkpt>
      <trkpt lat="47.36689" lon="0.56935">
        <ele>52</ele>
        <time>2023-07-18T07:19:57Z</time>
      </trkpt>
      <trkpt lat="47.36686" lon="0.56926">
        <ele>52</ele>
        <time>2023-07-18T07:19:58Z</time>
      </trkpt>
      <trkpt lat="47.36683" lon="0.56917">
        <ele>52</ele>
        <time>2023-07-18T07:19:59Z</time>
      </trkpt>
      <trkpt lat="47.3668" lon="0.56908">
        <ele>52</ele>
        <time>2023-07-18T07:20:00Z</time>
      </trkpt>
      <trkpt lat="47.36676" lon="0.569">
        <ele>52</ele>
        <time>2023-07-18T07:20:01Z</time>
      </trkpt>
      <trkpt lat="47.36673" lon="0.56891">
        <ele>52</ele>
        <time>2023-07-18T07:20:02Z</time>
      </trkpt>
      <trkpt lat="47.3667" lon="0.56883">
        <ele>52.2</ele>
        <time>2023-07-18T07:20:03Z</time>
      </trkpt>
      <trkpt lat="47.36666" lon="0.56874">
        <ele>52.2</ele>
        <time>2023-07-18T07:20:04Z</time>
      </trkpt>
      <trkpt lat="47.36662" lon="0.56865">
        <ele>52.2</ele>
        <time>2023-07-18T07:20:05Z</time>
      </trkpt>
      <trkpt lat="47.3666" lon="0.56855">
        <ele>52.4</ele>
        <time>2023-07-18T07:20:06Z</time>
      </trkpt>
      <trkpt lat="47.36658" lon="0.56845">
        <ele>52.4</ele>
        <time>2023-07-18T07:20:07Z</time>
      </trkpt>
      <trkpt lat="47.36658" lon="0.56835">
        <ele>52.4</ele>
        <time>2023-07-18T07:20:08Z</time>
      </trkpt>
      <trkpt lat="47.36658" lon="0.56825">
        <ele>52.4</ele>
        <time>2023-07-18T07:20:09Z</time>
      </trkpt>
      <trkpt lat="47.36659" lon="0.56815">
        <ele>52.4</ele>
        <time>2023-07-18T07:20:10Z</time>
      </trkpt>
      <trkpt lat="47.3666" lon="0.56805">
        <ele>52.4</ele>
        <time>2023-07-18T07:20:11Z</time>
      </trkpt>
      <trkpt lat="47.36662" lon="0.56796">
        <ele>52.4</ele>
        <time>2023-07-18T07:20:12Z</time>
      </trkpt>
      <trkpt lat="47.36664" lon="0.56786">
        <ele>52.4</ele>
        <time>2023-07-18T07:20:13Z</time>
      </trkpt>
      <trkpt lat="47.36666" lon="0.56776">
        <ele>52.4</ele>
        <time>2023-07-18T07:20:14Z</time>
      </trkpt>
      <trkpt lat="47.36667" lon="0.56767">
        <ele>52.4</ele>
        <time>2023-07-18T07:20:15Z</time>
      </trkpt>
      <trkpt lat="47.36669" lon="0.56757">
        <ele>52.4</ele>
        <time>2023-07-18T07:20:16Z</time>
      </trkpt>
      <trkpt lat="47.3667" lon="0.56747">
        <ele>52.4</ele>
        <time>2023-07-18T07:20:17Z</time>
      </trkpt>
      <trkpt lat="47.36672" lon="0.56737">
        <ele>52.2</ele>
        <time>2023-07-18T07:20:18Z</time>
      </trkpt>
      <trkpt lat="47.36673" lon="0.56728">
        <ele>52.4</ele>
        <time>2023-07-18T07:20:19Z</time>
      </trkpt>
      <trkpt lat="47.36675" lon="0.56719">
        <ele>52.4</ele>
        <time>2023-07-18T07:20:20Z</time>
      </trkpt>
      <trkpt lat="47.36678" lon="0.5671">
        <ele>52.4</ele>
        <time>2023-07-18T07:20:21Z</time>
      </trkpt>
      <trkpt lat="47.36681" lon="0.56702">
        <ele>52.4</ele>
        <time>2023-07-18T07:20:22Z</time>
      </trkpt>
      <trkpt lat="47.36685" lon="0.56694">
        <ele>52.6</ele>
        <time>2023-07-18T07:20:23Z</time>
      </trkpt>
      <trkpt lat="47.3669" lon="0.56686">
        <ele>52.6</ele>
        <time>2023-07-18T07:20:24Z</time>
      </trkpt>
      <trkpt lat="47.36695" lon="0.56678">
        <ele>52.6</ele>
        <time>2023-07-18T07:20:25Z</time>
      </trkpt>
      <trkpt lat="47.367" lon="0.56671">
        <ele>52.6</ele>
        <time>2023-07-18T07:20:26Z</time>
      </trkpt>
      <trkpt lat="47.36705" lon="0.56665">
        <ele>52.6</ele>
        <time>2023-07-18T07:20:27Z</time>
      </trkpt>
      <trkpt lat="47.36711" lon="0.56659">
        <ele>52.6</ele>
        <time>2023-07-18T07:20:28Z</time>
      </trkpt>
      <trkpt lat="47.36717" lon="0.56654">
        <ele>52.4</ele>
        <time>2023-07-18T07:20:29Z</time>
      </trkpt>
      <trkpt lat="47.36723" lon="0.5665">
        <ele>52.6</ele>
        <time>2023-07-18T07:20:30Z</time>
      </trkpt>
      <trkpt lat="47.36729" lon="0.56647">
        <ele>52.4</ele>
        <time>2023-07-18T07:20:31Z</time>
      </trkpt>
      <trkpt lat="47.36736" lon="0.56643">
        <ele>52.4</ele>
        <time>2023-07-18T07:20:32Z</time>
      </trkpt>
      <trkpt lat="47.36742" lon="0.5664">
        <ele>52.4</ele>
        <time>2023-07-18T07:20:33Z</time>
      </trkpt>
      <trkpt lat="47.36747" lon="0.56637">
        <ele>52.2</ele>
        <time>2023-07-18T07:20:34Z</time>
      </trkpt>
      <trkpt lat="47.36752" lon="0.56632">
        <ele>52</ele>
        <time>2023-07-18T07:20:35Z</time>
      </trkpt>
      <trkpt lat="47.36757" lon="0.56626">
        <ele>51.8</ele>
        <time>2023-07-18T07:20:36Z</time>
      </trkpt>
      <trkpt lat="47.36759" lon="0.56617">
        <ele>51.8</ele>
        <time>2023-07-18T07:20:37Z</time>
      </trkpt>
      <trkpt lat="47.36759" lon="0.56608">
        <ele>51.6</ele>
        <time>2023-07-18T07:20:38Z</time>
      </trkpt>
      <trkpt lat="47.36757" lon="0.56599">
        <ele>51.6</ele>
        <time>2023-07-18T07:20:39Z</time>
      </trkpt>
      <trkpt lat="47.36754" lon="0.5659">
        <ele>51.4</ele>
        <time>2023-07-18T07:20:40Z</time>
      </trkpt>
      <trkpt lat="47.36751" lon="0.56581">
        <ele>51.4</ele>
        <time>2023-07-18T07:20:41Z</time>
      </trkpt>
      <trkpt lat="47.36749" lon="0.56571">
        <ele>51.4</ele>
        <time>2023-07-18T07:20:42Z</time>
      </trkpt>
      <trkpt lat="47.36747" lon="0.56562">
        <ele>51.2</ele>
        <time>2023-07-18T07:20:43Z</time>
      </trkpt>
      <trkpt lat="47.36746" lon="0.56552">
        <ele>51.2</ele>
        <time>2023-07-18T07:20:44Z</time>
      </trkpt>
      <trkpt lat="47.36747" lon="0.56542">
        <ele>51.2</ele>
        <time>2023-07-18T07:20:45Z</time>
      </trkpt>
      <trkpt lat="47.36749" lon="0.56533">
        <ele>51.4</ele>
        <time>2023-07-18T07:20:46Z</time>
      </trkpt>
      <trkpt lat="47.36752" lon="0.56524">
        <ele>51.4</ele>
        <time>2023-07-18T07:20:47Z</time>
      </trkpt>
      <trkpt lat="47.36755" lon="0.56516">
        <ele>51.6</ele>
        <time>2023-07-18T07:20:48Z</time>
      </trkpt>
      <trkpt lat="47.36758" lon="0.56507">
        <ele>51.6</ele>
        <time>2023-07-18T07:20:49Z</time>
      </trkpt>
      <trkpt lat="47.36762" lon="0.56499">
        <ele>51.6</ele>
        <time>2023-07-18T07:20:50Z</time>
      </trkpt>
      <trkpt lat="47.36765" lon="0.5649">
        <ele>51.6</ele>
        <time>2023-07-18T07:20:51Z</time>
      </trkpt>
      <trkpt lat="47.36769" lon="0.56481">
        <ele>51.6</ele>
        <time>2023-07-18T07:20:52Z</time>
      </trkpt>
      <trkpt lat="47.36773" lon="0.56474">
        <ele>51.8</ele>
        <time>2023-07-18T07:20:53Z</time>
      </trkpt>
      <trkpt lat="47.36778" lon="0.56468">
        <ele>51.8</ele>
        <time>2023-07-18T07:20:54Z</time>
      </trkpt>
      <trkpt lat="47.36784" lon="0.56463">
        <ele>51.8</ele>
        <time>2023-07-18T07:20:55Z</time>
      </trkpt>
      <trkpt lat="47.36791" lon="0.5646">
        <ele>52</ele>
        <time>2023-07-18T07:20:56Z</time>
      </trkpt>
      <trkpt lat="47.36797" lon="0.56457">
        <ele>52</ele>
        <time>2023-07-18T07:20:57Z</time>
      </trkpt>
      <trkpt lat="47.36804" lon="0.56455">
        <ele>52.2</ele>
        <time>2023-07-18T07:20:58Z</time>
      </trkpt>
      <trkpt lat="47.36811" lon="0.56453">
        <ele>52.2</ele>
        <time>2023-07-18T07:20:59Z</time>
      </trkpt>
      <trkpt lat="47.36817" lon="0.56451">
        <ele>52.2</ele>
        <time>2023-07-18T07:21:00Z</time>
      </trkpt>
      <trkpt lat="47.36824" lon="0.56449">
        <ele>52.2</ele>
        <time>2023-07-18T07:21:01Z</time>
      </trkpt>
      <trkpt lat="47.36831" lon="0.56446">
        <ele>52.2</ele>
        <time>2023-07-18T07:21:02Z</time>
      </trkpt>
      <trkpt lat="47.36837" lon="0.56444">
        <ele>52.2</ele>
        <time>2023-07-18T07:21:03Z</time>
      </trkpt>
      <trkpt lat="47.36843" lon="0.56441">
        <ele>52.4</ele>
        <time>2023-07-18T07:21:04Z</time>
      </trkpt>
      <trkpt lat="47.3685" lon="0.56438">
        <ele>52.4</ele>
        <time>2023-07-18T07:21:05Z</time>
      </trkpt>
      <trkpt lat="47.36856" lon="0.56434">
        <ele>52.4</ele>
        <time>2023-07-18T07:21:06Z</time>
      </trkpt>
      <trkpt lat="47.36862" lon="0.56429">
        <ele>52.4</ele>
        <time>2023-07-18T07:21:07Z</time>
      </trkpt>
      <trkpt lat="47.36868" lon="0.56422">
        <ele>52.4</ele>
        <time>2023-07-18T07:21:08Z</time>
      </trkpt>
      <trkpt lat="47.36872" lon="0.56414">
        <ele>52.4</ele>
        <time>2023-07-18T07:21:09Z</time>
      </trkpt>
      <trkpt lat="47.36875" lon="0.56405">
        <ele>52.4</ele>
        <time>2023-07-18T07:21:10Z</time>
      </trkpt>
      <trkpt lat="47.36877" lon="0.56395">
        <ele>52.4</ele>
        <time>2023-07-18T07:21:11Z</time>
      </trkpt>
      <trkpt lat="47.36877" lon="0.56385">
        <ele>52.4</ele>
        <time>2023-07-18T07:21:12Z</time>
      </trkpt>
      <trkpt lat="47.36876" lon="0.56375">
        <ele>52.4</ele>
        <time>2023-07-18T07:21:13Z</time>
      </trkpt>
      <trkpt lat="47.36875" lon="0.56365">
        <ele>52.4</ele>
        <time>2023-07-18T07:21:14Z</time>
      </trkpt>
      <trkpt lat="47.36873" lon="0.56355">
        <ele>52.6</ele>
        <time>2023-07-18T07:21:15Z</time>
      </trkpt>
      <trkpt lat="47.36872" lon="0.56345">
        <ele>52.4</ele>
        <time>2023-07-18T07:21:16Z</time>
      </trkpt>
      <trkpt lat="47.36871" lon="0.56335">
        <ele>52.4</ele>
        <time>2023-07-18T07:21:17Z</time>
      </trkpt>
      <trkpt lat="47.3687" lon="0.56325">
        <ele>52.6</ele>
        <time>2023-07-18T07:21:18Z</time>
      </trkpt>
      <trkpt lat="47.36869" lon="0.56314">
        <ele>52.6</ele>
        <time>2023-07-18T07:21:19Z</time>
      </trkpt>
      <trkpt lat="47.36868" lon="0.56304">
        <ele>52.6</ele>
        <time>2023-07-18T07:21:20Z</time>
      </trkpt>
      <trkpt lat="47.36868" lon="0.56293">
        <ele>52.6</ele>
        <time>2023-07-18T07:21:21Z</time>
      </trkpt>
      <trkpt lat="47.36868" lon="0.56283">
        <ele>52.8</ele>
        <time>2023-07-18T07:21:22Z</time>
      </trkpt>
      <trkpt lat="47.36868" lon="0.56273">
        <ele>52.6</ele>
        <time>2023-07-18T07:21:23Z</time>
      </trkpt>
      <trkpt lat="47.36868" lon="0.56262">
        <ele>52.6</ele>
        <time>2023-07-18T07:21:24Z</time>
      </trkpt>
      <trkpt lat="47.36869" lon="0.56252">
        <ele>52.6</ele>
        <time>2023-07-18T07:21:25Z</time>
      </trkpt>
      <trkpt lat="47.3687" lon="0.56242">
        <ele>52.6</ele>
        <time>2023-07-18T07:21:26Z</time>
      </trkpt>
      <trkpt lat="47.36871" lon="0.56232">
        <ele>52.4</ele>
        <time>2023-07-18T07:21:27Z</time>
      </trkpt>
      <trkpt lat="47.36871" lon="0.56221">
        <ele>52.4</ele>
        <time>2023-07-18T07:21:28Z</time>
      </trkpt>
      <trkpt lat="47.36872" lon="0.56212">
        <ele>52.2</ele>
        <time>2023-07-18T07:21:29Z</time>
      </trkpt>
      <trkpt lat="47.36872" lon="0.56202">
        <ele>52.2</ele>
        <time>2023-07-18T07:21:30Z</time>
      </trkpt>
      <trkpt lat="47.36871" lon="0.56192">
        <ele>52.2</ele>
        <time>2023-07-18T07:21:31Z</time>
      </trkpt>
      <trkpt lat="47.36871" lon="0.56182">
        <ele>52.2</ele>
        <time>2023-07-18T07:21:32Z</time>
      </trkpt>
      <trkpt lat="47.36871" lon="0.56171">
        <ele>52</ele>
        <time>2023-07-18T07:21:33Z</time>
      </trkpt>
      <trkpt lat="47.36871" lon="0.56162">
        <ele>52</ele>
        <time>2023-07-18T07:21:34Z</time>
      </trkpt>
      <trkpt lat="47.36872" lon="0.56152">
        <ele>52</ele>
        <time>2023-07-18T07:21:35Z</time>
      </trkpt>
      <trkpt lat="47.36875" lon="0.56144">
        <ele>51.8</ele>
        <time>2023-07-18T07:21:36Z</time>
      </trkpt>
      <trkpt lat="47.3688" lon="0.56138">
        <ele>51.8</ele>
        <time>2023-07-18T07:21:37Z</time>
      </trkpt>
      <trkpt lat="47.36885" lon="0.56133">
        <ele>51.6</ele>
        <time>2023-07-18T07:21:38Z</time>
      </trkpt>
      <trkpt lat="47.3689" lon="0.5613">
        <ele>51.8</ele>
        <time>2023-07-18T07:21:39Z</time>
      </trkpt>
      <trkpt lat="47.36897" lon="0.56128">
        <ele>51.6</ele>
        <time>2023-07-18T07:21:40Z</time>
      </trkpt>
      <trkpt lat="47.36903" lon="0.56127">
        <ele>51.6</ele>
        <time>2023-07-18T07:21:41Z</time>
      </trkpt>
      <trkpt lat="47.36909" lon="0.56125">
        <ele>51.8</ele>
        <time>2023-07-18T07:21:42Z</time>
      </trkpt>
      <trkpt lat="47.36915" lon="0.56124">
        <ele>51.8</ele>
        <time>2023-07-18T07:21:43Z</time>
      </trkpt>
      <trkpt lat="47.36922" lon="0.56122">
        <ele>51.8</ele>
        <time>2023-07-18T07:21:44Z</time>
      </trkpt>
      <trkpt lat="47.36928" lon="0.5612">
        <ele>52</ele>
        <time>2023-07-18T07:21:45Z</time>
      </trkpt>
      <trkpt lat="47.36934" lon="0.56118">
        <ele>52</ele>
        <time>2023-07-18T07:21:46Z</time>
      </trkpt>
      <trkpt lat="47.3694" lon="0.56116">
        <ele>52</ele>
        <time>2023-07-18T07:21:47Z</time>
      </trkpt>
      <trkpt lat="47.36946" lon="0.56115">
        <ele>52</ele>
        <time>2023-07-18T07:21:48Z</time>
      </trkpt>
      <trkpt lat="47.36953" lon="0.56113">
        <ele>52</ele>
        <time>2023-07-18T07:21:49Z</time>
      </trkpt>
      <trkpt lat="47.36959" lon="0.56111">
        <ele>52</ele>
        <time>2023-07-18T07:21:50Z</time>
      </trkpt>
      <trkpt lat="47.36965" lon="0.5611">
        <ele>52</ele>
        <time>2023-07-18T07:21:51Z</time>
      </trkpt>
      <trkpt lat="47.36972" lon="0.56108">
        <ele>52</ele>
        <time>2023-07-18T07:21:52Z</time>
      </trkpt>
      <trkpt lat="47.36978" lon="0.56107">
        <ele>52</ele>
        <time>2023-07-18T07:21:53Z</time>
      </trkpt>
      <trkpt lat="47.36984" lon="0.56105">
        <ele>52</ele>
        <time>2023-07-18T07:21:54Z</time>
      </trkpt>
      <trkpt lat="47.3699" lon="0.56103">
        <ele>52</ele>
        <time>2023-07-18T07:21:55Z</time>
      </trkpt>
      <trkpt lat="47.36997" lon="0.56102">
        <ele>52</ele>
        <time>2023-07-18T07:21:56Z</time>
      </trkpt>
      <trkpt lat="47.37002" lon="0.561">
        <ele>52.2</ele>
        <time>2023-07-18T07:21:57Z</time>
      </trkpt>
      <trkpt lat="47.37008" lon="0.56098">
        <ele>52</ele>
        <time>2023-07-18T07:21:58Z</time>
      </trkpt>
      <trkpt lat="47.37014" lon="0.56096">
        <ele>52</ele>
        <time>2023-07-18T07:21:59Z</time>
      </trkpt>
      <trkpt lat="47.37019" lon="0.56093">
        <ele>51.8</ele>
        <time>2023-07-18T07:22:00Z</time>
      </trkpt>
      <trkpt lat="47.37023" lon="0.56087">
        <ele>51.8</ele>
        <time>2023-07-18T07:22:01Z</time>
      </trkpt>
      <trkpt lat="47.37024" lon="0.5608">
        <ele>51.8</ele>
        <time>2023-07-18T07:22:02Z</time>
      </trkpt>
      <trkpt lat="47.37025" lon="0.56072">
        <ele>51.8</ele>
        <time>2023-07-18T07:22:03Z</time>
      </trkpt>
      <trkpt lat="47.37024" lon="0.56064">
        <ele>51.8</ele>
        <time>2023-07-18T07:22:04Z</time>
      </trkpt>
      <trkpt lat="47.37022" lon="0.56055">
        <ele>51.8</ele>
        <time>2023-07-18T07:22:05Z</time>
      </trkpt>
      <trkpt lat="47.3702" lon="0.56048">
        <ele>51.8</ele>
        <time>2023-07-18T07:22:06Z</time>
      </trkpt>
      <trkpt lat="47.37017" lon="0.56039">
        <ele>51.8</ele>
        <time>2023-07-18T07:22:07Z</time>
      </trkpt>
      <trkpt lat="47.37015" lon="0.56031">
        <ele>51.8</ele>
        <time>2023-07-18T07:22:08Z</time>
      </trkpt>
      <trkpt lat="47.37012" lon="0.56022">
        <ele>51.8</ele>
        <time>2023-07-18T07:22:09Z</time>
      </trkpt>
      <trkpt lat="47.3701" lon="0.56014">
        <ele>52</ele>
        <time>2023-07-18T07:22:10Z</time>
      </trkpt>
      <trkpt lat="47.37008" lon="0.56005">
        <ele>52</ele>
        <time>2023-07-18T07:22:11Z</time>
      </trkpt>
      <trkpt lat="47.37005" lon="0.55997">
        <ele>51.8</ele>
        <time>2023-07-18T07:22:12Z</time>
      </trkpt>
      <trkpt lat="47.37003" lon="0.55988">
        <ele>51.8</ele>
        <time>2023-07-18T07:22:13Z</time>
      </trkpt>
      <trkpt lat="47.37001" lon="0.5598">
        <ele>51.8</ele>
        <time>2023-07-18T07:22:14Z</time>
      </trkpt>
      <trkpt lat="47.36999" lon="0.55971">
        <ele>51.6</ele>
        <time>2023-07-18T07:22:15Z</time>
      </trkpt>
      <trkpt lat="47.36998" lon="0.55965">
        <ele>51.6</ele>
        <time>2023-07-18T07:22:16Z</time>
      </trkpt>
      <trkpt lat="47.36996" lon="0.55961">
        <ele>51.6</ele>
        <time>2023-07-18T07:22:17Z</time>
      </trkpt>
      <trkpt lat="47.36995" lon="0.55957">
        <ele>51.4</ele>
        <time>2023-07-18T07:22:18Z</time>
      </trkpt>
      <trkpt lat="47.36993" lon="0.55955">
        <ele>51.4</ele>
        <time>2023-07-18T07:22:19Z</time>
      </trkpt>
      <trkpt lat="47.36993" lon="0.55952">
        <ele>51.2</ele>
        <time>2023-07-18T07:23:17Z</time>
      </trkpt>
      <trkpt lat="47.36992" lon="0.55949">
        <ele>51.2</ele>
        <time>2023-07-18T07:23:18Z</time>
      </trkpt>
      <trkpt lat="47.36991" lon="0.55946">
        <ele>51.2</ele>
        <time>2023-07-18T07:23:19Z</time>
      </trkpt>
      <trkpt lat="47.36991" lon="0.55941">
        <ele>51.2</ele>
        <time>2023-07-18T07:23:20Z</time>
      </trkpt>
      <trkpt lat="47.3699" lon="0.55936">
        <ele>51.2</ele>
        <time>2023-07-18T07:23:21Z</time>
      </trkpt>
      <trkpt lat="47.36989" lon="0.5593">
        <ele>51.2</ele>
        <time>2023-07-18T07:23:22Z</time>
      </trkpt>
      <trkpt lat="47.36987" lon="0.55924">
        <ele>51.2</ele>
        <time>2023-07-18T07:23:23Z</time>
      </trkpt>
      <trkpt lat="47.36985" lon="0.55919">
        <ele>51.2</ele>
        <time>2023-07-18T07:23:24Z</time>
      </trkpt>
      <trkpt lat="47.36983" lon="0.55913">
        <ele>51.2</ele>
        <time>2023-07-18T07:23:25Z</time>
      </trkpt>
      <trkpt lat="47.36981" lon="0.55906">
        <ele>51.4</ele>
        <time>2023-07-18T07:23:26Z</time>
      </trkpt>
      <trkpt lat="47.36979" lon="0.55899">
        <ele>51.4</ele>
        <time>2023-07-18T07:23:27Z</time>
      </trkpt>
      <trkpt lat="47.36977" lon="0.55891">
        <ele>51.4</ele>
        <time>2023-07-18T07:23:28Z</time>
      </trkpt>
      <trkpt lat="47.36975" lon="0.55885">
        <ele>51.4</ele>
        <time>2023-07-18T07:23:29Z</time>
      </trkpt>
      <trkpt lat="47.36974" lon="0.55878">
        <ele>51.4</ele>
        <time>2023-07-18T07:23:30Z</time>
      </trkpt>
      <trkpt lat="47.36972" lon="0.55874">
        <ele>51.4</ele>
        <time>2023-07-18T07:23:31Z</time>
      </trkpt>
      <trkpt lat="47.36972" lon="0.55869">
        <ele>51.4</ele>
        <time>2023-07-18T07:23:32Z</time>
      </trkpt>
      <trkpt lat="47.36971" lon="0.55865">
        <ele>51.2</ele>
        <time>2023-07-18T07:23:33Z</time>
      </trkpt>
      <trkpt lat="47.3697" lon="0.5586">
        <ele>51.2</ele>
        <time>2023-07-18T07:23:34Z</time>
      </trkpt>
      <trkpt lat="47.36968" lon="0.55857">
        <ele>51.2</ele>
        <time>2023-07-18T07:23:35Z</time>
      </trkpt>
      <trkpt lat="47.36967" lon="0.55853">
        <ele>51.2</ele>
        <time>2023-07-18T07:23:36Z</time>
      </trkpt>
      <trkpt lat="47.36966" lon="0.55849">
        <ele>51.2</ele>
        <time>2023-07-18T07:23:37Z</time>
      </trkpt>
      <trkpt lat="47.36966" lon="0.55845">
        <ele>51.2</ele>
        <time>2023-07-18T07:23:38Z</time>
      </trkpt>
      <trkpt lat="47.36966" lon="0.55842">
        <ele>51.2</ele>
        <time>2023-07-18T07:23:39Z</time>
      </trkpt>
      <trkpt lat="47.36965" lon="0.55838">
        <ele>51.2</ele>
        <time>2023-07-18T07:23:40Z</time>
      </trkpt>
      <trkpt lat="47.36964" lon="0.55835">
        <ele>51.2</ele>
        <time>2023-07-18T07:23:41Z</time>
      </trkpt>
      <trkpt lat="47.36963" lon="0.55831">
        <ele>51.2</ele>
        <time>2023-07-18T07:23:42Z</time>
      </trkpt>
      <trkpt lat="47.36963" lon="0.55828">
        <ele>51.2</ele>
        <time>2023-07-18T07:23:43Z</time>
      </trkpt>
      <trkpt lat="47.36961" lon="0.55825">
        <ele>51.2</ele>
        <time>2023-07-18T07:23:44Z</time>
      </trkpt>
      <trkpt lat="47.36961" lon="0.55822">
        <ele>51.2</ele>
        <time>2023-07-18T07:23:45Z</time>
      </trkpt>
      <trkpt lat="47.3696" lon="0.55819">
        <ele>51.2</ele>
        <time>2023-07-18T07:23:46Z</time>
      </trkpt>
      <trkpt lat="47.36959" lon="0.55816">
        <ele>51.2</ele>
        <time>2023-07-18T07:23:47Z</time>
      </trkpt>
      <trkpt lat="47.36959" lon="0.55813">
        <ele>51.2</ele>
        <time>2023-07-18T07:23:48Z</time>
      </trkpt>
      <trkpt lat="47.36958" lon="0.5581">
        <ele>51.2</ele>
        <time>2023-07-18T07:23:49Z</time>
      </trkpt>
      <trkpt lat="47.36957" lon="0.55807">
        <ele>51.2</ele>
        <time>2023-07-18T07:23:50Z</time>
      </trkpt>
      <trkpt lat="47.36956" lon="0.55804">
        <ele>51.2</ele>
        <time>2023-07-18T07:23:51Z</time>
      </trkpt>
      <trkpt lat="47.36956" lon="0.55801">
        <ele>51.2</ele>
        <time>2023-07-18T07:23:52Z</time>
      </trkpt>
      <trkpt lat="47.36954" lon="0.55798">
        <ele>51.2</ele>
        <time>2023-07-18T07:23:53Z</time>
      </trkpt>
      <trkpt lat="47.36953" lon="0.55796">
        <ele>51.2</ele>
        <time>2023-07-18T07:23:54Z</time>
      </trkpt>
      <trkpt lat="47.36953" lon="0.55793">
        <ele>51.2</ele>
        <time>2023-07-18T07:23:55Z</time>
      </trkpt>
      <trkpt lat="47.36952" lon="0.5579">
        <ele>51.2</ele>
        <time>2023-07-18T07:23:56Z</time>
      </trkpt>
      <trkpt lat="47.36952" lon="0.55788">
        <ele>51.2</ele>
        <time>2023-07-18T07:23:57Z</time>
      </trkpt>
      <trkpt lat="47.36951" lon="0.55786">
        <ele>51.2</ele>
        <time>2023-07-18T07:23:58Z</time>
      </trkpt>
      <trkpt lat="47.36951" lon="0.55783">
        <ele>51.2</ele>
        <time>2023-07-18T07:23:59Z</time>
      </trkpt>
      <trkpt lat="47.36949" lon="0.5578">
        <ele>51.2</ele>
        <time>2023-07-18T07:24:00Z</time>
      </trkpt>
      <trkpt lat="47.36948" lon="0.55776">
        <ele>51.2</ele>
        <time>2023-07-18T07:24:01Z</time>
      </trkpt>
      <trkpt lat="47.36947" lon="0.55772">
        <ele>51.2</ele>
        <time>2023-07-18T07:24:02Z</time>
      </trkpt>
      <trkpt lat="47.36946" lon="0.55768">
        <ele>51.2</ele>
        <time>2023-07-18T07:24:03Z</time>
      </trkpt>
      <trkpt lat="47.36945" lon="0.55763">
        <ele>51.2</ele>
        <time>2023-07-18T07:24:04Z</time>
      </trkpt>
      <trkpt lat="47.36944" lon="0.55759">
        <ele>51.2</ele>
        <time>2023-07-18T07:24:05Z</time>
      </trkpt>
      <trkpt lat="47.36943" lon="0.55753">
        <ele>51.2</ele>
        <time>2023-07-18T07:24:06Z</time>
      </trkpt>
      <trkpt lat="47.36942" lon="0.55748">
        <ele>51.4</ele>
        <time>2023-07-18T07:24:07Z</time>
      </trkpt>
      <trkpt lat="47.3694" lon="0.55742">
        <ele>51.4</ele>
        <time>2023-07-18T07:24:08Z</time>
      </trkpt>
      <trkpt lat="47.36939" lon="0.55736">
        <ele>51.4</ele>
        <time>2023-07-18T07:24:09Z</time>
      </trkpt>
      <trkpt lat="47.36938" lon="0.5573">
        <ele>51.4</ele>
        <time>2023-07-18T07:24:10Z</time>
      </trkpt>
      <trkpt lat="47.36937" lon="0.55723">
        <ele>51.4</ele>
        <time>2023-07-18T07:24:11Z</time>
      </trkpt>
      <trkpt lat="47.36935" lon="0.55717">
        <ele>51.4</ele>
        <time>2023-07-18T07:24:12Z</time>
      </trkpt>
      <trkpt lat="47.36934" lon="0.5571">
        <ele>51.4</ele>
        <time>2023-07-18T07:24:13Z</time>
      </trkpt>
      <trkpt lat="47.36933" lon="0.55704">
        <ele>51.6</ele>
        <time>2023-07-18T07:24:14Z</time>
      </trkpt>
      <trkpt lat="47.36932" lon="0.55698">
        <ele>51.6</ele>
        <time>2023-07-18T07:24:15Z</time>
      </trkpt>
      <trkpt lat="47.36932" lon="0.55692">
        <ele>51.8</ele>
        <time>2023-07-18T07:24:16Z</time>
      </trkpt>
      <trkpt lat="47.36932" lon="0.55686">
        <ele>51.8</ele>
        <time>2023-07-18T07:24:17Z</time>
      </trkpt>
      <trkpt lat="47.3693" lon="0.5568">
        <ele>51.8</ele>
        <time>2023-07-18T07:24:18Z</time>
      </trkpt>
      <trkpt lat="47.36929" lon="0.55673">
        <ele>51.8</ele>
        <time>2023-07-18T07:24:19Z</time>
      </trkpt>
      <trkpt lat="47.36927" lon="0.55667">
        <ele>51.8</ele>
        <time>2023-07-18T07:24:20Z</time>
      </trkpt>
      <trkpt lat="47.36926" lon="0.55659">
        <ele>51.8</ele>
        <time>2023-07-18T07:24:21Z</time>
      </trkpt>
      <trkpt lat="47.36924" lon="0.55651">
        <ele>51.8</ele>
        <time>2023-07-18T07:24:22Z</time>
      </trkpt>
      <trkpt lat="47.36922" lon="0.55644">
        <ele>52</ele>
        <time>2023-07-18T07:24:23Z</time>
      </trkpt>
      <trkpt lat="47.36921" lon="0.55636">
        <ele>52</ele>
        <time>2023-07-18T07:24:24Z</time>
      </trkpt>
      <trkpt lat="47.36919" lon="0.55628">
        <ele>52</ele>
        <time>2023-07-18T07:24:25Z</time>
      </trkpt>
      <trkpt lat="47.36917" lon="0.55619">
        <ele>52</ele>
        <time>2023-07-18T07:24:26Z</time>
      </trkpt>
      <trkpt lat="47.36915" lon="0.55611">
        <ele>52</ele>
        <time>2023-07-18T07:24:27Z</time>
      </trkpt>
      <trkpt lat="47.36913" lon="0.55603">
        <ele>52</ele>
        <time>2023-07-18T07:24:28Z</time>
      </trkpt>
      <trkpt lat="47.36911" lon="0.55595">
        <ele>52</ele>
        <time>2023-07-18T07:24:29Z</time>
      </trkpt>
      <trkpt lat="47.3691" lon="0.55586">
        <ele>52</ele>
        <time>2023-07-18T07:24:30Z</time>
      </trkpt>
      <trkpt lat="47.36908" lon="0.55577">
        <ele>52</ele>
        <time>2023-07-18T07:24:31Z</time>
      </trkpt>
      <trkpt lat="47.36908" lon="0.55569">
        <ele>52</ele>
        <time>2023-07-18T07:24:32Z</time>
      </trkpt>
      <trkpt lat="47.36907" lon="0.5556">
        <ele>52</ele>
        <time>2023-07-18T07:24:33Z</time>
      </trkpt>
      <trkpt lat="47.36906" lon="0.55551">
        <ele>52</ele>
        <time>2023-07-18T07:24:34Z</time>
      </trkpt>
      <trkpt lat="47.36905" lon="0.55543">
        <ele>52</ele>
        <time>2023-07-18T07:24:35Z</time>
      </trkpt>
      <trkpt lat="47.36904" lon="0.55534">
        <ele>52</ele>
        <time>2023-07-18T07:24:36Z</time>
      </trkpt>
      <trkpt lat="47.36903" lon="0.55526">
        <ele>52</ele>
        <time>2023-07-18T07:24:37Z</time>
      </trkpt>
      <trkpt lat="47.36902" lon="0.55517">
        <ele>52</ele>
        <time>2023-07-18T07:24:38Z</time>
      </trkpt>
      <trkpt lat="47.369" lon="0.55508">
        <ele>52</ele>
        <time>2023-07-18T07:24:39Z</time>
      </trkpt>
      <trkpt lat="47.36899" lon="0.55499">
        <ele>52</ele>
        <time>2023-07-18T07:24:40Z</time>
      </trkpt>
      <trkpt lat="47.36897" lon="0.5549">
        <ele>52</ele>
        <time>2023-07-18T07:24:41Z</time>
      </trkpt>
      <trkpt lat="47.36895" lon="0.55482">
        <ele>52.2</ele>
        <time>2023-07-18T07:24:42Z</time>
      </trkpt>
      <trkpt lat="47.36893" lon="0.55474">
        <ele>52.2</ele>
        <time>2023-07-18T07:24:43Z</time>
      </trkpt>
      <trkpt lat="47.36891" lon="0.55466">
        <ele>52.4</ele>
        <time>2023-07-18T07:24:44Z</time>
      </trkpt>
      <trkpt lat="47.36889" lon="0.55458">
        <ele>52.6</ele>
        <time>2023-07-18T07:24:45Z</time>
      </trkpt>
      <trkpt lat="47.36886" lon="0.55451">
        <ele>52.6</ele>
        <time>2023-07-18T07:24:46Z</time>
      </trkpt>
      <trkpt lat="47.36885" lon="0.55444">
        <ele>52.8</ele>
        <time>2023-07-18T07:24:47Z</time>
      </trkpt>
      <trkpt lat="47.36883" lon="0.55438">
        <ele>53</ele>
        <time>2023-07-18T07:24:48Z</time>
      </trkpt>
      <trkpt lat="47.36881" lon="0.55431">
        <ele>53.4</ele>
        <time>2023-07-18T07:24:49Z</time>
      </trkpt>
      <trkpt lat="47.3688" lon="0.55424">
        <ele>53.8</ele>
        <time>2023-07-18T07:24:50Z</time>
      </trkpt>
      <trkpt lat="47.36879" lon="0.55417">
        <ele>54.2</ele>
        <time>2023-07-18T07:24:51Z</time>
      </trkpt>
      <trkpt lat="47.36877" lon="0.5541">
        <ele>54.4</ele>
        <time>2023-07-18T07:24:52Z</time>
      </trkpt>
      <trkpt lat="47.36876" lon="0.55403">
        <ele>54.6</ele>
        <time>2023-07-18T07:24:53Z</time>
      </trkpt>
      <trkpt lat="47.36873" lon="0.55395">
        <ele>55</ele>
        <time>2023-07-18T07:24:54Z</time>
      </trkpt>
      <trkpt lat="47.36871" lon="0.55386">
        <ele>55.2</ele>
        <time>2023-07-18T07:24:55Z</time>
      </trkpt>
      <trkpt lat="47.36869" lon="0.55377">
        <ele>55.2</ele>
        <time>2023-07-18T07:24:56Z</time>
      </trkpt>
      <trkpt lat="47.36868" lon="0.55368">
        <ele>55.4</ele>
        <time>2023-07-18T07:24:57Z</time>
      </trkpt>
      <trkpt lat="47.36866" lon="0.55358">
        <ele>55.4</ele>
        <time>2023-07-18T07:24:58Z</time>
      </trkpt>
      <trkpt lat="47.36866" lon="0.55348">
        <ele>55.4</ele>
        <time>2023-07-18T07:24:59Z</time>
      </trkpt>
      <trkpt lat="47.36865" lon="0.55339">
        <ele>55.4</ele>
        <time>2023-07-18T07:25:00Z</time>
      </trkpt>
      <trkpt lat="47.36864" lon="0.55329">
        <ele>55.2</ele>
        <time>2023-07-18T07:25:01Z</time>
      </trkpt>
      <trkpt lat="47.36863" lon="0.55319">
        <ele>55.4</ele>
        <time>2023-07-18T07:25:02Z</time>
      </trkpt>
      <trkpt lat="47.36863" lon="0.55309">
        <ele>55.4</ele>
        <time>2023-07-18T07:25:03Z</time>
      </trkpt>
      <trkpt lat="47.36862" lon="0.55297">
        <ele>55.4</ele>
        <time>2023-07-18T07:25:04Z</time>
      </trkpt>
      <trkpt lat="47.36862" lon="0.55287">
        <ele>55.4</ele>
        <time>2023-07-18T07:25:05Z</time>
      </trkpt>
      <trkpt lat="47.36861" lon="0.55276">
        <ele>55.4</ele>
        <time>2023-07-18T07:25:06Z</time>
      </trkpt>
      <trkpt lat="47.36861" lon="0.55266">
        <ele>55.4</ele>
        <time>2023-07-18T07:25:07Z</time>
      </trkpt>
      <trkpt lat="47.36862" lon="0.55256">
        <ele>55.4</ele>
        <time>2023-07-18T07:25:08Z</time>
      </trkpt>
      <trkpt lat="47.36862" lon="0.55245">
        <ele>55.4</ele>
        <time>2023-07-18T07:25:09Z</time>
      </trkpt>
      <trkpt lat="47.36862" lon="0.55235">
        <ele>55.4</ele>
        <time>2023-07-18T07:25:10Z</time>
      </trkpt>
      <trkpt lat="47.36863" lon="0.55225">
        <ele>55.2</ele>
        <time>2023-07-18T07:25:11Z</time>
      </trkpt>
      <trkpt lat="47.36863" lon="0.55215">
        <ele>55.2</ele>
        <time>2023-07-18T07:25:12Z</time>
      </trkpt>
      <trkpt lat="47.36863" lon="0.55205">
        <ele>55.2</ele>
        <time>2023-07-18T07:25:13Z</time>
      </trkpt>
      <trkpt lat="47.36864" lon="0.55195">
        <ele>55</ele>
        <time>2023-07-18T07:25:14Z</time>
      </trkpt>
      <trkpt lat="47.36864" lon="0.55186">
        <ele>55</ele>
        <time>2023-07-18T07:25:15Z</time>
      </trkpt>
      <trkpt lat="47.36865" lon="0.55177">
        <ele>55</ele>
        <time>2023-07-18T07:25:16Z</time>
      </trkpt>
      <trkpt lat="47.36865" lon="0.55168">
        <ele>54.8</ele>
        <time>2023-07-18T07:25:17Z</time>
      </trkpt>
      <trkpt lat="47.36865" lon="0.5516">
        <ele>54.8</ele>
        <time>2023-07-18T07:25:18Z</time>
      </trkpt>
      <trkpt lat="47.36865" lon="0.55151">
        <ele>54.8</ele>
        <time>2023-07-18T07:25:19Z</time>
      </trkpt>
      <trkpt lat="47.36865" lon="0.55143">
        <ele>54.8</ele>
        <time>2023-07-18T07:25:20Z</time>
      </trkpt>
      <trkpt lat="47.36863" lon="0.55134">
        <ele>54.8</ele>
        <time>2023-07-18T07:25:21Z</time>
      </trkpt>
      <trkpt lat="47.36861" lon="0.55125">
        <ele>54.8</ele>
        <time>2023-07-18T07:25:22Z</time>
      </trkpt>
      <trkpt lat="47.36858" lon="0.55116">
        <ele>54.8</ele>
        <time>2023-07-18T07:25:23Z</time>
      </trkpt>
      <trkpt lat="47.36854" lon="0.55107">
        <ele>54.8</ele>
        <time>2023-07-18T07:25:24Z</time>
      </trkpt>
      <trkpt lat="47.36851" lon="0.55098">
        <ele>55</ele>
        <time>2023-07-18T07:25:25Z</time>
      </trkpt>
      <trkpt lat="47.36848" lon="0.5509">
        <ele>55</ele>
        <time>2023-07-18T07:25:26Z</time>
      </trkpt>
      <trkpt lat="47.36845" lon="0.55082">
        <ele>55.2</ele>
        <time>2023-07-18T07:25:27Z</time>
      </trkpt>
      <trkpt lat="47.36842" lon="0.55073">
        <ele>55.2</ele>
        <time>2023-07-18T07:25:28Z</time>
      </trkpt>
      <trkpt lat="47.36839" lon="0.55064">
        <ele>55.4</ele>
        <time>2023-07-18T07:25:29Z</time>
      </trkpt>
      <trkpt lat="47.36836" lon="0.55055">
        <ele>55.4</ele>
        <time>2023-07-18T07:25:30Z</time>
      </trkpt>
      <trkpt lat="47.36833" lon="0.55047">
        <ele>55.4</ele>
        <time>2023-07-18T07:25:31Z</time>
      </trkpt>
      <trkpt lat="47.36831" lon="0.55038">
        <ele>55.4</ele>
        <time>2023-07-18T07:25:32Z</time>
      </trkpt>
      <trkpt lat="47.36828" lon="0.55029">
        <ele>55.4</ele>
        <time>2023-07-18T07:25:33Z</time>
      </trkpt>
      <trkpt lat="47.36825" lon="0.5502">
        <ele>55.2</ele>
        <time>2023-07-18T07:25:34Z</time>
      </trkpt>
      <trkpt lat="47.36823" lon="0.55011">
        <ele>55.2</ele>
        <time>2023-07-18T07:25:35Z</time>
      </trkpt>
      <trkpt lat="47.3682" lon="0.55002">
        <ele>55.2</ele>
        <time>2023-07-18T07:25:36Z</time>
      </trkpt>
      <trkpt lat="47.36818" lon="0.54993">
        <ele>55.2</ele>
        <time>2023-07-18T07:25:37Z</time>
      </trkpt>
      <trkpt lat="47.36816" lon="0.54983">
        <ele>55.2</ele>
        <time>2023-07-18T07:25:38Z</time>
      </trkpt>
      <trkpt lat="47.36813" lon="0.54974">
        <ele>55.2</ele>
        <time>2023-07-18T07:25:39Z</time>
      </trkpt>
      <trkpt lat="47.36811" lon="0.54964">
        <ele>55.2</ele>
        <time>2023-07-18T07:25:40Z</time>
      </trkpt>
      <trkpt lat="47.36807" lon="0.54955">
        <ele>55.2</ele>
        <time>2023-07-18T07:25:41Z</time>
      </trkpt>
      <trkpt lat="47.36804" lon="0.54946">
        <ele>55.2</ele>
        <time>2023-07-18T07:25:42Z</time>
      </trkpt>
      <trkpt lat="47.36801" lon="0.54936">
        <ele>55.2</ele>
        <time>2023-07-18T07:25:43Z</time>
      </trkpt>
      <trkpt lat="47.36797" lon="0.54927">
        <ele>55.2</ele>
        <time>2023-07-18T07:25:44Z</time>
      </trkpt>
      <trkpt lat="47.36794" lon="0.54917">
        <ele>55</ele>
        <time>2023-07-18T07:25:45Z</time>
      </trkpt>
      <trkpt lat="47.36789" lon="0.54908">
        <ele>55.2</ele>
        <time>2023-07-18T07:25:46Z</time>
      </trkpt>
      <trkpt lat="47.36786" lon="0.54898">
        <ele>55.2</ele>
        <time>2023-07-18T07:25:47Z</time>
      </trkpt>
      <trkpt lat="47.36781" lon="0.54889">
        <ele>55.4</ele>
        <time>2023-07-18T07:25:48Z</time>
      </trkpt>
      <trkpt lat="47.36778" lon="0.5488">
        <ele>55.6</ele>
        <time>2023-07-18T07:25:49Z</time>
      </trkpt>
      <trkpt lat="47.36774" lon="0.5487">
        <ele>55.6</ele>
        <time>2023-07-18T07:25:50Z</time>
      </trkpt>
      <trkpt lat="47.36771" lon="0.5486">
        <ele>55.6</ele>
        <time>2023-07-18T07:25:51Z</time>
      </trkpt>
      <trkpt lat="47.36768" lon="0.54851">
        <ele>55.8</ele>
        <time>2023-07-18T07:25:52Z</time>
      </trkpt>
      <trkpt lat="47.36765" lon="0.54841">
        <ele>56</ele>
        <time>2023-07-18T07:25:53Z</time>
      </trkpt>
      <trkpt lat="47.36762" lon="0.54832">
        <ele>56</ele>
        <time>2023-07-18T07:25:54Z</time>
      </trkpt>
      <trkpt lat="47.36759" lon="0.54821">
        <ele>55.8</ele>
        <time>2023-07-18T07:25:55Z</time>
      </trkpt>
      <trkpt lat="47.36757" lon="0.54811">
        <ele>55.8</ele>
        <time>2023-07-18T07:25:56Z</time>
      </trkpt>
      <trkpt lat="47.36754" lon="0.54801">
        <ele>55.8</ele>
        <time>2023-07-18T07:25:57Z</time>
      </trkpt>
      <trkpt lat="47.36752" lon="0.54791">
        <ele>55.8</ele>
        <time>2023-07-18T07:25:58Z</time>
      </trkpt>
      <trkpt lat="47.3675" lon="0.54781">
        <ele>55.6</ele>
        <time>2023-07-18T07:25:59Z</time>
      </trkpt>
      <trkpt lat="47.36748" lon="0.54771">
        <ele>55.4</ele>
        <time>2023-07-18T07:26:00Z</time>
      </trkpt>
      <trkpt lat="47.36746" lon="0.54761">
        <ele>55.4</ele>
        <time>2023-07-18T07:26:01Z</time>
      </trkpt>
      <trkpt lat="47.36744" lon="0.5475">
        <ele>55.2</ele>
        <time>2023-07-18T07:26:02Z</time>
      </trkpt>
      <trkpt lat="47.36742" lon="0.54739">
        <ele>55.2</ele>
        <time>2023-07-18T07:26:03Z</time>
      </trkpt>
      <trkpt lat="47.3674" lon="0.54729">
        <ele>55.2</ele>
        <time>2023-07-18T07:26:04Z</time>
      </trkpt>
      <trkpt lat="47.36737" lon="0.54719">
        <ele>55.2</ele>
        <time>2023-07-18T07:26:05Z</time>
      </trkpt>
      <trkpt lat="47.36735" lon="0.54709">
        <ele>55.4</ele>
        <time>2023-07-18T07:26:06Z</time>
      </trkpt>
      <trkpt lat="47.36732" lon="0.54699">
        <ele>55.4</ele>
        <time>2023-07-18T07:26:07Z</time>
      </trkpt>
      <trkpt lat="47.36731" lon="0.54689">
        <ele>55.6</ele>
        <time>2023-07-18T07:26:08Z</time>
      </trkpt>
      <trkpt lat="47.36729" lon="0.54678">
        <ele>55.4</ele>
        <time>2023-07-18T07:26:09Z</time>
      </trkpt>
      <trkpt lat="47.36726" lon="0.54668">
        <ele>55.4</ele>
        <time>2023-07-18T07:26:10Z</time>
      </trkpt>
      <trkpt lat="47.36724" lon="0.54658">
        <ele>55.4</ele>
        <time>2023-07-18T07:26:11Z</time>
      </trkpt>
      <trkpt lat="47.36721" lon="0.54648">
        <ele>55.4</ele>
        <time>2023-07-18T07:26:12Z</time>
      </trkpt>
      <trkpt lat="47.36719" lon="0.54637">
        <ele>55.4</ele>
        <time>2023-07-18T07:26:13Z</time>
      </trkpt>
      <trkpt lat="47.36716" lon="0.54627">
        <ele>55.6</ele>
        <time>2023-07-18T07:26:14Z</time>
      </trkpt>
      <trkpt lat="47.36714" lon="0.54617">
        <ele>55.6</ele>
        <time>2023-07-18T07:26:15Z</time>
      </trkpt>
      <trkpt lat="47.36712" lon="0.54607">
        <ele>55.6</ele>
        <time>2023-07-18T07:26:16Z</time>
      </trkpt>
      <trkpt lat="47.3671" lon="0.54596">
        <ele>55.4</ele>
        <time>2023-07-18T07:26:17Z</time>
      </trkpt>
      <trkpt lat="47.36708" lon="0.54585">
        <ele>55.4</ele>
        <time>2023-07-18T07:26:18Z</time>
      </trkpt>
      <trkpt lat="47.36705" lon="0.54574">
        <ele>55.2</ele>
        <time>2023-07-18T07:26:19Z</time>
      </trkpt>
      <trkpt lat="47.36702" lon="0.54564">
        <ele>55.2</ele>
        <time>2023-07-18T07:26:20Z</time>
      </trkpt>
      <trkpt lat="47.36699" lon="0.54553">
        <ele>55.2</ele>
        <time>2023-07-18T07:26:21Z</time>
      </trkpt>
      <trkpt lat="47.36696" lon="0.54543">
        <ele>55.4</ele>
        <time>2023-07-18T07:26:22Z</time>
      </trkpt>
      <trkpt lat="47.36694" lon="0.54532">
        <ele>55.6</ele>
        <time>2023-07-18T07:26:23Z</time>
      </trkpt>
      <trkpt lat="47.36691" lon="0.54521">
        <ele>55.8</ele>
        <time>2023-07-18T07:26:24Z</time>
      </trkpt>
      <trkpt lat="47.36689" lon="0.5451">
        <ele>55.8</ele>
        <time>2023-07-18T07:26:25Z</time>
      </trkpt>
      <trkpt lat="47.36686" lon="0.54499">
        <ele>55.8</ele>
        <time>2023-07-18T07:26:26Z</time>
      </trkpt>
      <trkpt lat="47.36685" lon="0.54488">
        <ele>55.8</ele>
        <time>2023-07-18T07:26:27Z</time>
      </trkpt>
      <trkpt lat="47.36683" lon="0.54476">
        <ele>55.8</ele>
        <time>2023-07-18T07:26:28Z</time>
      </trkpt>
      <trkpt lat="47.36681" lon="0.54466">
        <ele>55.8</ele>
        <time>2023-07-18T07:26:29Z</time>
      </trkpt>
      <trkpt lat="47.36679" lon="0.54454">
        <ele>55.6</ele>
        <time>2023-07-18T07:26:30Z</time>
      </trkpt>
      <trkpt lat="47.36678" lon="0.54443">
        <ele>55.6</ele>
        <time>2023-07-18T07:26:31Z</time>
      </trkpt>
      <trkpt lat="47.36676" lon="0.54432">
        <ele>55.4</ele>
        <time>2023-07-18T07:26:32Z</time>
      </trkpt>
      <trkpt lat="47.36674" lon="0.54421">
        <ele>55.4</ele>
        <time>2023-07-18T07:26:33Z</time>
      </trkpt>
      <trkpt lat="47.36673" lon="0.5441">
        <ele>55.6</ele>
        <time>2023-07-18T07:26:34Z</time>
      </trkpt>
      <trkpt lat="47.36671" lon="0.544">
        <ele>55.4</ele>
        <time>2023-07-18T07:26:35Z</time>
      </trkpt>
      <trkpt lat="47.3667" lon="0.54389">
        <ele>55.4</ele>
        <time>2023-07-18T07:26:36Z</time>
      </trkpt>
      <trkpt lat="47.36669" lon="0.54378">
        <ele>55.4</ele>
        <time>2023-07-18T07:26:37Z</time>
      </trkpt>
      <trkpt lat="47.36668" lon="0.54367">
        <ele>55.2</ele>
        <time>2023-07-18T07:26:38Z</time>
      </trkpt>
      <trkpt lat="47.36666" lon="0.54356">
        <ele>55.2</ele>
        <time>2023-07-18T07:26:39Z</time>
      </trkpt>
      <trkpt lat="47.36665" lon="0.54346">
        <ele>55.2</ele>
        <time>2023-07-18T07:26:40Z</time>
      </trkpt>
      <trkpt lat="47.36664" lon="0.54335">
        <ele>55.2</ele>
        <time>2023-07-18T07:26:41Z</time>
      </trkpt>
      <trkpt lat="47.36663" lon="0.54324">
        <ele>55.2</ele>
        <time>2023-07-18T07:26:42Z</time>
      </trkpt>
      <trkpt lat="47.36662" lon="0.54313">
        <ele>55.2</ele>
        <time>2023-07-18T07:26:43Z</time>
      </trkpt>
      <trkpt lat="47.36661" lon="0.54302">
        <ele>55.2</ele>
        <time>2023-07-18T07:26:44Z</time>
      </trkpt>
      <trkpt lat="47.36661" lon="0.54291">
        <ele>55.2</ele>
        <time>2023-07-18T07:26:45Z</time>
      </trkpt>
      <trkpt lat="47.3666" lon="0.54281">
        <ele>55.4</ele>
        <time>2023-07-18T07:26:46Z</time>
      </trkpt>
      <trkpt lat="47.3666" lon="0.54269">
        <ele>55.4</ele>
        <time>2023-07-18T07:26:47Z</time>
      </trkpt>
      <trkpt lat="47.3666" lon="0.54259">
        <ele>55.4</ele>
        <time>2023-07-18T07:26:48Z</time>
      </trkpt>
      <trkpt lat="47.36659" lon="0.54248">
        <ele>55.4</ele>
        <time>2023-07-18T07:26:49Z</time>
      </trkpt>
      <trkpt lat="47.36658" lon="0.54237">
        <ele>55.2</ele>
        <time>2023-07-18T07:26:50Z</time>
      </trkpt>
      <trkpt lat="47.36658" lon="0.54228">
        <ele>55.2</ele>
        <time>2023-07-18T07:26:51Z</time>
      </trkpt>
      <trkpt lat="47.36658" lon="0.54218">
        <ele>55.2</ele>
        <time>2023-07-18T07:26:52Z</time>
      </trkpt>
      <trkpt lat="47.36658" lon="0.54209">
        <ele>55.2</ele>
        <time>2023-07-18T07:26:53Z</time>
      </trkpt>
      <trkpt lat="47.36658" lon="0.542">
        <ele>55</ele>
        <time>2023-07-18T07:26:54Z</time>
      </trkpt>
      <trkpt lat="47.36657" lon="0.54191">
        <ele>55</ele>
        <time>2023-07-18T07:26:55Z</time>
      </trkpt>
      <trkpt lat="47.36657" lon="0.54183">
        <ele>54.8</ele>
        <time>2023-07-18T07:26:56Z</time>
      </trkpt>
      <trkpt lat="47.36655" lon="0.54176">
        <ele>54.8</ele>
        <time>2023-07-18T07:26:57Z</time>
      </trkpt>
      <trkpt lat="47.36651" lon="0.54171">
        <ele>54.6</ele>
        <time>2023-07-18T07:26:58Z</time>
      </trkpt>
      <trkpt lat="47.36646" lon="0.54169">
        <ele>54.4</ele>
        <time>2023-07-18T07:26:59Z</time>
      </trkpt>
      <trkpt lat="47.3664" lon="0.54169">
        <ele>54.2</ele>
        <time>2023-07-18T07:27:00Z</time>
      </trkpt>
      <trkpt lat="47.36633" lon="0.54172">
        <ele>54</ele>
        <time>2023-07-18T07:27:01Z</time>
      </trkpt>
      <trkpt lat="47.36626" lon="0.54174">
        <ele>53.6</ele>
        <time>2023-07-18T07:27:02Z</time>
      </trkpt>
      <trkpt lat="47.36618" lon="0.54177">
        <ele>53.6</ele>
        <time>2023-07-18T07:27:03Z</time>
      </trkpt>
      <trkpt lat="47.3661" lon="0.5418">
        <ele>53.4</ele>
        <time>2023-07-18T07:27:04Z</time>
      </trkpt>
      <trkpt lat="47.36602" lon="0.54184">
        <ele>53.2</ele>
        <time>2023-07-18T07:27:05Z</time>
      </trkpt>
      <trkpt lat="47.36594" lon="0.54188">
        <ele>53</ele>
        <time>2023-07-18T07:27:06Z</time>
      </trkpt>
      <trkpt lat="47.36586" lon="0.54192">
        <ele>53</ele>
        <time>2023-07-18T07:27:07Z</time>
      </trkpt>
      <trkpt lat="47.36579" lon="0.54197">
        <ele>53</ele>
        <time>2023-07-18T07:27:08Z</time>
      </trkpt>
      <trkpt lat="47.36572" lon="0.54203">
        <ele>52.8</ele>
        <time>2023-07-18T07:27:09Z</time>
      </trkpt>
      <trkpt lat="47.36565" lon="0.54209">
        <ele>52.8</ele>
        <time>2023-07-18T07:27:10Z</time>
      </trkpt>
      <trkpt lat="47.36558" lon="0.54216">
        <ele>52.6</ele>
        <time>2023-07-18T07:27:11Z</time>
      </trkpt>
      <trkpt lat="47.36551" lon="0.54222">
        <ele>52.4</ele>
        <time>2023-07-18T07:27:12Z</time>
      </trkpt>
      <trkpt lat="47.36544" lon="0.54228">
        <ele>52</ele>
        <time>2023-07-18T07:27:13Z</time>
      </trkpt>
      <trkpt lat="47.36537" lon="0.54233">
        <ele>51.8</ele>
        <time>2023-07-18T07:27:14Z</time>
      </trkpt>
      <trkpt lat="47.3653" lon="0.54239">
        <ele>51.8</ele>
        <time>2023-07-18T07:27:15Z</time>
      </trkpt>
      <trkpt lat="47.36522" lon="0.54245">
        <ele>51.8</ele>
        <time>2023-07-18T07:27:16Z</time>
      </trkpt>
      <trkpt lat="47.36514" lon="0.5425">
        <ele>52</ele>
        <time>2023-07-18T07:27:17Z</time>
      </trkpt>
      <trkpt lat="47.36507" lon="0.54254">
        <ele>52</ele>
        <time>2023-07-18T07:27:18Z</time>
      </trkpt>
      <trkpt lat="47.36499" lon="0.54257">
        <ele>52</ele>
        <time>2023-07-18T07:27:19Z</time>
      </trkpt>
      <trkpt lat="47.36491" lon="0.54262">
        <ele>52</ele>
        <time>2023-07-18T07:27:20Z</time>
      </trkpt>
      <trkpt lat="47.36484" lon="0.54266">
        <ele>52</ele>
        <time>2023-07-18T07:27:21Z</time>
      </trkpt>
      <trkpt lat="47.36477" lon="0.54269">
        <ele>52</ele>
        <time>2023-07-18T07:27:22Z</time>
      </trkpt>
      <trkpt lat="47.36469" lon="0.54271">
        <ele>52</ele>
        <time>2023-07-18T07:27:23Z</time>
      </trkpt>
      <trkpt lat="47.36461" lon="0.54274">
        <ele>52</ele>
        <time>2023-07-18T07:27:24Z</time>
      </trkpt>
      <trkpt lat="47.36453" lon="0.54276">
        <ele>51.8</ele>
        <time>2023-07-18T07:27:25Z</time>
      </trkpt>
      <trkpt lat="47.36446" lon="0.54278">
        <ele>51.6</ele>
        <time>2023-07-18T07:27:26Z</time>
      </trkpt>
      <trkpt lat="47.36438" lon="0.5428">
        <ele>51.4</ele>
        <time>2023-07-18T07:27:27Z</time>
      </trkpt>
      <trkpt lat="47.3643" lon="0.54282">
        <ele>51.4</ele>
        <time>2023-07-18T07:27:28Z</time>
      </trkpt>
      <trkpt lat="47.36422" lon="0.54284">
        <ele>51.2</ele>
        <time>2023-07-18T07:27:29Z</time>
      </trkpt>
      <trkpt lat="47.36413" lon="0.54286">
        <ele>51.2</ele>
        <time>2023-07-18T07:27:30Z</time>
      </trkpt>
      <trkpt lat="47.36405" lon="0.54288">
        <ele>51.2</ele>
        <time>2023-07-18T07:27:31Z</time>
      </trkpt>
      <trkpt lat="47.36398" lon="0.54291">
        <ele>51.2</ele>
        <time>2023-07-18T07:27:32Z</time>
      </trkpt>
      <trkpt lat="47.3639" lon="0.54294">
        <ele>51</ele>
        <time>2023-07-18T07:27:33Z</time>
      </trkpt>
      <trkpt lat="47.36382" lon="0.54297">
        <ele>51.2</ele>
        <time>2023-07-18T07:27:34Z</time>
      </trkpt>
      <trkpt lat="47.36375" lon="0.54301">
        <ele>51.2</ele>
        <time>2023-07-18T07:27:35Z</time>
      </trkpt>
      <trkpt lat="47.36367" lon="0.54305">
        <ele>51.2</ele>
        <time>2023-07-18T07:27:36Z</time>
      </trkpt>
      <trkpt lat="47.3636" lon="0.54309">
        <ele>51.2</ele>
        <time>2023-07-18T07:27:37Z</time>
      </trkpt>
      <trkpt lat="47.36353" lon="0.54313">
        <ele>51</ele>
        <time>2023-07-18T07:27:38Z</time>
      </trkpt>
      <trkpt lat="47.36345" lon="0.54317">
        <ele>51</ele>
        <time>2023-07-18T07:27:39Z</time>
      </trkpt>
      <trkpt lat="47.36338" lon="0.54321">
        <ele>50.8</ele>
        <time>2023-07-18T07:27:40Z</time>
      </trkpt>
      <trkpt lat="47.36332" lon="0.54326">
        <ele>50.8</ele>
        <time>2023-07-18T07:27:41Z</time>
      </trkpt>
      <trkpt lat="47.36324" lon="0.5433">
        <ele>50.8</ele>
        <time>2023-07-18T07:27:42Z</time>
      </trkpt>
      <trkpt lat="47.36317" lon="0.54334">
        <ele>50.8</ele>
        <time>2023-07-18T07:27:43Z</time>
      </trkpt>
      <trkpt lat="47.36311" lon="0.54338">
        <ele>50.8</ele>
        <time>2023-07-18T07:27:44Z</time>
      </trkpt>
      <trkpt lat="47.36303" lon="0.54341">
        <ele>50.8</ele>
        <time>2023-07-18T07:27:45Z</time>
      </trkpt>
      <trkpt lat="47.36296" lon="0.54346">
        <ele>50.8</ele>
        <time>2023-07-18T07:27:46Z</time>
      </trkpt>
      <trkpt lat="47.36289" lon="0.5435">
        <ele>50.8</ele>
        <time>2023-07-18T07:27:47Z</time>
      </trkpt>
      <trkpt lat="47.36282" lon="0.54354">
        <ele>50.6</ele>
        <time>2023-07-18T07:27:48Z</time>
      </trkpt>
      <trkpt lat="47.36275" lon="0.54358">
        <ele>50.8</ele>
        <time>2023-07-18T07:27:49Z</time>
      </trkpt>
      <trkpt lat="47.36268" lon="0.54362">
        <ele>51</ele>
        <time>2023-07-18T07:27:50Z</time>
      </trkpt>
      <trkpt lat="47.36261" lon="0.54367">
        <ele>51.2</ele>
        <time>2023-07-18T07:27:51Z</time>
      </trkpt>
      <trkpt lat="47.36254" lon="0.54371">
        <ele>51.2</ele>
        <time>2023-07-18T07:27:52Z</time>
      </trkpt>
      <trkpt lat="47.36247" lon="0.54376">
        <ele>51.2</ele>
        <time>2023-07-18T07:27:53Z</time>
      </trkpt>
      <trkpt lat="47.3624" lon="0.5438">
        <ele>51.2</ele>
        <time>2023-07-18T07:27:54Z</time>
      </trkpt>
      <trkpt lat="47.36234" lon="0.54385">
        <ele>51</ele>
        <time>2023-07-18T07:27:55Z</time>
      </trkpt>
      <trkpt lat="47.36227" lon="0.5439">
        <ele>51</ele>
        <time>2023-07-18T07:27:56Z</time>
      </trkpt>
      <trkpt lat="47.36221" lon="0.54395">
        <ele>51</ele>
        <time>2023-07-18T07:27:57Z</time>
      </trkpt>
      <trkpt lat="47.36214" lon="0.544">
        <ele>51.4</ele>
        <time>2023-07-18T07:27:58Z</time>
      </trkpt>
      <trkpt lat="47.36208" lon="0.54406">
        <ele>51.4</ele>
        <time>2023-07-18T07:27:59Z</time>
      </trkpt>
      <trkpt lat="47.36201" lon="0.54411">
        <ele>51.4</ele>
        <time>2023-07-18T07:28:00Z</time>
      </trkpt>
      <trkpt lat="47.36195" lon="0.54416">
        <ele>51.4</ele>
        <time>2023-07-18T07:28:01Z</time>
      </trkpt>
      <trkpt lat="47.36189" lon="0.54422">
        <ele>51.4</ele>
        <time>2023-07-18T07:28:02Z</time>
      </trkpt>
      <trkpt lat="47.36182" lon="0.54427">
        <ele>51.4</ele>
        <time>2023-07-18T07:28:03Z</time>
      </trkpt>
      <trkpt lat="47.36176" lon="0.54432">
        <ele>51.4</ele>
        <time>2023-07-18T07:28:04Z</time>
      </trkpt>
      <trkpt lat="47.36169" lon="0.54436">
        <ele>51.4</ele>
        <time>2023-07-18T07:28:05Z</time>
      </trkpt>
      <trkpt lat="47.36163" lon="0.54439">
        <ele>51.4</ele>
        <time>2023-07-18T07:28:06Z</time>
      </trkpt>
      <trkpt lat="47.36155" lon="0.54443">
        <ele>51.4</ele>
        <time>2023-07-18T07:28:07Z</time>
      </trkpt>
      <trkpt lat="47.36149" lon="0.54445">
        <ele>51.4</ele>
        <time>2023-07-18T07:28:08Z</time>
      </trkpt>
      <trkpt lat="47.36142" lon="0.54447">
        <ele>51.4</ele>
        <time>2023-07-18T07:28:09Z</time>
      </trkpt>
      <trkpt lat="47.36136" lon="0.54449">
        <ele>51.2</ele>
        <time>2023-07-18T07:28:10Z</time>
      </trkpt>
      <trkpt lat="47.3613" lon="0.54451">
        <ele>51.2</ele>
        <time>2023-07-18T07:28:11Z</time>
      </trkpt>
      <trkpt lat="47.36123" lon="0.54453">
        <ele>51.4</ele>
        <time>2023-07-18T07:28:12Z</time>
      </trkpt>
      <trkpt lat="47.36118" lon="0.54455">
        <ele>51.4</ele>
        <time>2023-07-18T07:28:13Z</time>
      </trkpt>
      <trkpt lat="47.36111" lon="0.54457">
        <ele>51.6</ele>
        <time>2023-07-18T07:28:14Z</time>
      </trkpt>
      <trkpt lat="47.36104" lon="0.54459">
        <ele>51.6</ele>
        <time>2023-07-18T07:28:15Z</time>
      </trkpt>
      <trkpt lat="47.36097" lon="0.54461">
        <ele>51.6</ele>
        <time>2023-07-18T07:28:16Z</time>
      </trkpt>
      <trkpt lat="47.36092" lon="0.54463">
        <ele>51.6</ele>
        <time>2023-07-18T07:28:17Z</time>
      </trkpt>
      <trkpt lat="47.36086" lon="0.54465">
        <ele>51.8</ele>
        <time>2023-07-18T07:28:18Z</time>
      </trkpt>
      <trkpt lat="47.3608" lon="0.54467">
        <ele>51.8</ele>
        <time>2023-07-18T07:28:19Z</time>
      </trkpt>
      <trkpt lat="47.36075" lon="0.54469">
        <ele>51.8</ele>
        <time>2023-07-18T07:28:20Z</time>
      </trkpt>
      <trkpt lat="47.36069" lon="0.54471">
        <ele>52</ele>
        <time>2023-07-18T07:28:21Z</time>
      </trkpt>
      <trkpt lat="47.36064" lon="0.54474">
        <ele>52</ele>
        <time>2023-07-18T07:28:22Z</time>
      </trkpt>
      <trkpt lat="47.36058" lon="0.54476">
        <ele>52</ele>
        <time>2023-07-18T07:28:23Z</time>
      </trkpt>
      <trkpt lat="47.36053" lon="0.54478">
        <ele>52</ele>
        <time>2023-07-18T07:28:24Z</time>
      </trkpt>
      <trkpt lat="47.36048" lon="0.54481">
        <ele>51.6</ele>
        <time>2023-07-18T07:28:25Z</time>
      </trkpt>
      <trkpt lat="47.36043" lon="0.54484">
        <ele>51.4</ele>
        <time>2023-07-18T07:28:26Z</time>
      </trkpt>
      <trkpt lat="47.36038" lon="0.54486">
        <ele>51.2</ele>
        <time>2023-07-18T07:28:27Z</time>
      </trkpt>
      <trkpt lat="47.36032" lon="0.54486">
        <ele>51.2</ele>
        <time>2023-07-18T07:28:28Z</time>
      </trkpt>
      <trkpt lat="47.36028" lon="0.54484">
        <ele>51</ele>
        <time>2023-07-18T07:28:29Z</time>
      </trkpt>
      <trkpt lat="47.36024" lon="0.5448">
        <ele>51</ele>
        <time>2023-07-18T07:28:30Z</time>
      </trkpt>
      <trkpt lat="47.36022" lon="0.54473">
        <ele>50.8</ele>
        <time>2023-07-18T07:28:31Z</time>
      </trkpt>
      <trkpt lat="47.3602" lon="0.54464">
        <ele>50.8</ele>
        <time>2023-07-18T07:28:32Z</time>
      </trkpt>
      <trkpt lat="47.3602" lon="0.54455">
        <ele>50.8</ele>
        <time>2023-07-18T07:28:33Z</time>
      </trkpt>
      <trkpt lat="47.36018" lon="0.54446">
        <ele>50.6</ele>
        <time>2023-07-18T07:28:34Z</time>
      </trkpt>
      <trkpt lat="47.36017" lon="0.54436">
        <ele>50.6</ele>
        <time>2023-07-18T07:28:35Z</time>
      </trkpt>
      <trkpt lat="47.36015" lon="0.54426">
        <ele>50.6</ele>
        <time>2023-07-18T07:28:36Z</time>
      </trkpt>
      <trkpt lat="47.36014" lon="0.54417">
        <ele>50.6</ele>
        <time>2023-07-18T07:28:37Z</time>
      </trkpt>
      <trkpt lat="47.36012" lon="0.54407">
        <ele>50.6</ele>
        <time>2023-07-18T07:28:38Z</time>
      </trkpt>
      <trkpt lat="47.3601" lon="0.54397">
        <ele>50.6</ele>
        <time>2023-07-18T07:28:39Z</time>
      </trkpt>
      <trkpt lat="47.36007" lon="0.54387">
        <ele>50.6</ele>
        <time>2023-07-18T07:28:40Z</time>
      </trkpt>
      <trkpt lat="47.36006" lon="0.54377">
        <ele>50.6</ele>
        <time>2023-07-18T07:28:41Z</time>
      </trkpt>
      <trkpt lat="47.36004" lon="0.54366">
        <ele>50.6</ele>
        <time>2023-07-18T07:28:42Z</time>
      </trkpt>
      <trkpt lat="47.36002" lon="0.54356">
        <ele>50.6</ele>
        <time>2023-07-18T07:28:43Z</time>
      </trkpt>
      <trkpt lat="47.36" lon="0.54346">
        <ele>50.6</ele>
        <time>2023-07-18T07:28:44Z</time>
      </trkpt>
      <trkpt lat="47.35998" lon="0.54336">
        <ele>50.6</ele>
        <time>2023-07-18T07:28:45Z</time>
      </trkpt>
      <trkpt lat="47.35996" lon="0.54326">
        <ele>50.6</ele>
        <time>2023-07-18T07:28:46Z</time>
      </trkpt>
      <trkpt lat="47.35994" lon="0.54315">
        <ele>50.6</ele>
        <time>2023-07-18T07:28:47Z</time>
      </trkpt>
      <trkpt lat="47.35992" lon="0.54306">
        <ele>50.6</ele>
        <time>2023-07-18T07:28:48Z</time>
      </trkpt>
      <trkpt lat="47.35991" lon="0.54296">
        <ele>50.8</ele>
        <time>2023-07-18T07:28:49Z</time>
      </trkpt>
      <trkpt lat="47.35988" lon="0.54286">
        <ele>50.8</ele>
        <time>2023-07-18T07:28:50Z</time>
      </trkpt>
      <trkpt lat="47.35986" lon="0.54277">
        <ele>50.8</ele>
        <time>2023-07-18T07:28:51Z</time>
      </trkpt>
      <trkpt lat="47.35984" lon="0.54267">
        <ele>50.8</ele>
        <time>2023-07-18T07:28:52Z</time>
      </trkpt>
      <trkpt lat="47.35983" lon="0.54258">
        <ele>50.8</ele>
        <time>2023-07-18T07:28:53Z</time>
      </trkpt>
      <trkpt lat="47.35981" lon="0.54248">
        <ele>50.8</ele>
        <time>2023-07-18T07:28:54Z</time>
      </trkpt>
      <trkpt lat="47.35978" lon="0.54239">
        <ele>50.8</ele>
        <time>2023-07-18T07:28:55Z</time>
      </trkpt>
      <trkpt lat="47.35976" lon="0.54229">
        <ele>50.8</ele>
        <time>2023-07-18T07:28:56Z</time>
      </trkpt>
      <trkpt lat="47.35974" lon="0.5422">
        <ele>50.8</ele>
        <time>2023-07-18T07:28:57Z</time>
      </trkpt>
      <trkpt lat="47.35971" lon="0.5421">
        <ele>50.8</ele>
        <time>2023-07-18T07:28:58Z</time>
      </trkpt>
      <trkpt lat="47.35968" lon="0.54201">
        <ele>50.8</ele>
        <time>2023-07-18T07:28:59Z</time>
      </trkpt>
      <trkpt lat="47.35965" lon="0.54192">
        <ele>50.8</ele>
        <time>2023-07-18T07:29:00Z</time>
      </trkpt>
      <trkpt lat="47.35961" lon="0.54184">
        <ele>50.6</ele>
        <time>2023-07-18T07:29:01Z</time>
      </trkpt>
      <trkpt lat="47.35956" lon="0.54177">
        <ele>50.6</ele>
        <time>2023-07-18T07:29:02Z</time>
      </trkpt>
      <trkpt lat="47.35951" lon="0.54174">
        <ele>50.6</ele>
        <time>2023-07-18T07:29:03Z</time>
      </trkpt>
      <trkpt lat="47.35945" lon="0.54173">
        <ele>50.6</ele>
        <time>2023-07-18T07:29:04Z</time>
      </trkpt>
      <trkpt lat="47.35938" lon="0.54174">
        <ele>50.6</ele>
        <time>2023-07-18T07:29:05Z</time>
      </trkpt>
      <trkpt lat="47.35932" lon="0.54177">
        <ele>50.6</ele>
        <time>2023-07-18T07:29:06Z</time>
      </trkpt>
      <trkpt lat="47.35926" lon="0.54181">
        <ele>50.6</ele>
        <time>2023-07-18T07:29:07Z</time>
      </trkpt>
      <trkpt lat="47.3592" lon="0.54184">
        <ele>50.6</ele>
        <time>2023-07-18T07:29:08Z</time>
      </trkpt>
      <trkpt lat="47.35915" lon="0.54188">
        <ele>50.6</ele>
        <time>2023-07-18T07:29:09Z</time>
      </trkpt>
      <trkpt lat="47.35909" lon="0.54192">
        <ele>50.8</ele>
        <time>2023-07-18T07:29:10Z</time>
      </trkpt>
      <trkpt lat="47.35904" lon="0.54195">
        <ele>50.8</ele>
        <time>2023-07-18T07:29:11Z</time>
      </trkpt>
      <trkpt lat="47.35897" lon="0.54199">
        <ele>51</ele>
        <time>2023-07-18T07:29:12Z</time>
      </trkpt>
      <trkpt lat="47.35891" lon="0.54203">
        <ele>51.2</ele>
        <time>2023-07-18T07:29:13Z</time>
      </trkpt>
      <trkpt lat="47.35884" lon="0.54207">
        <ele>51.2</ele>
        <time>2023-07-18T07:29:14Z</time>
      </trkpt>
      <trkpt lat="47.35878" lon="0.54211">
        <ele>51.2</ele>
        <time>2023-07-18T07:29:15Z</time>
      </trkpt>
      <trkpt lat="47.35871" lon="0.54215">
        <ele>51.2</ele>
        <time>2023-07-18T07:29:16Z</time>
      </trkpt>
      <trkpt lat="47.35865" lon="0.54219">
        <ele>51.2</ele>
        <time>2023-07-18T07:29:17Z</time>
      </trkpt>
      <trkpt lat="47.3586" lon="0.54222">
        <ele>51.2</ele>
        <time>2023-07-18T07:29:18Z</time>
      </trkpt>
      <trkpt lat="47.35854" lon="0.54225">
        <ele>51</ele>
        <time>2023-07-18T07:29:19Z</time>
      </trkpt>
      <trkpt lat="47.35849" lon="0.54228">
        <ele>51</ele>
        <time>2023-07-18T07:29:20Z</time>
      </trkpt>
      <trkpt lat="47.35844" lon="0.54231">
        <ele>50.8</ele>
        <time>2023-07-18T07:29:21Z</time>
      </trkpt>
      <trkpt lat="47.35839" lon="0.54234">
        <ele>50.8</ele>
        <time>2023-07-18T07:29:22Z</time>
      </trkpt>
      <trkpt lat="47.35835" lon="0.54236">
        <ele>50.8</ele>
        <time>2023-07-18T07:29:23Z</time>
      </trkpt>
      <trkpt lat="47.3583" lon="0.54239">
        <ele>50.8</ele>
        <time>2023-07-18T07:29:24Z</time>
      </trkpt>
      <trkpt lat="47.35825" lon="0.54242">
        <ele>50.8</ele>
        <time>2023-07-18T07:29:25Z</time>
      </trkpt>
      <trkpt lat="47.3582" lon="0.54244">
        <ele>50.8</ele>
        <time>2023-07-18T07:29:26Z</time>
      </trkpt>
      <trkpt lat="47.35815" lon="0.54247">
        <ele>50.8</ele>
        <time>2023-07-18T07:29:27Z</time>
      </trkpt>
      <trkpt lat="47.35811" lon="0.5425">
        <ele>51</ele>
        <time>2023-07-18T07:29:28Z</time>
      </trkpt>
      <trkpt lat="47.35807" lon="0.54252">
        <ele>51</ele>
        <time>2023-07-18T07:29:29Z</time>
      </trkpt>
      <trkpt lat="47.35803" lon="0.54254">
        <ele>50.8</ele>
        <time>2023-07-18T07:29:30Z</time>
      </trkpt>
      <trkpt lat="47.35799" lon="0.54256">
        <ele>51</ele>
        <time>2023-07-18T07:29:31Z</time>
      </trkpt>
      <trkpt lat="47.35796" lon="0.54258">
        <ele>51</ele>
        <time>2023-07-18T07:29:32Z</time>
      </trkpt>
      <trkpt lat="47.35794" lon="0.5426">
        <ele>51</ele>
        <time>2023-07-18T07:29:33Z</time>
      </trkpt>
      <trkpt lat="47.35791" lon="0.54261">
        <ele>51</ele>
        <time>2023-07-18T07:29:34Z</time>
      </trkpt>
      <trkpt lat="47.35789" lon="0.54262">
        <ele>51</ele>
        <time>2023-07-18T07:29:35Z</time>
      </trkpt>
      <trkpt lat="47.35787" lon="0.54264">
        <ele>51</ele>
        <time>2023-07-18T07:29:36Z</time>
      </trkpt>
      <trkpt lat="47.35785" lon="0.54268">
        <ele>51</ele>
        <time>2023-07-18T07:29:37Z</time>
      </trkpt>
      <trkpt lat="47.35783" lon="0.54272">
        <ele>51</ele>
        <time>2023-07-18T07:29:38Z</time>
      </trkpt>
      <trkpt lat="47.35781" lon="0.54276">
        <ele>51</ele>
        <time>2023-07-18T07:29:39Z</time>
      </trkpt>
      <trkpt lat="47.35778" lon="0.5428">
        <ele>50.8</ele>
        <time>2023-07-18T07:29:40Z</time>
      </trkpt>
      <trkpt lat="47.35775" lon="0.54284">
        <ele>50.8</ele>
        <time>2023-07-18T07:29:41Z</time>
      </trkpt>
      <trkpt lat="47.35771" lon="0.54288">
        <ele>50.8</ele>
        <time>2023-07-18T07:29:42Z</time>
      </trkpt>
      <trkpt lat="47.35768" lon="0.54293">
        <ele>50.8</ele>
        <time>2023-07-18T07:29:43Z</time>
      </trkpt>
      <trkpt lat="47.35764" lon="0.54298">
        <ele>50.8</ele>
        <time>2023-07-18T07:29:44Z</time>
      </trkpt>
      <trkpt lat="47.3576" lon="0.54303">
        <ele>50.8</ele>
        <time>2023-07-18T07:29:45Z</time>
      </trkpt>
      <trkpt lat="47.35755" lon="0.54307">
        <ele>50.6</ele>
        <time>2023-07-18T07:29:46Z</time>
      </trkpt>
      <trkpt lat="47.35751" lon="0.54312">
        <ele>50.6</ele>
        <time>2023-07-18T07:29:47Z</time>
      </trkpt>
      <trkpt lat="47.35747" lon="0.54316">
        <ele>50.4</ele>
        <time>2023-07-18T07:29:48Z</time>
      </trkpt>
      <trkpt lat="47.35741" lon="0.54319">
        <ele>50.4</ele>
        <time>2023-07-18T07:29:49Z</time>
      </trkpt>
      <trkpt lat="47.35736" lon="0.54323">
        <ele>50.4</ele>
        <time>2023-07-18T07:29:50Z</time>
      </trkpt>
      <trkpt lat="47.35731" lon="0.54328">
        <ele>50.4</ele>
        <time>2023-07-18T07:29:51Z</time>
      </trkpt>
      <trkpt lat="47.35726" lon="0.54332">
        <ele>50.4</ele>
        <time>2023-07-18T07:29:52Z</time>
      </trkpt>
      <trkpt lat="47.35722" lon="0.54335">
        <ele>50.4</ele>
        <time>2023-07-18T07:29:53Z</time>
      </trkpt>
      <trkpt lat="47.35716" lon="0.5434">
        <ele>50.4</ele>
        <time>2023-07-18T07:29:54Z</time>
      </trkpt>
      <trkpt lat="47.35711" lon="0.54344">
        <ele>50.2</ele>
        <time>2023-07-18T07:29:55Z</time>
      </trkpt>
      <trkpt lat="47.35706" lon="0.54348">
        <ele>50.2</ele>
        <time>2023-07-18T07:29:56Z</time>
      </trkpt>
      <trkpt lat="47.357" lon="0.54353">
        <ele>50</ele>
        <time>2023-07-18T07:29:57Z</time>
      </trkpt>
      <trkpt lat="47.35696" lon="0.54357">
        <ele>50</ele>
        <time>2023-07-18T07:29:58Z</time>
      </trkpt>
      <trkpt lat="47.35691" lon="0.54362">
        <ele>49.8</ele>
        <time>2023-07-18T07:29:59Z</time>
      </trkpt>
      <trkpt lat="47.35685" lon="0.54366">
        <ele>49.6</ele>
        <time>2023-07-18T07:30:00Z</time>
      </trkpt>
      <trkpt lat="47.35681" lon="0.54371">
        <ele>49.6</ele>
        <time>2023-07-18T07:30:01Z</time>
      </trkpt>
      <trkpt lat="47.35677" lon="0.54375">
        <ele>49.4</ele>
        <time>2023-07-18T07:30:02Z</time>
      </trkpt>
      <trkpt lat="47.35673" lon="0.54379">
        <ele>49.4</ele>
        <time>2023-07-18T07:30:03Z</time>
      </trkpt>
      <trkpt lat="47.3567" lon="0.54381">
        <ele>49.2</ele>
        <time>2023-07-18T07:30:04Z</time>
      </trkpt>
      <trkpt lat="47.35668" lon="0.54383">
        <ele>49.2</ele>
        <time>2023-07-18T07:30:05Z</time>
      </trkpt>
      <trkpt lat="47.35666" lon="0.54385">
        <ele>49.2</ele>
        <time>2023-07-18T07:30:06Z</time>
      </trkpt>
      <trkpt lat="47.35663" lon="0.54388">
        <ele>49.2</ele>
        <time>2023-07-18T07:30:07Z</time>
      </trkpt>
      <trkpt lat="47.3566" lon="0.54391">
        <ele>49.2</ele>
        <time>2023-07-18T07:30:08Z</time>
      </trkpt>
      <trkpt lat="47.35657" lon="0.54393">
        <ele>49.2</ele>
        <time>2023-07-18T07:30:09Z</time>
      </trkpt>
      <trkpt lat="47.35654" lon="0.54396">
        <ele>49.2</ele>
        <time>2023-07-18T07:30:10Z</time>
      </trkpt>
      <trkpt lat="47.3565" lon="0.544">
        <ele>49.4</ele>
        <time>2023-07-18T07:30:11Z</time>
      </trkpt>
      <trkpt lat="47.35646" lon="0.54404">
        <ele>49.6</ele>
        <time>2023-07-18T07:30:12Z</time>
      </trkpt>
      <trkpt lat="47.35642" lon="0.54408">
        <ele>49.6</ele>
        <time>2023-07-18T07:30:13Z</time>
      </trkpt>
      <trkpt lat="47.35638" lon="0.54412">
        <ele>49.8</ele>
        <time>2023-07-18T07:30:14Z</time>
      </trkpt>
      <trkpt lat="47.35634" lon="0.54416">
        <ele>50</ele>
        <time>2023-07-18T07:30:15Z</time>
      </trkpt>
      <trkpt lat="47.3563" lon="0.5442">
        <ele>50</ele>
        <time>2023-07-18T07:30:16Z</time>
      </trkpt>
      <trkpt lat="47.35626" lon="0.54424">
        <ele>50.2</ele>
        <time>2023-07-18T07:30:17Z</time>
      </trkpt>
      <trkpt lat="47.35622" lon="0.54428">
        <ele>50.2</ele>
        <time>2023-07-18T07:30:18Z</time>
      </trkpt>
      <trkpt lat="47.35618" lon="0.54431">
        <ele>50.2</ele>
        <time>2023-07-18T07:30:19Z</time>
      </trkpt>
      <trkpt lat="47.35613" lon="0.54433">
        <ele>50.4</ele>
        <time>2023-07-18T07:30:20Z</time>
      </trkpt>
      <trkpt lat="47.35608" lon="0.54434">
        <ele>50.4</ele>
        <time>2023-07-18T07:30:21Z</time>
      </trkpt>
      <trkpt lat="47.35603" lon="0.54434">
        <ele>50.6</ele>
        <time>2023-07-18T07:30:22Z</time>
      </trkpt>
      <trkpt lat="47.35598" lon="0.54434">
        <ele>50.8</ele>
        <time>2023-07-18T07:30:23Z</time>
      </trkpt>
      <trkpt lat="47.35592" lon="0.54433">
        <ele>50.8</ele>
        <time>2023-07-18T07:30:24Z</time>
      </trkpt>
      <trkpt lat="47.35586" lon="0.54432">
        <ele>50.8</ele>
        <time>2023-07-18T07:30:25Z</time>
      </trkpt>
      <trkpt lat="47.3558" lon="0.54431">
        <ele>50.8</ele>
        <time>2023-07-18T07:30:26Z</time>
      </trkpt>
      <trkpt lat="47.35574" lon="0.54431">
        <ele>50.8</ele>
        <time>2023-07-18T07:30:27Z</time>
      </trkpt>
      <trkpt lat="47.35568" lon="0.5443">
        <ele>50.8</ele>
        <time>2023-07-18T07:30:28Z</time>
      </trkpt>
      <trkpt lat="47.35562" lon="0.54429">
        <ele>50.6</ele>
        <time>2023-07-18T07:30:29Z</time>
      </trkpt>
      <trkpt lat="47.35556" lon="0.54428">
        <ele>50.6</ele>
        <time>2023-07-18T07:30:30Z</time>
      </trkpt>
      <trkpt lat="47.35551" lon="0.54427">
        <ele>50.6</ele>
        <time>2023-07-18T07:30:31Z</time>
      </trkpt>
      <trkpt lat="47.35545" lon="0.54426">
        <ele>50.6</ele>
        <time>2023-07-18T07:30:32Z</time>
      </trkpt>
      <trkpt lat="47.3554" lon="0.54425">
        <ele>50.6</ele>
        <time>2023-07-18T07:30:33Z</time>
      </trkpt>
      <trkpt lat="47.35534" lon="0.54423">
        <ele>50.6</ele>
        <time>2023-07-18T07:30:34Z</time>
      </trkpt>
      <trkpt lat="47.35528" lon="0.54423">
        <ele>50.6</ele>
        <time>2023-07-18T07:30:35Z</time>
      </trkpt>
      <trkpt lat="47.35522" lon="0.54423">
        <ele>50.4</ele>
        <time>2023-07-18T07:30:36Z</time>
      </trkpt>
      <trkpt lat="47.35516" lon="0.54424">
        <ele>50.4</ele>
        <time>2023-07-18T07:30:37Z</time>
      </trkpt>
      <trkpt lat="47.3551" lon="0.54425">
        <ele>50.4</ele>
        <time>2023-07-18T07:30:38Z</time>
      </trkpt>
      <trkpt lat="47.35504" lon="0.54427">
        <ele>50.4</ele>
        <time>2023-07-18T07:30:39Z</time>
      </trkpt>
      <trkpt lat="47.35498" lon="0.54428">
        <ele>50.4</ele>
        <time>2023-07-18T07:30:40Z</time>
      </trkpt>
      <trkpt lat="47.35492" lon="0.54431">
        <ele>50.4</ele>
        <time>2023-07-18T07:30:41Z</time>
      </trkpt>
      <trkpt lat="47.35487" lon="0.54433">
        <ele>50.4</ele>
        <time>2023-07-18T07:30:42Z</time>
      </trkpt>
      <trkpt lat="47.35481" lon="0.54437">
        <ele>50.6</ele>
        <time>2023-07-18T07:30:43Z</time>
      </trkpt>
      <trkpt lat="47.35476" lon="0.54442">
        <ele>50.6</ele>
        <time>2023-07-18T07:30:44Z</time>
      </trkpt>
      <trkpt lat="47.35471" lon="0.54448">
        <ele>50.8</ele>
        <time>2023-07-18T07:30:45Z</time>
      </trkpt>
      <trkpt lat="47.35467" lon="0.54454">
        <ele>50.8</ele>
        <time>2023-07-18T07:30:46Z</time>
      </trkpt>
      <trkpt lat="47.35463" lon="0.5446">
        <ele>50.8</ele>
        <time>2023-07-18T07:30:47Z</time>
      </trkpt>
      <trkpt lat="47.35459" lon="0.54466">
        <ele>50.8</ele>
        <time>2023-07-18T07:30:48Z</time>
      </trkpt>
      <trkpt lat="47.35455" lon="0.54471">
        <ele>50.8</ele>
        <time>2023-07-18T07:30:49Z</time>
      </trkpt>
      <trkpt lat="47.3545" lon="0.54475">
        <ele>50.8</ele>
        <time>2023-07-18T07:30:50Z</time>
      </trkpt>
      <trkpt lat="47.35445" lon="0.54479">
        <ele>50.8</ele>
        <time>2023-07-18T07:30:51Z</time>
      </trkpt>
      <trkpt lat="47.3544" lon="0.54481">
        <ele>50.8</ele>
        <time>2023-07-18T07:30:52Z</time>
      </trkpt>
      <trkpt lat="47.35435" lon="0.54482">
        <ele>50.6</ele>
        <time>2023-07-18T07:30:53Z</time>
      </trkpt>
      <trkpt lat="47.35429" lon="0.54481">
        <ele>50.6</ele>
        <time>2023-07-18T07:30:54Z</time>
      </trkpt>
      <trkpt lat="47.35424" lon="0.54478">
        <ele>50.6</ele>
        <time>2023-07-18T07:30:55Z</time>
      </trkpt>
      <trkpt lat="47.35419" lon="0.54474">
        <ele>50.4</ele>
        <time>2023-07-18T07:30:56Z</time>
      </trkpt>
      <trkpt lat="47.35416" lon="0.5447">
        <ele>50.4</ele>
        <time>2023-07-18T07:30:57Z</time>
      </trkpt>
      <trkpt lat="47.35412" lon="0.54464">
        <ele>50.4</ele>
        <time>2023-07-18T07:30:58Z</time>
      </trkpt>
      <trkpt lat="47.35407" lon="0.54458">
        <ele>50.4</ele>
        <time>2023-07-18T07:30:59Z</time>
      </trkpt>
      <trkpt lat="47.35402" lon="0.54452">
        <ele>50.4</ele>
        <time>2023-07-18T07:31:00Z</time>
      </trkpt>
      <trkpt lat="47.35397" lon="0.5445">
        <ele>50.4</ele>
        <time>2023-07-18T07:31:01Z</time>
      </trkpt>
      <trkpt lat="47.3539" lon="0.54449">
        <ele>50.4</ele>
        <time>2023-07-18T07:31:02Z</time>
      </trkpt>
      <trkpt lat="47.35384" lon="0.5445">
        <ele>50.4</ele>
        <time>2023-07-18T07:31:03Z</time>
      </trkpt>
      <trkpt lat="47.35377" lon="0.54452">
        <ele>50.4</ele>
        <time>2023-07-18T07:31:04Z</time>
      </trkpt>
      <trkpt lat="47.35371" lon="0.54454">
        <ele>50.6</ele>
        <time>2023-07-18T07:31:05Z</time>
      </trkpt>
      <trkpt lat="47.35364" lon="0.54457">
        <ele>50.8</ele>
        <time>2023-07-18T07:31:06Z</time>
      </trkpt>
      <trkpt lat="47.35358" lon="0.54459">
        <ele>50.6</ele>
        <time>2023-07-18T07:31:07Z</time>
      </trkpt>
      <trkpt lat="47.35351" lon="0.54462">
        <ele>50.6</ele>
        <time>2023-07-18T07:31:08Z</time>
      </trkpt>
      <trkpt lat="47.35345" lon="0.54464">
        <ele>50.6</ele>
        <time>2023-07-18T07:31:09Z</time>
      </trkpt>
      <trkpt lat="47.35339" lon="0.54466">
        <ele>50.6</ele>
        <time>2023-07-18T07:31:10Z</time>
      </trkpt>
      <trkpt lat="47.35332" lon="0.54469">
        <ele>50.6</ele>
        <time>2023-07-18T07:31:11Z</time>
      </trkpt>
      <trkpt lat="47.35326" lon="0.54471">
        <ele>50.4</ele>
        <time>2023-07-18T07:31:12Z</time>
      </trkpt>
      <trkpt lat="47.3532" lon="0.54474">
        <ele>50.4</ele>
        <time>2023-07-18T07:31:13Z</time>
      </trkpt>
      <trkpt lat="47.35314" lon="0.54477">
        <ele>50.4</ele>
        <time>2023-07-18T07:31:14Z</time>
      </trkpt>
      <trkpt lat="47.35307" lon="0.5448">
        <ele>50.4</ele>
        <time>2023-07-18T07:31:15Z</time>
      </trkpt>
      <trkpt lat="47.35302" lon="0.54483">
        <ele>50.4</ele>
        <time>2023-07-18T07:31:16Z</time>
      </trkpt>
      <trkpt lat="47.35295" lon="0.54486">
        <ele>50.4</ele>
        <time>2023-07-18T07:31:17Z</time>
      </trkpt>
      <trkpt lat="47.35289" lon="0.54488">
        <ele>50.4</ele>
        <time>2023-07-18T07:31:18Z</time>
      </trkpt>
      <trkpt lat="47.35283" lon="0.5449">
        <ele>50.2</ele>
        <time>2023-07-18T07:31:19Z</time>
      </trkpt>
      <trkpt lat="47.35278" lon="0.5449">
        <ele>50.2</ele>
        <time>2023-07-18T07:31:20Z</time>
      </trkpt>
      <trkpt lat="47.35273" lon="0.54487">
        <ele>50.2</ele>
        <time>2023-07-18T07:31:21Z</time>
      </trkpt>
      <trkpt lat="47.35269" lon="0.54482">
        <ele>50</ele>
        <time>2023-07-18T07:31:22Z</time>
      </trkpt>
      <trkpt lat="47.35266" lon="0.54475">
        <ele>50</ele>
        <time>2023-07-18T07:31:23Z</time>
      </trkpt>
      <trkpt lat="47.35263" lon="0.54467">
        <ele>50</ele>
        <time>2023-07-18T07:31:24Z</time>
      </trkpt>
      <trkpt lat="47.35259" lon="0.54459">
        <ele>50</ele>
        <time>2023-07-18T07:31:25Z</time>
      </trkpt>
      <trkpt lat="47.35256" lon="0.54451">
        <ele>49.8</ele>
        <time>2023-07-18T07:31:26Z</time>
      </trkpt>
      <trkpt lat="47.35252" lon="0.54443">
        <ele>49.8</ele>
        <time>2023-07-18T07:31:27Z</time>
      </trkpt>
      <trkpt lat="47.35248" lon="0.54435">
        <ele>49.8</ele>
        <time>2023-07-18T07:31:28Z</time>
      </trkpt>
      <trkpt lat="47.35244" lon="0.54427">
        <ele>50</ele>
        <time>2023-07-18T07:31:29Z</time>
      </trkpt>
      <trkpt lat="47.3524" lon="0.54419">
        <ele>50</ele>
        <time>2023-07-18T07:31:30Z</time>
      </trkpt>
      <trkpt lat="47.35237" lon="0.54411">
        <ele>50</ele>
        <time>2023-07-18T07:31:31Z</time>
      </trkpt>
      <trkpt lat="47.35233" lon="0.54402">
        <ele>50</ele>
        <time>2023-07-18T07:31:32Z</time>
      </trkpt>
      <trkpt lat="47.35229" lon="0.54394">
        <ele>50</ele>
        <time>2023-07-18T07:31:33Z</time>
      </trkpt>
      <trkpt lat="47.35226" lon="0.54385">
        <ele>50</ele>
        <time>2023-07-18T07:31:34Z</time>
      </trkpt>
      <trkpt lat="47.35223" lon="0.54376">
        <ele>50.2</ele>
        <time>2023-07-18T07:31:35Z</time>
      </trkpt>
      <trkpt lat="47.3522" lon="0.54367">
        <ele>50.2</ele>
        <time>2023-07-18T07:31:36Z</time>
      </trkpt>
      <trkpt lat="47.35217" lon="0.54357">
        <ele>50.2</ele>
        <time>2023-07-18T07:31:37Z</time>
      </trkpt>
      <trkpt lat="47.35215" lon="0.54348">
        <ele>50.2</ele>
        <time>2023-07-18T07:31:38Z</time>
      </trkpt>
      <trkpt lat="47.35212" lon="0.54339">
        <ele>50.2</ele>
        <time>2023-07-18T07:31:39Z</time>
      </trkpt>
      <trkpt lat="47.3521" lon="0.5433">
        <ele>50.2</ele>
        <time>2023-07-18T07:31:40Z</time>
      </trkpt>
      <trkpt lat="47.35209" lon="0.54321">
        <ele>50</ele>
        <time>2023-07-18T07:31:41Z</time>
      </trkpt>
      <trkpt lat="47.35207" lon="0.54311">
        <ele>50</ele>
        <time>2023-07-18T07:31:42Z</time>
      </trkpt>
      <trkpt lat="47.35206" lon="0.54302">
        <ele>50</ele>
        <time>2023-07-18T07:31:43Z</time>
      </trkpt>
      <trkpt lat="47.35204" lon="0.54292">
        <ele>49.8</ele>
        <time>2023-07-18T07:31:44Z</time>
      </trkpt>
      <trkpt lat="47.35203" lon="0.54282">
        <ele>49.8</ele>
        <time>2023-07-18T07:31:45Z</time>
      </trkpt>
      <trkpt lat="47.35202" lon="0.54273">
        <ele>49.6</ele>
        <time>2023-07-18T07:31:46Z</time>
      </trkpt>
      <trkpt lat="47.35201" lon="0.54264">
        <ele>49.6</ele>
        <time>2023-07-18T07:31:47Z</time>
      </trkpt>
      <trkpt lat="47.35199" lon="0.54255">
        <ele>49.6</ele>
        <time>2023-07-18T07:31:48Z</time>
      </trkpt>
      <trkpt lat="47.35197" lon="0.54246">
        <ele>49.6</ele>
        <time>2023-07-18T07:31:49Z</time>
      </trkpt>
      <trkpt lat="47.35195" lon="0.54238">
        <ele>49.6</ele>
        <time>2023-07-18T07:31:50Z</time>
      </trkpt>
      <trkpt lat="47.35192" lon="0.54232">
        <ele>49.6</ele>
        <time>2023-07-18T07:31:51Z</time>
      </trkpt>
      <trkpt lat="47.35188" lon="0.54229">
        <ele>49.6</ele>
        <time>2023-07-18T07:31:52Z</time>
      </trkpt>
      <trkpt lat="47.35182" lon="0.54227">
        <ele>49.6</ele>
        <time>2023-07-18T07:31:53Z</time>
      </trkpt>
      <trkpt lat="47.35176" lon="0.54226">
        <ele>49.6</ele>
        <time>2023-07-18T07:31:54Z</time>
      </trkpt>
      <trkpt lat="47.3517" lon="0.54227">
        <ele>49.8</ele>
        <time>2023-07-18T07:31:55Z</time>
      </trkpt>
      <trkpt lat="47.35164" lon="0.54228">
        <ele>50</ele>
        <time>2023-07-18T07:31:56Z</time>
      </trkpt>
      <trkpt lat="47.35158" lon="0.5423">
        <ele>50.2</ele>
        <time>2023-07-18T07:31:57Z</time>
      </trkpt>
      <trkpt lat="47.35151" lon="0.54232">
        <ele>50.4</ele>
        <time>2023-07-18T07:31:58Z</time>
      </trkpt>
      <trkpt lat="47.35145" lon="0.54235">
        <ele>50.6</ele>
        <time>2023-07-18T07:31:59Z</time>
      </trkpt>
      <trkpt lat="47.35139" lon="0.54237">
        <ele>50.4</ele>
        <time>2023-07-18T07:32:00Z</time>
      </trkpt>
      <trkpt lat="47.35133" lon="0.54239">
        <ele>50.6</ele>
        <time>2023-07-18T07:32:01Z</time>
      </trkpt>
      <trkpt lat="47.35127" lon="0.5424">
        <ele>50.6</ele>
        <time>2023-07-18T07:32:02Z</time>
      </trkpt>
      <trkpt lat="47.35121" lon="0.54242">
        <ele>50.6</ele>
        <time>2023-07-18T07:32:03Z</time>
      </trkpt>
      <trkpt lat="47.35115" lon="0.54243">
        <ele>50.4</ele>
        <time>2023-07-18T07:32:04Z</time>
      </trkpt>
      <trkpt lat="47.35109" lon="0.54245">
        <ele>50.2</ele>
        <time>2023-07-18T07:32:05Z</time>
      </trkpt>
      <trkpt lat="47.35104" lon="0.54246">
        <ele>50</ele>
        <time>2023-07-18T07:32:06Z</time>
      </trkpt>
      <trkpt lat="47.35097" lon="0.54247">
        <ele>50</ele>
        <time>2023-07-18T07:32:07Z</time>
      </trkpt>
      <trkpt lat="47.35091" lon="0.54248">
        <ele>50</ele>
        <time>2023-07-18T07:32:08Z</time>
      </trkpt>
      <trkpt lat="47.35084" lon="0.54251">
        <ele>50</ele>
        <time>2023-07-18T07:32:09Z</time>
      </trkpt>
      <trkpt lat="47.35078" lon="0.54254">
        <ele>50</ele>
        <time>2023-07-18T07:32:10Z</time>
      </trkpt>
      <trkpt lat="47.35071" lon="0.54256">
        <ele>50.2</ele>
        <time>2023-07-18T07:32:11Z</time>
      </trkpt>
      <trkpt lat="47.35064" lon="0.54259">
        <ele>50.4</ele>
        <time>2023-07-18T07:32:12Z</time>
      </trkpt>
      <trkpt lat="47.35058" lon="0.54262">
        <ele>50.4</ele>
        <time>2023-07-18T07:32:13Z</time>
      </trkpt>
      <trkpt lat="47.35052" lon="0.54264">
        <ele>50.6</ele>
        <time>2023-07-18T07:32:14Z</time>
      </trkpt>
      <trkpt lat="47.35046" lon="0.54267">
        <ele>50.6</ele>
        <time>2023-07-18T07:32:15Z</time>
      </trkpt>
      <trkpt lat="47.35039" lon="0.5427">
        <ele>50.6</ele>
        <time>2023-07-18T07:32:16Z</time>
      </trkpt>
      <trkpt lat="47.35033" lon="0.54272">
        <ele>50.6</ele>
        <time>2023-07-18T07:32:17Z</time>
      </trkpt>
      <trkpt lat="47.35026" lon="0.54275">
        <ele>50.6</ele>
        <time>2023-07-18T07:32:18Z</time>
      </trkpt>
      <trkpt lat="47.3502" lon="0.54277">
        <ele>50.6</ele>
        <time>2023-07-18T07:32:19Z</time>
      </trkpt>
      <trkpt lat="47.35014" lon="0.54279">
        <ele>50.6</ele>
        <time>2023-07-18T07:32:20Z</time>
      </trkpt>
      <trkpt lat="47.35007" lon="0.54281">
        <ele>50.6</ele>
        <time>2023-07-18T07:32:21Z</time>
      </trkpt>
      <trkpt lat="47.35" lon="0.54283">
        <ele>50.6</ele>
        <time>2023-07-18T07:32:22Z</time>
      </trkpt>
      <trkpt lat="47.34994" lon="0.54286">
        <ele>50.6</ele>
        <time>2023-07-18T07:32:23Z</time>
      </trkpt>
      <trkpt lat="47.34988" lon="0.54288">
        <ele>50.6</ele>
        <time>2023-07-18T07:32:24Z</time>
      </trkpt>
      <trkpt lat="47.34981" lon="0.54291">
        <ele>50.6</ele>
        <time>2023-07-18T07:32:25Z</time>
      </trkpt>
      <trkpt lat="47.34975" lon="0.54295">
        <ele>50.6</ele>
        <time>2023-07-18T07:32:26Z</time>
      </trkpt>
      <trkpt lat="47.34969" lon="0.54298">
        <ele>50.6</ele>
        <time>2023-07-18T07:32:27Z</time>
      </trkpt>
      <trkpt lat="47.34963" lon="0.54302">
        <ele>50.6</ele>
        <time>2023-07-18T07:32:28Z</time>
      </trkpt>
      <trkpt lat="47.34958" lon="0.54305">
        <ele>50.6</ele>
        <time>2023-07-18T07:32:29Z</time>
      </trkpt>
      <trkpt lat="47.34952" lon="0.54309">
        <ele>50.4</ele>
        <time>2023-07-18T07:32:30Z</time>
      </trkpt>
      <trkpt lat="47.34948" lon="0.54315">
        <ele>50.4</ele>
        <time>2023-07-18T07:32:31Z</time>
      </trkpt>
      <trkpt lat="47.34944" lon="0.54322">
        <ele>50.4</ele>
        <time>2023-07-18T07:32:32Z</time>
      </trkpt>
      <trkpt lat="47.3494" lon="0.54328">
        <ele>50.4</ele>
        <time>2023-07-18T07:32:33Z</time>
      </trkpt>
      <trkpt lat="47.34936" lon="0.54335">
        <ele>50.6</ele>
        <time>2023-07-18T07:32:34Z</time>
      </trkpt>
      <trkpt lat="47.34932" lon="0.5434">
        <ele>50.8</ele>
        <time>2023-07-18T07:32:35Z</time>
      </trkpt>
      <trkpt lat="47.34928" lon="0.54345">
        <ele>51</ele>
        <time>2023-07-18T07:32:36Z</time>
      </trkpt>
      <trkpt lat="47.34924" lon="0.54348">
        <ele>51.2</ele>
        <time>2023-07-18T07:32:37Z</time>
      </trkpt>
      <trkpt lat="47.3492" lon="0.5435">
        <ele>51.4</ele>
        <time>2023-07-18T07:32:38Z</time>
      </trkpt>
      <trkpt lat="47.34917" lon="0.54351">
        <ele>51.8</ele>
        <time>2023-07-18T07:32:39Z</time>
      </trkpt>
      <trkpt lat="47.34914" lon="0.54352">
        <ele>52</ele>
        <time>2023-07-18T07:32:40Z</time>
      </trkpt>
      <trkpt lat="47.34912" lon="0.54352">
        <ele>52.2</ele>
        <time>2023-07-18T07:32:41Z</time>
      </trkpt>
      <trkpt lat="47.3491" lon="0.54351">
        <ele>52.4</ele>
        <time>2023-07-18T07:32:42Z</time>
      </trkpt>
      <trkpt lat="47.34908" lon="0.54348">
        <ele>52.6</ele>
        <time>2023-07-18T07:32:43Z</time>
      </trkpt>
      <trkpt lat="47.34907" lon="0.54344">
        <ele>52.8</ele>
        <time>2023-07-18T07:32:44Z</time>
      </trkpt>
      <trkpt lat="47.34905" lon="0.54338">
        <ele>52.8</ele>
        <time>2023-07-18T07:32:45Z</time>
      </trkpt>
      <trkpt lat="47.34903" lon="0.54331">
        <ele>53</ele>
        <time>2023-07-18T07:32:46Z</time>
      </trkpt>
      <trkpt lat="47.34901" lon="0.54325">
        <ele>53</ele>
        <time>2023-07-18T07:32:47Z</time>
      </trkpt>
      <trkpt lat="47.34898" lon="0.54317">
        <ele>53.2</ele>
        <time>2023-07-18T07:32:48Z</time>
      </trkpt>
      <trkpt lat="47.34896" lon="0.5431">
        <ele>53.2</ele>
        <time>2023-07-18T07:32:49Z</time>
      </trkpt>
      <trkpt lat="47.34894" lon="0.54303">
        <ele>53.2</ele>
        <time>2023-07-18T07:32:50Z</time>
      </trkpt>
      <trkpt lat="47.34892" lon="0.54295">
        <ele>53.2</ele>
        <time>2023-07-18T07:32:51Z</time>
      </trkpt>
      <trkpt lat="47.34889" lon="0.54288">
        <ele>53.2</ele>
        <time>2023-07-18T07:32:52Z</time>
      </trkpt>
      <trkpt lat="47.34887" lon="0.5428">
        <ele>53.4</ele>
        <time>2023-07-18T07:32:53Z</time>
      </trkpt>
      <trkpt lat="47.34883" lon="0.54274">
        <ele>53.4</ele>
        <time>2023-07-18T07:32:54Z</time>
      </trkpt>
      <trkpt lat="47.34879" lon="0.5427">
        <ele>53.8</ele>
        <time>2023-07-18T07:32:55Z</time>
      </trkpt>
      <trkpt lat="47.34874" lon="0.54269">
        <ele>54.2</ele>
        <time>2023-07-18T07:32:56Z</time>
      </trkpt>
      <trkpt lat="47.34869" lon="0.54269">
        <ele>54.4</ele>
        <time>2023-07-18T07:32:57Z</time>
      </trkpt>
      <trkpt lat="47.34864" lon="0.54271">
        <ele>54.6</ele>
        <time>2023-07-18T07:32:58Z</time>
      </trkpt>
      <trkpt lat="47.34859" lon="0.54273">
        <ele>55</ele>
        <time>2023-07-18T07:32:59Z</time>
      </trkpt>
      <trkpt lat="47.34855" lon="0.54275">
        <ele>55.2</ele>
        <time>2023-07-18T07:33:00Z</time>
      </trkpt>
      <trkpt lat="47.3485" lon="0.54277">
        <ele>55.4</ele>
        <time>2023-07-18T07:33:01Z</time>
      </trkpt>
      <trkpt lat="47.34845" lon="0.54279">
        <ele>55.6</ele>
        <time>2023-07-18T07:33:02Z</time>
      </trkpt>
      <trkpt lat="47.3484" lon="0.54281">
        <ele>55.8</ele>
        <time>2023-07-18T07:33:03Z</time>
      </trkpt>
      <trkpt lat="47.34835" lon="0.54282">
        <ele>56</ele>
        <time>2023-07-18T07:33:04Z</time>
      </trkpt>
      <trkpt lat="47.3483" lon="0.54284">
        <ele>56.2</ele>
        <time>2023-07-18T07:33:05Z</time>
      </trkpt>
      <trkpt lat="47.34825" lon="0.54285">
        <ele>56.2</ele>
        <time>2023-07-18T07:33:06Z</time>
      </trkpt>
      <trkpt lat="47.3482" lon="0.54287">
        <ele>56.2</ele>
        <time>2023-07-18T07:33:07Z</time>
      </trkpt>
      <trkpt lat="47.34816" lon="0.54289">
        <ele>56.2</ele>
        <time>2023-07-18T07:33:08Z</time>
      </trkpt>
      <trkpt lat="47.34811" lon="0.54291">
        <ele>56.2</ele>
        <time>2023-07-18T07:33:09Z</time>
      </trkpt>
      <trkpt lat="47.34806" lon="0.54293">
        <ele>56</ele>
        <time>2023-07-18T07:33:10Z</time>
      </trkpt>
      <trkpt lat="47.34801" lon="0.54295">
        <ele>56</ele>
        <time>2023-07-18T07:33:11Z</time>
      </trkpt>
      <trkpt lat="47.34797" lon="0.54297">
        <ele>55.8</ele>
        <time>2023-07-18T07:33:12Z</time>
      </trkpt>
      <trkpt lat="47.34791" lon="0.54299">
        <ele>55.6</ele>
        <time>2023-07-18T07:33:13Z</time>
      </trkpt>
      <trkpt lat="47.34787" lon="0.54301">
        <ele>55.4</ele>
        <time>2023-07-18T07:33:14Z</time>
      </trkpt>
      <trkpt lat="47.34782" lon="0.54303">
        <ele>55.2</ele>
        <time>2023-07-18T07:33:15Z</time>
      </trkpt>
      <trkpt lat="47.34777" lon="0.54304">
        <ele>55</ele>
        <time>2023-07-18T07:33:16Z</time>
      </trkpt>
      <trkpt lat="47.34773" lon="0.54305">
        <ele>54.8</ele>
        <time>2023-07-18T07:33:17Z</time>
      </trkpt>
      <trkpt lat="47.3477" lon="0.54309">
        <ele>54.6</ele>
        <time>2023-07-18T07:33:18Z</time>
      </trkpt>
      <trkpt lat="47.34769" lon="0.54316">
        <ele>54.4</ele>
        <time>2023-07-18T07:33:19Z</time>
      </trkpt>
      <trkpt lat="47.34769" lon="0.54323">
        <ele>54.2</ele>
        <time>2023-07-18T07:33:20Z</time>
      </trkpt>
      <trkpt lat="47.34771" lon="0.5433">
        <ele>54</ele>
        <time>2023-07-18T07:33:21Z</time>
      </trkpt>
      <trkpt lat="47.34772" lon="0.54338">
        <ele>54</ele>
        <time>2023-07-18T07:33:22Z</time>
      </trkpt>
      <trkpt lat="47.34772" lon="0.54346">
        <ele>53.8</ele>
        <time>2023-07-18T07:33:23Z</time>
      </trkpt>
      <trkpt lat="47.34773" lon="0.54354">
        <ele>53.8</ele>
        <time>2023-07-18T07:33:24Z</time>
      </trkpt>
      <trkpt lat="47.34774" lon="0.54362">
        <ele>53.6</ele>
        <time>2023-07-18T07:33:25Z</time>
      </trkpt>
      <trkpt lat="47.34774" lon="0.5437">
        <ele>53.6</ele>
        <time>2023-07-18T07:33:26Z</time>
      </trkpt>
      <trkpt lat="47.34775" lon="0.54378">
        <ele>53.6</ele>
        <time>2023-07-18T07:33:27Z</time>
      </trkpt>
      <trkpt lat="47.34775" lon="0.54387">
        <ele>53.6</ele>
        <time>2023-07-18T07:33:28Z</time>
      </trkpt>
      <trkpt lat="47.34776" lon="0.54395">
        <ele>53.6</ele>
        <time>2023-07-18T07:33:29Z</time>
      </trkpt>
      <trkpt lat="47.34777" lon="0.54404">
        <ele>53.8</ele>
        <time>2023-07-18T07:33:30Z</time>
      </trkpt>
      <trkpt lat="47.34778" lon="0.54413">
        <ele>53.8</ele>
        <time>2023-07-18T07:33:31Z</time>
      </trkpt>
      <trkpt lat="47.34779" lon="0.54421">
        <ele>53.8</ele>
        <time>2023-07-18T07:33:32Z</time>
      </trkpt>
      <trkpt lat="47.3478" lon="0.5443">
        <ele>54</ele>
        <time>2023-07-18T07:33:33Z</time>
      </trkpt>
      <trkpt lat="47.34781" lon="0.54438">
        <ele>54</ele>
        <time>2023-07-18T07:33:34Z</time>
      </trkpt>
      <trkpt lat="47.34782" lon="0.54446">
        <ele>54</ele>
        <time>2023-07-18T07:33:35Z</time>
      </trkpt>
      <trkpt lat="47.34782" lon="0.54454">
        <ele>54</ele>
        <time>2023-07-18T07:33:36Z</time>
      </trkpt>
      <trkpt lat="47.34783" lon="0.54463">
        <ele>54</ele>
        <time>2023-07-18T07:33:37Z</time>
      </trkpt>
      <trkpt lat="47.34784" lon="0.54472">
        <ele>54</ele>
        <time>2023-07-18T07:33:38Z</time>
      </trkpt>
      <trkpt lat="47.34785" lon="0.54481">
        <ele>54</ele>
        <time>2023-07-18T07:33:39Z</time>
      </trkpt>
      <trkpt lat="47.34786" lon="0.5449">
        <ele>54</ele>
        <time>2023-07-18T07:33:40Z</time>
      </trkpt>
      <trkpt lat="47.34788" lon="0.54499">
        <ele>54</ele>
        <time>2023-07-18T07:33:41Z</time>
      </trkpt>
      <trkpt lat="47.34789" lon="0.54508">
        <ele>53.8</ele>
        <time>2023-07-18T07:33:42Z</time>
      </trkpt>
      <trkpt lat="47.3479" lon="0.54518">
        <ele>53.8</ele>
        <time>2023-07-18T07:33:43Z</time>
      </trkpt>
      <trkpt lat="47.34791" lon="0.54527">
        <ele>53.8</ele>
        <time>2023-07-18T07:33:44Z</time>
      </trkpt>
      <trkpt lat="47.34792" lon="0.54537">
        <ele>53.6</ele>
        <time>2023-07-18T07:33:45Z</time>
      </trkpt>
      <trkpt lat="47.34792" lon="0.54546">
        <ele>53.4</ele>
        <time>2023-07-18T07:33:46Z</time>
      </trkpt>
      <trkpt lat="47.34793" lon="0.54555">
        <ele>53.2</ele>
        <time>2023-07-18T07:33:47Z</time>
      </trkpt>
      <trkpt lat="47.34795" lon="0.54564">
        <ele>53</ele>
        <time>2023-07-18T07:33:48Z</time>
      </trkpt>
      <trkpt lat="47.34796" lon="0.54573">
        <ele>53</ele>
        <time>2023-07-18T07:33:49Z</time>
      </trkpt>
      <trkpt lat="47.34797" lon="0.54581">
        <ele>52.8</ele>
        <time>2023-07-18T07:33:50Z</time>
      </trkpt>
      <trkpt lat="47.34799" lon="0.5459">
        <ele>52.6</ele>
        <time>2023-07-18T07:33:51Z</time>
      </trkpt>
      <trkpt lat="47.348" lon="0.54598">
        <ele>52.6</ele>
        <time>2023-07-18T07:33:52Z</time>
      </trkpt>
      <trkpt lat="47.34801" lon="0.54606">
        <ele>52.4</ele>
        <time>2023-07-18T07:33:53Z</time>
      </trkpt>
      <trkpt lat="47.34802" lon="0.54615">
        <ele>52.4</ele>
        <time>2023-07-18T07:33:54Z</time>
      </trkpt>
      <trkpt lat="47.34803" lon="0.54623">
        <ele>52.4</ele>
        <time>2023-07-18T07:33:55Z</time>
      </trkpt>
      <trkpt lat="47.34804" lon="0.54632">
        <ele>52.4</ele>
        <time>2023-07-18T07:33:56Z</time>
      </trkpt>
      <trkpt lat="47.34805" lon="0.5464">
        <ele>52.2</ele>
        <time>2023-07-18T07:33:57Z</time>
      </trkpt>
      <trkpt lat="47.34806" lon="0.54648">
        <ele>52.2</ele>
        <time>2023-07-18T07:33:58Z</time>
      </trkpt>
      <trkpt lat="47.34808" lon="0.54657">
        <ele>52.2</ele>
        <time>2023-07-18T07:33:59Z</time>
      </trkpt>
      <trkpt lat="47.34809" lon="0.54665">
        <ele>52.2</ele>
        <time>2023-07-18T07:34:00Z</time>
      </trkpt>
      <trkpt lat="47.3481" lon="0.54673">
        <ele>52.2</ele>
        <time>2023-07-18T07:34:01Z</time>
      </trkpt>
      <trkpt lat="47.34812" lon="0.54681">
        <ele>52.2</ele>
        <time>2023-07-18T07:34:02Z</time>
      </trkpt>
      <trkpt lat="47.34813" lon="0.54689">
        <ele>52.2</ele>
        <time>2023-07-18T07:34:03Z</time>
      </trkpt>
      <trkpt lat="47.34814" lon="0.54697">
        <ele>52.2</ele>
        <time>2023-07-18T07:34:04Z</time>
      </trkpt>
      <trkpt lat="47.34815" lon="0.54705">
        <ele>52.2</ele>
        <time>2023-07-18T07:34:05Z</time>
      </trkpt>
      <trkpt lat="47.34816" lon="0.54714">
        <ele>52</ele>
        <time>2023-07-18T07:34:06Z</time>
      </trkpt>
      <trkpt lat="47.34816" lon="0.54723">
        <ele>52</ele>
        <time>2023-07-18T07:34:07Z</time>
      </trkpt>
      <trkpt lat="47.34816" lon="0.5473">
        <ele>52</ele>
        <time>2023-07-18T07:34:08Z</time>
      </trkpt>
      <trkpt lat="47.34818" lon="0.54739">
        <ele>51.8</ele>
        <time>2023-07-18T07:34:09Z</time>
      </trkpt>
      <trkpt lat="47.34819" lon="0.54748">
        <ele>51.8</ele>
        <time>2023-07-18T07:34:10Z</time>
      </trkpt>
      <trkpt lat="47.34819" lon="0.54757">
        <ele>51.6</ele>
        <time>2023-07-18T07:34:11Z</time>
      </trkpt>
      <trkpt lat="47.3482" lon="0.54765">
        <ele>51.6</ele>
        <time>2023-07-18T07:34:12Z</time>
      </trkpt>
      <trkpt lat="47.34821" lon="0.54773">
        <ele>51.6</ele>
        <time>2023-07-18T07:34:13Z</time>
      </trkpt>
      <trkpt lat="47.34822" lon="0.54781">
        <ele>51.6</ele>
        <time>2023-07-18T07:34:14Z</time>
      </trkpt>
      <trkpt lat="47.34823" lon="0.54788">
        <ele>51.6</ele>
        <time>2023-07-18T07:34:15Z</time>
      </trkpt>
      <trkpt lat="47.34824" lon="0.54795">
        <ele>51.6</ele>
        <time>2023-07-18T07:34:16Z</time>
      </trkpt>
      <trkpt lat="47.34824" lon="0.54803">
        <ele>51.4</ele>
        <time>2023-07-18T07:34:17Z</time>
      </trkpt>
      <trkpt lat="47.34824" lon="0.54811">
        <ele>51.6</ele>
        <time>2023-07-18T07:34:18Z</time>
      </trkpt>
      <trkpt lat="47.34823" lon="0.54818">
        <ele>51.6</ele>
        <time>2023-07-18T07:34:19Z</time>
      </trkpt>
      <trkpt lat="47.34822" lon="0.54826">
        <ele>51.8</ele>
        <time>2023-07-18T07:34:20Z</time>
      </trkpt>
      <trkpt lat="47.3482" lon="0.54833">
        <ele>51.8</ele>
        <time>2023-07-18T07:34:21Z</time>
      </trkpt>
      <trkpt lat="47.34819" lon="0.54841">
        <ele>51.8</ele>
        <time>2023-07-18T07:34:22Z</time>
      </trkpt>
      <trkpt lat="47.34817" lon="0.54848">
        <ele>52</ele>
        <time>2023-07-18T07:34:23Z</time>
      </trkpt>
      <trkpt lat="47.34815" lon="0.54854">
        <ele>52</ele>
        <time>2023-07-18T07:34:24Z</time>
      </trkpt>
      <trkpt lat="47.34812" lon="0.54861">
        <ele>52</ele>
        <time>2023-07-18T07:34:25Z</time>
      </trkpt>
      <trkpt lat="47.34809" lon="0.54867">
        <ele>52.2</ele>
        <time>2023-07-18T07:34:26Z</time>
      </trkpt>
      <trkpt lat="47.34807" lon="0.54873">
        <ele>52.2</ele>
        <time>2023-07-18T07:34:27Z</time>
      </trkpt>
      <trkpt lat="47.34804" lon="0.54879">
        <ele>52</ele>
        <time>2023-07-18T07:34:28Z</time>
      </trkpt>
      <trkpt lat="47.348" lon="0.54883">
        <ele>52</ele>
        <time>2023-07-18T07:34:29Z</time>
      </trkpt>
      <trkpt lat="47.34797" lon="0.54885">
        <ele>52</ele>
        <time>2023-07-18T07:34:30Z</time>
      </trkpt>
      <trkpt lat="47.34792" lon="0.54886">
        <ele>52</ele>
        <time>2023-07-18T07:34:31Z</time>
      </trkpt>
      <trkpt lat="47.34789" lon="0.54885">
        <ele>52</ele>
        <time>2023-07-18T07:34:32Z</time>
      </trkpt>
      <trkpt lat="47.34787" lon="0.54884">
        <ele>52</ele>
        <time>2023-07-18T07:34:33Z</time>
      </trkpt>
      <trkpt lat="47.34784" lon="0.54884">
        <ele>52</ele>
        <time>2023-07-18T07:34:34Z</time>
      </trkpt>
      <trkpt lat="47.34783" lon="0.54886">
        <ele>52.2</ele>
        <time>2023-07-18T07:34:35Z</time>
      </trkpt>
      <trkpt lat="47.34783" lon="0.54888">
        <ele>52.2</ele>
        <time>2023-07-18T07:34:36Z</time>
      </trkpt>
      <trkpt lat="47.34784" lon="0.54889">
        <ele>52.2</ele>
        <time>2023-07-18T07:34:37Z</time>
      </trkpt>
      <trkpt lat="47.34786" lon="0.54888">
        <ele>52</ele>
        <time>2023-07-18T07:34:38Z</time>
      </trkpt>
      <trkpt lat="47.34788" lon="0.54887">
        <ele>52</ele>
        <time>2023-07-18T07:34:39Z</time>
      </trkpt>
      <trkpt lat="47.34789" lon="0.54885">
        <ele>52</ele>
        <time>2023-07-18T07:34:40Z</time>
      </trkpt>
      <trkpt lat="47.34789" lon="0.54883">
        <ele>52</ele>
        <time>2023-07-18T07:34:41Z</time>
      </trkpt>
      <trkpt lat="47.34789" lon="0.54876">
        <ele>52.2</ele>
        <time>2023-07-18T07:34:42Z</time>
      </trkpt>
      <trkpt lat="47.34787" lon="0.54869">
        <ele>52.4</ele>
        <time>2023-07-18T07:34:43Z</time>
      </trkpt>
      <trkpt lat="47.34785" lon="0.54861">
        <ele>52.4</ele>
        <time>2023-07-18T07:34:44Z</time>
      </trkpt>
      <trkpt lat="47.34784" lon="0.54855">
        <ele>52.4</ele>
        <time>2023-07-18T07:34:45Z</time>
      </trkpt>
      <trkpt lat="47.34781" lon="0.54849">
        <ele>52.6</ele>
        <time>2023-07-18T07:34:46Z</time>
      </trkpt>
      <trkpt lat="47.34779" lon="0.54844">
        <ele>52.6</ele>
        <time>2023-07-18T07:34:47Z</time>
      </trkpt>
      <trkpt lat="47.34776" lon="0.5484">
        <ele>52.8</ele>
        <time>2023-07-18T07:34:48Z</time>
      </trkpt>
      <trkpt lat="47.34772" lon="0.54839">
        <ele>52.8</ele>
        <time>2023-07-18T07:34:49Z</time>
      </trkpt>
      <trkpt lat="47.3477" lon="0.54839">
        <ele>52.8</ele>
        <time>2023-07-18T07:34:50Z</time>
      </trkpt>
      <trkpt lat="47.34768" lon="0.54841">
        <ele>52.8</ele>
        <time>2023-07-18T07:34:51Z</time>
      </trkpt>
      <trkpt lat="47.34766" lon="0.54842">
        <ele>53</ele>
        <time>2023-07-18T07:34:52Z</time>
      </trkpt>
      <trkpt lat="47.34763" lon="0.54843">
        <ele>53</ele>
        <time>2023-07-18T07:34:53Z</time>
      </trkpt>
      <trkpt lat="47.3476" lon="0.54845">
        <ele>53.2</ele>
        <time>2023-07-18T07:34:54Z</time>
      </trkpt>
      <trkpt lat="47.34757" lon="0.54847">
        <ele>53.2</ele>
        <time>2023-07-18T07:34:55Z</time>
      </trkpt>
      <trkpt lat="47.34753" lon="0.54848">
        <ele>53.4</ele>
        <time>2023-07-18T07:34:56Z</time>
      </trkpt>
      <trkpt lat="47.34749" lon="0.54849">
        <ele>53.6</ele>
        <time>2023-07-18T07:34:57Z</time>
      </trkpt>
      <trkpt lat="47.34745" lon="0.54849">
        <ele>53.8</ele>
        <time>2023-07-18T07:34:58Z</time>
      </trkpt>
      <trkpt lat="47.34741" lon="0.54849">
        <ele>54</ele>
        <time>2023-07-18T07:34:59Z</time>
      </trkpt>
      <trkpt lat="47.34737" lon="0.54849">
        <ele>54.2</ele>
        <time>2023-07-18T07:35:00Z</time>
      </trkpt>
      <trkpt lat="47.34733" lon="0.54848">
        <ele>54.4</ele>
        <time>2023-07-18T07:35:01Z</time>
      </trkpt>
      <trkpt lat="47.3473" lon="0.54848">
        <ele>54.6</ele>
        <time>2023-07-18T07:35:02Z</time>
      </trkpt>
      <trkpt lat="47.34726" lon="0.54847">
        <ele>54.8</ele>
        <time>2023-07-18T07:35:03Z</time>
      </trkpt>
      <trkpt lat="47.34723" lon="0.54844">
        <ele>55</ele>
        <time>2023-07-18T07:35:04Z</time>
      </trkpt>
      <trkpt lat="47.3472" lon="0.54841">
        <ele>55.2</ele>
        <time>2023-07-18T07:35:05Z</time>
      </trkpt>
      <trkpt lat="47.34717" lon="0.54838">
        <ele>55.6</ele>
        <time>2023-07-18T07:35:06Z</time>
      </trkpt>
      <trkpt lat="47.34715" lon="0.54835">
        <ele>55.8</ele>
        <time>2023-07-18T07:35:07Z</time>
      </trkpt>
      <trkpt lat="47.34711" lon="0.54832">
        <ele>56</ele>
        <time>2023-07-18T07:35:08Z</time>
      </trkpt>
      <trkpt lat="47.34709" lon="0.54828">
        <ele>56.4</ele>
        <time>2023-07-18T07:35:09Z</time>
      </trkpt>
      <trkpt lat="47.34706" lon="0.54824">
        <ele>56.6</ele>
        <time>2023-07-18T07:35:10Z</time>
      </trkpt>
      <trkpt lat="47.34704" lon="0.5482">
        <ele>56.8</ele>
        <time>2023-07-18T07:35:11Z</time>
      </trkpt>
      <trkpt lat="47.34702" lon="0.54815">
        <ele>57</ele>
        <time>2023-07-18T07:35:12Z</time>
      </trkpt>
      <trkpt lat="47.347" lon="0.54811">
        <ele>57.4</ele>
        <time>2023-07-18T07:35:13Z</time>
      </trkpt>
      <trkpt lat="47.34698" lon="0.54806">
        <ele>57.6</ele>
        <time>2023-07-18T07:35:14Z</time>
      </trkpt>
      <trkpt lat="47.34697" lon="0.54802">
        <ele>58</ele>
        <time>2023-07-18T07:35:15Z</time>
      </trkpt>
      <trkpt lat="47.34695" lon="0.54798">
        <ele>58.2</ele>
        <time>2023-07-18T07:35:16Z</time>
      </trkpt>
      <trkpt lat="47.34692" lon="0.54794">
        <ele>58.4</ele>
        <time>2023-07-18T07:35:17Z</time>
      </trkpt>
      <trkpt lat="47.3469" lon="0.54791">
        <ele>58.8</ele>
        <time>2023-07-18T07:35:18Z</time>
      </trkpt>
      <trkpt lat="47.34688" lon="0.54789">
        <ele>59</ele>
        <time>2023-07-18T07:35:19Z</time>
      </trkpt>
      <trkpt lat="47.34687" lon="0.54787">
        <ele>59.2</ele>
        <time>2023-07-18T07:35:20Z</time>
      </trkpt>
      <trkpt lat="47.34686" lon="0.54786">
        <ele>59.2</ele>
        <time>2023-07-18T07:35:21Z</time>
      </trkpt>
      <trkpt lat="47.34684" lon="0.54785">
        <ele>59.4</ele>
        <time>2023-07-18T07:35:22Z</time>
      </trkpt>
      <trkpt lat="47.34683" lon="0.54784">
        <ele>59.6</ele>
        <time>2023-07-18T07:35:23Z</time>
      </trkpt>
      <trkpt lat="47.34683" lon="0.54783">
        <ele>59.6</ele>
        <time>2023-07-18T07:35:24Z</time>
      </trkpt>
      <trkpt lat="47.34682" lon="0.54782">
        <ele>59.8</ele>
        <time>2023-07-18T07:35:25Z</time>
      </trkpt>
      <trkpt lat="47.34681" lon="0.54781">
        <ele>60</ele>
        <time>2023-07-18T07:35:26Z</time>
      </trkpt>
      <trkpt lat="47.3468" lon="0.54779">
        <ele>60</ele>
        <time>2023-07-18T07:35:27Z</time>
      </trkpt>
      <trkpt lat="47.34679" lon="0.54777">
        <ele>60.2</ele>
        <time>2023-07-18T07:35:28Z</time>
      </trkpt>
      <trkpt lat="47.34677" lon="0.54774">
        <ele>60.4</ele>
        <time>2023-07-18T07:35:29Z</time>
      </trkpt>
      <trkpt lat="47.34675" lon="0.54771">
        <ele>60.6</ele>
        <time>2023-07-18T07:35:30Z</time>
      </trkpt>
      <trkpt lat="47.34673" lon="0.54769">
        <ele>60.8</ele>
        <time>2023-07-18T07:35:31Z</time>
      </trkpt>
      <trkpt lat="47.34669" lon="0.54766">
        <ele>61</ele>
        <time>2023-07-18T07:35:32Z</time>
      </trkpt>
      <trkpt lat="47.34666" lon="0.54763">
        <ele>61.4</ele>
        <time>2023-07-18T07:35:33Z</time>
      </trkpt>
      <trkpt lat="47.34663" lon="0.54759">
        <ele>61.6</ele>
        <time>2023-07-18T07:35:34Z</time>
      </trkpt>
      <trkpt lat="47.3466" lon="0.54755">
        <ele>62</ele>
        <time>2023-07-18T07:35:35Z</time>
      </trkpt>
      <trkpt lat="47.34658" lon="0.54751">
        <ele>62.2</ele>
        <time>2023-07-18T07:35:36Z</time>
      </trkpt>
      <trkpt lat="47.34655" lon="0.54747">
        <ele>62.6</ele>
        <time>2023-07-18T07:35:37Z</time>
      </trkpt>
      <trkpt lat="47.34652" lon="0.54743">
        <ele>62.8</ele>
        <time>2023-07-18T07:35:38Z</time>
      </trkpt>
      <trkpt lat="47.3465" lon="0.54739">
        <ele>63.2</ele>
        <time>2023-07-18T07:35:39Z</time>
      </trkpt>
      <trkpt lat="47.34647" lon="0.54735">
        <ele>63.6</ele>
        <time>2023-07-18T07:35:40Z</time>
      </trkpt>
      <trkpt lat="47.34644" lon="0.54731">
        <ele>63.8</ele>
        <time>2023-07-18T07:35:41Z</time>
      </trkpt>
      <trkpt lat="47.34642" lon="0.54727">
        <ele>64.2</ele>
        <time>2023-07-18T07:35:42Z</time>
      </trkpt>
      <trkpt lat="47.34639" lon="0.54722">
        <ele>64.4</ele>
        <time>2023-07-18T07:35:43Z</time>
      </trkpt>
      <trkpt lat="47.34636" lon="0.54718">
        <ele>64.8</ele>
        <time>2023-07-18T07:35:44Z</time>
      </trkpt>
      <trkpt lat="47.34633" lon="0.54714">
        <ele>65</ele>
        <time>2023-07-18T07:35:45Z</time>
      </trkpt>
      <trkpt lat="47.3463" lon="0.5471">
        <ele>65.4</ele>
        <time>2023-07-18T07:35:46Z</time>
      </trkpt>
      <trkpt lat="47.34628" lon="0.54706">
        <ele>65.6</ele>
        <time>2023-07-18T07:35:47Z</time>
      </trkpt>
      <trkpt lat="47.34625" lon="0.54701">
        <ele>66</ele>
        <time>2023-07-18T07:35:48Z</time>
      </trkpt>
      <trkpt lat="47.34622" lon="0.54697">
        <ele>66.2</ele>
        <time>2023-07-18T07:35:49Z</time>
      </trkpt>
      <trkpt lat="47.34619" lon="0.54693">
        <ele>66.4</ele>
        <time>2023-07-18T07:35:50Z</time>
      </trkpt>
      <trkpt lat="47.34616" lon="0.54689">
        <ele>66.8</ele>
        <time>2023-07-18T07:35:51Z</time>
      </trkpt>
      <trkpt lat="47.34613" lon="0.54685">
        <ele>67</ele>
        <time>2023-07-18T07:35:52Z</time>
      </trkpt>
      <trkpt lat="47.3461" lon="0.54681">
        <ele>67.2</ele>
        <time>2023-07-18T07:35:53Z</time>
      </trkpt>
      <trkpt lat="47.34608" lon="0.54677">
        <ele>67.6</ele>
        <time>2023-07-18T07:35:54Z</time>
      </trkpt>
      <trkpt lat="47.34605" lon="0.54673">
        <ele>67.8</ele>
        <time>2023-07-18T07:35:55Z</time>
      </trkpt>
      <trkpt lat="47.34602" lon="0.5467">
        <ele>68</ele>
        <time>2023-07-18T07:35:56Z</time>
      </trkpt>
      <trkpt lat="47.34599" lon="0.54668">
        <ele>68.4</ele>
        <time>2023-07-18T07:35:57Z</time>
      </trkpt>
      <trkpt lat="47.34595" lon="0.54665">
        <ele>68.8</ele>
        <time>2023-07-18T07:35:58Z</time>
      </trkpt>
      <trkpt lat="47.34592" lon="0.54662">
        <ele>69</ele>
        <time>2023-07-18T07:35:59Z</time>
      </trkpt>
      <trkpt lat="47.34589" lon="0.54659">
        <ele>69.4</ele>
        <time>2023-07-18T07:36:00Z</time>
      </trkpt>
      <trkpt lat="47.34586" lon="0.54656">
        <ele>69.6</ele>
        <time>2023-07-18T07:36:01Z</time>
      </trkpt>
      <trkpt lat="47.34584" lon="0.54654">
        <ele>70</ele>
        <time>2023-07-18T07:36:02Z</time>
      </trkpt>
      <trkpt lat="47.34581" lon="0.54651">
        <ele>70.2</ele>
        <time>2023-07-18T07:36:03Z</time>
      </trkpt>
      <trkpt lat="47.34578" lon="0.54648">
        <ele>70.6</ele>
        <time>2023-07-18T07:36:04Z</time>
      </trkpt>
      <trkpt lat="47.34575" lon="0.54644">
        <ele>70.8</ele>
        <time>2023-07-18T07:36:05Z</time>
      </trkpt>
      <trkpt lat="47.34573" lon="0.54639">
        <ele>71.2</ele>
        <time>2023-07-18T07:36:06Z</time>
      </trkpt>
      <trkpt lat="47.3457" lon="0.54636">
        <ele>71.4</ele>
        <time>2023-07-18T07:36:07Z</time>
      </trkpt>
      <trkpt lat="47.34567" lon="0.54631">
        <ele>71.8</ele>
        <time>2023-07-18T07:36:08Z</time>
      </trkpt>
      <trkpt lat="47.34564" lon="0.54626">
        <ele>72</ele>
        <time>2023-07-18T07:36:09Z</time>
      </trkpt>
      <trkpt lat="47.34562" lon="0.54621">
        <ele>72.4</ele>
        <time>2023-07-18T07:36:10Z</time>
      </trkpt>
      <trkpt lat="47.34559" lon="0.54616">
        <ele>72.6</ele>
        <time>2023-07-18T07:36:11Z</time>
      </trkpt>
      <trkpt lat="47.34557" lon="0.54611">
        <ele>72.8</ele>
        <time>2023-07-18T07:36:12Z</time>
      </trkpt>
      <trkpt lat="47.34555" lon="0.54606">
        <ele>73.2</ele>
        <time>2023-07-18T07:36:13Z</time>
      </trkpt>
      <trkpt lat="47.34553" lon="0.54602">
        <ele>73.4</ele>
        <time>2023-07-18T07:36:14Z</time>
      </trkpt>
      <trkpt lat="47.3455" lon="0.54597">
        <ele>73.8</ele>
        <time>2023-07-18T07:36:15Z</time>
      </trkpt>
      <trkpt lat="47.34549" lon="0.54592">
        <ele>74</ele>
        <time>2023-07-18T07:36:16Z</time>
      </trkpt>
      <trkpt lat="47.34546" lon="0.54587">
        <ele>74.2</ele>
        <time>2023-07-18T07:36:17Z</time>
      </trkpt>
      <trkpt lat="47.34544" lon="0.54582">
        <ele>74.6</ele>
        <time>2023-07-18T07:36:18Z</time>
      </trkpt>
      <trkpt lat="47.34542" lon="0.54577">
        <ele>74.8</ele>
        <time>2023-07-18T07:36:19Z</time>
      </trkpt>
      <trkpt lat="47.3454" lon="0.54572">
        <ele>75.2</ele>
        <time>2023-07-18T07:36:20Z</time>
      </trkpt>
      <trkpt lat="47.34539" lon="0.54567">
        <ele>75.4</ele>
        <time>2023-07-18T07:36:21Z</time>
      </trkpt>
      <trkpt lat="47.34537" lon="0.54562">
        <ele>75.8</ele>
        <time>2023-07-18T07:36:22Z</time>
      </trkpt>
      <trkpt lat="47.34534" lon="0.54557">
        <ele>76</ele>
        <time>2023-07-18T07:36:23Z</time>
      </trkpt>
      <trkpt lat="47.34532" lon="0.54552">
        <ele>76.4</ele>
        <time>2023-07-18T07:36:24Z</time>
      </trkpt>
      <trkpt lat="47.34529" lon="0.54547">
        <ele>76.6</ele>
        <time>2023-07-18T07:36:25Z</time>
      </trkpt>
      <trkpt lat="47.34527" lon="0.54542">
        <ele>77</ele>
        <time>2023-07-18T07:36:26Z</time>
      </trkpt>
      <trkpt lat="47.34525" lon="0.54536">
        <ele>77.2</ele>
        <time>2023-07-18T07:36:27Z</time>
      </trkpt>
      <trkpt lat="47.34523" lon="0.5453">
        <ele>77.4</ele>
        <time>2023-07-18T07:36:28Z</time>
      </trkpt>
      <trkpt lat="47.34523" lon="0.54525">
        <ele>77.8</ele>
        <time>2023-07-18T07:36:29Z</time>
      </trkpt>
      <trkpt lat="47.3452" lon="0.5452">
        <ele>78</ele>
        <time>2023-07-18T07:36:30Z</time>
      </trkpt>
      <trkpt lat="47.34518" lon="0.54515">
        <ele>78.4</ele>
        <time>2023-07-18T07:36:31Z</time>
      </trkpt>
      <trkpt lat="47.34517" lon="0.5451">
        <ele>78.8</ele>
        <time>2023-07-18T07:36:32Z</time>
      </trkpt>
      <trkpt lat="47.34515" lon="0.54505">
        <ele>79</ele>
        <time>2023-07-18T07:36:33Z</time>
      </trkpt>
      <trkpt lat="47.34512" lon="0.54501">
        <ele>79.4</ele>
        <time>2023-07-18T07:36:34Z</time>
      </trkpt>
      <trkpt lat="47.3451" lon="0.54496">
        <ele>79.8</ele>
        <time>2023-07-18T07:36:35Z</time>
      </trkpt>
      <trkpt lat="47.34509" lon="0.54491">
        <ele>80.2</ele>
        <time>2023-07-18T07:36:36Z</time>
      </trkpt>
      <trkpt lat="47.34507" lon="0.54487">
        <ele>80.4</ele>
        <time>2023-07-18T07:36:37Z</time>
      </trkpt>
      <trkpt lat="47.34504" lon="0.54482">
        <ele>80.8</ele>
        <time>2023-07-18T07:36:38Z</time>
      </trkpt>
      <trkpt lat="47.34502" lon="0.54477">
        <ele>81</ele>
        <time>2023-07-18T07:36:39Z</time>
      </trkpt>
      <trkpt lat="47.34499" lon="0.54473">
        <ele>81.4</ele>
        <time>2023-07-18T07:36:40Z</time>
      </trkpt>
      <trkpt lat="47.34497" lon="0.54468">
        <ele>81.6</ele>
        <time>2023-07-18T07:36:41Z</time>
      </trkpt>
      <trkpt lat="47.34494" lon="0.54464">
        <ele>82</ele>
        <time>2023-07-18T07:36:42Z</time>
      </trkpt>
      <trkpt lat="47.34491" lon="0.5446">
        <ele>82.2</ele>
        <time>2023-07-18T07:36:43Z</time>
      </trkpt>
      <trkpt lat="47.34488" lon="0.54456">
        <ele>82.6</ele>
        <time>2023-07-18T07:36:44Z</time>
      </trkpt>
      <trkpt lat="47.34485" lon="0.54452">
        <ele>82.8</ele>
        <time>2023-07-18T07:36:45Z</time>
      </trkpt>
      <trkpt lat="47.34482" lon="0.54448">
        <ele>83.2</ele>
        <time>2023-07-18T07:36:46Z</time>
      </trkpt>
      <trkpt lat="47.34478" lon="0.54444">
        <ele>83.4</ele>
        <time>2023-07-18T07:36:47Z</time>
      </trkpt>
      <trkpt lat="47.34475" lon="0.54441">
        <ele>83.6</ele>
        <time>2023-07-18T07:36:48Z</time>
      </trkpt>
      <trkpt lat="47.34472" lon="0.54437">
        <ele>83.8</ele>
        <time>2023-07-18T07:36:49Z</time>
      </trkpt>
      <trkpt lat="47.34469" lon="0.54434">
        <ele>84</ele>
        <time>2023-07-18T07:36:50Z</time>
      </trkpt>
      <trkpt lat="47.34466" lon="0.5443">
        <ele>84.2</ele>
        <time>2023-07-18T07:36:51Z</time>
      </trkpt>
      <trkpt lat="47.34462" lon="0.54426">
        <ele>84.4</ele>
        <time>2023-07-18T07:36:52Z</time>
      </trkpt>
      <trkpt lat="47.34459" lon="0.54422">
        <ele>84.8</ele>
        <time>2023-07-18T07:36:53Z</time>
      </trkpt>
      <trkpt lat="47.34456" lon="0.54418">
        <ele>85</ele>
        <time>2023-07-18T07:36:54Z</time>
      </trkpt>
      <trkpt lat="47.34453" lon="0.54414">
        <ele>85.2</ele>
        <time>2023-07-18T07:36:55Z</time>
      </trkpt>
      <trkpt lat="47.34449" lon="0.54411">
        <ele>85.2</ele>
        <time>2023-07-18T07:36:56Z</time>
      </trkpt>
      <trkpt lat="47.34446" lon="0.54407">
        <ele>85.4</ele>
        <time>2023-07-18T07:36:57Z</time>
      </trkpt>
      <trkpt lat="47.34443" lon="0.54404">
        <ele>85.6</ele>
        <time>2023-07-18T07:36:58Z</time>
      </trkpt>
      <trkpt lat="47.34439" lon="0.544">
        <ele>85.6</ele>
        <time>2023-07-18T07:36:59Z</time>
      </trkpt>
      <trkpt lat="47.34436" lon="0.54397">
        <ele>85.8</ele>
        <time>2023-07-18T07:37:00Z</time>
      </trkpt>
      <trkpt lat="47.34432" lon="0.54393">
        <ele>86</ele>
        <time>2023-07-18T07:37:01Z</time>
      </trkpt>
      <trkpt lat="47.34428" lon="0.5439">
        <ele>86.2</ele>
        <time>2023-07-18T07:37:02Z</time>
      </trkpt>
      <trkpt lat="47.34425" lon="0.54386">
        <ele>86.4</ele>
        <time>2023-07-18T07:37:03Z</time>
      </trkpt>
      <trkpt lat="47.34422" lon="0.54382">
        <ele>86.6</ele>
        <time>2023-07-18T07:37:04Z</time>
      </trkpt>
      <trkpt lat="47.34418" lon="0.54378">
        <ele>86.6</ele>
        <time>2023-07-18T07:37:05Z</time>
      </trkpt>
      <trkpt lat="47.34415" lon="0.54374">
        <ele>86.8</ele>
        <time>2023-07-18T07:37:06Z</time>
      </trkpt>
      <trkpt lat="47.34411" lon="0.5437">
        <ele>87</ele>
        <time>2023-07-18T07:37:07Z</time>
      </trkpt>
      <trkpt lat="47.34407" lon="0.54366">
        <ele>87</ele>
        <time>2023-07-18T07:37:08Z</time>
      </trkpt>
      <trkpt lat="47.34404" lon="0.54362">
        <ele>87.2</ele>
        <time>2023-07-18T07:37:09Z</time>
      </trkpt>
      <trkpt lat="47.344" lon="0.54358">
        <ele>87.4</ele>
        <time>2023-07-18T07:37:10Z</time>
      </trkpt>
      <trkpt lat="47.34397" lon="0.54354">
        <ele>87.6</ele>
        <time>2023-07-18T07:37:11Z</time>
      </trkpt>
      <trkpt lat="47.34393" lon="0.54351">
        <ele>87.8</ele>
        <time>2023-07-18T07:37:12Z</time>
      </trkpt>
      <trkpt lat="47.34389" lon="0.54346">
        <ele>88</ele>
        <time>2023-07-18T07:37:13Z</time>
      </trkpt>
      <trkpt lat="47.34386" lon="0.54343">
        <ele>88.2</ele>
        <time>2023-07-18T07:37:14Z</time>
      </trkpt>
      <trkpt lat="47.34382" lon="0.54339">
        <ele>88.4</ele>
        <time>2023-07-18T07:37:15Z</time>
      </trkpt>
      <trkpt lat="47.34379" lon="0.54336">
        <ele>88.8</ele>
        <time>2023-07-18T07:37:16Z</time>
      </trkpt>
      <trkpt lat="47.34375" lon="0.54331">
        <ele>89.2</ele>
        <time>2023-07-18T07:37:17Z</time>
      </trkpt>
      <trkpt lat="47.34372" lon="0.54327">
        <ele>89.4</ele>
        <time>2023-07-18T07:37:18Z</time>
      </trkpt>
      <trkpt lat="47.34369" lon="0.54324">
        <ele>89.4</ele>
        <time>2023-07-18T07:37:19Z</time>
      </trkpt>
      <trkpt lat="47.34365" lon="0.54319">
        <ele>89.6</ele>
        <time>2023-07-18T07:37:20Z</time>
      </trkpt>
      <trkpt lat="47.34362" lon="0.54314">
        <ele>89.6</ele>
        <time>2023-07-18T07:37:21Z</time>
      </trkpt>
      <trkpt lat="47.34359" lon="0.54309">
        <ele>90</ele>
        <time>2023-07-18T07:37:22Z</time>
      </trkpt>
      <trkpt lat="47.34356" lon="0.54304">
        <ele>90</ele>
        <time>2023-07-18T07:37:23Z</time>
      </trkpt>
      <trkpt lat="47.34352" lon="0.54299">
        <ele>90.2</ele>
        <time>2023-07-18T07:37:24Z</time>
      </trkpt>
      <trkpt lat="47.3435" lon="0.54293">
        <ele>90.6</ele>
        <time>2023-07-18T07:37:25Z</time>
      </trkpt>
      <trkpt lat="47.34348" lon="0.54288">
        <ele>90.6</ele>
        <time>2023-07-18T07:37:26Z</time>
      </trkpt>
      <trkpt lat="47.34345" lon="0.54282">
        <ele>90.8</ele>
        <time>2023-07-18T07:37:27Z</time>
      </trkpt>
      <trkpt lat="47.34343" lon="0.54276">
        <ele>91</ele>
        <time>2023-07-18T07:37:28Z</time>
      </trkpt>
      <trkpt lat="47.34342" lon="0.54271">
        <ele>91</ele>
        <time>2023-07-18T07:37:29Z</time>
      </trkpt>
      <trkpt lat="47.3434" lon="0.54265">
        <ele>91.2</ele>
        <time>2023-07-18T07:37:30Z</time>
      </trkpt>
      <trkpt lat="47.34338" lon="0.54259">
        <ele>91.2</ele>
        <time>2023-07-18T07:37:31Z</time>
      </trkpt>
      <trkpt lat="47.34336" lon="0.54252">
        <ele>91.4</ele>
        <time>2023-07-18T07:37:32Z</time>
      </trkpt>
      <trkpt lat="47.34334" lon="0.54246">
        <ele>91.6</ele>
        <time>2023-07-18T07:37:33Z</time>
      </trkpt>
      <trkpt lat="47.34332" lon="0.5424">
        <ele>91.6</ele>
        <time>2023-07-18T07:37:34Z</time>
      </trkpt>
      <trkpt lat="47.3433" lon="0.54234">
        <ele>91.8</ele>
        <time>2023-07-18T07:37:35Z</time>
      </trkpt>
      <trkpt lat="47.34328" lon="0.54228">
        <ele>91.8</ele>
        <time>2023-07-18T07:37:36Z</time>
      </trkpt>
      <trkpt lat="47.34326" lon="0.54222">
        <ele>92</ele>
        <time>2023-07-18T07:37:37Z</time>
      </trkpt>
      <trkpt lat="47.34324" lon="0.54216">
        <ele>92.2</ele>
        <time>2023-07-18T07:37:38Z</time>
      </trkpt>
      <trkpt lat="47.34322" lon="0.5421">
        <ele>92.4</ele>
        <time>2023-07-18T07:37:39Z</time>
      </trkpt>
      <trkpt lat="47.34321" lon="0.54204">
        <ele>92.6</ele>
        <time>2023-07-18T07:37:40Z</time>
      </trkpt>
      <trkpt lat="47.34319" lon="0.54197">
        <ele>92.6</ele>
        <time>2023-07-18T07:37:41Z</time>
      </trkpt>
      <trkpt lat="47.34318" lon="0.54191">
        <ele>92.8</ele>
        <time>2023-07-18T07:37:42Z</time>
      </trkpt>
      <trkpt lat="47.34316" lon="0.54184">
        <ele>92.8</ele>
        <time>2023-07-18T07:37:43Z</time>
      </trkpt>
      <trkpt lat="47.34314" lon="0.54178">
        <ele>93</ele>
        <time>2023-07-18T07:37:44Z</time>
      </trkpt>
      <trkpt lat="47.34313" lon="0.54171">
        <ele>93.2</ele>
        <time>2023-07-18T07:37:45Z</time>
      </trkpt>
      <trkpt lat="47.34312" lon="0.54163">
        <ele>93.4</ele>
        <time>2023-07-18T07:37:46Z</time>
      </trkpt>
      <trkpt lat="47.34311" lon="0.54157">
        <ele>93.4</ele>
        <time>2023-07-18T07:37:47Z</time>
      </trkpt>
      <trkpt lat="47.3431" lon="0.5415">
        <ele>93.6</ele>
        <time>2023-07-18T07:37:48Z</time>
      </trkpt>
      <trkpt lat="47.34309" lon="0.54143">
        <ele>93.8</ele>
        <time>2023-07-18T07:37:49Z</time>
      </trkpt>
      <trkpt lat="47.34307" lon="0.54136">
        <ele>94</ele>
        <time>2023-07-18T07:37:50Z</time>
      </trkpt>
      <trkpt lat="47.34306" lon="0.5413">
        <ele>94.2</ele>
        <time>2023-07-18T07:37:51Z</time>
      </trkpt>
      <trkpt lat="47.34306" lon="0.54123">
        <ele>94.4</ele>
        <time>2023-07-18T07:37:52Z</time>
      </trkpt>
      <trkpt lat="47.34304" lon="0.54116">
        <ele>94.4</ele>
        <time>2023-07-18T07:37:53Z</time>
      </trkpt>
      <trkpt lat="47.34303" lon="0.5411">
        <ele>94.6</ele>
        <time>2023-07-18T07:37:54Z</time>
      </trkpt>
      <trkpt lat="47.34301" lon="0.54103">
        <ele>94.8</ele>
        <time>2023-07-18T07:37:55Z</time>
      </trkpt>
      <trkpt lat="47.343" lon="0.54096">
        <ele>95</ele>
        <time>2023-07-18T07:37:56Z</time>
      </trkpt>
      <trkpt lat="47.34298" lon="0.5409">
        <ele>95.4</ele>
        <time>2023-07-18T07:37:57Z</time>
      </trkpt>
      <trkpt lat="47.34296" lon="0.54084">
        <ele>95.6</ele>
        <time>2023-07-18T07:37:58Z</time>
      </trkpt>
      <trkpt lat="47.34293" lon="0.54077">
        <ele>95.6</ele>
        <time>2023-07-18T07:37:59Z</time>
      </trkpt>
      <trkpt lat="47.34291" lon="0.54071">
        <ele>95.8</ele>
        <time>2023-07-18T07:38:00Z</time>
      </trkpt>
      <trkpt lat="47.34289" lon="0.54066">
        <ele>96</ele>
        <time>2023-07-18T07:38:01Z</time>
      </trkpt>
      <trkpt lat="47.34286" lon="0.54059">
        <ele>96.2</ele>
        <time>2023-07-18T07:38:02Z</time>
      </trkpt>
      <trkpt lat="47.34284" lon="0.54053">
        <ele>96.2</ele>
        <time>2023-07-18T07:38:03Z</time>
      </trkpt>
      <trkpt lat="47.34282" lon="0.54046">
        <ele>96.4</ele>
        <time>2023-07-18T07:38:04Z</time>
      </trkpt>
      <trkpt lat="47.34279" lon="0.5404">
        <ele>96.4</ele>
        <time>2023-07-18T07:38:05Z</time>
      </trkpt>
      <trkpt lat="47.34277" lon="0.54034">
        <ele>96.6</ele>
        <time>2023-07-18T07:38:06Z</time>
      </trkpt>
      <trkpt lat="47.34275" lon="0.54028">
        <ele>96.6</ele>
        <time>2023-07-18T07:38:07Z</time>
      </trkpt>
      <trkpt lat="47.34272" lon="0.54022">
        <ele>96.8</ele>
        <time>2023-07-18T07:38:08Z</time>
      </trkpt>
      <trkpt lat="47.34269" lon="0.54016">
        <ele>96.8</ele>
        <time>2023-07-18T07:38:09Z</time>
      </trkpt>
      <trkpt lat="47.34267" lon="0.5401">
        <ele>96.8</ele>
        <time>2023-07-18T07:38:10Z</time>
      </trkpt>
      <trkpt lat="47.34265" lon="0.54004">
        <ele>97</ele>
        <time>2023-07-18T07:38:11Z</time>
      </trkpt>
      <trkpt lat="47.34262" lon="0.53998">
        <ele>97</ele>
        <time>2023-07-18T07:38:12Z</time>
      </trkpt>
      <trkpt lat="47.3426" lon="0.53992">
        <ele>97</ele>
        <time>2023-07-18T07:38:13Z</time>
      </trkpt>
      <trkpt lat="47.34258" lon="0.53986">
        <ele>97</ele>
        <time>2023-07-18T07:38:14Z</time>
      </trkpt>
      <trkpt lat="47.34256" lon="0.5398">
        <ele>97</ele>
        <time>2023-07-18T07:38:15Z</time>
      </trkpt>
      <trkpt lat="47.34254" lon="0.53974">
        <ele>97.2</ele>
        <time>2023-07-18T07:38:16Z</time>
      </trkpt>
      <trkpt lat="47.34252" lon="0.53969">
        <ele>97.2</ele>
        <time>2023-07-18T07:38:17Z</time>
      </trkpt>
      <trkpt lat="47.3425" lon="0.53964">
        <ele>97.2</ele>
        <time>2023-07-18T07:38:18Z</time>
      </trkpt>
      <trkpt lat="47.34248" lon="0.53959">
        <ele>97.4</ele>
        <time>2023-07-18T07:38:19Z</time>
      </trkpt>
      <trkpt lat="47.34246" lon="0.53953">
        <ele>97.4</ele>
        <time>2023-07-18T07:38:20Z</time>
      </trkpt>
      <trkpt lat="47.34244" lon="0.53948">
        <ele>97.4</ele>
        <time>2023-07-18T07:38:21Z</time>
      </trkpt>
      <trkpt lat="47.34242" lon="0.53941">
        <ele>97.4</ele>
        <time>2023-07-18T07:38:22Z</time>
      </trkpt>
      <trkpt lat="47.3424" lon="0.53935">
        <ele>97.6</ele>
        <time>2023-07-18T07:38:23Z</time>
      </trkpt>
      <trkpt lat="47.34238" lon="0.53929">
        <ele>97.6</ele>
        <time>2023-07-18T07:38:24Z</time>
      </trkpt>
      <trkpt lat="47.34237" lon="0.53923">
        <ele>97.6</ele>
        <time>2023-07-18T07:38:25Z</time>
      </trkpt>
      <trkpt lat="47.34235" lon="0.53916">
        <ele>97.6</ele>
        <time>2023-07-18T07:38:26Z</time>
      </trkpt>
      <trkpt lat="47.34232" lon="0.5391">
        <ele>97.6</ele>
        <time>2023-07-18T07:38:27Z</time>
      </trkpt>
      <trkpt lat="47.3423" lon="0.53903">
        <ele>97.6</ele>
        <time>2023-07-18T07:38:28Z</time>
      </trkpt>
      <trkpt lat="47.34228" lon="0.53896">
        <ele>97.6</ele>
        <time>2023-07-18T07:38:29Z</time>
      </trkpt>
      <trkpt lat="47.34226" lon="0.5389">
        <ele>97.6</ele>
        <time>2023-07-18T07:38:30Z</time>
      </trkpt>
      <trkpt lat="47.34224" lon="0.53883">
        <ele>97.6</ele>
        <time>2023-07-18T07:38:31Z</time>
      </trkpt>
      <trkpt lat="47.34222" lon="0.53875">
        <ele>97.6</ele>
        <time>2023-07-18T07:38:32Z</time>
      </trkpt>
      <trkpt lat="47.3422" lon="0.53868">
        <ele>97.6</ele>
        <time>2023-07-18T07:38:33Z</time>
      </trkpt>
      <trkpt lat="47.34217" lon="0.53861">
        <ele>97.6</ele>
        <time>2023-07-18T07:38:34Z</time>
      </trkpt>
      <trkpt lat="47.34215" lon="0.53854">
        <ele>97.6</ele>
        <time>2023-07-18T07:38:35Z</time>
      </trkpt>
      <trkpt lat="47.34213" lon="0.53846">
        <ele>97.6</ele>
        <time>2023-07-18T07:38:36Z</time>
      </trkpt>
      <trkpt lat="47.3421" lon="0.53839">
        <ele>97.6</ele>
        <time>2023-07-18T07:38:37Z</time>
      </trkpt>
      <trkpt lat="47.34208" lon="0.53832">
        <ele>97.4</ele>
        <time>2023-07-18T07:38:38Z</time>
      </trkpt>
      <trkpt lat="47.34206" lon="0.53824">
        <ele>97.4</ele>
        <time>2023-07-18T07:38:39Z</time>
      </trkpt>
      <trkpt lat="47.34203" lon="0.53816">
        <ele>97.4</ele>
        <time>2023-07-18T07:38:40Z</time>
      </trkpt>
      <trkpt lat="47.34201" lon="0.53808">
        <ele>97.4</ele>
        <time>2023-07-18T07:38:41Z</time>
      </trkpt>
      <trkpt lat="47.342" lon="0.53801">
        <ele>97.2</ele>
        <time>2023-07-18T07:38:42Z</time>
      </trkpt>
      <trkpt lat="47.34198" lon="0.53792">
        <ele>97.2</ele>
        <time>2023-07-18T07:38:43Z</time>
      </trkpt>
      <trkpt lat="47.34196" lon="0.53784">
        <ele>97.2</ele>
        <time>2023-07-18T07:38:44Z</time>
      </trkpt>
      <trkpt lat="47.34194" lon="0.53777">
        <ele>97.2</ele>
        <time>2023-07-18T07:38:45Z</time>
      </trkpt>
      <trkpt lat="47.34193" lon="0.53769">
        <ele>97.2</ele>
        <time>2023-07-18T07:38:46Z</time>
      </trkpt>
      <trkpt lat="47.34191" lon="0.5376">
        <ele>97.2</ele>
        <time>2023-07-18T07:38:47Z</time>
      </trkpt>
      <trkpt lat="47.3419" lon="0.53752">
        <ele>97.2</ele>
        <time>2023-07-18T07:38:48Z</time>
      </trkpt>
      <trkpt lat="47.34188" lon="0.53744">
        <ele>97.2</ele>
        <time>2023-07-18T07:38:49Z</time>
      </trkpt>
      <trkpt lat="47.34187" lon="0.53736">
        <ele>97.4</ele>
        <time>2023-07-18T07:38:50Z</time>
      </trkpt>
      <trkpt lat="47.34186" lon="0.53728">
        <ele>97.4</ele>
        <time>2023-07-18T07:38:51Z</time>
      </trkpt>
      <trkpt lat="47.34184" lon="0.5372">
        <ele>97.6</ele>
        <time>2023-07-18T07:38:52Z</time>
      </trkpt>
      <trkpt lat="47.34183" lon="0.53712">
        <ele>97.6</ele>
        <time>2023-07-18T07:38:53Z</time>
      </trkpt>
      <trkpt lat="47.34182" lon="0.53704">
        <ele>97.6</ele>
        <time>2023-07-18T07:38:54Z</time>
      </trkpt>
      <trkpt lat="47.34181" lon="0.53696">
        <ele>97.8</ele>
        <time>2023-07-18T07:38:55Z</time>
      </trkpt>
      <trkpt lat="47.3418" lon="0.53689">
        <ele>97.8</ele>
        <time>2023-07-18T07:38:56Z</time>
      </trkpt>
      <trkpt lat="47.34179" lon="0.53681">
        <ele>97.8</ele>
        <time>2023-07-18T07:38:57Z</time>
      </trkpt>
      <trkpt lat="47.34177" lon="0.53673">
        <ele>97.8</ele>
        <time>2023-07-18T07:38:58Z</time>
      </trkpt>
      <trkpt lat="47.34177" lon="0.53665">
        <ele>97.8</ele>
        <time>2023-07-18T07:38:59Z</time>
      </trkpt>
      <trkpt lat="47.34175" lon="0.53657">
        <ele>98</ele>
        <time>2023-07-18T07:39:00Z</time>
      </trkpt>
      <trkpt lat="47.34174" lon="0.53649">
        <ele>98</ele>
        <time>2023-07-18T07:39:01Z</time>
      </trkpt>
      <trkpt lat="47.34173" lon="0.53641">
        <ele>98</ele>
        <time>2023-07-18T07:39:02Z</time>
      </trkpt>
      <trkpt lat="47.34172" lon="0.53633">
        <ele>98</ele>
        <time>2023-07-18T07:39:03Z</time>
      </trkpt>
      <trkpt lat="47.34172" lon="0.53625">
        <ele>98</ele>
        <time>2023-07-18T07:39:04Z</time>
      </trkpt>
      <trkpt lat="47.34171" lon="0.53616">
        <ele>98</ele>
        <time>2023-07-18T07:39:05Z</time>
      </trkpt>
      <trkpt lat="47.34171" lon="0.53608">
        <ele>98</ele>
        <time>2023-07-18T07:39:06Z</time>
      </trkpt>
      <trkpt lat="47.34171" lon="0.536">
        <ele>98</ele>
        <time>2023-07-18T07:39:07Z</time>
      </trkpt>
      <trkpt lat="47.34171" lon="0.53591">
        <ele>98</ele>
        <time>2023-07-18T07:39:08Z</time>
      </trkpt>
      <trkpt lat="47.34171" lon="0.53583">
        <ele>98</ele>
        <time>2023-07-18T07:39:09Z</time>
      </trkpt>
      <trkpt lat="47.34171" lon="0.53575">
        <ele>98</ele>
        <time>2023-07-18T07:39:10Z</time>
      </trkpt>
      <trkpt lat="47.34171" lon="0.53566">
        <ele>98</ele>
        <time>2023-07-18T07:39:11Z</time>
      </trkpt>
      <trkpt lat="47.34172" lon="0.53558">
        <ele>98</ele>
        <time>2023-07-18T07:39:12Z</time>
      </trkpt>
      <trkpt lat="47.34172" lon="0.53549">
        <ele>98.2</ele>
        <time>2023-07-18T07:39:13Z</time>
      </trkpt>
      <trkpt lat="47.34172" lon="0.5354">
        <ele>98.2</ele>
        <time>2023-07-18T07:39:14Z</time>
      </trkpt>
      <trkpt lat="47.34172" lon="0.53532">
        <ele>98.4</ele>
        <time>2023-07-18T07:39:15Z</time>
      </trkpt>
      <trkpt lat="47.34172" lon="0.53523">
        <ele>98.4</ele>
        <time>2023-07-18T07:39:16Z</time>
      </trkpt>
      <trkpt lat="47.34172" lon="0.53514">
        <ele>98.4</ele>
        <time>2023-07-18T07:39:17Z</time>
      </trkpt>
      <trkpt lat="47.34171" lon="0.53505">
        <ele>98.2</ele>
        <time>2023-07-18T07:39:18Z</time>
      </trkpt>
      <trkpt lat="47.3417" lon="0.53496">
        <ele>98.2</ele>
        <time>2023-07-18T07:39:19Z</time>
      </trkpt>
      <trkpt lat="47.34168" lon="0.53488">
        <ele>98.2</ele>
        <time>2023-07-18T07:39:20Z</time>
      </trkpt>
      <trkpt lat="47.34166" lon="0.53479">
        <ele>98</ele>
        <time>2023-07-18T07:39:21Z</time>
      </trkpt>
      <trkpt lat="47.34163" lon="0.53471">
        <ele>98</ele>
        <time>2023-07-18T07:39:22Z</time>
      </trkpt>
      <trkpt lat="47.34159" lon="0.53462">
        <ele>98</ele>
        <time>2023-07-18T07:39:23Z</time>
      </trkpt>
      <trkpt lat="47.34156" lon="0.53453">
        <ele>97.8</ele>
        <time>2023-07-18T07:39:24Z</time>
      </trkpt>
      <trkpt lat="47.34151" lon="0.53446">
        <ele>97.8</ele>
        <time>2023-07-18T07:39:25Z</time>
      </trkpt>
      <trkpt lat="47.34146" lon="0.53438">
        <ele>97.8</ele>
        <time>2023-07-18T07:39:26Z</time>
      </trkpt>
      <trkpt lat="47.3414" lon="0.53431">
        <ele>97.6</ele>
        <time>2023-07-18T07:39:27Z</time>
      </trkpt>
      <trkpt lat="47.34135" lon="0.53424">
        <ele>97.6</ele>
        <time>2023-07-18T07:39:28Z</time>
      </trkpt>
      <trkpt lat="47.34129" lon="0.53418">
        <ele>97.6</ele>
        <time>2023-07-18T07:39:29Z</time>
      </trkpt>
      <trkpt lat="47.34123" lon="0.53413">
        <ele>97.8</ele>
        <time>2023-07-18T07:39:30Z</time>
      </trkpt>
      <trkpt lat="47.34117" lon="0.53407">
        <ele>97.8</ele>
        <time>2023-07-18T07:39:31Z</time>
      </trkpt>
      <trkpt lat="47.34111" lon="0.53401">
        <ele>97.8</ele>
        <time>2023-07-18T07:39:32Z</time>
      </trkpt>
      <trkpt lat="47.34105" lon="0.53396">
        <ele>97.8</ele>
        <time>2023-07-18T07:39:33Z</time>
      </trkpt>
      <trkpt lat="47.34099" lon="0.53391">
        <ele>97.6</ele>
        <time>2023-07-18T07:39:34Z</time>
      </trkpt>
      <trkpt lat="47.34092" lon="0.53385">
        <ele>97.4</ele>
        <time>2023-07-18T07:39:35Z</time>
      </trkpt>
      <trkpt lat="47.34086" lon="0.5338">
        <ele>97.2</ele>
        <time>2023-07-18T07:39:36Z</time>
      </trkpt>
      <trkpt lat="47.3408" lon="0.53373">
        <ele>97</ele>
        <time>2023-07-18T07:39:37Z</time>
      </trkpt>
      <trkpt lat="47.34074" lon="0.53366">
        <ele>96.8</ele>
        <time>2023-07-18T07:39:38Z</time>
      </trkpt>
      <trkpt lat="47.34068" lon="0.53357">
        <ele>96.6</ele>
        <time>2023-07-18T07:39:39Z</time>
      </trkpt>
      <trkpt lat="47.34063" lon="0.53348">
        <ele>96.4</ele>
        <time>2023-07-18T07:39:40Z</time>
      </trkpt>
      <trkpt lat="47.34057" lon="0.53339">
        <ele>96.4</ele>
        <time>2023-07-18T07:39:41Z</time>
      </trkpt>
      <trkpt lat="47.34053" lon="0.53329">
        <ele>96.2</ele>
        <time>2023-07-18T07:39:42Z</time>
      </trkpt>
      <trkpt lat="47.34048" lon="0.53318">
        <ele>96</ele>
        <time>2023-07-18T07:39:43Z</time>
      </trkpt>
      <trkpt lat="47.34044" lon="0.53307">
        <ele>95.8</ele>
        <time>2023-07-18T07:39:44Z</time>
      </trkpt>
      <trkpt lat="47.3404" lon="0.53296">
        <ele>95.6</ele>
        <time>2023-07-18T07:39:45Z</time>
      </trkpt>
      <trkpt lat="47.34037" lon="0.53284">
        <ele>95.4</ele>
        <time>2023-07-18T07:39:46Z</time>
      </trkpt>
      <trkpt lat="47.34035" lon="0.53273">
        <ele>95</ele>
        <time>2023-07-18T07:39:47Z</time>
      </trkpt>
      <trkpt lat="47.34034" lon="0.5326">
        <ele>94.6</ele>
        <time>2023-07-18T07:39:48Z</time>
      </trkpt>
      <trkpt lat="47.34033" lon="0.53247">
        <ele>94</ele>
        <time>2023-07-18T07:39:49Z</time>
      </trkpt>
      <trkpt lat="47.34032" lon="0.53234">
        <ele>93.6</ele>
        <time>2023-07-18T07:39:50Z</time>
      </trkpt>
      <trkpt lat="47.34032" lon="0.5322">
        <ele>93.2</ele>
        <time>2023-07-18T07:39:51Z</time>
      </trkpt>
      <trkpt lat="47.34031" lon="0.53207">
        <ele>93.2</ele>
        <time>2023-07-18T07:39:52Z</time>
      </trkpt>
      <trkpt lat="47.34029" lon="0.53194">
        <ele>92.8</ele>
        <time>2023-07-18T07:39:53Z</time>
      </trkpt>
      <trkpt lat="47.34026" lon="0.53182">
        <ele>92.8</ele>
        <time>2023-07-18T07:39:54Z</time>
      </trkpt>
      <trkpt lat="47.34023" lon="0.5317">
        <ele>92.6</ele>
        <time>2023-07-18T07:39:55Z</time>
      </trkpt>
      <trkpt lat="47.34019" lon="0.53157">
        <ele>92.2</ele>
        <time>2023-07-18T07:39:56Z</time>
      </trkpt>
      <trkpt lat="47.34015" lon="0.53145">
        <ele>91.8</ele>
        <time>2023-07-18T07:39:57Z</time>
      </trkpt>
      <trkpt lat="47.3401" lon="0.53134">
        <ele>91.4</ele>
        <time>2023-07-18T07:39:58Z</time>
      </trkpt>
      <trkpt lat="47.34005" lon="0.53123">
        <ele>91.2</ele>
        <time>2023-07-18T07:39:59Z</time>
      </trkpt>
      <trkpt lat="47.33999" lon="0.53113">
        <ele>90.8</ele>
        <time>2023-07-18T07:40:00Z</time>
      </trkpt>
      <trkpt lat="47.33992" lon="0.53104">
        <ele>90.8</ele>
        <time>2023-07-18T07:40:01Z</time>
      </trkpt>
      <trkpt lat="47.33986" lon="0.53096">
        <ele>90.8</ele>
        <time>2023-07-18T07:40:02Z</time>
      </trkpt>
      <trkpt lat="47.33978" lon="0.53088">
        <ele>90.4</ele>
        <time>2023-07-18T07:40:03Z</time>
      </trkpt>
      <trkpt lat="47.33971" lon="0.53082">
        <ele>90.2</ele>
        <time>2023-07-18T07:40:04Z</time>
      </trkpt>
      <trkpt lat="47.33964" lon="0.53075">
        <ele>89.8</ele>
        <time>2023-07-18T07:40:05Z</time>
      </trkpt>
      <trkpt lat="47.33957" lon="0.53068">
        <ele>89.6</ele>
        <time>2023-07-18T07:40:06Z</time>
      </trkpt>
      <trkpt lat="47.3395" lon="0.53061">
        <ele>89.6</ele>
        <time>2023-07-18T07:40:07Z</time>
      </trkpt>
      <trkpt lat="47.33944" lon="0.53053">
        <ele>89.4</ele>
        <time>2023-07-18T07:40:08Z</time>
      </trkpt>
      <trkpt lat="47.33939" lon="0.53044">
        <ele>89.4</ele>
        <time>2023-07-18T07:40:09Z</time>
      </trkpt>
      <trkpt lat="47.33934" lon="0.53034">
        <ele>89.4</ele>
        <time>2023-07-18T07:40:10Z</time>
      </trkpt>
      <trkpt lat="47.3393" lon="0.53025">
        <ele>89.2</ele>
        <time>2023-07-18T07:40:11Z</time>
      </trkpt>
      <trkpt lat="47.33927" lon="0.53014">
        <ele>89.2</ele>
        <time>2023-07-18T07:40:12Z</time>
      </trkpt>
      <trkpt lat="47.33923" lon="0.53004">
        <ele>89.2</ele>
        <time>2023-07-18T07:40:13Z</time>
      </trkpt>
      <trkpt lat="47.3392" lon="0.52993">
        <ele>89.2</ele>
        <time>2023-07-18T07:40:14Z</time>
      </trkpt>
      <trkpt lat="47.33917" lon="0.52982">
        <ele>89.2</ele>
        <time>2023-07-18T07:40:15Z</time>
      </trkpt>
      <trkpt lat="47.33915" lon="0.52971">
        <ele>89.2</ele>
        <time>2023-07-18T07:40:16Z</time>
      </trkpt>
      <trkpt lat="47.33912" lon="0.5296">
        <ele>89</ele>
        <time>2023-07-18T07:40:17Z</time>
      </trkpt>
      <trkpt lat="47.3391" lon="0.52949">
        <ele>89</ele>
        <time>2023-07-18T07:40:18Z</time>
      </trkpt>
      <trkpt lat="47.33907" lon="0.52938">
        <ele>89</ele>
        <time>2023-07-18T07:40:19Z</time>
      </trkpt>
      <trkpt lat="47.33905" lon="0.52926">
        <ele>89</ele>
        <time>2023-07-18T07:40:20Z</time>
      </trkpt>
      <trkpt lat="47.33902" lon="0.52915">
        <ele>89</ele>
        <time>2023-07-18T07:40:21Z</time>
      </trkpt>
      <trkpt lat="47.339" lon="0.52904">
        <ele>89</ele>
        <time>2023-07-18T07:40:22Z</time>
      </trkpt>
      <trkpt lat="47.33897" lon="0.52892">
        <ele>89</ele>
        <time>2023-07-18T07:40:23Z</time>
      </trkpt>
      <trkpt lat="47.33895" lon="0.5288">
        <ele>88.8</ele>
        <time>2023-07-18T07:40:24Z</time>
      </trkpt>
      <trkpt lat="47.33892" lon="0.52869">
        <ele>88.8</ele>
        <time>2023-07-18T07:40:25Z</time>
      </trkpt>
      <trkpt lat="47.3389" lon="0.52858">
        <ele>88.6</ele>
        <time>2023-07-18T07:40:26Z</time>
      </trkpt>
      <trkpt lat="47.33887" lon="0.52846">
        <ele>88.6</ele>
        <time>2023-07-18T07:40:27Z</time>
      </trkpt>
      <trkpt lat="47.33885" lon="0.52835">
        <ele>88.4</ele>
        <time>2023-07-18T07:40:28Z</time>
      </trkpt>
      <trkpt lat="47.33883" lon="0.52824">
        <ele>88.4</ele>
        <time>2023-07-18T07:40:29Z</time>
      </trkpt>
      <trkpt lat="47.33881" lon="0.52812">
        <ele>88.6</ele>
        <time>2023-07-18T07:40:30Z</time>
      </trkpt>
      <trkpt lat="47.33878" lon="0.528">
        <ele>88.6</ele>
        <time>2023-07-18T07:40:31Z</time>
      </trkpt>
      <trkpt lat="47.33876" lon="0.52789">
        <ele>88.6</ele>
        <time>2023-07-18T07:40:32Z</time>
      </trkpt>
      <trkpt lat="47.33873" lon="0.52779">
        <ele>88.8</ele>
        <time>2023-07-18T07:40:33Z</time>
      </trkpt>
      <trkpt lat="47.33871" lon="0.52767">
        <ele>88.8</ele>
        <time>2023-07-18T07:40:34Z</time>
      </trkpt>
      <trkpt lat="47.33869" lon="0.52757">
        <ele>88.8</ele>
        <time>2023-07-18T07:40:35Z</time>
      </trkpt>
      <trkpt lat="47.33866" lon="0.52747">
        <ele>89</ele>
        <time>2023-07-18T07:40:36Z</time>
      </trkpt>
      <trkpt lat="47.33862" lon="0.52737">
        <ele>89</ele>
        <time>2023-07-18T07:40:37Z</time>
      </trkpt>
      <trkpt lat="47.33858" lon="0.52728">
        <ele>89.2</ele>
        <time>2023-07-18T07:40:38Z</time>
      </trkpt>
      <trkpt lat="47.33854" lon="0.52719">
        <ele>89.6</ele>
        <time>2023-07-18T07:40:39Z</time>
      </trkpt>
      <trkpt lat="47.33849" lon="0.5271">
        <ele>89.8</ele>
        <time>2023-07-18T07:40:40Z</time>
      </trkpt>
      <trkpt lat="47.33844" lon="0.52702">
        <ele>90</ele>
        <time>2023-07-18T07:40:41Z</time>
      </trkpt>
      <trkpt lat="47.3384" lon="0.52695">
        <ele>90</ele>
        <time>2023-07-18T07:40:42Z</time>
      </trkpt>
      <trkpt lat="47.33834" lon="0.52688">
        <ele>90.2</ele>
        <time>2023-07-18T07:40:43Z</time>
      </trkpt>
      <trkpt lat="47.3383" lon="0.52681">
        <ele>90.2</ele>
        <time>2023-07-18T07:40:44Z</time>
      </trkpt>
      <trkpt lat="47.33824" lon="0.52674">
        <ele>90.4</ele>
        <time>2023-07-18T07:40:45Z</time>
      </trkpt>
      <trkpt lat="47.3382" lon="0.52667">
        <ele>90.4</ele>
        <time>2023-07-18T07:40:46Z</time>
      </trkpt>
      <trkpt lat="47.33815" lon="0.5266">
        <ele>90.6</ele>
        <time>2023-07-18T07:40:47Z</time>
      </trkpt>
      <trkpt lat="47.33809" lon="0.52654">
        <ele>90.6</ele>
        <time>2023-07-18T07:40:48Z</time>
      </trkpt>
      <trkpt lat="47.33804" lon="0.52647">
        <ele>90.8</ele>
        <time>2023-07-18T07:40:49Z</time>
      </trkpt>
      <trkpt lat="47.33799" lon="0.5264">
        <ele>90.8</ele>
        <time>2023-07-18T07:40:50Z</time>
      </trkpt>
      <trkpt lat="47.33795" lon="0.52633">
        <ele>91</ele>
        <time>2023-07-18T07:40:51Z</time>
      </trkpt>
      <trkpt lat="47.3379" lon="0.52625">
        <ele>91.2</ele>
        <time>2023-07-18T07:40:52Z</time>
      </trkpt>
      <trkpt lat="47.33785" lon="0.52618">
        <ele>91.4</ele>
        <time>2023-07-18T07:40:53Z</time>
      </trkpt>
      <trkpt lat="47.33781" lon="0.5261">
        <ele>91.4</ele>
        <time>2023-07-18T07:40:54Z</time>
      </trkpt>
      <trkpt lat="47.33777" lon="0.52602">
        <ele>91.6</ele>
        <time>2023-07-18T07:40:55Z</time>
      </trkpt>
      <trkpt lat="47.33773" lon="0.52595">
        <ele>91.8</ele>
        <time>2023-07-18T07:40:56Z</time>
      </trkpt>
      <trkpt lat="47.33768" lon="0.52587">
        <ele>91.8</ele>
        <time>2023-07-18T07:40:57Z</time>
      </trkpt>
      <trkpt lat="47.33765" lon="0.5258">
        <ele>91.8</ele>
        <time>2023-07-18T07:40:58Z</time>
      </trkpt>
      <trkpt lat="47.33761" lon="0.52572">
        <ele>92</ele>
        <time>2023-07-18T07:40:59Z</time>
      </trkpt>
      <trkpt lat="47.33757" lon="0.52564">
        <ele>92.2</ele>
        <time>2023-07-18T07:41:00Z</time>
      </trkpt>
      <trkpt lat="47.33754" lon="0.52555">
        <ele>92.4</ele>
        <time>2023-07-18T07:41:01Z</time>
      </trkpt>
      <trkpt lat="47.3375" lon="0.52546">
        <ele>92.6</ele>
        <time>2023-07-18T07:41:02Z</time>
      </trkpt>
      <trkpt lat="47.33746" lon="0.52537">
        <ele>92.8</ele>
        <time>2023-07-18T07:41:03Z</time>
      </trkpt>
      <trkpt lat="47.33743" lon="0.52528">
        <ele>92.8</ele>
        <time>2023-07-18T07:41:04Z</time>
      </trkpt>
      <trkpt lat="47.33739" lon="0.52519">
        <ele>92.8</ele>
        <time>2023-07-18T07:41:05Z</time>
      </trkpt>
      <trkpt lat="47.33736" lon="0.5251">
        <ele>92.8</ele>
        <time>2023-07-18T07:41:06Z</time>
      </trkpt>
      <trkpt lat="47.33732" lon="0.52501">
        <ele>92.6</ele>
        <time>2023-07-18T07:41:07Z</time>
      </trkpt>
      <trkpt lat="47.33728" lon="0.52491">
        <ele>92.4</ele>
        <time>2023-07-18T07:41:08Z</time>
      </trkpt>
      <trkpt lat="47.33724" lon="0.52481">
        <ele>92.2</ele>
        <time>2023-07-18T07:41:09Z</time>
      </trkpt>
      <trkpt lat="47.3372" lon="0.52472">
        <ele>91.8</ele>
        <time>2023-07-18T07:41:10Z</time>
      </trkpt>
      <trkpt lat="47.33718" lon="0.52465">
        <ele>91.4</ele>
        <time>2023-07-18T07:41:11Z</time>
      </trkpt>
      <trkpt lat="47.33716" lon="0.52458">
        <ele>91</ele>
        <time>2023-07-18T07:41:12Z</time>
      </trkpt>
      <trkpt lat="47.33714" lon="0.52453">
        <ele>90.6</ele>
        <time>2023-07-18T07:41:13Z</time>
      </trkpt>
      <trkpt lat="47.33714" lon="0.52449">
        <ele>90.4</ele>
        <time>2023-07-18T07:41:14Z</time>
      </trkpt>
      <trkpt lat="47.33713" lon="0.52446">
        <ele>90.2</ele>
        <time>2023-07-18T07:41:15Z</time>
      </trkpt>
      <trkpt lat="47.33713" lon="0.52444">
        <ele>90</ele>
        <time>2023-07-18T07:41:16Z</time>
      </trkpt>
      <trkpt lat="47.33713" lon="0.52444">
        <ele>89.8</ele>
        <time>2023-07-18T07:41:17Z</time>
      </trkpt>
      <trkpt lat="47.33712" lon="0.52442">
        <ele>89</ele>
        <time>2023-07-18T07:41:28Z</time>
      </trkpt>
      <trkpt lat="47.3371" lon="0.5244">
        <ele>89</ele>
        <time>2023-07-18T07:41:29Z</time>
      </trkpt>
      <trkpt lat="47.33709" lon="0.52437">
        <ele>89</ele>
        <time>2023-07-18T07:41:30Z</time>
      </trkpt>
      <trkpt lat="47.33707" lon="0.52433">
        <ele>89</ele>
        <time>2023-07-18T07:41:31Z</time>
      </trkpt>
      <trkpt lat="47.33706" lon="0.52429">
        <ele>89</ele>
        <time>2023-07-18T07:41:32Z</time>
      </trkpt>
      <trkpt lat="47.33704" lon="0.52424">
        <ele>88.8</ele>
        <time>2023-07-18T07:41:33Z</time>
      </trkpt>
      <trkpt lat="47.33702" lon="0.52417">
        <ele>88.8</ele>
        <time>2023-07-18T07:41:34Z</time>
      </trkpt>
      <trkpt lat="47.337" lon="0.52411">
        <ele>88.6</ele>
        <time>2023-07-18T07:41:35Z</time>
      </trkpt>
      <trkpt lat="47.33698" lon="0.52404">
        <ele>88.4</ele>
        <time>2023-07-18T07:41:36Z</time>
      </trkpt>
      <trkpt lat="47.33695" lon="0.52396">
        <ele>88.2</ele>
        <time>2023-07-18T07:41:37Z</time>
      </trkpt>
      <trkpt lat="47.33693" lon="0.52388">
        <ele>88</ele>
        <time>2023-07-18T07:41:38Z</time>
      </trkpt>
      <trkpt lat="47.33691" lon="0.52379">
        <ele>87.8</ele>
        <time>2023-07-18T07:41:39Z</time>
      </trkpt>
      <trkpt lat="47.3369" lon="0.5237">
        <ele>87.6</ele>
        <time>2023-07-18T07:41:40Z</time>
      </trkpt>
      <trkpt lat="47.33688" lon="0.52361">
        <ele>87.4</ele>
        <time>2023-07-18T07:41:41Z</time>
      </trkpt>
      <trkpt lat="47.33686" lon="0.52353">
        <ele>87.2</ele>
        <time>2023-07-18T07:41:42Z</time>
      </trkpt>
      <trkpt lat="47.33684" lon="0.52345">
        <ele>87</ele>
        <time>2023-07-18T07:41:43Z</time>
      </trkpt>
      <trkpt lat="47.33683" lon="0.52337">
        <ele>87</ele>
        <time>2023-07-18T07:41:44Z</time>
      </trkpt>
      <trkpt lat="47.33681" lon="0.52329">
        <ele>87</ele>
        <time>2023-07-18T07:41:45Z</time>
      </trkpt>
      <trkpt lat="47.33678" lon="0.52322">
        <ele>87</ele>
        <time>2023-07-18T07:41:46Z</time>
      </trkpt>
      <trkpt lat="47.33677" lon="0.52316">
        <ele>87</ele>
        <time>2023-07-18T07:41:47Z</time>
      </trkpt>
      <trkpt lat="47.33674" lon="0.52309">
        <ele>87</ele>
        <time>2023-07-18T07:41:48Z</time>
      </trkpt>
      <trkpt lat="47.33672" lon="0.52302">
        <ele>87</ele>
        <time>2023-07-18T07:41:49Z</time>
      </trkpt>
      <trkpt lat="47.33669" lon="0.52294">
        <ele>87</ele>
        <time>2023-07-18T07:41:50Z</time>
      </trkpt>
      <trkpt lat="47.33667" lon="0.52287">
        <ele>87</ele>
        <time>2023-07-18T07:41:51Z</time>
      </trkpt>
      <trkpt lat="47.33664" lon="0.5228">
        <ele>87.2</ele>
        <time>2023-07-18T07:41:52Z</time>
      </trkpt>
      <trkpt lat="47.33662" lon="0.52274">
        <ele>87.2</ele>
        <time>2023-07-18T07:41:53Z</time>
      </trkpt>
      <trkpt lat="47.3366" lon="0.52268">
        <ele>87.2</ele>
        <time>2023-07-18T07:41:54Z</time>
      </trkpt>
      <trkpt lat="47.33656" lon="0.52261">
        <ele>87.2</ele>
        <time>2023-07-18T07:41:55Z</time>
      </trkpt>
      <trkpt lat="47.33652" lon="0.52255">
        <ele>87.4</ele>
        <time>2023-07-18T07:41:56Z</time>
      </trkpt>
      <trkpt lat="47.33649" lon="0.52248">
        <ele>87.6</ele>
        <time>2023-07-18T07:41:57Z</time>
      </trkpt>
      <trkpt lat="47.33646" lon="0.52241">
        <ele>87.8</ele>
        <time>2023-07-18T07:41:58Z</time>
      </trkpt>
      <trkpt lat="47.33643" lon="0.52234">
        <ele>88</ele>
        <time>2023-07-18T07:41:59Z</time>
      </trkpt>
      <trkpt lat="47.3364" lon="0.52228">
        <ele>88.2</ele>
        <time>2023-07-18T07:42:00Z</time>
      </trkpt>
      <trkpt lat="47.33636" lon="0.52221">
        <ele>88.4</ele>
        <time>2023-07-18T07:42:01Z</time>
      </trkpt>
      <trkpt lat="47.33632" lon="0.52214">
        <ele>88.6</ele>
        <time>2023-07-18T07:42:02Z</time>
      </trkpt>
      <trkpt lat="47.33629" lon="0.52207">
        <ele>88.8</ele>
        <time>2023-07-18T07:42:03Z</time>
      </trkpt>
      <trkpt lat="47.33625" lon="0.52201">
        <ele>89</ele>
        <time>2023-07-18T07:42:04Z</time>
      </trkpt>
      <trkpt lat="47.33622" lon="0.52195">
        <ele>89.2</ele>
        <time>2023-07-18T07:42:05Z</time>
      </trkpt>
      <trkpt lat="47.33618" lon="0.52188">
        <ele>89.4</ele>
        <time>2023-07-18T07:42:06Z</time>
      </trkpt>
      <trkpt lat="47.33614" lon="0.52181">
        <ele>89.6</ele>
        <time>2023-07-18T07:42:07Z</time>
      </trkpt>
      <trkpt lat="47.3361" lon="0.52175">
        <ele>89.8</ele>
        <time>2023-07-18T07:42:08Z</time>
      </trkpt>
      <trkpt lat="47.33606" lon="0.52168">
        <ele>90.2</ele>
        <time>2023-07-18T07:42:09Z</time>
      </trkpt>
      <trkpt lat="47.33603" lon="0.52161">
        <ele>90.4</ele>
        <time>2023-07-18T07:42:10Z</time>
      </trkpt>
      <trkpt lat="47.33599" lon="0.52154">
        <ele>90.8</ele>
        <time>2023-07-18T07:42:11Z</time>
      </trkpt>
      <trkpt lat="47.33595" lon="0.52148">
        <ele>91</ele>
        <time>2023-07-18T07:42:12Z</time>
      </trkpt>
      <trkpt lat="47.3359" lon="0.52141">
        <ele>91.2</ele>
        <time>2023-07-18T07:42:13Z</time>
      </trkpt>
      <trkpt lat="47.33585" lon="0.52135">
        <ele>91.4</ele>
        <time>2023-07-18T07:42:14Z</time>
      </trkpt>
      <trkpt lat="47.33581" lon="0.52129">
        <ele>91.4</ele>
        <time>2023-07-18T07:42:15Z</time>
      </trkpt>
      <trkpt lat="47.33576" lon="0.52124">
        <ele>91.6</ele>
        <time>2023-07-18T07:42:16Z</time>
      </trkpt>
      <trkpt lat="47.33572" lon="0.52118">
        <ele>91.6</ele>
        <time>2023-07-18T07:42:17Z</time>
      </trkpt>
      <trkpt lat="47.33566" lon="0.52112">
        <ele>91.8</ele>
        <time>2023-07-18T07:42:18Z</time>
      </trkpt>
      <trkpt lat="47.33561" lon="0.52106">
        <ele>91.8</ele>
        <time>2023-07-18T07:42:19Z</time>
      </trkpt>
      <trkpt lat="47.33557" lon="0.52101">
        <ele>92</ele>
        <time>2023-07-18T07:42:20Z</time>
      </trkpt>
      <trkpt lat="47.33551" lon="0.52095">
        <ele>92.2</ele>
        <time>2023-07-18T07:42:21Z</time>
      </trkpt>
      <trkpt lat="47.33546" lon="0.52089">
        <ele>92.2</ele>
        <time>2023-07-18T07:42:22Z</time>
      </trkpt>
      <trkpt lat="47.33541" lon="0.52084">
        <ele>92.2</ele>
        <time>2023-07-18T07:42:23Z</time>
      </trkpt>
      <trkpt lat="47.33536" lon="0.52078">
        <ele>92.2</ele>
        <time>2023-07-18T07:42:24Z</time>
      </trkpt>
      <trkpt lat="47.33531" lon="0.52073">
        <ele>92.2</ele>
        <time>2023-07-18T07:42:25Z</time>
      </trkpt>
      <trkpt lat="47.33525" lon="0.52067">
        <ele>92.4</ele>
        <time>2023-07-18T07:42:26Z</time>
      </trkpt>
      <trkpt lat="47.3352" lon="0.52062">
        <ele>92.4</ele>
        <time>2023-07-18T07:42:27Z</time>
      </trkpt>
      <trkpt lat="47.33514" lon="0.52058">
        <ele>92.6</ele>
        <time>2023-07-18T07:42:28Z</time>
      </trkpt>
      <trkpt lat="47.33508" lon="0.52053">
        <ele>92.6</ele>
        <time>2023-07-18T07:42:29Z</time>
      </trkpt>
      <trkpt lat="47.33502" lon="0.52049">
        <ele>92.8</ele>
        <time>2023-07-18T07:42:30Z</time>
      </trkpt>
      <trkpt lat="47.33496" lon="0.52045">
        <ele>93</ele>
        <time>2023-07-18T07:42:31Z</time>
      </trkpt>
      <trkpt lat="47.3349" lon="0.52041">
        <ele>93.2</ele>
        <time>2023-07-18T07:42:32Z</time>
      </trkpt>
      <trkpt lat="47.33485" lon="0.52037">
        <ele>93.2</ele>
        <time>2023-07-18T07:42:33Z</time>
      </trkpt>
      <trkpt lat="47.33479" lon="0.52033">
        <ele>93.4</ele>
        <time>2023-07-18T07:42:34Z</time>
      </trkpt>
      <trkpt lat="47.33473" lon="0.52029">
        <ele>93.6</ele>
        <time>2023-07-18T07:42:35Z</time>
      </trkpt>
      <trkpt lat="47.33467" lon="0.52025">
        <ele>93.8</ele>
        <time>2023-07-18T07:42:36Z</time>
      </trkpt>
      <trkpt lat="47.33461" lon="0.52021">
        <ele>93.8</ele>
        <time>2023-07-18T07:42:37Z</time>
      </trkpt>
      <trkpt lat="47.33455" lon="0.52017">
        <ele>94</ele>
        <time>2023-07-18T07:42:38Z</time>
      </trkpt>
      <trkpt lat="47.33449" lon="0.52013">
        <ele>94.2</ele>
        <time>2023-07-18T07:42:39Z</time>
      </trkpt>
      <trkpt lat="47.33443" lon="0.52009">
        <ele>94.2</ele>
        <time>2023-07-18T07:42:40Z</time>
      </trkpt>
      <trkpt lat="47.33437" lon="0.52005">
        <ele>94.4</ele>
        <time>2023-07-18T07:42:41Z</time>
      </trkpt>
      <trkpt lat="47.33431" lon="0.52001">
        <ele>94.6</ele>
        <time>2023-07-18T07:42:42Z</time>
      </trkpt>
      <trkpt lat="47.33426" lon="0.51998">
        <ele>94.6</ele>
        <time>2023-07-18T07:42:43Z</time>
      </trkpt>
      <trkpt lat="47.33419" lon="0.51994">
        <ele>94.8</ele>
        <time>2023-07-18T07:42:44Z</time>
      </trkpt>
      <trkpt lat="47.33413" lon="0.51991">
        <ele>94.8</ele>
        <time>2023-07-18T07:42:45Z</time>
      </trkpt>
      <trkpt lat="47.33408" lon="0.51988">
        <ele>94.8</ele>
        <time>2023-07-18T07:42:46Z</time>
      </trkpt>
      <trkpt lat="47.33402" lon="0.51985">
        <ele>94.8</ele>
        <time>2023-07-18T07:42:47Z</time>
      </trkpt>
      <trkpt lat="47.33395" lon="0.5198">
        <ele>94.8</ele>
        <time>2023-07-18T07:42:48Z</time>
      </trkpt>
      <trkpt lat="47.33389" lon="0.51975">
        <ele>94.8</ele>
        <time>2023-07-18T07:42:49Z</time>
      </trkpt>
      <trkpt lat="47.33384" lon="0.5197">
        <ele>94.6</ele>
        <time>2023-07-18T07:42:50Z</time>
      </trkpt>
      <trkpt lat="47.33379" lon="0.51965">
        <ele>94.8</ele>
        <time>2023-07-18T07:42:51Z</time>
      </trkpt>
      <trkpt lat="47.33374" lon="0.51959">
        <ele>94.8</ele>
        <time>2023-07-18T07:42:52Z</time>
      </trkpt>
      <trkpt lat="47.3337" lon="0.51952">
        <ele>94.8</ele>
        <time>2023-07-18T07:42:53Z</time>
      </trkpt>
      <trkpt lat="47.33365" lon="0.51944">
        <ele>95</ele>
        <time>2023-07-18T07:42:54Z</time>
      </trkpt>
      <trkpt lat="47.33361" lon="0.51937">
        <ele>94.8</ele>
        <time>2023-07-18T07:42:55Z</time>
      </trkpt>
      <trkpt lat="47.33357" lon="0.51928">
        <ele>94.8</ele>
        <time>2023-07-18T07:42:56Z</time>
      </trkpt>
      <trkpt lat="47.33354" lon="0.5192">
        <ele>95</ele>
        <time>2023-07-18T07:42:57Z</time>
      </trkpt>
      <trkpt lat="47.33351" lon="0.51911">
        <ele>95</ele>
        <time>2023-07-18T07:42:58Z</time>
      </trkpt>
      <trkpt lat="47.33348" lon="0.51901">
        <ele>95</ele>
        <time>2023-07-18T07:42:59Z</time>
      </trkpt>
      <trkpt lat="47.33345" lon="0.51892">
        <ele>95</ele>
        <time>2023-07-18T07:43:00Z</time>
      </trkpt>
      <trkpt lat="47.33343" lon="0.51882">
        <ele>95</ele>
        <time>2023-07-18T07:43:01Z</time>
      </trkpt>
      <trkpt lat="47.3334" lon="0.51873">
        <ele>95.2</ele>
        <time>2023-07-18T07:43:02Z</time>
      </trkpt>
      <trkpt lat="47.33337" lon="0.51864">
        <ele>95.2</ele>
        <time>2023-07-18T07:43:03Z</time>
      </trkpt>
      <trkpt lat="47.33335" lon="0.51854">
        <ele>95.4</ele>
        <time>2023-07-18T07:43:04Z</time>
      </trkpt>
      <trkpt lat="47.33333" lon="0.51845">
        <ele>95.4</ele>
        <time>2023-07-18T07:43:05Z</time>
      </trkpt>
      <trkpt lat="47.33331" lon="0.51836">
        <ele>95.6</ele>
        <time>2023-07-18T07:43:06Z</time>
      </trkpt>
      <trkpt lat="47.33329" lon="0.51826">
        <ele>95.8</ele>
        <time>2023-07-18T07:43:07Z</time>
      </trkpt>
      <trkpt lat="47.33326" lon="0.51816">
        <ele>95.8</ele>
        <time>2023-07-18T07:43:08Z</time>
      </trkpt>
      <trkpt lat="47.33324" lon="0.51807">
        <ele>96</ele>
        <time>2023-07-18T07:43:09Z</time>
      </trkpt>
      <trkpt lat="47.33322" lon="0.51798">
        <ele>96</ele>
        <time>2023-07-18T07:43:10Z</time>
      </trkpt>
      <trkpt lat="47.3332" lon="0.51789">
        <ele>96</ele>
        <time>2023-07-18T07:43:11Z</time>
      </trkpt>
      <trkpt lat="47.33318" lon="0.5178">
        <ele>96.2</ele>
        <time>2023-07-18T07:43:12Z</time>
      </trkpt>
      <trkpt lat="47.33316" lon="0.51771">
        <ele>96.4</ele>
        <time>2023-07-18T07:43:13Z</time>
      </trkpt>
      <trkpt lat="47.33315" lon="0.51762">
        <ele>96.4</ele>
        <time>2023-07-18T07:43:14Z</time>
      </trkpt>
      <trkpt lat="47.33313" lon="0.51752">
        <ele>96.6</ele>
        <time>2023-07-18T07:43:15Z</time>
      </trkpt>
      <trkpt lat="47.33312" lon="0.51743">
        <ele>96.8</ele>
        <time>2023-07-18T07:43:16Z</time>
      </trkpt>
      <trkpt lat="47.3331" lon="0.51733">
        <ele>96.8</ele>
        <time>2023-07-18T07:43:17Z</time>
      </trkpt>
      <trkpt lat="47.33309" lon="0.51724">
        <ele>97</ele>
        <time>2023-07-18T07:43:18Z</time>
      </trkpt>
      <trkpt lat="47.33308" lon="0.51715">
        <ele>97</ele>
        <time>2023-07-18T07:43:19Z</time>
      </trkpt>
      <trkpt lat="47.33307" lon="0.51705">
        <ele>97</ele>
        <time>2023-07-18T07:43:20Z</time>
      </trkpt>
      <trkpt lat="47.33306" lon="0.51696">
        <ele>97.2</ele>
        <time>2023-07-18T07:43:21Z</time>
      </trkpt>
      <trkpt lat="47.33305" lon="0.51686">
        <ele>97.4</ele>
        <time>2023-07-18T07:43:22Z</time>
      </trkpt>
      <trkpt lat="47.33304" lon="0.51677">
        <ele>97.6</ele>
        <time>2023-07-18T07:43:23Z</time>
      </trkpt>
      <trkpt lat="47.33303" lon="0.51667">
        <ele>97.6</ele>
        <time>2023-07-18T07:43:24Z</time>
      </trkpt>
      <trkpt lat="47.33302" lon="0.51657">
        <ele>97.6</ele>
        <time>2023-07-18T07:43:25Z</time>
      </trkpt>
      <trkpt lat="47.33302" lon="0.51647">
        <ele>97.8</ele>
        <time>2023-07-18T07:43:26Z</time>
      </trkpt>
      <trkpt lat="47.33301" lon="0.51637">
        <ele>97.8</ele>
        <time>2023-07-18T07:43:27Z</time>
      </trkpt>
      <trkpt lat="47.333" lon="0.51627">
        <ele>97.8</ele>
        <time>2023-07-18T07:43:28Z</time>
      </trkpt>
      <trkpt lat="47.33299" lon="0.51616">
        <ele>97.8</ele>
        <time>2023-07-18T07:43:29Z</time>
      </trkpt>
      <trkpt lat="47.33298" lon="0.51606">
        <ele>97.8</ele>
        <time>2023-07-18T07:43:30Z</time>
      </trkpt>
      <trkpt lat="47.33297" lon="0.51596">
        <ele>98</ele>
        <time>2023-07-18T07:43:31Z</time>
      </trkpt>
      <trkpt lat="47.33297" lon="0.51585">
        <ele>98</ele>
        <time>2023-07-18T07:43:32Z</time>
      </trkpt>
      <trkpt lat="47.33296" lon="0.51575">
        <ele>98</ele>
        <time>2023-07-18T07:43:33Z</time>
      </trkpt>
      <trkpt lat="47.33296" lon="0.51565">
        <ele>98</ele>
        <time>2023-07-18T07:43:34Z</time>
      </trkpt>
      <trkpt lat="47.33295" lon="0.51554">
        <ele>98</ele>
        <time>2023-07-18T07:43:35Z</time>
      </trkpt>
      <trkpt lat="47.33295" lon="0.51544">
        <ele>98</ele>
        <time>2023-07-18T07:43:36Z</time>
      </trkpt>
      <trkpt lat="47.33294" lon="0.51533">
        <ele>98</ele>
        <time>2023-07-18T07:43:37Z</time>
      </trkpt>
      <trkpt lat="47.33293" lon="0.51523">
        <ele>97.8</ele>
        <time>2023-07-18T07:43:38Z</time>
      </trkpt>
      <trkpt lat="47.33292" lon="0.51513">
        <ele>97.8</ele>
        <time>2023-07-18T07:43:39Z</time>
      </trkpt>
      <trkpt lat="47.33292" lon="0.51503">
        <ele>97.8</ele>
        <time>2023-07-18T07:43:40Z</time>
      </trkpt>
      <trkpt lat="47.33291" lon="0.51493">
        <ele>97.8</ele>
        <time>2023-07-18T07:43:41Z</time>
      </trkpt>
      <trkpt lat="47.3329" lon="0.51483">
        <ele>97.8</ele>
        <time>2023-07-18T07:43:42Z</time>
      </trkpt>
      <trkpt lat="47.33289" lon="0.51473">
        <ele>97.8</ele>
        <time>2023-07-18T07:43:43Z</time>
      </trkpt>
      <trkpt lat="47.33289" lon="0.51462">
        <ele>97.8</ele>
        <time>2023-07-18T07:43:44Z</time>
      </trkpt>
      <trkpt lat="47.33288" lon="0.51452">
        <ele>97.6</ele>
        <time>2023-07-18T07:43:45Z</time>
      </trkpt>
      <trkpt lat="47.33287" lon="0.51442">
        <ele>97.6</ele>
        <time>2023-07-18T07:43:46Z</time>
      </trkpt>
      <trkpt lat="47.33286" lon="0.51431">
        <ele>97.6</ele>
        <time>2023-07-18T07:43:47Z</time>
      </trkpt>
      <trkpt lat="47.33285" lon="0.51421">
        <ele>97.6</ele>
        <time>2023-07-18T07:43:48Z</time>
      </trkpt>
      <trkpt lat="47.33284" lon="0.51411">
        <ele>97.4</ele>
        <time>2023-07-18T07:43:49Z</time>
      </trkpt>
      <trkpt lat="47.33282" lon="0.51401">
        <ele>97.4</ele>
        <time>2023-07-18T07:43:50Z</time>
      </trkpt>
      <trkpt lat="47.33281" lon="0.51391">
        <ele>97.2</ele>
        <time>2023-07-18T07:43:51Z</time>
      </trkpt>
      <trkpt lat="47.33279" lon="0.51382">
        <ele>97.2</ele>
        <time>2023-07-18T07:43:52Z</time>
      </trkpt>
      <trkpt lat="47.33276" lon="0.51373">
        <ele>97.2</ele>
        <time>2023-07-18T07:43:53Z</time>
      </trkpt>
      <trkpt lat="47.33274" lon="0.51365">
        <ele>97.2</ele>
        <time>2023-07-18T07:43:54Z</time>
      </trkpt>
      <trkpt lat="47.33271" lon="0.5136">
        <ele>97</ele>
        <time>2023-07-18T07:43:55Z</time>
      </trkpt>
      <trkpt lat="47.33268" lon="0.51355">
        <ele>97</ele>
        <time>2023-07-18T07:43:56Z</time>
      </trkpt>
      <trkpt lat="47.33264" lon="0.51352">
        <ele>97</ele>
        <time>2023-07-18T07:43:57Z</time>
      </trkpt>
      <trkpt lat="47.3326" lon="0.51351">
        <ele>97</ele>
        <time>2023-07-18T07:43:58Z</time>
      </trkpt>
      <trkpt lat="47.33255" lon="0.51353">
        <ele>97.2</ele>
        <time>2023-07-18T07:43:59Z</time>
      </trkpt>
      <trkpt lat="47.3325" lon="0.51356">
        <ele>97.2</ele>
        <time>2023-07-18T07:44:00Z</time>
      </trkpt>
      <trkpt lat="47.33245" lon="0.5136">
        <ele>97.4</ele>
        <time>2023-07-18T07:44:01Z</time>
      </trkpt>
      <trkpt lat="47.33239" lon="0.51365">
        <ele>97.4</ele>
        <time>2023-07-18T07:44:02Z</time>
      </trkpt>
      <trkpt lat="47.33234" lon="0.5137">
        <ele>97.4</ele>
        <time>2023-07-18T07:44:03Z</time>
      </trkpt>
      <trkpt lat="47.33229" lon="0.51374">
        <ele>97.4</ele>
        <time>2023-07-18T07:44:04Z</time>
      </trkpt>
      <trkpt lat="47.33223" lon="0.51379">
        <ele>97.6</ele>
        <time>2023-07-18T07:44:05Z</time>
      </trkpt>
      <trkpt lat="47.33218" lon="0.51384">
        <ele>97.8</ele>
        <time>2023-07-18T07:44:06Z</time>
      </trkpt>
      <trkpt lat="47.33212" lon="0.51388">
        <ele>97.8</ele>
        <time>2023-07-18T07:44:07Z</time>
      </trkpt>
      <trkpt lat="47.33207" lon="0.51392">
        <ele>98</ele>
        <time>2023-07-18T07:44:08Z</time>
      </trkpt>
      <trkpt lat="47.332" lon="0.51396">
        <ele>98.2</ele>
        <time>2023-07-18T07:44:09Z</time>
      </trkpt>
      <trkpt lat="47.33194" lon="0.514">
        <ele>98.2</ele>
        <time>2023-07-18T07:44:10Z</time>
      </trkpt>
      <trkpt lat="47.33188" lon="0.51404">
        <ele>98.2</ele>
        <time>2023-07-18T07:44:11Z</time>
      </trkpt>
      <trkpt lat="47.33182" lon="0.51408">
        <ele>98.4</ele>
        <time>2023-07-18T07:44:12Z</time>
      </trkpt>
      <trkpt lat="47.33176" lon="0.51412">
        <ele>98.6</ele>
        <time>2023-07-18T07:44:13Z</time>
      </trkpt>
      <trkpt lat="47.3317" lon="0.51416">
        <ele>98.8</ele>
        <time>2023-07-18T07:44:14Z</time>
      </trkpt>
      <trkpt lat="47.33163" lon="0.51419">
        <ele>99</ele>
        <time>2023-07-18T07:44:15Z</time>
      </trkpt>
      <trkpt lat="47.33157" lon="0.51423">
        <ele>99.2</ele>
        <time>2023-07-18T07:44:16Z</time>
      </trkpt>
      <trkpt lat="47.3315" lon="0.51426">
        <ele>99.2</ele>
        <time>2023-07-18T07:44:17Z</time>
      </trkpt>
      <trkpt lat="47.33144" lon="0.5143">
        <ele>99.2</ele>
        <time>2023-07-18T07:44:18Z</time>
      </trkpt>
      <trkpt lat="47.33138" lon="0.51433">
        <ele>99.4</ele>
        <time>2023-07-18T07:44:19Z</time>
      </trkpt>
      <trkpt lat="47.33131" lon="0.51437">
        <ele>99.6</ele>
        <time>2023-07-18T07:44:20Z</time>
      </trkpt>
      <trkpt lat="47.33124" lon="0.51441">
        <ele>99.6</ele>
        <time>2023-07-18T07:44:21Z</time>
      </trkpt>
      <trkpt lat="47.33117" lon="0.51444">
        <ele>99.8</ele>
        <time>2023-07-18T07:44:22Z</time>
      </trkpt>
      <trkpt lat="47.33111" lon="0.51448">
        <ele>99.8</ele>
        <time>2023-07-18T07:44:23Z</time>
      </trkpt>
      <trkpt lat="47.33105" lon="0.51452">
        <ele>100</ele>
        <time>2023-07-18T07:44:24Z</time>
      </trkpt>
      <trkpt lat="47.33098" lon="0.51455">
        <ele>100</ele>
        <time>2023-07-18T07:44:25Z</time>
      </trkpt>
      <trkpt lat="47.33092" lon="0.51459">
        <ele>100.2</ele>
        <time>2023-07-18T07:44:26Z</time>
      </trkpt>
      <trkpt lat="47.33086" lon="0.51463">
        <ele>100.2</ele>
        <time>2023-07-18T07:44:27Z</time>
      </trkpt>
      <trkpt lat="47.33079" lon="0.51466">
        <ele>100.4</ele>
        <time>2023-07-18T07:44:28Z</time>
      </trkpt>
      <trkpt lat="47.33073" lon="0.5147">
        <ele>100.4</ele>
        <time>2023-07-18T07:44:29Z</time>
      </trkpt>
      <trkpt lat="47.33066" lon="0.51474">
        <ele>100.6</ele>
        <time>2023-07-18T07:44:30Z</time>
      </trkpt>
      <trkpt lat="47.3306" lon="0.51477">
        <ele>100.8</ele>
        <time>2023-07-18T07:44:31Z</time>
      </trkpt>
      <trkpt lat="47.33054" lon="0.51481">
        <ele>100.8</ele>
        <time>2023-07-18T07:44:32Z</time>
      </trkpt>
      <trkpt lat="47.33048" lon="0.51484">
        <ele>101</ele>
        <time>2023-07-18T07:44:33Z</time>
      </trkpt>
      <trkpt lat="47.33042" lon="0.51487">
        <ele>101</ele>
        <time>2023-07-18T07:44:34Z</time>
      </trkpt>
      <trkpt lat="47.33036" lon="0.51491">
        <ele>101</ele>
        <time>2023-07-18T07:44:35Z</time>
      </trkpt>
      <trkpt lat="47.3303" lon="0.51494">
        <ele>101</ele>
        <time>2023-07-18T07:44:36Z</time>
      </trkpt>
      <trkpt lat="47.33024" lon="0.51498">
        <ele>101</ele>
        <time>2023-07-18T07:44:37Z</time>
      </trkpt>
      <trkpt lat="47.33018" lon="0.51502">
        <ele>101</ele>
        <time>2023-07-18T07:44:38Z</time>
      </trkpt>
      <trkpt lat="47.33012" lon="0.51506">
        <ele>101</ele>
        <time>2023-07-18T07:44:39Z</time>
      </trkpt>
      <trkpt lat="47.33006" lon="0.5151">
        <ele>101.2</ele>
        <time>2023-07-18T07:44:40Z</time>
      </trkpt>
      <trkpt lat="47.33" lon="0.51514">
        <ele>101</ele>
        <time>2023-07-18T07:44:41Z</time>
      </trkpt>
      <trkpt lat="47.32994" lon="0.51519">
        <ele>101</ele>
        <time>2023-07-18T07:44:42Z</time>
      </trkpt>
      <trkpt lat="47.32988" lon="0.51523">
        <ele>101.2</ele>
        <time>2023-07-18T07:44:43Z</time>
      </trkpt>
      <trkpt lat="47.32982" lon="0.51527">
        <ele>101.2</ele>
        <time>2023-07-18T07:44:44Z</time>
      </trkpt>
      <trkpt lat="47.32976" lon="0.51531">
        <ele>101.2</ele>
        <time>2023-07-18T07:44:45Z</time>
      </trkpt>
      <trkpt lat="47.32969" lon="0.51535">
        <ele>101.2</ele>
        <time>2023-07-18T07:44:46Z</time>
      </trkpt>
      <trkpt lat="47.32964" lon="0.51539">
        <ele>101.6</ele>
        <time>2023-07-18T07:44:47Z</time>
      </trkpt>
      <trkpt lat="47.32957" lon="0.51543">
        <ele>101.8</ele>
        <time>2023-07-18T07:44:48Z</time>
      </trkpt>
      <trkpt lat="47.32951" lon="0.51547">
        <ele>101.8</ele>
        <time>2023-07-18T07:44:49Z</time>
      </trkpt>
      <trkpt lat="47.32945" lon="0.5155">
        <ele>101.8</ele>
        <time>2023-07-18T07:44:50Z</time>
      </trkpt>
      <trkpt lat="47.32938" lon="0.51554">
        <ele>101.8</ele>
        <time>2023-07-18T07:44:51Z</time>
      </trkpt>
      <trkpt lat="47.32932" lon="0.51557">
        <ele>101.8</ele>
        <time>2023-07-18T07:44:52Z</time>
      </trkpt>
      <trkpt lat="47.32925" lon="0.5156">
        <ele>101.6</ele>
        <time>2023-07-18T07:44:53Z</time>
      </trkpt>
      <trkpt lat="47.32919" lon="0.51563">
        <ele>101.6</ele>
        <time>2023-07-18T07:44:54Z</time>
      </trkpt>
      <trkpt lat="47.32913" lon="0.51566">
        <ele>101.6</ele>
        <time>2023-07-18T07:44:55Z</time>
      </trkpt>
      <trkpt lat="47.32906" lon="0.51569">
        <ele>101.6</ele>
        <time>2023-07-18T07:44:56Z</time>
      </trkpt>
      <trkpt lat="47.329" lon="0.51572">
        <ele>101.6</ele>
        <time>2023-07-18T07:44:57Z</time>
      </trkpt>
      <trkpt lat="47.32893" lon="0.51576">
        <ele>101.4</ele>
        <time>2023-07-18T07:44:58Z</time>
      </trkpt>
      <trkpt lat="47.32887" lon="0.51579">
        <ele>101.4</ele>
        <time>2023-07-18T07:44:59Z</time>
      </trkpt>
      <trkpt lat="47.3288" lon="0.51583">
        <ele>101.4</ele>
        <time>2023-07-18T07:45:00Z</time>
      </trkpt>
      <trkpt lat="47.32875" lon="0.51587">
        <ele>101.4</ele>
        <time>2023-07-18T07:45:01Z</time>
      </trkpt>
      <trkpt lat="47.32869" lon="0.51592">
        <ele>101.4</ele>
        <time>2023-07-18T07:45:02Z</time>
      </trkpt>
      <trkpt lat="47.32862" lon="0.51597">
        <ele>101.4</ele>
        <time>2023-07-18T07:45:03Z</time>
      </trkpt>
      <trkpt lat="47.32856" lon="0.51602">
        <ele>101.6</ele>
        <time>2023-07-18T07:45:04Z</time>
      </trkpt>
      <trkpt lat="47.3285" lon="0.51609">
        <ele>101.6</ele>
        <time>2023-07-18T07:45:05Z</time>
      </trkpt>
      <trkpt lat="47.32845" lon="0.51614">
        <ele>101.6</ele>
        <time>2023-07-18T07:45:06Z</time>
      </trkpt>
      <trkpt lat="47.3284" lon="0.51621">
        <ele>101.6</ele>
        <time>2023-07-18T07:45:07Z</time>
      </trkpt>
      <trkpt lat="47.32835" lon="0.51627">
        <ele>101.6</ele>
        <time>2023-07-18T07:45:08Z</time>
      </trkpt>
      <trkpt lat="47.32829" lon="0.51634">
        <ele>101.6</ele>
        <time>2023-07-18T07:45:09Z</time>
      </trkpt>
      <trkpt lat="47.32824" lon="0.5164">
        <ele>101.6</ele>
        <time>2023-07-18T07:45:10Z</time>
      </trkpt>
      <trkpt lat="47.32819" lon="0.51647">
        <ele>101.6</ele>
        <time>2023-07-18T07:45:11Z</time>
      </trkpt>
      <trkpt lat="47.32814" lon="0.51653">
        <ele>101.6</ele>
        <time>2023-07-18T07:45:12Z</time>
      </trkpt>
      <trkpt lat="47.32809" lon="0.5166">
        <ele>101.4</ele>
        <time>2023-07-18T07:45:13Z</time>
      </trkpt>
      <trkpt lat="47.32803" lon="0.51666">
        <ele>101.4</ele>
        <time>2023-07-18T07:45:14Z</time>
      </trkpt>
      <trkpt lat="47.32798" lon="0.51672">
        <ele>101.6</ele>
        <time>2023-07-18T07:45:15Z</time>
      </trkpt>
      <trkpt lat="47.32792" lon="0.51679">
        <ele>101.6</ele>
        <time>2023-07-18T07:45:16Z</time>
      </trkpt>
      <trkpt lat="47.32787" lon="0.51686">
        <ele>101.8</ele>
        <time>2023-07-18T07:45:17Z</time>
      </trkpt>
      <trkpt lat="47.32782" lon="0.51691">
        <ele>101.8</ele>
        <time>2023-07-18T07:45:18Z</time>
      </trkpt>
      <trkpt lat="47.32776" lon="0.51698">
        <ele>101.8</ele>
        <time>2023-07-18T07:45:19Z</time>
      </trkpt>
      <trkpt lat="47.3277" lon="0.51705">
        <ele>101.8</ele>
        <time>2023-07-18T07:45:20Z</time>
      </trkpt>
      <trkpt lat="47.32764" lon="0.51711">
        <ele>101.6</ele>
        <time>2023-07-18T07:45:21Z</time>
      </trkpt>
      <trkpt lat="47.32759" lon="0.51718">
        <ele>101.4</ele>
        <time>2023-07-18T07:45:22Z</time>
      </trkpt>
      <trkpt lat="47.32754" lon="0.51725">
        <ele>101.4</ele>
        <time>2023-07-18T07:45:23Z</time>
      </trkpt>
      <trkpt lat="47.32748" lon="0.51731">
        <ele>101.4</ele>
        <time>2023-07-18T07:45:24Z</time>
      </trkpt>
      <trkpt lat="47.32743" lon="0.51738">
        <ele>101.6</ele>
        <time>2023-07-18T07:45:25Z</time>
      </trkpt>
      <trkpt lat="47.32737" lon="0.51744">
        <ele>101.8</ele>
        <time>2023-07-18T07:45:26Z</time>
      </trkpt>
      <trkpt lat="47.32732" lon="0.5175">
        <ele>101.8</ele>
        <time>2023-07-18T07:45:27Z</time>
      </trkpt>
      <trkpt lat="47.32726" lon="0.51757">
        <ele>101.8</ele>
        <time>2023-07-18T07:45:28Z</time>
      </trkpt>
      <trkpt lat="47.32721" lon="0.51763">
        <ele>102</ele>
        <time>2023-07-18T07:45:29Z</time>
      </trkpt>
      <trkpt lat="47.32716" lon="0.51768">
        <ele>102</ele>
        <time>2023-07-18T07:45:30Z</time>
      </trkpt>
      <trkpt lat="47.3271" lon="0.51774">
        <ele>101.8</ele>
        <time>2023-07-18T07:45:31Z</time>
      </trkpt>
      <trkpt lat="47.32704" lon="0.51779">
        <ele>101.8</ele>
        <time>2023-07-18T07:45:32Z</time>
      </trkpt>
      <trkpt lat="47.32698" lon="0.51785">
        <ele>101.8</ele>
        <time>2023-07-18T07:45:33Z</time>
      </trkpt>
      <trkpt lat="47.32692" lon="0.5179">
        <ele>101.8</ele>
        <time>2023-07-18T07:45:34Z</time>
      </trkpt>
      <trkpt lat="47.32687" lon="0.51795">
        <ele>102</ele>
        <time>2023-07-18T07:45:35Z</time>
      </trkpt>
      <trkpt lat="47.32681" lon="0.518">
        <ele>102</ele>
        <time>2023-07-18T07:45:36Z</time>
      </trkpt>
      <trkpt lat="47.32675" lon="0.51805">
        <ele>102</ele>
        <time>2023-07-18T07:45:37Z</time>
      </trkpt>
      <trkpt lat="47.32669" lon="0.5181">
        <ele>102</ele>
        <time>2023-07-18T07:45:38Z</time>
      </trkpt>
      <trkpt lat="47.32663" lon="0.51815">
        <ele>102</ele>
        <time>2023-07-18T07:45:39Z</time>
      </trkpt>
      <trkpt lat="47.32658" lon="0.5182">
        <ele>102.2</ele>
        <time>2023-07-18T07:45:40Z</time>
      </trkpt>
      <trkpt lat="47.32652" lon="0.51824">
        <ele>102.2</ele>
        <time>2023-07-18T07:45:41Z</time>
      </trkpt>
      <trkpt lat="47.32646" lon="0.51829">
        <ele>102.2</ele>
        <time>2023-07-18T07:45:42Z</time>
      </trkpt>
      <trkpt lat="47.3264" lon="0.51833">
        <ele>102.4</ele>
        <time>2023-07-18T07:45:43Z</time>
      </trkpt>
      <trkpt lat="47.32634" lon="0.51837">
        <ele>102.4</ele>
        <time>2023-07-18T07:45:44Z</time>
      </trkpt>
      <trkpt lat="47.32627" lon="0.51842">
        <ele>102.4</ele>
        <time>2023-07-18T07:45:45Z</time>
      </trkpt>
      <trkpt lat="47.32621" lon="0.51846">
        <ele>102.4</ele>
        <time>2023-07-18T07:45:46Z</time>
      </trkpt>
      <trkpt lat="47.32615" lon="0.5185">
        <ele>102.4</ele>
        <time>2023-07-18T07:45:47Z</time>
      </trkpt>
      <trkpt lat="47.32609" lon="0.51853">
        <ele>102.6</ele>
        <time>2023-07-18T07:45:48Z</time>
      </trkpt>
      <trkpt lat="47.32603" lon="0.51857">
        <ele>102.6</ele>
        <time>2023-07-18T07:45:49Z</time>
      </trkpt>
      <trkpt lat="47.32597" lon="0.5186">
        <ele>102.6</ele>
        <time>2023-07-18T07:45:50Z</time>
      </trkpt>
      <trkpt lat="47.32591" lon="0.51863">
        <ele>102.6</ele>
        <time>2023-07-18T07:45:51Z</time>
      </trkpt>
      <trkpt lat="47.32585" lon="0.51867">
        <ele>102.8</ele>
        <time>2023-07-18T07:45:52Z</time>
      </trkpt>
      <trkpt lat="47.32579" lon="0.5187">
        <ele>103</ele>
        <time>2023-07-18T07:45:53Z</time>
      </trkpt>
      <trkpt lat="47.32573" lon="0.51873">
        <ele>103</ele>
        <time>2023-07-18T07:45:54Z</time>
      </trkpt>
      <trkpt lat="47.32567" lon="0.51876">
        <ele>103</ele>
        <time>2023-07-18T07:45:55Z</time>
      </trkpt>
      <trkpt lat="47.32561" lon="0.51879">
        <ele>103</ele>
        <time>2023-07-18T07:45:56Z</time>
      </trkpt>
      <trkpt lat="47.32555" lon="0.51881">
        <ele>103.2</ele>
        <time>2023-07-18T07:45:57Z</time>
      </trkpt>
      <trkpt lat="47.32549" lon="0.51884">
        <ele>103.4</ele>
        <time>2023-07-18T07:45:58Z</time>
      </trkpt>
      <trkpt lat="47.32543" lon="0.51886">
        <ele>103.4</ele>
        <time>2023-07-18T07:45:59Z</time>
      </trkpt>
      <trkpt lat="47.32537" lon="0.51889">
        <ele>103.4</ele>
        <time>2023-07-18T07:46:00Z</time>
      </trkpt>
      <trkpt lat="47.3253" lon="0.51891">
        <ele>103.2</ele>
        <time>2023-07-18T07:46:01Z</time>
      </trkpt>
      <trkpt lat="47.32524" lon="0.51893">
        <ele>103.2</ele>
        <time>2023-07-18T07:46:02Z</time>
      </trkpt>
      <trkpt lat="47.32517" lon="0.51896">
        <ele>103.2</ele>
        <time>2023-07-18T07:46:03Z</time>
      </trkpt>
      <trkpt lat="47.3251" lon="0.51897">
        <ele>103.2</ele>
        <time>2023-07-18T07:46:04Z</time>
      </trkpt>
      <trkpt lat="47.32503" lon="0.51899">
        <ele>103.2</ele>
        <time>2023-07-18T07:46:05Z</time>
      </trkpt>
      <trkpt lat="47.32497" lon="0.519">
        <ele>103.2</ele>
        <time>2023-07-18T07:46:06Z</time>
      </trkpt>
      <trkpt lat="47.3249" lon="0.51901">
        <ele>103.2</ele>
        <time>2023-07-18T07:46:07Z</time>
      </trkpt>
      <trkpt lat="47.32482" lon="0.51902">
        <ele>103.2</ele>
        <time>2023-07-18T07:46:08Z</time>
      </trkpt>
      <trkpt lat="47.32475" lon="0.51903">
        <ele>102.8</ele>
        <time>2023-07-18T07:46:09Z</time>
      </trkpt>
      <trkpt lat="47.32469" lon="0.51904">
        <ele>102.8</ele>
        <time>2023-07-18T07:46:10Z</time>
      </trkpt>
      <trkpt lat="47.32462" lon="0.51905">
        <ele>102.6</ele>
        <time>2023-07-18T07:46:11Z</time>
      </trkpt>
      <trkpt lat="47.32455" lon="0.51905">
        <ele>102.6</ele>
        <time>2023-07-18T07:46:12Z</time>
      </trkpt>
      <trkpt lat="47.32447" lon="0.51906">
        <ele>102.4</ele>
        <time>2023-07-18T07:46:13Z</time>
      </trkpt>
      <trkpt lat="47.3244" lon="0.51907">
        <ele>102.2</ele>
        <time>2023-07-18T07:46:14Z</time>
      </trkpt>
      <trkpt lat="47.32433" lon="0.51908">
        <ele>102</ele>
        <time>2023-07-18T07:46:15Z</time>
      </trkpt>
      <trkpt lat="47.32426" lon="0.51909">
        <ele>102</ele>
        <time>2023-07-18T07:46:16Z</time>
      </trkpt>
      <trkpt lat="47.32418" lon="0.5191">
        <ele>102</ele>
        <time>2023-07-18T07:46:17Z</time>
      </trkpt>
      <trkpt lat="47.3241" lon="0.51911">
        <ele>102</ele>
        <time>2023-07-18T07:46:18Z</time>
      </trkpt>
      <trkpt lat="47.32404" lon="0.51912">
        <ele>102.2</ele>
        <time>2023-07-18T07:46:19Z</time>
      </trkpt>
      <trkpt lat="47.32396" lon="0.51914">
        <ele>102.2</ele>
        <time>2023-07-18T07:46:20Z</time>
      </trkpt>
      <trkpt lat="47.32389" lon="0.51916">
        <ele>102.2</ele>
        <time>2023-07-18T07:46:21Z</time>
      </trkpt>
      <trkpt lat="47.32381" lon="0.51919">
        <ele>102.2</ele>
        <time>2023-07-18T07:46:22Z</time>
      </trkpt>
      <trkpt lat="47.32375" lon="0.51922">
        <ele>102</ele>
        <time>2023-07-18T07:46:23Z</time>
      </trkpt>
      <trkpt lat="47.32367" lon="0.51925">
        <ele>101.8</ele>
        <time>2023-07-18T07:46:24Z</time>
      </trkpt>
      <trkpt lat="47.3236" lon="0.51928">
        <ele>101.8</ele>
        <time>2023-07-18T07:46:25Z</time>
      </trkpt>
      <trkpt lat="47.32354" lon="0.51931">
        <ele>101.6</ele>
        <time>2023-07-18T07:46:26Z</time>
      </trkpt>
      <trkpt lat="47.32347" lon="0.51935">
        <ele>101.6</ele>
        <time>2023-07-18T07:46:27Z</time>
      </trkpt>
      <trkpt lat="47.3234" lon="0.51939">
        <ele>101.4</ele>
        <time>2023-07-18T07:46:28Z</time>
      </trkpt>
      <trkpt lat="47.32333" lon="0.51942">
        <ele>101.2</ele>
        <time>2023-07-18T07:46:29Z</time>
      </trkpt>
      <trkpt lat="47.32327" lon="0.51945">
        <ele>101</ele>
        <time>2023-07-18T07:46:30Z</time>
      </trkpt>
      <trkpt lat="47.3232" lon="0.51949">
        <ele>100.8</ele>
        <time>2023-07-18T07:46:31Z</time>
      </trkpt>
      <trkpt lat="47.32313" lon="0.51952">
        <ele>100.8</ele>
        <time>2023-07-18T07:46:32Z</time>
      </trkpt>
      <trkpt lat="47.32307" lon="0.51955">
        <ele>100.4</ele>
        <time>2023-07-18T07:46:33Z</time>
      </trkpt>
      <trkpt lat="47.323" lon="0.51958">
        <ele>100.4</ele>
        <time>2023-07-18T07:46:34Z</time>
      </trkpt>
      <trkpt lat="47.32293" lon="0.51962">
        <ele>100.2</ele>
        <time>2023-07-18T07:46:35Z</time>
      </trkpt>
      <trkpt lat="47.32286" lon="0.51965">
        <ele>100</ele>
        <time>2023-07-18T07:46:36Z</time>
      </trkpt>
      <trkpt lat="47.3228" lon="0.51968">
        <ele>100.2</ele>
        <time>2023-07-18T07:46:37Z</time>
      </trkpt>
      <trkpt lat="47.32273" lon="0.51972">
        <ele>100.2</ele>
        <time>2023-07-18T07:46:38Z</time>
      </trkpt>
      <trkpt lat="47.32267" lon="0.51975">
        <ele>100.2</ele>
        <time>2023-07-18T07:46:39Z</time>
      </trkpt>
      <trkpt lat="47.32261" lon="0.51978">
        <ele>100.2</ele>
        <time>2023-07-18T07:46:40Z</time>
      </trkpt>
      <trkpt lat="47.32254" lon="0.51981">
        <ele>100.2</ele>
        <time>2023-07-18T07:46:41Z</time>
      </trkpt>
      <trkpt lat="47.32248" lon="0.51985">
        <ele>100.2</ele>
        <time>2023-07-18T07:46:42Z</time>
      </trkpt>
      <trkpt lat="47.32241" lon="0.51988">
        <ele>100.6</ele>
        <time>2023-07-18T07:46:43Z</time>
      </trkpt>
      <trkpt lat="47.32235" lon="0.51991">
        <ele>100.8</ele>
        <time>2023-07-18T07:46:44Z</time>
      </trkpt>
      <trkpt lat="47.32228" lon="0.51994">
        <ele>100.8</ele>
        <time>2023-07-18T07:46:45Z</time>
      </trkpt>
      <trkpt lat="47.32222" lon="0.51997">
        <ele>100.8</ele>
        <time>2023-07-18T07:46:46Z</time>
      </trkpt>
      <trkpt lat="47.32215" lon="0.52">
        <ele>100.8</ele>
        <time>2023-07-18T07:46:47Z</time>
      </trkpt>
      <trkpt lat="47.32209" lon="0.52003">
        <ele>100.6</ele>
        <time>2023-07-18T07:46:48Z</time>
      </trkpt>
      <trkpt lat="47.32202" lon="0.52006">
        <ele>100.4</ele>
        <time>2023-07-18T07:46:49Z</time>
      </trkpt>
      <trkpt lat="47.32195" lon="0.52009">
        <ele>100.2</ele>
        <time>2023-07-18T07:46:50Z</time>
      </trkpt>
      <trkpt lat="47.32188" lon="0.52011">
        <ele>100.2</ele>
        <time>2023-07-18T07:46:51Z</time>
      </trkpt>
      <trkpt lat="47.3218" lon="0.52013">
        <ele>100</ele>
        <time>2023-07-18T07:46:52Z</time>
      </trkpt>
      <trkpt lat="47.32173" lon="0.52014">
        <ele>99.8</ele>
        <time>2023-07-18T07:46:53Z</time>
      </trkpt>
      <trkpt lat="47.32166" lon="0.52015">
        <ele>99.8</ele>
        <time>2023-07-18T07:46:54Z</time>
      </trkpt>
      <trkpt lat="47.32159" lon="0.52016">
        <ele>99.6</ele>
        <time>2023-07-18T07:46:55Z</time>
      </trkpt>
      <trkpt lat="47.32151" lon="0.52016">
        <ele>99.4</ele>
        <time>2023-07-18T07:46:56Z</time>
      </trkpt>
      <trkpt lat="47.32143" lon="0.52015">
        <ele>99.2</ele>
        <time>2023-07-18T07:46:57Z</time>
      </trkpt>
      <trkpt lat="47.32135" lon="0.52014">
        <ele>99</ele>
        <time>2023-07-18T07:46:58Z</time>
      </trkpt>
      <trkpt lat="47.32127" lon="0.52014">
        <ele>98.8</ele>
        <time>2023-07-18T07:46:59Z</time>
      </trkpt>
      <trkpt lat="47.3212" lon="0.52013">
        <ele>98.8</ele>
        <time>2023-07-18T07:47:00Z</time>
      </trkpt>
      <trkpt lat="47.32114" lon="0.52012">
        <ele>98.6</ele>
        <time>2023-07-18T07:47:01Z</time>
      </trkpt>
      <trkpt lat="47.32106" lon="0.52011">
        <ele>98.6</ele>
        <time>2023-07-18T07:47:02Z</time>
      </trkpt>
      <trkpt lat="47.32098" lon="0.52009">
        <ele>98.6</ele>
        <time>2023-07-18T07:47:03Z</time>
      </trkpt>
      <trkpt lat="47.32089" lon="0.52008">
        <ele>98.4</ele>
        <time>2023-07-18T07:47:04Z</time>
      </trkpt>
      <trkpt lat="47.32081" lon="0.52006">
        <ele>98.4</ele>
        <time>2023-07-18T07:47:05Z</time>
      </trkpt>
      <trkpt lat="47.32073" lon="0.52004">
        <ele>98.4</ele>
        <time>2023-07-18T07:47:06Z</time>
      </trkpt>
      <trkpt lat="47.32066" lon="0.52002">
        <ele>98.2</ele>
        <time>2023-07-18T07:47:07Z</time>
      </trkpt>
      <trkpt lat="47.32058" lon="0.51999">
        <ele>98</ele>
        <time>2023-07-18T07:47:08Z</time>
      </trkpt>
      <trkpt lat="47.32051" lon="0.51997">
        <ele>98</ele>
        <time>2023-07-18T07:47:09Z</time>
      </trkpt>
      <trkpt lat="47.32043" lon="0.51994">
        <ele>98</ele>
        <time>2023-07-18T07:47:10Z</time>
      </trkpt>
      <trkpt lat="47.32036" lon="0.5199">
        <ele>98</ele>
        <time>2023-07-18T07:47:11Z</time>
      </trkpt>
      <trkpt lat="47.32029" lon="0.51986">
        <ele>97.8</ele>
        <time>2023-07-18T07:47:12Z</time>
      </trkpt>
      <trkpt lat="47.32022" lon="0.51982">
        <ele>97.8</ele>
        <time>2023-07-18T07:47:13Z</time>
      </trkpt>
      <trkpt lat="47.32016" lon="0.51978">
        <ele>97.8</ele>
        <time>2023-07-18T07:47:14Z</time>
      </trkpt>
      <trkpt lat="47.32009" lon="0.51973">
        <ele>97.6</ele>
        <time>2023-07-18T07:47:15Z</time>
      </trkpt>
      <trkpt lat="47.32003" lon="0.51968">
        <ele>97.6</ele>
        <time>2023-07-18T07:47:16Z</time>
      </trkpt>
      <trkpt lat="47.31996" lon="0.51964">
        <ele>97.6</ele>
        <time>2023-07-18T07:47:17Z</time>
      </trkpt>
      <trkpt lat="47.3199" lon="0.51958">
        <ele>97.6</ele>
        <time>2023-07-18T07:47:18Z</time>
      </trkpt>
      <trkpt lat="47.31984" lon="0.51954">
        <ele>97.4</ele>
        <time>2023-07-18T07:47:19Z</time>
      </trkpt>
      <trkpt lat="47.31977" lon="0.51948">
        <ele>97.2</ele>
        <time>2023-07-18T07:47:20Z</time>
      </trkpt>
      <trkpt lat="47.31972" lon="0.51944">
        <ele>97.2</ele>
        <time>2023-07-18T07:47:21Z</time>
      </trkpt>
      <trkpt lat="47.31964" lon="0.51938">
        <ele>97.2</ele>
        <time>2023-07-18T07:47:22Z</time>
      </trkpt>
      <trkpt lat="47.31958" lon="0.51933">
        <ele>97.2</ele>
        <time>2023-07-18T07:47:23Z</time>
      </trkpt>
      <trkpt lat="47.31951" lon="0.51928">
        <ele>97.2</ele>
        <time>2023-07-18T07:47:24Z</time>
      </trkpt>
      <trkpt lat="47.31944" lon="0.51923">
        <ele>97</ele>
        <time>2023-07-18T07:47:25Z</time>
      </trkpt>
      <trkpt lat="47.31938" lon="0.51917">
        <ele>97</ele>
        <time>2023-07-18T07:47:26Z</time>
      </trkpt>
      <trkpt lat="47.31932" lon="0.51912">
        <ele>97</ele>
        <time>2023-07-18T07:47:27Z</time>
      </trkpt>
      <trkpt lat="47.31925" lon="0.51907">
        <ele>97</ele>
        <time>2023-07-18T07:47:28Z</time>
      </trkpt>
      <trkpt lat="47.31919" lon="0.51903">
        <ele>97</ele>
        <time>2023-07-18T07:47:29Z</time>
      </trkpt>
      <trkpt lat="47.31912" lon="0.51898">
        <ele>97.2</ele>
        <time>2023-07-18T07:47:30Z</time>
      </trkpt>
      <trkpt lat="47.31905" lon="0.51893">
        <ele>97.2</ele>
        <time>2023-07-18T07:47:31Z</time>
      </trkpt>
      <trkpt lat="47.31899" lon="0.51889">
        <ele>97</ele>
        <time>2023-07-18T07:47:32Z</time>
      </trkpt>
      <trkpt lat="47.31892" lon="0.51885">
        <ele>97</ele>
        <time>2023-07-18T07:47:33Z</time>
      </trkpt>
      <trkpt lat="47.31886" lon="0.51881">
        <ele>97.2</ele>
        <time>2023-07-18T07:47:34Z</time>
      </trkpt>
      <trkpt lat="47.31879" lon="0.51878">
        <ele>97.2</ele>
        <time>2023-07-18T07:47:35Z</time>
      </trkpt>
      <trkpt lat="47.31871" lon="0.51876">
        <ele>97.4</ele>
        <time>2023-07-18T07:47:36Z</time>
      </trkpt>
      <trkpt lat="47.31864" lon="0.51875">
        <ele>97.4</ele>
        <time>2023-07-18T07:47:37Z</time>
      </trkpt>
      <trkpt lat="47.31857" lon="0.51874">
        <ele>97.4</ele>
        <time>2023-07-18T07:47:38Z</time>
      </trkpt>
      <trkpt lat="47.3185" lon="0.51874">
        <ele>97.6</ele>
        <time>2023-07-18T07:47:39Z</time>
      </trkpt>
      <trkpt lat="47.31843" lon="0.51875">
        <ele>97.6</ele>
        <time>2023-07-18T07:47:40Z</time>
      </trkpt>
      <trkpt lat="47.31835" lon="0.51876">
        <ele>98</ele>
        <time>2023-07-18T07:47:41Z</time>
      </trkpt>
      <trkpt lat="47.31828" lon="0.51878">
        <ele>98</ele>
        <time>2023-07-18T07:47:42Z</time>
      </trkpt>
      <trkpt lat="47.31821" lon="0.5188">
        <ele>98</ele>
        <time>2023-07-18T07:47:43Z</time>
      </trkpt>
      <trkpt lat="47.31814" lon="0.51881">
        <ele>98</ele>
        <time>2023-07-18T07:47:44Z</time>
      </trkpt>
      <trkpt lat="47.31807" lon="0.51883">
        <ele>98</ele>
        <time>2023-07-18T07:47:45Z</time>
      </trkpt>
      <trkpt lat="47.318" lon="0.51885">
        <ele>98</ele>
        <time>2023-07-18T07:47:46Z</time>
      </trkpt>
      <trkpt lat="47.31793" lon="0.51886">
        <ele>98</ele>
        <time>2023-07-18T07:47:47Z</time>
      </trkpt>
      <trkpt lat="47.31786" lon="0.51886">
        <ele>98</ele>
        <time>2023-07-18T07:47:48Z</time>
      </trkpt>
      <trkpt lat="47.3178" lon="0.51886">
        <ele>97.8</ele>
        <time>2023-07-18T07:47:49Z</time>
      </trkpt>
      <trkpt lat="47.31771" lon="0.51885">
        <ele>97.8</ele>
        <time>2023-07-18T07:47:50Z</time>
      </trkpt>
      <trkpt lat="47.31764" lon="0.51883">
        <ele>97.6</ele>
        <time>2023-07-18T07:47:51Z</time>
      </trkpt>
      <trkpt lat="47.31757" lon="0.51881">
        <ele>97.4</ele>
        <time>2023-07-18T07:47:52Z</time>
      </trkpt>
      <trkpt lat="47.3175" lon="0.51878">
        <ele>97.2</ele>
        <time>2023-07-18T07:47:53Z</time>
      </trkpt>
      <trkpt lat="47.31743" lon="0.51874">
        <ele>97.2</ele>
        <time>2023-07-18T07:47:54Z</time>
      </trkpt>
      <trkpt lat="47.31737" lon="0.5187">
        <ele>97</ele>
        <time>2023-07-18T07:47:55Z</time>
      </trkpt>
      <trkpt lat="47.3173" lon="0.51865">
        <ele>97</ele>
        <time>2023-07-18T07:47:56Z</time>
      </trkpt>
      <trkpt lat="47.31724" lon="0.5186">
        <ele>97</ele>
        <time>2023-07-18T07:47:57Z</time>
      </trkpt>
      <trkpt lat="47.31718" lon="0.51854">
        <ele>97</ele>
        <time>2023-07-18T07:47:58Z</time>
      </trkpt>
      <trkpt lat="47.31712" lon="0.51848">
        <ele>97</ele>
        <time>2023-07-18T07:47:59Z</time>
      </trkpt>
      <trkpt lat="47.31707" lon="0.51841">
        <ele>97</ele>
        <time>2023-07-18T07:48:00Z</time>
      </trkpt>
      <trkpt lat="47.31701" lon="0.51833">
        <ele>97</ele>
        <time>2023-07-18T07:48:01Z</time>
      </trkpt>
      <trkpt lat="47.31696" lon="0.51826">
        <ele>97</ele>
        <time>2023-07-18T07:48:02Z</time>
      </trkpt>
      <trkpt lat="47.31691" lon="0.51818">
        <ele>97</ele>
        <time>2023-07-18T07:48:03Z</time>
      </trkpt>
      <trkpt lat="47.31687" lon="0.5181">
        <ele>97.2</ele>
        <time>2023-07-18T07:48:04Z</time>
      </trkpt>
      <trkpt lat="47.31682" lon="0.51802">
        <ele>97.2</ele>
        <time>2023-07-18T07:48:05Z</time>
      </trkpt>
      <trkpt lat="47.31678" lon="0.51794">
        <ele>97.2</ele>
        <time>2023-07-18T07:48:06Z</time>
      </trkpt>
      <trkpt lat="47.31673" lon="0.51786">
        <ele>97.2</ele>
        <time>2023-07-18T07:48:07Z</time>
      </trkpt>
      <trkpt lat="47.31667" lon="0.51779">
        <ele>97.2</ele>
        <time>2023-07-18T07:48:08Z</time>
      </trkpt>
      <trkpt lat="47.31662" lon="0.51772">
        <ele>97.4</ele>
        <time>2023-07-18T07:48:09Z</time>
      </trkpt>
      <trkpt lat="47.31657" lon="0.51766">
        <ele>97.4</ele>
        <time>2023-07-18T07:48:10Z</time>
      </trkpt>
      <trkpt lat="47.3165" lon="0.51761">
        <ele>97.4</ele>
        <time>2023-07-18T07:48:11Z</time>
      </trkpt>
      <trkpt lat="47.31644" lon="0.51757">
        <ele>97.6</ele>
        <time>2023-07-18T07:48:12Z</time>
      </trkpt>
      <trkpt lat="47.31636" lon="0.51754">
        <ele>97.6</ele>
        <time>2023-07-18T07:48:13Z</time>
      </trkpt>
      <trkpt lat="47.31629" lon="0.51751">
        <ele>97.4</ele>
        <time>2023-07-18T07:48:14Z</time>
      </trkpt>
      <trkpt lat="47.31622" lon="0.5175">
        <ele>97.2</ele>
        <time>2023-07-18T07:48:15Z</time>
      </trkpt>
      <trkpt lat="47.31614" lon="0.51748">
        <ele>97.2</ele>
        <time>2023-07-18T07:48:16Z</time>
      </trkpt>
      <trkpt lat="47.31606" lon="0.51748">
        <ele>97</ele>
        <time>2023-07-18T07:48:17Z</time>
      </trkpt>
      <trkpt lat="47.31599" lon="0.51748">
        <ele>96.8</ele>
        <time>2023-07-18T07:48:18Z</time>
      </trkpt>
      <trkpt lat="47.31591" lon="0.5175">
        <ele>96.8</ele>
        <time>2023-07-18T07:48:19Z</time>
      </trkpt>
      <trkpt lat="47.31583" lon="0.51752">
        <ele>96.4</ele>
        <time>2023-07-18T07:48:20Z</time>
      </trkpt>
      <trkpt lat="47.31576" lon="0.51754">
        <ele>96.4</ele>
        <time>2023-07-18T07:48:21Z</time>
      </trkpt>
      <trkpt lat="47.31569" lon="0.51757">
        <ele>96.4</ele>
        <time>2023-07-18T07:48:22Z</time>
      </trkpt>
      <trkpt lat="47.31562" lon="0.51759">
        <ele>96.2</ele>
        <time>2023-07-18T07:48:23Z</time>
      </trkpt>
      <trkpt lat="47.31555" lon="0.51762">
        <ele>96.2</ele>
        <time>2023-07-18T07:48:24Z</time>
      </trkpt>
      <trkpt lat="47.31548" lon="0.51763">
        <ele>96</ele>
        <time>2023-07-18T07:48:25Z</time>
      </trkpt>
      <trkpt lat="47.31542" lon="0.51766">
        <ele>95.8</ele>
        <time>2023-07-18T07:48:26Z</time>
      </trkpt>
      <trkpt lat="47.31536" lon="0.5177">
        <ele>95.8</ele>
        <time>2023-07-18T07:48:27Z</time>
      </trkpt>
      <trkpt lat="47.3153" lon="0.51776">
        <ele>95.6</ele>
        <time>2023-07-18T07:48:28Z</time>
      </trkpt>
      <trkpt lat="47.31525" lon="0.51783">
        <ele>95.6</ele>
        <time>2023-07-18T07:48:29Z</time>
      </trkpt>
      <trkpt lat="47.31521" lon="0.51792">
        <ele>95.6</ele>
        <time>2023-07-18T07:48:30Z</time>
      </trkpt>
      <trkpt lat="47.31518" lon="0.51801">
        <ele>95.6</ele>
        <time>2023-07-18T07:48:31Z</time>
      </trkpt>
      <trkpt lat="47.31516" lon="0.51811">
        <ele>95.8</ele>
        <time>2023-07-18T07:48:32Z</time>
      </trkpt>
      <trkpt lat="47.31515" lon="0.51821">
        <ele>95.8</ele>
        <time>2023-07-18T07:48:33Z</time>
      </trkpt>
      <trkpt lat="47.31514" lon="0.51831">
        <ele>95.8</ele>
        <time>2023-07-18T07:48:34Z</time>
      </trkpt>
      <trkpt lat="47.31513" lon="0.51841">
        <ele>96</ele>
        <time>2023-07-18T07:48:35Z</time>
      </trkpt>
      <trkpt lat="47.31512" lon="0.51851">
        <ele>96.2</ele>
        <time>2023-07-18T07:48:36Z</time>
      </trkpt>
      <trkpt lat="47.31513" lon="0.51862">
        <ele>96.2</ele>
        <time>2023-07-18T07:48:37Z</time>
      </trkpt>
      <trkpt lat="47.31513" lon="0.51872">
        <ele>96.2</ele>
        <time>2023-07-18T07:48:38Z</time>
      </trkpt>
      <trkpt lat="47.31513" lon="0.51882">
        <ele>96.2</ele>
        <time>2023-07-18T07:48:39Z</time>
      </trkpt>
      <trkpt lat="47.31513" lon="0.51892">
        <ele>96.4</ele>
        <time>2023-07-18T07:48:40Z</time>
      </trkpt>
      <trkpt lat="47.31514" lon="0.51902">
        <ele>96.4</ele>
        <time>2023-07-18T07:48:41Z</time>
      </trkpt>
      <trkpt lat="47.31514" lon="0.51912">
        <ele>96.4</ele>
        <time>2023-07-18T07:48:42Z</time>
      </trkpt>
      <trkpt lat="47.31514" lon="0.51921">
        <ele>96.6</ele>
        <time>2023-07-18T07:48:43Z</time>
      </trkpt>
      <trkpt lat="47.31514" lon="0.51931">
        <ele>96.4</ele>
        <time>2023-07-18T07:48:44Z</time>
      </trkpt>
      <trkpt lat="47.31514" lon="0.51941">
        <ele>96.6</ele>
        <time>2023-07-18T07:48:45Z</time>
      </trkpt>
      <trkpt lat="47.31514" lon="0.51951">
        <ele>96.8</ele>
        <time>2023-07-18T07:48:46Z</time>
      </trkpt>
      <trkpt lat="47.31515" lon="0.51961">
        <ele>97</ele>
        <time>2023-07-18T07:48:47Z</time>
      </trkpt>
      <trkpt lat="47.31515" lon="0.5197">
        <ele>97</ele>
        <time>2023-07-18T07:48:48Z</time>
      </trkpt>
      <trkpt lat="47.31515" lon="0.5198">
        <ele>97</ele>
        <time>2023-07-18T07:48:49Z</time>
      </trkpt>
      <trkpt lat="47.31515" lon="0.5199">
        <ele>97</ele>
        <time>2023-07-18T07:48:50Z</time>
      </trkpt>
      <trkpt lat="47.31514" lon="0.52">
        <ele>96.8</ele>
        <time>2023-07-18T07:48:51Z</time>
      </trkpt>
      <trkpt lat="47.31513" lon="0.5201">
        <ele>96.8</ele>
        <time>2023-07-18T07:48:52Z</time>
      </trkpt>
      <trkpt lat="47.31512" lon="0.5202">
        <ele>96.8</ele>
        <time>2023-07-18T07:48:53Z</time>
      </trkpt>
      <trkpt lat="47.31509" lon="0.52029">
        <ele>96.8</ele>
        <time>2023-07-18T07:48:54Z</time>
      </trkpt>
      <trkpt lat="47.31507" lon="0.52039">
        <ele>96.8</ele>
        <time>2023-07-18T07:48:55Z</time>
      </trkpt>
      <trkpt lat="47.31504" lon="0.52047">
        <ele>96.8</ele>
        <time>2023-07-18T07:48:56Z</time>
      </trkpt>
      <trkpt lat="47.31501" lon="0.52056">
        <ele>96.8</ele>
        <time>2023-07-18T07:48:57Z</time>
      </trkpt>
      <trkpt lat="47.31497" lon="0.52064">
        <ele>96.8</ele>
        <time>2023-07-18T07:48:58Z</time>
      </trkpt>
      <trkpt lat="47.31493" lon="0.52072">
        <ele>97</ele>
        <time>2023-07-18T07:48:59Z</time>
      </trkpt>
      <trkpt lat="47.31488" lon="0.5208">
        <ele>96.8</ele>
        <time>2023-07-18T07:49:00Z</time>
      </trkpt>
      <trkpt lat="47.31483" lon="0.52087">
        <ele>96.8</ele>
        <time>2023-07-18T07:49:01Z</time>
      </trkpt>
      <trkpt lat="47.31479" lon="0.52094">
        <ele>96.8</ele>
        <time>2023-07-18T07:49:02Z</time>
      </trkpt>
      <trkpt lat="47.31473" lon="0.52101">
        <ele>96.8</ele>
        <time>2023-07-18T07:49:03Z</time>
      </trkpt>
      <trkpt lat="47.31468" lon="0.52107">
        <ele>96.8</ele>
        <time>2023-07-18T07:49:04Z</time>
      </trkpt>
      <trkpt lat="47.31462" lon="0.52113">
        <ele>96.8</ele>
        <time>2023-07-18T07:49:05Z</time>
      </trkpt>
      <trkpt lat="47.31456" lon="0.52119">
        <ele>96.8</ele>
        <time>2023-07-18T07:49:06Z</time>
      </trkpt>
      <trkpt lat="47.31451" lon="0.52125">
        <ele>96.8</ele>
        <time>2023-07-18T07:49:07Z</time>
      </trkpt>
      <trkpt lat="47.31445" lon="0.5213">
        <ele>97</ele>
        <time>2023-07-18T07:49:08Z</time>
      </trkpt>
      <trkpt lat="47.3144" lon="0.52136">
        <ele>97</ele>
        <time>2023-07-18T07:49:09Z</time>
      </trkpt>
      <trkpt lat="47.31434" lon="0.52142">
        <ele>97</ele>
        <time>2023-07-18T07:49:10Z</time>
      </trkpt>
      <trkpt lat="47.31429" lon="0.52147">
        <ele>97</ele>
        <time>2023-07-18T07:49:11Z</time>
      </trkpt>
      <trkpt lat="47.31423" lon="0.52153">
        <ele>97</ele>
        <time>2023-07-18T07:49:12Z</time>
      </trkpt>
      <trkpt lat="47.31417" lon="0.52159">
        <ele>96.8</ele>
        <time>2023-07-18T07:49:13Z</time>
      </trkpt>
      <trkpt lat="47.31412" lon="0.52165">
        <ele>96.8</ele>
        <time>2023-07-18T07:49:14Z</time>
      </trkpt>
      <trkpt lat="47.31406" lon="0.5217">
        <ele>96.8</ele>
        <time>2023-07-18T07:49:15Z</time>
      </trkpt>
      <trkpt lat="47.31401" lon="0.52176">
        <ele>96.8</ele>
        <time>2023-07-18T07:49:16Z</time>
      </trkpt>
      <trkpt lat="47.31395" lon="0.52182">
        <ele>96.8</ele>
        <time>2023-07-18T07:49:17Z</time>
      </trkpt>
      <trkpt lat="47.3139" lon="0.52188">
        <ele>96.8</ele>
        <time>2023-07-18T07:49:18Z</time>
      </trkpt>
      <trkpt lat="47.31384" lon="0.52194">
        <ele>96.8</ele>
        <time>2023-07-18T07:49:19Z</time>
      </trkpt>
      <trkpt lat="47.31378" lon="0.522">
        <ele>97</ele>
        <time>2023-07-18T07:49:20Z</time>
      </trkpt>
      <trkpt lat="47.31373" lon="0.52206">
        <ele>97</ele>
        <time>2023-07-18T07:49:21Z</time>
      </trkpt>
      <trkpt lat="47.31367" lon="0.52212">
        <ele>96.8</ele>
        <time>2023-07-18T07:49:22Z</time>
      </trkpt>
      <trkpt lat="47.31362" lon="0.52218">
        <ele>96.8</ele>
        <time>2023-07-18T07:49:23Z</time>
      </trkpt>
      <trkpt lat="47.31357" lon="0.52224">
        <ele>96.8</ele>
        <time>2023-07-18T07:49:24Z</time>
      </trkpt>
      <trkpt lat="47.31353" lon="0.52232">
        <ele>97</ele>
        <time>2023-07-18T07:49:25Z</time>
      </trkpt>
      <trkpt lat="47.3135" lon="0.5224">
        <ele>96.8</ele>
        <time>2023-07-18T07:49:26Z</time>
      </trkpt>
      <trkpt lat="47.31348" lon="0.5225">
        <ele>97</ele>
        <time>2023-07-18T07:49:27Z</time>
      </trkpt>
      <trkpt lat="47.31347" lon="0.52259">
        <ele>97.2</ele>
        <time>2023-07-18T07:49:28Z</time>
      </trkpt>
      <trkpt lat="47.31347" lon="0.52269">
        <ele>97.2</ele>
        <time>2023-07-18T07:49:29Z</time>
      </trkpt>
      <trkpt lat="47.31348" lon="0.5228">
        <ele>97.4</ele>
        <time>2023-07-18T07:49:30Z</time>
      </trkpt>
      <trkpt lat="47.3135" lon="0.52289">
        <ele>97.4</ele>
        <time>2023-07-18T07:49:31Z</time>
      </trkpt>
      <trkpt lat="47.31352" lon="0.52299">
        <ele>97.2</ele>
        <time>2023-07-18T07:49:32Z</time>
      </trkpt>
      <trkpt lat="47.31354" lon="0.52308">
        <ele>97.2</ele>
        <time>2023-07-18T07:49:33Z</time>
      </trkpt>
      <trkpt lat="47.31355" lon="0.52318">
        <ele>97</ele>
        <time>2023-07-18T07:49:34Z</time>
      </trkpt>
      <trkpt lat="47.31356" lon="0.52328">
        <ele>97</ele>
        <time>2023-07-18T07:49:35Z</time>
      </trkpt>
      <trkpt lat="47.31355" lon="0.52338">
        <ele>96.8</ele>
        <time>2023-07-18T07:49:36Z</time>
      </trkpt>
      <trkpt lat="47.31355" lon="0.52349">
        <ele>96.8</ele>
        <time>2023-07-18T07:49:37Z</time>
      </trkpt>
      <trkpt lat="47.31353" lon="0.52359">
        <ele>96.6</ele>
        <time>2023-07-18T07:49:38Z</time>
      </trkpt>
      <trkpt lat="47.31351" lon="0.52369">
        <ele>96.6</ele>
        <time>2023-07-18T07:49:39Z</time>
      </trkpt>
      <trkpt lat="47.31348" lon="0.52377">
        <ele>96.6</ele>
        <time>2023-07-18T07:49:40Z</time>
      </trkpt>
      <trkpt lat="47.31343" lon="0.52386">
        <ele>96.6</ele>
        <time>2023-07-18T07:49:41Z</time>
      </trkpt>
      <trkpt lat="47.31339" lon="0.52394">
        <ele>96.6</ele>
        <time>2023-07-18T07:49:42Z</time>
      </trkpt>
      <trkpt lat="47.31335" lon="0.52402">
        <ele>96.8</ele>
        <time>2023-07-18T07:49:43Z</time>
      </trkpt>
      <trkpt lat="47.31331" lon="0.52411">
        <ele>97</ele>
        <time>2023-07-18T07:49:44Z</time>
      </trkpt>
      <trkpt lat="47.31327" lon="0.52419">
        <ele>97</ele>
        <time>2023-07-18T07:49:45Z</time>
      </trkpt>
      <trkpt lat="47.31323" lon="0.52427">
        <ele>97</ele>
        <time>2023-07-18T07:49:46Z</time>
      </trkpt>
      <trkpt lat="47.31319" lon="0.52436">
        <ele>97.4</ele>
        <time>2023-07-18T07:49:47Z</time>
      </trkpt>
      <trkpt lat="47.31316" lon="0.52444">
        <ele>97.6</ele>
        <time>2023-07-18T07:49:48Z</time>
      </trkpt>
      <trkpt lat="47.31312" lon="0.52453">
        <ele>97.8</ele>
        <time>2023-07-18T07:49:49Z</time>
      </trkpt>
      <trkpt lat="47.3131" lon="0.52463">
        <ele>98</ele>
        <time>2023-07-18T07:49:50Z</time>
      </trkpt>
      <trkpt lat="47.31307" lon="0.52473">
        <ele>98</ele>
        <time>2023-07-18T07:49:51Z</time>
      </trkpt>
      <trkpt lat="47.31305" lon="0.52482">
        <ele>98</ele>
        <time>2023-07-18T07:49:52Z</time>
      </trkpt>
      <trkpt lat="47.31302" lon="0.52492">
        <ele>97.8</ele>
        <time>2023-07-18T07:49:53Z</time>
      </trkpt>
      <trkpt lat="47.313" lon="0.52501">
        <ele>97.8</ele>
        <time>2023-07-18T07:49:54Z</time>
      </trkpt>
      <trkpt lat="47.31298" lon="0.52512">
        <ele>97.6</ele>
        <time>2023-07-18T07:49:55Z</time>
      </trkpt>
      <trkpt lat="47.31295" lon="0.52521">
        <ele>97.4</ele>
        <time>2023-07-18T07:49:56Z</time>
      </trkpt>
      <trkpt lat="47.31293" lon="0.52531">
        <ele>97.4</ele>
        <time>2023-07-18T07:49:57Z</time>
      </trkpt>
      <trkpt lat="47.31291" lon="0.52541">
        <ele>97.2</ele>
        <time>2023-07-18T07:49:58Z</time>
      </trkpt>
      <trkpt lat="47.31289" lon="0.52551">
        <ele>97.4</ele>
        <time>2023-07-18T07:49:59Z</time>
      </trkpt>
      <trkpt lat="47.31286" lon="0.5256">
        <ele>97.6</ele>
        <time>2023-07-18T07:50:00Z</time>
      </trkpt>
      <trkpt lat="47.31284" lon="0.5257">
        <ele>97.6</ele>
        <time>2023-07-18T07:50:01Z</time>
      </trkpt>
      <trkpt lat="47.31282" lon="0.5258">
        <ele>97.8</ele>
        <time>2023-07-18T07:50:02Z</time>
      </trkpt>
      <trkpt lat="47.31279" lon="0.5259">
        <ele>97.8</ele>
        <time>2023-07-18T07:50:03Z</time>
      </trkpt>
      <trkpt lat="47.31277" lon="0.526">
        <ele>98.2</ele>
        <time>2023-07-18T07:50:04Z</time>
      </trkpt>
      <trkpt lat="47.31275" lon="0.5261">
        <ele>98.2</ele>
        <time>2023-07-18T07:50:05Z</time>
      </trkpt>
      <trkpt lat="47.31273" lon="0.5262">
        <ele>98.2</ele>
        <time>2023-07-18T07:50:06Z</time>
      </trkpt>
      <trkpt lat="47.3127" lon="0.5263">
        <ele>98.2</ele>
        <time>2023-07-18T07:50:07Z</time>
      </trkpt>
      <trkpt lat="47.31266" lon="0.52639">
        <ele>98.2</ele>
        <time>2023-07-18T07:50:08Z</time>
      </trkpt>
      <trkpt lat="47.31264" lon="0.52649">
        <ele>98.2</ele>
        <time>2023-07-18T07:50:09Z</time>
      </trkpt>
      <trkpt lat="47.31261" lon="0.52659">
        <ele>98.2</ele>
        <time>2023-07-18T07:50:10Z</time>
      </trkpt>
      <trkpt lat="47.31258" lon="0.52669">
        <ele>98.2</ele>
        <time>2023-07-18T07:50:11Z</time>
      </trkpt>
      <trkpt lat="47.31256" lon="0.52679">
        <ele>98.2</ele>
        <time>2023-07-18T07:50:12Z</time>
      </trkpt>
      <trkpt lat="47.31253" lon="0.52689">
        <ele>98.2</ele>
        <time>2023-07-18T07:50:13Z</time>
      </trkpt>
      <trkpt lat="47.3125" lon="0.52699">
        <ele>98.2</ele>
        <time>2023-07-18T07:50:14Z</time>
      </trkpt>
      <trkpt lat="47.31247" lon="0.52709">
        <ele>98</ele>
        <time>2023-07-18T07:50:15Z</time>
      </trkpt>
      <trkpt lat="47.31244" lon="0.52719">
        <ele>98</ele>
        <time>2023-07-18T07:50:16Z</time>
      </trkpt>
      <trkpt lat="47.31241" lon="0.52729">
        <ele>98</ele>
        <time>2023-07-18T07:50:17Z</time>
      </trkpt>
      <trkpt lat="47.31238" lon="0.52738">
        <ele>98.2</ele>
        <time>2023-07-18T07:50:18Z</time>
      </trkpt>
      <trkpt lat="47.31235" lon="0.52748">
        <ele>98.4</ele>
        <time>2023-07-18T07:50:19Z</time>
      </trkpt>
      <trkpt lat="47.31232" lon="0.52758">
        <ele>98.6</ele>
        <time>2023-07-18T07:50:20Z</time>
      </trkpt>
      <trkpt lat="47.31228" lon="0.52768">
        <ele>99</ele>
        <time>2023-07-18T07:50:21Z</time>
      </trkpt>
      <trkpt lat="47.31225" lon="0.52776">
        <ele>99</ele>
        <time>2023-07-18T07:50:22Z</time>
      </trkpt>
      <trkpt lat="47.31222" lon="0.52786">
        <ele>99</ele>
        <time>2023-07-18T07:50:23Z</time>
      </trkpt>
      <trkpt lat="47.31219" lon="0.52795">
        <ele>98.8</ele>
        <time>2023-07-18T07:50:24Z</time>
      </trkpt>
      <trkpt lat="47.31216" lon="0.52804">
        <ele>98.8</ele>
        <time>2023-07-18T07:50:25Z</time>
      </trkpt>
      <trkpt lat="47.31212" lon="0.52813">
        <ele>99</ele>
        <time>2023-07-18T07:50:26Z</time>
      </trkpt>
      <trkpt lat="47.31209" lon="0.52822">
        <ele>99.2</ele>
        <time>2023-07-18T07:50:27Z</time>
      </trkpt>
      <trkpt lat="47.31206" lon="0.52831">
        <ele>99</ele>
        <time>2023-07-18T07:50:28Z</time>
      </trkpt>
      <trkpt lat="47.31203" lon="0.5284">
        <ele>98.8</ele>
        <time>2023-07-18T07:50:29Z</time>
      </trkpt>
      <trkpt lat="47.31199" lon="0.52849">
        <ele>98.8</ele>
        <time>2023-07-18T07:50:30Z</time>
      </trkpt>
      <trkpt lat="47.31196" lon="0.52857">
        <ele>98.8</ele>
        <time>2023-07-18T07:50:31Z</time>
      </trkpt>
      <trkpt lat="47.31193" lon="0.52866">
        <ele>98.8</ele>
        <time>2023-07-18T07:50:32Z</time>
      </trkpt>
      <trkpt lat="47.3119" lon="0.52875">
        <ele>99</ele>
        <time>2023-07-18T07:50:33Z</time>
      </trkpt>
      <trkpt lat="47.31187" lon="0.52883">
        <ele>98.8</ele>
        <time>2023-07-18T07:50:34Z</time>
      </trkpt>
      <trkpt lat="47.31183" lon="0.52892">
        <ele>98.8</ele>
        <time>2023-07-18T07:50:35Z</time>
      </trkpt>
      <trkpt lat="47.3118" lon="0.52901">
        <ele>98.8</ele>
        <time>2023-07-18T07:50:36Z</time>
      </trkpt>
      <trkpt lat="47.31177" lon="0.52909">
        <ele>98.8</ele>
        <time>2023-07-18T07:50:37Z</time>
      </trkpt>
      <trkpt lat="47.31174" lon="0.52918">
        <ele>98.8</ele>
        <time>2023-07-18T07:50:38Z</time>
      </trkpt>
      <trkpt lat="47.31171" lon="0.52927">
        <ele>98.8</ele>
        <time>2023-07-18T07:50:39Z</time>
      </trkpt>
      <trkpt lat="47.31168" lon="0.52936">
        <ele>98.8</ele>
        <time>2023-07-18T07:50:40Z</time>
      </trkpt>
      <trkpt lat="47.31165" lon="0.52945">
        <ele>99</ele>
        <time>2023-07-18T07:50:41Z</time>
      </trkpt>
      <trkpt lat="47.31161" lon="0.52954">
        <ele>99.2</ele>
        <time>2023-07-18T07:50:42Z</time>
      </trkpt>
      <trkpt lat="47.31159" lon="0.52964">
        <ele>99.2</ele>
        <time>2023-07-18T07:50:43Z</time>
      </trkpt>
      <trkpt lat="47.31156" lon="0.52973">
        <ele>99.2</ele>
        <time>2023-07-18T07:50:44Z</time>
      </trkpt>
      <trkpt lat="47.31153" lon="0.52982">
        <ele>99.2</ele>
        <time>2023-07-18T07:50:45Z</time>
      </trkpt>
      <trkpt lat="47.31151" lon="0.52992">
        <ele>99.2</ele>
        <time>2023-07-18T07:50:46Z</time>
      </trkpt>
      <trkpt lat="47.31148" lon="0.53001">
        <ele>99.4</ele>
        <time>2023-07-18T07:50:47Z</time>
      </trkpt>
      <trkpt lat="47.31146" lon="0.5301">
        <ele>99.4</ele>
        <time>2023-07-18T07:50:48Z</time>
      </trkpt>
      <trkpt lat="47.31144" lon="0.53019">
        <ele>99.4</ele>
        <time>2023-07-18T07:50:49Z</time>
      </trkpt>
      <trkpt lat="47.31142" lon="0.53029">
        <ele>99.4</ele>
        <time>2023-07-18T07:50:50Z</time>
      </trkpt>
      <trkpt lat="47.31141" lon="0.53038">
        <ele>99.6</ele>
        <time>2023-07-18T07:50:51Z</time>
      </trkpt>
      <trkpt lat="47.3114" lon="0.53047">
        <ele>99.6</ele>
        <time>2023-07-18T07:50:52Z</time>
      </trkpt>
      <trkpt lat="47.3114" lon="0.53057">
        <ele>99.6</ele>
        <time>2023-07-18T07:50:53Z</time>
      </trkpt>
      <trkpt lat="47.3114" lon="0.53066">
        <ele>99.6</ele>
        <time>2023-07-18T07:50:54Z</time>
      </trkpt>
      <trkpt lat="47.31141" lon="0.53075">
        <ele>99.6</ele>
        <time>2023-07-18T07:50:55Z</time>
      </trkpt>
      <trkpt lat="47.31142" lon="0.53085">
        <ele>99.8</ele>
        <time>2023-07-18T07:50:56Z</time>
      </trkpt>
      <trkpt lat="47.31143" lon="0.53093">
        <ele>99.6</ele>
        <time>2023-07-18T07:50:57Z</time>
      </trkpt>
      <trkpt lat="47.31144" lon="0.53103">
        <ele>99.6</ele>
        <time>2023-07-18T07:50:58Z</time>
      </trkpt>
      <trkpt lat="47.31145" lon="0.53111">
        <ele>99.6</ele>
        <time>2023-07-18T07:50:59Z</time>
      </trkpt>
      <trkpt lat="47.31146" lon="0.53121">
        <ele>99.6</ele>
        <time>2023-07-18T07:51:00Z</time>
      </trkpt>
      <trkpt lat="47.31147" lon="0.5313">
        <ele>99.6</ele>
        <time>2023-07-18T07:51:01Z</time>
      </trkpt>
      <trkpt lat="47.31149" lon="0.53139">
        <ele>99.8</ele>
        <time>2023-07-18T07:51:02Z</time>
      </trkpt>
      <trkpt lat="47.3115" lon="0.53147">
        <ele>99.6</ele>
        <time>2023-07-18T07:51:03Z</time>
      </trkpt>
      <trkpt lat="47.31152" lon="0.53155">
        <ele>99.6</ele>
        <time>2023-07-18T07:51:04Z</time>
      </trkpt>
      <trkpt lat="47.31153" lon="0.53165">
        <ele>99.6</ele>
        <time>2023-07-18T07:51:05Z</time>
      </trkpt>
      <trkpt lat="47.31155" lon="0.53173">
        <ele>99.8</ele>
        <time>2023-07-18T07:51:06Z</time>
      </trkpt>
      <trkpt lat="47.31156" lon="0.53182">
        <ele>100</ele>
        <time>2023-07-18T07:51:07Z</time>
      </trkpt>
      <trkpt lat="47.31157" lon="0.53192">
        <ele>100</ele>
        <time>2023-07-18T07:51:08Z</time>
      </trkpt>
      <trkpt lat="47.31158" lon="0.532">
        <ele>100.2</ele>
        <time>2023-07-18T07:51:09Z</time>
      </trkpt>
      <trkpt lat="47.3116" lon="0.53209">
        <ele>100</ele>
        <time>2023-07-18T07:51:10Z</time>
      </trkpt>
      <trkpt lat="47.31161" lon="0.53216">
        <ele>100.2</ele>
        <time>2023-07-18T07:51:11Z</time>
      </trkpt>
      <trkpt lat="47.31162" lon="0.53227">
        <ele>100.2</ele>
        <time>2023-07-18T07:51:12Z</time>
      </trkpt>
      <trkpt lat="47.31164" lon="0.53235">
        <ele>100.2</ele>
        <time>2023-07-18T07:51:13Z</time>
      </trkpt>
      <trkpt lat="47.31165" lon="0.53244">
        <ele>100.4</ele>
        <time>2023-07-18T07:51:14Z</time>
      </trkpt>
      <trkpt lat="47.31166" lon="0.53253">
        <ele>100.4</ele>
        <time>2023-07-18T07:51:15Z</time>
      </trkpt>
      <trkpt lat="47.31167" lon="0.53262">
        <ele>100.4</ele>
        <time>2023-07-18T07:51:16Z</time>
      </trkpt>
      <trkpt lat="47.31168" lon="0.53271">
        <ele>100.6</ele>
        <time>2023-07-18T07:51:17Z</time>
      </trkpt>
      <trkpt lat="47.3117" lon="0.53279">
        <ele>100.8</ele>
        <time>2023-07-18T07:51:18Z</time>
      </trkpt>
      <trkpt lat="47.31171" lon="0.53288">
        <ele>100.8</ele>
        <time>2023-07-18T07:51:19Z</time>
      </trkpt>
      <trkpt lat="47.31172" lon="0.53297">
        <ele>100.8</ele>
        <time>2023-07-18T07:51:20Z</time>
      </trkpt>
      <trkpt lat="47.31173" lon="0.53306">
        <ele>101</ele>
        <time>2023-07-18T07:51:21Z</time>
      </trkpt>
      <trkpt lat="47.31174" lon="0.53315">
        <ele>101.2</ele>
        <time>2023-07-18T07:51:22Z</time>
      </trkpt>
      <trkpt lat="47.31174" lon="0.53324">
        <ele>101.4</ele>
        <time>2023-07-18T07:51:23Z</time>
      </trkpt>
      <trkpt lat="47.31174" lon="0.53333">
        <ele>101.6</ele>
        <time>2023-07-18T07:51:24Z</time>
      </trkpt>
      <trkpt lat="47.31173" lon="0.53341">
        <ele>101.6</ele>
        <time>2023-07-18T07:51:25Z</time>
      </trkpt>
      <trkpt lat="47.31171" lon="0.5335">
        <ele>101.6</ele>
        <time>2023-07-18T07:51:26Z</time>
      </trkpt>
      <trkpt lat="47.31168" lon="0.53358">
        <ele>101.4</ele>
        <time>2023-07-18T07:51:27Z</time>
      </trkpt>
      <trkpt lat="47.31166" lon="0.53367">
        <ele>101.4</ele>
        <time>2023-07-18T07:51:28Z</time>
      </trkpt>
      <trkpt lat="47.31163" lon="0.53375">
        <ele>101.6</ele>
        <time>2023-07-18T07:51:29Z</time>
      </trkpt>
      <trkpt lat="47.3116" lon="0.53384">
        <ele>101.6</ele>
        <time>2023-07-18T07:51:30Z</time>
      </trkpt>
      <trkpt lat="47.31157" lon="0.53393">
        <ele>101.6</ele>
        <time>2023-07-18T07:51:31Z</time>
      </trkpt>
      <trkpt lat="47.31154" lon="0.53401">
        <ele>101.8</ele>
        <time>2023-07-18T07:51:32Z</time>
      </trkpt>
      <trkpt lat="47.31151" lon="0.53409">
        <ele>101.6</ele>
        <time>2023-07-18T07:51:33Z</time>
      </trkpt>
      <trkpt lat="47.31148" lon="0.53418">
        <ele>101.8</ele>
        <time>2023-07-18T07:51:34Z</time>
      </trkpt>
      <trkpt lat="47.31145" lon="0.53425">
        <ele>101.6</ele>
        <time>2023-07-18T07:51:35Z</time>
      </trkpt>
      <trkpt lat="47.31142" lon="0.53433">
        <ele>101.6</ele>
        <time>2023-07-18T07:51:36Z</time>
      </trkpt>
      <trkpt lat="47.31139" lon="0.53441">
        <ele>101.6</ele>
        <time>2023-07-18T07:51:37Z</time>
      </trkpt>
      <trkpt lat="47.31136" lon="0.53448">
        <ele>101.6</ele>
        <time>2023-07-18T07:51:38Z</time>
      </trkpt>
      <trkpt lat="47.31133" lon="0.53456">
        <ele>101.6</ele>
        <time>2023-07-18T07:51:39Z</time>
      </trkpt>
      <trkpt lat="47.31129" lon="0.53464">
        <ele>101.6</ele>
        <time>2023-07-18T07:51:40Z</time>
      </trkpt>
      <trkpt lat="47.31126" lon="0.53472">
        <ele>101.6</ele>
        <time>2023-07-18T07:51:41Z</time>
      </trkpt>
      <trkpt lat="47.31123" lon="0.5348">
        <ele>101.6</ele>
        <time>2023-07-18T07:51:42Z</time>
      </trkpt>
      <trkpt lat="47.31119" lon="0.53488">
        <ele>101.8</ele>
        <time>2023-07-18T07:51:43Z</time>
      </trkpt>
      <trkpt lat="47.31116" lon="0.53496">
        <ele>101.8</ele>
        <time>2023-07-18T07:51:44Z</time>
      </trkpt>
      <trkpt lat="47.31113" lon="0.53504">
        <ele>101.8</ele>
        <time>2023-07-18T07:51:45Z</time>
      </trkpt>
      <trkpt lat="47.3111" lon="0.53512">
        <ele>101.6</ele>
        <time>2023-07-18T07:51:46Z</time>
      </trkpt>
      <trkpt lat="47.31107" lon="0.5352">
        <ele>101.6</ele>
        <time>2023-07-18T07:51:47Z</time>
      </trkpt>
      <trkpt lat="47.31104" lon="0.53527">
        <ele>101.6</ele>
        <time>2023-07-18T07:51:48Z</time>
      </trkpt>
      <trkpt lat="47.31102" lon="0.53533">
        <ele>101.4</ele>
        <time>2023-07-18T07:51:49Z</time>
      </trkpt>
      <trkpt lat="47.31098" lon="0.53542">
        <ele>101.4</ele>
        <time>2023-07-18T07:51:50Z</time>
      </trkpt>
      <trkpt lat="47.31095" lon="0.53549">
        <ele>101.4</ele>
        <time>2023-07-18T07:51:51Z</time>
      </trkpt>
      <trkpt lat="47.31093" lon="0.53556">
        <ele>101.4</ele>
        <time>2023-07-18T07:51:52Z</time>
      </trkpt>
      <trkpt lat="47.3109" lon="0.53563">
        <ele>101.4</ele>
        <time>2023-07-18T07:51:53Z</time>
      </trkpt>
      <trkpt lat="47.31087" lon="0.5357">
        <ele>101.6</ele>
        <time>2023-07-18T07:51:54Z</time>
      </trkpt>
      <trkpt lat="47.31084" lon="0.53578">
        <ele>102</ele>
        <time>2023-07-18T07:51:55Z</time>
      </trkpt>
      <trkpt lat="47.31082" lon="0.53585">
        <ele>102</ele>
        <time>2023-07-18T07:51:56Z</time>
      </trkpt>
      <trkpt lat="47.31079" lon="0.53593">
        <ele>102.2</ele>
        <time>2023-07-18T07:51:57Z</time>
      </trkpt>
      <trkpt lat="47.31076" lon="0.536">
        <ele>102.4</ele>
        <time>2023-07-18T07:51:58Z</time>
      </trkpt>
      <trkpt lat="47.31073" lon="0.53607">
        <ele>102.2</ele>
        <time>2023-07-18T07:51:59Z</time>
      </trkpt>
      <trkpt lat="47.3107" lon="0.53615">
        <ele>102.2</ele>
        <time>2023-07-18T07:52:00Z</time>
      </trkpt>
      <trkpt lat="47.31068" lon="0.53621">
        <ele>102.2</ele>
        <time>2023-07-18T07:52:01Z</time>
      </trkpt>
      <trkpt lat="47.31065" lon="0.53628">
        <ele>102.4</ele>
        <time>2023-07-18T07:52:02Z</time>
      </trkpt>
      <trkpt lat="47.31062" lon="0.53636">
        <ele>102.4</ele>
        <time>2023-07-18T07:52:03Z</time>
      </trkpt>
      <trkpt lat="47.3106" lon="0.53642">
        <ele>102.4</ele>
        <time>2023-07-18T07:52:04Z</time>
      </trkpt>
      <trkpt lat="47.31057" lon="0.53649">
        <ele>102.6</ele>
        <time>2023-07-18T07:52:05Z</time>
      </trkpt>
      <trkpt lat="47.31055" lon="0.53655">
        <ele>102.6</ele>
        <time>2023-07-18T07:52:06Z</time>
      </trkpt>
      <trkpt lat="47.31052" lon="0.53662">
        <ele>102.4</ele>
        <time>2023-07-18T07:52:07Z</time>
      </trkpt>
      <trkpt lat="47.31049" lon="0.53668">
        <ele>102.4</ele>
        <time>2023-07-18T07:52:08Z</time>
      </trkpt>
      <trkpt lat="47.31046" lon="0.53675">
        <ele>102.4</ele>
        <time>2023-07-18T07:52:09Z</time>
      </trkpt>
      <trkpt lat="47.31043" lon="0.53682">
        <ele>102.2</ele>
        <time>2023-07-18T07:52:10Z</time>
      </trkpt>
      <trkpt lat="47.3104" lon="0.53689">
        <ele>102.2</ele>
        <time>2023-07-18T07:52:11Z</time>
      </trkpt>
      <trkpt lat="47.31037" lon="0.53695">
        <ele>102.2</ele>
        <time>2023-07-18T07:52:12Z</time>
      </trkpt>
      <trkpt lat="47.31034" lon="0.53702">
        <ele>102.2</ele>
        <time>2023-07-18T07:52:13Z</time>
      </trkpt>
      <trkpt lat="47.31031" lon="0.53708">
        <ele>102</ele>
        <time>2023-07-18T07:52:14Z</time>
      </trkpt>
      <trkpt lat="47.31028" lon="0.53715">
        <ele>102</ele>
        <time>2023-07-18T07:52:15Z</time>
      </trkpt>
      <trkpt lat="47.31025" lon="0.53721">
        <ele>102</ele>
        <time>2023-07-18T07:52:16Z</time>
      </trkpt>
      <trkpt lat="47.31023" lon="0.53727">
        <ele>102.2</ele>
        <time>2023-07-18T07:52:17Z</time>
      </trkpt>
      <trkpt lat="47.31019" lon="0.53732">
        <ele>102</ele>
        <time>2023-07-18T07:52:18Z</time>
      </trkpt>
      <trkpt lat="47.31015" lon="0.53735">
        <ele>101.8</ele>
        <time>2023-07-18T07:52:19Z</time>
      </trkpt>
      <trkpt lat="47.31011" lon="0.53735">
        <ele>101.8</ele>
        <time>2023-07-18T07:52:20Z</time>
      </trkpt>
      <trkpt lat="47.31006" lon="0.53735">
        <ele>101.8</ele>
        <time>2023-07-18T07:52:21Z</time>
      </trkpt>
      <trkpt lat="47.31002" lon="0.53734">
        <ele>101.8</ele>
        <time>2023-07-18T07:52:22Z</time>
      </trkpt>
      <trkpt lat="47.30997" lon="0.53732">
        <ele>101.8</ele>
        <time>2023-07-18T07:52:23Z</time>
      </trkpt>
      <trkpt lat="47.30992" lon="0.53731">
        <ele>101.8</ele>
        <time>2023-07-18T07:52:24Z</time>
      </trkpt>
      <trkpt lat="47.30988" lon="0.5373">
        <ele>102</ele>
        <time>2023-07-18T07:52:25Z</time>
      </trkpt>
      <trkpt lat="47.30983" lon="0.53731">
        <ele>102</ele>
        <time>2023-07-18T07:52:26Z</time>
      </trkpt>
      <trkpt lat="47.30978" lon="0.53733">
        <ele>102.2</ele>
        <time>2023-07-18T07:52:27Z</time>
      </trkpt>
      <trkpt lat="47.30975" lon="0.53737">
        <ele>102.4</ele>
        <time>2023-07-18T07:52:28Z</time>
      </trkpt>
      <trkpt lat="47.30972" lon="0.53743">
        <ele>102.4</ele>
        <time>2023-07-18T07:52:29Z</time>
      </trkpt>
      <trkpt lat="47.3097" lon="0.5375">
        <ele>102.6</ele>
        <time>2023-07-18T07:52:30Z</time>
      </trkpt>
      <trkpt lat="47.30968" lon="0.53757">
        <ele>102.6</ele>
        <time>2023-07-18T07:52:31Z</time>
      </trkpt>
      <trkpt lat="47.30967" lon="0.53763">
        <ele>102.6</ele>
        <time>2023-07-18T07:52:32Z</time>
      </trkpt>
      <trkpt lat="47.30963" lon="0.53769">
        <ele>102.6</ele>
        <time>2023-07-18T07:52:33Z</time>
      </trkpt>
      <trkpt lat="47.30959" lon="0.53773">
        <ele>102.6</ele>
        <time>2023-07-18T07:52:34Z</time>
      </trkpt>
      <trkpt lat="47.30954" lon="0.53777">
        <ele>102.4</ele>
        <time>2023-07-18T07:52:35Z</time>
      </trkpt>
      <trkpt lat="47.30948" lon="0.53779">
        <ele>102.2</ele>
        <time>2023-07-18T07:52:36Z</time>
      </trkpt>
      <trkpt lat="47.30941" lon="0.53781">
        <ele>102</ele>
        <time>2023-07-18T07:52:37Z</time>
      </trkpt>
      <trkpt lat="47.30935" lon="0.53782">
        <ele>101.8</ele>
        <time>2023-07-18T07:52:38Z</time>
      </trkpt>
      <trkpt lat="47.30928" lon="0.5378">
        <ele>101.6</ele>
        <time>2023-07-18T07:52:39Z</time>
      </trkpt>
      <trkpt lat="47.30922" lon="0.53776">
        <ele>101.6</ele>
        <time>2023-07-18T07:52:40Z</time>
      </trkpt>
      <trkpt lat="47.30917" lon="0.53772">
        <ele>101.6</ele>
        <time>2023-07-18T07:52:41Z</time>
      </trkpt>
      <trkpt lat="47.30911" lon="0.53767">
        <ele>101.6</ele>
        <time>2023-07-18T07:52:42Z</time>
      </trkpt>
      <trkpt lat="47.30906" lon="0.53762">
        <ele>101.6</ele>
        <time>2023-07-18T07:52:43Z</time>
      </trkpt>
      <trkpt lat="47.309" lon="0.53757">
        <ele>101.4</ele>
        <time>2023-07-18T07:52:44Z</time>
      </trkpt>
      <trkpt lat="47.30895" lon="0.53752">
        <ele>101.4</ele>
        <time>2023-07-18T07:52:45Z</time>
      </trkpt>
      <trkpt lat="47.30888" lon="0.53747">
        <ele>101.2</ele>
        <time>2023-07-18T07:52:46Z</time>
      </trkpt>
      <trkpt lat="47.30883" lon="0.53743">
        <ele>101.2</ele>
        <time>2023-07-18T07:52:47Z</time>
      </trkpt>
      <trkpt lat="47.30876" lon="0.5374">
        <ele>101.2</ele>
        <time>2023-07-18T07:52:48Z</time>
      </trkpt>
      <trkpt lat="47.3087" lon="0.53737">
        <ele>101.2</ele>
        <time>2023-07-18T07:52:49Z</time>
      </trkpt>
      <trkpt lat="47.30864" lon="0.53734">
        <ele>101.2</ele>
        <time>2023-07-18T07:52:50Z</time>
      </trkpt>
      <trkpt lat="47.30857" lon="0.53732">
        <ele>101.2</ele>
        <time>2023-07-18T07:52:51Z</time>
      </trkpt>
      <trkpt lat="47.30851" lon="0.5373">
        <ele>101.2</ele>
        <time>2023-07-18T07:52:52Z</time>
      </trkpt>
      <trkpt lat="47.30845" lon="0.53728">
        <ele>101.2</ele>
        <time>2023-07-18T07:52:53Z</time>
      </trkpt>
      <trkpt lat="47.30839" lon="0.53726">
        <ele>101.2</ele>
        <time>2023-07-18T07:52:54Z</time>
      </trkpt>
      <trkpt lat="47.30833" lon="0.53725">
        <ele>101.2</ele>
        <time>2023-07-18T07:52:55Z</time>
      </trkpt>
      <trkpt lat="47.30829" lon="0.53725">
        <ele>101.2</ele>
        <time>2023-07-18T07:52:56Z</time>
      </trkpt>
      <trkpt lat="47.30824" lon="0.53725">
        <ele>101.2</ele>
        <time>2023-07-18T07:52:57Z</time>
      </trkpt>
      <trkpt lat="47.30817" lon="0.53724">
        <ele>101.2</ele>
        <time>2023-07-18T07:52:58Z</time>
      </trkpt>
      <trkpt lat="47.30812" lon="0.53724">
        <ele>101.2</ele>
        <time>2023-07-18T07:52:59Z</time>
      </trkpt>
      <trkpt lat="47.30806" lon="0.53724">
        <ele>101.2</ele>
        <time>2023-07-18T07:53:00Z</time>
      </trkpt>
      <trkpt lat="47.30801" lon="0.53725">
        <ele>101.2</ele>
        <time>2023-07-18T07:53:01Z</time>
      </trkpt>
      <trkpt lat="47.30795" lon="0.53727">
        <ele>101.4</ele>
        <time>2023-07-18T07:53:02Z</time>
      </trkpt>
      <trkpt lat="47.3079" lon="0.53729">
        <ele>101.4</ele>
        <time>2023-07-18T07:53:03Z</time>
      </trkpt>
      <trkpt lat="47.30784" lon="0.53732">
        <ele>101.4</ele>
        <time>2023-07-18T07:53:04Z</time>
      </trkpt>
      <trkpt lat="47.30779" lon="0.53735">
        <ele>101.4</ele>
        <time>2023-07-18T07:53:05Z</time>
      </trkpt>
      <trkpt lat="47.30775" lon="0.53738">
        <ele>101.6</ele>
        <time>2023-07-18T07:53:06Z</time>
      </trkpt>
      <trkpt lat="47.30769" lon="0.53741">
        <ele>101.6</ele>
        <time>2023-07-18T07:53:07Z</time>
      </trkpt>
      <trkpt lat="47.30764" lon="0.53744">
        <ele>101.6</ele>
        <time>2023-07-18T07:53:08Z</time>
      </trkpt>
      <trkpt lat="47.30759" lon="0.53746">
        <ele>101.8</ele>
        <time>2023-07-18T07:53:09Z</time>
      </trkpt>
      <trkpt lat="47.30754" lon="0.53748">
        <ele>102</ele>
        <time>2023-07-18T07:53:10Z</time>
      </trkpt>
      <trkpt lat="47.30748" lon="0.53748">
        <ele>102</ele>
        <time>2023-07-18T07:53:11Z</time>
      </trkpt>
      <trkpt lat="47.30743" lon="0.53748">
        <ele>102.2</ele>
        <time>2023-07-18T07:53:12Z</time>
      </trkpt>
      <trkpt lat="47.30738" lon="0.53747">
        <ele>102.2</ele>
        <time>2023-07-18T07:53:13Z</time>
      </trkpt>
      <trkpt lat="47.30732" lon="0.53746">
        <ele>102.4</ele>
        <time>2023-07-18T07:53:14Z</time>
      </trkpt>
      <trkpt lat="47.30727" lon="0.53745">
        <ele>102.4</ele>
        <time>2023-07-18T07:53:15Z</time>
      </trkpt>
      <trkpt lat="47.30722" lon="0.53744">
        <ele>102.6</ele>
        <time>2023-07-18T07:53:16Z</time>
      </trkpt>
      <trkpt lat="47.30716" lon="0.53742">
        <ele>102.6</ele>
        <time>2023-07-18T07:53:17Z</time>
      </trkpt>
      <trkpt lat="47.30711" lon="0.53741">
        <ele>102.8</ele>
        <time>2023-07-18T07:53:18Z</time>
      </trkpt>
      <trkpt lat="47.30706" lon="0.5374">
        <ele>102.8</ele>
        <time>2023-07-18T07:53:19Z</time>
      </trkpt>
      <trkpt lat="47.30701" lon="0.53739">
        <ele>102.8</ele>
        <time>2023-07-18T07:53:20Z</time>
      </trkpt>
      <trkpt lat="47.30695" lon="0.53738">
        <ele>102.8</ele>
        <time>2023-07-18T07:53:21Z</time>
      </trkpt>
      <trkpt lat="47.3069" lon="0.53736">
        <ele>102.8</ele>
        <time>2023-07-18T07:53:22Z</time>
      </trkpt>
      <trkpt lat="47.30685" lon="0.53733">
        <ele>102.8</ele>
        <time>2023-07-18T07:53:23Z</time>
      </trkpt>
      <trkpt lat="47.30679" lon="0.53731">
        <ele>102.8</ele>
        <time>2023-07-18T07:53:24Z</time>
      </trkpt>
      <trkpt lat="47.30673" lon="0.53729">
        <ele>102.8</ele>
        <time>2023-07-18T07:53:25Z</time>
      </trkpt>
      <trkpt lat="47.30667" lon="0.53726">
        <ele>102.8</ele>
        <time>2023-07-18T07:53:26Z</time>
      </trkpt>
      <trkpt lat="47.30661" lon="0.53724">
        <ele>102.8</ele>
        <time>2023-07-18T07:53:27Z</time>
      </trkpt>
      <trkpt lat="47.30655" lon="0.53722">
        <ele>102.8</ele>
        <time>2023-07-18T07:53:28Z</time>
      </trkpt>
      <trkpt lat="47.30649" lon="0.5372">
        <ele>103</ele>
        <time>2023-07-18T07:53:29Z</time>
      </trkpt>
      <trkpt lat="47.30643" lon="0.53718">
        <ele>103.2</ele>
        <time>2023-07-18T07:53:30Z</time>
      </trkpt>
      <trkpt lat="47.30637" lon="0.53715">
        <ele>103</ele>
        <time>2023-07-18T07:53:31Z</time>
      </trkpt>
      <trkpt lat="47.30631" lon="0.53713">
        <ele>103</ele>
        <time>2023-07-18T07:53:32Z</time>
      </trkpt>
      <trkpt lat="47.30625" lon="0.53711">
        <ele>103</ele>
        <time>2023-07-18T07:53:33Z</time>
      </trkpt>
      <trkpt lat="47.30619" lon="0.53709">
        <ele>102.8</ele>
        <time>2023-07-18T07:53:34Z</time>
      </trkpt>
      <trkpt lat="47.30613" lon="0.53706">
        <ele>102.8</ele>
        <time>2023-07-18T07:53:35Z</time>
      </trkpt>
      <trkpt lat="47.30606" lon="0.53704">
        <ele>102.8</ele>
        <time>2023-07-18T07:53:36Z</time>
      </trkpt>
      <trkpt lat="47.306" lon="0.53702">
        <ele>102.6</ele>
        <time>2023-07-18T07:53:37Z</time>
      </trkpt>
      <trkpt lat="47.30594" lon="0.537">
        <ele>102.6</ele>
        <time>2023-07-18T07:53:38Z</time>
      </trkpt>
      <trkpt lat="47.30587" lon="0.53697">
        <ele>102.4</ele>
        <time>2023-07-18T07:53:39Z</time>
      </trkpt>
      <trkpt lat="47.30581" lon="0.53695">
        <ele>102.2</ele>
        <time>2023-07-18T07:53:40Z</time>
      </trkpt>
      <trkpt lat="47.30575" lon="0.53693">
        <ele>102.2</ele>
        <time>2023-07-18T07:53:41Z</time>
      </trkpt>
      <trkpt lat="47.30569" lon="0.53691">
        <ele>102</ele>
        <time>2023-07-18T07:53:42Z</time>
      </trkpt>
      <trkpt lat="47.30563" lon="0.53689">
        <ele>102.2</ele>
        <time>2023-07-18T07:53:43Z</time>
      </trkpt>
      <trkpt lat="47.30556" lon="0.53687">
        <ele>102.2</ele>
        <time>2023-07-18T07:53:44Z</time>
      </trkpt>
      <trkpt lat="47.3055" lon="0.53686">
        <ele>102.2</ele>
        <time>2023-07-18T07:53:45Z</time>
      </trkpt>
      <trkpt lat="47.30543" lon="0.53683">
        <ele>102</ele>
        <time>2023-07-18T07:53:46Z</time>
      </trkpt>
      <trkpt lat="47.30537" lon="0.53681">
        <ele>102</ele>
        <time>2023-07-18T07:53:47Z</time>
      </trkpt>
      <trkpt lat="47.3053" lon="0.5368">
        <ele>101.8</ele>
        <time>2023-07-18T07:53:48Z</time>
      </trkpt>
      <trkpt lat="47.30524" lon="0.53677">
        <ele>101.8</ele>
        <time>2023-07-18T07:53:49Z</time>
      </trkpt>
      <trkpt lat="47.30517" lon="0.53675">
        <ele>101.6</ele>
        <time>2023-07-18T07:53:50Z</time>
      </trkpt>
      <trkpt lat="47.3051" lon="0.53673">
        <ele>101.8</ele>
        <time>2023-07-18T07:53:51Z</time>
      </trkpt>
      <trkpt lat="47.30504" lon="0.5367">
        <ele>101.8</ele>
        <time>2023-07-18T07:53:52Z</time>
      </trkpt>
      <trkpt lat="47.30497" lon="0.53668">
        <ele>101.8</ele>
        <time>2023-07-18T07:53:53Z</time>
      </trkpt>
      <trkpt lat="47.30491" lon="0.53666">
        <ele>101.8</ele>
        <time>2023-07-18T07:53:54Z</time>
      </trkpt>
      <trkpt lat="47.30486" lon="0.53664">
        <ele>101.8</ele>
        <time>2023-07-18T07:53:55Z</time>
      </trkpt>
      <trkpt lat="47.30478" lon="0.53661">
        <ele>101.6</ele>
        <time>2023-07-18T07:53:56Z</time>
      </trkpt>
      <trkpt lat="47.30471" lon="0.53659">
        <ele>101.6</ele>
        <time>2023-07-18T07:53:57Z</time>
      </trkpt>
      <trkpt lat="47.30465" lon="0.53656">
        <ele>101.6</ele>
        <time>2023-07-18T07:53:58Z</time>
      </trkpt>
      <trkpt lat="47.30458" lon="0.53654">
        <ele>101.4</ele>
        <time>2023-07-18T07:53:59Z</time>
      </trkpt>
      <trkpt lat="47.30451" lon="0.53652">
        <ele>101.4</ele>
        <time>2023-07-18T07:54:00Z</time>
      </trkpt>
      <trkpt lat="47.30445" lon="0.5365">
        <ele>101.4</ele>
        <time>2023-07-18T07:54:01Z</time>
      </trkpt>
      <trkpt lat="47.30438" lon="0.53647">
        <ele>101.2</ele>
        <time>2023-07-18T07:54:02Z</time>
      </trkpt>
      <trkpt lat="47.30432" lon="0.53646">
        <ele>101.2</ele>
        <time>2023-07-18T07:54:03Z</time>
      </trkpt>
      <trkpt lat="47.30424" lon="0.53643">
        <ele>101.2</ele>
        <time>2023-07-18T07:54:04Z</time>
      </trkpt>
      <trkpt lat="47.30418" lon="0.5364">
        <ele>101.4</ele>
        <time>2023-07-18T07:54:05Z</time>
      </trkpt>
      <trkpt lat="47.30411" lon="0.53638">
        <ele>101.4</ele>
        <time>2023-07-18T07:54:06Z</time>
      </trkpt>
      <trkpt lat="47.30405" lon="0.53635">
        <ele>101.4</ele>
        <time>2023-07-18T07:54:07Z</time>
      </trkpt>
      <trkpt lat="47.30398" lon="0.53633">
        <ele>101.2</ele>
        <time>2023-07-18T07:54:08Z</time>
      </trkpt>
      <trkpt lat="47.30392" lon="0.53631">
        <ele>101.2</ele>
        <time>2023-07-18T07:54:09Z</time>
      </trkpt>
      <trkpt lat="47.30384" lon="0.53628">
        <ele>101.2</ele>
        <time>2023-07-18T07:54:10Z</time>
      </trkpt>
      <trkpt lat="47.30378" lon="0.53626">
        <ele>101.4</ele>
        <time>2023-07-18T07:54:11Z</time>
      </trkpt>
      <trkpt lat="47.30371" lon="0.53624">
        <ele>101.4</ele>
        <time>2023-07-18T07:54:12Z</time>
      </trkpt>
      <trkpt lat="47.30365" lon="0.53622">
        <ele>101.4</ele>
        <time>2023-07-18T07:54:13Z</time>
      </trkpt>
      <trkpt lat="47.30359" lon="0.53619">
        <ele>101.4</ele>
        <time>2023-07-18T07:54:14Z</time>
      </trkpt>
      <trkpt lat="47.30352" lon="0.53617">
        <ele>101.4</ele>
        <time>2023-07-18T07:54:15Z</time>
      </trkpt>
      <trkpt lat="47.30346" lon="0.53615">
        <ele>101.6</ele>
        <time>2023-07-18T07:54:16Z</time>
      </trkpt>
      <trkpt lat="47.30339" lon="0.53613">
        <ele>101.8</ele>
        <time>2023-07-18T07:54:17Z</time>
      </trkpt>
      <trkpt lat="47.30333" lon="0.53611">
        <ele>101.8</ele>
        <time>2023-07-18T07:54:18Z</time>
      </trkpt>
      <trkpt lat="47.30326" lon="0.5361">
        <ele>101.8</ele>
        <time>2023-07-18T07:54:19Z</time>
      </trkpt>
      <trkpt lat="47.3032" lon="0.53608">
        <ele>102</ele>
        <time>2023-07-18T07:54:20Z</time>
      </trkpt>
      <trkpt lat="47.30313" lon="0.53607">
        <ele>102.2</ele>
        <time>2023-07-18T07:54:21Z</time>
      </trkpt>
      <trkpt lat="47.30309" lon="0.53606">
        <ele>102.4</ele>
        <time>2023-07-18T07:54:22Z</time>
      </trkpt>
      <trkpt lat="47.30301" lon="0.53605">
        <ele>102.6</ele>
        <time>2023-07-18T07:54:23Z</time>
      </trkpt>
      <trkpt lat="47.30295" lon="0.53605">
        <ele>102.8</ele>
        <time>2023-07-18T07:54:24Z</time>
      </trkpt>
      <trkpt lat="47.30289" lon="0.53604">
        <ele>103.2</ele>
        <time>2023-07-18T07:54:25Z</time>
      </trkpt>
      <trkpt lat="47.30284" lon="0.53603">
        <ele>103.4</ele>
        <time>2023-07-18T07:54:26Z</time>
      </trkpt>
      <trkpt lat="47.30278" lon="0.53603">
        <ele>103.8</ele>
        <time>2023-07-18T07:54:27Z</time>
      </trkpt>
      <trkpt lat="47.30272" lon="0.53602">
        <ele>104</ele>
        <time>2023-07-18T07:54:28Z</time>
      </trkpt>
      <trkpt lat="47.30267" lon="0.53601">
        <ele>104.4</ele>
        <time>2023-07-18T07:54:29Z</time>
      </trkpt>
      <trkpt lat="47.30261" lon="0.53601">
        <ele>104.6</ele>
        <time>2023-07-18T07:54:30Z</time>
      </trkpt>
      <trkpt lat="47.30256" lon="0.53601">
        <ele>105</ele>
        <time>2023-07-18T07:54:31Z</time>
      </trkpt>
      <trkpt lat="47.3025" lon="0.53601">
        <ele>105.2</ele>
        <time>2023-07-18T07:54:32Z</time>
      </trkpt>
      <trkpt lat="47.30244" lon="0.53601">
        <ele>105.4</ele>
        <time>2023-07-18T07:54:33Z</time>
      </trkpt>
      <trkpt lat="47.30238" lon="0.536">
        <ele>105.6</ele>
        <time>2023-07-18T07:54:34Z</time>
      </trkpt>
      <trkpt lat="47.30234" lon="0.536">
        <ele>105.8</ele>
        <time>2023-07-18T07:54:35Z</time>
      </trkpt>
      <trkpt lat="47.30228" lon="0.53599">
        <ele>106</ele>
        <time>2023-07-18T07:54:36Z</time>
      </trkpt>
      <trkpt lat="47.30222" lon="0.53599">
        <ele>106.2</ele>
        <time>2023-07-18T07:54:37Z</time>
      </trkpt>
      <trkpt lat="47.30217" lon="0.53598">
        <ele>106.4</ele>
        <time>2023-07-18T07:54:38Z</time>
      </trkpt>
      <trkpt lat="47.30211" lon="0.53598">
        <ele>106.6</ele>
        <time>2023-07-18T07:54:39Z</time>
      </trkpt>
      <trkpt lat="47.30206" lon="0.53598">
        <ele>106.8</ele>
        <time>2023-07-18T07:54:40Z</time>
      </trkpt>
      <trkpt lat="47.302" lon="0.53597">
        <ele>106.8</ele>
        <time>2023-07-18T07:54:41Z</time>
      </trkpt>
      <trkpt lat="47.30194" lon="0.53597">
        <ele>107</ele>
        <time>2023-07-18T07:54:42Z</time>
      </trkpt>
      <trkpt lat="47.30188" lon="0.53597">
        <ele>107.4</ele>
        <time>2023-07-18T07:54:43Z</time>
      </trkpt>
      <trkpt lat="47.30183" lon="0.53596">
        <ele>107.4</ele>
        <time>2023-07-18T07:54:44Z</time>
      </trkpt>
      <trkpt lat="47.30178" lon="0.53596">
        <ele>107.4</ele>
        <time>2023-07-18T07:54:45Z</time>
      </trkpt>
      <trkpt lat="47.30171" lon="0.53596">
        <ele>107.2</ele>
        <time>2023-07-18T07:54:46Z</time>
      </trkpt>
      <trkpt lat="47.30165" lon="0.53595">
        <ele>107.2</ele>
        <time>2023-07-18T07:54:47Z</time>
      </trkpt>
      <trkpt lat="47.30159" lon="0.53595">
        <ele>107.2</ele>
        <time>2023-07-18T07:54:48Z</time>
      </trkpt>
      <trkpt lat="47.30155" lon="0.53594">
        <ele>107.2</ele>
        <time>2023-07-18T07:54:49Z</time>
      </trkpt>
      <trkpt lat="47.30149" lon="0.53594">
        <ele>107.2</ele>
        <time>2023-07-18T07:54:50Z</time>
      </trkpt>
      <trkpt lat="47.30141" lon="0.53594">
        <ele>107.2</ele>
        <time>2023-07-18T07:54:51Z</time>
      </trkpt>
      <trkpt lat="47.30135" lon="0.53593">
        <ele>107.2</ele>
        <time>2023-07-18T07:54:52Z</time>
      </trkpt>
      <trkpt lat="47.30128" lon="0.53593">
        <ele>107.2</ele>
        <time>2023-07-18T07:54:53Z</time>
      </trkpt>
      <trkpt lat="47.30122" lon="0.53592">
        <ele>107</ele>
        <time>2023-07-18T07:54:54Z</time>
      </trkpt>
      <trkpt lat="47.30116" lon="0.53592">
        <ele>107</ele>
        <time>2023-07-18T07:54:55Z</time>
      </trkpt>
      <trkpt lat="47.30108" lon="0.53591">
        <ele>106.8</ele>
        <time>2023-07-18T07:54:56Z</time>
      </trkpt>
      <trkpt lat="47.30101" lon="0.5359">
        <ele>106.8</ele>
        <time>2023-07-18T07:54:57Z</time>
      </trkpt>
      <trkpt lat="47.30094" lon="0.5359">
        <ele>106.6</ele>
        <time>2023-07-18T07:54:58Z</time>
      </trkpt>
      <trkpt lat="47.30087" lon="0.5359">
        <ele>106.4</ele>
        <time>2023-07-18T07:54:59Z</time>
      </trkpt>
      <trkpt lat="47.30079" lon="0.53589">
        <ele>106</ele>
        <time>2023-07-18T07:55:00Z</time>
      </trkpt>
      <trkpt lat="47.30072" lon="0.53588">
        <ele>105.8</ele>
        <time>2023-07-18T07:55:01Z</time>
      </trkpt>
      <trkpt lat="47.30064" lon="0.53588">
        <ele>105.4</ele>
        <time>2023-07-18T07:55:02Z</time>
      </trkpt>
      <trkpt lat="47.30056" lon="0.53587">
        <ele>105.2</ele>
        <time>2023-07-18T07:55:03Z</time>
      </trkpt>
      <trkpt lat="47.30048" lon="0.53586">
        <ele>104.8</ele>
        <time>2023-07-18T07:55:04Z</time>
      </trkpt>
      <trkpt lat="47.30039" lon="0.53586">
        <ele>104.2</ele>
        <time>2023-07-18T07:55:05Z</time>
      </trkpt>
      <trkpt lat="47.30031" lon="0.53585">
        <ele>104</ele>
        <time>2023-07-18T07:55:06Z</time>
      </trkpt>
      <trkpt lat="47.30023" lon="0.53584">
        <ele>103.6</ele>
        <time>2023-07-18T07:55:07Z</time>
      </trkpt>
      <trkpt lat="47.30014" lon="0.53584">
        <ele>103</ele>
        <time>2023-07-18T07:55:08Z</time>
      </trkpt>
      <trkpt lat="47.30005" lon="0.53583">
        <ele>102.8</ele>
        <time>2023-07-18T07:55:09Z</time>
      </trkpt>
      <trkpt lat="47.29997" lon="0.53583">
        <ele>102.4</ele>
        <time>2023-07-18T07:55:10Z</time>
      </trkpt>
      <trkpt lat="47.29989" lon="0.53583">
        <ele>102</ele>
        <time>2023-07-18T07:55:11Z</time>
      </trkpt>
      <trkpt lat="47.2998" lon="0.53582">
        <ele>101.6</ele>
        <time>2023-07-18T07:55:12Z</time>
      </trkpt>
      <trkpt lat="47.29972" lon="0.53581">
        <ele>101.2</ele>
        <time>2023-07-18T07:55:13Z</time>
      </trkpt>
      <trkpt lat="47.29963" lon="0.5358">
        <ele>100.6</ele>
        <time>2023-07-18T07:55:14Z</time>
      </trkpt>
      <trkpt lat="47.29955" lon="0.53579">
        <ele>100.4</ele>
        <time>2023-07-18T07:55:15Z</time>
      </trkpt>
      <trkpt lat="47.29946" lon="0.53578">
        <ele>100.4</ele>
        <time>2023-07-18T07:55:16Z</time>
      </trkpt>
      <trkpt lat="47.29939" lon="0.53577">
        <ele>100.2</ele>
        <time>2023-07-18T07:55:17Z</time>
      </trkpt>
      <trkpt lat="47.2993" lon="0.53577">
        <ele>100</ele>
        <time>2023-07-18T07:55:18Z</time>
      </trkpt>
      <trkpt lat="47.29923" lon="0.53575">
        <ele>99.6</ele>
        <time>2023-07-18T07:55:19Z</time>
      </trkpt>
      <trkpt lat="47.29916" lon="0.53575">
        <ele>99.4</ele>
        <time>2023-07-18T07:55:20Z</time>
      </trkpt>
      <trkpt lat="47.29908" lon="0.53573">
        <ele>99.2</ele>
        <time>2023-07-18T07:55:21Z</time>
      </trkpt>
      <trkpt lat="47.29901" lon="0.53572">
        <ele>98.8</ele>
        <time>2023-07-18T07:55:22Z</time>
      </trkpt>
      <trkpt lat="47.29894" lon="0.5357">
        <ele>98.8</ele>
        <time>2023-07-18T07:55:23Z</time>
      </trkpt>
      <trkpt lat="47.29887" lon="0.53569">
        <ele>98.8</ele>
        <time>2023-07-18T07:55:24Z</time>
      </trkpt>
      <trkpt lat="47.2988" lon="0.53566">
        <ele>98.6</ele>
        <time>2023-07-18T07:55:25Z</time>
      </trkpt>
      <trkpt lat="47.29873" lon="0.53564">
        <ele>98.6</ele>
        <time>2023-07-18T07:55:26Z</time>
      </trkpt>
      <trkpt lat="47.29866" lon="0.53562">
        <ele>98.6</ele>
        <time>2023-07-18T07:55:27Z</time>
      </trkpt>
      <trkpt lat="47.2986" lon="0.53559">
        <ele>98.6</ele>
        <time>2023-07-18T07:55:28Z</time>
      </trkpt>
      <trkpt lat="47.29853" lon="0.53556">
        <ele>98.4</ele>
        <time>2023-07-18T07:55:29Z</time>
      </trkpt>
      <trkpt lat="47.29847" lon="0.53554">
        <ele>98.2</ele>
        <time>2023-07-18T07:55:30Z</time>
      </trkpt>
      <trkpt lat="47.2984" lon="0.5355">
        <ele>98.2</ele>
        <time>2023-07-18T07:55:31Z</time>
      </trkpt>
      <trkpt lat="47.29834" lon="0.53547">
        <ele>98</ele>
        <time>2023-07-18T07:55:32Z</time>
      </trkpt>
      <trkpt lat="47.29828" lon="0.53544">
        <ele>98</ele>
        <time>2023-07-18T07:55:33Z</time>
      </trkpt>
      <trkpt lat="47.29821" lon="0.5354">
        <ele>98</ele>
        <time>2023-07-18T07:55:34Z</time>
      </trkpt>
      <trkpt lat="47.29815" lon="0.53537">
        <ele>98</ele>
        <time>2023-07-18T07:55:35Z</time>
      </trkpt>
      <trkpt lat="47.29809" lon="0.53534">
        <ele>98</ele>
        <time>2023-07-18T07:55:36Z</time>
      </trkpt>
      <trkpt lat="47.29802" lon="0.53531">
        <ele>98</ele>
        <time>2023-07-18T07:55:37Z</time>
      </trkpt>
      <trkpt lat="47.29795" lon="0.53529">
        <ele>98</ele>
        <time>2023-07-18T07:55:38Z</time>
      </trkpt>
      <trkpt lat="47.29788" lon="0.53527">
        <ele>98.2</ele>
        <time>2023-07-18T07:55:39Z</time>
      </trkpt>
      <trkpt lat="47.29781" lon="0.53526">
        <ele>98.2</ele>
        <time>2023-07-18T07:55:40Z</time>
      </trkpt>
      <trkpt lat="47.29775" lon="0.53525">
        <ele>98.2</ele>
        <time>2023-07-18T07:55:41Z</time>
      </trkpt>
      <trkpt lat="47.29768" lon="0.53525">
        <ele>98.2</ele>
        <time>2023-07-18T07:55:42Z</time>
      </trkpt>
      <trkpt lat="47.29762" lon="0.53525">
        <ele>98.2</ele>
        <time>2023-07-18T07:55:43Z</time>
      </trkpt>
      <trkpt lat="47.29755" lon="0.53526">
        <ele>98.2</ele>
        <time>2023-07-18T07:55:44Z</time>
      </trkpt>
      <trkpt lat="47.29749" lon="0.53527">
        <ele>98.2</ele>
        <time>2023-07-18T07:55:45Z</time>
      </trkpt>
      <trkpt lat="47.29742" lon="0.53527">
        <ele>98.4</ele>
        <time>2023-07-18T07:55:46Z</time>
      </trkpt>
      <trkpt lat="47.29736" lon="0.53528">
        <ele>98.2</ele>
        <time>2023-07-18T07:55:47Z</time>
      </trkpt>
      <trkpt lat="47.2973" lon="0.53529">
        <ele>98.2</ele>
        <time>2023-07-18T07:55:48Z</time>
      </trkpt>
      <trkpt lat="47.29723" lon="0.5353">
        <ele>98.2</ele>
        <time>2023-07-18T07:55:49Z</time>
      </trkpt>
      <trkpt lat="47.29717" lon="0.53531">
        <ele>98.2</ele>
        <time>2023-07-18T07:55:50Z</time>
      </trkpt>
      <trkpt lat="47.2971" lon="0.53531">
        <ele>98.2</ele>
        <time>2023-07-18T07:55:51Z</time>
      </trkpt>
      <trkpt lat="47.29704" lon="0.53531">
        <ele>98.2</ele>
        <time>2023-07-18T07:55:52Z</time>
      </trkpt>
      <trkpt lat="47.29697" lon="0.53531">
        <ele>98.4</ele>
        <time>2023-07-18T07:55:53Z</time>
      </trkpt>
      <trkpt lat="47.29691" lon="0.53531">
        <ele>98.4</ele>
        <time>2023-07-18T07:55:54Z</time>
      </trkpt>
      <trkpt lat="47.29684" lon="0.53531">
        <ele>98.4</ele>
        <time>2023-07-18T07:55:55Z</time>
      </trkpt>
      <trkpt lat="47.29677" lon="0.53531">
        <ele>98.4</ele>
        <time>2023-07-18T07:55:56Z</time>
      </trkpt>
      <trkpt lat="47.29671" lon="0.53531">
        <ele>98.4</ele>
        <time>2023-07-18T07:55:57Z</time>
      </trkpt>
      <trkpt lat="47.29664" lon="0.53531">
        <ele>98.4</ele>
        <time>2023-07-18T07:55:58Z</time>
      </trkpt>
      <trkpt lat="47.29658" lon="0.53531">
        <ele>98.6</ele>
        <time>2023-07-18T07:55:59Z</time>
      </trkpt>
      <trkpt lat="47.29651" lon="0.5353">
        <ele>98.6</ele>
        <time>2023-07-18T07:56:00Z</time>
      </trkpt>
      <trkpt lat="47.29645" lon="0.5353">
        <ele>98.8</ele>
        <time>2023-07-18T07:56:01Z</time>
      </trkpt>
      <trkpt lat="47.29638" lon="0.53529">
        <ele>98.8</ele>
        <time>2023-07-18T07:56:02Z</time>
      </trkpt>
      <trkpt lat="47.29631" lon="0.53529">
        <ele>99</ele>
        <time>2023-07-18T07:56:03Z</time>
      </trkpt>
      <trkpt lat="47.29625" lon="0.53528">
        <ele>99</ele>
        <time>2023-07-18T07:56:04Z</time>
      </trkpt>
      <trkpt lat="47.29617" lon="0.53527">
        <ele>99</ele>
        <time>2023-07-18T07:56:05Z</time>
      </trkpt>
      <trkpt lat="47.2961" lon="0.53525">
        <ele>99</ele>
        <time>2023-07-18T07:56:06Z</time>
      </trkpt>
      <trkpt lat="47.29604" lon="0.53524">
        <ele>99.2</ele>
        <time>2023-07-18T07:56:07Z</time>
      </trkpt>
      <trkpt lat="47.29596" lon="0.53522">
        <ele>99</ele>
        <time>2023-07-18T07:56:08Z</time>
      </trkpt>
      <trkpt lat="47.2959" lon="0.53521">
        <ele>99</ele>
        <time>2023-07-18T07:56:09Z</time>
      </trkpt>
      <trkpt lat="47.29583" lon="0.53518">
        <ele>99.2</ele>
        <time>2023-07-18T07:56:10Z</time>
      </trkpt>
      <trkpt lat="47.29576" lon="0.53516">
        <ele>99.2</ele>
        <time>2023-07-18T07:56:11Z</time>
      </trkpt>
      <trkpt lat="47.29569" lon="0.53514">
        <ele>99.4</ele>
        <time>2023-07-18T07:56:12Z</time>
      </trkpt>
      <trkpt lat="47.29563" lon="0.53512">
        <ele>99.4</ele>
        <time>2023-07-18T07:56:13Z</time>
      </trkpt>
      <trkpt lat="47.29556" lon="0.5351">
        <ele>99.6</ele>
        <time>2023-07-18T07:56:14Z</time>
      </trkpt>
      <trkpt lat="47.29549" lon="0.53508">
        <ele>99.6</ele>
        <time>2023-07-18T07:56:15Z</time>
      </trkpt>
      <trkpt lat="47.29543" lon="0.53506">
        <ele>99.8</ele>
        <time>2023-07-18T07:56:16Z</time>
      </trkpt>
      <trkpt lat="47.29536" lon="0.53504">
        <ele>100.2</ele>
        <time>2023-07-18T07:56:17Z</time>
      </trkpt>
      <trkpt lat="47.29529" lon="0.53502">
        <ele>100.4</ele>
        <time>2023-07-18T07:56:18Z</time>
      </trkpt>
      <trkpt lat="47.29523" lon="0.535">
        <ele>100.4</ele>
        <time>2023-07-18T07:56:19Z</time>
      </trkpt>
      <trkpt lat="47.29516" lon="0.53499">
        <ele>100.4</ele>
        <time>2023-07-18T07:56:20Z</time>
      </trkpt>
      <trkpt lat="47.29509" lon="0.53498">
        <ele>100.4</ele>
        <time>2023-07-18T07:56:21Z</time>
      </trkpt>
      <trkpt lat="47.29502" lon="0.53497">
        <ele>100.4</ele>
        <time>2023-07-18T07:56:22Z</time>
      </trkpt>
      <trkpt lat="47.29494" lon="0.53495">
        <ele>100.4</ele>
        <time>2023-07-18T07:56:23Z</time>
      </trkpt>
      <trkpt lat="47.29487" lon="0.53494">
        <ele>100.2</ele>
        <time>2023-07-18T07:56:24Z</time>
      </trkpt>
      <trkpt lat="47.2948" lon="0.53492">
        <ele>100.2</ele>
        <time>2023-07-18T07:56:25Z</time>
      </trkpt>
      <trkpt lat="47.29473" lon="0.53491">
        <ele>100.2</ele>
        <time>2023-07-18T07:56:26Z</time>
      </trkpt>
      <trkpt lat="47.29466" lon="0.53489">
        <ele>100.2</ele>
        <time>2023-07-18T07:56:27Z</time>
      </trkpt>
      <trkpt lat="47.29459" lon="0.53487">
        <ele>100.4</ele>
        <time>2023-07-18T07:56:28Z</time>
      </trkpt>
      <trkpt lat="47.29452" lon="0.53485">
        <ele>100.4</ele>
        <time>2023-07-18T07:56:29Z</time>
      </trkpt>
      <trkpt lat="47.29445" lon="0.53483">
        <ele>100.6</ele>
        <time>2023-07-18T07:56:30Z</time>
      </trkpt>
      <trkpt lat="47.29437" lon="0.53481">
        <ele>100.4</ele>
        <time>2023-07-18T07:56:31Z</time>
      </trkpt>
      <trkpt lat="47.2943" lon="0.53479">
        <ele>100.4</ele>
        <time>2023-07-18T07:56:32Z</time>
      </trkpt>
      <trkpt lat="47.29423" lon="0.53477">
        <ele>100.4</ele>
        <time>2023-07-18T07:56:33Z</time>
      </trkpt>
      <trkpt lat="47.29416" lon="0.53476">
        <ele>100.4</ele>
        <time>2023-07-18T07:56:34Z</time>
      </trkpt>
      <trkpt lat="47.29409" lon="0.53473">
        <ele>100.4</ele>
        <time>2023-07-18T07:56:35Z</time>
      </trkpt>
      <trkpt lat="47.29402" lon="0.53471">
        <ele>100.4</ele>
        <time>2023-07-18T07:56:36Z</time>
      </trkpt>
      <trkpt lat="47.29395" lon="0.53468">
        <ele>100.2</ele>
        <time>2023-07-18T07:56:37Z</time>
      </trkpt>
      <trkpt lat="47.29388" lon="0.53463">
        <ele>100.2</ele>
        <time>2023-07-18T07:56:38Z</time>
      </trkpt>
      <trkpt lat="47.29382" lon="0.53458">
        <ele>100.2</ele>
        <time>2023-07-18T07:56:39Z</time>
      </trkpt>
      <trkpt lat="47.29375" lon="0.53453">
        <ele>100.2</ele>
        <time>2023-07-18T07:56:40Z</time>
      </trkpt>
      <trkpt lat="47.29369" lon="0.53447">
        <ele>100.2</ele>
        <time>2023-07-18T07:56:41Z</time>
      </trkpt>
      <trkpt lat="47.29364" lon="0.53441">
        <ele>100.4</ele>
        <time>2023-07-18T07:56:42Z</time>
      </trkpt>
      <trkpt lat="47.29359" lon="0.53435">
        <ele>100.4</ele>
        <time>2023-07-18T07:56:43Z</time>
      </trkpt>
      <trkpt lat="47.29354" lon="0.53428">
        <ele>100.4</ele>
        <time>2023-07-18T07:56:44Z</time>
      </trkpt>
      <trkpt lat="47.29348" lon="0.53422">
        <ele>100.6</ele>
        <time>2023-07-18T07:56:45Z</time>
      </trkpt>
      <trkpt lat="47.29344" lon="0.53416">
        <ele>100.6</ele>
        <time>2023-07-18T07:56:46Z</time>
      </trkpt>
      <trkpt lat="47.29338" lon="0.53411">
        <ele>100.6</ele>
        <time>2023-07-18T07:56:47Z</time>
      </trkpt>
      <trkpt lat="47.29333" lon="0.53408">
        <ele>100.6</ele>
        <time>2023-07-18T07:56:48Z</time>
      </trkpt>
      <trkpt lat="47.29327" lon="0.53407">
        <ele>100.6</ele>
        <time>2023-07-18T07:56:49Z</time>
      </trkpt>
      <trkpt lat="47.29322" lon="0.53408">
        <ele>100.6</ele>
        <time>2023-07-18T07:56:50Z</time>
      </trkpt>
      <trkpt lat="47.29316" lon="0.5341">
        <ele>100.6</ele>
        <time>2023-07-18T07:56:51Z</time>
      </trkpt>
      <trkpt lat="47.29312" lon="0.53411">
        <ele>100.6</ele>
        <time>2023-07-18T07:56:52Z</time>
      </trkpt>
      <trkpt lat="47.29308" lon="0.53412">
        <ele>100.4</ele>
        <time>2023-07-18T07:56:53Z</time>
      </trkpt>
      <trkpt lat="47.29304" lon="0.53413">
        <ele>100.4</ele>
        <time>2023-07-18T07:56:54Z</time>
      </trkpt>
      <trkpt lat="47.29302" lon="0.53415">
        <ele>100.6</ele>
        <time>2023-07-18T07:56:55Z</time>
      </trkpt>
      <trkpt lat="47.293" lon="0.53416">
        <ele>100.6</ele>
        <time>2023-07-18T07:56:56Z</time>
      </trkpt>
      <trkpt lat="47.293" lon="0.53417">
        <ele>100.6</ele>
        <time>2023-07-18T07:56:57Z</time>
      </trkpt>
      <trkpt lat="47.29297" lon="0.53417">
        <ele>100.4</ele>
        <time>2023-07-18T07:57:19Z</time>
      </trkpt>
      <trkpt lat="47.29295" lon="0.53419">
        <ele>100.4</ele>
        <time>2023-07-18T07:57:20Z</time>
      </trkpt>
      <trkpt lat="47.29292" lon="0.53422">
        <ele>100.4</ele>
        <time>2023-07-18T07:57:21Z</time>
      </trkpt>
      <trkpt lat="47.29289" lon="0.53426">
        <ele>100.4</ele>
        <time>2023-07-18T07:57:22Z</time>
      </trkpt>
      <trkpt lat="47.29286" lon="0.5343">
        <ele>100.4</ele>
        <time>2023-07-18T07:57:23Z</time>
      </trkpt>
      <trkpt lat="47.29283" lon="0.53434">
        <ele>100.4</ele>
        <time>2023-07-18T07:57:24Z</time>
      </trkpt>
      <trkpt lat="47.2928" lon="0.53437">
        <ele>100.6</ele>
        <time>2023-07-18T07:57:25Z</time>
      </trkpt>
      <trkpt lat="47.29276" lon="0.53439">
        <ele>100.6</ele>
        <time>2023-07-18T07:57:26Z</time>
      </trkpt>
      <trkpt lat="47.29272" lon="0.5344">
        <ele>100.8</ele>
        <time>2023-07-18T07:57:27Z</time>
      </trkpt>
      <trkpt lat="47.29267" lon="0.53439">
        <ele>100.8</ele>
        <time>2023-07-18T07:57:28Z</time>
      </trkpt>
      <trkpt lat="47.29262" lon="0.53438">
        <ele>100.8</ele>
        <time>2023-07-18T07:57:29Z</time>
      </trkpt>
      <trkpt lat="47.29258" lon="0.53435">
        <ele>101</ele>
        <time>2023-07-18T07:57:30Z</time>
      </trkpt>
      <trkpt lat="47.29254" lon="0.53433">
        <ele>101</ele>
        <time>2023-07-18T07:57:31Z</time>
      </trkpt>
      <trkpt lat="47.29249" lon="0.53431">
        <ele>101</ele>
        <time>2023-07-18T07:57:32Z</time>
      </trkpt>
      <trkpt lat="47.29245" lon="0.53429">
        <ele>101.2</ele>
        <time>2023-07-18T07:57:33Z</time>
      </trkpt>
      <trkpt lat="47.2924" lon="0.53427">
        <ele>101.2</ele>
        <time>2023-07-18T07:57:34Z</time>
      </trkpt>
      <trkpt lat="47.29234" lon="0.53424">
        <ele>101.4</ele>
        <time>2023-07-18T07:57:35Z</time>
      </trkpt>
      <trkpt lat="47.2923" lon="0.53422">
        <ele>101.4</ele>
        <time>2023-07-18T07:57:36Z</time>
      </trkpt>
      <trkpt lat="47.29225" lon="0.5342">
        <ele>101.4</ele>
        <time>2023-07-18T07:57:37Z</time>
      </trkpt>
      <trkpt lat="47.29219" lon="0.53418">
        <ele>101.4</ele>
        <time>2023-07-18T07:57:38Z</time>
      </trkpt>
      <trkpt lat="47.29214" lon="0.53415">
        <ele>101.6</ele>
        <time>2023-07-18T07:57:39Z</time>
      </trkpt>
      <trkpt lat="47.29209" lon="0.53413">
        <ele>101.6</ele>
        <time>2023-07-18T07:57:40Z</time>
      </trkpt>
      <trkpt lat="47.29203" lon="0.53411">
        <ele>101.6</ele>
        <time>2023-07-18T07:57:41Z</time>
      </trkpt>
      <trkpt lat="47.29197" lon="0.53407">
        <ele>101.6</ele>
        <time>2023-07-18T07:57:42Z</time>
      </trkpt>
      <trkpt lat="47.29191" lon="0.53403">
        <ele>101.8</ele>
        <time>2023-07-18T07:57:43Z</time>
      </trkpt>
      <trkpt lat="47.29185" lon="0.53399">
        <ele>101.8</ele>
        <time>2023-07-18T07:57:44Z</time>
      </trkpt>
      <trkpt lat="47.29179" lon="0.53396">
        <ele>101.8</ele>
        <time>2023-07-18T07:57:45Z</time>
      </trkpt>
      <trkpt lat="47.29172" lon="0.53393">
        <ele>102</ele>
        <time>2023-07-18T07:57:46Z</time>
      </trkpt>
      <trkpt lat="47.29165" lon="0.5339">
        <ele>102</ele>
        <time>2023-07-18T07:57:47Z</time>
      </trkpt>
      <trkpt lat="47.29159" lon="0.53388">
        <ele>102</ele>
        <time>2023-07-18T07:57:48Z</time>
      </trkpt>
      <trkpt lat="47.29151" lon="0.53385">
        <ele>102</ele>
        <time>2023-07-18T07:57:49Z</time>
      </trkpt>
      <trkpt lat="47.29144" lon="0.53384">
        <ele>102</ele>
        <time>2023-07-18T07:57:50Z</time>
      </trkpt>
      <trkpt lat="47.29136" lon="0.53382">
        <ele>102</ele>
        <time>2023-07-18T07:57:51Z</time>
      </trkpt>
      <trkpt lat="47.29129" lon="0.53381">
        <ele>102</ele>
        <time>2023-07-18T07:57:52Z</time>
      </trkpt>
      <trkpt lat="47.29122" lon="0.5338">
        <ele>102</ele>
        <time>2023-07-18T07:57:53Z</time>
      </trkpt>
      <trkpt lat="47.29115" lon="0.53379">
        <ele>102</ele>
        <time>2023-07-18T07:57:54Z</time>
      </trkpt>
      <trkpt lat="47.29108" lon="0.53378">
        <ele>102</ele>
        <time>2023-07-18T07:57:55Z</time>
      </trkpt>
      <trkpt lat="47.29101" lon="0.53377">
        <ele>102</ele>
        <time>2023-07-18T07:57:56Z</time>
      </trkpt>
      <trkpt lat="47.29094" lon="0.53376">
        <ele>102</ele>
        <time>2023-07-18T07:57:57Z</time>
      </trkpt>
      <trkpt lat="47.29087" lon="0.53374">
        <ele>102.2</ele>
        <time>2023-07-18T07:57:58Z</time>
      </trkpt>
      <trkpt lat="47.29079" lon="0.53373">
        <ele>102.2</ele>
        <time>2023-07-18T07:57:59Z</time>
      </trkpt>
      <trkpt lat="47.29073" lon="0.53374">
        <ele>102.2</ele>
        <time>2023-07-18T07:58:00Z</time>
      </trkpt>
      <trkpt lat="47.29065" lon="0.53373">
        <ele>102.4</ele>
        <time>2023-07-18T07:58:01Z</time>
      </trkpt>
      <trkpt lat="47.29059" lon="0.53372">
        <ele>102.4</ele>
        <time>2023-07-18T07:58:02Z</time>
      </trkpt>
      <trkpt lat="47.29052" lon="0.53371">
        <ele>102.4</ele>
        <time>2023-07-18T07:58:03Z</time>
      </trkpt>
      <trkpt lat="47.29045" lon="0.5337">
        <ele>102.6</ele>
        <time>2023-07-18T07:58:04Z</time>
      </trkpt>
      <trkpt lat="47.29039" lon="0.53369">
        <ele>102.6</ele>
        <time>2023-07-18T07:58:05Z</time>
      </trkpt>
      <trkpt lat="47.29033" lon="0.53367">
        <ele>102.6</ele>
        <time>2023-07-18T07:58:06Z</time>
      </trkpt>
      <trkpt lat="47.29025" lon="0.53365">
        <ele>102.6</ele>
        <time>2023-07-18T07:58:07Z</time>
      </trkpt>
      <trkpt lat="47.29019" lon="0.53365">
        <ele>102.8</ele>
        <time>2023-07-18T07:58:08Z</time>
      </trkpt>
      <trkpt lat="47.29012" lon="0.53364">
        <ele>103</ele>
        <time>2023-07-18T07:58:09Z</time>
      </trkpt>
      <trkpt lat="47.29005" lon="0.53362">
        <ele>103.2</ele>
        <time>2023-07-18T07:58:10Z</time>
      </trkpt>
      <trkpt lat="47.28998" lon="0.53361">
        <ele>103.2</ele>
        <time>2023-07-18T07:58:11Z</time>
      </trkpt>
      <trkpt lat="47.28992" lon="0.5336">
        <ele>103.2</ele>
        <time>2023-07-18T07:58:12Z</time>
      </trkpt>
      <trkpt lat="47.28984" lon="0.53358">
        <ele>103.2</ele>
        <time>2023-07-18T07:58:13Z</time>
      </trkpt>
      <trkpt lat="47.28978" lon="0.53357">
        <ele>103</ele>
        <time>2023-07-18T07:58:14Z</time>
      </trkpt>
      <trkpt lat="47.2897" lon="0.53356">
        <ele>103</ele>
        <time>2023-07-18T07:58:15Z</time>
      </trkpt>
      <trkpt lat="47.28963" lon="0.53355">
        <ele>103</ele>
        <time>2023-07-18T07:58:16Z</time>
      </trkpt>
      <trkpt lat="47.28956" lon="0.53354">
        <ele>103</ele>
        <time>2023-07-18T07:58:17Z</time>
      </trkpt>
      <trkpt lat="47.28949" lon="0.53353">
        <ele>103</ele>
        <time>2023-07-18T07:58:18Z</time>
      </trkpt>
      <trkpt lat="47.28942" lon="0.53352">
        <ele>103.2</ele>
        <time>2023-07-18T07:58:19Z</time>
      </trkpt>
      <trkpt lat="47.28936" lon="0.53354">
        <ele>103.2</ele>
        <time>2023-07-18T07:58:20Z</time>
      </trkpt>
      <trkpt lat="47.28929" lon="0.53356">
        <ele>103.2</ele>
        <time>2023-07-18T07:58:21Z</time>
      </trkpt>
      <trkpt lat="47.28923" lon="0.53359">
        <ele>103.2</ele>
        <time>2023-07-18T07:58:22Z</time>
      </trkpt>
      <trkpt lat="47.28917" lon="0.53364">
        <ele>103.4</ele>
        <time>2023-07-18T07:58:23Z</time>
      </trkpt>
      <trkpt lat="47.28911" lon="0.53368">
        <ele>103.4</ele>
        <time>2023-07-18T07:58:24Z</time>
      </trkpt>
      <trkpt lat="47.28904" lon="0.53374">
        <ele>103.4</ele>
        <time>2023-07-18T07:58:25Z</time>
      </trkpt>
      <trkpt lat="47.28898" lon="0.53379">
        <ele>103.4</ele>
        <time>2023-07-18T07:58:26Z</time>
      </trkpt>
      <trkpt lat="47.28893" lon="0.53384">
        <ele>103.6</ele>
        <time>2023-07-18T07:58:27Z</time>
      </trkpt>
      <trkpt lat="47.28886" lon="0.53389">
        <ele>103.6</ele>
        <time>2023-07-18T07:58:28Z</time>
      </trkpt>
      <trkpt lat="47.28881" lon="0.53394">
        <ele>103.8</ele>
        <time>2023-07-18T07:58:29Z</time>
      </trkpt>
      <trkpt lat="47.28875" lon="0.53399">
        <ele>103.8</ele>
        <time>2023-07-18T07:58:30Z</time>
      </trkpt>
      <trkpt lat="47.2887" lon="0.53404">
        <ele>103.6</ele>
        <time>2023-07-18T07:58:31Z</time>
      </trkpt>
      <trkpt lat="47.28864" lon="0.53409">
        <ele>103.6</ele>
        <time>2023-07-18T07:58:32Z</time>
      </trkpt>
      <trkpt lat="47.28857" lon="0.53413">
        <ele>103.6</ele>
        <time>2023-07-18T07:58:33Z</time>
      </trkpt>
      <trkpt lat="47.28851" lon="0.53417">
        <ele>103.4</ele>
        <time>2023-07-18T07:58:34Z</time>
      </trkpt>
      <trkpt lat="47.28844" lon="0.53419">
        <ele>103.4</ele>
        <time>2023-07-18T07:58:35Z</time>
      </trkpt>
      <trkpt lat="47.28836" lon="0.53422">
        <ele>103.4</ele>
        <time>2023-07-18T07:58:36Z</time>
      </trkpt>
      <trkpt lat="47.28829" lon="0.53425">
        <ele>103.2</ele>
        <time>2023-07-18T07:58:37Z</time>
      </trkpt>
      <trkpt lat="47.28822" lon="0.53428">
        <ele>103.2</ele>
        <time>2023-07-18T07:58:38Z</time>
      </trkpt>
      <trkpt lat="47.28815" lon="0.53431">
        <ele>103.2</ele>
        <time>2023-07-18T07:58:39Z</time>
      </trkpt>
      <trkpt lat="47.28807" lon="0.53433">
        <ele>103.2</ele>
        <time>2023-07-18T07:58:40Z</time>
      </trkpt>
      <trkpt lat="47.28801" lon="0.53436">
        <ele>103</ele>
        <time>2023-07-18T07:58:41Z</time>
      </trkpt>
      <trkpt lat="47.28795" lon="0.5344">
        <ele>103</ele>
        <time>2023-07-18T07:58:42Z</time>
      </trkpt>
      <trkpt lat="47.28788" lon="0.53444">
        <ele>103</ele>
        <time>2023-07-18T07:58:43Z</time>
      </trkpt>
      <trkpt lat="47.28781" lon="0.53446">
        <ele>103</ele>
        <time>2023-07-18T07:58:44Z</time>
      </trkpt>
      <trkpt lat="47.28773" lon="0.5345">
        <ele>103</ele>
        <time>2023-07-18T07:58:45Z</time>
      </trkpt>
      <trkpt lat="47.28766" lon="0.53454">
        <ele>102.8</ele>
        <time>2023-07-18T07:58:46Z</time>
      </trkpt>
      <trkpt lat="47.28759" lon="0.53458">
        <ele>102.8</ele>
        <time>2023-07-18T07:58:47Z</time>
      </trkpt>
      <trkpt lat="47.28751" lon="0.53462">
        <ele>102.6</ele>
        <time>2023-07-18T07:58:48Z</time>
      </trkpt>
      <trkpt lat="47.28743" lon="0.53466">
        <ele>102.6</ele>
        <time>2023-07-18T07:58:49Z</time>
      </trkpt>
      <trkpt lat="47.28734" lon="0.5347">
        <ele>102.6</ele>
        <time>2023-07-18T07:58:50Z</time>
      </trkpt>
      <trkpt lat="47.28727" lon="0.53476">
        <ele>102.4</ele>
        <time>2023-07-18T07:58:51Z</time>
      </trkpt>
      <trkpt lat="47.28719" lon="0.53482">
        <ele>102</ele>
        <time>2023-07-18T07:58:52Z</time>
      </trkpt>
      <trkpt lat="47.28709" lon="0.53488">
        <ele>101.6</ele>
        <time>2023-07-18T07:58:53Z</time>
      </trkpt>
      <trkpt lat="47.28702" lon="0.53496">
        <ele>101.2</ele>
        <time>2023-07-18T07:58:54Z</time>
      </trkpt>
      <trkpt lat="47.28693" lon="0.53503">
        <ele>100.6</ele>
        <time>2023-07-18T07:58:55Z</time>
      </trkpt>
      <trkpt lat="47.28685" lon="0.5351">
        <ele>100.2</ele>
        <time>2023-07-18T07:58:56Z</time>
      </trkpt>
      <trkpt lat="47.28677" lon="0.53517">
        <ele>100</ele>
        <time>2023-07-18T07:58:57Z</time>
      </trkpt>
      <trkpt lat="47.28669" lon="0.53524">
        <ele>99.6</ele>
        <time>2023-07-18T07:58:58Z</time>
      </trkpt>
      <trkpt lat="47.28659" lon="0.53529">
        <ele>99.6</ele>
        <time>2023-07-18T07:58:59Z</time>
      </trkpt>
      <trkpt lat="47.28651" lon="0.53535">
        <ele>99.4</ele>
        <time>2023-07-18T07:59:00Z</time>
      </trkpt>
      <trkpt lat="47.28643" lon="0.5354">
        <ele>99.6</ele>
        <time>2023-07-18T07:59:01Z</time>
      </trkpt>
      <trkpt lat="47.28635" lon="0.53543">
        <ele>99.6</ele>
        <time>2023-07-18T07:59:02Z</time>
      </trkpt>
      <trkpt lat="47.28628" lon="0.53547">
        <ele>99.6</ele>
        <time>2023-07-18T07:59:03Z</time>
      </trkpt>
      <trkpt lat="47.2862" lon="0.5355">
        <ele>99.4</ele>
        <time>2023-07-18T07:59:04Z</time>
      </trkpt>
      <trkpt lat="47.28613" lon="0.53553">
        <ele>99.4</ele>
        <time>2023-07-18T07:59:05Z</time>
      </trkpt>
      <trkpt lat="47.28606" lon="0.53556">
        <ele>99.2</ele>
        <time>2023-07-18T07:59:06Z</time>
      </trkpt>
      <trkpt lat="47.28599" lon="0.5356">
        <ele>99</ele>
        <time>2023-07-18T07:59:07Z</time>
      </trkpt>
      <trkpt lat="47.28593" lon="0.53564">
        <ele>98.8</ele>
        <time>2023-07-18T07:59:08Z</time>
      </trkpt>
      <trkpt lat="47.28586" lon="0.53569">
        <ele>98.6</ele>
        <time>2023-07-18T07:59:09Z</time>
      </trkpt>
      <trkpt lat="47.28579" lon="0.53573">
        <ele>98.6</ele>
        <time>2023-07-18T07:59:10Z</time>
      </trkpt>
      <trkpt lat="47.28572" lon="0.53577">
        <ele>98.4</ele>
        <time>2023-07-18T07:59:11Z</time>
      </trkpt>
      <trkpt lat="47.28566" lon="0.53581">
        <ele>98.2</ele>
        <time>2023-07-18T07:59:12Z</time>
      </trkpt>
      <trkpt lat="47.28559" lon="0.53585">
        <ele>97.8</ele>
        <time>2023-07-18T07:59:13Z</time>
      </trkpt>
      <trkpt lat="47.28551" lon="0.53589">
        <ele>97.6</ele>
        <time>2023-07-18T07:59:14Z</time>
      </trkpt>
      <trkpt lat="47.28545" lon="0.53593">
        <ele>97.6</ele>
        <time>2023-07-18T07:59:15Z</time>
      </trkpt>
      <trkpt lat="47.28538" lon="0.53597">
        <ele>97.8</ele>
        <time>2023-07-18T07:59:16Z</time>
      </trkpt>
      <trkpt lat="47.28531" lon="0.53601">
        <ele>98</ele>
        <time>2023-07-18T07:59:17Z</time>
      </trkpt>
      <trkpt lat="47.28524" lon="0.53605">
        <ele>98.2</ele>
        <time>2023-07-18T07:59:18Z</time>
      </trkpt>
      <trkpt lat="47.28516" lon="0.53608">
        <ele>98.2</ele>
        <time>2023-07-18T07:59:19Z</time>
      </trkpt>
      <trkpt lat="47.28507" lon="0.53611">
        <ele>98</ele>
        <time>2023-07-18T07:59:20Z</time>
      </trkpt>
      <trkpt lat="47.28499" lon="0.53614">
        <ele>97.6</ele>
        <time>2023-07-18T07:59:21Z</time>
      </trkpt>
      <trkpt lat="47.28491" lon="0.53617">
        <ele>97.4</ele>
        <time>2023-07-18T07:59:22Z</time>
      </trkpt>
      <trkpt lat="47.28484" lon="0.53621">
        <ele>97.2</ele>
        <time>2023-07-18T07:59:23Z</time>
      </trkpt>
      <trkpt lat="47.28476" lon="0.53624">
        <ele>97.2</ele>
        <time>2023-07-18T07:59:24Z</time>
      </trkpt>
      <trkpt lat="47.28468" lon="0.53628">
        <ele>97.4</ele>
        <time>2023-07-18T07:59:25Z</time>
      </trkpt>
      <trkpt lat="47.2846" lon="0.53632">
        <ele>97.6</ele>
        <time>2023-07-18T07:59:26Z</time>
      </trkpt>
      <trkpt lat="47.28455" lon="0.53635">
        <ele>97.6</ele>
        <time>2023-07-18T07:59:27Z</time>
      </trkpt>
      <trkpt lat="47.28446" lon="0.53639">
        <ele>97.6</ele>
        <time>2023-07-18T07:59:28Z</time>
      </trkpt>
      <trkpt lat="47.28437" lon="0.53642">
        <ele>97.8</ele>
        <time>2023-07-18T07:59:29Z</time>
      </trkpt>
      <trkpt lat="47.28429" lon="0.53645">
        <ele>97.6</ele>
        <time>2023-07-18T07:59:30Z</time>
      </trkpt>
      <trkpt lat="47.28422" lon="0.53648">
        <ele>97.2</ele>
        <time>2023-07-18T07:59:31Z</time>
      </trkpt>
      <trkpt lat="47.28414" lon="0.53649">
        <ele>97.4</ele>
        <time>2023-07-18T07:59:32Z</time>
      </trkpt>
      <trkpt lat="47.28406" lon="0.53651">
        <ele>97.4</ele>
        <time>2023-07-18T07:59:33Z</time>
      </trkpt>
      <trkpt lat="47.284" lon="0.53652">
        <ele>97.4</ele>
        <time>2023-07-18T07:59:34Z</time>
      </trkpt>
      <trkpt lat="47.28391" lon="0.53652">
        <ele>97.6</ele>
        <time>2023-07-18T07:59:35Z</time>
      </trkpt>
      <trkpt lat="47.28384" lon="0.53653">
        <ele>97.6</ele>
        <time>2023-07-18T07:59:36Z</time>
      </trkpt>
      <trkpt lat="47.28376" lon="0.53653">
        <ele>97.8</ele>
        <time>2023-07-18T07:59:37Z</time>
      </trkpt>
      <trkpt lat="47.28368" lon="0.53654">
        <ele>97.8</ele>
        <time>2023-07-18T07:59:38Z</time>
      </trkpt>
      <trkpt lat="47.28361" lon="0.53655">
        <ele>98.2</ele>
        <time>2023-07-18T07:59:39Z</time>
      </trkpt>
      <trkpt lat="47.28355" lon="0.53655">
        <ele>98.4</ele>
        <time>2023-07-18T07:59:40Z</time>
      </trkpt>
      <trkpt lat="47.28348" lon="0.53656">
        <ele>98.4</ele>
        <time>2023-07-18T07:59:41Z</time>
      </trkpt>
      <trkpt lat="47.28339" lon="0.53657">
        <ele>98.6</ele>
        <time>2023-07-18T07:59:42Z</time>
      </trkpt>
      <trkpt lat="47.28331" lon="0.53658">
        <ele>98.8</ele>
        <time>2023-07-18T07:59:43Z</time>
      </trkpt>
      <trkpt lat="47.28324" lon="0.53659">
        <ele>98.8</ele>
        <time>2023-07-18T07:59:44Z</time>
      </trkpt>
      <trkpt lat="47.28316" lon="0.53659">
        <ele>99</ele>
        <time>2023-07-18T07:59:45Z</time>
      </trkpt>
      <trkpt lat="47.2831" lon="0.5366">
        <ele>99.2</ele>
        <time>2023-07-18T07:59:46Z</time>
      </trkpt>
      <trkpt lat="47.28302" lon="0.53661">
        <ele>99.4</ele>
        <time>2023-07-18T07:59:47Z</time>
      </trkpt>
      <trkpt lat="47.28294" lon="0.53661">
        <ele>99.6</ele>
        <time>2023-07-18T07:59:48Z</time>
      </trkpt>
      <trkpt lat="47.28286" lon="0.53662">
        <ele>99.6</ele>
        <time>2023-07-18T07:59:49Z</time>
      </trkpt>
      <trkpt lat="47.28278" lon="0.53662">
        <ele>99.8</ele>
        <time>2023-07-18T07:59:50Z</time>
      </trkpt>
      <trkpt lat="47.28271" lon="0.53663">
        <ele>99.8</ele>
        <time>2023-07-18T07:59:51Z</time>
      </trkpt>
      <trkpt lat="47.28265" lon="0.53665">
        <ele>100.2</ele>
        <time>2023-07-18T07:59:52Z</time>
      </trkpt>
      <trkpt lat="47.28257" lon="0.53665">
        <ele>100.2</ele>
        <time>2023-07-18T07:59:53Z</time>
      </trkpt>
      <trkpt lat="47.2825" lon="0.53667">
        <ele>100.4</ele>
        <time>2023-07-18T07:59:54Z</time>
      </trkpt>
      <trkpt lat="47.28243" lon="0.53668">
        <ele>100.6</ele>
        <time>2023-07-18T07:59:55Z</time>
      </trkpt>
      <trkpt lat="47.28236" lon="0.53669">
        <ele>100.8</ele>
        <time>2023-07-18T07:59:56Z</time>
      </trkpt>
      <trkpt lat="47.28228" lon="0.5367">
        <ele>100.8</ele>
        <time>2023-07-18T07:59:57Z</time>
      </trkpt>
      <trkpt lat="47.28221" lon="0.53671">
        <ele>101</ele>
        <time>2023-07-18T07:59:58Z</time>
      </trkpt>
      <trkpt lat="47.28213" lon="0.53673">
        <ele>101</ele>
        <time>2023-07-18T07:59:59Z</time>
      </trkpt>
      <trkpt lat="47.28207" lon="0.53674">
        <ele>101.2</ele>
        <time>2023-07-18T08:00:00Z</time>
      </trkpt>
      <trkpt lat="47.28199" lon="0.53675">
        <ele>101.4</ele>
        <time>2023-07-18T08:00:01Z</time>
      </trkpt>
      <trkpt lat="47.28192" lon="0.53676">
        <ele>101.4</ele>
        <time>2023-07-18T08:00:02Z</time>
      </trkpt>
      <trkpt lat="47.28185" lon="0.53677">
        <ele>101.4</ele>
        <time>2023-07-18T08:00:03Z</time>
      </trkpt>
      <trkpt lat="47.28177" lon="0.53678">
        <ele>101.4</ele>
        <time>2023-07-18T08:00:04Z</time>
      </trkpt>
      <trkpt lat="47.28172" lon="0.53679">
        <ele>101.6</ele>
        <time>2023-07-18T08:00:05Z</time>
      </trkpt>
      <trkpt lat="47.28163" lon="0.5368">
        <ele>101.6</ele>
        <time>2023-07-18T08:00:06Z</time>
      </trkpt>
      <trkpt lat="47.28156" lon="0.5368">
        <ele>101.6</ele>
        <time>2023-07-18T08:00:07Z</time>
      </trkpt>
      <trkpt lat="47.28148" lon="0.53681">
        <ele>101.8</ele>
        <time>2023-07-18T08:00:08Z</time>
      </trkpt>
      <trkpt lat="47.28141" lon="0.53682">
        <ele>102.2</ele>
        <time>2023-07-18T08:00:09Z</time>
      </trkpt>
      <trkpt lat="47.28134" lon="0.53683">
        <ele>102.4</ele>
        <time>2023-07-18T08:00:10Z</time>
      </trkpt>
      <trkpt lat="47.28127" lon="0.53685">
        <ele>102.6</ele>
        <time>2023-07-18T08:00:11Z</time>
      </trkpt>
      <trkpt lat="47.2812" lon="0.53686">
        <ele>102.8</ele>
        <time>2023-07-18T08:00:12Z</time>
      </trkpt>
      <trkpt lat="47.28113" lon="0.53688">
        <ele>103</ele>
        <time>2023-07-18T08:00:13Z</time>
      </trkpt>
      <trkpt lat="47.28105" lon="0.53689">
        <ele>103.2</ele>
        <time>2023-07-18T08:00:14Z</time>
      </trkpt>
      <trkpt lat="47.28098" lon="0.5369">
        <ele>103.4</ele>
        <time>2023-07-18T08:00:15Z</time>
      </trkpt>
      <trkpt lat="47.28091" lon="0.53691">
        <ele>103.4</ele>
        <time>2023-07-18T08:00:16Z</time>
      </trkpt>
      <trkpt lat="47.28085" lon="0.53692">
        <ele>103.6</ele>
        <time>2023-07-18T08:00:17Z</time>
      </trkpt>
      <trkpt lat="47.28078" lon="0.53693">
        <ele>103.6</ele>
        <time>2023-07-18T08:00:18Z</time>
      </trkpt>
      <trkpt lat="47.28072" lon="0.53694">
        <ele>103.6</ele>
        <time>2023-07-18T08:00:19Z</time>
      </trkpt>
      <trkpt lat="47.28065" lon="0.53696">
        <ele>103.6</ele>
        <time>2023-07-18T08:00:20Z</time>
      </trkpt>
      <trkpt lat="47.28057" lon="0.53697">
        <ele>103.6</ele>
        <time>2023-07-18T08:00:21Z</time>
      </trkpt>
      <trkpt lat="47.2805" lon="0.53698">
        <ele>103.6</ele>
        <time>2023-07-18T08:00:22Z</time>
      </trkpt>
      <trkpt lat="47.28043" lon="0.537">
        <ele>103.6</ele>
        <time>2023-07-18T08:00:23Z</time>
      </trkpt>
      <trkpt lat="47.28037" lon="0.53701">
        <ele>103.6</ele>
        <time>2023-07-18T08:00:24Z</time>
      </trkpt>
      <trkpt lat="47.28029" lon="0.53702">
        <ele>103.8</ele>
        <time>2023-07-18T08:00:25Z</time>
      </trkpt>
      <trkpt lat="47.28022" lon="0.53703">
        <ele>104</ele>
        <time>2023-07-18T08:00:26Z</time>
      </trkpt>
      <trkpt lat="47.28016" lon="0.53705">
        <ele>104</ele>
        <time>2023-07-18T08:00:27Z</time>
      </trkpt>
      <trkpt lat="47.28009" lon="0.53707">
        <ele>104</ele>
        <time>2023-07-18T08:00:28Z</time>
      </trkpt>
      <trkpt lat="47.28001" lon="0.53708">
        <ele>104</ele>
        <time>2023-07-18T08:00:29Z</time>
      </trkpt>
      <trkpt lat="47.27994" lon="0.53709">
        <ele>104</ele>
        <time>2023-07-18T08:00:30Z</time>
      </trkpt>
      <trkpt lat="47.27987" lon="0.53711">
        <ele>104</ele>
        <time>2023-07-18T08:00:31Z</time>
      </trkpt>
      <trkpt lat="47.2798" lon="0.53712">
        <ele>104</ele>
        <time>2023-07-18T08:00:32Z</time>
      </trkpt>
      <trkpt lat="47.27973" lon="0.53714">
        <ele>104.2</ele>
        <time>2023-07-18T08:00:33Z</time>
      </trkpt>
      <trkpt lat="47.27966" lon="0.53715">
        <ele>104.2</ele>
        <time>2023-07-18T08:00:34Z</time>
      </trkpt>
      <trkpt lat="47.27959" lon="0.53715">
        <ele>104.4</ele>
        <time>2023-07-18T08:00:35Z</time>
      </trkpt>
      <trkpt lat="47.27952" lon="0.53716">
        <ele>104.4</ele>
        <time>2023-07-18T08:00:36Z</time>
      </trkpt>
      <trkpt lat="47.27945" lon="0.53716">
        <ele>104.4</ele>
        <time>2023-07-18T08:00:37Z</time>
      </trkpt>
      <trkpt lat="47.27937" lon="0.53717">
        <ele>104.4</ele>
        <time>2023-07-18T08:00:38Z</time>
      </trkpt>
      <trkpt lat="47.2793" lon="0.53717">
        <ele>104.6</ele>
        <time>2023-07-18T08:00:39Z</time>
      </trkpt>
      <trkpt lat="47.27923" lon="0.53718">
        <ele>104.6</ele>
        <time>2023-07-18T08:00:40Z</time>
      </trkpt>
      <trkpt lat="47.27916" lon="0.53718">
        <ele>104.8</ele>
        <time>2023-07-18T08:00:41Z</time>
      </trkpt>
      <trkpt lat="47.27909" lon="0.53719">
        <ele>105</ele>
        <time>2023-07-18T08:00:42Z</time>
      </trkpt>
      <trkpt lat="47.27903" lon="0.53719">
        <ele>105</ele>
        <time>2023-07-18T08:00:43Z</time>
      </trkpt>
      <trkpt lat="47.27895" lon="0.5372">
        <ele>105</ele>
        <time>2023-07-18T08:00:44Z</time>
      </trkpt>
      <trkpt lat="47.27888" lon="0.5372">
        <ele>105</ele>
        <time>2023-07-18T08:00:45Z</time>
      </trkpt>
      <trkpt lat="47.27881" lon="0.53721">
        <ele>105</ele>
        <time>2023-07-18T08:00:46Z</time>
      </trkpt>
      <trkpt lat="47.27874" lon="0.53721">
        <ele>105</ele>
        <time>2023-07-18T08:00:47Z</time>
      </trkpt>
      <trkpt lat="47.27868" lon="0.53721">
        <ele>105</ele>
        <time>2023-07-18T08:00:48Z</time>
      </trkpt>
      <trkpt lat="47.2786" lon="0.53722">
        <ele>105</ele>
        <time>2023-07-18T08:00:49Z</time>
      </trkpt>
      <trkpt lat="47.27853" lon="0.53723">
        <ele>105</ele>
        <time>2023-07-18T08:00:50Z</time>
      </trkpt>
      <trkpt lat="47.27846" lon="0.53724">
        <ele>105</ele>
        <time>2023-07-18T08:00:51Z</time>
      </trkpt>
      <trkpt lat="47.27839" lon="0.53724">
        <ele>105</ele>
        <time>2023-07-18T08:00:52Z</time>
      </trkpt>
      <trkpt lat="47.27831" lon="0.53725">
        <ele>105.2</ele>
        <time>2023-07-18T08:00:53Z</time>
      </trkpt>
      <trkpt lat="47.27823" lon="0.53726">
        <ele>105.2</ele>
        <time>2023-07-18T08:00:54Z</time>
      </trkpt>
      <trkpt lat="47.27816" lon="0.53726">
        <ele>105</ele>
        <time>2023-07-18T08:00:55Z</time>
      </trkpt>
      <trkpt lat="47.27808" lon="0.53726">
        <ele>105</ele>
        <time>2023-07-18T08:00:56Z</time>
      </trkpt>
      <trkpt lat="47.278" lon="0.53726">
        <ele>105</ele>
        <time>2023-07-18T08:00:57Z</time>
      </trkpt>
      <trkpt lat="47.27793" lon="0.53726">
        <ele>104.8</ele>
        <time>2023-07-18T08:00:58Z</time>
      </trkpt>
      <trkpt lat="47.27785" lon="0.53727">
        <ele>104.8</ele>
        <time>2023-07-18T08:00:59Z</time>
      </trkpt>
      <trkpt lat="47.27777" lon="0.53728">
        <ele>104.6</ele>
        <time>2023-07-18T08:01:00Z</time>
      </trkpt>
      <trkpt lat="47.27769" lon="0.53729">
        <ele>104.6</ele>
        <time>2023-07-18T08:01:01Z</time>
      </trkpt>
      <trkpt lat="47.27761" lon="0.53731">
        <ele>104.4</ele>
        <time>2023-07-18T08:01:02Z</time>
      </trkpt>
      <trkpt lat="47.27753" lon="0.53734">
        <ele>104.2</ele>
        <time>2023-07-18T08:01:03Z</time>
      </trkpt>
      <trkpt lat="47.27746" lon="0.53737">
        <ele>104</ele>
        <time>2023-07-18T08:01:04Z</time>
      </trkpt>
      <trkpt lat="47.27738" lon="0.53742">
        <ele>103.8</ele>
        <time>2023-07-18T08:01:05Z</time>
      </trkpt>
      <trkpt lat="47.2773" lon="0.53747">
        <ele>103.6</ele>
        <time>2023-07-18T08:01:06Z</time>
      </trkpt>
      <trkpt lat="47.27723" lon="0.53752">
        <ele>103.6</ele>
        <time>2023-07-18T08:01:07Z</time>
      </trkpt>
      <trkpt lat="47.27716" lon="0.53758">
        <ele>103.4</ele>
        <time>2023-07-18T08:01:08Z</time>
      </trkpt>
      <trkpt lat="47.27708" lon="0.53764">
        <ele>103.4</ele>
        <time>2023-07-18T08:01:09Z</time>
      </trkpt>
      <trkpt lat="47.277" lon="0.5377">
        <ele>103.2</ele>
        <time>2023-07-18T08:01:10Z</time>
      </trkpt>
      <trkpt lat="47.27693" lon="0.53777">
        <ele>103</ele>
        <time>2023-07-18T08:01:11Z</time>
      </trkpt>
      <trkpt lat="47.27686" lon="0.53784">
        <ele>102.8</ele>
        <time>2023-07-18T08:01:12Z</time>
      </trkpt>
      <trkpt lat="47.27679" lon="0.5379">
        <ele>102.8</ele>
        <time>2023-07-18T08:01:13Z</time>
      </trkpt>
      <trkpt lat="47.27672" lon="0.53797">
        <ele>102.6</ele>
        <time>2023-07-18T08:01:14Z</time>
      </trkpt>
      <trkpt lat="47.27666" lon="0.53803">
        <ele>102.4</ele>
        <time>2023-07-18T08:01:15Z</time>
      </trkpt>
      <trkpt lat="47.27658" lon="0.53811">
        <ele>102.2</ele>
        <time>2023-07-18T08:01:16Z</time>
      </trkpt>
      <trkpt lat="47.2765" lon="0.53818">
        <ele>102.2</ele>
        <time>2023-07-18T08:01:17Z</time>
      </trkpt>
      <trkpt lat="47.27643" lon="0.53824">
        <ele>102</ele>
        <time>2023-07-18T08:01:18Z</time>
      </trkpt>
      <trkpt lat="47.27636" lon="0.53831">
        <ele>101.8</ele>
        <time>2023-07-18T08:01:19Z</time>
      </trkpt>
      <trkpt lat="47.27629" lon="0.53838">
        <ele>101.6</ele>
        <time>2023-07-18T08:01:20Z</time>
      </trkpt>
      <trkpt lat="47.27622" lon="0.53844">
        <ele>101.2</ele>
        <time>2023-07-18T08:01:21Z</time>
      </trkpt>
      <trkpt lat="47.27614" lon="0.53851">
        <ele>101.2</ele>
        <time>2023-07-18T08:01:22Z</time>
      </trkpt>
      <trkpt lat="47.27607" lon="0.53856">
        <ele>101.2</ele>
        <time>2023-07-18T08:01:23Z</time>
      </trkpt>
      <trkpt lat="47.27599" lon="0.53862">
        <ele>101</ele>
        <time>2023-07-18T08:01:24Z</time>
      </trkpt>
      <trkpt lat="47.27591" lon="0.53866">
        <ele>100.8</ele>
        <time>2023-07-18T08:01:25Z</time>
      </trkpt>
      <trkpt lat="47.27583" lon="0.5387">
        <ele>100.6</ele>
        <time>2023-07-18T08:01:26Z</time>
      </trkpt>
      <trkpt lat="47.27575" lon="0.53874">
        <ele>100.4</ele>
        <time>2023-07-18T08:01:27Z</time>
      </trkpt>
      <trkpt lat="47.27569" lon="0.53878">
        <ele>100</ele>
        <time>2023-07-18T08:01:28Z</time>
      </trkpt>
      <trkpt lat="47.27561" lon="0.53881">
        <ele>99.8</ele>
        <time>2023-07-18T08:01:29Z</time>
      </trkpt>
      <trkpt lat="47.2755" lon="0.53884">
        <ele>99.6</ele>
        <time>2023-07-18T08:01:30Z</time>
      </trkpt>
      <trkpt lat="47.27542" lon="0.53883">
        <ele>99.2</ele>
        <time>2023-07-18T08:01:31Z</time>
      </trkpt>
      <trkpt lat="47.27534" lon="0.53881">
        <ele>99</ele>
        <time>2023-07-18T08:01:32Z</time>
      </trkpt>
      <trkpt lat="47.27525" lon="0.53878">
        <ele>98.6</ele>
        <time>2023-07-18T08:01:33Z</time>
      </trkpt>
      <trkpt lat="47.27516" lon="0.53875">
        <ele>98.2</ele>
        <time>2023-07-18T08:01:34Z</time>
      </trkpt>
      <trkpt lat="47.27508" lon="0.53872">
        <ele>97.8</ele>
        <time>2023-07-18T08:01:35Z</time>
      </trkpt>
      <trkpt lat="47.27499" lon="0.5387">
        <ele>97.6</ele>
        <time>2023-07-18T08:01:36Z</time>
      </trkpt>
      <trkpt lat="47.27489" lon="0.5387">
        <ele>97.4</ele>
        <time>2023-07-18T08:01:37Z</time>
      </trkpt>
      <trkpt lat="47.2748" lon="0.53871">
        <ele>97</ele>
        <time>2023-07-18T08:01:38Z</time>
      </trkpt>
      <trkpt lat="47.2747" lon="0.53874">
        <ele>97</ele>
        <time>2023-07-18T08:01:39Z</time>
      </trkpt>
      <trkpt lat="47.27462" lon="0.53877">
        <ele>97.2</ele>
        <time>2023-07-18T08:01:40Z</time>
      </trkpt>
      <trkpt lat="47.27453" lon="0.5388">
        <ele>97.2</ele>
        <time>2023-07-18T08:01:41Z</time>
      </trkpt>
      <trkpt lat="47.27444" lon="0.53884">
        <ele>97.4</ele>
        <time>2023-07-18T08:01:42Z</time>
      </trkpt>
      <trkpt lat="47.27438" lon="0.53887">
        <ele>97.6</ele>
        <time>2023-07-18T08:01:43Z</time>
      </trkpt>
      <trkpt lat="47.27429" lon="0.53892">
        <ele>97.8</ele>
        <time>2023-07-18T08:01:44Z</time>
      </trkpt>
      <trkpt lat="47.27422" lon="0.53895">
        <ele>98</ele>
        <time>2023-07-18T08:01:45Z</time>
      </trkpt>
      <trkpt lat="47.27414" lon="0.53899">
        <ele>98.2</ele>
        <time>2023-07-18T08:01:46Z</time>
      </trkpt>
      <trkpt lat="47.27408" lon="0.53902">
        <ele>98.4</ele>
        <time>2023-07-18T08:01:47Z</time>
      </trkpt>
      <trkpt lat="47.27399" lon="0.53906">
        <ele>98.6</ele>
        <time>2023-07-18T08:01:48Z</time>
      </trkpt>
      <trkpt lat="47.27392" lon="0.53909">
        <ele>99</ele>
        <time>2023-07-18T08:01:49Z</time>
      </trkpt>
      <trkpt lat="47.27385" lon="0.53913">
        <ele>99</ele>
        <time>2023-07-18T08:01:50Z</time>
      </trkpt>
      <trkpt lat="47.27378" lon="0.53916">
        <ele>99.2</ele>
        <time>2023-07-18T08:01:51Z</time>
      </trkpt>
      <trkpt lat="47.27371" lon="0.5392">
        <ele>99.4</ele>
        <time>2023-07-18T08:01:52Z</time>
      </trkpt>
      <trkpt lat="47.27364" lon="0.53922">
        <ele>99.6</ele>
        <time>2023-07-18T08:01:53Z</time>
      </trkpt>
      <trkpt lat="47.27357" lon="0.53925">
        <ele>99.6</ele>
        <time>2023-07-18T08:01:54Z</time>
      </trkpt>
      <trkpt lat="47.2735" lon="0.53927">
        <ele>99.8</ele>
        <time>2023-07-18T08:01:55Z</time>
      </trkpt>
      <trkpt lat="47.27343" lon="0.53929">
        <ele>100</ele>
        <time>2023-07-18T08:01:56Z</time>
      </trkpt>
      <trkpt lat="47.27336" lon="0.53931">
        <ele>100.2</ele>
        <time>2023-07-18T08:01:57Z</time>
      </trkpt>
      <trkpt lat="47.27328" lon="0.53933">
        <ele>100.4</ele>
        <time>2023-07-18T08:01:58Z</time>
      </trkpt>
      <trkpt lat="47.27321" lon="0.53935">
        <ele>100.6</ele>
        <time>2023-07-18T08:01:59Z</time>
      </trkpt>
      <trkpt lat="47.27316" lon="0.53937">
        <ele>100.6</ele>
        <time>2023-07-18T08:02:00Z</time>
      </trkpt>
      <trkpt lat="47.27308" lon="0.53939">
        <ele>100.8</ele>
        <time>2023-07-18T08:02:01Z</time>
      </trkpt>
      <trkpt lat="47.27302" lon="0.53942">
        <ele>101</ele>
        <time>2023-07-18T08:02:02Z</time>
      </trkpt>
      <trkpt lat="47.27295" lon="0.53945">
        <ele>101</ele>
        <time>2023-07-18T08:02:03Z</time>
      </trkpt>
      <trkpt lat="47.27289" lon="0.53948">
        <ele>101</ele>
        <time>2023-07-18T08:02:04Z</time>
      </trkpt>
      <trkpt lat="47.27283" lon="0.53951">
        <ele>101</ele>
        <time>2023-07-18T08:02:05Z</time>
      </trkpt>
      <trkpt lat="47.27279" lon="0.53953">
        <ele>101.2</ele>
        <time>2023-07-18T08:02:06Z</time>
      </trkpt>
      <trkpt lat="47.27271" lon="0.53956">
        <ele>101.2</ele>
        <time>2023-07-18T08:02:07Z</time>
      </trkpt>
      <trkpt lat="47.27265" lon="0.53958">
        <ele>101.2</ele>
        <time>2023-07-18T08:02:08Z</time>
      </trkpt>
      <trkpt lat="47.27259" lon="0.53959">
        <ele>101.2</ele>
        <time>2023-07-18T08:02:09Z</time>
      </trkpt>
      <trkpt lat="47.27253" lon="0.53962">
        <ele>101.4</ele>
        <time>2023-07-18T08:02:10Z</time>
      </trkpt>
      <trkpt lat="47.27248" lon="0.53964">
        <ele>101.4</ele>
        <time>2023-07-18T08:02:11Z</time>
      </trkpt>
      <trkpt lat="47.2724" lon="0.53966">
        <ele>101.4</ele>
        <time>2023-07-18T08:02:12Z</time>
      </trkpt>
      <trkpt lat="47.27234" lon="0.53968">
        <ele>101.4</ele>
        <time>2023-07-18T08:02:13Z</time>
      </trkpt>
      <trkpt lat="47.27227" lon="0.53971">
        <ele>101.8</ele>
        <time>2023-07-18T08:02:14Z</time>
      </trkpt>
      <trkpt lat="47.27222" lon="0.53972">
        <ele>101.8</ele>
        <time>2023-07-18T08:02:15Z</time>
      </trkpt>
      <trkpt lat="47.27214" lon="0.53975">
        <ele>101.8</ele>
        <time>2023-07-18T08:02:16Z</time>
      </trkpt>
      <trkpt lat="47.27207" lon="0.53977">
        <ele>101.6</ele>
        <time>2023-07-18T08:02:17Z</time>
      </trkpt>
      <trkpt lat="47.272" lon="0.53979">
        <ele>101.8</ele>
        <time>2023-07-18T08:02:18Z</time>
      </trkpt>
      <trkpt lat="47.27194" lon="0.53981">
        <ele>101.8</ele>
        <time>2023-07-18T08:02:19Z</time>
      </trkpt>
      <trkpt lat="47.27187" lon="0.53983">
        <ele>102</ele>
        <time>2023-07-18T08:02:20Z</time>
      </trkpt>
      <trkpt lat="47.27178" lon="0.53984">
        <ele>102</ele>
        <time>2023-07-18T08:02:21Z</time>
      </trkpt>
      <trkpt lat="47.2717" lon="0.53985">
        <ele>102</ele>
        <time>2023-07-18T08:02:22Z</time>
      </trkpt>
      <trkpt lat="47.27163" lon="0.53986">
        <ele>102</ele>
        <time>2023-07-18T08:02:23Z</time>
      </trkpt>
      <trkpt lat="47.27155" lon="0.53987">
        <ele>102</ele>
        <time>2023-07-18T08:02:24Z</time>
      </trkpt>
      <trkpt lat="47.27149" lon="0.53988">
        <ele>101.8</ele>
        <time>2023-07-18T08:02:25Z</time>
      </trkpt>
      <trkpt lat="47.2714" lon="0.53989">
        <ele>102</ele>
        <time>2023-07-18T08:02:26Z</time>
      </trkpt>
      <trkpt lat="47.27132" lon="0.5399">
        <ele>102</ele>
        <time>2023-07-18T08:02:27Z</time>
      </trkpt>
      <trkpt lat="47.27125" lon="0.53991">
        <ele>101.8</ele>
        <time>2023-07-18T08:02:28Z</time>
      </trkpt>
      <trkpt lat="47.27119" lon="0.53992">
        <ele>101.8</ele>
        <time>2023-07-18T08:02:29Z</time>
      </trkpt>
      <trkpt lat="47.27111" lon="0.53993">
        <ele>101.8</ele>
        <time>2023-07-18T08:02:30Z</time>
      </trkpt>
      <trkpt lat="47.27103" lon="0.53994">
        <ele>101.8</ele>
        <time>2023-07-18T08:02:31Z</time>
      </trkpt>
      <trkpt lat="47.27097" lon="0.53994">
        <ele>101.8</ele>
        <time>2023-07-18T08:02:32Z</time>
      </trkpt>
      <trkpt lat="47.27089" lon="0.53995">
        <ele>101.8</ele>
        <time>2023-07-18T08:02:33Z</time>
      </trkpt>
      <trkpt lat="47.27082" lon="0.53996">
        <ele>101.8</ele>
        <time>2023-07-18T08:02:34Z</time>
      </trkpt>
      <trkpt lat="47.27073" lon="0.53996">
        <ele>101.8</ele>
        <time>2023-07-18T08:02:35Z</time>
      </trkpt>
      <trkpt lat="47.27065" lon="0.53998">
        <ele>101.8</ele>
        <time>2023-07-18T08:02:36Z</time>
      </trkpt>
      <trkpt lat="47.27057" lon="0.53999">
        <ele>101.8</ele>
        <time>2023-07-18T08:02:37Z</time>
      </trkpt>
      <trkpt lat="47.27051" lon="0.54">
        <ele>101.8</ele>
        <time>2023-07-18T08:02:38Z</time>
      </trkpt>
      <trkpt lat="47.27042" lon="0.54001">
        <ele>101.6</ele>
        <time>2023-07-18T08:02:39Z</time>
      </trkpt>
      <trkpt lat="47.27035" lon="0.54002">
        <ele>101.6</ele>
        <time>2023-07-18T08:02:40Z</time>
      </trkpt>
      <trkpt lat="47.27027" lon="0.54003">
        <ele>101.4</ele>
        <time>2023-07-18T08:02:41Z</time>
      </trkpt>
      <trkpt lat="47.2702" lon="0.54003">
        <ele>101.6</ele>
        <time>2023-07-18T08:02:42Z</time>
      </trkpt>
      <trkpt lat="47.27014" lon="0.54004">
        <ele>101.6</ele>
        <time>2023-07-18T08:02:43Z</time>
      </trkpt>
      <trkpt lat="47.27005" lon="0.54005">
        <ele>101.6</ele>
        <time>2023-07-18T08:02:44Z</time>
      </trkpt>
      <trkpt lat="47.26998" lon="0.54006">
        <ele>101.8</ele>
        <time>2023-07-18T08:02:45Z</time>
      </trkpt>
      <trkpt lat="47.26991" lon="0.54007">
        <ele>101.8</ele>
        <time>2023-07-18T08:02:46Z</time>
      </trkpt>
      <trkpt lat="47.26982" lon="0.54008">
        <ele>101.8</ele>
        <time>2023-07-18T08:02:47Z</time>
      </trkpt>
      <trkpt lat="47.26976" lon="0.54009">
        <ele>101.8</ele>
        <time>2023-07-18T08:02:48Z</time>
      </trkpt>
      <trkpt lat="47.26968" lon="0.5401">
        <ele>101.8</ele>
        <time>2023-07-18T08:02:49Z</time>
      </trkpt>
      <trkpt lat="47.2696" lon="0.54011">
        <ele>102</ele>
        <time>2023-07-18T08:02:50Z</time>
      </trkpt>
      <trkpt lat="47.26955" lon="0.54012">
        <ele>102.2</ele>
        <time>2023-07-18T08:02:51Z</time>
      </trkpt>
      <trkpt lat="47.26947" lon="0.54012">
        <ele>102.2</ele>
        <time>2023-07-18T08:02:52Z</time>
      </trkpt>
      <trkpt lat="47.26939" lon="0.54013">
        <ele>102.2</ele>
        <time>2023-07-18T08:02:53Z</time>
      </trkpt>
      <trkpt lat="47.26932" lon="0.54015">
        <ele>102.2</ele>
        <time>2023-07-18T08:02:54Z</time>
      </trkpt>
      <trkpt lat="47.26925" lon="0.54016">
        <ele>102.2</ele>
        <time>2023-07-18T08:02:55Z</time>
      </trkpt>
      <trkpt lat="47.26917" lon="0.54018">
        <ele>102.4</ele>
        <time>2023-07-18T08:02:56Z</time>
      </trkpt>
      <trkpt lat="47.26911" lon="0.5402">
        <ele>102.4</ele>
        <time>2023-07-18T08:02:57Z</time>
      </trkpt>
      <trkpt lat="47.26903" lon="0.54023">
        <ele>102.4</ele>
        <time>2023-07-18T08:02:58Z</time>
      </trkpt>
      <trkpt lat="47.26896" lon="0.54026">
        <ele>102.4</ele>
        <time>2023-07-18T08:02:59Z</time>
      </trkpt>
      <trkpt lat="47.26889" lon="0.54029">
        <ele>102.6</ele>
        <time>2023-07-18T08:03:00Z</time>
      </trkpt>
      <trkpt lat="47.26882" lon="0.54034">
        <ele>102.8</ele>
        <time>2023-07-18T08:03:01Z</time>
      </trkpt>
      <trkpt lat="47.26876" lon="0.54037">
        <ele>102.8</ele>
        <time>2023-07-18T08:03:02Z</time>
      </trkpt>
      <trkpt lat="47.26869" lon="0.54043">
        <ele>102.8</ele>
        <time>2023-07-18T08:03:03Z</time>
      </trkpt>
      <trkpt lat="47.26862" lon="0.54049">
        <ele>103</ele>
        <time>2023-07-18T08:03:04Z</time>
      </trkpt>
      <trkpt lat="47.26856" lon="0.54055">
        <ele>103.4</ele>
        <time>2023-07-18T08:03:05Z</time>
      </trkpt>
      <trkpt lat="47.26852" lon="0.54059">
        <ele>103.6</ele>
        <time>2023-07-18T08:03:06Z</time>
      </trkpt>
      <trkpt lat="47.26846" lon="0.54065">
        <ele>103.4</ele>
        <time>2023-07-18T08:03:07Z</time>
      </trkpt>
      <trkpt lat="47.26838" lon="0.54072">
        <ele>103.4</ele>
        <time>2023-07-18T08:03:08Z</time>
      </trkpt>
      <trkpt lat="47.26832" lon="0.54078">
        <ele>103.4</ele>
        <time>2023-07-18T08:03:09Z</time>
      </trkpt>
      <trkpt lat="47.26828" lon="0.54083">
        <ele>103.4</ele>
        <time>2023-07-18T08:03:10Z</time>
      </trkpt>
      <trkpt lat="47.26822" lon="0.54089">
        <ele>103.2</ele>
        <time>2023-07-18T08:03:11Z</time>
      </trkpt>
      <trkpt lat="47.26815" lon="0.54096">
        <ele>103.4</ele>
        <time>2023-07-18T08:03:12Z</time>
      </trkpt>
      <trkpt lat="47.26809" lon="0.54102">
        <ele>103.2</ele>
        <time>2023-07-18T08:03:13Z</time>
      </trkpt>
      <trkpt lat="47.26804" lon="0.54107">
        <ele>103.4</ele>
        <time>2023-07-18T08:03:14Z</time>
      </trkpt>
      <trkpt lat="47.26799" lon="0.54113">
        <ele>103.4</ele>
        <time>2023-07-18T08:03:15Z</time>
      </trkpt>
      <trkpt lat="47.26793" lon="0.54119">
        <ele>103.2</ele>
        <time>2023-07-18T08:03:16Z</time>
      </trkpt>
      <trkpt lat="47.26788" lon="0.54125">
        <ele>103.4</ele>
        <time>2023-07-18T08:03:17Z</time>
      </trkpt>
      <trkpt lat="47.26781" lon="0.54132">
        <ele>103.6</ele>
        <time>2023-07-18T08:03:18Z</time>
      </trkpt>
      <trkpt lat="47.26775" lon="0.54138">
        <ele>103.8</ele>
        <time>2023-07-18T08:03:19Z</time>
      </trkpt>
      <trkpt lat="47.2677" lon="0.54144">
        <ele>103.8</ele>
        <time>2023-07-18T08:03:20Z</time>
      </trkpt>
      <trkpt lat="47.26765" lon="0.54149">
        <ele>104</ele>
        <time>2023-07-18T08:03:21Z</time>
      </trkpt>
      <trkpt lat="47.26759" lon="0.54156">
        <ele>104</ele>
        <time>2023-07-18T08:03:22Z</time>
      </trkpt>
      <trkpt lat="47.26753" lon="0.54163">
        <ele>104.2</ele>
        <time>2023-07-18T08:03:23Z</time>
      </trkpt>
      <trkpt lat="47.26749" lon="0.54167">
        <ele>104.2</ele>
        <time>2023-07-18T08:03:24Z</time>
      </trkpt>
      <trkpt lat="47.26743" lon="0.54173">
        <ele>104.2</ele>
        <time>2023-07-18T08:03:25Z</time>
      </trkpt>
      <trkpt lat="47.26737" lon="0.54179">
        <ele>104.2</ele>
        <time>2023-07-18T08:03:26Z</time>
      </trkpt>
      <trkpt lat="47.26731" lon="0.54186">
        <ele>104</ele>
        <time>2023-07-18T08:03:27Z</time>
      </trkpt>
      <trkpt lat="47.26725" lon="0.54192">
        <ele>104</ele>
        <time>2023-07-18T08:03:28Z</time>
      </trkpt>
      <trkpt lat="47.26721" lon="0.54197">
        <ele>104.2</ele>
        <time>2023-07-18T08:03:29Z</time>
      </trkpt>
      <trkpt lat="47.26716" lon="0.54203">
        <ele>104.4</ele>
        <time>2023-07-18T08:03:30Z</time>
      </trkpt>
      <trkpt lat="47.26709" lon="0.54211">
        <ele>104.4</ele>
        <time>2023-07-18T08:03:31Z</time>
      </trkpt>
      <trkpt lat="47.26704" lon="0.54217">
        <ele>104.2</ele>
        <time>2023-07-18T08:03:32Z</time>
      </trkpt>
      <trkpt lat="47.26699" lon="0.54222">
        <ele>104.4</ele>
        <time>2023-07-18T08:03:33Z</time>
      </trkpt>
      <trkpt lat="47.26693" lon="0.54228">
        <ele>104.6</ele>
        <time>2023-07-18T08:03:34Z</time>
      </trkpt>
      <trkpt lat="47.26688" lon="0.54234">
        <ele>104.8</ele>
        <time>2023-07-18T08:03:35Z</time>
      </trkpt>
      <trkpt lat="47.26683" lon="0.5424">
        <ele>105</ele>
        <time>2023-07-18T08:03:36Z</time>
      </trkpt>
      <trkpt lat="47.26677" lon="0.54246">
        <ele>105.2</ele>
        <time>2023-07-18T08:03:37Z</time>
      </trkpt>
      <trkpt lat="47.26672" lon="0.54252">
        <ele>105.2</ele>
        <time>2023-07-18T08:03:38Z</time>
      </trkpt>
      <trkpt lat="47.26666" lon="0.54258">
        <ele>105.4</ele>
        <time>2023-07-18T08:03:39Z</time>
      </trkpt>
      <trkpt lat="47.26661" lon="0.54263">
        <ele>105.4</ele>
        <time>2023-07-18T08:03:40Z</time>
      </trkpt>
      <trkpt lat="47.26655" lon="0.5427">
        <ele>105.4</ele>
        <time>2023-07-18T08:03:41Z</time>
      </trkpt>
      <trkpt lat="47.26649" lon="0.54277">
        <ele>105.4</ele>
        <time>2023-07-18T08:03:42Z</time>
      </trkpt>
      <trkpt lat="47.26644" lon="0.54282">
        <ele>105.4</ele>
        <time>2023-07-18T08:03:43Z</time>
      </trkpt>
      <trkpt lat="47.2664" lon="0.54287">
        <ele>105.6</ele>
        <time>2023-07-18T08:03:44Z</time>
      </trkpt>
      <trkpt lat="47.26633" lon="0.54294">
        <ele>105.6</ele>
        <time>2023-07-18T08:03:45Z</time>
      </trkpt>
      <trkpt lat="47.26628" lon="0.543">
        <ele>105.6</ele>
        <time>2023-07-18T08:03:46Z</time>
      </trkpt>
      <trkpt lat="47.26622" lon="0.54306">
        <ele>105.4</ele>
        <time>2023-07-18T08:03:47Z</time>
      </trkpt>
      <trkpt lat="47.26618" lon="0.54311">
        <ele>105.4</ele>
        <time>2023-07-18T08:03:48Z</time>
      </trkpt>
      <trkpt lat="47.26612" lon="0.54317">
        <ele>105.4</ele>
        <time>2023-07-18T08:03:49Z</time>
      </trkpt>
      <trkpt lat="47.26606" lon="0.54324">
        <ele>105.4</ele>
        <time>2023-07-18T08:03:50Z</time>
      </trkpt>
      <trkpt lat="47.266" lon="0.54331">
        <ele>105.4</ele>
        <time>2023-07-18T08:03:51Z</time>
      </trkpt>
      <trkpt lat="47.26595" lon="0.54336">
        <ele>105.4</ele>
        <time>2023-07-18T08:03:52Z</time>
      </trkpt>
      <trkpt lat="47.26589" lon="0.54342">
        <ele>105.4</ele>
        <time>2023-07-18T08:03:53Z</time>
      </trkpt>
      <trkpt lat="47.26584" lon="0.54349">
        <ele>105.4</ele>
        <time>2023-07-18T08:03:54Z</time>
      </trkpt>
      <trkpt lat="47.26578" lon="0.54356">
        <ele>105.6</ele>
        <time>2023-07-18T08:03:55Z</time>
      </trkpt>
      <trkpt lat="47.26572" lon="0.54362">
        <ele>105.8</ele>
        <time>2023-07-18T08:03:56Z</time>
      </trkpt>
      <trkpt lat="47.26566" lon="0.54368">
        <ele>106</ele>
        <time>2023-07-18T08:03:57Z</time>
      </trkpt>
      <trkpt lat="47.26561" lon="0.54374">
        <ele>106</ele>
        <time>2023-07-18T08:03:58Z</time>
      </trkpt>
      <trkpt lat="47.26556" lon="0.54381">
        <ele>105.8</ele>
        <time>2023-07-18T08:03:59Z</time>
      </trkpt>
      <trkpt lat="47.2655" lon="0.54388">
        <ele>105.4</ele>
        <time>2023-07-18T08:04:00Z</time>
      </trkpt>
      <trkpt lat="47.26544" lon="0.54394">
        <ele>105.2</ele>
        <time>2023-07-18T08:04:01Z</time>
      </trkpt>
      <trkpt lat="47.26538" lon="0.54401">
        <ele>105.2</ele>
        <time>2023-07-18T08:04:02Z</time>
      </trkpt>
      <trkpt lat="47.26532" lon="0.54407">
        <ele>105</ele>
        <time>2023-07-18T08:04:03Z</time>
      </trkpt>
      <trkpt lat="47.26527" lon="0.54414">
        <ele>105</ele>
        <time>2023-07-18T08:04:04Z</time>
      </trkpt>
      <trkpt lat="47.26521" lon="0.5442">
        <ele>105</ele>
        <time>2023-07-18T08:04:05Z</time>
      </trkpt>
      <trkpt lat="47.26515" lon="0.54426">
        <ele>105</ele>
        <time>2023-07-18T08:04:06Z</time>
      </trkpt>
      <trkpt lat="47.26509" lon="0.54432">
        <ele>104.8</ele>
        <time>2023-07-18T08:04:07Z</time>
      </trkpt>
      <trkpt lat="47.26503" lon="0.54439">
        <ele>104.8</ele>
        <time>2023-07-18T08:04:08Z</time>
      </trkpt>
      <trkpt lat="47.26497" lon="0.54446">
        <ele>104.6</ele>
        <time>2023-07-18T08:04:09Z</time>
      </trkpt>
      <trkpt lat="47.26492" lon="0.54452">
        <ele>104.4</ele>
        <time>2023-07-18T08:04:10Z</time>
      </trkpt>
      <trkpt lat="47.26487" lon="0.54458">
        <ele>104.2</ele>
        <time>2023-07-18T08:04:11Z</time>
      </trkpt>
      <trkpt lat="47.2648" lon="0.54464">
        <ele>104.2</ele>
        <time>2023-07-18T08:04:12Z</time>
      </trkpt>
      <trkpt lat="47.26475" lon="0.5447">
        <ele>104</ele>
        <time>2023-07-18T08:04:13Z</time>
      </trkpt>
      <trkpt lat="47.26469" lon="0.54476">
        <ele>104.2</ele>
        <time>2023-07-18T08:04:14Z</time>
      </trkpt>
      <trkpt lat="47.26463" lon="0.54483">
        <ele>104</ele>
        <time>2023-07-18T08:04:15Z</time>
      </trkpt>
      <trkpt lat="47.26457" lon="0.54489">
        <ele>103.8</ele>
        <time>2023-07-18T08:04:16Z</time>
      </trkpt>
      <trkpt lat="47.26451" lon="0.54495">
        <ele>103.6</ele>
        <time>2023-07-18T08:04:17Z</time>
      </trkpt>
      <trkpt lat="47.26445" lon="0.54501">
        <ele>103.4</ele>
        <time>2023-07-18T08:04:18Z</time>
      </trkpt>
      <trkpt lat="47.26439" lon="0.54508">
        <ele>103.2</ele>
        <time>2023-07-18T08:04:19Z</time>
      </trkpt>
      <trkpt lat="47.26433" lon="0.54515">
        <ele>103</ele>
        <time>2023-07-18T08:04:20Z</time>
      </trkpt>
      <trkpt lat="47.26428" lon="0.54521">
        <ele>102.8</ele>
        <time>2023-07-18T08:04:21Z</time>
      </trkpt>
      <trkpt lat="47.26421" lon="0.54528">
        <ele>103</ele>
        <time>2023-07-18T08:04:22Z</time>
      </trkpt>
      <trkpt lat="47.26416" lon="0.54535">
        <ele>102.8</ele>
        <time>2023-07-18T08:04:23Z</time>
      </trkpt>
      <trkpt lat="47.2641" lon="0.54542">
        <ele>102.6</ele>
        <time>2023-07-18T08:04:24Z</time>
      </trkpt>
      <trkpt lat="47.26404" lon="0.54549">
        <ele>102.4</ele>
        <time>2023-07-18T08:04:25Z</time>
      </trkpt>
      <trkpt lat="47.26398" lon="0.54555">
        <ele>102.2</ele>
        <time>2023-07-18T08:04:26Z</time>
      </trkpt>
      <trkpt lat="47.26392" lon="0.54561">
        <ele>102</ele>
        <time>2023-07-18T08:04:27Z</time>
      </trkpt>
      <trkpt lat="47.26387" lon="0.54567">
        <ele>102</ele>
        <time>2023-07-18T08:04:28Z</time>
      </trkpt>
      <trkpt lat="47.2638" lon="0.54574">
        <ele>101.6</ele>
        <time>2023-07-18T08:04:29Z</time>
      </trkpt>
      <trkpt lat="47.26374" lon="0.54581">
        <ele>101.4</ele>
        <time>2023-07-18T08:04:30Z</time>
      </trkpt>
      <trkpt lat="47.26368" lon="0.54588">
        <ele>101</ele>
        <time>2023-07-18T08:04:31Z</time>
      </trkpt>
      <trkpt lat="47.26362" lon="0.54595">
        <ele>100.8</ele>
        <time>2023-07-18T08:04:32Z</time>
      </trkpt>
      <trkpt lat="47.26356" lon="0.54602">
        <ele>100.4</ele>
        <time>2023-07-18T08:04:33Z</time>
      </trkpt>
      <trkpt lat="47.2635" lon="0.5461">
        <ele>100.2</ele>
        <time>2023-07-18T08:04:34Z</time>
      </trkpt>
      <trkpt lat="47.26344" lon="0.54617">
        <ele>100</ele>
        <time>2023-07-18T08:04:35Z</time>
      </trkpt>
      <trkpt lat="47.26338" lon="0.54624">
        <ele>99.6</ele>
        <time>2023-07-18T08:04:36Z</time>
      </trkpt>
      <trkpt lat="47.26331" lon="0.54632">
        <ele>99.4</ele>
        <time>2023-07-18T08:04:37Z</time>
      </trkpt>
      <trkpt lat="47.26325" lon="0.54638">
        <ele>98.8</ele>
        <time>2023-07-18T08:04:38Z</time>
      </trkpt>
      <trkpt lat="47.26318" lon="0.54644">
        <ele>98</ele>
        <time>2023-07-18T08:04:39Z</time>
      </trkpt>
      <trkpt lat="47.2631" lon="0.54647">
        <ele>97.4</ele>
        <time>2023-07-18T08:04:40Z</time>
      </trkpt>
      <trkpt lat="47.26301" lon="0.54646">
        <ele>97.2</ele>
        <time>2023-07-18T08:04:41Z</time>
      </trkpt>
      <trkpt lat="47.26293" lon="0.54645">
        <ele>96.8</ele>
        <time>2023-07-18T08:04:42Z</time>
      </trkpt>
      <trkpt lat="47.26284" lon="0.54644">
        <ele>96.6</ele>
        <time>2023-07-18T08:04:43Z</time>
      </trkpt>
      <trkpt lat="47.26275" lon="0.54642">
        <ele>96.4</ele>
        <time>2023-07-18T08:04:44Z</time>
      </trkpt>
      <trkpt lat="47.26267" lon="0.5464">
        <ele>96.2</ele>
        <time>2023-07-18T08:04:45Z</time>
      </trkpt>
      <trkpt lat="47.26258" lon="0.54639">
        <ele>96</ele>
        <time>2023-07-18T08:04:46Z</time>
      </trkpt>
      <trkpt lat="47.2625" lon="0.54637">
        <ele>95.8</ele>
        <time>2023-07-18T08:04:47Z</time>
      </trkpt>
      <trkpt lat="47.26241" lon="0.54636">
        <ele>95.8</ele>
        <time>2023-07-18T08:04:48Z</time>
      </trkpt>
      <trkpt lat="47.26234" lon="0.54634">
        <ele>95.8</ele>
        <time>2023-07-18T08:04:49Z</time>
      </trkpt>
      <trkpt lat="47.26225" lon="0.54632">
        <ele>96</ele>
        <time>2023-07-18T08:04:50Z</time>
      </trkpt>
      <trkpt lat="47.2622" lon="0.5463">
        <ele>95.8</ele>
        <time>2023-07-18T08:04:51Z</time>
      </trkpt>
      <trkpt lat="47.26213" lon="0.54629">
        <ele>95.8</ele>
        <time>2023-07-18T08:04:52Z</time>
      </trkpt>
      <trkpt lat="47.26206" lon="0.54628">
        <ele>95.8</ele>
        <time>2023-07-18T08:04:53Z</time>
      </trkpt>
      <trkpt lat="47.26199" lon="0.54627">
        <ele>95.8</ele>
        <time>2023-07-18T08:04:54Z</time>
      </trkpt>
      <trkpt lat="47.26191" lon="0.54626">
        <ele>96</ele>
        <time>2023-07-18T08:04:55Z</time>
      </trkpt>
      <trkpt lat="47.26184" lon="0.54625">
        <ele>95.8</ele>
        <time>2023-07-18T08:04:56Z</time>
      </trkpt>
      <trkpt lat="47.26178" lon="0.54624">
        <ele>95.8</ele>
        <time>2023-07-18T08:04:57Z</time>
      </trkpt>
      <trkpt lat="47.2617" lon="0.54622">
        <ele>95.6</ele>
        <time>2023-07-18T08:04:58Z</time>
      </trkpt>
      <trkpt lat="47.26162" lon="0.54622">
        <ele>95.6</ele>
        <time>2023-07-18T08:04:59Z</time>
      </trkpt>
      <trkpt lat="47.26155" lon="0.54621">
        <ele>95.4</ele>
        <time>2023-07-18T08:05:00Z</time>
      </trkpt>
      <trkpt lat="47.26147" lon="0.54621">
        <ele>95</ele>
        <time>2023-07-18T08:05:01Z</time>
      </trkpt>
      <trkpt lat="47.26139" lon="0.54621">
        <ele>94.8</ele>
        <time>2023-07-18T08:05:02Z</time>
      </trkpt>
      <trkpt lat="47.2613" lon="0.54621">
        <ele>94.4</ele>
        <time>2023-07-18T08:05:03Z</time>
      </trkpt>
      <trkpt lat="47.2612" lon="0.54623">
        <ele>94</ele>
        <time>2023-07-18T08:05:04Z</time>
      </trkpt>
      <trkpt lat="47.26113" lon="0.54623">
        <ele>93.8</ele>
        <time>2023-07-18T08:05:05Z</time>
      </trkpt>
      <trkpt lat="47.26105" lon="0.54624">
        <ele>93.6</ele>
        <time>2023-07-18T08:05:06Z</time>
      </trkpt>
      <trkpt lat="47.26095" lon="0.54625">
        <ele>93.2</ele>
        <time>2023-07-18T08:05:07Z</time>
      </trkpt>
      <trkpt lat="47.26086" lon="0.54625">
        <ele>93</ele>
        <time>2023-07-18T08:05:08Z</time>
      </trkpt>
      <trkpt lat="47.26077" lon="0.54625">
        <ele>92.6</ele>
        <time>2023-07-18T08:05:09Z</time>
      </trkpt>
      <trkpt lat="47.26068" lon="0.54626">
        <ele>92.4</ele>
        <time>2023-07-18T08:05:10Z</time>
      </trkpt>
      <trkpt lat="47.26059" lon="0.54627">
        <ele>92</ele>
        <time>2023-07-18T08:05:11Z</time>
      </trkpt>
      <trkpt lat="47.26049" lon="0.54627">
        <ele>91.4</ele>
        <time>2023-07-18T08:05:12Z</time>
      </trkpt>
      <trkpt lat="47.2604" lon="0.54627">
        <ele>91</ele>
        <time>2023-07-18T08:05:13Z</time>
      </trkpt>
      <trkpt lat="47.2603" lon="0.54628">
        <ele>90.4</ele>
        <time>2023-07-18T08:05:14Z</time>
      </trkpt>
      <trkpt lat="47.26022" lon="0.54629">
        <ele>89.8</ele>
        <time>2023-07-18T08:05:15Z</time>
      </trkpt>
      <trkpt lat="47.26011" lon="0.54628">
        <ele>89.2</ele>
        <time>2023-07-18T08:05:16Z</time>
      </trkpt>
      <trkpt lat="47.26" lon="0.54628">
        <ele>88.4</ele>
        <time>2023-07-18T08:05:17Z</time>
      </trkpt>
      <trkpt lat="47.25991" lon="0.54628">
        <ele>87.6</ele>
        <time>2023-07-18T08:05:18Z</time>
      </trkpt>
      <trkpt lat="47.2598" lon="0.54628">
        <ele>87</ele>
        <time>2023-07-18T08:05:19Z</time>
      </trkpt>
      <trkpt lat="47.25967" lon="0.54626">
        <ele>86</ele>
        <time>2023-07-18T08:05:20Z</time>
      </trkpt>
      <trkpt lat="47.25956" lon="0.54625">
        <ele>84.8</ele>
        <time>2023-07-18T08:05:21Z</time>
      </trkpt>
      <trkpt lat="47.25941" lon="0.54621">
        <ele>83.4</ele>
        <time>2023-07-18T08:05:22Z</time>
      </trkpt>
      <trkpt lat="47.25928" lon="0.54618">
        <ele>82</ele>
        <time>2023-07-18T08:05:23Z</time>
      </trkpt>
      <trkpt lat="47.25915" lon="0.54612">
        <ele>80.8</ele>
        <time>2023-07-18T08:05:24Z</time>
      </trkpt>
      <trkpt lat="47.25904" lon="0.54608">
        <ele>79.6</ele>
        <time>2023-07-18T08:05:25Z</time>
      </trkpt>
      <trkpt lat="47.25891" lon="0.54603">
        <ele>78.8</ele>
        <time>2023-07-18T08:05:26Z</time>
      </trkpt>
      <trkpt lat="47.25878" lon="0.546">
        <ele>77.8</ele>
        <time>2023-07-18T08:05:27Z</time>
      </trkpt>
      <trkpt lat="47.25865" lon="0.54598">
        <ele>77</ele>
        <time>2023-07-18T08:05:28Z</time>
      </trkpt>
      <trkpt lat="47.25852" lon="0.54596">
        <ele>76.2</ele>
        <time>2023-07-18T08:05:29Z</time>
      </trkpt>
      <trkpt lat="47.25839" lon="0.54595">
        <ele>75.4</ele>
        <time>2023-07-18T08:05:30Z</time>
      </trkpt>
      <trkpt lat="47.25825" lon="0.54593">
        <ele>74.6</ele>
        <time>2023-07-18T08:05:31Z</time>
      </trkpt>
      <trkpt lat="47.25813" lon="0.54592">
        <ele>73.6</ele>
        <time>2023-07-18T08:05:32Z</time>
      </trkpt>
      <trkpt lat="47.258" lon="0.54591">
        <ele>72.6</ele>
        <time>2023-07-18T08:05:33Z</time>
      </trkpt>
      <trkpt lat="47.25787" lon="0.5459">
        <ele>71.8</ele>
        <time>2023-07-18T08:05:34Z</time>
      </trkpt>
      <trkpt lat="47.25775" lon="0.54589">
        <ele>70.8</ele>
        <time>2023-07-18T08:05:35Z</time>
      </trkpt>
      <trkpt lat="47.25762" lon="0.54587">
        <ele>70</ele>
        <time>2023-07-18T08:05:36Z</time>
      </trkpt>
      <trkpt lat="47.2575" lon="0.54585">
        <ele>69</ele>
        <time>2023-07-18T08:05:37Z</time>
      </trkpt>
      <trkpt lat="47.25738" lon="0.54583">
        <ele>68.2</ele>
        <time>2023-07-18T08:05:38Z</time>
      </trkpt>
      <trkpt lat="47.25726" lon="0.5458">
        <ele>67.4</ele>
        <time>2023-07-18T08:05:39Z</time>
      </trkpt>
      <trkpt lat="47.25714" lon="0.54577">
        <ele>66.6</ele>
        <time>2023-07-18T08:05:40Z</time>
      </trkpt>
      <trkpt lat="47.25703" lon="0.54575">
        <ele>65.8</ele>
        <time>2023-07-18T08:05:41Z</time>
      </trkpt>
      <trkpt lat="47.25691" lon="0.54574">
        <ele>65.2</ele>
        <time>2023-07-18T08:05:42Z</time>
      </trkpt>
      <trkpt lat="47.25681" lon="0.54576">
        <ele>64.4</ele>
        <time>2023-07-18T08:05:43Z</time>
      </trkpt>
      <trkpt lat="47.2567" lon="0.54579">
        <ele>63.4</ele>
        <time>2023-07-18T08:05:44Z</time>
      </trkpt>
      <trkpt lat="47.25661" lon="0.54583">
        <ele>62.6</ele>
        <time>2023-07-18T08:05:45Z</time>
      </trkpt>
      <trkpt lat="47.25652" lon="0.54587">
        <ele>61.8</ele>
        <time>2023-07-18T08:05:46Z</time>
      </trkpt>
      <trkpt lat="47.25645" lon="0.54591">
        <ele>61.2</ele>
        <time>2023-07-18T08:05:47Z</time>
      </trkpt>
      <trkpt lat="47.25637" lon="0.54595">
        <ele>60.8</ele>
        <time>2023-07-18T08:05:48Z</time>
      </trkpt>
      <trkpt lat="47.25633" lon="0.54597">
        <ele>60.2</ele>
        <time>2023-07-18T08:05:49Z</time>
      </trkpt>
      <trkpt lat="47.25628" lon="0.54599">
        <ele>59.8</ele>
        <time>2023-07-18T08:05:50Z</time>
      </trkpt>
      <trkpt lat="47.25623" lon="0.54598">
        <ele>59.6</ele>
        <time>2023-07-18T08:05:51Z</time>
      </trkpt>
      <trkpt lat="47.25619" lon="0.54595">
        <ele>59.2</ele>
        <time>2023-07-18T08:05:52Z</time>
      </trkpt>
      <trkpt lat="47.25613" lon="0.54589">
        <ele>59</ele>
        <time>2023-07-18T08:05:53Z</time>
      </trkpt>
      <trkpt lat="47.2561" lon="0.54583">
        <ele>58.8</ele>
        <time>2023-07-18T08:05:54Z</time>
      </trkpt>
      <trkpt lat="47.25605" lon="0.54576">
        <ele>58.6</ele>
        <time>2023-07-18T08:05:55Z</time>
      </trkpt>
      <trkpt lat="47.256" lon="0.54567">
        <ele>58.6</ele>
        <time>2023-07-18T08:05:56Z</time>
      </trkpt>
      <trkpt lat="47.25596" lon="0.54559">
        <ele>58.4</ele>
        <time>2023-07-18T08:05:57Z</time>
      </trkpt>
      <trkpt lat="47.25592" lon="0.5455">
        <ele>58.4</ele>
        <time>2023-07-18T08:05:58Z</time>
      </trkpt>
      <trkpt lat="47.25589" lon="0.54542">
        <ele>58.4</ele>
        <time>2023-07-18T08:05:59Z</time>
      </trkpt>
      <trkpt lat="47.25585" lon="0.54533">
        <ele>58.2</ele>
        <time>2023-07-18T08:06:00Z</time>
      </trkpt>
      <trkpt lat="47.25581" lon="0.54523">
        <ele>58.2</ele>
        <time>2023-07-18T08:06:01Z</time>
      </trkpt>
      <trkpt lat="47.25578" lon="0.54513">
        <ele>58</ele>
        <time>2023-07-18T08:06:02Z</time>
      </trkpt>
      <trkpt lat="47.25575" lon="0.54503">
        <ele>58</ele>
        <time>2023-07-18T08:06:03Z</time>
      </trkpt>
      <trkpt lat="47.25571" lon="0.54494">
        <ele>57.8</ele>
        <time>2023-07-18T08:06:04Z</time>
      </trkpt>
      <trkpt lat="47.25568" lon="0.54484">
        <ele>57.8</ele>
        <time>2023-07-18T08:06:05Z</time>
      </trkpt>
      <trkpt lat="47.25565" lon="0.54474">
        <ele>57.6</ele>
        <time>2023-07-18T08:06:06Z</time>
      </trkpt>
      <trkpt lat="47.25562" lon="0.54464">
        <ele>57.6</ele>
        <time>2023-07-18T08:06:07Z</time>
      </trkpt>
      <trkpt lat="47.25558" lon="0.54453">
        <ele>57.4</ele>
        <time>2023-07-18T08:06:08Z</time>
      </trkpt>
      <trkpt lat="47.25555" lon="0.54443">
        <ele>57.4</ele>
        <time>2023-07-18T08:06:09Z</time>
      </trkpt>
      <trkpt lat="47.25552" lon="0.54432">
        <ele>57.4</ele>
        <time>2023-07-18T08:06:10Z</time>
      </trkpt>
      <trkpt lat="47.25549" lon="0.54422">
        <ele>57.4</ele>
        <time>2023-07-18T08:06:11Z</time>
      </trkpt>
      <trkpt lat="47.25546" lon="0.54409">
        <ele>57.2</ele>
        <time>2023-07-18T08:06:12Z</time>
      </trkpt>
      <trkpt lat="47.25544" lon="0.54401">
        <ele>57.2</ele>
        <time>2023-07-18T08:06:13Z</time>
      </trkpt>
      <trkpt lat="47.25541" lon="0.5439">
        <ele>57.2</ele>
        <time>2023-07-18T08:06:14Z</time>
      </trkpt>
      <trkpt lat="47.25539" lon="0.54379">
        <ele>57.2</ele>
        <time>2023-07-18T08:06:15Z</time>
      </trkpt>
      <trkpt lat="47.25537" lon="0.54369">
        <ele>57</ele>
        <time>2023-07-18T08:06:16Z</time>
      </trkpt>
      <trkpt lat="47.25534" lon="0.54357">
        <ele>57</ele>
        <time>2023-07-18T08:06:17Z</time>
      </trkpt>
      <trkpt lat="47.25532" lon="0.54348">
        <ele>57</ele>
        <time>2023-07-18T08:06:18Z</time>
      </trkpt>
      <trkpt lat="47.2553" lon="0.54337">
        <ele>57</ele>
        <time>2023-07-18T08:06:19Z</time>
      </trkpt>
      <trkpt lat="47.25527" lon="0.54325">
        <ele>57.2</ele>
        <time>2023-07-18T08:06:20Z</time>
      </trkpt>
      <trkpt lat="47.25525" lon="0.54315">
        <ele>57.2</ele>
        <time>2023-07-18T08:06:21Z</time>
      </trkpt>
      <trkpt lat="47.25521" lon="0.54305">
        <ele>57</ele>
        <time>2023-07-18T08:06:22Z</time>
      </trkpt>
      <trkpt lat="47.25519" lon="0.54296">
        <ele>57</ele>
        <time>2023-07-18T08:06:23Z</time>
      </trkpt>
      <trkpt lat="47.25517" lon="0.54286">
        <ele>57</ele>
        <time>2023-07-18T08:06:24Z</time>
      </trkpt>
      <trkpt lat="47.25513" lon="0.54276">
        <ele>57</ele>
        <time>2023-07-18T08:06:25Z</time>
      </trkpt>
      <trkpt lat="47.2551" lon="0.54263">
        <ele>57</ele>
        <time>2023-07-18T08:06:26Z</time>
      </trkpt>
      <trkpt lat="47.25508" lon="0.54253">
        <ele>57</ele>
        <time>2023-07-18T08:06:27Z</time>
      </trkpt>
      <trkpt lat="47.25506" lon="0.54242">
        <ele>56.8</ele>
        <time>2023-07-18T08:06:28Z</time>
      </trkpt>
      <trkpt lat="47.25504" lon="0.54231">
        <ele>56.8</ele>
        <time>2023-07-18T08:06:29Z</time>
      </trkpt>
      <trkpt lat="47.25501" lon="0.54221">
        <ele>56.8</ele>
        <time>2023-07-18T08:06:30Z</time>
      </trkpt>
      <trkpt lat="47.25499" lon="0.5421">
        <ele>56.6</ele>
        <time>2023-07-18T08:06:31Z</time>
      </trkpt>
      <trkpt lat="47.25498" lon="0.54201">
        <ele>56.6</ele>
        <time>2023-07-18T08:06:32Z</time>
      </trkpt>
      <trkpt lat="47.25496" lon="0.5419">
        <ele>56.6</ele>
        <time>2023-07-18T08:06:33Z</time>
      </trkpt>
      <trkpt lat="47.25494" lon="0.54179">
        <ele>56.6</ele>
        <time>2023-07-18T08:06:34Z</time>
      </trkpt>
      <trkpt lat="47.25492" lon="0.54169">
        <ele>56.8</ele>
        <time>2023-07-18T08:06:35Z</time>
      </trkpt>
      <trkpt lat="47.25489" lon="0.54156">
        <ele>56.8</ele>
        <time>2023-07-18T08:06:36Z</time>
      </trkpt>
      <trkpt lat="47.25488" lon="0.54148">
        <ele>56.8</ele>
        <time>2023-07-18T08:06:37Z</time>
      </trkpt>
      <trkpt lat="47.25487" lon="0.54138">
        <ele>56.8</ele>
        <time>2023-07-18T08:06:38Z</time>
      </trkpt>
      <trkpt lat="47.25486" lon="0.54125">
        <ele>56.8</ele>
        <time>2023-07-18T08:06:39Z</time>
      </trkpt>
      <trkpt lat="47.25485" lon="0.54115">
        <ele>56.8</ele>
        <time>2023-07-18T08:06:40Z</time>
      </trkpt>
      <trkpt lat="47.25484" lon="0.54105">
        <ele>56.8</ele>
        <time>2023-07-18T08:06:41Z</time>
      </trkpt>
      <trkpt lat="47.25483" lon="0.54095">
        <ele>57</ele>
        <time>2023-07-18T08:06:42Z</time>
      </trkpt>
      <trkpt lat="47.25482" lon="0.54086">
        <ele>57</ele>
        <time>2023-07-18T08:06:43Z</time>
      </trkpt>
      <trkpt lat="47.25481" lon="0.54074">
        <ele>57.2</ele>
        <time>2023-07-18T08:06:44Z</time>
      </trkpt>
      <trkpt lat="47.2548" lon="0.54063">
        <ele>57.2</ele>
        <time>2023-07-18T08:06:45Z</time>
      </trkpt>
      <trkpt lat="47.25479" lon="0.54053">
        <ele>57.2</ele>
        <time>2023-07-18T08:06:46Z</time>
      </trkpt>
      <trkpt lat="47.25478" lon="0.54042">
        <ele>57.2</ele>
        <time>2023-07-18T08:06:47Z</time>
      </trkpt>
      <trkpt lat="47.25477" lon="0.54032">
        <ele>57.2</ele>
        <time>2023-07-18T08:06:48Z</time>
      </trkpt>
      <trkpt lat="47.25475" lon="0.54022">
        <ele>57.2</ele>
        <time>2023-07-18T08:06:49Z</time>
      </trkpt>
      <trkpt lat="47.25473" lon="0.54011">
        <ele>57.2</ele>
        <time>2023-07-18T08:06:50Z</time>
      </trkpt>
      <trkpt lat="47.25472" lon="0.54">
        <ele>57.2</ele>
        <time>2023-07-18T08:06:51Z</time>
      </trkpt>
      <trkpt lat="47.2547" lon="0.5399">
        <ele>57.2</ele>
        <time>2023-07-18T08:06:52Z</time>
      </trkpt>
      <trkpt lat="47.25469" lon="0.53979">
        <ele>57.2</ele>
        <time>2023-07-18T08:06:53Z</time>
      </trkpt>
      <trkpt lat="47.25468" lon="0.53969">
        <ele>57.2</ele>
        <time>2023-07-18T08:06:54Z</time>
      </trkpt>
      <trkpt lat="47.25466" lon="0.53958">
        <ele>57.4</ele>
        <time>2023-07-18T08:06:55Z</time>
      </trkpt>
      <trkpt lat="47.25465" lon="0.53948">
        <ele>57.4</ele>
        <time>2023-07-18T08:06:56Z</time>
      </trkpt>
      <trkpt lat="47.25464" lon="0.53938">
        <ele>57.4</ele>
        <time>2023-07-18T08:06:57Z</time>
      </trkpt>
      <trkpt lat="47.25463" lon="0.53928">
        <ele>57.6</ele>
        <time>2023-07-18T08:06:58Z</time>
      </trkpt>
      <trkpt lat="47.25462" lon="0.53918">
        <ele>57.6</ele>
        <time>2023-07-18T08:06:59Z</time>
      </trkpt>
      <trkpt lat="47.2546" lon="0.53908">
        <ele>57.8</ele>
        <time>2023-07-18T08:07:00Z</time>
      </trkpt>
      <trkpt lat="47.25459" lon="0.53898">
        <ele>57.8</ele>
        <time>2023-07-18T08:07:01Z</time>
      </trkpt>
      <trkpt lat="47.25457" lon="0.53889">
        <ele>58</ele>
        <time>2023-07-18T08:07:02Z</time>
      </trkpt>
      <trkpt lat="47.25455" lon="0.53879">
        <ele>58</ele>
        <time>2023-07-18T08:07:03Z</time>
      </trkpt>
      <trkpt lat="47.25454" lon="0.53869">
        <ele>58</ele>
        <time>2023-07-18T08:07:04Z</time>
      </trkpt>
      <trkpt lat="47.25452" lon="0.5386">
        <ele>58</ele>
        <time>2023-07-18T08:07:05Z</time>
      </trkpt>
      <trkpt lat="47.2545" lon="0.5385">
        <ele>58</ele>
        <time>2023-07-18T08:07:06Z</time>
      </trkpt>
      <trkpt lat="47.25448" lon="0.53839">
        <ele>57.8</ele>
        <time>2023-07-18T08:07:07Z</time>
      </trkpt>
      <trkpt lat="47.25446" lon="0.53828">
        <ele>57.8</ele>
        <time>2023-07-18T08:07:08Z</time>
      </trkpt>
      <trkpt lat="47.25444" lon="0.53818">
        <ele>57.6</ele>
        <time>2023-07-18T08:07:09Z</time>
      </trkpt>
      <trkpt lat="47.25443" lon="0.53807">
        <ele>57.4</ele>
        <time>2023-07-18T08:07:10Z</time>
      </trkpt>
      <trkpt lat="47.25443" lon="0.53796">
        <ele>57.4</ele>
        <time>2023-07-18T08:07:11Z</time>
      </trkpt>
      <trkpt lat="47.25442" lon="0.53785">
        <ele>57.4</ele>
        <time>2023-07-18T08:07:12Z</time>
      </trkpt>
      <trkpt lat="47.25441" lon="0.53774">
        <ele>57.2</ele>
        <time>2023-07-18T08:07:13Z</time>
      </trkpt>
      <trkpt lat="47.25441" lon="0.53763">
        <ele>57.2</ele>
        <time>2023-07-18T08:07:14Z</time>
      </trkpt>
      <trkpt lat="47.25441" lon="0.53752">
        <ele>57.2</ele>
        <time>2023-07-18T08:07:15Z</time>
      </trkpt>
      <trkpt lat="47.2544" lon="0.53741">
        <ele>57</ele>
        <time>2023-07-18T08:07:16Z</time>
      </trkpt>
      <trkpt lat="47.25439" lon="0.53731">
        <ele>57.2</ele>
        <time>2023-07-18T08:07:17Z</time>
      </trkpt>
      <trkpt lat="47.25439" lon="0.5372">
        <ele>57.2</ele>
        <time>2023-07-18T08:07:18Z</time>
      </trkpt>
      <trkpt lat="47.25438" lon="0.5371">
        <ele>57.2</ele>
        <time>2023-07-18T08:07:19Z</time>
      </trkpt>
      <trkpt lat="47.25437" lon="0.53699">
        <ele>57.2</ele>
        <time>2023-07-18T08:07:20Z</time>
      </trkpt>
      <trkpt lat="47.25436" lon="0.53689">
        <ele>57.2</ele>
        <time>2023-07-18T08:07:21Z</time>
      </trkpt>
      <trkpt lat="47.25436" lon="0.53678">
        <ele>57.2</ele>
        <time>2023-07-18T08:07:22Z</time>
      </trkpt>
      <trkpt lat="47.25436" lon="0.53668">
        <ele>57.4</ele>
        <time>2023-07-18T08:07:23Z</time>
      </trkpt>
      <trkpt lat="47.25436" lon="0.53658">
        <ele>57.4</ele>
        <time>2023-07-18T08:07:24Z</time>
      </trkpt>
      <trkpt lat="47.25435" lon="0.53647">
        <ele>57.4</ele>
        <time>2023-07-18T08:07:25Z</time>
      </trkpt>
      <trkpt lat="47.25435" lon="0.53637">
        <ele>57.6</ele>
        <time>2023-07-18T08:07:26Z</time>
      </trkpt>
      <trkpt lat="47.25435" lon="0.53627">
        <ele>57.6</ele>
        <time>2023-07-18T08:07:27Z</time>
      </trkpt>
      <trkpt lat="47.25436" lon="0.53616">
        <ele>57.6</ele>
        <time>2023-07-18T08:07:28Z</time>
      </trkpt>
      <trkpt lat="47.25436" lon="0.53606">
        <ele>57.8</ele>
        <time>2023-07-18T08:07:29Z</time>
      </trkpt>
      <trkpt lat="47.25438" lon="0.53596">
        <ele>58</ele>
        <time>2023-07-18T08:07:30Z</time>
      </trkpt>
      <trkpt lat="47.25439" lon="0.53586">
        <ele>58</ele>
        <time>2023-07-18T08:07:31Z</time>
      </trkpt>
      <trkpt lat="47.2544" lon="0.53576">
        <ele>58.2</ele>
        <time>2023-07-18T08:07:32Z</time>
      </trkpt>
      <trkpt lat="47.25442" lon="0.53566">
        <ele>58.2</ele>
        <time>2023-07-18T08:07:33Z</time>
      </trkpt>
      <trkpt lat="47.25443" lon="0.53557">
        <ele>58.4</ele>
        <time>2023-07-18T08:07:34Z</time>
      </trkpt>
      <trkpt lat="47.25444" lon="0.53547">
        <ele>58.4</ele>
        <time>2023-07-18T08:07:35Z</time>
      </trkpt>
      <trkpt lat="47.25444" lon="0.53537">
        <ele>58.6</ele>
        <time>2023-07-18T08:07:36Z</time>
      </trkpt>
      <trkpt lat="47.25446" lon="0.53527">
        <ele>58.8</ele>
        <time>2023-07-18T08:07:37Z</time>
      </trkpt>
      <trkpt lat="47.25447" lon="0.53518">
        <ele>58.8</ele>
        <time>2023-07-18T08:07:38Z</time>
      </trkpt>
      <trkpt lat="47.25448" lon="0.53508">
        <ele>59</ele>
        <time>2023-07-18T08:07:39Z</time>
      </trkpt>
      <trkpt lat="47.25449" lon="0.53498">
        <ele>59</ele>
        <time>2023-07-18T08:07:40Z</time>
      </trkpt>
      <trkpt lat="47.25451" lon="0.53488">
        <ele>59</ele>
        <time>2023-07-18T08:07:41Z</time>
      </trkpt>
      <trkpt lat="47.25451" lon="0.53478">
        <ele>59.2</ele>
        <time>2023-07-18T08:07:42Z</time>
      </trkpt>
      <trkpt lat="47.25451" lon="0.53468">
        <ele>59.2</ele>
        <time>2023-07-18T08:07:43Z</time>
      </trkpt>
      <trkpt lat="47.25451" lon="0.53458">
        <ele>59.2</ele>
        <time>2023-07-18T08:07:44Z</time>
      </trkpt>
      <trkpt lat="47.2545" lon="0.53448">
        <ele>59.2</ele>
        <time>2023-07-18T08:07:45Z</time>
      </trkpt>
      <trkpt lat="47.25449" lon="0.53437">
        <ele>59.2</ele>
        <time>2023-07-18T08:07:46Z</time>
      </trkpt>
      <trkpt lat="47.25449" lon="0.53426">
        <ele>59</ele>
        <time>2023-07-18T08:07:47Z</time>
      </trkpt>
      <trkpt lat="47.25449" lon="0.53415">
        <ele>59</ele>
        <time>2023-07-18T08:07:48Z</time>
      </trkpt>
      <trkpt lat="47.25448" lon="0.53404">
        <ele>58.8</ele>
        <time>2023-07-18T08:07:49Z</time>
      </trkpt>
      <trkpt lat="47.25448" lon="0.53393">
        <ele>58.6</ele>
        <time>2023-07-18T08:07:50Z</time>
      </trkpt>
      <trkpt lat="47.25448" lon="0.53381">
        <ele>58.6</ele>
        <time>2023-07-18T08:07:51Z</time>
      </trkpt>
      <trkpt lat="47.25447" lon="0.5337">
        <ele>58.4</ele>
        <time>2023-07-18T08:07:52Z</time>
      </trkpt>
      <trkpt lat="47.25447" lon="0.53358">
        <ele>58.2</ele>
        <time>2023-07-18T08:07:53Z</time>
      </trkpt>
      <trkpt lat="47.25447" lon="0.53347">
        <ele>58</ele>
        <time>2023-07-18T08:07:54Z</time>
      </trkpt>
      <trkpt lat="47.25446" lon="0.53336">
        <ele>57.8</ele>
        <time>2023-07-18T08:07:55Z</time>
      </trkpt>
      <trkpt lat="47.25446" lon="0.53325">
        <ele>57.6</ele>
        <time>2023-07-18T08:07:56Z</time>
      </trkpt>
      <trkpt lat="47.25446" lon="0.53314">
        <ele>57.4</ele>
        <time>2023-07-18T08:07:57Z</time>
      </trkpt>
      <trkpt lat="47.25445" lon="0.53303">
        <ele>57.4</ele>
        <time>2023-07-18T08:07:58Z</time>
      </trkpt>
      <trkpt lat="47.25445" lon="0.53292">
        <ele>57.4</ele>
        <time>2023-07-18T08:07:59Z</time>
      </trkpt>
      <trkpt lat="47.25444" lon="0.53281">
        <ele>57.4</ele>
        <time>2023-07-18T08:08:00Z</time>
      </trkpt>
      <trkpt lat="47.25444" lon="0.53269">
        <ele>57.4</ele>
        <time>2023-07-18T08:08:01Z</time>
      </trkpt>
      <trkpt lat="47.25443" lon="0.53258">
        <ele>57.4</ele>
        <time>2023-07-18T08:08:02Z</time>
      </trkpt>
      <trkpt lat="47.25443" lon="0.53247">
        <ele>57.4</ele>
        <time>2023-07-18T08:08:03Z</time>
      </trkpt>
      <trkpt lat="47.25442" lon="0.53236">
        <ele>57.4</ele>
        <time>2023-07-18T08:08:04Z</time>
      </trkpt>
      <trkpt lat="47.25442" lon="0.53225">
        <ele>57.4</ele>
        <time>2023-07-18T08:08:05Z</time>
      </trkpt>
      <trkpt lat="47.25441" lon="0.53215">
        <ele>57.4</ele>
        <time>2023-07-18T08:08:06Z</time>
      </trkpt>
      <trkpt lat="47.25441" lon="0.53204">
        <ele>57.4</ele>
        <time>2023-07-18T08:08:07Z</time>
      </trkpt>
      <trkpt lat="47.2544" lon="0.53193">
        <ele>57.4</ele>
        <time>2023-07-18T08:08:08Z</time>
      </trkpt>
      <trkpt lat="47.25439" lon="0.53181">
        <ele>57.4</ele>
        <time>2023-07-18T08:08:09Z</time>
      </trkpt>
      <trkpt lat="47.25439" lon="0.5317">
        <ele>57.2</ele>
        <time>2023-07-18T08:08:10Z</time>
      </trkpt>
      <trkpt lat="47.25438" lon="0.53159">
        <ele>57.4</ele>
        <time>2023-07-18T08:08:11Z</time>
      </trkpt>
      <trkpt lat="47.25438" lon="0.53148">
        <ele>57.4</ele>
        <time>2023-07-18T08:08:12Z</time>
      </trkpt>
      <trkpt lat="47.25437" lon="0.53137">
        <ele>57.4</ele>
        <time>2023-07-18T08:08:13Z</time>
      </trkpt>
      <trkpt lat="47.25437" lon="0.53126">
        <ele>57.4</ele>
        <time>2023-07-18T08:08:14Z</time>
      </trkpt>
      <trkpt lat="47.25436" lon="0.53115">
        <ele>57.6</ele>
        <time>2023-07-18T08:08:15Z</time>
      </trkpt>
      <trkpt lat="47.25436" lon="0.53104">
        <ele>57.6</ele>
        <time>2023-07-18T08:08:16Z</time>
      </trkpt>
      <trkpt lat="47.25436" lon="0.53092">
        <ele>57.6</ele>
        <time>2023-07-18T08:08:17Z</time>
      </trkpt>
      <trkpt lat="47.25435" lon="0.53082">
        <ele>57.8</ele>
        <time>2023-07-18T08:08:18Z</time>
      </trkpt>
      <trkpt lat="47.25435" lon="0.53071">
        <ele>57.8</ele>
        <time>2023-07-18T08:08:19Z</time>
      </trkpt>
      <trkpt lat="47.25434" lon="0.5306">
        <ele>58</ele>
        <time>2023-07-18T08:08:20Z</time>
      </trkpt>
      <trkpt lat="47.25434" lon="0.53049">
        <ele>57.8</ele>
        <time>2023-07-18T08:08:21Z</time>
      </trkpt>
      <trkpt lat="47.25433" lon="0.53038">
        <ele>58</ele>
        <time>2023-07-18T08:08:22Z</time>
      </trkpt>
      <trkpt lat="47.25433" lon="0.53027">
        <ele>57.8</ele>
        <time>2023-07-18T08:08:23Z</time>
      </trkpt>
      <trkpt lat="47.25433" lon="0.53017">
        <ele>57.8</ele>
        <time>2023-07-18T08:08:24Z</time>
      </trkpt>
      <trkpt lat="47.25433" lon="0.53006">
        <ele>57.8</ele>
        <time>2023-07-18T08:08:25Z</time>
      </trkpt>
      <trkpt lat="47.25433" lon="0.52995">
        <ele>57.8</ele>
        <time>2023-07-18T08:08:26Z</time>
      </trkpt>
      <trkpt lat="47.25434" lon="0.52984">
        <ele>57.6</ele>
        <time>2023-07-18T08:08:27Z</time>
      </trkpt>
      <trkpt lat="47.25434" lon="0.52974">
        <ele>57.6</ele>
        <time>2023-07-18T08:08:28Z</time>
      </trkpt>
      <trkpt lat="47.25434" lon="0.52963">
        <ele>57.4</ele>
        <time>2023-07-18T08:08:29Z</time>
      </trkpt>
      <trkpt lat="47.25434" lon="0.52952">
        <ele>57.4</ele>
        <time>2023-07-18T08:08:30Z</time>
      </trkpt>
      <trkpt lat="47.25434" lon="0.52941">
        <ele>57.2</ele>
        <time>2023-07-18T08:08:31Z</time>
      </trkpt>
      <trkpt lat="47.25434" lon="0.5293">
        <ele>56.8</ele>
        <time>2023-07-18T08:08:32Z</time>
      </trkpt>
      <trkpt lat="47.25434" lon="0.52919">
        <ele>56.8</ele>
        <time>2023-07-18T08:08:33Z</time>
      </trkpt>
      <trkpt lat="47.25435" lon="0.52908">
        <ele>56.8</ele>
        <time>2023-07-18T08:08:34Z</time>
      </trkpt>
      <trkpt lat="47.25435" lon="0.52897">
        <ele>56.6</ele>
        <time>2023-07-18T08:08:35Z</time>
      </trkpt>
      <trkpt lat="47.25435" lon="0.52886">
        <ele>56.6</ele>
        <time>2023-07-18T08:08:36Z</time>
      </trkpt>
      <trkpt lat="47.25435" lon="0.52875">
        <ele>56.4</ele>
        <time>2023-07-18T08:08:37Z</time>
      </trkpt>
      <trkpt lat="47.25435" lon="0.52864">
        <ele>56.4</ele>
        <time>2023-07-18T08:08:38Z</time>
      </trkpt>
      <trkpt lat="47.25436" lon="0.52853">
        <ele>56.4</ele>
        <time>2023-07-18T08:08:39Z</time>
      </trkpt>
      <trkpt lat="47.25436" lon="0.52842">
        <ele>56.4</ele>
        <time>2023-07-18T08:08:40Z</time>
      </trkpt>
      <trkpt lat="47.25436" lon="0.52831">
        <ele>56.2</ele>
        <time>2023-07-18T08:08:41Z</time>
      </trkpt>
      <trkpt lat="47.25436" lon="0.52819">
        <ele>56.2</ele>
        <time>2023-07-18T08:08:42Z</time>
      </trkpt>
      <trkpt lat="47.25437" lon="0.52808">
        <ele>56.2</ele>
        <time>2023-07-18T08:08:43Z</time>
      </trkpt>
      <trkpt lat="47.25437" lon="0.52798">
        <ele>56.2</ele>
        <time>2023-07-18T08:08:44Z</time>
      </trkpt>
      <trkpt lat="47.25437" lon="0.52787">
        <ele>56.2</ele>
        <time>2023-07-18T08:08:45Z</time>
      </trkpt>
      <trkpt lat="47.25438" lon="0.52775">
        <ele>56</ele>
        <time>2023-07-18T08:08:46Z</time>
      </trkpt>
      <trkpt lat="47.25439" lon="0.52764">
        <ele>56</ele>
        <time>2023-07-18T08:08:47Z</time>
      </trkpt>
      <trkpt lat="47.25439" lon="0.52753">
        <ele>56</ele>
        <time>2023-07-18T08:08:48Z</time>
      </trkpt>
      <trkpt lat="47.2544" lon="0.52742">
        <ele>56</ele>
        <time>2023-07-18T08:08:49Z</time>
      </trkpt>
      <trkpt lat="47.25441" lon="0.52731">
        <ele>56</ele>
        <time>2023-07-18T08:08:50Z</time>
      </trkpt>
      <trkpt lat="47.25441" lon="0.52719">
        <ele>56</ele>
        <time>2023-07-18T08:08:51Z</time>
      </trkpt>
      <trkpt lat="47.25442" lon="0.52708">
        <ele>55.8</ele>
        <time>2023-07-18T08:08:52Z</time>
      </trkpt>
      <trkpt lat="47.25443" lon="0.52697">
        <ele>55.6</ele>
        <time>2023-07-18T08:08:53Z</time>
      </trkpt>
      <trkpt lat="47.25444" lon="0.52686">
        <ele>55.8</ele>
        <time>2023-07-18T08:08:54Z</time>
      </trkpt>
      <trkpt lat="47.25444" lon="0.52675">
        <ele>55.6</ele>
        <time>2023-07-18T08:08:55Z</time>
      </trkpt>
      <trkpt lat="47.25445" lon="0.52664">
        <ele>55.8</ele>
        <time>2023-07-18T08:08:56Z</time>
      </trkpt>
      <trkpt lat="47.25445" lon="0.52652">
        <ele>55.8</ele>
        <time>2023-07-18T08:08:57Z</time>
      </trkpt>
      <trkpt lat="47.25446" lon="0.52641">
        <ele>55.8</ele>
        <time>2023-07-18T08:08:58Z</time>
      </trkpt>
      <trkpt lat="47.25447" lon="0.5263">
        <ele>55.8</ele>
        <time>2023-07-18T08:08:59Z</time>
      </trkpt>
      <trkpt lat="47.25447" lon="0.52619">
        <ele>55.8</ele>
        <time>2023-07-18T08:09:00Z</time>
      </trkpt>
      <trkpt lat="47.25448" lon="0.52609">
        <ele>55.8</ele>
        <time>2023-07-18T08:09:01Z</time>
      </trkpt>
      <trkpt lat="47.25449" lon="0.52598">
        <ele>55.6</ele>
        <time>2023-07-18T08:09:02Z</time>
      </trkpt>
      <trkpt lat="47.2545" lon="0.52587">
        <ele>55.4</ele>
        <time>2023-07-18T08:09:03Z</time>
      </trkpt>
      <trkpt lat="47.25451" lon="0.52576">
        <ele>55.4</ele>
        <time>2023-07-18T08:09:04Z</time>
      </trkpt>
      <trkpt lat="47.25451" lon="0.52566">
        <ele>55.6</ele>
        <time>2023-07-18T08:09:05Z</time>
      </trkpt>
      <trkpt lat="47.25451" lon="0.52557">
        <ele>55.6</ele>
        <time>2023-07-18T08:09:06Z</time>
      </trkpt>
      <trkpt lat="47.25452" lon="0.52548">
        <ele>55.8</ele>
        <time>2023-07-18T08:09:07Z</time>
      </trkpt>
      <trkpt lat="47.25452" lon="0.5254">
        <ele>56</ele>
        <time>2023-07-18T08:09:08Z</time>
      </trkpt>
      <trkpt lat="47.25453" lon="0.52531">
        <ele>56</ele>
        <time>2023-07-18T08:09:09Z</time>
      </trkpt>
      <trkpt lat="47.25453" lon="0.52523">
        <ele>56.2</ele>
        <time>2023-07-18T08:09:10Z</time>
      </trkpt>
      <trkpt lat="47.25453" lon="0.52515">
        <ele>56.4</ele>
        <time>2023-07-18T08:09:11Z</time>
      </trkpt>
      <trkpt lat="47.25454" lon="0.52507">
        <ele>56.4</ele>
        <time>2023-07-18T08:09:12Z</time>
      </trkpt>
      <trkpt lat="47.25454" lon="0.525">
        <ele>56.4</ele>
        <time>2023-07-18T08:09:13Z</time>
      </trkpt>
      <trkpt lat="47.25455" lon="0.52491">
        <ele>56.2</ele>
        <time>2023-07-18T08:09:14Z</time>
      </trkpt>
      <trkpt lat="47.25455" lon="0.52481">
        <ele>56.2</ele>
        <time>2023-07-18T08:09:15Z</time>
      </trkpt>
      <trkpt lat="47.25457" lon="0.5247">
        <ele>56.2</ele>
        <time>2023-07-18T08:09:16Z</time>
      </trkpt>
      <trkpt lat="47.25457" lon="0.5246">
        <ele>56.2</ele>
        <time>2023-07-18T08:09:17Z</time>
      </trkpt>
      <trkpt lat="47.25458" lon="0.52448">
        <ele>56.2</ele>
        <time>2023-07-18T08:09:18Z</time>
      </trkpt>
      <trkpt lat="47.25458" lon="0.52437">
        <ele>56</ele>
        <time>2023-07-18T08:09:19Z</time>
      </trkpt>
      <trkpt lat="47.25458" lon="0.52425">
        <ele>56</ele>
        <time>2023-07-18T08:09:20Z</time>
      </trkpt>
      <trkpt lat="47.25459" lon="0.52414">
        <ele>56</ele>
        <time>2023-07-18T08:09:21Z</time>
      </trkpt>
      <trkpt lat="47.2546" lon="0.52402">
        <ele>56</ele>
        <time>2023-07-18T08:09:22Z</time>
      </trkpt>
      <trkpt lat="47.2546" lon="0.52389">
        <ele>56</ele>
        <time>2023-07-18T08:09:23Z</time>
      </trkpt>
      <trkpt lat="47.25461" lon="0.52378">
        <ele>56.2</ele>
        <time>2023-07-18T08:09:24Z</time>
      </trkpt>
      <trkpt lat="47.25462" lon="0.52368">
        <ele>56.2</ele>
        <time>2023-07-18T08:09:25Z</time>
      </trkpt>
      <trkpt lat="47.25463" lon="0.52355">
        <ele>56</ele>
        <time>2023-07-18T08:09:26Z</time>
      </trkpt>
      <trkpt lat="47.25464" lon="0.52344">
        <ele>56</ele>
        <time>2023-07-18T08:09:27Z</time>
      </trkpt>
      <trkpt lat="47.25465" lon="0.52332">
        <ele>56</ele>
        <time>2023-07-18T08:09:28Z</time>
      </trkpt>
      <trkpt lat="47.25466" lon="0.52321">
        <ele>55.6</ele>
        <time>2023-07-18T08:09:29Z</time>
      </trkpt>
      <trkpt lat="47.25467" lon="0.52309">
        <ele>55.4</ele>
        <time>2023-07-18T08:09:30Z</time>
      </trkpt>
      <trkpt lat="47.25468" lon="0.52297">
        <ele>55.6</ele>
        <time>2023-07-18T08:09:31Z</time>
      </trkpt>
      <trkpt lat="47.25468" lon="0.52286">
        <ele>55.4</ele>
        <time>2023-07-18T08:09:32Z</time>
      </trkpt>
      <trkpt lat="47.25469" lon="0.52275">
        <ele>55.6</ele>
        <time>2023-07-18T08:09:33Z</time>
      </trkpt>
      <trkpt lat="47.2547" lon="0.52264">
        <ele>55.6</ele>
        <time>2023-07-18T08:09:34Z</time>
      </trkpt>
      <trkpt lat="47.2547" lon="0.52253">
        <ele>55.6</ele>
        <time>2023-07-18T08:09:35Z</time>
      </trkpt>
      <trkpt lat="47.25471" lon="0.52242">
        <ele>55.6</ele>
        <time>2023-07-18T08:09:36Z</time>
      </trkpt>
      <trkpt lat="47.25471" lon="0.52231">
        <ele>55.6</ele>
        <time>2023-07-18T08:09:37Z</time>
      </trkpt>
      <trkpt lat="47.25473" lon="0.52219">
        <ele>55.6</ele>
        <time>2023-07-18T08:09:38Z</time>
      </trkpt>
      <trkpt lat="47.25473" lon="0.52209">
        <ele>55.6</ele>
        <time>2023-07-18T08:09:39Z</time>
      </trkpt>
      <trkpt lat="47.25475" lon="0.52198">
        <ele>55.6</ele>
        <time>2023-07-18T08:09:40Z</time>
      </trkpt>
      <trkpt lat="47.25475" lon="0.52188">
        <ele>55.6</ele>
        <time>2023-07-18T08:09:41Z</time>
      </trkpt>
      <trkpt lat="47.25476" lon="0.52178">
        <ele>55.6</ele>
        <time>2023-07-18T08:09:42Z</time>
      </trkpt>
      <trkpt lat="47.25477" lon="0.52167">
        <ele>55.6</ele>
        <time>2023-07-18T08:09:43Z</time>
      </trkpt>
      <trkpt lat="47.25478" lon="0.52158">
        <ele>55.6</ele>
        <time>2023-07-18T08:09:44Z</time>
      </trkpt>
      <trkpt lat="47.25479" lon="0.52148">
        <ele>55.6</ele>
        <time>2023-07-18T08:09:45Z</time>
      </trkpt>
      <trkpt lat="47.25481" lon="0.52139">
        <ele>55.6</ele>
        <time>2023-07-18T08:09:46Z</time>
      </trkpt>
      <trkpt lat="47.25483" lon="0.52129">
        <ele>55.8</ele>
        <time>2023-07-18T08:09:47Z</time>
      </trkpt>
      <trkpt lat="47.25486" lon="0.5212">
        <ele>56</ele>
        <time>2023-07-18T08:09:48Z</time>
      </trkpt>
      <trkpt lat="47.25488" lon="0.52111">
        <ele>56.2</ele>
        <time>2023-07-18T08:09:49Z</time>
      </trkpt>
      <trkpt lat="47.2549" lon="0.52102">
        <ele>56.2</ele>
        <time>2023-07-18T08:09:50Z</time>
      </trkpt>
      <trkpt lat="47.25493" lon="0.52093">
        <ele>56.4</ele>
        <time>2023-07-18T08:09:51Z</time>
      </trkpt>
      <trkpt lat="47.25496" lon="0.52084">
        <ele>56.4</ele>
        <time>2023-07-18T08:09:52Z</time>
      </trkpt>
      <trkpt lat="47.25498" lon="0.52075">
        <ele>56.8</ele>
        <time>2023-07-18T08:09:53Z</time>
      </trkpt>
      <trkpt lat="47.255" lon="0.52066">
        <ele>57</ele>
        <time>2023-07-18T08:09:54Z</time>
      </trkpt>
      <trkpt lat="47.25503" lon="0.52057">
        <ele>57.2</ele>
        <time>2023-07-18T08:09:55Z</time>
      </trkpt>
      <trkpt lat="47.25504" lon="0.52047">
        <ele>57.4</ele>
        <time>2023-07-18T08:09:56Z</time>
      </trkpt>
      <trkpt lat="47.25505" lon="0.52038">
        <ele>57.6</ele>
        <time>2023-07-18T08:09:57Z</time>
      </trkpt>
      <trkpt lat="47.25505" lon="0.52028">
        <ele>57.8</ele>
        <time>2023-07-18T08:09:58Z</time>
      </trkpt>
      <trkpt lat="47.25506" lon="0.52018">
        <ele>58</ele>
        <time>2023-07-18T08:09:59Z</time>
      </trkpt>
      <trkpt lat="47.25506" lon="0.52008">
        <ele>58</ele>
        <time>2023-07-18T08:10:00Z</time>
      </trkpt>
      <trkpt lat="47.25505" lon="0.51999">
        <ele>58</ele>
        <time>2023-07-18T08:10:01Z</time>
      </trkpt>
      <trkpt lat="47.25505" lon="0.51989">
        <ele>57.8</ele>
        <time>2023-07-18T08:10:02Z</time>
      </trkpt>
      <trkpt lat="47.25505" lon="0.5198">
        <ele>58</ele>
        <time>2023-07-18T08:10:03Z</time>
      </trkpt>
      <trkpt lat="47.25504" lon="0.5197">
        <ele>58</ele>
        <time>2023-07-18T08:10:04Z</time>
      </trkpt>
      <trkpt lat="47.25504" lon="0.5196">
        <ele>58</ele>
        <time>2023-07-18T08:10:05Z</time>
      </trkpt>
      <trkpt lat="47.25503" lon="0.5195">
        <ele>58</ele>
        <time>2023-07-18T08:10:06Z</time>
      </trkpt>
      <trkpt lat="47.25503" lon="0.51941">
        <ele>58.2</ele>
        <time>2023-07-18T08:10:07Z</time>
      </trkpt>
      <trkpt lat="47.25502" lon="0.51931">
        <ele>58.2</ele>
        <time>2023-07-18T08:10:08Z</time>
      </trkpt>
      <trkpt lat="47.25502" lon="0.51921">
        <ele>58.2</ele>
        <time>2023-07-18T08:10:09Z</time>
      </trkpt>
      <trkpt lat="47.25501" lon="0.51911">
        <ele>58.2</ele>
        <time>2023-07-18T08:10:10Z</time>
      </trkpt>
      <trkpt lat="47.255" lon="0.51901">
        <ele>58.4</ele>
        <time>2023-07-18T08:10:11Z</time>
      </trkpt>
      <trkpt lat="47.25499" lon="0.51891">
        <ele>58.6</ele>
        <time>2023-07-18T08:10:12Z</time>
      </trkpt>
      <trkpt lat="47.25499" lon="0.51881">
        <ele>58.6</ele>
        <time>2023-07-18T08:10:13Z</time>
      </trkpt>
      <trkpt lat="47.25499" lon="0.51871">
        <ele>58.8</ele>
        <time>2023-07-18T08:10:14Z</time>
      </trkpt>
      <trkpt lat="47.25498" lon="0.5186">
        <ele>58.8</ele>
        <time>2023-07-18T08:10:15Z</time>
      </trkpt>
      <trkpt lat="47.25498" lon="0.5185">
        <ele>59</ele>
        <time>2023-07-18T08:10:16Z</time>
      </trkpt>
      <trkpt lat="47.25497" lon="0.5184">
        <ele>59.2</ele>
        <time>2023-07-18T08:10:17Z</time>
      </trkpt>
      <trkpt lat="47.25497" lon="0.5183">
        <ele>59.4</ele>
        <time>2023-07-18T08:10:18Z</time>
      </trkpt>
      <trkpt lat="47.25497" lon="0.5182">
        <ele>59.6</ele>
        <time>2023-07-18T08:10:19Z</time>
      </trkpt>
      <trkpt lat="47.25496" lon="0.5181">
        <ele>59.6</ele>
        <time>2023-07-18T08:10:20Z</time>
      </trkpt>
      <trkpt lat="47.25496" lon="0.518">
        <ele>59.6</ele>
        <time>2023-07-18T08:10:21Z</time>
      </trkpt>
      <trkpt lat="47.25496" lon="0.5179">
        <ele>59.6</ele>
        <time>2023-07-18T08:10:22Z</time>
      </trkpt>
      <trkpt lat="47.25495" lon="0.5178">
        <ele>59.8</ele>
        <time>2023-07-18T08:10:23Z</time>
      </trkpt>
      <trkpt lat="47.25494" lon="0.5177">
        <ele>59.8</ele>
        <time>2023-07-18T08:10:24Z</time>
      </trkpt>
      <trkpt lat="47.25494" lon="0.5176">
        <ele>60</ele>
        <time>2023-07-18T08:10:25Z</time>
      </trkpt>
      <trkpt lat="47.25494" lon="0.5175">
        <ele>60</ele>
        <time>2023-07-18T08:10:26Z</time>
      </trkpt>
      <trkpt lat="47.25494" lon="0.51739">
        <ele>60</ele>
        <time>2023-07-18T08:10:27Z</time>
      </trkpt>
      <trkpt lat="47.25494" lon="0.51729">
        <ele>60</ele>
        <time>2023-07-18T08:10:28Z</time>
      </trkpt>
      <trkpt lat="47.25494" lon="0.51719">
        <ele>60</ele>
        <time>2023-07-18T08:10:29Z</time>
      </trkpt>
      <trkpt lat="47.25494" lon="0.51709">
        <ele>60.2</ele>
        <time>2023-07-18T08:10:30Z</time>
      </trkpt>
      <trkpt lat="47.25494" lon="0.51698">
        <ele>60.2</ele>
        <time>2023-07-18T08:10:31Z</time>
      </trkpt>
      <trkpt lat="47.25494" lon="0.51689">
        <ele>60.4</ele>
        <time>2023-07-18T08:10:32Z</time>
      </trkpt>
      <trkpt lat="47.25495" lon="0.51679">
        <ele>60.4</ele>
        <time>2023-07-18T08:10:33Z</time>
      </trkpt>
      <trkpt lat="47.25495" lon="0.51668">
        <ele>60.6</ele>
        <time>2023-07-18T08:10:34Z</time>
      </trkpt>
      <trkpt lat="47.25495" lon="0.51658">
        <ele>60.8</ele>
        <time>2023-07-18T08:10:35Z</time>
      </trkpt>
      <trkpt lat="47.25496" lon="0.51648">
        <ele>60.8</ele>
        <time>2023-07-18T08:10:36Z</time>
      </trkpt>
      <trkpt lat="47.25496" lon="0.51639">
        <ele>61</ele>
        <time>2023-07-18T08:10:37Z</time>
      </trkpt>
      <trkpt lat="47.25496" lon="0.5163">
        <ele>61</ele>
        <time>2023-07-18T08:10:38Z</time>
      </trkpt>
      <trkpt lat="47.25496" lon="0.51621">
        <ele>61</ele>
        <time>2023-07-18T08:10:39Z</time>
      </trkpt>
      <trkpt lat="47.25496" lon="0.51612">
        <ele>61</ele>
        <time>2023-07-18T08:10:40Z</time>
      </trkpt>
      <trkpt lat="47.25495" lon="0.51602">
        <ele>61</ele>
        <time>2023-07-18T08:10:41Z</time>
      </trkpt>
      <trkpt lat="47.25494" lon="0.51592">
        <ele>61.2</ele>
        <time>2023-07-18T08:10:42Z</time>
      </trkpt>
      <trkpt lat="47.25492" lon="0.51582">
        <ele>61.2</ele>
        <time>2023-07-18T08:10:43Z</time>
      </trkpt>
      <trkpt lat="47.25491" lon="0.51571">
        <ele>61</ele>
        <time>2023-07-18T08:10:44Z</time>
      </trkpt>
      <trkpt lat="47.2549" lon="0.5156">
        <ele>60.8</ele>
        <time>2023-07-18T08:10:45Z</time>
      </trkpt>
      <trkpt lat="47.25488" lon="0.51548">
        <ele>60.6</ele>
        <time>2023-07-18T08:10:46Z</time>
      </trkpt>
      <trkpt lat="47.25487" lon="0.51536">
        <ele>60.4</ele>
        <time>2023-07-18T08:10:47Z</time>
      </trkpt>
      <trkpt lat="47.25486" lon="0.51524">
        <ele>60</ele>
        <time>2023-07-18T08:10:48Z</time>
      </trkpt>
      <trkpt lat="47.25484" lon="0.51512">
        <ele>59.8</ele>
        <time>2023-07-18T08:10:49Z</time>
      </trkpt>
      <trkpt lat="47.25483" lon="0.515">
        <ele>59.8</ele>
        <time>2023-07-18T08:10:50Z</time>
      </trkpt>
      <trkpt lat="47.25483" lon="0.51489">
        <ele>59.6</ele>
        <time>2023-07-18T08:10:51Z</time>
      </trkpt>
      <trkpt lat="47.25483" lon="0.51477">
        <ele>59.6</ele>
        <time>2023-07-18T08:10:52Z</time>
      </trkpt>
      <trkpt lat="47.25483" lon="0.51466">
        <ele>59.4</ele>
        <time>2023-07-18T08:10:53Z</time>
      </trkpt>
      <trkpt lat="47.25483" lon="0.51454">
        <ele>59.2</ele>
        <time>2023-07-18T08:10:54Z</time>
      </trkpt>
      <trkpt lat="47.25483" lon="0.51443">
        <ele>59</ele>
        <time>2023-07-18T08:10:55Z</time>
      </trkpt>
      <trkpt lat="47.25484" lon="0.51432">
        <ele>58.8</ele>
        <time>2023-07-18T08:10:56Z</time>
      </trkpt>
      <trkpt lat="47.25484" lon="0.5142">
        <ele>58.6</ele>
        <time>2023-07-18T08:10:57Z</time>
      </trkpt>
      <trkpt lat="47.25485" lon="0.51409">
        <ele>58.4</ele>
        <time>2023-07-18T08:10:58Z</time>
      </trkpt>
      <trkpt lat="47.25486" lon="0.51398">
        <ele>58.6</ele>
        <time>2023-07-18T08:10:59Z</time>
      </trkpt>
      <trkpt lat="47.25486" lon="0.51387">
        <ele>58.4</ele>
        <time>2023-07-18T08:11:00Z</time>
      </trkpt>
      <trkpt lat="47.25487" lon="0.51376">
        <ele>58.4</ele>
        <time>2023-07-18T08:11:01Z</time>
      </trkpt>
      <trkpt lat="47.25488" lon="0.51365">
        <ele>58.4</ele>
        <time>2023-07-18T08:11:02Z</time>
      </trkpt>
      <trkpt lat="47.25489" lon="0.51354">
        <ele>58.6</ele>
        <time>2023-07-18T08:11:03Z</time>
      </trkpt>
      <trkpt lat="47.25489" lon="0.51343">
        <ele>58.6</ele>
        <time>2023-07-18T08:11:04Z</time>
      </trkpt>
      <trkpt lat="47.2549" lon="0.51333">
        <ele>58.6</ele>
        <time>2023-07-18T08:11:05Z</time>
      </trkpt>
      <trkpt lat="47.2549" lon="0.51322">
        <ele>58.6</ele>
        <time>2023-07-18T08:11:06Z</time>
      </trkpt>
      <trkpt lat="47.25491" lon="0.51313">
        <ele>58.6</ele>
        <time>2023-07-18T08:11:07Z</time>
      </trkpt>
      <trkpt lat="47.25492" lon="0.51302">
        <ele>58.6</ele>
        <time>2023-07-18T08:11:08Z</time>
      </trkpt>
      <trkpt lat="47.25492" lon="0.51292">
        <ele>58.6</ele>
        <time>2023-07-18T08:11:09Z</time>
      </trkpt>
      <trkpt lat="47.25493" lon="0.51281">
        <ele>58.4</ele>
        <time>2023-07-18T08:11:10Z</time>
      </trkpt>
      <trkpt lat="47.25494" lon="0.51271">
        <ele>58.2</ele>
        <time>2023-07-18T08:11:11Z</time>
      </trkpt>
      <trkpt lat="47.25494" lon="0.5126">
        <ele>58.2</ele>
        <time>2023-07-18T08:11:12Z</time>
      </trkpt>
      <trkpt lat="47.25494" lon="0.5125">
        <ele>58</ele>
        <time>2023-07-18T08:11:13Z</time>
      </trkpt>
      <trkpt lat="47.25494" lon="0.51239">
        <ele>57.6</ele>
        <time>2023-07-18T08:11:14Z</time>
      </trkpt>
      <trkpt lat="47.25495" lon="0.51228">
        <ele>57.4</ele>
        <time>2023-07-18T08:11:15Z</time>
      </trkpt>
      <trkpt lat="47.25496" lon="0.51217">
        <ele>57.4</ele>
        <time>2023-07-18T08:11:16Z</time>
      </trkpt>
      <trkpt lat="47.25497" lon="0.51206">
        <ele>57.2</ele>
        <time>2023-07-18T08:11:17Z</time>
      </trkpt>
      <trkpt lat="47.25498" lon="0.51196">
        <ele>57.2</ele>
        <time>2023-07-18T08:11:18Z</time>
      </trkpt>
      <trkpt lat="47.255" lon="0.51186">
        <ele>57.2</ele>
        <time>2023-07-18T08:11:19Z</time>
      </trkpt>
      <trkpt lat="47.25502" lon="0.51175">
        <ele>57.2</ele>
        <time>2023-07-18T08:11:20Z</time>
      </trkpt>
      <trkpt lat="47.25504" lon="0.51165">
        <ele>57.2</ele>
        <time>2023-07-18T08:11:21Z</time>
      </trkpt>
      <trkpt lat="47.25506" lon="0.51155">
        <ele>57.2</ele>
        <time>2023-07-18T08:11:22Z</time>
      </trkpt>
      <trkpt lat="47.25508" lon="0.51145">
        <ele>57.4</ele>
        <time>2023-07-18T08:11:23Z</time>
      </trkpt>
      <trkpt lat="47.2551" lon="0.51136">
        <ele>57.4</ele>
        <time>2023-07-18T08:11:24Z</time>
      </trkpt>
      <trkpt lat="47.25512" lon="0.51126">
        <ele>57.6</ele>
        <time>2023-07-18T08:11:25Z</time>
      </trkpt>
      <trkpt lat="47.25513" lon="0.51116">
        <ele>57.6</ele>
        <time>2023-07-18T08:11:26Z</time>
      </trkpt>
      <trkpt lat="47.25515" lon="0.51106">
        <ele>57.8</ele>
        <time>2023-07-18T08:11:27Z</time>
      </trkpt>
      <trkpt lat="47.25517" lon="0.51097">
        <ele>58</ele>
        <time>2023-07-18T08:11:28Z</time>
      </trkpt>
      <trkpt lat="47.25519" lon="0.51088">
        <ele>58</ele>
        <time>2023-07-18T08:11:29Z</time>
      </trkpt>
      <trkpt lat="47.25521" lon="0.51079">
        <ele>58.2</ele>
        <time>2023-07-18T08:11:30Z</time>
      </trkpt>
      <trkpt lat="47.25522" lon="0.51069">
        <ele>58.2</ele>
        <time>2023-07-18T08:11:31Z</time>
      </trkpt>
      <trkpt lat="47.25523" lon="0.51059">
        <ele>58</ele>
        <time>2023-07-18T08:11:32Z</time>
      </trkpt>
      <trkpt lat="47.25525" lon="0.51049">
        <ele>58</ele>
        <time>2023-07-18T08:11:33Z</time>
      </trkpt>
      <trkpt lat="47.25526" lon="0.51039">
        <ele>58</ele>
        <time>2023-07-18T08:11:34Z</time>
      </trkpt>
      <trkpt lat="47.25528" lon="0.51029">
        <ele>58</ele>
        <time>2023-07-18T08:11:35Z</time>
      </trkpt>
      <trkpt lat="47.25529" lon="0.51019">
        <ele>58</ele>
        <time>2023-07-18T08:11:36Z</time>
      </trkpt>
      <trkpt lat="47.2553" lon="0.51008">
        <ele>57.8</ele>
        <time>2023-07-18T08:11:37Z</time>
      </trkpt>
      <trkpt lat="47.25531" lon="0.50998">
        <ele>57.8</ele>
        <time>2023-07-18T08:11:38Z</time>
      </trkpt>
      <trkpt lat="47.25532" lon="0.50987">
        <ele>57.8</ele>
        <time>2023-07-18T08:11:39Z</time>
      </trkpt>
      <trkpt lat="47.25533" lon="0.50977">
        <ele>58</ele>
        <time>2023-07-18T08:11:40Z</time>
      </trkpt>
      <trkpt lat="47.25534" lon="0.50966">
        <ele>58</ele>
        <time>2023-07-18T08:11:41Z</time>
      </trkpt>
      <trkpt lat="47.25535" lon="0.50955">
        <ele>58</ele>
        <time>2023-07-18T08:11:42Z</time>
      </trkpt>
      <trkpt lat="47.25536" lon="0.50945">
        <ele>58</ele>
        <time>2023-07-18T08:11:43Z</time>
      </trkpt>
      <trkpt lat="47.25536" lon="0.50934">
        <ele>58</ele>
        <time>2023-07-18T08:11:44Z</time>
      </trkpt>
      <trkpt lat="47.25537" lon="0.50924">
        <ele>58</ele>
        <time>2023-07-18T08:11:45Z</time>
      </trkpt>
      <trkpt lat="47.25538" lon="0.50913">
        <ele>58</ele>
        <time>2023-07-18T08:11:46Z</time>
      </trkpt>
      <trkpt lat="47.25539" lon="0.50903">
        <ele>58</ele>
        <time>2023-07-18T08:11:47Z</time>
      </trkpt>
      <trkpt lat="47.2554" lon="0.50892">
        <ele>57.8</ele>
        <time>2023-07-18T08:11:48Z</time>
      </trkpt>
      <trkpt lat="47.25541" lon="0.50883">
        <ele>57.8</ele>
        <time>2023-07-18T08:11:49Z</time>
      </trkpt>
      <trkpt lat="47.25542" lon="0.50871">
        <ele>57.8</ele>
        <time>2023-07-18T08:11:50Z</time>
      </trkpt>
      <trkpt lat="47.25543" lon="0.5086">
        <ele>57.8</ele>
        <time>2023-07-18T08:11:51Z</time>
      </trkpt>
      <trkpt lat="47.25544" lon="0.5085">
        <ele>57.8</ele>
        <time>2023-07-18T08:11:52Z</time>
      </trkpt>
      <trkpt lat="47.25545" lon="0.50839">
        <ele>57.8</ele>
        <time>2023-07-18T08:11:53Z</time>
      </trkpt>
      <trkpt lat="47.25547" lon="0.50829">
        <ele>57.6</ele>
        <time>2023-07-18T08:11:54Z</time>
      </trkpt>
      <trkpt lat="47.25548" lon="0.50819">
        <ele>57.6</ele>
        <time>2023-07-18T08:11:55Z</time>
      </trkpt>
      <trkpt lat="47.25549" lon="0.50808">
        <ele>57.6</ele>
        <time>2023-07-18T08:11:56Z</time>
      </trkpt>
      <trkpt lat="47.25552" lon="0.50798">
        <ele>57.6</ele>
        <time>2023-07-18T08:11:57Z</time>
      </trkpt>
      <trkpt lat="47.25554" lon="0.50789">
        <ele>57.6</ele>
        <time>2023-07-18T08:11:58Z</time>
      </trkpt>
      <trkpt lat="47.25556" lon="0.50779">
        <ele>57.6</ele>
        <time>2023-07-18T08:11:59Z</time>
      </trkpt>
      <trkpt lat="47.25558" lon="0.50768">
        <ele>57.6</ele>
        <time>2023-07-18T08:12:00Z</time>
      </trkpt>
      <trkpt lat="47.2556" lon="0.50758">
        <ele>57.6</ele>
        <time>2023-07-18T08:12:01Z</time>
      </trkpt>
      <trkpt lat="47.25563" lon="0.50748">
        <ele>57.6</ele>
        <time>2023-07-18T08:12:02Z</time>
      </trkpt>
      <trkpt lat="47.25565" lon="0.50737">
        <ele>57.6</ele>
        <time>2023-07-18T08:12:03Z</time>
      </trkpt>
      <trkpt lat="47.25568" lon="0.50726">
        <ele>57.8</ele>
        <time>2023-07-18T08:12:04Z</time>
      </trkpt>
      <trkpt lat="47.25571" lon="0.50716">
        <ele>57.8</ele>
        <time>2023-07-18T08:12:05Z</time>
      </trkpt>
      <trkpt lat="47.25575" lon="0.50706">
        <ele>58</ele>
        <time>2023-07-18T08:12:06Z</time>
      </trkpt>
      <trkpt lat="47.25578" lon="0.50696">
        <ele>58</ele>
        <time>2023-07-18T08:12:07Z</time>
      </trkpt>
      <trkpt lat="47.25582" lon="0.50685">
        <ele>58.2</ele>
        <time>2023-07-18T08:12:08Z</time>
      </trkpt>
      <trkpt lat="47.25585" lon="0.50675">
        <ele>58.2</ele>
        <time>2023-07-18T08:12:09Z</time>
      </trkpt>
      <trkpt lat="47.25588" lon="0.50664">
        <ele>58.4</ele>
        <time>2023-07-18T08:12:10Z</time>
      </trkpt>
      <trkpt lat="47.25591" lon="0.50654">
        <ele>58.4</ele>
        <time>2023-07-18T08:12:11Z</time>
      </trkpt>
      <trkpt lat="47.25594" lon="0.50644">
        <ele>58.4</ele>
        <time>2023-07-18T08:12:12Z</time>
      </trkpt>
      <trkpt lat="47.25597" lon="0.50634">
        <ele>58.6</ele>
        <time>2023-07-18T08:12:13Z</time>
      </trkpt>
      <trkpt lat="47.256" lon="0.50624">
        <ele>58.6</ele>
        <time>2023-07-18T08:12:14Z</time>
      </trkpt>
      <trkpt lat="47.25603" lon="0.50614">
        <ele>58.6</ele>
        <time>2023-07-18T08:12:15Z</time>
      </trkpt>
      <trkpt lat="47.25606" lon="0.50605">
        <ele>58.6</ele>
        <time>2023-07-18T08:12:16Z</time>
      </trkpt>
      <trkpt lat="47.25608" lon="0.50594">
        <ele>58.6</ele>
        <time>2023-07-18T08:12:17Z</time>
      </trkpt>
      <trkpt lat="47.2561" lon="0.50583">
        <ele>58.4</ele>
        <time>2023-07-18T08:12:18Z</time>
      </trkpt>
      <trkpt lat="47.25613" lon="0.50573">
        <ele>58.4</ele>
        <time>2023-07-18T08:12:19Z</time>
      </trkpt>
      <trkpt lat="47.25615" lon="0.50562">
        <ele>58.6</ele>
        <time>2023-07-18T08:12:20Z</time>
      </trkpt>
      <trkpt lat="47.25618" lon="0.50551">
        <ele>58.8</ele>
        <time>2023-07-18T08:12:21Z</time>
      </trkpt>
      <trkpt lat="47.2562" lon="0.50542">
        <ele>59</ele>
        <time>2023-07-18T08:12:22Z</time>
      </trkpt>
      <trkpt lat="47.25623" lon="0.50532">
        <ele>59</ele>
        <time>2023-07-18T08:12:23Z</time>
      </trkpt>
      <trkpt lat="47.25626" lon="0.50521">
        <ele>59</ele>
        <time>2023-07-18T08:12:24Z</time>
      </trkpt>
      <trkpt lat="47.25628" lon="0.50511">
        <ele>59</ele>
        <time>2023-07-18T08:12:25Z</time>
      </trkpt>
      <trkpt lat="47.2563" lon="0.50502">
        <ele>59</ele>
        <time>2023-07-18T08:12:26Z</time>
      </trkpt>
      <trkpt lat="47.25632" lon="0.50493">
        <ele>59</ele>
        <time>2023-07-18T08:12:27Z</time>
      </trkpt>
      <trkpt lat="47.25635" lon="0.50483">
        <ele>59</ele>
        <time>2023-07-18T08:12:28Z</time>
      </trkpt>
      <trkpt lat="47.25637" lon="0.50472">
        <ele>59</ele>
        <time>2023-07-18T08:12:29Z</time>
      </trkpt>
      <trkpt lat="47.2564" lon="0.50462">
        <ele>59</ele>
        <time>2023-07-18T08:12:30Z</time>
      </trkpt>
      <trkpt lat="47.25643" lon="0.50452">
        <ele>59.2</ele>
        <time>2023-07-18T08:12:31Z</time>
      </trkpt>
      <trkpt lat="47.25645" lon="0.50441">
        <ele>59.4</ele>
        <time>2023-07-18T08:12:32Z</time>
      </trkpt>
      <trkpt lat="47.25647" lon="0.50431">
        <ele>59.6</ele>
        <time>2023-07-18T08:12:33Z</time>
      </trkpt>
      <trkpt lat="47.2565" lon="0.50421">
        <ele>59.6</ele>
        <time>2023-07-18T08:12:34Z</time>
      </trkpt>
      <trkpt lat="47.25652" lon="0.50409">
        <ele>59.6</ele>
        <time>2023-07-18T08:12:35Z</time>
      </trkpt>
      <trkpt lat="47.25654" lon="0.50399">
        <ele>59.6</ele>
        <time>2023-07-18T08:12:36Z</time>
      </trkpt>
      <trkpt lat="47.25657" lon="0.50388">
        <ele>59.6</ele>
        <time>2023-07-18T08:12:37Z</time>
      </trkpt>
      <trkpt lat="47.25658" lon="0.50377">
        <ele>59.8</ele>
        <time>2023-07-18T08:12:38Z</time>
      </trkpt>
      <trkpt lat="47.2566" lon="0.50367">
        <ele>59.8</ele>
        <time>2023-07-18T08:12:39Z</time>
      </trkpt>
      <trkpt lat="47.25662" lon="0.50355">
        <ele>59.8</ele>
        <time>2023-07-18T08:12:40Z</time>
      </trkpt>
      <trkpt lat="47.25663" lon="0.50344">
        <ele>59.8</ele>
        <time>2023-07-18T08:12:41Z</time>
      </trkpt>
      <trkpt lat="47.25665" lon="0.50333">
        <ele>59.8</ele>
        <time>2023-07-18T08:12:42Z</time>
      </trkpt>
      <trkpt lat="47.25665" lon="0.50322">
        <ele>59.8</ele>
        <time>2023-07-18T08:12:43Z</time>
      </trkpt>
      <trkpt lat="47.25666" lon="0.50311">
        <ele>59.8</ele>
        <time>2023-07-18T08:12:44Z</time>
      </trkpt>
      <trkpt lat="47.25667" lon="0.50299">
        <ele>59.6</ele>
        <time>2023-07-18T08:12:45Z</time>
      </trkpt>
      <trkpt lat="47.25668" lon="0.50289">
        <ele>59.6</ele>
        <time>2023-07-18T08:12:46Z</time>
      </trkpt>
      <trkpt lat="47.25669" lon="0.50278">
        <ele>59.4</ele>
        <time>2023-07-18T08:12:47Z</time>
      </trkpt>
      <trkpt lat="47.25669" lon="0.50266">
        <ele>59.4</ele>
        <time>2023-07-18T08:12:48Z</time>
      </trkpt>
      <trkpt lat="47.25671" lon="0.50255">
        <ele>59.4</ele>
        <time>2023-07-18T08:12:49Z</time>
      </trkpt>
      <trkpt lat="47.25671" lon="0.50243">
        <ele>59.4</ele>
        <time>2023-07-18T08:12:50Z</time>
      </trkpt>
      <trkpt lat="47.25672" lon="0.50233">
        <ele>59.4</ele>
        <time>2023-07-18T08:12:51Z</time>
      </trkpt>
      <trkpt lat="47.25672" lon="0.50222">
        <ele>59.2</ele>
        <time>2023-07-18T08:12:52Z</time>
      </trkpt>
      <trkpt lat="47.25672" lon="0.50211">
        <ele>59.2</ele>
        <time>2023-07-18T08:12:53Z</time>
      </trkpt>
      <trkpt lat="47.25672" lon="0.502">
        <ele>59</ele>
        <time>2023-07-18T08:12:54Z</time>
      </trkpt>
      <trkpt lat="47.25672" lon="0.50189">
        <ele>58.8</ele>
        <time>2023-07-18T08:12:55Z</time>
      </trkpt>
      <trkpt lat="47.25673" lon="0.50177">
        <ele>58.8</ele>
        <time>2023-07-18T08:12:56Z</time>
      </trkpt>
      <trkpt lat="47.25673" lon="0.50166">
        <ele>58.6</ele>
        <time>2023-07-18T08:12:57Z</time>
      </trkpt>
      <trkpt lat="47.25673" lon="0.50154">
        <ele>58.4</ele>
        <time>2023-07-18T08:12:58Z</time>
      </trkpt>
      <trkpt lat="47.25673" lon="0.50143">
        <ele>58.2</ele>
        <time>2023-07-18T08:12:59Z</time>
      </trkpt>
      <trkpt lat="47.25673" lon="0.50131">
        <ele>58</ele>
        <time>2023-07-18T08:13:00Z</time>
      </trkpt>
      <trkpt lat="47.25674" lon="0.50118">
        <ele>57.8</ele>
        <time>2023-07-18T08:13:01Z</time>
      </trkpt>
      <trkpt lat="47.25674" lon="0.50107">
        <ele>57.6</ele>
        <time>2023-07-18T08:13:02Z</time>
      </trkpt>
      <trkpt lat="47.25675" lon="0.50094">
        <ele>57.6</ele>
        <time>2023-07-18T08:13:03Z</time>
      </trkpt>
      <trkpt lat="47.25676" lon="0.50082">
        <ele>57.4</ele>
        <time>2023-07-18T08:13:04Z</time>
      </trkpt>
      <trkpt lat="47.25677" lon="0.5007">
        <ele>57.4</ele>
        <time>2023-07-18T08:13:05Z</time>
      </trkpt>
      <trkpt lat="47.25678" lon="0.50058">
        <ele>57.4</ele>
        <time>2023-07-18T08:13:06Z</time>
      </trkpt>
      <trkpt lat="47.25679" lon="0.50046">
        <ele>57.2</ele>
        <time>2023-07-18T08:13:07Z</time>
      </trkpt>
      <trkpt lat="47.2568" lon="0.50034">
        <ele>57.2</ele>
        <time>2023-07-18T08:13:08Z</time>
      </trkpt>
      <trkpt lat="47.25681" lon="0.50022">
        <ele>57.2</ele>
        <time>2023-07-18T08:13:09Z</time>
      </trkpt>
      <trkpt lat="47.25682" lon="0.5001">
        <ele>57</ele>
        <time>2023-07-18T08:13:10Z</time>
      </trkpt>
      <trkpt lat="47.25683" lon="0.49999">
        <ele>57</ele>
        <time>2023-07-18T08:13:11Z</time>
      </trkpt>
      <trkpt lat="47.25684" lon="0.49987">
        <ele>56.8</ele>
        <time>2023-07-18T08:13:12Z</time>
      </trkpt>
      <trkpt lat="47.25686" lon="0.49976">
        <ele>56.8</ele>
        <time>2023-07-18T08:13:13Z</time>
      </trkpt>
      <trkpt lat="47.25687" lon="0.49963">
        <ele>56.8</ele>
        <time>2023-07-18T08:13:14Z</time>
      </trkpt>
      <trkpt lat="47.25688" lon="0.49952">
        <ele>56.6</ele>
        <time>2023-07-18T08:13:15Z</time>
      </trkpt>
      <trkpt lat="47.25689" lon="0.4994">
        <ele>56.4</ele>
        <time>2023-07-18T08:13:16Z</time>
      </trkpt>
      <trkpt lat="47.25691" lon="0.49928">
        <ele>56.4</ele>
        <time>2023-07-18T08:13:17Z</time>
      </trkpt>
      <trkpt lat="47.25692" lon="0.49917">
        <ele>56.4</ele>
        <time>2023-07-18T08:13:18Z</time>
      </trkpt>
      <trkpt lat="47.25694" lon="0.49905">
        <ele>56.4</ele>
        <time>2023-07-18T08:13:19Z</time>
      </trkpt>
      <trkpt lat="47.25696" lon="0.49894">
        <ele>56.4</ele>
        <time>2023-07-18T08:13:20Z</time>
      </trkpt>
      <trkpt lat="47.25698" lon="0.49882">
        <ele>56.2</ele>
        <time>2023-07-18T08:13:21Z</time>
      </trkpt>
      <trkpt lat="47.257" lon="0.49871">
        <ele>56.2</ele>
        <time>2023-07-18T08:13:22Z</time>
      </trkpt>
      <trkpt lat="47.25702" lon="0.4986">
        <ele>56.2</ele>
        <time>2023-07-18T08:13:23Z</time>
      </trkpt>
      <trkpt lat="47.25704" lon="0.49849">
        <ele>56.2</ele>
        <time>2023-07-18T08:13:24Z</time>
      </trkpt>
      <trkpt lat="47.25706" lon="0.49838">
        <ele>56.4</ele>
        <time>2023-07-18T08:13:25Z</time>
      </trkpt>
      <trkpt lat="47.25708" lon="0.49827">
        <ele>56.2</ele>
        <time>2023-07-18T08:13:26Z</time>
      </trkpt>
      <trkpt lat="47.2571" lon="0.49817">
        <ele>56.2</ele>
        <time>2023-07-18T08:13:27Z</time>
      </trkpt>
      <trkpt lat="47.25711" lon="0.49806">
        <ele>56.2</ele>
        <time>2023-07-18T08:13:28Z</time>
      </trkpt>
      <trkpt lat="47.25713" lon="0.49795">
        <ele>56.4</ele>
        <time>2023-07-18T08:13:29Z</time>
      </trkpt>
      <trkpt lat="47.25714" lon="0.49784">
        <ele>56.4</ele>
        <time>2023-07-18T08:13:30Z</time>
      </trkpt>
      <trkpt lat="47.25714" lon="0.49773">
        <ele>56.6</ele>
        <time>2023-07-18T08:13:31Z</time>
      </trkpt>
      <trkpt lat="47.25715" lon="0.49762">
        <ele>56.6</ele>
        <time>2023-07-18T08:13:32Z</time>
      </trkpt>
      <trkpt lat="47.25715" lon="0.49751">
        <ele>56.8</ele>
        <time>2023-07-18T08:13:33Z</time>
      </trkpt>
      <trkpt lat="47.25715" lon="0.4974">
        <ele>56.8</ele>
        <time>2023-07-18T08:13:34Z</time>
      </trkpt>
      <trkpt lat="47.25714" lon="0.49729">
        <ele>56.8</ele>
        <time>2023-07-18T08:13:35Z</time>
      </trkpt>
      <trkpt lat="47.25714" lon="0.49718">
        <ele>56.6</ele>
        <time>2023-07-18T08:13:36Z</time>
      </trkpt>
      <trkpt lat="47.25714" lon="0.49707">
        <ele>56.6</ele>
        <time>2023-07-18T08:13:37Z</time>
      </trkpt>
      <trkpt lat="47.25714" lon="0.49697">
        <ele>56.8</ele>
        <time>2023-07-18T08:13:38Z</time>
      </trkpt>
      <trkpt lat="47.25714" lon="0.49686">
        <ele>56.8</ele>
        <time>2023-07-18T08:13:39Z</time>
      </trkpt>
      <trkpt lat="47.25714" lon="0.49675">
        <ele>57</ele>
        <time>2023-07-18T08:13:40Z</time>
      </trkpt>
      <trkpt lat="47.25713" lon="0.49664">
        <ele>56.8</ele>
        <time>2023-07-18T08:13:41Z</time>
      </trkpt>
      <trkpt lat="47.25713" lon="0.49653">
        <ele>56.8</ele>
        <time>2023-07-18T08:13:42Z</time>
      </trkpt>
      <trkpt lat="47.25713" lon="0.49642">
        <ele>57</ele>
        <time>2023-07-18T08:13:43Z</time>
      </trkpt>
      <trkpt lat="47.25712" lon="0.49631">
        <ele>57</ele>
        <time>2023-07-18T08:13:44Z</time>
      </trkpt>
      <trkpt lat="47.25712" lon="0.4962">
        <ele>57</ele>
        <time>2023-07-18T08:13:45Z</time>
      </trkpt>
      <trkpt lat="47.25711" lon="0.49608">
        <ele>56.8</ele>
        <time>2023-07-18T08:13:46Z</time>
      </trkpt>
      <trkpt lat="47.25711" lon="0.49597">
        <ele>56.8</ele>
        <time>2023-07-18T08:13:47Z</time>
      </trkpt>
      <trkpt lat="47.25711" lon="0.49586">
        <ele>56.6</ele>
        <time>2023-07-18T08:13:48Z</time>
      </trkpt>
      <trkpt lat="47.25711" lon="0.49575">
        <ele>56.4</ele>
        <time>2023-07-18T08:13:49Z</time>
      </trkpt>
      <trkpt lat="47.25711" lon="0.49564">
        <ele>56.4</ele>
        <time>2023-07-18T08:13:50Z</time>
      </trkpt>
      <trkpt lat="47.2571" lon="0.49554">
        <ele>56.2</ele>
        <time>2023-07-18T08:13:51Z</time>
      </trkpt>
      <trkpt lat="47.25711" lon="0.49543">
        <ele>56</ele>
        <time>2023-07-18T08:13:52Z</time>
      </trkpt>
      <trkpt lat="47.2571" lon="0.49532">
        <ele>56</ele>
        <time>2023-07-18T08:13:53Z</time>
      </trkpt>
      <trkpt lat="47.25711" lon="0.49521">
        <ele>55.8</ele>
        <time>2023-07-18T08:13:54Z</time>
      </trkpt>
      <trkpt lat="47.25711" lon="0.4951">
        <ele>55.6</ele>
        <time>2023-07-18T08:13:55Z</time>
      </trkpt>
      <trkpt lat="47.25711" lon="0.49499">
        <ele>55.6</ele>
        <time>2023-07-18T08:13:56Z</time>
      </trkpt>
      <trkpt lat="47.25711" lon="0.49488">
        <ele>55.6</ele>
        <time>2023-07-18T08:13:57Z</time>
      </trkpt>
      <trkpt lat="47.25711" lon="0.49476">
        <ele>55.4</ele>
        <time>2023-07-18T08:13:58Z</time>
      </trkpt>
      <trkpt lat="47.25711" lon="0.49465">
        <ele>55.4</ele>
        <time>2023-07-18T08:13:59Z</time>
      </trkpt>
      <trkpt lat="47.25712" lon="0.49454">
        <ele>55.2</ele>
        <time>2023-07-18T08:14:00Z</time>
      </trkpt>
      <trkpt lat="47.25713" lon="0.49443">
        <ele>55.2</ele>
        <time>2023-07-18T08:14:01Z</time>
      </trkpt>
      <trkpt lat="47.25714" lon="0.49432">
        <ele>55.2</ele>
        <time>2023-07-18T08:14:02Z</time>
      </trkpt>
      <trkpt lat="47.25714" lon="0.4942">
        <ele>55.2</ele>
        <time>2023-07-18T08:14:03Z</time>
      </trkpt>
      <trkpt lat="47.25716" lon="0.49409">
        <ele>55.2</ele>
        <time>2023-07-18T08:14:04Z</time>
      </trkpt>
      <trkpt lat="47.25716" lon="0.49398">
        <ele>55.2</ele>
        <time>2023-07-18T08:14:05Z</time>
      </trkpt>
      <trkpt lat="47.25718" lon="0.49387">
        <ele>55.4</ele>
        <time>2023-07-18T08:14:06Z</time>
      </trkpt>
      <trkpt lat="47.25719" lon="0.49377">
        <ele>55.4</ele>
        <time>2023-07-18T08:14:07Z</time>
      </trkpt>
      <trkpt lat="47.25721" lon="0.49366">
        <ele>55.4</ele>
        <time>2023-07-18T08:14:08Z</time>
      </trkpt>
      <trkpt lat="47.25724" lon="0.49356">
        <ele>55.4</ele>
        <time>2023-07-18T08:14:09Z</time>
      </trkpt>
      <trkpt lat="47.25726" lon="0.49346">
        <ele>55.4</ele>
        <time>2023-07-18T08:14:10Z</time>
      </trkpt>
      <trkpt lat="47.25728" lon="0.49336">
        <ele>55.4</ele>
        <time>2023-07-18T08:14:11Z</time>
      </trkpt>
      <trkpt lat="47.2573" lon="0.49325">
        <ele>55.2</ele>
        <time>2023-07-18T08:14:12Z</time>
      </trkpt>
      <trkpt lat="47.25732" lon="0.49315">
        <ele>55</ele>
        <time>2023-07-18T08:14:13Z</time>
      </trkpt>
      <trkpt lat="47.25733" lon="0.49305">
        <ele>55</ele>
        <time>2023-07-18T08:14:14Z</time>
      </trkpt>
      <trkpt lat="47.25734" lon="0.49294">
        <ele>55.2</ele>
        <time>2023-07-18T08:14:15Z</time>
      </trkpt>
      <trkpt lat="47.25735" lon="0.49283">
        <ele>55.2</ele>
        <time>2023-07-18T08:14:16Z</time>
      </trkpt>
      <trkpt lat="47.25735" lon="0.49273">
        <ele>55.2</ele>
        <time>2023-07-18T08:14:17Z</time>
      </trkpt>
      <trkpt lat="47.25736" lon="0.49263">
        <ele>55.4</ele>
        <time>2023-07-18T08:14:18Z</time>
      </trkpt>
      <trkpt lat="47.25736" lon="0.49252">
        <ele>55.2</ele>
        <time>2023-07-18T08:14:19Z</time>
      </trkpt>
      <trkpt lat="47.25736" lon="0.49242">
        <ele>55.2</ele>
        <time>2023-07-18T08:14:20Z</time>
      </trkpt>
      <trkpt lat="47.25736" lon="0.49232">
        <ele>55.4</ele>
        <time>2023-07-18T08:14:21Z</time>
      </trkpt>
      <trkpt lat="47.25736" lon="0.49221">
        <ele>55.4</ele>
        <time>2023-07-18T08:14:22Z</time>
      </trkpt>
      <trkpt lat="47.25735" lon="0.49211">
        <ele>55.4</ele>
        <time>2023-07-18T08:14:23Z</time>
      </trkpt>
      <trkpt lat="47.25735" lon="0.49201">
        <ele>55.4</ele>
        <time>2023-07-18T08:14:24Z</time>
      </trkpt>
      <trkpt lat="47.25734" lon="0.4919">
        <ele>55.2</ele>
        <time>2023-07-18T08:14:25Z</time>
      </trkpt>
      <trkpt lat="47.25734" lon="0.4918">
        <ele>55.2</ele>
        <time>2023-07-18T08:14:26Z</time>
      </trkpt>
      <trkpt lat="47.25733" lon="0.4917">
        <ele>55.2</ele>
        <time>2023-07-18T08:14:27Z</time>
      </trkpt>
      <trkpt lat="47.25733" lon="0.4916">
        <ele>55.2</ele>
        <time>2023-07-18T08:14:28Z</time>
      </trkpt>
      <trkpt lat="47.25733" lon="0.4915">
        <ele>55.2</ele>
        <time>2023-07-18T08:14:29Z</time>
      </trkpt>
      <trkpt lat="47.25732" lon="0.4914">
        <ele>55.2</ele>
        <time>2023-07-18T08:14:30Z</time>
      </trkpt>
      <trkpt lat="47.25732" lon="0.49129">
        <ele>55</ele>
        <time>2023-07-18T08:14:31Z</time>
      </trkpt>
      <trkpt lat="47.25733" lon="0.49119">
        <ele>55</ele>
        <time>2023-07-18T08:14:32Z</time>
      </trkpt>
      <trkpt lat="47.25733" lon="0.49108">
        <ele>55</ele>
        <time>2023-07-18T08:14:33Z</time>
      </trkpt>
      <trkpt lat="47.25734" lon="0.49097">
        <ele>55</ele>
        <time>2023-07-18T08:14:34Z</time>
      </trkpt>
      <trkpt lat="47.25735" lon="0.49087">
        <ele>55</ele>
        <time>2023-07-18T08:14:35Z</time>
      </trkpt>
      <trkpt lat="47.25735" lon="0.49076">
        <ele>55</ele>
        <time>2023-07-18T08:14:36Z</time>
      </trkpt>
      <trkpt lat="47.25737" lon="0.49066">
        <ele>55.2</ele>
        <time>2023-07-18T08:14:37Z</time>
      </trkpt>
      <trkpt lat="47.25738" lon="0.49056">
        <ele>55.2</ele>
        <time>2023-07-18T08:14:38Z</time>
      </trkpt>
      <trkpt lat="47.2574" lon="0.49046">
        <ele>55.2</ele>
        <time>2023-07-18T08:14:39Z</time>
      </trkpt>
      <trkpt lat="47.25742" lon="0.49036">
        <ele>55.4</ele>
        <time>2023-07-18T08:14:40Z</time>
      </trkpt>
      <trkpt lat="47.25744" lon="0.49026">
        <ele>55.6</ele>
        <time>2023-07-18T08:14:41Z</time>
      </trkpt>
      <trkpt lat="47.25746" lon="0.49017">
        <ele>55.8</ele>
        <time>2023-07-18T08:14:42Z</time>
      </trkpt>
      <trkpt lat="47.25749" lon="0.49007">
        <ele>56</ele>
        <time>2023-07-18T08:14:43Z</time>
      </trkpt>
      <trkpt lat="47.25751" lon="0.48997">
        <ele>56.4</ele>
        <time>2023-07-18T08:14:44Z</time>
      </trkpt>
      <trkpt lat="47.25753" lon="0.48988">
        <ele>56.8</ele>
        <time>2023-07-18T08:14:45Z</time>
      </trkpt>
      <trkpt lat="47.25755" lon="0.48979">
        <ele>57</ele>
        <time>2023-07-18T08:14:46Z</time>
      </trkpt>
      <trkpt lat="47.25758" lon="0.4897">
        <ele>57.4</ele>
        <time>2023-07-18T08:14:47Z</time>
      </trkpt>
      <trkpt lat="47.25761" lon="0.4896">
        <ele>57.8</ele>
        <time>2023-07-18T08:14:48Z</time>
      </trkpt>
      <trkpt lat="47.25763" lon="0.48952">
        <ele>58</ele>
        <time>2023-07-18T08:14:49Z</time>
      </trkpt>
      <trkpt lat="47.25766" lon="0.48943">
        <ele>58.2</ele>
        <time>2023-07-18T08:14:50Z</time>
      </trkpt>
      <trkpt lat="47.25768" lon="0.48934">
        <ele>58.6</ele>
        <time>2023-07-18T08:14:51Z</time>
      </trkpt>
      <trkpt lat="47.25771" lon="0.48926">
        <ele>58.8</ele>
        <time>2023-07-18T08:14:52Z</time>
      </trkpt>
      <trkpt lat="47.25773" lon="0.48917">
        <ele>59.2</ele>
        <time>2023-07-18T08:14:53Z</time>
      </trkpt>
      <trkpt lat="47.25775" lon="0.48908">
        <ele>59.6</ele>
        <time>2023-07-18T08:14:54Z</time>
      </trkpt>
      <trkpt lat="47.25778" lon="0.48899">
        <ele>60</ele>
        <time>2023-07-18T08:14:55Z</time>
      </trkpt>
      <trkpt lat="47.2578" lon="0.4889">
        <ele>60.2</ele>
        <time>2023-07-18T08:14:56Z</time>
      </trkpt>
      <trkpt lat="47.25782" lon="0.48882">
        <ele>60.6</ele>
        <time>2023-07-18T08:14:57Z</time>
      </trkpt>
      <trkpt lat="47.25783" lon="0.48873">
        <ele>60.8</ele>
        <time>2023-07-18T08:14:58Z</time>
      </trkpt>
      <trkpt lat="47.25785" lon="0.48864">
        <ele>61.2</ele>
        <time>2023-07-18T08:14:59Z</time>
      </trkpt>
      <trkpt lat="47.25786" lon="0.48855">
        <ele>61.4</ele>
        <time>2023-07-18T08:15:00Z</time>
      </trkpt>
      <trkpt lat="47.25787" lon="0.48847">
        <ele>61.6</ele>
        <time>2023-07-18T08:15:01Z</time>
      </trkpt>
      <trkpt lat="47.25787" lon="0.48838">
        <ele>61.6</ele>
        <time>2023-07-18T08:15:02Z</time>
      </trkpt>
      <trkpt lat="47.25788" lon="0.4883">
        <ele>61.8</ele>
        <time>2023-07-18T08:15:03Z</time>
      </trkpt>
      <trkpt lat="47.25789" lon="0.48822">
        <ele>61.8</ele>
        <time>2023-07-18T08:15:04Z</time>
      </trkpt>
      <trkpt lat="47.2579" lon="0.48814">
        <ele>62</ele>
        <time>2023-07-18T08:15:05Z</time>
      </trkpt>
      <trkpt lat="47.25792" lon="0.48806">
        <ele>62.2</ele>
        <time>2023-07-18T08:15:06Z</time>
      </trkpt>
      <trkpt lat="47.25793" lon="0.48797">
        <ele>62.2</ele>
        <time>2023-07-18T08:15:07Z</time>
      </trkpt>
      <trkpt lat="47.25794" lon="0.48788">
        <ele>62.4</ele>
        <time>2023-07-18T08:15:08Z</time>
      </trkpt>
      <trkpt lat="47.25795" lon="0.48779">
        <ele>62.4</ele>
        <time>2023-07-18T08:15:09Z</time>
      </trkpt>
      <trkpt lat="47.25796" lon="0.4877">
        <ele>62.2</ele>
        <time>2023-07-18T08:15:10Z</time>
      </trkpt>
      <trkpt lat="47.25797" lon="0.48762">
        <ele>62</ele>
        <time>2023-07-18T08:15:11Z</time>
      </trkpt>
      <trkpt lat="47.25798" lon="0.48753">
        <ele>62</ele>
        <time>2023-07-18T08:15:12Z</time>
      </trkpt>
      <trkpt lat="47.258" lon="0.48743">
        <ele>61.8</ele>
        <time>2023-07-18T08:15:13Z</time>
      </trkpt>
      <trkpt lat="47.25801" lon="0.48734">
        <ele>61.6</ele>
        <time>2023-07-18T08:15:14Z</time>
      </trkpt>
      <trkpt lat="47.25801" lon="0.48724">
        <ele>61.6</ele>
        <time>2023-07-18T08:15:15Z</time>
      </trkpt>
      <trkpt lat="47.25802" lon="0.48715">
        <ele>61.4</ele>
        <time>2023-07-18T08:15:16Z</time>
      </trkpt>
      <trkpt lat="47.25803" lon="0.48706">
        <ele>61.4</ele>
        <time>2023-07-18T08:15:17Z</time>
      </trkpt>
      <trkpt lat="47.25804" lon="0.48696">
        <ele>61.4</ele>
        <time>2023-07-18T08:15:18Z</time>
      </trkpt>
      <trkpt lat="47.25805" lon="0.48685">
        <ele>61.4</ele>
        <time>2023-07-18T08:15:19Z</time>
      </trkpt>
      <trkpt lat="47.25806" lon="0.48675">
        <ele>61.4</ele>
        <time>2023-07-18T08:15:20Z</time>
      </trkpt>
      <trkpt lat="47.25807" lon="0.48664">
        <ele>61.4</ele>
        <time>2023-07-18T08:15:21Z</time>
      </trkpt>
      <trkpt lat="47.25808" lon="0.48654">
        <ele>61.4</ele>
        <time>2023-07-18T08:15:22Z</time>
      </trkpt>
      <trkpt lat="47.25808" lon="0.48643">
        <ele>61.4</ele>
        <time>2023-07-18T08:15:23Z</time>
      </trkpt>
      <trkpt lat="47.25809" lon="0.48634">
        <ele>61.6</ele>
        <time>2023-07-18T08:15:24Z</time>
      </trkpt>
      <trkpt lat="47.25809" lon="0.48624">
        <ele>61.8</ele>
        <time>2023-07-18T08:15:25Z</time>
      </trkpt>
      <trkpt lat="47.25809" lon="0.48614">
        <ele>61.8</ele>
        <time>2023-07-18T08:15:26Z</time>
      </trkpt>
      <trkpt lat="47.2581" lon="0.48605">
        <ele>61.8</ele>
        <time>2023-07-18T08:15:27Z</time>
      </trkpt>
      <trkpt lat="47.25811" lon="0.48595">
        <ele>61.8</ele>
        <time>2023-07-18T08:15:28Z</time>
      </trkpt>
      <trkpt lat="47.25812" lon="0.48585">
        <ele>61.8</ele>
        <time>2023-07-18T08:15:29Z</time>
      </trkpt>
      <trkpt lat="47.25813" lon="0.48574">
        <ele>61.8</ele>
        <time>2023-07-18T08:15:30Z</time>
      </trkpt>
      <trkpt lat="47.25814" lon="0.48564">
        <ele>61.8</ele>
        <time>2023-07-18T08:15:31Z</time>
      </trkpt>
      <trkpt lat="47.25814" lon="0.48555">
        <ele>61.6</ele>
        <time>2023-07-18T08:15:32Z</time>
      </trkpt>
      <trkpt lat="47.25814" lon="0.48545">
        <ele>61.6</ele>
        <time>2023-07-18T08:15:33Z</time>
      </trkpt>
      <trkpt lat="47.25815" lon="0.48534">
        <ele>61.6</ele>
        <time>2023-07-18T08:15:34Z</time>
      </trkpt>
      <trkpt lat="47.25816" lon="0.48523">
        <ele>61.6</ele>
        <time>2023-07-18T08:15:35Z</time>
      </trkpt>
      <trkpt lat="47.25816" lon="0.48512">
        <ele>61.4</ele>
        <time>2023-07-18T08:15:36Z</time>
      </trkpt>
      <trkpt lat="47.25817" lon="0.48501">
        <ele>61.2</ele>
        <time>2023-07-18T08:15:37Z</time>
      </trkpt>
      <trkpt lat="47.25818" lon="0.4849">
        <ele>61.2</ele>
        <time>2023-07-18T08:15:38Z</time>
      </trkpt>
      <trkpt lat="47.25819" lon="0.48479">
        <ele>61</ele>
        <time>2023-07-18T08:15:39Z</time>
      </trkpt>
      <trkpt lat="47.25819" lon="0.48467">
        <ele>60.8</ele>
        <time>2023-07-18T08:15:40Z</time>
      </trkpt>
      <trkpt lat="47.2582" lon="0.48456">
        <ele>60.8</ele>
        <time>2023-07-18T08:15:41Z</time>
      </trkpt>
      <trkpt lat="47.25822" lon="0.48445">
        <ele>60.6</ele>
        <time>2023-07-18T08:15:42Z</time>
      </trkpt>
      <trkpt lat="47.25823" lon="0.48433">
        <ele>60.6</ele>
        <time>2023-07-18T08:15:43Z</time>
      </trkpt>
      <trkpt lat="47.25824" lon="0.48422">
        <ele>60.4</ele>
        <time>2023-07-18T08:15:44Z</time>
      </trkpt>
      <trkpt lat="47.25825" lon="0.48409">
        <ele>60.2</ele>
        <time>2023-07-18T08:15:45Z</time>
      </trkpt>
      <trkpt lat="47.25827" lon="0.48397">
        <ele>60.2</ele>
        <time>2023-07-18T08:15:46Z</time>
      </trkpt>
      <trkpt lat="47.25828" lon="0.48384">
        <ele>60.2</ele>
        <time>2023-07-18T08:15:47Z</time>
      </trkpt>
      <trkpt lat="47.25829" lon="0.48372">
        <ele>60.2</ele>
        <time>2023-07-18T08:15:48Z</time>
      </trkpt>
      <trkpt lat="47.25829" lon="0.4836">
        <ele>60.2</ele>
        <time>2023-07-18T08:15:49Z</time>
      </trkpt>
      <trkpt lat="47.2583" lon="0.48348">
        <ele>60</ele>
        <time>2023-07-18T08:15:50Z</time>
      </trkpt>
      <trkpt lat="47.25831" lon="0.48336">
        <ele>60</ele>
        <time>2023-07-18T08:15:51Z</time>
      </trkpt>
      <trkpt lat="47.25831" lon="0.48324">
        <ele>59.8</ele>
        <time>2023-07-18T08:15:52Z</time>
      </trkpt>
      <trkpt lat="47.25832" lon="0.48312">
        <ele>59.6</ele>
        <time>2023-07-18T08:15:53Z</time>
      </trkpt>
      <trkpt lat="47.25832" lon="0.483">
        <ele>59.4</ele>
        <time>2023-07-18T08:15:54Z</time>
      </trkpt>
      <trkpt lat="47.25833" lon="0.48288">
        <ele>59.2</ele>
        <time>2023-07-18T08:15:55Z</time>
      </trkpt>
      <trkpt lat="47.25834" lon="0.48276">
        <ele>58.8</ele>
        <time>2023-07-18T08:15:56Z</time>
      </trkpt>
      <trkpt lat="47.25834" lon="0.48263">
        <ele>58.6</ele>
        <time>2023-07-18T08:15:57Z</time>
      </trkpt>
      <trkpt lat="47.25835" lon="0.4825">
        <ele>58.6</ele>
        <time>2023-07-18T08:15:58Z</time>
      </trkpt>
      <trkpt lat="47.25834" lon="0.48239">
        <ele>58.4</ele>
        <time>2023-07-18T08:15:59Z</time>
      </trkpt>
      <trkpt lat="47.25834" lon="0.48227">
        <ele>58.2</ele>
        <time>2023-07-18T08:16:00Z</time>
      </trkpt>
      <trkpt lat="47.25834" lon="0.48214">
        <ele>58.2</ele>
        <time>2023-07-18T08:16:01Z</time>
      </trkpt>
      <trkpt lat="47.25834" lon="0.48201">
        <ele>58</ele>
        <time>2023-07-18T08:16:02Z</time>
      </trkpt>
      <trkpt lat="47.25833" lon="0.48189">
        <ele>58</ele>
        <time>2023-07-18T08:16:03Z</time>
      </trkpt>
      <trkpt lat="47.25832" lon="0.48176">
        <ele>57.8</ele>
        <time>2023-07-18T08:16:04Z</time>
      </trkpt>
      <trkpt lat="47.25832" lon="0.48163">
        <ele>57.6</ele>
        <time>2023-07-18T08:16:05Z</time>
      </trkpt>
      <trkpt lat="47.25832" lon="0.4815">
        <ele>57.6</ele>
        <time>2023-07-18T08:16:06Z</time>
      </trkpt>
      <trkpt lat="47.25832" lon="0.48138">
        <ele>57.4</ele>
        <time>2023-07-18T08:16:07Z</time>
      </trkpt>
      <trkpt lat="47.25832" lon="0.48125">
        <ele>57.4</ele>
        <time>2023-07-18T08:16:08Z</time>
      </trkpt>
      <trkpt lat="47.25834" lon="0.48113">
        <ele>57.4</ele>
        <time>2023-07-18T08:16:09Z</time>
      </trkpt>
      <trkpt lat="47.25834" lon="0.48101">
        <ele>57.2</ele>
        <time>2023-07-18T08:16:10Z</time>
      </trkpt>
      <trkpt lat="47.25835" lon="0.48089">
        <ele>57.2</ele>
        <time>2023-07-18T08:16:11Z</time>
      </trkpt>
      <trkpt lat="47.25836" lon="0.48077">
        <ele>57</ele>
        <time>2023-07-18T08:16:12Z</time>
      </trkpt>
      <trkpt lat="47.25838" lon="0.48065">
        <ele>56.8</ele>
        <time>2023-07-18T08:16:13Z</time>
      </trkpt>
      <trkpt lat="47.2584" lon="0.48053">
        <ele>56.8</ele>
        <time>2023-07-18T08:16:14Z</time>
      </trkpt>
      <trkpt lat="47.25842" lon="0.48041">
        <ele>56.8</ele>
        <time>2023-07-18T08:16:15Z</time>
      </trkpt>
      <trkpt lat="47.25843" lon="0.48029">
        <ele>56.8</ele>
        <time>2023-07-18T08:16:16Z</time>
      </trkpt>
      <trkpt lat="47.25846" lon="0.48018">
        <ele>56.8</ele>
        <time>2023-07-18T08:16:17Z</time>
      </trkpt>
      <trkpt lat="47.25848" lon="0.48007">
        <ele>56.8</ele>
        <time>2023-07-18T08:16:18Z</time>
      </trkpt>
      <trkpt lat="47.25851" lon="0.47996">
        <ele>56.8</ele>
        <time>2023-07-18T08:16:19Z</time>
      </trkpt>
      <trkpt lat="47.25854" lon="0.47986">
        <ele>56.8</ele>
        <time>2023-07-18T08:16:20Z</time>
      </trkpt>
      <trkpt lat="47.25856" lon="0.47975">
        <ele>56.8</ele>
        <time>2023-07-18T08:16:21Z</time>
      </trkpt>
      <trkpt lat="47.25859" lon="0.47965">
        <ele>56.8</ele>
        <time>2023-07-18T08:16:22Z</time>
      </trkpt>
      <trkpt lat="47.25862" lon="0.47954">
        <ele>56.8</ele>
        <time>2023-07-18T08:16:23Z</time>
      </trkpt>
      <trkpt lat="47.25865" lon="0.47945">
        <ele>57</ele>
        <time>2023-07-18T08:16:24Z</time>
      </trkpt>
      <trkpt lat="47.25867" lon="0.47935">
        <ele>57</ele>
        <time>2023-07-18T08:16:25Z</time>
      </trkpt>
      <trkpt lat="47.2587" lon="0.47925">
        <ele>57</ele>
        <time>2023-07-18T08:16:26Z</time>
      </trkpt>
      <trkpt lat="47.25872" lon="0.47915">
        <ele>57.2</ele>
        <time>2023-07-18T08:16:27Z</time>
      </trkpt>
      <trkpt lat="47.25875" lon="0.47905">
        <ele>57.4</ele>
        <time>2023-07-18T08:16:28Z</time>
      </trkpt>
      <trkpt lat="47.25877" lon="0.47895">
        <ele>57.2</ele>
        <time>2023-07-18T08:16:29Z</time>
      </trkpt>
      <trkpt lat="47.25878" lon="0.47884">
        <ele>57</ele>
        <time>2023-07-18T08:16:30Z</time>
      </trkpt>
      <trkpt lat="47.25879" lon="0.47874">
        <ele>56.8</ele>
        <time>2023-07-18T08:16:31Z</time>
      </trkpt>
      <trkpt lat="47.25879" lon="0.47863">
        <ele>56.8</ele>
        <time>2023-07-18T08:16:32Z</time>
      </trkpt>
      <trkpt lat="47.25879" lon="0.47853">
        <ele>56.8</ele>
        <time>2023-07-18T08:16:33Z</time>
      </trkpt>
      <trkpt lat="47.25879" lon="0.47842">
        <ele>56.6</ele>
        <time>2023-07-18T08:16:34Z</time>
      </trkpt>
      <trkpt lat="47.25879" lon="0.47831">
        <ele>56.6</ele>
        <time>2023-07-18T08:16:35Z</time>
      </trkpt>
      <trkpt lat="47.25879" lon="0.4782">
        <ele>56.4</ele>
        <time>2023-07-18T08:16:36Z</time>
      </trkpt>
      <trkpt lat="47.2588" lon="0.47809">
        <ele>56.2</ele>
        <time>2023-07-18T08:16:37Z</time>
      </trkpt>
      <trkpt lat="47.2588" lon="0.47798">
        <ele>56</ele>
        <time>2023-07-18T08:16:38Z</time>
      </trkpt>
      <trkpt lat="47.25882" lon="0.47787">
        <ele>55.8</ele>
        <time>2023-07-18T08:16:39Z</time>
      </trkpt>
      <trkpt lat="47.25883" lon="0.47777">
        <ele>55.8</ele>
        <time>2023-07-18T08:16:40Z</time>
      </trkpt>
      <trkpt lat="47.25885" lon="0.47765">
        <ele>55.6</ele>
        <time>2023-07-18T08:16:41Z</time>
      </trkpt>
      <trkpt lat="47.25887" lon="0.47755">
        <ele>55.4</ele>
        <time>2023-07-18T08:16:42Z</time>
      </trkpt>
      <trkpt lat="47.25889" lon="0.47744">
        <ele>55.4</ele>
        <time>2023-07-18T08:16:43Z</time>
      </trkpt>
      <trkpt lat="47.25891" lon="0.47734">
        <ele>55.4</ele>
        <time>2023-07-18T08:16:44Z</time>
      </trkpt>
      <trkpt lat="47.25895" lon="0.47723">
        <ele>55.6</ele>
        <time>2023-07-18T08:16:45Z</time>
      </trkpt>
      <trkpt lat="47.25898" lon="0.47713">
        <ele>55.6</ele>
        <time>2023-07-18T08:16:46Z</time>
      </trkpt>
      <trkpt lat="47.25902" lon="0.47705">
        <ele>55.6</ele>
        <time>2023-07-18T08:16:47Z</time>
      </trkpt>
      <trkpt lat="47.25906" lon="0.47695">
        <ele>55.6</ele>
        <time>2023-07-18T08:16:48Z</time>
      </trkpt>
      <trkpt lat="47.2591" lon="0.47686">
        <ele>55.8</ele>
        <time>2023-07-18T08:16:49Z</time>
      </trkpt>
      <trkpt lat="47.25914" lon="0.47677">
        <ele>56.2</ele>
        <time>2023-07-18T08:16:50Z</time>
      </trkpt>
      <trkpt lat="47.25917" lon="0.47668">
        <ele>56.4</ele>
        <time>2023-07-18T08:16:51Z</time>
      </trkpt>
      <trkpt lat="47.25921" lon="0.4766">
        <ele>56.6</ele>
        <time>2023-07-18T08:16:52Z</time>
      </trkpt>
      <trkpt lat="47.25925" lon="0.47652">
        <ele>57</ele>
        <time>2023-07-18T08:16:53Z</time>
      </trkpt>
      <trkpt lat="47.25928" lon="0.47643">
        <ele>57.2</ele>
        <time>2023-07-18T08:16:54Z</time>
      </trkpt>
      <trkpt lat="47.25931" lon="0.47634">
        <ele>57.6</ele>
        <time>2023-07-18T08:16:55Z</time>
      </trkpt>
      <trkpt lat="47.25934" lon="0.47626">
        <ele>58</ele>
        <time>2023-07-18T08:16:56Z</time>
      </trkpt>
      <trkpt lat="47.25937" lon="0.47618">
        <ele>58.2</ele>
        <time>2023-07-18T08:16:57Z</time>
      </trkpt>
      <trkpt lat="47.25939" lon="0.47609">
        <ele>58.6</ele>
        <time>2023-07-18T08:16:58Z</time>
      </trkpt>
      <trkpt lat="47.25942" lon="0.476">
        <ele>58.8</ele>
        <time>2023-07-18T08:16:59Z</time>
      </trkpt>
      <trkpt lat="47.25945" lon="0.47591">
        <ele>59.2</ele>
        <time>2023-07-18T08:17:00Z</time>
      </trkpt>
      <trkpt lat="47.25948" lon="0.47582">
        <ele>59.4</ele>
        <time>2023-07-18T08:17:01Z</time>
      </trkpt>
      <trkpt lat="47.25952" lon="0.47574">
        <ele>59.8</ele>
        <time>2023-07-18T08:17:02Z</time>
      </trkpt>
      <trkpt lat="47.25955" lon="0.47566">
        <ele>60</ele>
        <time>2023-07-18T08:17:03Z</time>
      </trkpt>
      <trkpt lat="47.25959" lon="0.47557">
        <ele>60.4</ele>
        <time>2023-07-18T08:17:04Z</time>
      </trkpt>
      <trkpt lat="47.25963" lon="0.47549">
        <ele>60.4</ele>
        <time>2023-07-18T08:17:05Z</time>
      </trkpt>
      <trkpt lat="47.25967" lon="0.47541">
        <ele>60.8</ele>
        <time>2023-07-18T08:17:06Z</time>
      </trkpt>
      <trkpt lat="47.25972" lon="0.47533">
        <ele>61</ele>
        <time>2023-07-18T08:17:07Z</time>
      </trkpt>
      <trkpt lat="47.25976" lon="0.47525">
        <ele>61.4</ele>
        <time>2023-07-18T08:17:08Z</time>
      </trkpt>
      <trkpt lat="47.2598" lon="0.47517">
        <ele>61.6</ele>
        <time>2023-07-18T08:17:09Z</time>
      </trkpt>
      <trkpt lat="47.25984" lon="0.4751">
        <ele>61.8</ele>
        <time>2023-07-18T08:17:10Z</time>
      </trkpt>
      <trkpt lat="47.25987" lon="0.47502">
        <ele>62</ele>
        <time>2023-07-18T08:17:11Z</time>
      </trkpt>
      <trkpt lat="47.25991" lon="0.47494">
        <ele>62.2</ele>
        <time>2023-07-18T08:17:12Z</time>
      </trkpt>
      <trkpt lat="47.25994" lon="0.47487">
        <ele>62.4</ele>
        <time>2023-07-18T08:17:13Z</time>
      </trkpt>
      <trkpt lat="47.25997" lon="0.47479">
        <ele>62.4</ele>
        <time>2023-07-18T08:17:14Z</time>
      </trkpt>
      <trkpt lat="47.25999" lon="0.4747">
        <ele>62.6</ele>
        <time>2023-07-18T08:17:15Z</time>
      </trkpt>
      <trkpt lat="47.26002" lon="0.47462">
        <ele>62.6</ele>
        <time>2023-07-18T08:17:16Z</time>
      </trkpt>
      <trkpt lat="47.26004" lon="0.47453">
        <ele>62.6</ele>
        <time>2023-07-18T08:17:17Z</time>
      </trkpt>
      <trkpt lat="47.26007" lon="0.47445">
        <ele>62.6</ele>
        <time>2023-07-18T08:17:18Z</time>
      </trkpt>
      <trkpt lat="47.26009" lon="0.47436">
        <ele>62.6</ele>
        <time>2023-07-18T08:17:19Z</time>
      </trkpt>
      <trkpt lat="47.26011" lon="0.47427">
        <ele>62.6</ele>
        <time>2023-07-18T08:17:20Z</time>
      </trkpt>
      <trkpt lat="47.26012" lon="0.47419">
        <ele>62.6</ele>
        <time>2023-07-18T08:17:21Z</time>
      </trkpt>
      <trkpt lat="47.26015" lon="0.4741">
        <ele>62.8</ele>
        <time>2023-07-18T08:17:22Z</time>
      </trkpt>
      <trkpt lat="47.26017" lon="0.47401">
        <ele>62.8</ele>
        <time>2023-07-18T08:17:23Z</time>
      </trkpt>
      <trkpt lat="47.26018" lon="0.47393">
        <ele>62.8</ele>
        <time>2023-07-18T08:17:24Z</time>
      </trkpt>
      <trkpt lat="47.2602" lon="0.47384">
        <ele>62.8</ele>
        <time>2023-07-18T08:17:25Z</time>
      </trkpt>
      <trkpt lat="47.26022" lon="0.47375">
        <ele>63</ele>
        <time>2023-07-18T08:17:26Z</time>
      </trkpt>
      <trkpt lat="47.26023" lon="0.47366">
        <ele>63</ele>
        <time>2023-07-18T08:17:27Z</time>
      </trkpt>
      <trkpt lat="47.26025" lon="0.47357">
        <ele>63</ele>
        <time>2023-07-18T08:17:28Z</time>
      </trkpt>
      <trkpt lat="47.26027" lon="0.47348">
        <ele>63</ele>
        <time>2023-07-18T08:17:29Z</time>
      </trkpt>
      <trkpt lat="47.26028" lon="0.47339">
        <ele>63.2</ele>
        <time>2023-07-18T08:17:30Z</time>
      </trkpt>
      <trkpt lat="47.2603" lon="0.47331">
        <ele>63.4</ele>
        <time>2023-07-18T08:17:31Z</time>
      </trkpt>
      <trkpt lat="47.26033" lon="0.47322">
        <ele>63.4</ele>
        <time>2023-07-18T08:17:32Z</time>
      </trkpt>
      <trkpt lat="47.26034" lon="0.47314">
        <ele>63.6</ele>
        <time>2023-07-18T08:17:33Z</time>
      </trkpt>
      <trkpt lat="47.26036" lon="0.47306">
        <ele>63.6</ele>
        <time>2023-07-18T08:17:34Z</time>
      </trkpt>
      <trkpt lat="47.26038" lon="0.47297">
        <ele>63.8</ele>
        <time>2023-07-18T08:17:35Z</time>
      </trkpt>
      <trkpt lat="47.2604" lon="0.47289">
        <ele>64</ele>
        <time>2023-07-18T08:17:36Z</time>
      </trkpt>
      <trkpt lat="47.26043" lon="0.47281">
        <ele>64</ele>
        <time>2023-07-18T08:17:37Z</time>
      </trkpt>
      <trkpt lat="47.26044" lon="0.47272">
        <ele>64.2</ele>
        <time>2023-07-18T08:17:38Z</time>
      </trkpt>
      <trkpt lat="47.26047" lon="0.47264">
        <ele>64.4</ele>
        <time>2023-07-18T08:17:39Z</time>
      </trkpt>
      <trkpt lat="47.26049" lon="0.47257">
        <ele>64.4</ele>
        <time>2023-07-18T08:17:40Z</time>
      </trkpt>
      <trkpt lat="47.26051" lon="0.47249">
        <ele>64.4</ele>
        <time>2023-07-18T08:17:41Z</time>
      </trkpt>
      <trkpt lat="47.26053" lon="0.4724">
        <ele>64.6</ele>
        <time>2023-07-18T08:17:42Z</time>
      </trkpt>
      <trkpt lat="47.26055" lon="0.47232">
        <ele>64.6</ele>
        <time>2023-07-18T08:17:43Z</time>
      </trkpt>
      <trkpt lat="47.26057" lon="0.47224">
        <ele>64.8</ele>
        <time>2023-07-18T08:17:44Z</time>
      </trkpt>
      <trkpt lat="47.26059" lon="0.47217">
        <ele>65</ele>
        <time>2023-07-18T08:17:45Z</time>
      </trkpt>
      <trkpt lat="47.26061" lon="0.47209">
        <ele>65</ele>
        <time>2023-07-18T08:17:46Z</time>
      </trkpt>
      <trkpt lat="47.26063" lon="0.47202">
        <ele>65</ele>
        <time>2023-07-18T08:17:47Z</time>
      </trkpt>
      <trkpt lat="47.26065" lon="0.47194">
        <ele>65</ele>
        <time>2023-07-18T08:17:48Z</time>
      </trkpt>
      <trkpt lat="47.26066" lon="0.47186">
        <ele>65</ele>
        <time>2023-07-18T08:17:49Z</time>
      </trkpt>
      <trkpt lat="47.26067" lon="0.47178">
        <ele>65</ele>
        <time>2023-07-18T08:17:50Z</time>
      </trkpt>
      <trkpt lat="47.26069" lon="0.4717">
        <ele>65</ele>
        <time>2023-07-18T08:17:51Z</time>
      </trkpt>
      <trkpt lat="47.26071" lon="0.47163">
        <ele>64.8</ele>
        <time>2023-07-18T08:17:52Z</time>
      </trkpt>
      <trkpt lat="47.26073" lon="0.47155">
        <ele>64.8</ele>
        <time>2023-07-18T08:17:53Z</time>
      </trkpt>
      <trkpt lat="47.26075" lon="0.47146">
        <ele>64.6</ele>
        <time>2023-07-18T08:17:54Z</time>
      </trkpt>
      <trkpt lat="47.26076" lon="0.47137">
        <ele>64.4</ele>
        <time>2023-07-18T08:17:55Z</time>
      </trkpt>
      <trkpt lat="47.26077" lon="0.47128">
        <ele>64.2</ele>
        <time>2023-07-18T08:17:56Z</time>
      </trkpt>
      <trkpt lat="47.26079" lon="0.47118">
        <ele>64</ele>
        <time>2023-07-18T08:17:57Z</time>
      </trkpt>
      <trkpt lat="47.26081" lon="0.47108">
        <ele>63.6</ele>
        <time>2023-07-18T08:17:58Z</time>
      </trkpt>
      <trkpt lat="47.26083" lon="0.47098">
        <ele>63.2</ele>
        <time>2023-07-18T08:17:59Z</time>
      </trkpt>
      <trkpt lat="47.26084" lon="0.47087">
        <ele>63</ele>
        <time>2023-07-18T08:18:00Z</time>
      </trkpt>
      <trkpt lat="47.26085" lon="0.47077">
        <ele>62.8</ele>
        <time>2023-07-18T08:18:01Z</time>
      </trkpt>
      <trkpt lat="47.26085" lon="0.47067">
        <ele>62.4</ele>
        <time>2023-07-18T08:18:02Z</time>
      </trkpt>
      <trkpt lat="47.26085" lon="0.47057">
        <ele>62</ele>
        <time>2023-07-18T08:18:03Z</time>
      </trkpt>
      <trkpt lat="47.26086" lon="0.47049">
        <ele>61.6</ele>
        <time>2023-07-18T08:18:04Z</time>
      </trkpt>
      <trkpt lat="47.26088" lon="0.4704">
        <ele>61.4</ele>
        <time>2023-07-18T08:18:05Z</time>
      </trkpt>
      <trkpt lat="47.26089" lon="0.47032">
        <ele>61.2</ele>
        <time>2023-07-18T08:18:06Z</time>
      </trkpt>
      <trkpt lat="47.26089" lon="0.47023">
        <ele>61</ele>
        <time>2023-07-18T08:18:07Z</time>
      </trkpt>
      <trkpt lat="47.26088" lon="0.47014">
        <ele>60.8</ele>
        <time>2023-07-18T08:18:08Z</time>
      </trkpt>
      <trkpt lat="47.26089" lon="0.47005">
        <ele>60.6</ele>
        <time>2023-07-18T08:18:09Z</time>
      </trkpt>
      <trkpt lat="47.2609" lon="0.46997">
        <ele>60.6</ele>
        <time>2023-07-18T08:18:10Z</time>
      </trkpt>
      <trkpt lat="47.26091" lon="0.46989">
        <ele>60.6</ele>
        <time>2023-07-18T08:18:11Z</time>
      </trkpt>
      <trkpt lat="47.26093" lon="0.46981">
        <ele>60.6</ele>
        <time>2023-07-18T08:18:12Z</time>
      </trkpt>
      <trkpt lat="47.26094" lon="0.46973">
        <ele>60.4</ele>
        <time>2023-07-18T08:18:13Z</time>
      </trkpt>
      <trkpt lat="47.26095" lon="0.46966">
        <ele>60.4</ele>
        <time>2023-07-18T08:18:14Z</time>
      </trkpt>
      <trkpt lat="47.26096" lon="0.46959">
        <ele>60.4</ele>
        <time>2023-07-18T08:18:15Z</time>
      </trkpt>
      <trkpt lat="47.26097" lon="0.46952">
        <ele>60.4</ele>
        <time>2023-07-18T08:18:16Z</time>
      </trkpt>
      <trkpt lat="47.26097" lon="0.46945">
        <ele>60.4</ele>
        <time>2023-07-18T08:18:17Z</time>
      </trkpt>
      <trkpt lat="47.26098" lon="0.46938">
        <ele>60.4</ele>
        <time>2023-07-18T08:18:18Z</time>
      </trkpt>
      <trkpt lat="47.26099" lon="0.4693">
        <ele>60.4</ele>
        <time>2023-07-18T08:18:19Z</time>
      </trkpt>
      <trkpt lat="47.261" lon="0.46923">
        <ele>60.2</ele>
        <time>2023-07-18T08:18:20Z</time>
      </trkpt>
      <trkpt lat="47.26102" lon="0.46915">
        <ele>60</ele>
        <time>2023-07-18T08:18:21Z</time>
      </trkpt>
      <trkpt lat="47.26102" lon="0.46906">
        <ele>60</ele>
        <time>2023-07-18T08:18:22Z</time>
      </trkpt>
      <trkpt lat="47.26103" lon="0.46898">
        <ele>59.8</ele>
        <time>2023-07-18T08:18:23Z</time>
      </trkpt>
      <trkpt lat="47.26104" lon="0.46888">
        <ele>59.6</ele>
        <time>2023-07-18T08:18:24Z</time>
      </trkpt>
      <trkpt lat="47.26104" lon="0.46879">
        <ele>59.6</ele>
        <time>2023-07-18T08:18:25Z</time>
      </trkpt>
      <trkpt lat="47.26104" lon="0.46869">
        <ele>59.4</ele>
        <time>2023-07-18T08:18:26Z</time>
      </trkpt>
      <trkpt lat="47.26104" lon="0.4686">
        <ele>59.2</ele>
        <time>2023-07-18T08:18:27Z</time>
      </trkpt>
      <trkpt lat="47.26104" lon="0.4685">
        <ele>59</ele>
        <time>2023-07-18T08:18:28Z</time>
      </trkpt>
      <trkpt lat="47.26104" lon="0.4684">
        <ele>58.8</ele>
        <time>2023-07-18T08:18:29Z</time>
      </trkpt>
      <trkpt lat="47.26104" lon="0.46829">
        <ele>58.8</ele>
        <time>2023-07-18T08:18:30Z</time>
      </trkpt>
      <trkpt lat="47.26104" lon="0.46819">
        <ele>58.6</ele>
        <time>2023-07-18T08:18:31Z</time>
      </trkpt>
      <trkpt lat="47.26104" lon="0.46809">
        <ele>58.4</ele>
        <time>2023-07-18T08:18:32Z</time>
      </trkpt>
      <trkpt lat="47.26106" lon="0.46798">
        <ele>58.4</ele>
        <time>2023-07-18T08:18:33Z</time>
      </trkpt>
      <trkpt lat="47.26106" lon="0.46789">
        <ele>58.2</ele>
        <time>2023-07-18T08:18:34Z</time>
      </trkpt>
      <trkpt lat="47.26107" lon="0.46779">
        <ele>58.2</ele>
        <time>2023-07-18T08:18:35Z</time>
      </trkpt>
      <trkpt lat="47.26109" lon="0.4677">
        <ele>58</ele>
        <time>2023-07-18T08:18:36Z</time>
      </trkpt>
      <trkpt lat="47.26111" lon="0.46761">
        <ele>57.8</ele>
        <time>2023-07-18T08:18:37Z</time>
      </trkpt>
      <trkpt lat="47.26114" lon="0.46753">
        <ele>57.6</ele>
        <time>2023-07-18T08:18:38Z</time>
      </trkpt>
      <trkpt lat="47.26117" lon="0.46746">
        <ele>57.4</ele>
        <time>2023-07-18T08:18:39Z</time>
      </trkpt>
      <trkpt lat="47.2612" lon="0.4674">
        <ele>57.2</ele>
        <time>2023-07-18T08:18:40Z</time>
      </trkpt>
      <trkpt lat="47.26124" lon="0.46734">
        <ele>57</ele>
        <time>2023-07-18T08:18:41Z</time>
      </trkpt>
      <trkpt lat="47.26127" lon="0.46727">
        <ele>56.8</ele>
        <time>2023-07-18T08:18:42Z</time>
      </trkpt>
      <trkpt lat="47.26129" lon="0.46721">
        <ele>56.6</ele>
        <time>2023-07-18T08:18:43Z</time>
      </trkpt>
      <trkpt lat="47.26132" lon="0.46716">
        <ele>56.6</ele>
        <time>2023-07-18T08:18:44Z</time>
      </trkpt>
      <trkpt lat="47.26134" lon="0.46711">
        <ele>56.4</ele>
        <time>2023-07-18T08:18:45Z</time>
      </trkpt>
      <trkpt lat="47.26138" lon="0.46705">
        <ele>56.4</ele>
        <time>2023-07-18T08:18:46Z</time>
      </trkpt>
      <trkpt lat="47.26141" lon="0.467">
        <ele>56.2</ele>
        <time>2023-07-18T08:18:47Z</time>
      </trkpt>
      <trkpt lat="47.26143" lon="0.46695">
        <ele>56.2</ele>
        <time>2023-07-18T08:18:48Z</time>
      </trkpt>
      <trkpt lat="47.26144" lon="0.46689">
        <ele>56</ele>
        <time>2023-07-18T08:18:49Z</time>
      </trkpt>
      <trkpt lat="47.26142" lon="0.46684">
        <ele>55.8</ele>
        <time>2023-07-18T08:18:50Z</time>
      </trkpt>
      <trkpt lat="47.26139" lon="0.4668">
        <ele>55.6</ele>
        <time>2023-07-18T08:18:51Z</time>
      </trkpt>
      <trkpt lat="47.26136" lon="0.46678">
        <ele>55.6</ele>
        <time>2023-07-18T08:18:52Z</time>
      </trkpt>
      <trkpt lat="47.26133" lon="0.46676">
        <ele>55.4</ele>
        <time>2023-07-18T08:18:53Z</time>
      </trkpt>
      <trkpt lat="47.26131" lon="0.46675">
        <ele>55.2</ele>
        <time>2023-07-18T08:18:54Z</time>
      </trkpt>
      <trkpt lat="47.26129" lon="0.46675">
        <ele>55.2</ele>
        <time>2023-07-18T08:18:55Z</time>
      </trkpt>
      <trkpt lat="47.26126" lon="0.46675">
        <ele>55</ele>
        <time>2023-07-18T08:18:56Z</time>
      </trkpt>
      <trkpt lat="47.26124" lon="0.46677">
        <ele>55</ele>
        <time>2023-07-18T08:18:57Z</time>
      </trkpt>
      <trkpt lat="47.2612" lon="0.46678">
        <ele>54.8</ele>
        <time>2023-07-18T08:18:58Z</time>
      </trkpt>
      <trkpt lat="47.26117" lon="0.4668">
        <ele>54.8</ele>
        <time>2023-07-18T08:18:59Z</time>
      </trkpt>
      <trkpt lat="47.26112" lon="0.46681">
        <ele>54.6</ele>
        <time>2023-07-18T08:19:00Z</time>
      </trkpt>
      <trkpt lat="47.26108" lon="0.46682">
        <ele>54.6</ele>
        <time>2023-07-18T08:19:01Z</time>
      </trkpt>
      <trkpt lat="47.26103" lon="0.46683">
        <ele>54.4</ele>
        <time>2023-07-18T08:19:02Z</time>
      </trkpt>
      <trkpt lat="47.26099" lon="0.46684">
        <ele>54.4</ele>
        <time>2023-07-18T08:19:03Z</time>
      </trkpt>
      <trkpt lat="47.26094" lon="0.46686">
        <ele>54.4</ele>
        <time>2023-07-18T08:19:04Z</time>
      </trkpt>
      <trkpt lat="47.26089" lon="0.46687">
        <ele>54.2</ele>
        <time>2023-07-18T08:19:05Z</time>
      </trkpt>
      <trkpt lat="47.26084" lon="0.46689">
        <ele>54.2</ele>
        <time>2023-07-18T08:19:06Z</time>
      </trkpt>
      <trkpt lat="47.2608" lon="0.46691">
        <ele>54.2</ele>
        <time>2023-07-18T08:19:07Z</time>
      </trkpt>
      <trkpt lat="47.26076" lon="0.46693">
        <ele>54</ele>
        <time>2023-07-18T08:19:08Z</time>
      </trkpt>
      <trkpt lat="47.26072" lon="0.46693">
        <ele>54</ele>
        <time>2023-07-18T08:19:09Z</time>
      </trkpt>
      <trkpt lat="47.2607" lon="0.46693">
        <ele>53.8</ele>
        <time>2023-07-18T08:19:10Z</time>
      </trkpt>
      <trkpt lat="47.26068" lon="0.46692">
        <ele>53.8</ele>
        <time>2023-07-18T08:19:11Z</time>
      </trkpt>
      <trkpt lat="47.26066" lon="0.46689">
        <ele>53.8</ele>
        <time>2023-07-18T08:19:12Z</time>
      </trkpt>
      <trkpt lat="47.26066" lon="0.46686">
        <ele>53.8</ele>
        <time>2023-07-18T08:19:13Z</time>
      </trkpt>
      <trkpt lat="47.26066" lon="0.46682">
        <ele>53.8</ele>
        <time>2023-07-18T08:19:14Z</time>
      </trkpt>
      <trkpt lat="47.26066" lon="0.46677">
        <ele>53.8</ele>
        <time>2023-07-18T08:19:15Z</time>
      </trkpt>
      <trkpt lat="47.26067" lon="0.46672">
        <ele>54</ele>
        <time>2023-07-18T08:19:16Z</time>
      </trkpt>
      <trkpt lat="47.26067" lon="0.46666">
        <ele>54</ele>
        <time>2023-07-18T08:19:17Z</time>
      </trkpt>
      <trkpt lat="47.26068" lon="0.46661">
        <ele>54</ele>
        <time>2023-07-18T08:19:18Z</time>
      </trkpt>
      <trkpt lat="47.26068" lon="0.46656">
        <ele>54</ele>
        <time>2023-07-18T08:19:19Z</time>
      </trkpt>
      <trkpt lat="47.2607" lon="0.4665">
        <ele>54</ele>
        <time>2023-07-18T08:19:20Z</time>
      </trkpt>
      <trkpt lat="47.2607" lon="0.46644">
        <ele>54</ele>
        <time>2023-07-18T08:19:21Z</time>
      </trkpt>
      <trkpt lat="47.26071" lon="0.4664">
        <ele>54</ele>
        <time>2023-07-18T08:19:22Z</time>
      </trkpt>
      <trkpt lat="47.26072" lon="0.46634">
        <ele>54</ele>
        <time>2023-07-18T08:19:23Z</time>
      </trkpt>
      <trkpt lat="47.26073" lon="0.4663">
        <ele>54</ele>
        <time>2023-07-18T08:19:24Z</time>
      </trkpt>
      <trkpt lat="47.26075" lon="0.46626">
        <ele>54</ele>
        <time>2023-07-18T08:19:25Z</time>
      </trkpt>
      <trkpt lat="47.26077" lon="0.46622">
        <ele>54</ele>
        <time>2023-07-18T08:19:26Z</time>
      </trkpt>
      <trkpt lat="47.26077" lon="0.46617">
        <ele>53.8</ele>
        <time>2023-07-18T08:19:27Z</time>
      </trkpt>
      <trkpt lat="47.26077" lon="0.46611">
        <ele>53.8</ele>
        <time>2023-07-18T08:19:28Z</time>
      </trkpt>
      <trkpt lat="47.26075" lon="0.46607">
        <ele>53.8</ele>
        <time>2023-07-18T08:19:29Z</time>
      </trkpt>
      <trkpt lat="47.26072" lon="0.46604">
        <ele>53.8</ele>
        <time>2023-07-18T08:19:30Z</time>
      </trkpt>
      <trkpt lat="47.26068" lon="0.46602">
        <ele>53.6</ele>
        <time>2023-07-18T08:19:31Z</time>
      </trkpt>
      <trkpt lat="47.26064" lon="0.46602">
        <ele>53.4</ele>
        <time>2023-07-18T08:19:32Z</time>
      </trkpt>
      <trkpt lat="47.26062" lon="0.46601">
        <ele>53.4</ele>
        <time>2023-07-18T08:19:33Z</time>
      </trkpt>
      <trkpt lat="47.26059" lon="0.46601">
        <ele>53.2</ele>
        <time>2023-07-18T08:19:34Z</time>
      </trkpt>
      <trkpt lat="47.26057" lon="0.46601">
        <ele>53.2</ele>
        <time>2023-07-18T08:19:35Z</time>
      </trkpt>
      <trkpt lat="47.26056" lon="0.466">
        <ele>53</ele>
        <time>2023-07-18T08:19:36Z</time>
      </trkpt>
      <trkpt lat="47.26055" lon="0.46598">
        <ele>53</ele>
        <time>2023-07-18T08:19:37Z</time>
      </trkpt>
      <trkpt lat="47.26055" lon="0.46598">
        <ele>52.8</ele>
        <time>2023-07-18T08:19:38Z</time>
      </trkpt>
      <trkpt lat="47.26055" lon="0.46598">
        <ele>52.8</ele>
        <time>2023-07-18T08:19:39Z</time>
      </trkpt>
      <trkpt lat="47.26055" lon="0.46598">
        <ele>52.8</ele>
        <time>2023-07-18T08:19:40Z</time>
      </trkpt>
      <trkpt lat="47.26055" lon="0.46598">
        <ele>52.6</ele>
        <time>2023-07-18T08:19:41Z</time>
      </trkpt>
      <trkpt lat="47.26055" lon="0.46598">
        <ele>52.6</ele>
        <time>2023-07-18T08:19:42Z</time>
      </trkpt>
      <trkpt lat="47.26055" lon="0.46598">
        <ele>52.6</ele>
        <time>2023-07-18T08:19:43Z</time>
      </trkpt>
      <trkpt lat="47.26064" lon="0.4658">
        <ele>52.4</ele>
        <time>2023-07-18T08:24:06Z</time>
      </trkpt>
      <trkpt lat="47.26065" lon="0.46579">
        <ele>52.4</ele>
        <time>2023-07-18T08:24:07Z</time>
      </trkpt>
      <trkpt lat="47.26065" lon="0.46578">
        <ele>52.4</ele>
        <time>2023-07-18T08:24:08Z</time>
      </trkpt>
      <trkpt lat="47.26066" lon="0.46576">
        <ele>52.4</ele>
        <time>2023-07-18T08:24:09Z</time>
      </trkpt>
      <trkpt lat="47.26067" lon="0.46574">
        <ele>52.6</ele>
        <time>2023-07-18T08:24:10Z</time>
      </trkpt>
      <trkpt lat="47.26067" lon="0.4657">
        <ele>52.6</ele>
        <time>2023-07-18T08:24:11Z</time>
      </trkpt>
      <trkpt lat="47.26068" lon="0.46565">
        <ele>52.6</ele>
        <time>2023-07-18T08:24:12Z</time>
      </trkpt>
      <trkpt lat="47.26068" lon="0.46561">
        <ele>52.6</ele>
        <time>2023-07-18T08:24:13Z</time>
      </trkpt>
      <trkpt lat="47.2607" lon="0.46556">
        <ele>52.6</ele>
        <time>2023-07-18T08:24:14Z</time>
      </trkpt>
      <trkpt lat="47.26072" lon="0.46551">
        <ele>52.8</ele>
        <time>2023-07-18T08:24:15Z</time>
      </trkpt>
      <trkpt lat="47.26074" lon="0.46546">
        <ele>52.8</ele>
        <time>2023-07-18T08:24:16Z</time>
      </trkpt>
      <trkpt lat="47.26075" lon="0.46541">
        <ele>52.8</ele>
        <time>2023-07-18T08:24:17Z</time>
      </trkpt>
      <trkpt lat="47.26077" lon="0.46537">
        <ele>52.8</ele>
        <time>2023-07-18T08:24:18Z</time>
      </trkpt>
      <trkpt lat="47.26077" lon="0.46532">
        <ele>53</ele>
        <time>2023-07-18T08:24:19Z</time>
      </trkpt>
      <trkpt lat="47.26078" lon="0.46527">
        <ele>53</ele>
        <time>2023-07-18T08:24:20Z</time>
      </trkpt>
      <trkpt lat="47.26078" lon="0.46522">
        <ele>53</ele>
        <time>2023-07-18T08:24:21Z</time>
      </trkpt>
      <trkpt lat="47.2608" lon="0.46517">
        <ele>53</ele>
        <time>2023-07-18T08:24:22Z</time>
      </trkpt>
      <trkpt lat="47.26081" lon="0.46513">
        <ele>53</ele>
        <time>2023-07-18T08:24:23Z</time>
      </trkpt>
      <trkpt lat="47.26082" lon="0.46508">
        <ele>53</ele>
        <time>2023-07-18T08:24:24Z</time>
      </trkpt>
      <trkpt lat="47.26083" lon="0.46504">
        <ele>53</ele>
        <time>2023-07-18T08:24:25Z</time>
      </trkpt>
      <trkpt lat="47.26084" lon="0.465">
        <ele>52.8</ele>
        <time>2023-07-18T08:24:26Z</time>
      </trkpt>
      <trkpt lat="47.26084" lon="0.46496">
        <ele>52.8</ele>
        <time>2023-07-18T08:24:27Z</time>
      </trkpt>
      <trkpt lat="47.26084" lon="0.46494">
        <ele>52.8</ele>
        <time>2023-07-18T08:24:28Z</time>
      </trkpt>
      <trkpt lat="47.26085" lon="0.46495">
        <ele>53</ele>
        <time>2023-07-18T08:24:29Z</time>
      </trkpt>
      <trkpt lat="47.26086" lon="0.46495">
        <ele>53</ele>
        <time>2023-07-18T08:24:30Z</time>
      </trkpt>
      <trkpt lat="47.26088" lon="0.46496">
        <ele>53</ele>
        <time>2023-07-18T08:24:31Z</time>
      </trkpt>
      <trkpt lat="47.2609" lon="0.46497">
        <ele>53</ele>
        <time>2023-07-18T08:24:32Z</time>
      </trkpt>
      <trkpt lat="47.26093" lon="0.46499">
        <ele>53.2</ele>
        <time>2023-07-18T08:24:33Z</time>
      </trkpt>
      <trkpt lat="47.26095" lon="0.46501">
        <ele>53.4</ele>
        <time>2023-07-18T08:24:34Z</time>
      </trkpt>
      <trkpt lat="47.26098" lon="0.46503">
        <ele>53.6</ele>
        <time>2023-07-18T08:24:35Z</time>
      </trkpt>
      <trkpt lat="47.26101" lon="0.46506">
        <ele>53.6</ele>
        <time>2023-07-18T08:24:36Z</time>
      </trkpt>
      <trkpt lat="47.26105" lon="0.46509">
        <ele>53.8</ele>
        <time>2023-07-18T08:24:37Z</time>
      </trkpt>
      <trkpt lat="47.26108" lon="0.46513">
        <ele>54</ele>
        <time>2023-07-18T08:24:38Z</time>
      </trkpt>
      <trkpt lat="47.26111" lon="0.46518">
        <ele>54.2</ele>
        <time>2023-07-18T08:24:39Z</time>
      </trkpt>
      <trkpt lat="47.26114" lon="0.46523">
        <ele>54.2</ele>
        <time>2023-07-18T08:24:40Z</time>
      </trkpt>
      <trkpt lat="47.26117" lon="0.46529">
        <ele>54.4</ele>
        <time>2023-07-18T08:24:41Z</time>
      </trkpt>
      <trkpt lat="47.26119" lon="0.46534">
        <ele>54.6</ele>
        <time>2023-07-18T08:24:42Z</time>
      </trkpt>
      <trkpt lat="47.26122" lon="0.4654">
        <ele>54.8</ele>
        <time>2023-07-18T08:24:43Z</time>
      </trkpt>
      <trkpt lat="47.26125" lon="0.46544">
        <ele>55</ele>
        <time>2023-07-18T08:24:44Z</time>
      </trkpt>
      <trkpt lat="47.26128" lon="0.46547">
        <ele>55.2</ele>
        <time>2023-07-18T08:24:45Z</time>
      </trkpt>
      <trkpt lat="47.26131" lon="0.46549">
        <ele>55.4</ele>
        <time>2023-07-18T08:24:46Z</time>
      </trkpt>
      <trkpt lat="47.26134" lon="0.46552">
        <ele>55.6</ele>
        <time>2023-07-18T08:24:47Z</time>
      </trkpt>
      <trkpt lat="47.26138" lon="0.46554">
        <ele>55.8</ele>
        <time>2023-07-18T08:24:48Z</time>
      </trkpt>
      <trkpt lat="47.26141" lon="0.46557">
        <ele>55.8</ele>
        <time>2023-07-18T08:24:49Z</time>
      </trkpt>
      <trkpt lat="47.26144" lon="0.46559">
        <ele>56</ele>
        <time>2023-07-18T08:24:50Z</time>
      </trkpt>
      <trkpt lat="47.26147" lon="0.4656">
        <ele>56.2</ele>
        <time>2023-07-18T08:24:51Z</time>
      </trkpt>
      <trkpt lat="47.26151" lon="0.46562">
        <ele>56.4</ele>
        <time>2023-07-18T08:24:52Z</time>
      </trkpt>
      <trkpt lat="47.26155" lon="0.46563">
        <ele>56.6</ele>
        <time>2023-07-18T08:24:53Z</time>
      </trkpt>
      <trkpt lat="47.26158" lon="0.46565">
        <ele>56.8</ele>
        <time>2023-07-18T08:24:54Z</time>
      </trkpt>
      <trkpt lat="47.26162" lon="0.46567">
        <ele>57</ele>
        <time>2023-07-18T08:24:55Z</time>
      </trkpt>
      <trkpt lat="47.26165" lon="0.46569">
        <ele>57.2</ele>
        <time>2023-07-18T08:24:56Z</time>
      </trkpt>
      <trkpt lat="47.26168" lon="0.46571">
        <ele>57.4</ele>
        <time>2023-07-18T08:24:57Z</time>
      </trkpt>
      <trkpt lat="47.26171" lon="0.46574">
        <ele>57.6</ele>
        <time>2023-07-18T08:24:58Z</time>
      </trkpt>
      <trkpt lat="47.26174" lon="0.46577">
        <ele>57.8</ele>
        <time>2023-07-18T08:24:59Z</time>
      </trkpt>
      <trkpt lat="47.26178" lon="0.46579">
        <ele>57.8</ele>
        <time>2023-07-18T08:25:00Z</time>
      </trkpt>
      <trkpt lat="47.26182" lon="0.46578">
        <ele>58</ele>
        <time>2023-07-18T08:25:01Z</time>
      </trkpt>
      <trkpt lat="47.26185" lon="0.46576">
        <ele>58</ele>
        <time>2023-07-18T08:25:02Z</time>
      </trkpt>
      <trkpt lat="47.26187" lon="0.46572">
        <ele>58.2</ele>
        <time>2023-07-18T08:25:03Z</time>
      </trkpt>
      <trkpt lat="47.26189" lon="0.46568">
        <ele>58.2</ele>
        <time>2023-07-18T08:25:04Z</time>
      </trkpt>
      <trkpt lat="47.26189" lon="0.46561">
        <ele>58.2</ele>
        <time>2023-07-18T08:25:05Z</time>
      </trkpt>
      <trkpt lat="47.26189" lon="0.46554">
        <ele>58.2</ele>
        <time>2023-07-18T08:25:06Z</time>
      </trkpt>
      <trkpt lat="47.26191" lon="0.46549">
        <ele>58.2</ele>
        <time>2023-07-18T08:25:07Z</time>
      </trkpt>
      <trkpt lat="47.26192" lon="0.46544">
        <ele>58.2</ele>
        <time>2023-07-18T08:25:08Z</time>
      </trkpt>
      <trkpt lat="47.26194" lon="0.46538">
        <ele>58.2</ele>
        <time>2023-07-18T08:25:09Z</time>
      </trkpt>
      <trkpt lat="47.26196" lon="0.46533">
        <ele>58.2</ele>
        <time>2023-07-18T08:25:10Z</time>
      </trkpt>
      <trkpt lat="47.26197" lon="0.46527">
        <ele>58</ele>
        <time>2023-07-18T08:25:11Z</time>
      </trkpt>
      <trkpt lat="47.26198" lon="0.46521">
        <ele>58</ele>
        <time>2023-07-18T08:25:12Z</time>
      </trkpt>
      <trkpt lat="47.26199" lon="0.46514">
        <ele>58</ele>
        <time>2023-07-18T08:25:13Z</time>
      </trkpt>
      <trkpt lat="47.26201" lon="0.46507">
        <ele>58</ele>
        <time>2023-07-18T08:25:14Z</time>
      </trkpt>
      <trkpt lat="47.26202" lon="0.46499">
        <ele>57.8</ele>
        <time>2023-07-18T08:25:15Z</time>
      </trkpt>
      <trkpt lat="47.26202" lon="0.46492">
        <ele>57.8</ele>
        <time>2023-07-18T08:25:16Z</time>
      </trkpt>
      <trkpt lat="47.26201" lon="0.46484">
        <ele>57.8</ele>
        <time>2023-07-18T08:25:17Z</time>
      </trkpt>
      <trkpt lat="47.262" lon="0.46477">
        <ele>57.6</ele>
        <time>2023-07-18T08:25:18Z</time>
      </trkpt>
      <trkpt lat="47.262" lon="0.4647">
        <ele>57.6</ele>
        <time>2023-07-18T08:25:19Z</time>
      </trkpt>
      <trkpt lat="47.26199" lon="0.46461">
        <ele>57.6</ele>
        <time>2023-07-18T08:25:20Z</time>
      </trkpt>
      <trkpt lat="47.26198" lon="0.46453">
        <ele>57.4</ele>
        <time>2023-07-18T08:25:21Z</time>
      </trkpt>
      <trkpt lat="47.26197" lon="0.46445">
        <ele>57.4</ele>
        <time>2023-07-18T08:25:22Z</time>
      </trkpt>
      <trkpt lat="47.26196" lon="0.46436">
        <ele>57.2</ele>
        <time>2023-07-18T08:25:23Z</time>
      </trkpt>
      <trkpt lat="47.26194" lon="0.46428">
        <ele>57.2</ele>
        <time>2023-07-18T08:25:24Z</time>
      </trkpt>
      <trkpt lat="47.26193" lon="0.46419">
        <ele>57</ele>
        <time>2023-07-18T08:25:25Z</time>
      </trkpt>
      <trkpt lat="47.26192" lon="0.46411">
        <ele>57</ele>
        <time>2023-07-18T08:25:26Z</time>
      </trkpt>
      <trkpt lat="47.26189" lon="0.46403">
        <ele>56.8</ele>
        <time>2023-07-18T08:25:27Z</time>
      </trkpt>
      <trkpt lat="47.26186" lon="0.46396">
        <ele>56.6</ele>
        <time>2023-07-18T08:25:28Z</time>
      </trkpt>
      <trkpt lat="47.26182" lon="0.46389">
        <ele>56.6</ele>
        <time>2023-07-18T08:25:29Z</time>
      </trkpt>
      <trkpt lat="47.26179" lon="0.46382">
        <ele>56.4</ele>
        <time>2023-07-18T08:25:30Z</time>
      </trkpt>
      <trkpt lat="47.26176" lon="0.46374">
        <ele>56.4</ele>
        <time>2023-07-18T08:25:31Z</time>
      </trkpt>
      <trkpt lat="47.26173" lon="0.46366">
        <ele>56.2</ele>
        <time>2023-07-18T08:25:32Z</time>
      </trkpt>
      <trkpt lat="47.26175" lon="0.46358">
        <ele>56.2</ele>
        <time>2023-07-18T08:25:33Z</time>
      </trkpt>
      <trkpt lat="47.26178" lon="0.4635">
        <ele>56.2</ele>
        <time>2023-07-18T08:25:34Z</time>
      </trkpt>
      <trkpt lat="47.2618" lon="0.46342">
        <ele>56.2</ele>
        <time>2023-07-18T08:25:35Z</time>
      </trkpt>
      <trkpt lat="47.26183" lon="0.46333">
        <ele>56.2</ele>
        <time>2023-07-18T08:25:36Z</time>
      </trkpt>
      <trkpt lat="47.26185" lon="0.46325">
        <ele>56.2</ele>
        <time>2023-07-18T08:25:37Z</time>
      </trkpt>
      <trkpt lat="47.26188" lon="0.46317">
        <ele>56.2</ele>
        <time>2023-07-18T08:25:38Z</time>
      </trkpt>
      <trkpt lat="47.2619" lon="0.4631">
        <ele>56.2</ele>
        <time>2023-07-18T08:25:39Z</time>
      </trkpt>
      <trkpt lat="47.26192" lon="0.46302">
        <ele>56.4</ele>
        <time>2023-07-18T08:25:40Z</time>
      </trkpt>
      <trkpt lat="47.26195" lon="0.46294">
        <ele>56.4</ele>
        <time>2023-07-18T08:25:41Z</time>
      </trkpt>
      <trkpt lat="47.26197" lon="0.46287">
        <ele>56.6</ele>
        <time>2023-07-18T08:25:42Z</time>
      </trkpt>
      <trkpt lat="47.262" lon="0.46279">
        <ele>56.6</ele>
        <time>2023-07-18T08:25:43Z</time>
      </trkpt>
      <trkpt lat="47.26202" lon="0.46271">
        <ele>56.6</ele>
        <time>2023-07-18T08:25:44Z</time>
      </trkpt>
      <trkpt lat="47.26205" lon="0.46264">
        <ele>56.8</ele>
        <time>2023-07-18T08:25:45Z</time>
      </trkpt>
      <trkpt lat="47.26207" lon="0.46257">
        <ele>56.8</ele>
        <time>2023-07-18T08:25:46Z</time>
      </trkpt>
      <trkpt lat="47.2621" lon="0.46249">
        <ele>56.8</ele>
        <time>2023-07-18T08:25:47Z</time>
      </trkpt>
      <trkpt lat="47.26212" lon="0.46242">
        <ele>57</ele>
        <time>2023-07-18T08:25:48Z</time>
      </trkpt>
      <trkpt lat="47.26215" lon="0.46235">
        <ele>57.2</ele>
        <time>2023-07-18T08:25:49Z</time>
      </trkpt>
      <trkpt lat="47.26217" lon="0.46227">
        <ele>57.2</ele>
        <time>2023-07-18T08:25:50Z</time>
      </trkpt>
      <trkpt lat="47.2622" lon="0.4622">
        <ele>57.4</ele>
        <time>2023-07-18T08:25:51Z</time>
      </trkpt>
      <trkpt lat="47.26222" lon="0.46213">
        <ele>57.4</ele>
        <time>2023-07-18T08:25:52Z</time>
      </trkpt>
      <trkpt lat="47.26225" lon="0.46206">
        <ele>57.6</ele>
        <time>2023-07-18T08:25:53Z</time>
      </trkpt>
      <trkpt lat="47.26228" lon="0.46199">
        <ele>57.6</ele>
        <time>2023-07-18T08:25:54Z</time>
      </trkpt>
      <trkpt lat="47.2623" lon="0.46192">
        <ele>57.6</ele>
        <time>2023-07-18T08:25:55Z</time>
      </trkpt>
      <trkpt lat="47.26233" lon="0.46184">
        <ele>57.8</ele>
        <time>2023-07-18T08:25:56Z</time>
      </trkpt>
      <trkpt lat="47.26235" lon="0.46176">
        <ele>58</ele>
        <time>2023-07-18T08:25:57Z</time>
      </trkpt>
      <trkpt lat="47.26237" lon="0.46168">
        <ele>58</ele>
        <time>2023-07-18T08:25:58Z</time>
      </trkpt>
      <trkpt lat="47.26239" lon="0.4616">
        <ele>58.2</ele>
        <time>2023-07-18T08:25:59Z</time>
      </trkpt>
      <trkpt lat="47.26242" lon="0.46152">
        <ele>58.2</ele>
        <time>2023-07-18T08:26:00Z</time>
      </trkpt>
      <trkpt lat="47.26244" lon="0.46143">
        <ele>58.2</ele>
        <time>2023-07-18T08:26:01Z</time>
      </trkpt>
      <trkpt lat="47.26246" lon="0.46135">
        <ele>58.2</ele>
        <time>2023-07-18T08:26:02Z</time>
      </trkpt>
      <trkpt lat="47.26247" lon="0.46126">
        <ele>58.2</ele>
        <time>2023-07-18T08:26:03Z</time>
      </trkpt>
      <trkpt lat="47.26249" lon="0.46117">
        <ele>58.2</ele>
        <time>2023-07-18T08:26:04Z</time>
      </trkpt>
      <trkpt lat="47.26252" lon="0.46109">
        <ele>58.2</ele>
        <time>2023-07-18T08:26:05Z</time>
      </trkpt>
      <trkpt lat="47.26254" lon="0.461">
        <ele>58</ele>
        <time>2023-07-18T08:26:06Z</time>
      </trkpt>
      <trkpt lat="47.26255" lon="0.46092">
        <ele>58</ele>
        <time>2023-07-18T08:26:07Z</time>
      </trkpt>
      <trkpt lat="47.26257" lon="0.46083">
        <ele>58</ele>
        <time>2023-07-18T08:26:08Z</time>
      </trkpt>
      <trkpt lat="47.26259" lon="0.46075">
        <ele>58</ele>
        <time>2023-07-18T08:26:09Z</time>
      </trkpt>
      <trkpt lat="47.26261" lon="0.46066">
        <ele>58</ele>
        <time>2023-07-18T08:26:10Z</time>
      </trkpt>
      <trkpt lat="47.26263" lon="0.46056">
        <ele>58</ele>
        <time>2023-07-18T08:26:11Z</time>
      </trkpt>
      <trkpt lat="47.26265" lon="0.46049">
        <ele>58</ele>
        <time>2023-07-18T08:26:12Z</time>
      </trkpt>
      <trkpt lat="47.26266" lon="0.46041">
        <ele>58</ele>
        <time>2023-07-18T08:26:13Z</time>
      </trkpt>
      <trkpt lat="47.26268" lon="0.46031">
        <ele>58</ele>
        <time>2023-07-18T08:26:14Z</time>
      </trkpt>
      <trkpt lat="47.2627" lon="0.46024">
        <ele>58</ele>
        <time>2023-07-18T08:26:15Z</time>
      </trkpt>
      <trkpt lat="47.26272" lon="0.46016">
        <ele>58</ele>
        <time>2023-07-18T08:26:16Z</time>
      </trkpt>
      <trkpt lat="47.26273" lon="0.46008">
        <ele>57.8</ele>
        <time>2023-07-18T08:26:17Z</time>
      </trkpt>
      <trkpt lat="47.26275" lon="0.46001">
        <ele>57.8</ele>
        <time>2023-07-18T08:26:18Z</time>
      </trkpt>
      <trkpt lat="47.26277" lon="0.45993">
        <ele>57.8</ele>
        <time>2023-07-18T08:26:19Z</time>
      </trkpt>
      <trkpt lat="47.26278" lon="0.45985">
        <ele>57.8</ele>
        <time>2023-07-18T08:26:20Z</time>
      </trkpt>
      <trkpt lat="47.26279" lon="0.45978">
        <ele>57.6</ele>
        <time>2023-07-18T08:26:21Z</time>
      </trkpt>
      <trkpt lat="47.26281" lon="0.45971">
        <ele>57.4</ele>
        <time>2023-07-18T08:26:22Z</time>
      </trkpt>
      <trkpt lat="47.26282" lon="0.45966">
        <ele>57.2</ele>
        <time>2023-07-18T08:26:23Z</time>
      </trkpt>
      <trkpt lat="47.26283" lon="0.45962">
        <ele>57.2</ele>
        <time>2023-07-18T08:26:24Z</time>
      </trkpt>
      <trkpt lat="47.26283" lon="0.45958">
        <ele>57.2</ele>
        <time>2023-07-18T08:26:25Z</time>
      </trkpt>
      <trkpt lat="47.26283" lon="0.45953">
        <ele>57</ele>
        <time>2023-07-18T08:26:26Z</time>
      </trkpt>
      <trkpt lat="47.26284" lon="0.45947">
        <ele>57</ele>
        <time>2023-07-18T08:26:27Z</time>
      </trkpt>
      <trkpt lat="47.26284" lon="0.45941">
        <ele>57</ele>
        <time>2023-07-18T08:26:28Z</time>
      </trkpt>
      <trkpt lat="47.26285" lon="0.45935">
        <ele>57</ele>
        <time>2023-07-18T08:26:29Z</time>
      </trkpt>
      <trkpt lat="47.26286" lon="0.45927">
        <ele>57</ele>
        <time>2023-07-18T08:26:30Z</time>
      </trkpt>
      <trkpt lat="47.26287" lon="0.45919">
        <ele>57</ele>
        <time>2023-07-18T08:26:31Z</time>
      </trkpt>
      <trkpt lat="47.26289" lon="0.45911">
        <ele>57</ele>
        <time>2023-07-18T08:26:32Z</time>
      </trkpt>
      <trkpt lat="47.2629" lon="0.45903">
        <ele>57</ele>
        <time>2023-07-18T08:26:33Z</time>
      </trkpt>
      <trkpt lat="47.26291" lon="0.45894">
        <ele>57</ele>
        <time>2023-07-18T08:26:34Z</time>
      </trkpt>
      <trkpt lat="47.26292" lon="0.45886">
        <ele>57</ele>
        <time>2023-07-18T08:26:35Z</time>
      </trkpt>
      <trkpt lat="47.26293" lon="0.45877">
        <ele>57</ele>
        <time>2023-07-18T08:26:36Z</time>
      </trkpt>
      <trkpt lat="47.26294" lon="0.45868">
        <ele>57.2</ele>
        <time>2023-07-18T08:26:37Z</time>
      </trkpt>
      <trkpt lat="47.26295" lon="0.4586">
        <ele>57</ele>
        <time>2023-07-18T08:26:38Z</time>
      </trkpt>
      <trkpt lat="47.26297" lon="0.45852">
        <ele>57</ele>
        <time>2023-07-18T08:26:39Z</time>
      </trkpt>
      <trkpt lat="47.26298" lon="0.45843">
        <ele>57</ele>
        <time>2023-07-18T08:26:40Z</time>
      </trkpt>
      <trkpt lat="47.263" lon="0.45834">
        <ele>57</ele>
        <time>2023-07-18T08:26:41Z</time>
      </trkpt>
      <trkpt lat="47.263" lon="0.45826">
        <ele>57</ele>
        <time>2023-07-18T08:26:42Z</time>
      </trkpt>
      <trkpt lat="47.26301" lon="0.45817">
        <ele>57</ele>
        <time>2023-07-18T08:26:43Z</time>
      </trkpt>
      <trkpt lat="47.26302" lon="0.45807">
        <ele>57</ele>
        <time>2023-07-18T08:26:44Z</time>
      </trkpt>
      <trkpt lat="47.26303" lon="0.45798">
        <ele>57</ele>
        <time>2023-07-18T08:26:45Z</time>
      </trkpt>
      <trkpt lat="47.26305" lon="0.45789">
        <ele>57</ele>
        <time>2023-07-18T08:26:46Z</time>
      </trkpt>
      <trkpt lat="47.26306" lon="0.4578">
        <ele>57</ele>
        <time>2023-07-18T08:26:47Z</time>
      </trkpt>
      <trkpt lat="47.26307" lon="0.45771">
        <ele>57</ele>
        <time>2023-07-18T08:26:48Z</time>
      </trkpt>
      <trkpt lat="47.26308" lon="0.45762">
        <ele>57</ele>
        <time>2023-07-18T08:26:49Z</time>
      </trkpt>
      <trkpt lat="47.26309" lon="0.45753">
        <ele>57</ele>
        <time>2023-07-18T08:26:50Z</time>
      </trkpt>
      <trkpt lat="47.2631" lon="0.45743">
        <ele>57</ele>
        <time>2023-07-18T08:26:51Z</time>
      </trkpt>
      <trkpt lat="47.26311" lon="0.45734">
        <ele>57</ele>
        <time>2023-07-18T08:26:52Z</time>
      </trkpt>
      <trkpt lat="47.26312" lon="0.45724">
        <ele>56.8</ele>
        <time>2023-07-18T08:26:53Z</time>
      </trkpt>
      <trkpt lat="47.26313" lon="0.45716">
        <ele>56.8</ele>
        <time>2023-07-18T08:26:54Z</time>
      </trkpt>
      <trkpt lat="47.26315" lon="0.45706">
        <ele>56.8</ele>
        <time>2023-07-18T08:26:55Z</time>
      </trkpt>
      <trkpt lat="47.26316" lon="0.45697">
        <ele>56.8</ele>
        <time>2023-07-18T08:26:56Z</time>
      </trkpt>
      <trkpt lat="47.26317" lon="0.45688">
        <ele>56.6</ele>
        <time>2023-07-18T08:26:57Z</time>
      </trkpt>
      <trkpt lat="47.26318" lon="0.45679">
        <ele>56.6</ele>
        <time>2023-07-18T08:26:58Z</time>
      </trkpt>
      <trkpt lat="47.2632" lon="0.45668">
        <ele>56.4</ele>
        <time>2023-07-18T08:26:59Z</time>
      </trkpt>
      <trkpt lat="47.26321" lon="0.45661">
        <ele>56.4</ele>
        <time>2023-07-18T08:27:00Z</time>
      </trkpt>
      <trkpt lat="47.26323" lon="0.45652">
        <ele>56.2</ele>
        <time>2023-07-18T08:27:01Z</time>
      </trkpt>
      <trkpt lat="47.26325" lon="0.45643">
        <ele>56.2</ele>
        <time>2023-07-18T08:27:02Z</time>
      </trkpt>
      <trkpt lat="47.26327" lon="0.45634">
        <ele>56.4</ele>
        <time>2023-07-18T08:27:03Z</time>
      </trkpt>
      <trkpt lat="47.26329" lon="0.45624">
        <ele>56.4</ele>
        <time>2023-07-18T08:27:04Z</time>
      </trkpt>
      <trkpt lat="47.26331" lon="0.45616">
        <ele>56.4</ele>
        <time>2023-07-18T08:27:05Z</time>
      </trkpt>
      <trkpt lat="47.26333" lon="0.45607">
        <ele>56.4</ele>
        <time>2023-07-18T08:27:06Z</time>
      </trkpt>
      <trkpt lat="47.26334" lon="0.45598">
        <ele>56.4</ele>
        <time>2023-07-18T08:27:07Z</time>
      </trkpt>
      <trkpt lat="47.26337" lon="0.45589">
        <ele>56.4</ele>
        <time>2023-07-18T08:27:08Z</time>
      </trkpt>
      <trkpt lat="47.26339" lon="0.45579">
        <ele>56.4</ele>
        <time>2023-07-18T08:27:09Z</time>
      </trkpt>
      <trkpt lat="47.26341" lon="0.45571">
        <ele>56.4</ele>
        <time>2023-07-18T08:27:10Z</time>
      </trkpt>
      <trkpt lat="47.26343" lon="0.45561">
        <ele>56.4</ele>
        <time>2023-07-18T08:27:11Z</time>
      </trkpt>
      <trkpt lat="47.26345" lon="0.45552">
        <ele>56.4</ele>
        <time>2023-07-18T08:27:12Z</time>
      </trkpt>
      <trkpt lat="47.26348" lon="0.45543">
        <ele>56.4</ele>
        <time>2023-07-18T08:27:13Z</time>
      </trkpt>
      <trkpt lat="47.2635" lon="0.45533">
        <ele>56.6</ele>
        <time>2023-07-18T08:27:14Z</time>
      </trkpt>
      <trkpt lat="47.26352" lon="0.45524">
        <ele>56.6</ele>
        <time>2023-07-18T08:27:15Z</time>
      </trkpt>
      <trkpt lat="47.26354" lon="0.45514">
        <ele>56.8</ele>
        <time>2023-07-18T08:27:16Z</time>
      </trkpt>
      <trkpt lat="47.26356" lon="0.45504">
        <ele>56.8</ele>
        <time>2023-07-18T08:27:17Z</time>
      </trkpt>
      <trkpt lat="47.26358" lon="0.45495">
        <ele>56.8</ele>
        <time>2023-07-18T08:27:18Z</time>
      </trkpt>
      <trkpt lat="47.26361" lon="0.45485">
        <ele>56.8</ele>
        <time>2023-07-18T08:27:19Z</time>
      </trkpt>
      <trkpt lat="47.26363" lon="0.45475">
        <ele>56.6</ele>
        <time>2023-07-18T08:27:20Z</time>
      </trkpt>
      <trkpt lat="47.26365" lon="0.45464">
        <ele>56.6</ele>
        <time>2023-07-18T08:27:21Z</time>
      </trkpt>
      <trkpt lat="47.26368" lon="0.45454">
        <ele>56.6</ele>
        <time>2023-07-18T08:27:22Z</time>
      </trkpt>
      <trkpt lat="47.26369" lon="0.45444">
        <ele>56.4</ele>
        <time>2023-07-18T08:27:23Z</time>
      </trkpt>
      <trkpt lat="47.26372" lon="0.45434">
        <ele>56.4</ele>
        <time>2023-07-18T08:27:24Z</time>
      </trkpt>
      <trkpt lat="47.26374" lon="0.45424">
        <ele>56.4</ele>
        <time>2023-07-18T08:27:25Z</time>
      </trkpt>
      <trkpt lat="47.26377" lon="0.45414">
        <ele>56.4</ele>
        <time>2023-07-18T08:27:26Z</time>
      </trkpt>
      <trkpt lat="47.26379" lon="0.45404">
        <ele>56.6</ele>
        <time>2023-07-18T08:27:27Z</time>
      </trkpt>
      <trkpt lat="47.26382" lon="0.45394">
        <ele>56.4</ele>
        <time>2023-07-18T08:27:28Z</time>
      </trkpt>
      <trkpt lat="47.26384" lon="0.45384">
        <ele>56.4</ele>
        <time>2023-07-18T08:27:29Z</time>
      </trkpt>
      <trkpt lat="47.26386" lon="0.45374">
        <ele>56.4</ele>
        <time>2023-07-18T08:27:30Z</time>
      </trkpt>
      <trkpt lat="47.26388" lon="0.45363">
        <ele>56.4</ele>
        <time>2023-07-18T08:27:31Z</time>
      </trkpt>
      <trkpt lat="47.2639" lon="0.45352">
        <ele>56.4</ele>
        <time>2023-07-18T08:27:32Z</time>
      </trkpt>
      <trkpt lat="47.26392" lon="0.45342">
        <ele>56.4</ele>
        <time>2023-07-18T08:27:33Z</time>
      </trkpt>
      <trkpt lat="47.26394" lon="0.45331">
        <ele>56.6</ele>
        <time>2023-07-18T08:27:34Z</time>
      </trkpt>
      <trkpt lat="47.26395" lon="0.4532">
        <ele>56.6</ele>
        <time>2023-07-18T08:27:35Z</time>
      </trkpt>
      <trkpt lat="47.26397" lon="0.4531">
        <ele>56.6</ele>
        <time>2023-07-18T08:27:36Z</time>
      </trkpt>
      <trkpt lat="47.26399" lon="0.45299">
        <ele>56.4</ele>
        <time>2023-07-18T08:27:37Z</time>
      </trkpt>
      <trkpt lat="47.264" lon="0.45288">
        <ele>56.4</ele>
        <time>2023-07-18T08:27:38Z</time>
      </trkpt>
      <trkpt lat="47.26402" lon="0.45277">
        <ele>56.4</ele>
        <time>2023-07-18T08:27:39Z</time>
      </trkpt>
      <trkpt lat="47.26403" lon="0.45267">
        <ele>56.2</ele>
        <time>2023-07-18T08:27:40Z</time>
      </trkpt>
      <trkpt lat="47.26405" lon="0.45256">
        <ele>56.4</ele>
        <time>2023-07-18T08:27:41Z</time>
      </trkpt>
      <trkpt lat="47.26406" lon="0.45245">
        <ele>56.4</ele>
        <time>2023-07-18T08:27:42Z</time>
      </trkpt>
      <trkpt lat="47.26408" lon="0.45234">
        <ele>56.4</ele>
        <time>2023-07-18T08:27:43Z</time>
      </trkpt>
      <trkpt lat="47.2641" lon="0.45224">
        <ele>56.4</ele>
        <time>2023-07-18T08:27:44Z</time>
      </trkpt>
      <trkpt lat="47.26411" lon="0.45213">
        <ele>56.4</ele>
        <time>2023-07-18T08:27:45Z</time>
      </trkpt>
      <trkpt lat="47.26412" lon="0.45202">
        <ele>56.2</ele>
        <time>2023-07-18T08:27:46Z</time>
      </trkpt>
      <trkpt lat="47.26414" lon="0.45192">
        <ele>56.2</ele>
        <time>2023-07-18T08:27:47Z</time>
      </trkpt>
      <trkpt lat="47.26416" lon="0.45181">
        <ele>56</ele>
        <time>2023-07-18T08:27:48Z</time>
      </trkpt>
      <trkpt lat="47.26417" lon="0.45171">
        <ele>55.8</ele>
        <time>2023-07-18T08:27:49Z</time>
      </trkpt>
      <trkpt lat="47.26419" lon="0.4516">
        <ele>55.8</ele>
        <time>2023-07-18T08:27:50Z</time>
      </trkpt>
      <trkpt lat="47.2642" lon="0.4515">
        <ele>55.6</ele>
        <time>2023-07-18T08:27:51Z</time>
      </trkpt>
      <trkpt lat="47.26422" lon="0.45139">
        <ele>55.6</ele>
        <time>2023-07-18T08:27:52Z</time>
      </trkpt>
      <trkpt lat="47.26423" lon="0.45129">
        <ele>55.6</ele>
        <time>2023-07-18T08:27:53Z</time>
      </trkpt>
      <trkpt lat="47.26424" lon="0.45119">
        <ele>55.6</ele>
        <time>2023-07-18T08:27:54Z</time>
      </trkpt>
      <trkpt lat="47.26426" lon="0.45108">
        <ele>55.6</ele>
        <time>2023-07-18T08:27:55Z</time>
      </trkpt>
      <trkpt lat="47.26427" lon="0.45097">
        <ele>55.4</ele>
        <time>2023-07-18T08:27:56Z</time>
      </trkpt>
      <trkpt lat="47.26429" lon="0.45087">
        <ele>55.4</ele>
        <time>2023-07-18T08:27:57Z</time>
      </trkpt>
      <trkpt lat="47.2643" lon="0.45076">
        <ele>55.2</ele>
        <time>2023-07-18T08:27:58Z</time>
      </trkpt>
      <trkpt lat="47.26431" lon="0.45065">
        <ele>55</ele>
        <time>2023-07-18T08:27:59Z</time>
      </trkpt>
      <trkpt lat="47.26433" lon="0.45055">
        <ele>55</ele>
        <time>2023-07-18T08:28:00Z</time>
      </trkpt>
      <trkpt lat="47.26434" lon="0.45045">
        <ele>55</ele>
        <time>2023-07-18T08:28:01Z</time>
      </trkpt>
      <trkpt lat="47.26436" lon="0.45034">
        <ele>55.2</ele>
        <time>2023-07-18T08:28:02Z</time>
      </trkpt>
      <trkpt lat="47.26437" lon="0.45024">
        <ele>55.2</ele>
        <time>2023-07-18T08:28:03Z</time>
      </trkpt>
      <trkpt lat="47.26439" lon="0.45014">
        <ele>55.2</ele>
        <time>2023-07-18T08:28:04Z</time>
      </trkpt>
      <trkpt lat="47.2644" lon="0.45003">
        <ele>55.2</ele>
        <time>2023-07-18T08:28:05Z</time>
      </trkpt>
      <trkpt lat="47.26442" lon="0.44992">
        <ele>55.2</ele>
        <time>2023-07-18T08:28:06Z</time>
      </trkpt>
      <trkpt lat="47.26443" lon="0.44982">
        <ele>55.2</ele>
        <time>2023-07-18T08:28:07Z</time>
      </trkpt>
      <trkpt lat="47.26445" lon="0.4497">
        <ele>55.4</ele>
        <time>2023-07-18T08:28:08Z</time>
      </trkpt>
      <trkpt lat="47.26447" lon="0.4496">
        <ele>55.2</ele>
        <time>2023-07-18T08:28:09Z</time>
      </trkpt>
      <trkpt lat="47.26448" lon="0.44949">
        <ele>55.2</ele>
        <time>2023-07-18T08:28:10Z</time>
      </trkpt>
      <trkpt lat="47.26449" lon="0.44939">
        <ele>55.2</ele>
        <time>2023-07-18T08:28:11Z</time>
      </trkpt>
      <trkpt lat="47.2645" lon="0.44929">
        <ele>55.2</ele>
        <time>2023-07-18T08:28:12Z</time>
      </trkpt>
      <trkpt lat="47.26451" lon="0.4492">
        <ele>55.2</ele>
        <time>2023-07-18T08:28:13Z</time>
      </trkpt>
      <trkpt lat="47.26453" lon="0.44909">
        <ele>55.4</ele>
        <time>2023-07-18T08:28:14Z</time>
      </trkpt>
      <trkpt lat="47.26454" lon="0.44899">
        <ele>55.2</ele>
        <time>2023-07-18T08:28:15Z</time>
      </trkpt>
      <trkpt lat="47.26456" lon="0.4489">
        <ele>55.4</ele>
        <time>2023-07-18T08:28:16Z</time>
      </trkpt>
      <trkpt lat="47.26458" lon="0.44879">
        <ele>55.4</ele>
        <time>2023-07-18T08:28:17Z</time>
      </trkpt>
      <trkpt lat="47.2646" lon="0.4487">
        <ele>55.4</ele>
        <time>2023-07-18T08:28:18Z</time>
      </trkpt>
      <trkpt lat="47.26461" lon="0.4486">
        <ele>55.2</ele>
        <time>2023-07-18T08:28:19Z</time>
      </trkpt>
      <trkpt lat="47.26463" lon="0.44851">
        <ele>55.2</ele>
        <time>2023-07-18T08:28:20Z</time>
      </trkpt>
      <trkpt lat="47.26465" lon="0.44842">
        <ele>55.2</ele>
        <time>2023-07-18T08:28:21Z</time>
      </trkpt>
      <trkpt lat="47.26468" lon="0.44832">
        <ele>55.2</ele>
        <time>2023-07-18T08:28:22Z</time>
      </trkpt>
      <trkpt lat="47.26469" lon="0.44823">
        <ele>55.2</ele>
        <time>2023-07-18T08:28:23Z</time>
      </trkpt>
      <trkpt lat="47.26472" lon="0.44813">
        <ele>55</ele>
        <time>2023-07-18T08:28:24Z</time>
      </trkpt>
      <trkpt lat="47.26475" lon="0.44803">
        <ele>55</ele>
        <time>2023-07-18T08:28:25Z</time>
      </trkpt>
      <trkpt lat="47.26478" lon="0.44793">
        <ele>55</ele>
        <time>2023-07-18T08:28:26Z</time>
      </trkpt>
      <trkpt lat="47.26481" lon="0.44782">
        <ele>55</ele>
        <time>2023-07-18T08:28:27Z</time>
      </trkpt>
      <trkpt lat="47.26484" lon="0.44772">
        <ele>55</ele>
        <time>2023-07-18T08:28:28Z</time>
      </trkpt>
      <trkpt lat="47.26487" lon="0.44762">
        <ele>55.2</ele>
        <time>2023-07-18T08:28:29Z</time>
      </trkpt>
      <trkpt lat="47.26489" lon="0.44751">
        <ele>55.2</ele>
        <time>2023-07-18T08:28:30Z</time>
      </trkpt>
      <trkpt lat="47.26492" lon="0.44741">
        <ele>55.2</ele>
        <time>2023-07-18T08:28:31Z</time>
      </trkpt>
      <trkpt lat="47.26495" lon="0.44732">
        <ele>55</ele>
        <time>2023-07-18T08:28:32Z</time>
      </trkpt>
      <trkpt lat="47.26498" lon="0.44723">
        <ele>55</ele>
        <time>2023-07-18T08:28:33Z</time>
      </trkpt>
      <trkpt lat="47.26501" lon="0.44713">
        <ele>54.8</ele>
        <time>2023-07-18T08:28:34Z</time>
      </trkpt>
      <trkpt lat="47.26504" lon="0.44703">
        <ele>54.6</ele>
        <time>2023-07-18T08:28:35Z</time>
      </trkpt>
      <trkpt lat="47.26505" lon="0.44693">
        <ele>54.6</ele>
        <time>2023-07-18T08:28:36Z</time>
      </trkpt>
      <trkpt lat="47.26504" lon="0.44683">
        <ele>54.4</ele>
        <time>2023-07-18T08:28:37Z</time>
      </trkpt>
      <trkpt lat="47.26502" lon="0.44672">
        <ele>54.2</ele>
        <time>2023-07-18T08:28:38Z</time>
      </trkpt>
      <trkpt lat="47.265" lon="0.44661">
        <ele>54</ele>
        <time>2023-07-18T08:28:39Z</time>
      </trkpt>
      <trkpt lat="47.265" lon="0.4465">
        <ele>54</ele>
        <time>2023-07-18T08:28:40Z</time>
      </trkpt>
      <trkpt lat="47.265" lon="0.44638">
        <ele>54</ele>
        <time>2023-07-18T08:28:41Z</time>
      </trkpt>
      <trkpt lat="47.265" lon="0.44627">
        <ele>53.8</ele>
        <time>2023-07-18T08:28:42Z</time>
      </trkpt>
      <trkpt lat="47.265" lon="0.44615">
        <ele>53.8</ele>
        <time>2023-07-18T08:28:43Z</time>
      </trkpt>
      <trkpt lat="47.265" lon="0.44603">
        <ele>53.6</ele>
        <time>2023-07-18T08:28:44Z</time>
      </trkpt>
      <trkpt lat="47.26499" lon="0.44592">
        <ele>53.4</ele>
        <time>2023-07-18T08:28:45Z</time>
      </trkpt>
      <trkpt lat="47.26499" lon="0.4458">
        <ele>53.2</ele>
        <time>2023-07-18T08:28:46Z</time>
      </trkpt>
      <trkpt lat="47.26499" lon="0.44569">
        <ele>53.2</ele>
        <time>2023-07-18T08:28:47Z</time>
      </trkpt>
      <trkpt lat="47.26499" lon="0.44558">
        <ele>53.2</ele>
        <time>2023-07-18T08:28:48Z</time>
      </trkpt>
      <trkpt lat="47.26498" lon="0.44547">
        <ele>53</ele>
        <time>2023-07-18T08:28:49Z</time>
      </trkpt>
      <trkpt lat="47.26498" lon="0.44536">
        <ele>53</ele>
        <time>2023-07-18T08:28:50Z</time>
      </trkpt>
      <trkpt lat="47.26498" lon="0.44525">
        <ele>52.8</ele>
        <time>2023-07-18T08:28:51Z</time>
      </trkpt>
      <trkpt lat="47.26499" lon="0.44515">
        <ele>52.8</ele>
        <time>2023-07-18T08:28:52Z</time>
      </trkpt>
      <trkpt lat="47.265" lon="0.44505">
        <ele>52.8</ele>
        <time>2023-07-18T08:28:53Z</time>
      </trkpt>
      <trkpt lat="47.26501" lon="0.44494">
        <ele>52.6</ele>
        <time>2023-07-18T08:28:54Z</time>
      </trkpt>
      <trkpt lat="47.26503" lon="0.44484">
        <ele>52.4</ele>
        <time>2023-07-18T08:28:55Z</time>
      </trkpt>
      <trkpt lat="47.26505" lon="0.44473">
        <ele>52.4</ele>
        <time>2023-07-18T08:28:56Z</time>
      </trkpt>
      <trkpt lat="47.26507" lon="0.44464">
        <ele>52.4</ele>
        <time>2023-07-18T08:28:57Z</time>
      </trkpt>
      <trkpt lat="47.26509" lon="0.44454">
        <ele>52.2</ele>
        <time>2023-07-18T08:28:58Z</time>
      </trkpt>
      <trkpt lat="47.26511" lon="0.44445">
        <ele>52.2</ele>
        <time>2023-07-18T08:28:59Z</time>
      </trkpt>
      <trkpt lat="47.26514" lon="0.44435">
        <ele>52.2</ele>
        <time>2023-07-18T08:29:00Z</time>
      </trkpt>
      <trkpt lat="47.26516" lon="0.44426">
        <ele>52</ele>
        <time>2023-07-18T08:29:01Z</time>
      </trkpt>
      <trkpt lat="47.26521" lon="0.44417">
        <ele>52</ele>
        <time>2023-07-18T08:29:02Z</time>
      </trkpt>
      <trkpt lat="47.26524" lon="0.44409">
        <ele>52</ele>
        <time>2023-07-18T08:29:03Z</time>
      </trkpt>
      <trkpt lat="47.26527" lon="0.44399">
        <ele>51.8</ele>
        <time>2023-07-18T08:29:04Z</time>
      </trkpt>
      <trkpt lat="47.26531" lon="0.44391">
        <ele>51.8</ele>
        <time>2023-07-18T08:29:05Z</time>
      </trkpt>
      <trkpt lat="47.26535" lon="0.44382">
        <ele>51.8</ele>
        <time>2023-07-18T08:29:06Z</time>
      </trkpt>
      <trkpt lat="47.26538" lon="0.44374">
        <ele>51.8</ele>
        <time>2023-07-18T08:29:07Z</time>
      </trkpt>
      <trkpt lat="47.26542" lon="0.44365">
        <ele>51.8</ele>
        <time>2023-07-18T08:29:08Z</time>
      </trkpt>
      <trkpt lat="47.26545" lon="0.44357">
        <ele>51.8</ele>
        <time>2023-07-18T08:29:09Z</time>
      </trkpt>
      <trkpt lat="47.26549" lon="0.44348">
        <ele>51.8</ele>
        <time>2023-07-18T08:29:10Z</time>
      </trkpt>
      <trkpt lat="47.26553" lon="0.44339">
        <ele>51.8</ele>
        <time>2023-07-18T08:29:11Z</time>
      </trkpt>
      <trkpt lat="47.26556" lon="0.4433">
        <ele>51.8</ele>
        <time>2023-07-18T08:29:12Z</time>
      </trkpt>
      <trkpt lat="47.2656" lon="0.44321">
        <ele>51.8</ele>
        <time>2023-07-18T08:29:13Z</time>
      </trkpt>
      <trkpt lat="47.26564" lon="0.44313">
        <ele>51.8</ele>
        <time>2023-07-18T08:29:14Z</time>
      </trkpt>
      <trkpt lat="47.26567" lon="0.44304">
        <ele>51.8</ele>
        <time>2023-07-18T08:29:15Z</time>
      </trkpt>
      <trkpt lat="47.26571" lon="0.44295">
        <ele>51.8</ele>
        <time>2023-07-18T08:29:16Z</time>
      </trkpt>
      <trkpt lat="47.26575" lon="0.44287">
        <ele>51.6</ele>
        <time>2023-07-18T08:29:17Z</time>
      </trkpt>
      <trkpt lat="47.26579" lon="0.44278">
        <ele>51.6</ele>
        <time>2023-07-18T08:29:18Z</time>
      </trkpt>
      <trkpt lat="47.26582" lon="0.44269">
        <ele>51.8</ele>
        <time>2023-07-18T08:29:19Z</time>
      </trkpt>
      <trkpt lat="47.26586" lon="0.4426">
        <ele>51.6</ele>
        <time>2023-07-18T08:29:20Z</time>
      </trkpt>
      <trkpt lat="47.2659" lon="0.44252">
        <ele>51.8</ele>
        <time>2023-07-18T08:29:21Z</time>
      </trkpt>
      <trkpt lat="47.26594" lon="0.44243">
        <ele>51.8</ele>
        <time>2023-07-18T08:29:22Z</time>
      </trkpt>
      <trkpt lat="47.26598" lon="0.44235">
        <ele>51.8</ele>
        <time>2023-07-18T08:29:23Z</time>
      </trkpt>
      <trkpt lat="47.26602" lon="0.44226">
        <ele>51.6</ele>
        <time>2023-07-18T08:29:24Z</time>
      </trkpt>
      <trkpt lat="47.26606" lon="0.44218">
        <ele>51.6</ele>
        <time>2023-07-18T08:29:25Z</time>
      </trkpt>
      <trkpt lat="47.2661" lon="0.4421">
        <ele>51.6</ele>
        <time>2023-07-18T08:29:26Z</time>
      </trkpt>
      <trkpt lat="47.26615" lon="0.44202">
        <ele>51.6</ele>
        <time>2023-07-18T08:29:27Z</time>
      </trkpt>
      <trkpt lat="47.26619" lon="0.44193">
        <ele>51.6</ele>
        <time>2023-07-18T08:29:28Z</time>
      </trkpt>
      <trkpt lat="47.26623" lon="0.44184">
        <ele>51.6</ele>
        <time>2023-07-18T08:29:29Z</time>
      </trkpt>
      <trkpt lat="47.26628" lon="0.44175">
        <ele>51.6</ele>
        <time>2023-07-18T08:29:30Z</time>
      </trkpt>
      <trkpt lat="47.26632" lon="0.44167">
        <ele>51.4</ele>
        <time>2023-07-18T08:29:31Z</time>
      </trkpt>
      <trkpt lat="47.26636" lon="0.44158">
        <ele>51.6</ele>
        <time>2023-07-18T08:29:32Z</time>
      </trkpt>
      <trkpt lat="47.2664" lon="0.4415">
        <ele>51.6</ele>
        <time>2023-07-18T08:29:33Z</time>
      </trkpt>
      <trkpt lat="47.26645" lon="0.44142">
        <ele>51.6</ele>
        <time>2023-07-18T08:29:34Z</time>
      </trkpt>
      <trkpt lat="47.26648" lon="0.44134">
        <ele>51.6</ele>
        <time>2023-07-18T08:29:35Z</time>
      </trkpt>
      <trkpt lat="47.26653" lon="0.44125">
        <ele>51.4</ele>
        <time>2023-07-18T08:29:36Z</time>
      </trkpt>
      <trkpt lat="47.26656" lon="0.44117">
        <ele>51.4</ele>
        <time>2023-07-18T08:29:37Z</time>
      </trkpt>
      <trkpt lat="47.2666" lon="0.44108">
        <ele>51.4</ele>
        <time>2023-07-18T08:29:38Z</time>
      </trkpt>
      <trkpt lat="47.26664" lon="0.441">
        <ele>51.4</ele>
        <time>2023-07-18T08:29:39Z</time>
      </trkpt>
      <trkpt lat="47.26668" lon="0.44092">
        <ele>51.4</ele>
        <time>2023-07-18T08:29:40Z</time>
      </trkpt>
      <trkpt lat="47.26672" lon="0.44083">
        <ele>51.2</ele>
        <time>2023-07-18T08:29:41Z</time>
      </trkpt>
      <trkpt lat="47.26677" lon="0.44075">
        <ele>51.4</ele>
        <time>2023-07-18T08:29:42Z</time>
      </trkpt>
      <trkpt lat="47.26681" lon="0.44067">
        <ele>51.2</ele>
        <time>2023-07-18T08:29:43Z</time>
      </trkpt>
      <trkpt lat="47.26685" lon="0.44058">
        <ele>51.2</ele>
        <time>2023-07-18T08:29:44Z</time>
      </trkpt>
      <trkpt lat="47.26689" lon="0.44049">
        <ele>51.2</ele>
        <time>2023-07-18T08:29:45Z</time>
      </trkpt>
      <trkpt lat="47.26692" lon="0.4404">
        <ele>51.2</ele>
        <time>2023-07-18T08:29:46Z</time>
      </trkpt>
      <trkpt lat="47.26696" lon="0.44031">
        <ele>51.2</ele>
        <time>2023-07-18T08:29:47Z</time>
      </trkpt>
      <trkpt lat="47.26699" lon="0.44021">
        <ele>51.4</ele>
        <time>2023-07-18T08:29:48Z</time>
      </trkpt>
      <trkpt lat="47.26702" lon="0.44012">
        <ele>51.4</ele>
        <time>2023-07-18T08:29:49Z</time>
      </trkpt>
      <trkpt lat="47.26704" lon="0.44002">
        <ele>51.2</ele>
        <time>2023-07-18T08:29:50Z</time>
      </trkpt>
      <trkpt lat="47.26707" lon="0.43993">
        <ele>51.4</ele>
        <time>2023-07-18T08:29:51Z</time>
      </trkpt>
      <trkpt lat="47.26709" lon="0.43982">
        <ele>51.4</ele>
        <time>2023-07-18T08:29:52Z</time>
      </trkpt>
      <trkpt lat="47.26712" lon="0.43972">
        <ele>51.4</ele>
        <time>2023-07-18T08:29:53Z</time>
      </trkpt>
      <trkpt lat="47.26714" lon="0.43962">
        <ele>51.2</ele>
        <time>2023-07-18T08:29:54Z</time>
      </trkpt>
      <trkpt lat="47.26717" lon="0.43952">
        <ele>51.2</ele>
        <time>2023-07-18T08:29:55Z</time>
      </trkpt>
      <trkpt lat="47.26719" lon="0.43942">
        <ele>51.2</ele>
        <time>2023-07-18T08:29:56Z</time>
      </trkpt>
      <trkpt lat="47.2672" lon="0.43932">
        <ele>51.2</ele>
        <time>2023-07-18T08:29:57Z</time>
      </trkpt>
      <trkpt lat="47.26722" lon="0.43922">
        <ele>51.2</ele>
        <time>2023-07-18T08:29:58Z</time>
      </trkpt>
      <trkpt lat="47.26723" lon="0.43912">
        <ele>51.2</ele>
        <time>2023-07-18T08:29:59Z</time>
      </trkpt>
      <trkpt lat="47.26725" lon="0.43902">
        <ele>51</ele>
        <time>2023-07-18T08:30:00Z</time>
      </trkpt>
      <trkpt lat="47.26727" lon="0.43892">
        <ele>51</ele>
        <time>2023-07-18T08:30:01Z</time>
      </trkpt>
      <trkpt lat="47.26729" lon="0.43882">
        <ele>51</ele>
        <time>2023-07-18T08:30:02Z</time>
      </trkpt>
      <trkpt lat="47.26731" lon="0.43872">
        <ele>50.8</ele>
        <time>2023-07-18T08:30:03Z</time>
      </trkpt>
      <trkpt lat="47.26734" lon="0.43862">
        <ele>50.8</ele>
        <time>2023-07-18T08:30:04Z</time>
      </trkpt>
      <trkpt lat="47.26737" lon="0.43853">
        <ele>50.8</ele>
        <time>2023-07-18T08:30:05Z</time>
      </trkpt>
      <trkpt lat="47.2674" lon="0.43843">
        <ele>50.8</ele>
        <time>2023-07-18T08:30:06Z</time>
      </trkpt>
      <trkpt lat="47.26743" lon="0.43833">
        <ele>50.8</ele>
        <time>2023-07-18T08:30:07Z</time>
      </trkpt>
      <trkpt lat="47.26746" lon="0.43824">
        <ele>50.8</ele>
        <time>2023-07-18T08:30:08Z</time>
      </trkpt>
      <trkpt lat="47.26748" lon="0.43814">
        <ele>50.8</ele>
        <time>2023-07-18T08:30:09Z</time>
      </trkpt>
      <trkpt lat="47.26751" lon="0.43804">
        <ele>50.6</ele>
        <time>2023-07-18T08:30:10Z</time>
      </trkpt>
      <trkpt lat="47.26754" lon="0.43795">
        <ele>50.6</ele>
        <time>2023-07-18T08:30:11Z</time>
      </trkpt>
      <trkpt lat="47.26757" lon="0.43785">
        <ele>50.6</ele>
        <time>2023-07-18T08:30:12Z</time>
      </trkpt>
      <trkpt lat="47.26759" lon="0.43776">
        <ele>50.4</ele>
        <time>2023-07-18T08:30:13Z</time>
      </trkpt>
      <trkpt lat="47.26762" lon="0.43766">
        <ele>50.4</ele>
        <time>2023-07-18T08:30:14Z</time>
      </trkpt>
      <trkpt lat="47.26766" lon="0.43757">
        <ele>50.2</ele>
        <time>2023-07-18T08:30:15Z</time>
      </trkpt>
      <trkpt lat="47.26769" lon="0.43747">
        <ele>50.2</ele>
        <time>2023-07-18T08:30:16Z</time>
      </trkpt>
      <trkpt lat="47.26772" lon="0.43737">
        <ele>50.2</ele>
        <time>2023-07-18T08:30:17Z</time>
      </trkpt>
      <trkpt lat="47.26775" lon="0.43727">
        <ele>50.2</ele>
        <time>2023-07-18T08:30:18Z</time>
      </trkpt>
      <trkpt lat="47.26778" lon="0.43717">
        <ele>50.4</ele>
        <time>2023-07-18T08:30:19Z</time>
      </trkpt>
      <trkpt lat="47.26782" lon="0.43707">
        <ele>50.4</ele>
        <time>2023-07-18T08:30:20Z</time>
      </trkpt>
      <trkpt lat="47.26785" lon="0.43697">
        <ele>50.6</ele>
        <time>2023-07-18T08:30:21Z</time>
      </trkpt>
      <trkpt lat="47.26788" lon="0.43688">
        <ele>50.4</ele>
        <time>2023-07-18T08:30:22Z</time>
      </trkpt>
      <trkpt lat="47.26792" lon="0.43677">
        <ele>50.6</ele>
        <time>2023-07-18T08:30:23Z</time>
      </trkpt>
      <trkpt lat="47.26796" lon="0.43667">
        <ele>50.6</ele>
        <time>2023-07-18T08:30:24Z</time>
      </trkpt>
      <trkpt lat="47.26799" lon="0.43657">
        <ele>50.4</ele>
        <time>2023-07-18T08:30:25Z</time>
      </trkpt>
      <trkpt lat="47.26803" lon="0.43646">
        <ele>50.4</ele>
        <time>2023-07-18T08:30:26Z</time>
      </trkpt>
      <trkpt lat="47.26807" lon="0.43636">
        <ele>50.4</ele>
        <time>2023-07-18T08:30:27Z</time>
      </trkpt>
      <trkpt lat="47.2681" lon="0.43626">
        <ele>50.4</ele>
        <time>2023-07-18T08:30:28Z</time>
      </trkpt>
      <trkpt lat="47.26813" lon="0.43616">
        <ele>50.4</ele>
        <time>2023-07-18T08:30:29Z</time>
      </trkpt>
      <trkpt lat="47.26817" lon="0.43605">
        <ele>50.4</ele>
        <time>2023-07-18T08:30:30Z</time>
      </trkpt>
      <trkpt lat="47.2682" lon="0.43595">
        <ele>50.4</ele>
        <time>2023-07-18T08:30:31Z</time>
      </trkpt>
      <trkpt lat="47.26824" lon="0.43585">
        <ele>50.4</ele>
        <time>2023-07-18T08:30:32Z</time>
      </trkpt>
      <trkpt lat="47.26827" lon="0.43575">
        <ele>50.4</ele>
        <time>2023-07-18T08:30:33Z</time>
      </trkpt>
      <trkpt lat="47.2683" lon="0.43565">
        <ele>50.6</ele>
        <time>2023-07-18T08:30:34Z</time>
      </trkpt>
      <trkpt lat="47.26834" lon="0.43554">
        <ele>50.4</ele>
        <time>2023-07-18T08:30:35Z</time>
      </trkpt>
      <trkpt lat="47.26837" lon="0.43544">
        <ele>50.4</ele>
        <time>2023-07-18T08:30:36Z</time>
      </trkpt>
      <trkpt lat="47.2684" lon="0.43533">
        <ele>50.4</ele>
        <time>2023-07-18T08:30:37Z</time>
      </trkpt>
      <trkpt lat="47.26842" lon="0.43523">
        <ele>50.4</ele>
        <time>2023-07-18T08:30:38Z</time>
      </trkpt>
      <trkpt lat="47.26846" lon="0.43512">
        <ele>50.8</ele>
        <time>2023-07-18T08:30:39Z</time>
      </trkpt>
      <trkpt lat="47.26849" lon="0.43502">
        <ele>50.8</ele>
        <time>2023-07-18T08:30:40Z</time>
      </trkpt>
      <trkpt lat="47.26852" lon="0.43492">
        <ele>50.6</ele>
        <time>2023-07-18T08:30:41Z</time>
      </trkpt>
      <trkpt lat="47.26855" lon="0.43482">
        <ele>50.6</ele>
        <time>2023-07-18T08:30:42Z</time>
      </trkpt>
      <trkpt lat="47.26858" lon="0.43472">
        <ele>50.4</ele>
        <time>2023-07-18T08:30:43Z</time>
      </trkpt>
      <trkpt lat="47.2686" lon="0.43462">
        <ele>50.2</ele>
        <time>2023-07-18T08:30:44Z</time>
      </trkpt>
      <trkpt lat="47.26863" lon="0.43452">
        <ele>50.2</ele>
        <time>2023-07-18T08:30:45Z</time>
      </trkpt>
      <trkpt lat="47.26867" lon="0.43441">
        <ele>50.2</ele>
        <time>2023-07-18T08:30:46Z</time>
      </trkpt>
      <trkpt lat="47.2687" lon="0.43431">
        <ele>50.2</ele>
        <time>2023-07-18T08:30:47Z</time>
      </trkpt>
      <trkpt lat="47.26873" lon="0.4342">
        <ele>50</ele>
        <time>2023-07-18T08:30:48Z</time>
      </trkpt>
      <trkpt lat="47.26876" lon="0.4341">
        <ele>50</ele>
        <time>2023-07-18T08:30:49Z</time>
      </trkpt>
      <trkpt lat="47.2688" lon="0.43399">
        <ele>50</ele>
        <time>2023-07-18T08:30:50Z</time>
      </trkpt>
      <trkpt lat="47.26883" lon="0.43389">
        <ele>50</ele>
        <time>2023-07-18T08:30:51Z</time>
      </trkpt>
      <trkpt lat="47.26886" lon="0.43378">
        <ele>50.2</ele>
        <time>2023-07-18T08:30:52Z</time>
      </trkpt>
      <trkpt lat="47.26889" lon="0.43367">
        <ele>50.2</ele>
        <time>2023-07-18T08:30:53Z</time>
      </trkpt>
      <trkpt lat="47.26892" lon="0.43357">
        <ele>50.2</ele>
        <time>2023-07-18T08:30:54Z</time>
      </trkpt>
      <trkpt lat="47.26896" lon="0.43346">
        <ele>50.2</ele>
        <time>2023-07-18T08:30:55Z</time>
      </trkpt>
      <trkpt lat="47.26899" lon="0.43336">
        <ele>50.2</ele>
        <time>2023-07-18T08:30:56Z</time>
      </trkpt>
      <trkpt lat="47.26902" lon="0.43326">
        <ele>50</ele>
        <time>2023-07-18T08:30:57Z</time>
      </trkpt>
      <trkpt lat="47.26905" lon="0.43316">
        <ele>50</ele>
        <time>2023-07-18T08:30:58Z</time>
      </trkpt>
      <trkpt lat="47.26908" lon="0.43305">
        <ele>50</ele>
        <time>2023-07-18T08:30:59Z</time>
      </trkpt>
      <trkpt lat="47.26912" lon="0.43295">
        <ele>50</ele>
        <time>2023-07-18T08:31:00Z</time>
      </trkpt>
      <trkpt lat="47.26915" lon="0.43284">
        <ele>50</ele>
        <time>2023-07-18T08:31:01Z</time>
      </trkpt>
      <trkpt lat="47.26918" lon="0.43274">
        <ele>50</ele>
        <time>2023-07-18T08:31:02Z</time>
      </trkpt>
      <trkpt lat="47.26921" lon="0.43264">
        <ele>50.2</ele>
        <time>2023-07-18T08:31:03Z</time>
      </trkpt>
      <trkpt lat="47.26924" lon="0.43253">
        <ele>50.2</ele>
        <time>2023-07-18T08:31:04Z</time>
      </trkpt>
      <trkpt lat="47.26927" lon="0.43243">
        <ele>50</ele>
        <time>2023-07-18T08:31:05Z</time>
      </trkpt>
      <trkpt lat="47.2693" lon="0.43232">
        <ele>50</ele>
        <time>2023-07-18T08:31:06Z</time>
      </trkpt>
      <trkpt lat="47.26933" lon="0.43221">
        <ele>50</ele>
        <time>2023-07-18T08:31:07Z</time>
      </trkpt>
      <trkpt lat="47.26936" lon="0.43212">
        <ele>50</ele>
        <time>2023-07-18T08:31:08Z</time>
      </trkpt>
      <trkpt lat="47.26939" lon="0.43201">
        <ele>50.2</ele>
        <time>2023-07-18T08:31:09Z</time>
      </trkpt>
      <trkpt lat="47.26942" lon="0.43191">
        <ele>50.2</ele>
        <time>2023-07-18T08:31:10Z</time>
      </trkpt>
      <trkpt lat="47.26945" lon="0.4318">
        <ele>50.2</ele>
        <time>2023-07-18T08:31:11Z</time>
      </trkpt>
      <trkpt lat="47.26948" lon="0.4317">
        <ele>50</ele>
        <time>2023-07-18T08:31:12Z</time>
      </trkpt>
      <trkpt lat="47.26951" lon="0.43159">
        <ele>50</ele>
        <time>2023-07-18T08:31:13Z</time>
      </trkpt>
      <trkpt lat="47.26954" lon="0.43149">
        <ele>50</ele>
        <time>2023-07-18T08:31:14Z</time>
      </trkpt>
      <trkpt lat="47.26958" lon="0.43139">
        <ele>50</ele>
        <time>2023-07-18T08:31:15Z</time>
      </trkpt>
      <trkpt lat="47.26961" lon="0.43128">
        <ele>50.2</ele>
        <time>2023-07-18T08:31:16Z</time>
      </trkpt>
      <trkpt lat="47.26964" lon="0.43118">
        <ele>50.2</ele>
        <time>2023-07-18T08:31:17Z</time>
      </trkpt>
      <trkpt lat="47.26967" lon="0.43108">
        <ele>50.2</ele>
        <time>2023-07-18T08:31:18Z</time>
      </trkpt>
      <trkpt lat="47.2697" lon="0.43098">
        <ele>50.2</ele>
        <time>2023-07-18T08:31:19Z</time>
      </trkpt>
      <trkpt lat="47.26973" lon="0.43088">
        <ele>50.2</ele>
        <time>2023-07-18T08:31:20Z</time>
      </trkpt>
      <trkpt lat="47.26976" lon="0.43078">
        <ele>50.2</ele>
        <time>2023-07-18T08:31:21Z</time>
      </trkpt>
      <trkpt lat="47.26979" lon="0.43067">
        <ele>50.2</ele>
        <time>2023-07-18T08:31:22Z</time>
      </trkpt>
      <trkpt lat="47.26982" lon="0.43057">
        <ele>50.2</ele>
        <time>2023-07-18T08:31:23Z</time>
      </trkpt>
      <trkpt lat="47.26986" lon="0.43046">
        <ele>50</ele>
        <time>2023-07-18T08:31:24Z</time>
      </trkpt>
      <trkpt lat="47.26989" lon="0.43036">
        <ele>50</ele>
        <time>2023-07-18T08:31:25Z</time>
      </trkpt>
      <trkpt lat="47.26992" lon="0.43025">
        <ele>50</ele>
        <time>2023-07-18T08:31:26Z</time>
      </trkpt>
      <trkpt lat="47.26995" lon="0.43014">
        <ele>49.8</ele>
        <time>2023-07-18T08:31:27Z</time>
      </trkpt>
      <trkpt lat="47.26998" lon="0.43004">
        <ele>50</ele>
        <time>2023-07-18T08:31:28Z</time>
      </trkpt>
      <trkpt lat="47.27001" lon="0.42993">
        <ele>50</ele>
        <time>2023-07-18T08:31:29Z</time>
      </trkpt>
      <trkpt lat="47.27004" lon="0.42983">
        <ele>50</ele>
        <time>2023-07-18T08:31:30Z</time>
      </trkpt>
      <trkpt lat="47.27007" lon="0.42973">
        <ele>50</ele>
        <time>2023-07-18T08:31:31Z</time>
      </trkpt>
      <trkpt lat="47.27011" lon="0.42962">
        <ele>50</ele>
        <time>2023-07-18T08:31:32Z</time>
      </trkpt>
      <trkpt lat="47.27014" lon="0.42953">
        <ele>50</ele>
        <time>2023-07-18T08:31:33Z</time>
      </trkpt>
      <trkpt lat="47.27017" lon="0.42942">
        <ele>50.2</ele>
        <time>2023-07-18T08:31:34Z</time>
      </trkpt>
      <trkpt lat="47.2702" lon="0.42932">
        <ele>50.4</ele>
        <time>2023-07-18T08:31:35Z</time>
      </trkpt>
      <trkpt lat="47.27023" lon="0.42922">
        <ele>50.4</ele>
        <time>2023-07-18T08:31:36Z</time>
      </trkpt>
      <trkpt lat="47.27026" lon="0.42913">
        <ele>50.4</ele>
        <time>2023-07-18T08:31:37Z</time>
      </trkpt>
      <trkpt lat="47.27029" lon="0.42903">
        <ele>50.6</ele>
        <time>2023-07-18T08:31:38Z</time>
      </trkpt>
      <trkpt lat="47.27032" lon="0.42893">
        <ele>50.6</ele>
        <time>2023-07-18T08:31:39Z</time>
      </trkpt>
      <trkpt lat="47.27035" lon="0.42884">
        <ele>50.6</ele>
        <time>2023-07-18T08:31:40Z</time>
      </trkpt>
      <trkpt lat="47.27038" lon="0.42874">
        <ele>50.4</ele>
        <time>2023-07-18T08:31:41Z</time>
      </trkpt>
      <trkpt lat="47.2704" lon="0.42865">
        <ele>50.4</ele>
        <time>2023-07-18T08:31:42Z</time>
      </trkpt>
      <trkpt lat="47.27043" lon="0.42855">
        <ele>50.4</ele>
        <time>2023-07-18T08:31:43Z</time>
      </trkpt>
      <trkpt lat="47.27046" lon="0.42846">
        <ele>50.2</ele>
        <time>2023-07-18T08:31:44Z</time>
      </trkpt>
      <trkpt lat="47.27049" lon="0.42836">
        <ele>50.2</ele>
        <time>2023-07-18T08:31:45Z</time>
      </trkpt>
      <trkpt lat="47.27052" lon="0.42827">
        <ele>50.4</ele>
        <time>2023-07-18T08:31:46Z</time>
      </trkpt>
      <trkpt lat="47.27054" lon="0.42817">
        <ele>50.2</ele>
        <time>2023-07-18T08:31:47Z</time>
      </trkpt>
      <trkpt lat="47.27057" lon="0.42807">
        <ele>50.2</ele>
        <time>2023-07-18T08:31:48Z</time>
      </trkpt>
      <trkpt lat="47.2706" lon="0.42797">
        <ele>50.2</ele>
        <time>2023-07-18T08:31:49Z</time>
      </trkpt>
      <trkpt lat="47.27063" lon="0.42788">
        <ele>50.2</ele>
        <time>2023-07-18T08:31:50Z</time>
      </trkpt>
      <trkpt lat="47.27066" lon="0.42778">
        <ele>50.2</ele>
        <time>2023-07-18T08:31:51Z</time>
      </trkpt>
      <trkpt lat="47.27069" lon="0.42768">
        <ele>50.4</ele>
        <time>2023-07-18T08:31:52Z</time>
      </trkpt>
      <trkpt lat="47.27072" lon="0.42758">
        <ele>50.4</ele>
        <time>2023-07-18T08:31:53Z</time>
      </trkpt>
      <trkpt lat="47.27075" lon="0.42749">
        <ele>50.6</ele>
        <time>2023-07-18T08:31:54Z</time>
      </trkpt>
      <trkpt lat="47.27078" lon="0.42739">
        <ele>50.6</ele>
        <time>2023-07-18T08:31:55Z</time>
      </trkpt>
      <trkpt lat="47.27081" lon="0.42729">
        <ele>50.6</ele>
        <time>2023-07-18T08:31:56Z</time>
      </trkpt>
      <trkpt lat="47.27084" lon="0.42718">
        <ele>50.6</ele>
        <time>2023-07-18T08:31:57Z</time>
      </trkpt>
      <trkpt lat="47.27087" lon="0.42708">
        <ele>50.6</ele>
        <time>2023-07-18T08:31:58Z</time>
      </trkpt>
      <trkpt lat="47.2709" lon="0.42699">
        <ele>50.6</ele>
        <time>2023-07-18T08:31:59Z</time>
      </trkpt>
      <trkpt lat="47.27094" lon="0.42688">
        <ele>50.6</ele>
        <time>2023-07-18T08:32:00Z</time>
      </trkpt>
      <trkpt lat="47.27096" lon="0.42679">
        <ele>50.6</ele>
        <time>2023-07-18T08:32:01Z</time>
      </trkpt>
      <trkpt lat="47.27099" lon="0.42669">
        <ele>50.6</ele>
        <time>2023-07-18T08:32:02Z</time>
      </trkpt>
      <trkpt lat="47.27102" lon="0.42659">
        <ele>50.6</ele>
        <time>2023-07-18T08:32:03Z</time>
      </trkpt>
      <trkpt lat="47.27105" lon="0.42648">
        <ele>50.6</ele>
        <time>2023-07-18T08:32:04Z</time>
      </trkpt>
      <trkpt lat="47.27108" lon="0.42638">
        <ele>50.4</ele>
        <time>2023-07-18T08:32:05Z</time>
      </trkpt>
      <trkpt lat="47.27111" lon="0.42628">
        <ele>50.4</ele>
        <time>2023-07-18T08:32:06Z</time>
      </trkpt>
      <trkpt lat="47.27114" lon="0.42618">
        <ele>50.4</ele>
        <time>2023-07-18T08:32:07Z</time>
      </trkpt>
      <trkpt lat="47.27117" lon="0.42608">
        <ele>50.4</ele>
        <time>2023-07-18T08:32:08Z</time>
      </trkpt>
      <trkpt lat="47.2712" lon="0.42598">
        <ele>50.6</ele>
        <time>2023-07-18T08:32:09Z</time>
      </trkpt>
      <trkpt lat="47.27123" lon="0.42588">
        <ele>50.6</ele>
        <time>2023-07-18T08:32:10Z</time>
      </trkpt>
      <trkpt lat="47.27126" lon="0.42578">
        <ele>50.8</ele>
        <time>2023-07-18T08:32:11Z</time>
      </trkpt>
      <trkpt lat="47.27129" lon="0.42569">
        <ele>50.8</ele>
        <time>2023-07-18T08:32:12Z</time>
      </trkpt>
      <trkpt lat="47.27132" lon="0.42559">
        <ele>50.8</ele>
        <time>2023-07-18T08:32:13Z</time>
      </trkpt>
      <trkpt lat="47.27135" lon="0.4255">
        <ele>51</ele>
        <time>2023-07-18T08:32:14Z</time>
      </trkpt>
      <trkpt lat="47.27138" lon="0.4254">
        <ele>51</ele>
        <time>2023-07-18T08:32:15Z</time>
      </trkpt>
      <trkpt lat="47.27141" lon="0.4253">
        <ele>51.2</ele>
        <time>2023-07-18T08:32:16Z</time>
      </trkpt>
      <trkpt lat="47.27143" lon="0.4252">
        <ele>51</ele>
        <time>2023-07-18T08:32:17Z</time>
      </trkpt>
      <trkpt lat="47.27146" lon="0.42511">
        <ele>51</ele>
        <time>2023-07-18T08:32:18Z</time>
      </trkpt>
      <trkpt lat="47.27149" lon="0.42502">
        <ele>51.2</ele>
        <time>2023-07-18T08:32:19Z</time>
      </trkpt>
      <trkpt lat="47.27153" lon="0.42493">
        <ele>51.2</ele>
        <time>2023-07-18T08:32:20Z</time>
      </trkpt>
      <trkpt lat="47.27156" lon="0.42484">
        <ele>51.4</ele>
        <time>2023-07-18T08:32:21Z</time>
      </trkpt>
      <trkpt lat="47.27161" lon="0.42475">
        <ele>51.4</ele>
        <time>2023-07-18T08:32:22Z</time>
      </trkpt>
      <trkpt lat="47.27165" lon="0.42467">
        <ele>51.6</ele>
        <time>2023-07-18T08:32:23Z</time>
      </trkpt>
      <trkpt lat="47.2717" lon="0.4246">
        <ele>51.6</ele>
        <time>2023-07-18T08:32:24Z</time>
      </trkpt>
      <trkpt lat="47.27174" lon="0.42453">
        <ele>51.8</ele>
        <time>2023-07-18T08:32:25Z</time>
      </trkpt>
      <trkpt lat="47.27179" lon="0.42447">
        <ele>52</ele>
        <time>2023-07-18T08:32:26Z</time>
      </trkpt>
      <trkpt lat="47.27184" lon="0.42442">
        <ele>52</ele>
        <time>2023-07-18T08:32:27Z</time>
      </trkpt>
      <trkpt lat="47.27188" lon="0.42437">
        <ele>52</ele>
        <time>2023-07-18T08:32:28Z</time>
      </trkpt>
      <trkpt lat="47.27194" lon="0.42434">
        <ele>52</ele>
        <time>2023-07-18T08:32:29Z</time>
      </trkpt>
      <trkpt lat="47.27198" lon="0.4243">
        <ele>52.2</ele>
        <time>2023-07-18T08:32:30Z</time>
      </trkpt>
      <trkpt lat="47.27204" lon="0.42426">
        <ele>52.4</ele>
        <time>2023-07-18T08:32:31Z</time>
      </trkpt>
      <trkpt lat="47.27209" lon="0.42424">
        <ele>52.8</ele>
        <time>2023-07-18T08:32:32Z</time>
      </trkpt>
      <trkpt lat="47.27215" lon="0.42421">
        <ele>53.2</ele>
        <time>2023-07-18T08:32:33Z</time>
      </trkpt>
      <trkpt lat="47.2722" lon="0.42419">
        <ele>53.6</ele>
        <time>2023-07-18T08:32:34Z</time>
      </trkpt>
      <trkpt lat="47.27225" lon="0.42418">
        <ele>53.8</ele>
        <time>2023-07-18T08:32:35Z</time>
      </trkpt>
      <trkpt lat="47.27231" lon="0.42417">
        <ele>54.2</ele>
        <time>2023-07-18T08:32:36Z</time>
      </trkpt>
      <trkpt lat="47.27236" lon="0.42416">
        <ele>54.6</ele>
        <time>2023-07-18T08:32:37Z</time>
      </trkpt>
      <trkpt lat="47.27242" lon="0.42415">
        <ele>54.8</ele>
        <time>2023-07-18T08:32:38Z</time>
      </trkpt>
      <trkpt lat="47.27247" lon="0.42415">
        <ele>55.2</ele>
        <time>2023-07-18T08:32:39Z</time>
      </trkpt>
      <trkpt lat="47.27252" lon="0.42415">
        <ele>55.4</ele>
        <time>2023-07-18T08:32:40Z</time>
      </trkpt>
      <trkpt lat="47.27258" lon="0.42416">
        <ele>55.6</ele>
        <time>2023-07-18T08:32:41Z</time>
      </trkpt>
      <trkpt lat="47.27263" lon="0.42416">
        <ele>55.8</ele>
        <time>2023-07-18T08:32:42Z</time>
      </trkpt>
      <trkpt lat="47.27269" lon="0.42416">
        <ele>56</ele>
        <time>2023-07-18T08:32:43Z</time>
      </trkpt>
      <trkpt lat="47.27274" lon="0.42417">
        <ele>56.4</ele>
        <time>2023-07-18T08:32:44Z</time>
      </trkpt>
      <trkpt lat="47.27279" lon="0.42417">
        <ele>56.6</ele>
        <time>2023-07-18T08:32:45Z</time>
      </trkpt>
      <trkpt lat="47.27284" lon="0.42418">
        <ele>56.8</ele>
        <time>2023-07-18T08:32:46Z</time>
      </trkpt>
      <trkpt lat="47.27289" lon="0.42418">
        <ele>57.2</ele>
        <time>2023-07-18T08:32:47Z</time>
      </trkpt>
      <trkpt lat="47.27295" lon="0.42418">
        <ele>57.4</ele>
        <time>2023-07-18T08:32:48Z</time>
      </trkpt>
      <trkpt lat="47.273" lon="0.42419">
        <ele>57.8</ele>
        <time>2023-07-18T08:32:49Z</time>
      </trkpt>
      <trkpt lat="47.27305" lon="0.42419">
        <ele>58</ele>
        <time>2023-07-18T08:32:50Z</time>
      </trkpt>
      <trkpt lat="47.27311" lon="0.42419">
        <ele>58.4</ele>
        <time>2023-07-18T08:32:51Z</time>
      </trkpt>
      <trkpt lat="47.27316" lon="0.42419">
        <ele>58.6</ele>
        <time>2023-07-18T08:32:52Z</time>
      </trkpt>
      <trkpt lat="47.2732" lon="0.4242">
        <ele>59</ele>
        <time>2023-07-18T08:32:53Z</time>
      </trkpt>
      <trkpt lat="47.27326" lon="0.4242">
        <ele>59.2</ele>
        <time>2023-07-18T08:32:54Z</time>
      </trkpt>
      <trkpt lat="47.27331" lon="0.4242">
        <ele>59.4</ele>
        <time>2023-07-18T08:32:55Z</time>
      </trkpt>
      <trkpt lat="47.27336" lon="0.4242">
        <ele>59.6</ele>
        <time>2023-07-18T08:32:56Z</time>
      </trkpt>
      <trkpt lat="47.27341" lon="0.42421">
        <ele>59.8</ele>
        <time>2023-07-18T08:32:57Z</time>
      </trkpt>
      <trkpt lat="47.27346" lon="0.42421">
        <ele>60</ele>
        <time>2023-07-18T08:32:58Z</time>
      </trkpt>
      <trkpt lat="47.27351" lon="0.42421">
        <ele>60.4</ele>
        <time>2023-07-18T08:32:59Z</time>
      </trkpt>
      <trkpt lat="47.27356" lon="0.42422">
        <ele>60.6</ele>
        <time>2023-07-18T08:33:00Z</time>
      </trkpt>
      <trkpt lat="47.27361" lon="0.42422">
        <ele>60.8</ele>
        <time>2023-07-18T08:33:01Z</time>
      </trkpt>
      <trkpt lat="47.27366" lon="0.42422">
        <ele>61</ele>
        <time>2023-07-18T08:33:02Z</time>
      </trkpt>
      <trkpt lat="47.2737" lon="0.42423">
        <ele>61.2</ele>
        <time>2023-07-18T08:33:03Z</time>
      </trkpt>
      <trkpt lat="47.27375" lon="0.42424">
        <ele>61.4</ele>
        <time>2023-07-18T08:33:04Z</time>
      </trkpt>
      <trkpt lat="47.2738" lon="0.42424">
        <ele>61.6</ele>
        <time>2023-07-18T08:33:05Z</time>
      </trkpt>
      <trkpt lat="47.27384" lon="0.42424">
        <ele>61.8</ele>
        <time>2023-07-18T08:33:06Z</time>
      </trkpt>
      <trkpt lat="47.27389" lon="0.42424">
        <ele>62</ele>
        <time>2023-07-18T08:33:07Z</time>
      </trkpt>
      <trkpt lat="47.27393" lon="0.42425">
        <ele>62.2</ele>
        <time>2023-07-18T08:33:08Z</time>
      </trkpt>
      <trkpt lat="47.27398" lon="0.42425">
        <ele>62.4</ele>
        <time>2023-07-18T08:33:09Z</time>
      </trkpt>
      <trkpt lat="47.27403" lon="0.42425">
        <ele>62.6</ele>
        <time>2023-07-18T08:33:10Z</time>
      </trkpt>
      <trkpt lat="47.27408" lon="0.42425">
        <ele>62.6</ele>
        <time>2023-07-18T08:33:11Z</time>
      </trkpt>
      <trkpt lat="47.27412" lon="0.42426">
        <ele>63.2</ele>
        <time>2023-07-18T08:33:12Z</time>
      </trkpt>
      <trkpt lat="47.27417" lon="0.42426">
        <ele>63.4</ele>
        <time>2023-07-18T08:33:13Z</time>
      </trkpt>
      <trkpt lat="47.27422" lon="0.42426">
        <ele>63.6</ele>
        <time>2023-07-18T08:33:14Z</time>
      </trkpt>
      <trkpt lat="47.27426" lon="0.42426">
        <ele>63.8</ele>
        <time>2023-07-18T08:33:15Z</time>
      </trkpt>
      <trkpt lat="47.27431" lon="0.42426">
        <ele>64</ele>
        <time>2023-07-18T08:33:16Z</time>
      </trkpt>
      <trkpt lat="47.27436" lon="0.42427">
        <ele>64</ele>
        <time>2023-07-18T08:33:17Z</time>
      </trkpt>
      <trkpt lat="47.27441" lon="0.42427">
        <ele>64.2</ele>
        <time>2023-07-18T08:33:18Z</time>
      </trkpt>
      <trkpt lat="47.27445" lon="0.42427">
        <ele>64.4</ele>
        <time>2023-07-18T08:33:19Z</time>
      </trkpt>
      <trkpt lat="47.2745" lon="0.42428">
        <ele>64.4</ele>
        <time>2023-07-18T08:33:20Z</time>
      </trkpt>
      <trkpt lat="47.27455" lon="0.42428">
        <ele>64.6</ele>
        <time>2023-07-18T08:33:21Z</time>
      </trkpt>
      <trkpt lat="47.27459" lon="0.42428">
        <ele>64.6</ele>
        <time>2023-07-18T08:33:22Z</time>
      </trkpt>
      <trkpt lat="47.27464" lon="0.42428">
        <ele>64.8</ele>
        <time>2023-07-18T08:33:23Z</time>
      </trkpt>
      <trkpt lat="47.27469" lon="0.42428">
        <ele>64.8</ele>
        <time>2023-07-18T08:33:24Z</time>
      </trkpt>
      <trkpt lat="47.27473" lon="0.42428">
        <ele>65</ele>
        <time>2023-07-18T08:33:25Z</time>
      </trkpt>
      <trkpt lat="47.27478" lon="0.42428">
        <ele>65.2</ele>
        <time>2023-07-18T08:33:26Z</time>
      </trkpt>
      <trkpt lat="47.27483" lon="0.42428">
        <ele>65.2</ele>
        <time>2023-07-18T08:33:27Z</time>
      </trkpt>
      <trkpt lat="47.27487" lon="0.42429">
        <ele>65.4</ele>
        <time>2023-07-18T08:33:28Z</time>
      </trkpt>
      <trkpt lat="47.27493" lon="0.42429">
        <ele>65.6</ele>
        <time>2023-07-18T08:33:29Z</time>
      </trkpt>
      <trkpt lat="47.27497" lon="0.42429">
        <ele>65.8</ele>
        <time>2023-07-18T08:33:30Z</time>
      </trkpt>
      <trkpt lat="47.27502" lon="0.4243">
        <ele>65.8</ele>
        <time>2023-07-18T08:33:31Z</time>
      </trkpt>
      <trkpt lat="47.27507" lon="0.4243">
        <ele>66</ele>
        <time>2023-07-18T08:33:32Z</time>
      </trkpt>
      <trkpt lat="47.27512" lon="0.4243">
        <ele>66.4</ele>
        <time>2023-07-18T08:33:33Z</time>
      </trkpt>
      <trkpt lat="47.27517" lon="0.4243">
        <ele>66.6</ele>
        <time>2023-07-18T08:33:34Z</time>
      </trkpt>
      <trkpt lat="47.27522" lon="0.42431">
        <ele>66.6</ele>
        <time>2023-07-18T08:33:35Z</time>
      </trkpt>
      <trkpt lat="47.27527" lon="0.42431">
        <ele>66.8</ele>
        <time>2023-07-18T08:33:36Z</time>
      </trkpt>
      <trkpt lat="47.27532" lon="0.42431">
        <ele>67</ele>
        <time>2023-07-18T08:33:37Z</time>
      </trkpt>
      <trkpt lat="47.27537" lon="0.42432">
        <ele>67.2</ele>
        <time>2023-07-18T08:33:38Z</time>
      </trkpt>
      <trkpt lat="47.27542" lon="0.42432">
        <ele>67.4</ele>
        <time>2023-07-18T08:33:39Z</time>
      </trkpt>
      <trkpt lat="47.27547" lon="0.42432">
        <ele>67.6</ele>
        <time>2023-07-18T08:33:40Z</time>
      </trkpt>
      <trkpt lat="47.27552" lon="0.42432">
        <ele>67.8</ele>
        <time>2023-07-18T08:33:41Z</time>
      </trkpt>
      <trkpt lat="47.27556" lon="0.42432">
        <ele>68</ele>
        <time>2023-07-18T08:33:42Z</time>
      </trkpt>
      <trkpt lat="47.27561" lon="0.42433">
        <ele>68.2</ele>
        <time>2023-07-18T08:33:43Z</time>
      </trkpt>
      <trkpt lat="47.27566" lon="0.42433">
        <ele>68.2</ele>
        <time>2023-07-18T08:33:44Z</time>
      </trkpt>
      <trkpt lat="47.27571" lon="0.42433">
        <ele>68.4</ele>
        <time>2023-07-18T08:33:45Z</time>
      </trkpt>
      <trkpt lat="47.27576" lon="0.42433">
        <ele>68.6</ele>
        <time>2023-07-18T08:33:46Z</time>
      </trkpt>
      <trkpt lat="47.27581" lon="0.42434">
        <ele>68.8</ele>
        <time>2023-07-18T08:33:47Z</time>
      </trkpt>
      <trkpt lat="47.27585" lon="0.42433">
        <ele>69</ele>
        <time>2023-07-18T08:33:48Z</time>
      </trkpt>
      <trkpt lat="47.2759" lon="0.42433">
        <ele>69.2</ele>
        <time>2023-07-18T08:33:49Z</time>
      </trkpt>
      <trkpt lat="47.27596" lon="0.42433">
        <ele>69.2</ele>
        <time>2023-07-18T08:33:50Z</time>
      </trkpt>
      <trkpt lat="47.276" lon="0.42434">
        <ele>69.4</ele>
        <time>2023-07-18T08:33:51Z</time>
      </trkpt>
      <trkpt lat="47.27605" lon="0.42434">
        <ele>69.6</ele>
        <time>2023-07-18T08:33:52Z</time>
      </trkpt>
      <trkpt lat="47.2761" lon="0.42434">
        <ele>69.8</ele>
        <time>2023-07-18T08:33:53Z</time>
      </trkpt>
      <trkpt lat="47.27615" lon="0.42434">
        <ele>69.8</ele>
        <time>2023-07-18T08:33:54Z</time>
      </trkpt>
      <trkpt lat="47.2762" lon="0.42434">
        <ele>70</ele>
        <time>2023-07-18T08:33:55Z</time>
      </trkpt>
      <trkpt lat="47.27625" lon="0.42435">
        <ele>70.2</ele>
        <time>2023-07-18T08:33:56Z</time>
      </trkpt>
      <trkpt lat="47.2763" lon="0.42435">
        <ele>70.4</ele>
        <time>2023-07-18T08:33:57Z</time>
      </trkpt>
      <trkpt lat="47.27635" lon="0.42435">
        <ele>70.8</ele>
        <time>2023-07-18T08:33:58Z</time>
      </trkpt>
      <trkpt lat="47.2764" lon="0.42436">
        <ele>71</ele>
        <time>2023-07-18T08:33:59Z</time>
      </trkpt>
      <trkpt lat="47.27645" lon="0.42436">
        <ele>71.2</ele>
        <time>2023-07-18T08:34:00Z</time>
      </trkpt>
      <trkpt lat="47.2765" lon="0.42436">
        <ele>71.2</ele>
        <time>2023-07-18T08:34:01Z</time>
      </trkpt>
      <trkpt lat="47.27655" lon="0.42437">
        <ele>71.6</ele>
        <time>2023-07-18T08:34:02Z</time>
      </trkpt>
      <trkpt lat="47.2766" lon="0.42438">
        <ele>71.8</ele>
        <time>2023-07-18T08:34:03Z</time>
      </trkpt>
      <trkpt lat="47.27665" lon="0.42438">
        <ele>72</ele>
        <time>2023-07-18T08:34:04Z</time>
      </trkpt>
      <trkpt lat="47.2767" lon="0.42439">
        <ele>72.2</ele>
        <time>2023-07-18T08:34:05Z</time>
      </trkpt>
      <trkpt lat="47.27674" lon="0.4244">
        <ele>72.4</ele>
        <time>2023-07-18T08:34:06Z</time>
      </trkpt>
      <trkpt lat="47.27679" lon="0.42442">
        <ele>72.6</ele>
        <time>2023-07-18T08:34:07Z</time>
      </trkpt>
      <trkpt lat="47.27684" lon="0.42443">
        <ele>72.8</ele>
        <time>2023-07-18T08:34:08Z</time>
      </trkpt>
      <trkpt lat="47.27689" lon="0.42444">
        <ele>72.8</ele>
        <time>2023-07-18T08:34:09Z</time>
      </trkpt>
      <trkpt lat="47.27693" lon="0.42446">
        <ele>73</ele>
        <time>2023-07-18T08:34:10Z</time>
      </trkpt>
      <trkpt lat="47.27698" lon="0.42448">
        <ele>73.2</ele>
        <time>2023-07-18T08:34:11Z</time>
      </trkpt>
      <trkpt lat="47.27703" lon="0.4245">
        <ele>73.6</ele>
        <time>2023-07-18T08:34:12Z</time>
      </trkpt>
      <trkpt lat="47.27707" lon="0.42452">
        <ele>73.8</ele>
        <time>2023-07-18T08:34:13Z</time>
      </trkpt>
      <trkpt lat="47.27711" lon="0.42454">
        <ele>74</ele>
        <time>2023-07-18T08:34:14Z</time>
      </trkpt>
      <trkpt lat="47.27717" lon="0.42456">
        <ele>74.2</ele>
        <time>2023-07-18T08:34:15Z</time>
      </trkpt>
      <trkpt lat="47.27721" lon="0.42458">
        <ele>74.4</ele>
        <time>2023-07-18T08:34:16Z</time>
      </trkpt>
      <trkpt lat="47.27726" lon="0.4246">
        <ele>74.6</ele>
        <time>2023-07-18T08:34:17Z</time>
      </trkpt>
      <trkpt lat="47.2773" lon="0.42462">
        <ele>75</ele>
        <time>2023-07-18T08:34:18Z</time>
      </trkpt>
      <trkpt lat="47.27735" lon="0.42465">
        <ele>75.2</ele>
        <time>2023-07-18T08:34:19Z</time>
      </trkpt>
      <trkpt lat="47.27739" lon="0.42467">
        <ele>75.6</ele>
        <time>2023-07-18T08:34:20Z</time>
      </trkpt>
      <trkpt lat="47.27744" lon="0.42469">
        <ele>75.8</ele>
        <time>2023-07-18T08:34:21Z</time>
      </trkpt>
      <trkpt lat="47.27748" lon="0.42471">
        <ele>76</ele>
        <time>2023-07-18T08:34:22Z</time>
      </trkpt>
      <trkpt lat="47.27753" lon="0.42473">
        <ele>76.2</ele>
        <time>2023-07-18T08:34:23Z</time>
      </trkpt>
      <trkpt lat="47.27757" lon="0.42476">
        <ele>76.4</ele>
        <time>2023-07-18T08:34:24Z</time>
      </trkpt>
      <trkpt lat="47.27762" lon="0.42478">
        <ele>76.4</ele>
        <time>2023-07-18T08:34:25Z</time>
      </trkpt>
      <trkpt lat="47.27766" lon="0.4248">
        <ele>76.6</ele>
        <time>2023-07-18T08:34:26Z</time>
      </trkpt>
      <trkpt lat="47.27771" lon="0.42482">
        <ele>76.8</ele>
        <time>2023-07-18T08:34:27Z</time>
      </trkpt>
      <trkpt lat="47.27775" lon="0.42484">
        <ele>77.2</ele>
        <time>2023-07-18T08:34:28Z</time>
      </trkpt>
      <trkpt lat="47.27779" lon="0.42486">
        <ele>77.4</ele>
        <time>2023-07-18T08:34:29Z</time>
      </trkpt>
      <trkpt lat="47.27784" lon="0.42488">
        <ele>77.6</ele>
        <time>2023-07-18T08:34:30Z</time>
      </trkpt>
      <trkpt lat="47.27789" lon="0.42491">
        <ele>77.8</ele>
        <time>2023-07-18T08:34:31Z</time>
      </trkpt>
      <trkpt lat="47.27793" lon="0.42493">
        <ele>78</ele>
        <time>2023-07-18T08:34:32Z</time>
      </trkpt>
      <trkpt lat="47.27797" lon="0.42495">
        <ele>78</ele>
        <time>2023-07-18T08:34:33Z</time>
      </trkpt>
      <trkpt lat="47.27802" lon="0.42497">
        <ele>78.4</ele>
        <time>2023-07-18T08:34:34Z</time>
      </trkpt>
      <trkpt lat="47.27806" lon="0.42499">
        <ele>78.6</ele>
        <time>2023-07-18T08:34:35Z</time>
      </trkpt>
      <trkpt lat="47.27811" lon="0.42501">
        <ele>78.8</ele>
        <time>2023-07-18T08:34:36Z</time>
      </trkpt>
      <trkpt lat="47.27815" lon="0.42503">
        <ele>79</ele>
        <time>2023-07-18T08:34:37Z</time>
      </trkpt>
      <trkpt lat="47.27819" lon="0.42506">
        <ele>79.2</ele>
        <time>2023-07-18T08:34:38Z</time>
      </trkpt>
      <trkpt lat="47.27823" lon="0.42508">
        <ele>79.6</ele>
        <time>2023-07-18T08:34:39Z</time>
      </trkpt>
      <trkpt lat="47.27827" lon="0.4251">
        <ele>79.8</ele>
        <time>2023-07-18T08:34:40Z</time>
      </trkpt>
      <trkpt lat="47.27832" lon="0.42512">
        <ele>80</ele>
        <time>2023-07-18T08:34:41Z</time>
      </trkpt>
      <trkpt lat="47.27836" lon="0.42513">
        <ele>80.2</ele>
        <time>2023-07-18T08:34:42Z</time>
      </trkpt>
      <trkpt lat="47.2784" lon="0.42515">
        <ele>80.4</ele>
        <time>2023-07-18T08:34:43Z</time>
      </trkpt>
      <trkpt lat="47.27844" lon="0.42517">
        <ele>80.6</ele>
        <time>2023-07-18T08:34:44Z</time>
      </trkpt>
      <trkpt lat="47.27848" lon="0.4252">
        <ele>80.8</ele>
        <time>2023-07-18T08:34:45Z</time>
      </trkpt>
      <trkpt lat="47.27852" lon="0.42522">
        <ele>81.2</ele>
        <time>2023-07-18T08:34:46Z</time>
      </trkpt>
      <trkpt lat="47.27856" lon="0.42524">
        <ele>81.4</ele>
        <time>2023-07-18T08:34:47Z</time>
      </trkpt>
      <trkpt lat="47.27861" lon="0.42526">
        <ele>81.6</ele>
        <time>2023-07-18T08:34:48Z</time>
      </trkpt>
      <trkpt lat="47.27865" lon="0.42528">
        <ele>81.6</ele>
        <time>2023-07-18T08:34:49Z</time>
      </trkpt>
      <trkpt lat="47.27869" lon="0.42529">
        <ele>81.8</ele>
        <time>2023-07-18T08:34:50Z</time>
      </trkpt>
      <trkpt lat="47.27873" lon="0.42532">
        <ele>82</ele>
        <time>2023-07-18T08:34:51Z</time>
      </trkpt>
      <trkpt lat="47.27877" lon="0.42534">
        <ele>82.4</ele>
        <time>2023-07-18T08:34:52Z</time>
      </trkpt>
      <trkpt lat="47.27881" lon="0.42536">
        <ele>82.6</ele>
        <time>2023-07-18T08:34:53Z</time>
      </trkpt>
      <trkpt lat="47.27885" lon="0.42537">
        <ele>82.8</ele>
        <time>2023-07-18T08:34:54Z</time>
      </trkpt>
      <trkpt lat="47.2789" lon="0.42539">
        <ele>82.8</ele>
        <time>2023-07-18T08:34:55Z</time>
      </trkpt>
      <trkpt lat="47.27894" lon="0.42541">
        <ele>83</ele>
        <time>2023-07-18T08:34:56Z</time>
      </trkpt>
      <trkpt lat="47.27898" lon="0.42543">
        <ele>83.2</ele>
        <time>2023-07-18T08:34:57Z</time>
      </trkpt>
      <trkpt lat="47.27902" lon="0.42544">
        <ele>83.4</ele>
        <time>2023-07-18T08:34:58Z</time>
      </trkpt>
      <trkpt lat="47.27906" lon="0.42546">
        <ele>83.6</ele>
        <time>2023-07-18T08:34:59Z</time>
      </trkpt>
      <trkpt lat="47.2791" lon="0.42547">
        <ele>83.8</ele>
        <time>2023-07-18T08:35:00Z</time>
      </trkpt>
      <trkpt lat="47.27914" lon="0.42549">
        <ele>84.2</ele>
        <time>2023-07-18T08:35:01Z</time>
      </trkpt>
      <trkpt lat="47.27917" lon="0.4255">
        <ele>84.4</ele>
        <time>2023-07-18T08:35:02Z</time>
      </trkpt>
      <trkpt lat="47.27922" lon="0.42552">
        <ele>84.6</ele>
        <time>2023-07-18T08:35:03Z</time>
      </trkpt>
      <trkpt lat="47.27925" lon="0.42553">
        <ele>84.8</ele>
        <time>2023-07-18T08:35:04Z</time>
      </trkpt>
      <trkpt lat="47.27929" lon="0.42554">
        <ele>85</ele>
        <time>2023-07-18T08:35:05Z</time>
      </trkpt>
      <trkpt lat="47.27934" lon="0.42555">
        <ele>85.4</ele>
        <time>2023-07-18T08:35:06Z</time>
      </trkpt>
      <trkpt lat="47.27937" lon="0.42556">
        <ele>85.6</ele>
        <time>2023-07-18T08:35:07Z</time>
      </trkpt>
      <trkpt lat="47.27941" lon="0.42556">
        <ele>85.8</ele>
        <time>2023-07-18T08:35:08Z</time>
      </trkpt>
      <trkpt lat="47.27946" lon="0.42556">
        <ele>86</ele>
        <time>2023-07-18T08:35:09Z</time>
      </trkpt>
      <trkpt lat="47.2795" lon="0.42556">
        <ele>86.2</ele>
        <time>2023-07-18T08:35:10Z</time>
      </trkpt>
      <trkpt lat="47.27955" lon="0.42556">
        <ele>86.4</ele>
        <time>2023-07-18T08:35:11Z</time>
      </trkpt>
      <trkpt lat="47.27959" lon="0.42556">
        <ele>86.6</ele>
        <time>2023-07-18T08:35:12Z</time>
      </trkpt>
      <trkpt lat="47.27963" lon="0.42556">
        <ele>86.8</ele>
        <time>2023-07-18T08:35:13Z</time>
      </trkpt>
      <trkpt lat="47.27968" lon="0.42555">
        <ele>87.2</ele>
        <time>2023-07-18T08:35:14Z</time>
      </trkpt>
      <trkpt lat="47.27972" lon="0.42554">
        <ele>87.6</ele>
        <time>2023-07-18T08:35:15Z</time>
      </trkpt>
      <trkpt lat="47.27976" lon="0.42553">
        <ele>87.8</ele>
        <time>2023-07-18T08:35:16Z</time>
      </trkpt>
      <trkpt lat="47.2798" lon="0.42551">
        <ele>88</ele>
        <time>2023-07-18T08:35:17Z</time>
      </trkpt>
      <trkpt lat="47.27984" lon="0.42549">
        <ele>88.2</ele>
        <time>2023-07-18T08:35:18Z</time>
      </trkpt>
      <trkpt lat="47.27988" lon="0.42548">
        <ele>88.4</ele>
        <time>2023-07-18T08:35:19Z</time>
      </trkpt>
      <trkpt lat="47.27992" lon="0.42546">
        <ele>88.6</ele>
        <time>2023-07-18T08:35:20Z</time>
      </trkpt>
      <trkpt lat="47.27996" lon="0.42545">
        <ele>88.8</ele>
        <time>2023-07-18T08:35:21Z</time>
      </trkpt>
      <trkpt lat="47.27999" lon="0.42544">
        <ele>89</ele>
        <time>2023-07-18T08:35:22Z</time>
      </trkpt>
      <trkpt lat="47.28003" lon="0.42543">
        <ele>89.2</ele>
        <time>2023-07-18T08:35:23Z</time>
      </trkpt>
      <trkpt lat="47.28008" lon="0.42541">
        <ele>89.4</ele>
        <time>2023-07-18T08:35:24Z</time>
      </trkpt>
      <trkpt lat="47.28011" lon="0.4254">
        <ele>89.6</ele>
        <time>2023-07-18T08:35:25Z</time>
      </trkpt>
      <trkpt lat="47.28015" lon="0.42539">
        <ele>90</ele>
        <time>2023-07-18T08:35:26Z</time>
      </trkpt>
      <trkpt lat="47.28019" lon="0.42537">
        <ele>90.2</ele>
        <time>2023-07-18T08:35:27Z</time>
      </trkpt>
      <trkpt lat="47.28023" lon="0.42536">
        <ele>90.4</ele>
        <time>2023-07-18T08:35:28Z</time>
      </trkpt>
      <trkpt lat="47.28027" lon="0.42535">
        <ele>90.6</ele>
        <time>2023-07-18T08:35:29Z</time>
      </trkpt>
      <trkpt lat="47.28031" lon="0.42533">
        <ele>90.8</ele>
        <time>2023-07-18T08:35:30Z</time>
      </trkpt>
      <trkpt lat="47.28034" lon="0.42531">
        <ele>91</ele>
        <time>2023-07-18T08:35:31Z</time>
      </trkpt>
      <trkpt lat="47.28038" lon="0.4253">
        <ele>91.2</ele>
        <time>2023-07-18T08:35:32Z</time>
      </trkpt>
      <trkpt lat="47.28043" lon="0.42528">
        <ele>91.4</ele>
        <time>2023-07-18T08:35:33Z</time>
      </trkpt>
      <trkpt lat="47.28047" lon="0.42526">
        <ele>91.6</ele>
        <time>2023-07-18T08:35:34Z</time>
      </trkpt>
      <trkpt lat="47.28051" lon="0.42525">
        <ele>91.8</ele>
        <time>2023-07-18T08:35:35Z</time>
      </trkpt>
      <trkpt lat="47.28056" lon="0.42523">
        <ele>92</ele>
        <time>2023-07-18T08:35:36Z</time>
      </trkpt>
      <trkpt lat="47.2806" lon="0.42522">
        <ele>92.4</ele>
        <time>2023-07-18T08:35:37Z</time>
      </trkpt>
      <trkpt lat="47.28065" lon="0.4252">
        <ele>92.6</ele>
        <time>2023-07-18T08:35:38Z</time>
      </trkpt>
      <trkpt lat="47.28069" lon="0.42518">
        <ele>92.8</ele>
        <time>2023-07-18T08:35:39Z</time>
      </trkpt>
      <trkpt lat="47.28074" lon="0.42516">
        <ele>93</ele>
        <time>2023-07-18T08:35:40Z</time>
      </trkpt>
      <trkpt lat="47.28079" lon="0.42515">
        <ele>93.2</ele>
        <time>2023-07-18T08:35:41Z</time>
      </trkpt>
      <trkpt lat="47.28084" lon="0.42513">
        <ele>93.4</ele>
        <time>2023-07-18T08:35:42Z</time>
      </trkpt>
      <trkpt lat="47.28088" lon="0.42511">
        <ele>93.6</ele>
        <time>2023-07-18T08:35:43Z</time>
      </trkpt>
      <trkpt lat="47.28093" lon="0.42509">
        <ele>93.8</ele>
        <time>2023-07-18T08:35:44Z</time>
      </trkpt>
      <trkpt lat="47.28099" lon="0.42507">
        <ele>94</ele>
        <time>2023-07-18T08:35:45Z</time>
      </trkpt>
      <trkpt lat="47.28103" lon="0.42505">
        <ele>94.2</ele>
        <time>2023-07-18T08:35:46Z</time>
      </trkpt>
      <trkpt lat="47.28108" lon="0.42503">
        <ele>94.2</ele>
        <time>2023-07-18T08:35:47Z</time>
      </trkpt>
      <trkpt lat="47.28113" lon="0.42502">
        <ele>94.4</ele>
        <time>2023-07-18T08:35:48Z</time>
      </trkpt>
      <trkpt lat="47.28118" lon="0.425">
        <ele>94.6</ele>
        <time>2023-07-18T08:35:49Z</time>
      </trkpt>
      <trkpt lat="47.28122" lon="0.42498">
        <ele>94.8</ele>
        <time>2023-07-18T08:35:50Z</time>
      </trkpt>
      <trkpt lat="47.28127" lon="0.42496">
        <ele>95</ele>
        <time>2023-07-18T08:35:51Z</time>
      </trkpt>
      <trkpt lat="47.28132" lon="0.42494">
        <ele>95.2</ele>
        <time>2023-07-18T08:35:52Z</time>
      </trkpt>
      <trkpt lat="47.28137" lon="0.42492">
        <ele>95.2</ele>
        <time>2023-07-18T08:35:53Z</time>
      </trkpt>
      <trkpt lat="47.28142" lon="0.42491">
        <ele>95.4</ele>
        <time>2023-07-18T08:35:54Z</time>
      </trkpt>
      <trkpt lat="47.28147" lon="0.4249">
        <ele>95.6</ele>
        <time>2023-07-18T08:35:55Z</time>
      </trkpt>
      <trkpt lat="47.28151" lon="0.42488">
        <ele>95.8</ele>
        <time>2023-07-18T08:35:56Z</time>
      </trkpt>
      <trkpt lat="47.28157" lon="0.42486">
        <ele>95.8</ele>
        <time>2023-07-18T08:35:57Z</time>
      </trkpt>
      <trkpt lat="47.28161" lon="0.42484">
        <ele>96</ele>
        <time>2023-07-18T08:35:58Z</time>
      </trkpt>
      <trkpt lat="47.28166" lon="0.42482">
        <ele>96.2</ele>
        <time>2023-07-18T08:35:59Z</time>
      </trkpt>
      <trkpt lat="47.28171" lon="0.4248">
        <ele>96.2</ele>
        <time>2023-07-18T08:36:00Z</time>
      </trkpt>
      <trkpt lat="47.28176" lon="0.42478">
        <ele>96.4</ele>
        <time>2023-07-18T08:36:01Z</time>
      </trkpt>
      <trkpt lat="47.28181" lon="0.42476">
        <ele>96.4</ele>
        <time>2023-07-18T08:36:02Z</time>
      </trkpt>
      <trkpt lat="47.28186" lon="0.42475">
        <ele>96.4</ele>
        <time>2023-07-18T08:36:03Z</time>
      </trkpt>
      <trkpt lat="47.28191" lon="0.42473">
        <ele>96.4</ele>
        <time>2023-07-18T08:36:04Z</time>
      </trkpt>
      <trkpt lat="47.28196" lon="0.42471">
        <ele>96.4</ele>
        <time>2023-07-18T08:36:05Z</time>
      </trkpt>
      <trkpt lat="47.28201" lon="0.42469">
        <ele>96.4</ele>
        <time>2023-07-18T08:36:06Z</time>
      </trkpt>
      <trkpt lat="47.28206" lon="0.42467">
        <ele>96.2</ele>
        <time>2023-07-18T08:36:07Z</time>
      </trkpt>
      <trkpt lat="47.28212" lon="0.42465">
        <ele>96.2</ele>
        <time>2023-07-18T08:36:08Z</time>
      </trkpt>
      <trkpt lat="47.28217" lon="0.42463">
        <ele>96.2</ele>
        <time>2023-07-18T08:36:09Z</time>
      </trkpt>
      <trkpt lat="47.28223" lon="0.4246">
        <ele>96.4</ele>
        <time>2023-07-18T08:36:10Z</time>
      </trkpt>
      <trkpt lat="47.2823" lon="0.42458">
        <ele>96.4</ele>
        <time>2023-07-18T08:36:11Z</time>
      </trkpt>
      <trkpt lat="47.28235" lon="0.42456">
        <ele>96.2</ele>
        <time>2023-07-18T08:36:12Z</time>
      </trkpt>
      <trkpt lat="47.28241" lon="0.42453">
        <ele>96.2</ele>
        <time>2023-07-18T08:36:13Z</time>
      </trkpt>
      <trkpt lat="47.28248" lon="0.42451">
        <ele>96.2</ele>
        <time>2023-07-18T08:36:14Z</time>
      </trkpt>
      <trkpt lat="47.28254" lon="0.42448">
        <ele>96.2</ele>
        <time>2023-07-18T08:36:15Z</time>
      </trkpt>
      <trkpt lat="47.2826" lon="0.42446">
        <ele>96.2</ele>
        <time>2023-07-18T08:36:16Z</time>
      </trkpt>
      <trkpt lat="47.28267" lon="0.42444">
        <ele>96.2</ele>
        <time>2023-07-18T08:36:17Z</time>
      </trkpt>
      <trkpt lat="47.28273" lon="0.42441">
        <ele>96.2</ele>
        <time>2023-07-18T08:36:18Z</time>
      </trkpt>
      <trkpt lat="47.2828" lon="0.42439">
        <ele>96.2</ele>
        <time>2023-07-18T08:36:19Z</time>
      </trkpt>
      <trkpt lat="47.28286" lon="0.42437">
        <ele>96</ele>
        <time>2023-07-18T08:36:20Z</time>
      </trkpt>
      <trkpt lat="47.28292" lon="0.42435">
        <ele>96</ele>
        <time>2023-07-18T08:36:21Z</time>
      </trkpt>
      <trkpt lat="47.28299" lon="0.42432">
        <ele>96</ele>
        <time>2023-07-18T08:36:22Z</time>
      </trkpt>
      <trkpt lat="47.28305" lon="0.4243">
        <ele>96</ele>
        <time>2023-07-18T08:36:23Z</time>
      </trkpt>
      <trkpt lat="47.28311" lon="0.42428">
        <ele>96</ele>
        <time>2023-07-18T08:36:24Z</time>
      </trkpt>
      <trkpt lat="47.28317" lon="0.42426">
        <ele>96</ele>
        <time>2023-07-18T08:36:25Z</time>
      </trkpt>
      <trkpt lat="47.28323" lon="0.42423">
        <ele>96</ele>
        <time>2023-07-18T08:36:26Z</time>
      </trkpt>
      <trkpt lat="47.2833" lon="0.42421">
        <ele>96</ele>
        <time>2023-07-18T08:36:27Z</time>
      </trkpt>
      <trkpt lat="47.28337" lon="0.42418">
        <ele>96.2</ele>
        <time>2023-07-18T08:36:28Z</time>
      </trkpt>
      <trkpt lat="47.28343" lon="0.42416">
        <ele>96</ele>
        <time>2023-07-18T08:36:29Z</time>
      </trkpt>
      <trkpt lat="47.28349" lon="0.42414">
        <ele>96.2</ele>
        <time>2023-07-18T08:36:30Z</time>
      </trkpt>
      <trkpt lat="47.28356" lon="0.42411">
        <ele>96</ele>
        <time>2023-07-18T08:36:31Z</time>
      </trkpt>
      <trkpt lat="47.28362" lon="0.42409">
        <ele>96</ele>
        <time>2023-07-18T08:36:32Z</time>
      </trkpt>
      <trkpt lat="47.28369" lon="0.42406">
        <ele>96</ele>
        <time>2023-07-18T08:36:33Z</time>
      </trkpt>
      <trkpt lat="47.28375" lon="0.42404">
        <ele>96</ele>
        <time>2023-07-18T08:36:34Z</time>
      </trkpt>
      <trkpt lat="47.28382" lon="0.42402">
        <ele>96</ele>
        <time>2023-07-18T08:36:35Z</time>
      </trkpt>
      <trkpt lat="47.28389" lon="0.42399">
        <ele>96.2</ele>
        <time>2023-07-18T08:36:36Z</time>
      </trkpt>
      <trkpt lat="47.28395" lon="0.42396">
        <ele>96.4</ele>
        <time>2023-07-18T08:36:37Z</time>
      </trkpt>
      <trkpt lat="47.28402" lon="0.42394">
        <ele>96.4</ele>
        <time>2023-07-18T08:36:38Z</time>
      </trkpt>
      <trkpt lat="47.28408" lon="0.42391">
        <ele>96.2</ele>
        <time>2023-07-18T08:36:39Z</time>
      </trkpt>
      <trkpt lat="47.28415" lon="0.42389">
        <ele>96.2</ele>
        <time>2023-07-18T08:36:40Z</time>
      </trkpt>
      <trkpt lat="47.28423" lon="0.42386">
        <ele>96.2</ele>
        <time>2023-07-18T08:36:41Z</time>
      </trkpt>
      <trkpt lat="47.28429" lon="0.42383">
        <ele>96.2</ele>
        <time>2023-07-18T08:36:42Z</time>
      </trkpt>
      <trkpt lat="47.28436" lon="0.42381">
        <ele>96.2</ele>
        <time>2023-07-18T08:36:43Z</time>
      </trkpt>
      <trkpt lat="47.28443" lon="0.42378">
        <ele>96.2</ele>
        <time>2023-07-18T08:36:44Z</time>
      </trkpt>
      <trkpt lat="47.2845" lon="0.42375">
        <ele>96.2</ele>
        <time>2023-07-18T08:36:45Z</time>
      </trkpt>
      <trkpt lat="47.28458" lon="0.42373">
        <ele>96</ele>
        <time>2023-07-18T08:36:46Z</time>
      </trkpt>
      <trkpt lat="47.28465" lon="0.4237">
        <ele>96</ele>
        <time>2023-07-18T08:36:47Z</time>
      </trkpt>
      <trkpt lat="47.28472" lon="0.42367">
        <ele>96</ele>
        <time>2023-07-18T08:36:48Z</time>
      </trkpt>
      <trkpt lat="47.28479" lon="0.42365">
        <ele>96</ele>
        <time>2023-07-18T08:36:49Z</time>
      </trkpt>
      <trkpt lat="47.28487" lon="0.42362">
        <ele>96</ele>
        <time>2023-07-18T08:36:50Z</time>
      </trkpt>
      <trkpt lat="47.28493" lon="0.42359">
        <ele>95.8</ele>
        <time>2023-07-18T08:36:51Z</time>
      </trkpt>
      <trkpt lat="47.285" lon="0.42357">
        <ele>95.8</ele>
        <time>2023-07-18T08:36:52Z</time>
      </trkpt>
      <trkpt lat="47.28508" lon="0.42354">
        <ele>95.8</ele>
        <time>2023-07-18T08:36:53Z</time>
      </trkpt>
      <trkpt lat="47.28515" lon="0.42351">
        <ele>95.6</ele>
        <time>2023-07-18T08:36:54Z</time>
      </trkpt>
      <trkpt lat="47.28522" lon="0.42349">
        <ele>95.6</ele>
        <time>2023-07-18T08:36:55Z</time>
      </trkpt>
      <trkpt lat="47.28529" lon="0.42346">
        <ele>95.4</ele>
        <time>2023-07-18T08:36:56Z</time>
      </trkpt>
      <trkpt lat="47.28536" lon="0.42344">
        <ele>95.2</ele>
        <time>2023-07-18T08:36:57Z</time>
      </trkpt>
      <trkpt lat="47.28543" lon="0.42341">
        <ele>95</ele>
        <time>2023-07-18T08:36:58Z</time>
      </trkpt>
      <trkpt lat="47.28551" lon="0.42339">
        <ele>94.8</ele>
        <time>2023-07-18T08:36:59Z</time>
      </trkpt>
      <trkpt lat="47.28558" lon="0.42336">
        <ele>94.6</ele>
        <time>2023-07-18T08:37:00Z</time>
      </trkpt>
      <trkpt lat="47.28566" lon="0.42333">
        <ele>94.8</ele>
        <time>2023-07-18T08:37:01Z</time>
      </trkpt>
      <trkpt lat="47.28573" lon="0.42331">
        <ele>94.8</ele>
        <time>2023-07-18T08:37:02Z</time>
      </trkpt>
      <trkpt lat="47.2858" lon="0.42328">
        <ele>94.6</ele>
        <time>2023-07-18T08:37:03Z</time>
      </trkpt>
      <trkpt lat="47.28588" lon="0.42325">
        <ele>94.6</ele>
        <time>2023-07-18T08:37:04Z</time>
      </trkpt>
      <trkpt lat="47.28596" lon="0.42322">
        <ele>94.6</ele>
        <time>2023-07-18T08:37:05Z</time>
      </trkpt>
      <trkpt lat="47.28605" lon="0.42319">
        <ele>94.4</ele>
        <time>2023-07-18T08:37:06Z</time>
      </trkpt>
      <trkpt lat="47.28613" lon="0.42316">
        <ele>94.4</ele>
        <time>2023-07-18T08:37:07Z</time>
      </trkpt>
      <trkpt lat="47.28621" lon="0.42313">
        <ele>94.2</ele>
        <time>2023-07-18T08:37:08Z</time>
      </trkpt>
      <trkpt lat="47.28629" lon="0.4231">
        <ele>94</ele>
        <time>2023-07-18T08:37:09Z</time>
      </trkpt>
      <trkpt lat="47.28637" lon="0.42307">
        <ele>94.2</ele>
        <time>2023-07-18T08:37:10Z</time>
      </trkpt>
      <trkpt lat="47.28645" lon="0.42304">
        <ele>94.2</ele>
        <time>2023-07-18T08:37:11Z</time>
      </trkpt>
      <trkpt lat="47.28652" lon="0.42301">
        <ele>94</ele>
        <time>2023-07-18T08:37:12Z</time>
      </trkpt>
      <trkpt lat="47.2866" lon="0.42298">
        <ele>94</ele>
        <time>2023-07-18T08:37:13Z</time>
      </trkpt>
      <trkpt lat="47.28667" lon="0.42296">
        <ele>94.2</ele>
        <time>2023-07-18T08:37:14Z</time>
      </trkpt>
      <trkpt lat="47.28674" lon="0.42293">
        <ele>94.2</ele>
        <time>2023-07-18T08:37:15Z</time>
      </trkpt>
      <trkpt lat="47.28682" lon="0.4229">
        <ele>94.4</ele>
        <time>2023-07-18T08:37:16Z</time>
      </trkpt>
      <trkpt lat="47.2869" lon="0.42287">
        <ele>94.6</ele>
        <time>2023-07-18T08:37:17Z</time>
      </trkpt>
      <trkpt lat="47.28696" lon="0.42285">
        <ele>94.8</ele>
        <time>2023-07-18T08:37:18Z</time>
      </trkpt>
      <trkpt lat="47.28704" lon="0.42282">
        <ele>95</ele>
        <time>2023-07-18T08:37:19Z</time>
      </trkpt>
      <trkpt lat="47.28711" lon="0.42279">
        <ele>95</ele>
        <time>2023-07-18T08:37:20Z</time>
      </trkpt>
      <trkpt lat="47.28717" lon="0.42277">
        <ele>95.2</ele>
        <time>2023-07-18T08:37:21Z</time>
      </trkpt>
      <trkpt lat="47.28725" lon="0.42274">
        <ele>95.4</ele>
        <time>2023-07-18T08:37:22Z</time>
      </trkpt>
      <trkpt lat="47.28732" lon="0.42272">
        <ele>95.8</ele>
        <time>2023-07-18T08:37:23Z</time>
      </trkpt>
      <trkpt lat="47.28739" lon="0.42269">
        <ele>96</ele>
        <time>2023-07-18T08:37:24Z</time>
      </trkpt>
      <trkpt lat="47.28746" lon="0.42267">
        <ele>96.2</ele>
        <time>2023-07-18T08:37:25Z</time>
      </trkpt>
      <trkpt lat="47.28753" lon="0.42264">
        <ele>96.4</ele>
        <time>2023-07-18T08:37:26Z</time>
      </trkpt>
      <trkpt lat="47.28759" lon="0.42261">
        <ele>96.6</ele>
        <time>2023-07-18T08:37:27Z</time>
      </trkpt>
      <trkpt lat="47.28766" lon="0.42258">
        <ele>96.8</ele>
        <time>2023-07-18T08:37:28Z</time>
      </trkpt>
      <trkpt lat="47.28773" lon="0.42256">
        <ele>97.2</ele>
        <time>2023-07-18T08:37:29Z</time>
      </trkpt>
      <trkpt lat="47.2878" lon="0.42253">
        <ele>97.2</ele>
        <time>2023-07-18T08:37:30Z</time>
      </trkpt>
      <trkpt lat="47.28786" lon="0.42251">
        <ele>97.4</ele>
        <time>2023-07-18T08:37:31Z</time>
      </trkpt>
      <trkpt lat="47.28793" lon="0.42248">
        <ele>97.4</ele>
        <time>2023-07-18T08:37:32Z</time>
      </trkpt>
      <trkpt lat="47.288" lon="0.42246">
        <ele>97.4</ele>
        <time>2023-07-18T08:37:33Z</time>
      </trkpt>
      <trkpt lat="47.28807" lon="0.42244">
        <ele>97.4</ele>
        <time>2023-07-18T08:37:34Z</time>
      </trkpt>
      <trkpt lat="47.28813" lon="0.42241">
        <ele>97.4</ele>
        <time>2023-07-18T08:37:35Z</time>
      </trkpt>
      <trkpt lat="47.2882" lon="0.42238">
        <ele>97.4</ele>
        <time>2023-07-18T08:37:36Z</time>
      </trkpt>
      <trkpt lat="47.28827" lon="0.42236">
        <ele>97.6</ele>
        <time>2023-07-18T08:37:37Z</time>
      </trkpt>
      <trkpt lat="47.28833" lon="0.42233">
        <ele>97.6</ele>
        <time>2023-07-18T08:37:38Z</time>
      </trkpt>
      <trkpt lat="47.2884" lon="0.42231">
        <ele>97.6</ele>
        <time>2023-07-18T08:37:39Z</time>
      </trkpt>
      <trkpt lat="47.28847" lon="0.42228">
        <ele>97.6</ele>
        <time>2023-07-18T08:37:40Z</time>
      </trkpt>
      <trkpt lat="47.28853" lon="0.42225">
        <ele>97.4</ele>
        <time>2023-07-18T08:37:41Z</time>
      </trkpt>
      <trkpt lat="47.2886" lon="0.42223">
        <ele>98.2</ele>
        <time>2023-07-18T08:37:42Z</time>
      </trkpt>
      <trkpt lat="47.28867" lon="0.4222">
        <ele>98.2</ele>
        <time>2023-07-18T08:37:43Z</time>
      </trkpt>
      <trkpt lat="47.28873" lon="0.42217">
        <ele>98</ele>
        <time>2023-07-18T08:37:44Z</time>
      </trkpt>
      <trkpt lat="47.2888" lon="0.42214">
        <ele>97.8</ele>
        <time>2023-07-18T08:37:45Z</time>
      </trkpt>
      <trkpt lat="47.28887" lon="0.42212">
        <ele>97.8</ele>
        <time>2023-07-18T08:37:46Z</time>
      </trkpt>
      <trkpt lat="47.28894" lon="0.42209">
        <ele>97.6</ele>
        <time>2023-07-18T08:37:47Z</time>
      </trkpt>
      <trkpt lat="47.28901" lon="0.42207">
        <ele>97.4</ele>
        <time>2023-07-18T08:37:48Z</time>
      </trkpt>
      <trkpt lat="47.28909" lon="0.42203">
        <ele>97.2</ele>
        <time>2023-07-18T08:37:49Z</time>
      </trkpt>
      <trkpt lat="47.28917" lon="0.42201">
        <ele>96.8</ele>
        <time>2023-07-18T08:37:50Z</time>
      </trkpt>
      <trkpt lat="47.28925" lon="0.42198">
        <ele>96.4</ele>
        <time>2023-07-18T08:37:51Z</time>
      </trkpt>
      <trkpt lat="47.28933" lon="0.42195">
        <ele>96</ele>
        <time>2023-07-18T08:37:52Z</time>
      </trkpt>
      <trkpt lat="47.28941" lon="0.42192">
        <ele>95.8</ele>
        <time>2023-07-18T08:37:53Z</time>
      </trkpt>
      <trkpt lat="47.28949" lon="0.42189">
        <ele>95.4</ele>
        <time>2023-07-18T08:37:54Z</time>
      </trkpt>
      <trkpt lat="47.28958" lon="0.42186">
        <ele>95.2</ele>
        <time>2023-07-18T08:37:55Z</time>
      </trkpt>
      <trkpt lat="47.28966" lon="0.42183">
        <ele>94.8</ele>
        <time>2023-07-18T08:37:56Z</time>
      </trkpt>
      <trkpt lat="47.28975" lon="0.42179">
        <ele>94.4</ele>
        <time>2023-07-18T08:37:57Z</time>
      </trkpt>
      <trkpt lat="47.28984" lon="0.42176">
        <ele>93.8</ele>
        <time>2023-07-18T08:37:58Z</time>
      </trkpt>
      <trkpt lat="47.28992" lon="0.42173">
        <ele>93.4</ele>
        <time>2023-07-18T08:37:59Z</time>
      </trkpt>
      <trkpt lat="47.29001" lon="0.42169">
        <ele>92.8</ele>
        <time>2023-07-18T08:38:00Z</time>
      </trkpt>
      <trkpt lat="47.2901" lon="0.42165">
        <ele>92.4</ele>
        <time>2023-07-18T08:38:01Z</time>
      </trkpt>
      <trkpt lat="47.29019" lon="0.4216">
        <ele>92</ele>
        <time>2023-07-18T08:38:02Z</time>
      </trkpt>
      <trkpt lat="47.29027" lon="0.42154">
        <ele>91.6</ele>
        <time>2023-07-18T08:38:03Z</time>
      </trkpt>
      <trkpt lat="47.29036" lon="0.42148">
        <ele>91</ele>
        <time>2023-07-18T08:38:04Z</time>
      </trkpt>
      <trkpt lat="47.29044" lon="0.42141">
        <ele>90.6</ele>
        <time>2023-07-18T08:38:05Z</time>
      </trkpt>
      <trkpt lat="47.29053" lon="0.42133">
        <ele>90.2</ele>
        <time>2023-07-18T08:38:06Z</time>
      </trkpt>
      <trkpt lat="47.29062" lon="0.42124">
        <ele>89.6</ele>
        <time>2023-07-18T08:38:07Z</time>
      </trkpt>
      <trkpt lat="47.2907" lon="0.42116">
        <ele>89.2</ele>
        <time>2023-07-18T08:38:08Z</time>
      </trkpt>
      <trkpt lat="47.29079" lon="0.42107">
        <ele>88.8</ele>
        <time>2023-07-18T08:38:09Z</time>
      </trkpt>
      <trkpt lat="47.29089" lon="0.42099">
        <ele>88.2</ele>
        <time>2023-07-18T08:38:10Z</time>
      </trkpt>
      <trkpt lat="47.29098" lon="0.4209">
        <ele>88</ele>
        <time>2023-07-18T08:38:11Z</time>
      </trkpt>
      <trkpt lat="47.29107" lon="0.42081">
        <ele>87.4</ele>
        <time>2023-07-18T08:38:12Z</time>
      </trkpt>
      <trkpt lat="47.29116" lon="0.42072">
        <ele>87.2</ele>
        <time>2023-07-18T08:38:13Z</time>
      </trkpt>
      <trkpt lat="47.29126" lon="0.42063">
        <ele>86.6</ele>
        <time>2023-07-18T08:38:14Z</time>
      </trkpt>
      <trkpt lat="47.29135" lon="0.42054">
        <ele>86.2</ele>
        <time>2023-07-18T08:38:15Z</time>
      </trkpt>
      <trkpt lat="47.29145" lon="0.42045">
        <ele>85.6</ele>
        <time>2023-07-18T08:38:16Z</time>
      </trkpt>
      <trkpt lat="47.29155" lon="0.42035">
        <ele>85.2</ele>
        <time>2023-07-18T08:38:17Z</time>
      </trkpt>
      <trkpt lat="47.29165" lon="0.42026">
        <ele>84.8</ele>
        <time>2023-07-18T08:38:18Z</time>
      </trkpt>
      <trkpt lat="47.29175" lon="0.42016">
        <ele>84.6</ele>
        <time>2023-07-18T08:38:19Z</time>
      </trkpt>
      <trkpt lat="47.29184" lon="0.42007">
        <ele>84.2</ele>
        <time>2023-07-18T08:38:20Z</time>
      </trkpt>
      <trkpt lat="47.29194" lon="0.41997">
        <ele>83.6</ele>
        <time>2023-07-18T08:38:21Z</time>
      </trkpt>
      <trkpt lat="47.29204" lon="0.41988">
        <ele>83.2</ele>
        <time>2023-07-18T08:38:22Z</time>
      </trkpt>
      <trkpt lat="47.29214" lon="0.41978">
        <ele>82.8</ele>
        <time>2023-07-18T08:38:23Z</time>
      </trkpt>
      <trkpt lat="47.29224" lon="0.41969">
        <ele>82.6</ele>
        <time>2023-07-18T08:38:24Z</time>
      </trkpt>
      <trkpt lat="47.29234" lon="0.4196">
        <ele>82</ele>
        <time>2023-07-18T08:38:25Z</time>
      </trkpt>
      <trkpt lat="47.29243" lon="0.41951">
        <ele>81.8</ele>
        <time>2023-07-18T08:38:26Z</time>
      </trkpt>
      <trkpt lat="47.29252" lon="0.41942">
        <ele>81.6</ele>
        <time>2023-07-18T08:38:27Z</time>
      </trkpt>
      <trkpt lat="47.29261" lon="0.41933">
        <ele>80.8</ele>
        <time>2023-07-18T08:38:28Z</time>
      </trkpt>
      <trkpt lat="47.29271" lon="0.41923">
        <ele>80</ele>
        <time>2023-07-18T08:38:29Z</time>
      </trkpt>
      <trkpt lat="47.2928" lon="0.41914">
        <ele>79</ele>
        <time>2023-07-18T08:38:30Z</time>
      </trkpt>
      <trkpt lat="47.29289" lon="0.41906">
        <ele>78.2</ele>
        <time>2023-07-18T08:38:31Z</time>
      </trkpt>
      <trkpt lat="47.29298" lon="0.41897">
        <ele>77.2</ele>
        <time>2023-07-18T08:38:32Z</time>
      </trkpt>
      <trkpt lat="47.29308" lon="0.41888">
        <ele>76.2</ele>
        <time>2023-07-18T08:38:33Z</time>
      </trkpt>
      <trkpt lat="47.29316" lon="0.41879">
        <ele>75.6</ele>
        <time>2023-07-18T08:38:34Z</time>
      </trkpt>
      <trkpt lat="47.29325" lon="0.4187">
        <ele>75.2</ele>
        <time>2023-07-18T08:38:35Z</time>
      </trkpt>
      <trkpt lat="47.29334" lon="0.4186">
        <ele>74.6</ele>
        <time>2023-07-18T08:38:36Z</time>
      </trkpt>
      <trkpt lat="47.29344" lon="0.41851">
        <ele>74</ele>
        <time>2023-07-18T08:38:37Z</time>
      </trkpt>
      <trkpt lat="47.29354" lon="0.41843">
        <ele>73.2</ele>
        <time>2023-07-18T08:38:38Z</time>
      </trkpt>
      <trkpt lat="47.29363" lon="0.41834">
        <ele>72.8</ele>
        <time>2023-07-18T08:38:39Z</time>
      </trkpt>
      <trkpt lat="47.29373" lon="0.41825">
        <ele>72.4</ele>
        <time>2023-07-18T08:38:40Z</time>
      </trkpt>
      <trkpt lat="47.29383" lon="0.41819">
        <ele>72</ele>
        <time>2023-07-18T08:38:41Z</time>
      </trkpt>
      <trkpt lat="47.29394" lon="0.41813">
        <ele>71.6</ele>
        <time>2023-07-18T08:38:42Z</time>
      </trkpt>
      <trkpt lat="47.29405" lon="0.41808">
        <ele>71</ele>
        <time>2023-07-18T08:38:43Z</time>
      </trkpt>
      <trkpt lat="47.29415" lon="0.41803">
        <ele>70.6</ele>
        <time>2023-07-18T08:38:44Z</time>
      </trkpt>
      <trkpt lat="47.29427" lon="0.41798">
        <ele>70.2</ele>
        <time>2023-07-18T08:38:45Z</time>
      </trkpt>
      <trkpt lat="47.29438" lon="0.41794">
        <ele>70</ele>
        <time>2023-07-18T08:38:46Z</time>
      </trkpt>
      <trkpt lat="47.29449" lon="0.41789">
        <ele>69.6</ele>
        <time>2023-07-18T08:38:47Z</time>
      </trkpt>
      <trkpt lat="47.2946" lon="0.41785">
        <ele>69.2</ele>
        <time>2023-07-18T08:38:48Z</time>
      </trkpt>
      <trkpt lat="47.2947" lon="0.41781">
        <ele>68.8</ele>
        <time>2023-07-18T08:38:49Z</time>
      </trkpt>
      <trkpt lat="47.29478" lon="0.41778">
        <ele>68.4</ele>
        <time>2023-07-18T08:38:50Z</time>
      </trkpt>
      <trkpt lat="47.29491" lon="0.41772">
        <ele>68</ele>
        <time>2023-07-18T08:38:51Z</time>
      </trkpt>
      <trkpt lat="47.29501" lon="0.41768">
        <ele>67.2</ele>
        <time>2023-07-18T08:38:52Z</time>
      </trkpt>
      <trkpt lat="47.29511" lon="0.41763">
        <ele>66.4</ele>
        <time>2023-07-18T08:38:53Z</time>
      </trkpt>
      <trkpt lat="47.29522" lon="0.41759">
        <ele>65.8</ele>
        <time>2023-07-18T08:38:54Z</time>
      </trkpt>
      <trkpt lat="47.29531" lon="0.41754">
        <ele>65.2</ele>
        <time>2023-07-18T08:38:55Z</time>
      </trkpt>
      <trkpt lat="47.29542" lon="0.4175">
        <ele>64.8</ele>
        <time>2023-07-18T08:38:56Z</time>
      </trkpt>
      <trkpt lat="47.29552" lon="0.41746">
        <ele>64.2</ele>
        <time>2023-07-18T08:38:57Z</time>
      </trkpt>
      <trkpt lat="47.29561" lon="0.41742">
        <ele>63.6</ele>
        <time>2023-07-18T08:38:58Z</time>
      </trkpt>
      <trkpt lat="47.2957" lon="0.41737">
        <ele>62.8</ele>
        <time>2023-07-18T08:38:59Z</time>
      </trkpt>
      <trkpt lat="47.2958" lon="0.41733">
        <ele>62.4</ele>
        <time>2023-07-18T08:39:00Z</time>
      </trkpt>
      <trkpt lat="47.29588" lon="0.41729">
        <ele>61.6</ele>
        <time>2023-07-18T08:39:01Z</time>
      </trkpt>
      <trkpt lat="47.29597" lon="0.41725">
        <ele>61</ele>
        <time>2023-07-18T08:39:02Z</time>
      </trkpt>
      <trkpt lat="47.29605" lon="0.41722">
        <ele>60.2</ele>
        <time>2023-07-18T08:39:03Z</time>
      </trkpt>
      <trkpt lat="47.29614" lon="0.41719">
        <ele>59.6</ele>
        <time>2023-07-18T08:39:04Z</time>
      </trkpt>
      <trkpt lat="47.29622" lon="0.41716">
        <ele>59.2</ele>
        <time>2023-07-18T08:39:05Z</time>
      </trkpt>
      <trkpt lat="47.29629" lon="0.41713">
        <ele>58.6</ele>
        <time>2023-07-18T08:39:06Z</time>
      </trkpt>
      <trkpt lat="47.29636" lon="0.4171">
        <ele>58.4</ele>
        <time>2023-07-18T08:39:07Z</time>
      </trkpt>
      <trkpt lat="47.29644" lon="0.41706">
        <ele>58.2</ele>
        <time>2023-07-18T08:39:08Z</time>
      </trkpt>
      <trkpt lat="47.2965" lon="0.41703">
        <ele>57.8</ele>
        <time>2023-07-18T08:39:09Z</time>
      </trkpt>
      <trkpt lat="47.29656" lon="0.41701">
        <ele>57.6</ele>
        <time>2023-07-18T08:39:10Z</time>
      </trkpt>
      <trkpt lat="47.29662" lon="0.41699">
        <ele>57.4</ele>
        <time>2023-07-18T08:39:11Z</time>
      </trkpt>
      <trkpt lat="47.29667" lon="0.41697">
        <ele>57.2</ele>
        <time>2023-07-18T08:39:12Z</time>
      </trkpt>
      <trkpt lat="47.29674" lon="0.41695">
        <ele>57</ele>
        <time>2023-07-18T08:39:13Z</time>
      </trkpt>
      <trkpt lat="47.29679" lon="0.41693">
        <ele>56.8</ele>
        <time>2023-07-18T08:39:14Z</time>
      </trkpt>
      <trkpt lat="47.29684" lon="0.4169">
        <ele>56.6</ele>
        <time>2023-07-18T08:39:15Z</time>
      </trkpt>
      <trkpt lat="47.29689" lon="0.41688">
        <ele>56.4</ele>
        <time>2023-07-18T08:39:16Z</time>
      </trkpt>
      <trkpt lat="47.29694" lon="0.41685">
        <ele>56.4</ele>
        <time>2023-07-18T08:39:17Z</time>
      </trkpt>
      <trkpt lat="47.297" lon="0.41682">
        <ele>56.2</ele>
        <time>2023-07-18T08:39:18Z</time>
      </trkpt>
      <trkpt lat="47.29705" lon="0.4168">
        <ele>56</ele>
        <time>2023-07-18T08:39:19Z</time>
      </trkpt>
      <trkpt lat="47.29712" lon="0.41678">
        <ele>55.8</ele>
        <time>2023-07-18T08:39:20Z</time>
      </trkpt>
      <trkpt lat="47.29717" lon="0.41675">
        <ele>55.8</ele>
        <time>2023-07-18T08:39:21Z</time>
      </trkpt>
      <trkpt lat="47.29723" lon="0.41673">
        <ele>55.6</ele>
        <time>2023-07-18T08:39:22Z</time>
      </trkpt>
      <trkpt lat="47.29728" lon="0.41671">
        <ele>55.4</ele>
        <time>2023-07-18T08:39:23Z</time>
      </trkpt>
      <trkpt lat="47.29732" lon="0.41669">
        <ele>55.2</ele>
        <time>2023-07-18T08:39:24Z</time>
      </trkpt>
      <trkpt lat="47.29736" lon="0.41667">
        <ele>55</ele>
        <time>2023-07-18T08:39:25Z</time>
      </trkpt>
      <trkpt lat="47.2974" lon="0.41666">
        <ele>55</ele>
        <time>2023-07-18T08:39:26Z</time>
      </trkpt>
      <trkpt lat="47.29745" lon="0.41664">
        <ele>54.8</ele>
        <time>2023-07-18T08:39:27Z</time>
      </trkpt>
      <trkpt lat="47.29751" lon="0.41661">
        <ele>54.6</ele>
        <time>2023-07-18T08:39:28Z</time>
      </trkpt>
      <trkpt lat="47.29758" lon="0.41659">
        <ele>54.4</ele>
        <time>2023-07-18T08:39:29Z</time>
      </trkpt>
      <trkpt lat="47.29764" lon="0.41656">
        <ele>54</ele>
        <time>2023-07-18T08:39:30Z</time>
      </trkpt>
      <trkpt lat="47.29771" lon="0.41653">
        <ele>53.8</ele>
        <time>2023-07-18T08:39:31Z</time>
      </trkpt>
      <trkpt lat="47.29778" lon="0.4165">
        <ele>53.6</ele>
        <time>2023-07-18T08:39:32Z</time>
      </trkpt>
      <trkpt lat="47.29786" lon="0.41647">
        <ele>53.2</ele>
        <time>2023-07-18T08:39:33Z</time>
      </trkpt>
      <trkpt lat="47.29793" lon="0.41643">
        <ele>52.8</ele>
        <time>2023-07-18T08:39:34Z</time>
      </trkpt>
      <trkpt lat="47.29801" lon="0.4164">
        <ele>52.6</ele>
        <time>2023-07-18T08:39:35Z</time>
      </trkpt>
      <trkpt lat="47.2981" lon="0.41637">
        <ele>52.4</ele>
        <time>2023-07-18T08:39:36Z</time>
      </trkpt>
      <trkpt lat="47.29818" lon="0.41633">
        <ele>52</ele>
        <time>2023-07-18T08:39:37Z</time>
      </trkpt>
      <trkpt lat="47.29827" lon="0.4163">
        <ele>51.6</ele>
        <time>2023-07-18T08:39:38Z</time>
      </trkpt>
      <trkpt lat="47.29835" lon="0.41626">
        <ele>51.2</ele>
        <time>2023-07-18T08:39:39Z</time>
      </trkpt>
      <trkpt lat="47.29844" lon="0.41622">
        <ele>50.8</ele>
        <time>2023-07-18T08:39:40Z</time>
      </trkpt>
      <trkpt lat="47.29851" lon="0.41617">
        <ele>50.6</ele>
        <time>2023-07-18T08:39:41Z</time>
      </trkpt>
      <trkpt lat="47.2986" lon="0.41611">
        <ele>50.4</ele>
        <time>2023-07-18T08:39:42Z</time>
      </trkpt>
      <trkpt lat="47.29868" lon="0.41604">
        <ele>50</ele>
        <time>2023-07-18T08:39:43Z</time>
      </trkpt>
      <trkpt lat="47.29875" lon="0.41597">
        <ele>49.6</ele>
        <time>2023-07-18T08:39:44Z</time>
      </trkpt>
      <trkpt lat="47.29882" lon="0.4159">
        <ele>49.2</ele>
        <time>2023-07-18T08:39:45Z</time>
      </trkpt>
      <trkpt lat="47.2989" lon="0.41583">
        <ele>49.2</ele>
        <time>2023-07-18T08:39:46Z</time>
      </trkpt>
      <trkpt lat="47.29896" lon="0.41576">
        <ele>49</ele>
        <time>2023-07-18T08:39:47Z</time>
      </trkpt>
      <trkpt lat="47.29903" lon="0.41569">
        <ele>49</ele>
        <time>2023-07-18T08:39:48Z</time>
      </trkpt>
      <trkpt lat="47.29909" lon="0.41562">
        <ele>48.8</ele>
        <time>2023-07-18T08:39:49Z</time>
      </trkpt>
      <trkpt lat="47.29917" lon="0.41554">
        <ele>48.6</ele>
        <time>2023-07-18T08:39:50Z</time>
      </trkpt>
      <trkpt lat="47.29923" lon="0.41547">
        <ele>48.6</ele>
        <time>2023-07-18T08:39:51Z</time>
      </trkpt>
      <trkpt lat="47.2993" lon="0.4154">
        <ele>48.6</ele>
        <time>2023-07-18T08:39:52Z</time>
      </trkpt>
      <trkpt lat="47.29937" lon="0.41533">
        <ele>48.4</ele>
        <time>2023-07-18T08:39:53Z</time>
      </trkpt>
      <trkpt lat="47.29943" lon="0.41527">
        <ele>48.2</ele>
        <time>2023-07-18T08:39:54Z</time>
      </trkpt>
      <trkpt lat="47.2995" lon="0.4152">
        <ele>48.2</ele>
        <time>2023-07-18T08:39:55Z</time>
      </trkpt>
      <trkpt lat="47.29956" lon="0.41513">
        <ele>48.2</ele>
        <time>2023-07-18T08:39:56Z</time>
      </trkpt>
      <trkpt lat="47.29962" lon="0.41506">
        <ele>48</ele>
        <time>2023-07-18T08:39:57Z</time>
      </trkpt>
      <trkpt lat="47.29968" lon="0.415">
        <ele>48.2</ele>
        <time>2023-07-18T08:39:58Z</time>
      </trkpt>
      <trkpt lat="47.29974" lon="0.41493">
        <ele>48.2</ele>
        <time>2023-07-18T08:39:59Z</time>
      </trkpt>
      <trkpt lat="47.29979" lon="0.41488">
        <ele>48</ele>
        <time>2023-07-18T08:40:00Z</time>
      </trkpt>
      <trkpt lat="47.29985" lon="0.41482">
        <ele>47.8</ele>
        <time>2023-07-18T08:40:01Z</time>
      </trkpt>
      <trkpt lat="47.29992" lon="0.41475">
        <ele>47.8</ele>
        <time>2023-07-18T08:40:02Z</time>
      </trkpt>
      <trkpt lat="47.29999" lon="0.41468">
        <ele>47.6</ele>
        <time>2023-07-18T08:40:03Z</time>
      </trkpt>
      <trkpt lat="47.30006" lon="0.41462">
        <ele>47.6</ele>
        <time>2023-07-18T08:40:04Z</time>
      </trkpt>
      <trkpt lat="47.30012" lon="0.41455">
        <ele>47.4</ele>
        <time>2023-07-18T08:40:05Z</time>
      </trkpt>
      <trkpt lat="47.30017" lon="0.4145">
        <ele>47.4</ele>
        <time>2023-07-18T08:40:06Z</time>
      </trkpt>
      <trkpt lat="47.30023" lon="0.41444">
        <ele>47.4</ele>
        <time>2023-07-18T08:40:07Z</time>
      </trkpt>
      <trkpt lat="47.30031" lon="0.41436">
        <ele>47.4</ele>
        <time>2023-07-18T08:40:08Z</time>
      </trkpt>
      <trkpt lat="47.30037" lon="0.4143">
        <ele>47.2</ele>
        <time>2023-07-18T08:40:09Z</time>
      </trkpt>
      <trkpt lat="47.30043" lon="0.41424">
        <ele>47.2</ele>
        <time>2023-07-18T08:40:10Z</time>
      </trkpt>
      <trkpt lat="47.3005" lon="0.41417">
        <ele>47.2</ele>
        <time>2023-07-18T08:40:11Z</time>
      </trkpt>
      <trkpt lat="47.30056" lon="0.41411">
        <ele>47</ele>
        <time>2023-07-18T08:40:12Z</time>
      </trkpt>
      <trkpt lat="47.30062" lon="0.41405">
        <ele>47</ele>
        <time>2023-07-18T08:40:13Z</time>
      </trkpt>
      <trkpt lat="47.30069" lon="0.41399">
        <ele>46.8</ele>
        <time>2023-07-18T08:40:14Z</time>
      </trkpt>
      <trkpt lat="47.30075" lon="0.41394">
        <ele>46.8</ele>
        <time>2023-07-18T08:40:15Z</time>
      </trkpt>
      <trkpt lat="47.30082" lon="0.41389">
        <ele>47</ele>
        <time>2023-07-18T08:40:16Z</time>
      </trkpt>
      <trkpt lat="47.30089" lon="0.41385">
        <ele>46.8</ele>
        <time>2023-07-18T08:40:17Z</time>
      </trkpt>
      <trkpt lat="47.30096" lon="0.41382">
        <ele>46.8</ele>
        <time>2023-07-18T08:40:18Z</time>
      </trkpt>
      <trkpt lat="47.30101" lon="0.41381">
        <ele>46.8</ele>
        <time>2023-07-18T08:40:19Z</time>
      </trkpt>
      <trkpt lat="47.30107" lon="0.41381">
        <ele>46.6</ele>
        <time>2023-07-18T08:40:20Z</time>
      </trkpt>
      <trkpt lat="47.30112" lon="0.41382">
        <ele>46.4</ele>
        <time>2023-07-18T08:40:21Z</time>
      </trkpt>
      <trkpt lat="47.30115" lon="0.41382">
        <ele>46.4</ele>
        <time>2023-07-18T08:40:22Z</time>
      </trkpt>
      <trkpt lat="47.30117" lon="0.41383">
        <ele>46.2</ele>
        <time>2023-07-18T08:40:23Z</time>
      </trkpt>
      <trkpt lat="47.30118" lon="0.41382">
        <ele>46.2</ele>
        <time>2023-07-18T08:40:24Z</time>
      </trkpt>
      <trkpt lat="47.30119" lon="0.41379">
        <ele>46.2</ele>
        <time>2023-07-18T08:40:25Z</time>
      </trkpt>
      <trkpt lat="47.3012" lon="0.41376">
        <ele>46</ele>
        <time>2023-07-18T08:40:26Z</time>
      </trkpt>
      <trkpt lat="47.30122" lon="0.41374">
        <ele>46</ele>
        <time>2023-07-18T08:40:27Z</time>
      </trkpt>
      <trkpt lat="47.30125" lon="0.41373">
        <ele>46</ele>
        <time>2023-07-18T08:40:28Z</time>
      </trkpt>
      <trkpt lat="47.30129" lon="0.41372">
        <ele>46.2</ele>
        <time>2023-07-18T08:40:29Z</time>
      </trkpt>
      <trkpt lat="47.30134" lon="0.41371">
        <ele>46.2</ele>
        <time>2023-07-18T08:40:30Z</time>
      </trkpt>
      <trkpt lat="47.30139" lon="0.4137">
        <ele>46.2</ele>
        <time>2023-07-18T08:40:31Z</time>
      </trkpt>
      <trkpt lat="47.30144" lon="0.41368">
        <ele>46.2</ele>
        <time>2023-07-18T08:40:32Z</time>
      </trkpt>
      <trkpt lat="47.30149" lon="0.41367">
        <ele>46.4</ele>
        <time>2023-07-18T08:40:33Z</time>
      </trkpt>
      <trkpt lat="47.30155" lon="0.41366">
        <ele>46.2</ele>
        <time>2023-07-18T08:40:34Z</time>
      </trkpt>
      <trkpt lat="47.30162" lon="0.41364">
        <ele>46.2</ele>
        <time>2023-07-18T08:40:35Z</time>
      </trkpt>
      <trkpt lat="47.30168" lon="0.41363">
        <ele>46.4</ele>
        <time>2023-07-18T08:40:36Z</time>
      </trkpt>
      <trkpt lat="47.30174" lon="0.41361">
        <ele>46.6</ele>
        <time>2023-07-18T08:40:37Z</time>
      </trkpt>
      <trkpt lat="47.30182" lon="0.41359">
        <ele>46.6</ele>
        <time>2023-07-18T08:40:38Z</time>
      </trkpt>
      <trkpt lat="47.30188" lon="0.41357">
        <ele>46.8</ele>
        <time>2023-07-18T08:40:39Z</time>
      </trkpt>
      <trkpt lat="47.30195" lon="0.41356">
        <ele>46.8</ele>
        <time>2023-07-18T08:40:40Z</time>
      </trkpt>
      <trkpt lat="47.30201" lon="0.41354">
        <ele>47</ele>
        <time>2023-07-18T08:40:41Z</time>
      </trkpt>
      <trkpt lat="47.30207" lon="0.41353">
        <ele>47</ele>
        <time>2023-07-18T08:40:42Z</time>
      </trkpt>
      <trkpt lat="47.30214" lon="0.41351">
        <ele>47</ele>
        <time>2023-07-18T08:40:43Z</time>
      </trkpt>
      <trkpt lat="47.3022" lon="0.41349">
        <ele>46.8</ele>
        <time>2023-07-18T08:40:44Z</time>
      </trkpt>
      <trkpt lat="47.30227" lon="0.41348">
        <ele>46.8</ele>
        <time>2023-07-18T08:40:45Z</time>
      </trkpt>
      <trkpt lat="47.30233" lon="0.41346">
        <ele>47</ele>
        <time>2023-07-18T08:40:46Z</time>
      </trkpt>
      <trkpt lat="47.3024" lon="0.41344">
        <ele>46.8</ele>
        <time>2023-07-18T08:40:47Z</time>
      </trkpt>
      <trkpt lat="47.30246" lon="0.41343">
        <ele>46.8</ele>
        <time>2023-07-18T08:40:48Z</time>
      </trkpt>
      <trkpt lat="47.30254" lon="0.41341">
        <ele>47</ele>
        <time>2023-07-18T08:40:49Z</time>
      </trkpt>
      <trkpt lat="47.30262" lon="0.4134">
        <ele>47.2</ele>
        <time>2023-07-18T08:40:50Z</time>
      </trkpt>
      <trkpt lat="47.30269" lon="0.41338">
        <ele>47.2</ele>
        <time>2023-07-18T08:40:51Z</time>
      </trkpt>
      <trkpt lat="47.30276" lon="0.41337">
        <ele>47.2</ele>
        <time>2023-07-18T08:40:52Z</time>
      </trkpt>
      <trkpt lat="47.30284" lon="0.41335">
        <ele>47.2</ele>
        <time>2023-07-18T08:40:53Z</time>
      </trkpt>
      <trkpt lat="47.30291" lon="0.41333">
        <ele>47.2</ele>
        <time>2023-07-18T08:40:54Z</time>
      </trkpt>
      <trkpt lat="47.30298" lon="0.41331">
        <ele>47.4</ele>
        <time>2023-07-18T08:40:55Z</time>
      </trkpt>
      <trkpt lat="47.30305" lon="0.4133">
        <ele>47.4</ele>
        <time>2023-07-18T08:40:56Z</time>
      </trkpt>
      <trkpt lat="47.30313" lon="0.41329">
        <ele>47.4</ele>
        <time>2023-07-18T08:40:57Z</time>
      </trkpt>
      <trkpt lat="47.3032" lon="0.41327">
        <ele>47.4</ele>
        <time>2023-07-18T08:40:58Z</time>
      </trkpt>
      <trkpt lat="47.30328" lon="0.41325">
        <ele>47.4</ele>
        <time>2023-07-18T08:40:59Z</time>
      </trkpt>
      <trkpt lat="47.30335" lon="0.41323">
        <ele>47.4</ele>
        <time>2023-07-18T08:41:00Z</time>
      </trkpt>
      <trkpt lat="47.30342" lon="0.41321">
        <ele>47.6</ele>
        <time>2023-07-18T08:41:01Z</time>
      </trkpt>
      <trkpt lat="47.30349" lon="0.41319">
        <ele>47.4</ele>
        <time>2023-07-18T08:41:02Z</time>
      </trkpt>
      <trkpt lat="47.30355" lon="0.41317">
        <ele>47.4</ele>
        <time>2023-07-18T08:41:03Z</time>
      </trkpt>
      <trkpt lat="47.30363" lon="0.41315">
        <ele>47.4</ele>
        <time>2023-07-18T08:41:04Z</time>
      </trkpt>
      <trkpt lat="47.30371" lon="0.41312">
        <ele>47.2</ele>
        <time>2023-07-18T08:41:05Z</time>
      </trkpt>
      <trkpt lat="47.30378" lon="0.4131">
        <ele>47.2</ele>
        <time>2023-07-18T08:41:06Z</time>
      </trkpt>
      <trkpt lat="47.30385" lon="0.41307">
        <ele>47</ele>
        <time>2023-07-18T08:41:07Z</time>
      </trkpt>
      <trkpt lat="47.30392" lon="0.41304">
        <ele>47</ele>
        <time>2023-07-18T08:41:08Z</time>
      </trkpt>
      <trkpt lat="47.30399" lon="0.41301">
        <ele>46.8</ele>
        <time>2023-07-18T08:41:09Z</time>
      </trkpt>
      <trkpt lat="47.30406" lon="0.41298">
        <ele>46.8</ele>
        <time>2023-07-18T08:41:10Z</time>
      </trkpt>
      <trkpt lat="47.30413" lon="0.41296">
        <ele>46.8</ele>
        <time>2023-07-18T08:41:11Z</time>
      </trkpt>
      <trkpt lat="47.3042" lon="0.41293">
        <ele>46.6</ele>
        <time>2023-07-18T08:41:12Z</time>
      </trkpt>
      <trkpt lat="47.30427" lon="0.4129">
        <ele>46.6</ele>
        <time>2023-07-18T08:41:13Z</time>
      </trkpt>
      <trkpt lat="47.30434" lon="0.41287">
        <ele>46.4</ele>
        <time>2023-07-18T08:41:14Z</time>
      </trkpt>
      <trkpt lat="47.30441" lon="0.41285">
        <ele>46.4</ele>
        <time>2023-07-18T08:41:15Z</time>
      </trkpt>
      <trkpt lat="47.30447" lon="0.41282">
        <ele>46.2</ele>
        <time>2023-07-18T08:41:16Z</time>
      </trkpt>
      <trkpt lat="47.30454" lon="0.41279">
        <ele>46.2</ele>
        <time>2023-07-18T08:41:17Z</time>
      </trkpt>
      <trkpt lat="47.30461" lon="0.41276">
        <ele>46.2</ele>
        <time>2023-07-18T08:41:18Z</time>
      </trkpt>
      <trkpt lat="47.30467" lon="0.41273">
        <ele>46.2</ele>
        <time>2023-07-18T08:41:19Z</time>
      </trkpt>
      <trkpt lat="47.30474" lon="0.4127">
        <ele>46</ele>
        <time>2023-07-18T08:41:20Z</time>
      </trkpt>
      <trkpt lat="47.30481" lon="0.41268">
        <ele>46</ele>
        <time>2023-07-18T08:41:21Z</time>
      </trkpt>
      <trkpt lat="47.30487" lon="0.41265">
        <ele>46</ele>
        <time>2023-07-18T08:41:22Z</time>
      </trkpt>
      <trkpt lat="47.30495" lon="0.41262">
        <ele>45.8</ele>
        <time>2023-07-18T08:41:23Z</time>
      </trkpt>
      <trkpt lat="47.30502" lon="0.4126">
        <ele>46</ele>
        <time>2023-07-18T08:41:24Z</time>
      </trkpt>
      <trkpt lat="47.30509" lon="0.41257">
        <ele>46</ele>
        <time>2023-07-18T08:41:25Z</time>
      </trkpt>
      <trkpt lat="47.30515" lon="0.41254">
        <ele>46.2</ele>
        <time>2023-07-18T08:41:26Z</time>
      </trkpt>
      <trkpt lat="47.30522" lon="0.41251">
        <ele>46</ele>
        <time>2023-07-18T08:41:27Z</time>
      </trkpt>
      <trkpt lat="47.30527" lon="0.41249">
        <ele>46</ele>
        <time>2023-07-18T08:41:28Z</time>
      </trkpt>
      <trkpt lat="47.30536" lon="0.41246">
        <ele>46</ele>
        <time>2023-07-18T08:41:29Z</time>
      </trkpt>
      <trkpt lat="47.30543" lon="0.41243">
        <ele>46</ele>
        <time>2023-07-18T08:41:30Z</time>
      </trkpt>
      <trkpt lat="47.3055" lon="0.4124">
        <ele>46.2</ele>
        <time>2023-07-18T08:41:31Z</time>
      </trkpt>
      <trkpt lat="47.30556" lon="0.41237">
        <ele>46</ele>
        <time>2023-07-18T08:41:32Z</time>
      </trkpt>
      <trkpt lat="47.30564" lon="0.41234">
        <ele>46.2</ele>
        <time>2023-07-18T08:41:33Z</time>
      </trkpt>
      <trkpt lat="47.30571" lon="0.41231">
        <ele>46.2</ele>
        <time>2023-07-18T08:41:34Z</time>
      </trkpt>
      <trkpt lat="47.30578" lon="0.41228">
        <ele>46.2</ele>
        <time>2023-07-18T08:41:35Z</time>
      </trkpt>
      <trkpt lat="47.30584" lon="0.41225">
        <ele>46.2</ele>
        <time>2023-07-18T08:41:36Z</time>
      </trkpt>
      <trkpt lat="47.3059" lon="0.41223">
        <ele>46.2</ele>
        <time>2023-07-18T08:41:37Z</time>
      </trkpt>
      <trkpt lat="47.30598" lon="0.4122">
        <ele>46.2</ele>
        <time>2023-07-18T08:41:38Z</time>
      </trkpt>
      <trkpt lat="47.30605" lon="0.41217">
        <ele>46.2</ele>
        <time>2023-07-18T08:41:39Z</time>
      </trkpt>
      <trkpt lat="47.30612" lon="0.41214">
        <ele>46.2</ele>
        <time>2023-07-18T08:41:40Z</time>
      </trkpt>
      <trkpt lat="47.30619" lon="0.41212">
        <ele>46</ele>
        <time>2023-07-18T08:41:41Z</time>
      </trkpt>
      <trkpt lat="47.30626" lon="0.41209">
        <ele>46.2</ele>
        <time>2023-07-18T08:41:42Z</time>
      </trkpt>
      <trkpt lat="47.30632" lon="0.41206">
        <ele>46.2</ele>
        <time>2023-07-18T08:41:43Z</time>
      </trkpt>
      <trkpt lat="47.30639" lon="0.41204">
        <ele>46</ele>
        <time>2023-07-18T08:41:44Z</time>
      </trkpt>
      <trkpt lat="47.30646" lon="0.41201">
        <ele>46.2</ele>
        <time>2023-07-18T08:41:45Z</time>
      </trkpt>
      <trkpt lat="47.30653" lon="0.41198">
        <ele>46.4</ele>
        <time>2023-07-18T08:41:46Z</time>
      </trkpt>
      <trkpt lat="47.30659" lon="0.41195">
        <ele>46.4</ele>
        <time>2023-07-18T08:41:47Z</time>
      </trkpt>
      <trkpt lat="47.30666" lon="0.41193">
        <ele>46.4</ele>
        <time>2023-07-18T08:41:48Z</time>
      </trkpt>
      <trkpt lat="47.30673" lon="0.4119">
        <ele>46.4</ele>
        <time>2023-07-18T08:41:49Z</time>
      </trkpt>
      <trkpt lat="47.3068" lon="0.41187">
        <ele>46.6</ele>
        <time>2023-07-18T08:41:50Z</time>
      </trkpt>
      <trkpt lat="47.30687" lon="0.41184">
        <ele>46.8</ele>
        <time>2023-07-18T08:41:51Z</time>
      </trkpt>
      <trkpt lat="47.30693" lon="0.41182">
        <ele>47</ele>
        <time>2023-07-18T08:41:52Z</time>
      </trkpt>
      <trkpt lat="47.307" lon="0.41179">
        <ele>46.8</ele>
        <time>2023-07-18T08:41:53Z</time>
      </trkpt>
      <trkpt lat="47.30707" lon="0.41176">
        <ele>46.6</ele>
        <time>2023-07-18T08:41:54Z</time>
      </trkpt>
      <trkpt lat="47.30713" lon="0.41173">
        <ele>46.6</ele>
        <time>2023-07-18T08:41:55Z</time>
      </trkpt>
      <trkpt lat="47.3072" lon="0.4117">
        <ele>46.6</ele>
        <time>2023-07-18T08:41:56Z</time>
      </trkpt>
      <trkpt lat="47.30727" lon="0.41168">
        <ele>46.4</ele>
        <time>2023-07-18T08:41:57Z</time>
      </trkpt>
      <trkpt lat="47.30733" lon="0.41165">
        <ele>46.4</ele>
        <time>2023-07-18T08:41:58Z</time>
      </trkpt>
      <trkpt lat="47.3074" lon="0.41162">
        <ele>46.4</ele>
        <time>2023-07-18T08:41:59Z</time>
      </trkpt>
      <trkpt lat="47.30747" lon="0.4116">
        <ele>46.2</ele>
        <time>2023-07-18T08:42:00Z</time>
      </trkpt>
      <trkpt lat="47.30752" lon="0.41158">
        <ele>46.2</ele>
        <time>2023-07-18T08:42:01Z</time>
      </trkpt>
      <trkpt lat="47.3076" lon="0.41155">
        <ele>46.2</ele>
        <time>2023-07-18T08:42:02Z</time>
      </trkpt>
      <trkpt lat="47.30767" lon="0.41152">
        <ele>46.4</ele>
        <time>2023-07-18T08:42:03Z</time>
      </trkpt>
      <trkpt lat="47.30774" lon="0.41149">
        <ele>46.6</ele>
        <time>2023-07-18T08:42:04Z</time>
      </trkpt>
      <trkpt lat="47.30781" lon="0.41146">
        <ele>46.8</ele>
        <time>2023-07-18T08:42:05Z</time>
      </trkpt>
      <trkpt lat="47.30786" lon="0.41144">
        <ele>46.8</ele>
        <time>2023-07-18T08:42:06Z</time>
      </trkpt>
      <trkpt lat="47.30794" lon="0.41141">
        <ele>47</ele>
        <time>2023-07-18T08:42:07Z</time>
      </trkpt>
      <trkpt lat="47.30801" lon="0.41138">
        <ele>47</ele>
        <time>2023-07-18T08:42:08Z</time>
      </trkpt>
      <trkpt lat="47.30808" lon="0.41135">
        <ele>47</ele>
        <time>2023-07-18T08:42:09Z</time>
      </trkpt>
      <trkpt lat="47.30814" lon="0.41133">
        <ele>47.2</ele>
        <time>2023-07-18T08:42:10Z</time>
      </trkpt>
      <trkpt lat="47.30821" lon="0.4113">
        <ele>47.2</ele>
        <time>2023-07-18T08:42:11Z</time>
      </trkpt>
      <trkpt lat="47.30828" lon="0.41127">
        <ele>47.4</ele>
        <time>2023-07-18T08:42:12Z</time>
      </trkpt>
      <trkpt lat="47.30834" lon="0.41125">
        <ele>47.4</ele>
        <time>2023-07-18T08:42:13Z</time>
      </trkpt>
      <trkpt lat="47.30841" lon="0.41122">
        <ele>47.4</ele>
        <time>2023-07-18T08:42:14Z</time>
      </trkpt>
      <trkpt lat="47.30848" lon="0.41119">
        <ele>47.4</ele>
        <time>2023-07-18T08:42:15Z</time>
      </trkpt>
      <trkpt lat="47.30854" lon="0.41117">
        <ele>47.2</ele>
        <time>2023-07-18T08:42:16Z</time>
      </trkpt>
      <trkpt lat="47.30861" lon="0.41114">
        <ele>47</ele>
        <time>2023-07-18T08:42:17Z</time>
      </trkpt>
      <trkpt lat="47.30868" lon="0.41111">
        <ele>46.8</ele>
        <time>2023-07-18T08:42:18Z</time>
      </trkpt>
      <trkpt lat="47.30874" lon="0.41109">
        <ele>46.8</ele>
        <time>2023-07-18T08:42:19Z</time>
      </trkpt>
      <trkpt lat="47.30881" lon="0.41106">
        <ele>46.8</ele>
        <time>2023-07-18T08:42:20Z</time>
      </trkpt>
      <trkpt lat="47.30888" lon="0.41103">
        <ele>46.6</ele>
        <time>2023-07-18T08:42:21Z</time>
      </trkpt>
      <trkpt lat="47.30895" lon="0.41101">
        <ele>46.6</ele>
        <time>2023-07-18T08:42:22Z</time>
      </trkpt>
      <trkpt lat="47.30902" lon="0.41098">
        <ele>46.8</ele>
        <time>2023-07-18T08:42:23Z</time>
      </trkpt>
      <trkpt lat="47.30909" lon="0.41095">
        <ele>46.8</ele>
        <time>2023-07-18T08:42:24Z</time>
      </trkpt>
      <trkpt lat="47.30915" lon="0.41093">
        <ele>47</ele>
        <time>2023-07-18T08:42:25Z</time>
      </trkpt>
      <trkpt lat="47.30923" lon="0.41089">
        <ele>47</ele>
        <time>2023-07-18T08:42:26Z</time>
      </trkpt>
      <trkpt lat="47.30929" lon="0.41086">
        <ele>47.2</ele>
        <time>2023-07-18T08:42:27Z</time>
      </trkpt>
      <trkpt lat="47.30936" lon="0.41083">
        <ele>47.2</ele>
        <time>2023-07-18T08:42:28Z</time>
      </trkpt>
      <trkpt lat="47.30943" lon="0.4108">
        <ele>47</ele>
        <time>2023-07-18T08:42:29Z</time>
      </trkpt>
      <trkpt lat="47.3095" lon="0.41078">
        <ele>47</ele>
        <time>2023-07-18T08:42:30Z</time>
      </trkpt>
      <trkpt lat="47.30956" lon="0.41076">
        <ele>47</ele>
        <time>2023-07-18T08:42:31Z</time>
      </trkpt>
      <trkpt lat="47.30964" lon="0.41073">
        <ele>47.2</ele>
        <time>2023-07-18T08:42:32Z</time>
      </trkpt>
      <trkpt lat="47.3097" lon="0.4107">
        <ele>47.2</ele>
        <time>2023-07-18T08:42:33Z</time>
      </trkpt>
      <trkpt lat="47.30977" lon="0.41067">
        <ele>47.2</ele>
        <time>2023-07-18T08:42:34Z</time>
      </trkpt>
      <trkpt lat="47.30984" lon="0.41064">
        <ele>47.2</ele>
        <time>2023-07-18T08:42:35Z</time>
      </trkpt>
      <trkpt lat="47.30991" lon="0.41061">
        <ele>47.4</ele>
        <time>2023-07-18T08:42:36Z</time>
      </trkpt>
      <trkpt lat="47.30998" lon="0.41059">
        <ele>47.4</ele>
        <time>2023-07-18T08:42:37Z</time>
      </trkpt>
      <trkpt lat="47.31004" lon="0.41057">
        <ele>47.4</ele>
        <time>2023-07-18T08:42:38Z</time>
      </trkpt>
      <trkpt lat="47.31012" lon="0.41054">
        <ele>47.4</ele>
        <time>2023-07-18T08:42:39Z</time>
      </trkpt>
      <trkpt lat="47.3102" lon="0.41051">
        <ele>47.4</ele>
        <time>2023-07-18T08:42:40Z</time>
      </trkpt>
      <trkpt lat="47.31026" lon="0.41048">
        <ele>47.4</ele>
        <time>2023-07-18T08:42:41Z</time>
      </trkpt>
      <trkpt lat="47.31033" lon="0.41046">
        <ele>47.4</ele>
        <time>2023-07-18T08:42:42Z</time>
      </trkpt>
      <trkpt lat="47.31039" lon="0.41043">
        <ele>47.4</ele>
        <time>2023-07-18T08:42:43Z</time>
      </trkpt>
      <trkpt lat="47.31046" lon="0.4104">
        <ele>47.4</ele>
        <time>2023-07-18T08:42:44Z</time>
      </trkpt>
      <trkpt lat="47.31054" lon="0.41037">
        <ele>47.6</ele>
        <time>2023-07-18T08:42:45Z</time>
      </trkpt>
      <trkpt lat="47.31061" lon="0.41034">
        <ele>47.4</ele>
        <time>2023-07-18T08:42:46Z</time>
      </trkpt>
      <trkpt lat="47.31068" lon="0.41032">
        <ele>47.2</ele>
        <time>2023-07-18T08:42:47Z</time>
      </trkpt>
      <trkpt lat="47.31074" lon="0.41029">
        <ele>47.4</ele>
        <time>2023-07-18T08:42:48Z</time>
      </trkpt>
      <trkpt lat="47.3108" lon="0.41027">
        <ele>47.4</ele>
        <time>2023-07-18T08:42:49Z</time>
      </trkpt>
      <trkpt lat="47.31087" lon="0.41024">
        <ele>47.4</ele>
        <time>2023-07-18T08:42:50Z</time>
      </trkpt>
      <trkpt lat="47.31095" lon="0.4102">
        <ele>47.4</ele>
        <time>2023-07-18T08:42:51Z</time>
      </trkpt>
      <trkpt lat="47.31102" lon="0.41017">
        <ele>47.6</ele>
        <time>2023-07-18T08:42:52Z</time>
      </trkpt>
      <trkpt lat="47.31109" lon="0.41014">
        <ele>47.6</ele>
        <time>2023-07-18T08:42:53Z</time>
      </trkpt>
      <trkpt lat="47.31114" lon="0.41012">
        <ele>47.6</ele>
        <time>2023-07-18T08:42:54Z</time>
      </trkpt>
      <trkpt lat="47.31121" lon="0.41009">
        <ele>47.6</ele>
        <time>2023-07-18T08:42:55Z</time>
      </trkpt>
      <trkpt lat="47.3113" lon="0.41005">
        <ele>47.8</ele>
        <time>2023-07-18T08:42:56Z</time>
      </trkpt>
      <trkpt lat="47.31137" lon="0.41003">
        <ele>48</ele>
        <time>2023-07-18T08:42:57Z</time>
      </trkpt>
      <trkpt lat="47.31144" lon="0.41">
        <ele>48</ele>
        <time>2023-07-18T08:42:58Z</time>
      </trkpt>
      <trkpt lat="47.3115" lon="0.40997">
        <ele>48</ele>
        <time>2023-07-18T08:42:59Z</time>
      </trkpt>
      <trkpt lat="47.31157" lon="0.40994">
        <ele>48.2</ele>
        <time>2023-07-18T08:43:00Z</time>
      </trkpt>
      <trkpt lat="47.31164" lon="0.40992">
        <ele>48</ele>
        <time>2023-07-18T08:43:01Z</time>
      </trkpt>
      <trkpt lat="47.31171" lon="0.40988">
        <ele>48.2</ele>
        <time>2023-07-18T08:43:02Z</time>
      </trkpt>
      <trkpt lat="47.31176" lon="0.40986">
        <ele>48.2</ele>
        <time>2023-07-18T08:43:03Z</time>
      </trkpt>
      <trkpt lat="47.31183" lon="0.40983">
        <ele>48.2</ele>
        <time>2023-07-18T08:43:04Z</time>
      </trkpt>
      <trkpt lat="47.31191" lon="0.4098">
        <ele>48</ele>
        <time>2023-07-18T08:43:05Z</time>
      </trkpt>
      <trkpt lat="47.31198" lon="0.40977">
        <ele>48</ele>
        <time>2023-07-18T08:43:06Z</time>
      </trkpt>
      <trkpt lat="47.31204" lon="0.40975">
        <ele>48</ele>
        <time>2023-07-18T08:43:07Z</time>
      </trkpt>
      <trkpt lat="47.31211" lon="0.40972">
        <ele>48.2</ele>
        <time>2023-07-18T08:43:08Z</time>
      </trkpt>
      <trkpt lat="47.31217" lon="0.4097">
        <ele>48</ele>
        <time>2023-07-18T08:43:09Z</time>
      </trkpt>
      <trkpt lat="47.31224" lon="0.40967">
        <ele>48</ele>
        <time>2023-07-18T08:43:10Z</time>
      </trkpt>
      <trkpt lat="47.31231" lon="0.40964">
        <ele>48</ele>
        <time>2023-07-18T08:43:11Z</time>
      </trkpt>
      <trkpt lat="47.31237" lon="0.40961">
        <ele>47.8</ele>
        <time>2023-07-18T08:43:12Z</time>
      </trkpt>
      <trkpt lat="47.31245" lon="0.40958">
        <ele>47.8</ele>
        <time>2023-07-18T08:43:13Z</time>
      </trkpt>
      <trkpt lat="47.31251" lon="0.40956">
        <ele>47.8</ele>
        <time>2023-07-18T08:43:14Z</time>
      </trkpt>
      <trkpt lat="47.31258" lon="0.40953">
        <ele>47.6</ele>
        <time>2023-07-18T08:43:15Z</time>
      </trkpt>
      <trkpt lat="47.31265" lon="0.4095">
        <ele>47.6</ele>
        <time>2023-07-18T08:43:16Z</time>
      </trkpt>
      <trkpt lat="47.31271" lon="0.40948">
        <ele>47.6</ele>
        <time>2023-07-18T08:43:17Z</time>
      </trkpt>
      <trkpt lat="47.31278" lon="0.40945">
        <ele>47.6</ele>
        <time>2023-07-18T08:43:18Z</time>
      </trkpt>
      <trkpt lat="47.31285" lon="0.40942">
        <ele>47.6</ele>
        <time>2023-07-18T08:43:19Z</time>
      </trkpt>
      <trkpt lat="47.31291" lon="0.4094">
        <ele>47.6</ele>
        <time>2023-07-18T08:43:20Z</time>
      </trkpt>
      <trkpt lat="47.31298" lon="0.40937">
        <ele>47.6</ele>
        <time>2023-07-18T08:43:21Z</time>
      </trkpt>
      <trkpt lat="47.31305" lon="0.40934">
        <ele>47.6</ele>
        <time>2023-07-18T08:43:22Z</time>
      </trkpt>
      <trkpt lat="47.31312" lon="0.40931">
        <ele>47.6</ele>
        <time>2023-07-18T08:43:23Z</time>
      </trkpt>
      <trkpt lat="47.31318" lon="0.40928">
        <ele>47.6</ele>
        <time>2023-07-18T08:43:24Z</time>
      </trkpt>
      <trkpt lat="47.31326" lon="0.40926">
        <ele>47.6</ele>
        <time>2023-07-18T08:43:25Z</time>
      </trkpt>
      <trkpt lat="47.31332" lon="0.40923">
        <ele>47.6</ele>
        <time>2023-07-18T08:43:26Z</time>
      </trkpt>
      <trkpt lat="47.31338" lon="0.4092">
        <ele>47.4</ele>
        <time>2023-07-18T08:43:27Z</time>
      </trkpt>
      <trkpt lat="47.31344" lon="0.40918">
        <ele>47.6</ele>
        <time>2023-07-18T08:43:28Z</time>
      </trkpt>
      <trkpt lat="47.31352" lon="0.40914">
        <ele>47.6</ele>
        <time>2023-07-18T08:43:29Z</time>
      </trkpt>
      <trkpt lat="47.31358" lon="0.40911">
        <ele>47.6</ele>
        <time>2023-07-18T08:43:30Z</time>
      </trkpt>
      <trkpt lat="47.31364" lon="0.40908">
        <ele>47.6</ele>
        <time>2023-07-18T08:43:31Z</time>
      </trkpt>
      <trkpt lat="47.31371" lon="0.40905">
        <ele>47.4</ele>
        <time>2023-07-18T08:43:32Z</time>
      </trkpt>
      <trkpt lat="47.31377" lon="0.40902">
        <ele>47.4</ele>
        <time>2023-07-18T08:43:33Z</time>
      </trkpt>
      <trkpt lat="47.31384" lon="0.409">
        <ele>47.4</ele>
        <time>2023-07-18T08:43:34Z</time>
      </trkpt>
      <trkpt lat="47.31391" lon="0.40897">
        <ele>47.6</ele>
        <time>2023-07-18T08:43:35Z</time>
      </trkpt>
      <trkpt lat="47.31397" lon="0.40894">
        <ele>47.6</ele>
        <time>2023-07-18T08:43:36Z</time>
      </trkpt>
      <trkpt lat="47.31404" lon="0.40892">
        <ele>47.6</ele>
        <time>2023-07-18T08:43:37Z</time>
      </trkpt>
      <trkpt lat="47.31411" lon="0.4089">
        <ele>47.6</ele>
        <time>2023-07-18T08:43:38Z</time>
      </trkpt>
      <trkpt lat="47.31417" lon="0.40888">
        <ele>47.6</ele>
        <time>2023-07-18T08:43:39Z</time>
      </trkpt>
      <trkpt lat="47.31424" lon="0.40885">
        <ele>47.8</ele>
        <time>2023-07-18T08:43:40Z</time>
      </trkpt>
      <trkpt lat="47.3143" lon="0.40882">
        <ele>47.8</ele>
        <time>2023-07-18T08:43:41Z</time>
      </trkpt>
      <trkpt lat="47.31436" lon="0.4088">
        <ele>48</ele>
        <time>2023-07-18T08:43:42Z</time>
      </trkpt>
      <trkpt lat="47.31442" lon="0.40878">
        <ele>48</ele>
        <time>2023-07-18T08:43:43Z</time>
      </trkpt>
      <trkpt lat="47.31448" lon="0.40875">
        <ele>48</ele>
        <time>2023-07-18T08:43:44Z</time>
      </trkpt>
      <trkpt lat="47.31454" lon="0.40872">
        <ele>48.4</ele>
        <time>2023-07-18T08:43:45Z</time>
      </trkpt>
      <trkpt lat="47.31461" lon="0.40869">
        <ele>48.6</ele>
        <time>2023-07-18T08:43:46Z</time>
      </trkpt>
      <trkpt lat="47.31467" lon="0.40867">
        <ele>48.8</ele>
        <time>2023-07-18T08:43:47Z</time>
      </trkpt>
      <trkpt lat="47.31472" lon="0.40864">
        <ele>49</ele>
        <time>2023-07-18T08:43:48Z</time>
      </trkpt>
      <trkpt lat="47.31477" lon="0.4086">
        <ele>49.2</ele>
        <time>2023-07-18T08:43:49Z</time>
      </trkpt>
      <trkpt lat="47.31483" lon="0.40855">
        <ele>49.2</ele>
        <time>2023-07-18T08:43:50Z</time>
      </trkpt>
      <trkpt lat="47.31487" lon="0.40851">
        <ele>49.2</ele>
        <time>2023-07-18T08:43:51Z</time>
      </trkpt>
      <trkpt lat="47.31491" lon="0.40844">
        <ele>49.4</ele>
        <time>2023-07-18T08:43:52Z</time>
      </trkpt>
      <trkpt lat="47.31496" lon="0.40838">
        <ele>49.6</ele>
        <time>2023-07-18T08:43:53Z</time>
      </trkpt>
      <trkpt lat="47.315" lon="0.40831">
        <ele>49.8</ele>
        <time>2023-07-18T08:43:54Z</time>
      </trkpt>
      <trkpt lat="47.31504" lon="0.40825">
        <ele>50</ele>
        <time>2023-07-18T08:43:55Z</time>
      </trkpt>
      <trkpt lat="47.31508" lon="0.40818">
        <ele>50.2</ele>
        <time>2023-07-18T08:43:56Z</time>
      </trkpt>
      <trkpt lat="47.31513" lon="0.40812">
        <ele>50.2</ele>
        <time>2023-07-18T08:43:57Z</time>
      </trkpt>
      <trkpt lat="47.31518" lon="0.40806">
        <ele>50.2</ele>
        <time>2023-07-18T08:43:58Z</time>
      </trkpt>
      <trkpt lat="47.31523" lon="0.408">
        <ele>50.4</ele>
        <time>2023-07-18T08:43:59Z</time>
      </trkpt>
      <trkpt lat="47.31528" lon="0.40795">
        <ele>50.4</ele>
        <time>2023-07-18T08:44:00Z</time>
      </trkpt>
      <trkpt lat="47.31533" lon="0.40791">
        <ele>50.6</ele>
        <time>2023-07-18T08:44:01Z</time>
      </trkpt>
      <trkpt lat="47.3154" lon="0.40785">
        <ele>50.6</ele>
        <time>2023-07-18T08:44:02Z</time>
      </trkpt>
      <trkpt lat="47.31546" lon="0.4078">
        <ele>50.6</ele>
        <time>2023-07-18T08:44:03Z</time>
      </trkpt>
      <trkpt lat="47.31552" lon="0.40776">
        <ele>50.6</ele>
        <time>2023-07-18T08:44:04Z</time>
      </trkpt>
      <trkpt lat="47.31558" lon="0.40771">
        <ele>50.8</ele>
        <time>2023-07-18T08:44:05Z</time>
      </trkpt>
      <trkpt lat="47.31564" lon="0.40766">
        <ele>50.8</ele>
        <time>2023-07-18T08:44:06Z</time>
      </trkpt>
      <trkpt lat="47.3157" lon="0.40761">
        <ele>51</ele>
        <time>2023-07-18T08:44:07Z</time>
      </trkpt>
      <trkpt lat="47.31576" lon="0.40756">
        <ele>51.2</ele>
        <time>2023-07-18T08:44:08Z</time>
      </trkpt>
      <trkpt lat="47.31581" lon="0.40751">
        <ele>51.2</ele>
        <time>2023-07-18T08:44:09Z</time>
      </trkpt>
      <trkpt lat="47.31586" lon="0.40748">
        <ele>51.4</ele>
        <time>2023-07-18T08:44:10Z</time>
      </trkpt>
      <trkpt lat="47.31593" lon="0.40742">
        <ele>51.2</ele>
        <time>2023-07-18T08:44:11Z</time>
      </trkpt>
      <trkpt lat="47.31599" lon="0.40737">
        <ele>51.2</ele>
        <time>2023-07-18T08:44:12Z</time>
      </trkpt>
      <trkpt lat="47.31604" lon="0.40732">
        <ele>51.2</ele>
        <time>2023-07-18T08:44:13Z</time>
      </trkpt>
      <trkpt lat="47.3161" lon="0.40728">
        <ele>51.2</ele>
        <time>2023-07-18T08:44:14Z</time>
      </trkpt>
      <trkpt lat="47.31616" lon="0.40723">
        <ele>51.2</ele>
        <time>2023-07-18T08:44:15Z</time>
      </trkpt>
      <trkpt lat="47.31621" lon="0.40719">
        <ele>51.2</ele>
        <time>2023-07-18T08:44:16Z</time>
      </trkpt>
      <trkpt lat="47.31628" lon="0.40714">
        <ele>51.2</ele>
        <time>2023-07-18T08:44:17Z</time>
      </trkpt>
      <trkpt lat="47.31633" lon="0.40709">
        <ele>51.2</ele>
        <time>2023-07-18T08:44:18Z</time>
      </trkpt>
      <trkpt lat="47.31638" lon="0.40705">
        <ele>51</ele>
        <time>2023-07-18T08:44:19Z</time>
      </trkpt>
      <trkpt lat="47.31645" lon="0.407">
        <ele>51</ele>
        <time>2023-07-18T08:44:20Z</time>
      </trkpt>
      <trkpt lat="47.31651" lon="0.40695">
        <ele>51</ele>
        <time>2023-07-18T08:44:21Z</time>
      </trkpt>
      <trkpt lat="47.31656" lon="0.4069">
        <ele>51.2</ele>
        <time>2023-07-18T08:44:22Z</time>
      </trkpt>
      <trkpt lat="47.31662" lon="0.40685">
        <ele>51.2</ele>
        <time>2023-07-18T08:44:23Z</time>
      </trkpt>
      <trkpt lat="47.31668" lon="0.4068">
        <ele>51.2</ele>
        <time>2023-07-18T08:44:24Z</time>
      </trkpt>
      <trkpt lat="47.31674" lon="0.40675">
        <ele>51.2</ele>
        <time>2023-07-18T08:44:25Z</time>
      </trkpt>
      <trkpt lat="47.31679" lon="0.4067">
        <ele>51.2</ele>
        <time>2023-07-18T08:44:26Z</time>
      </trkpt>
      <trkpt lat="47.31685" lon="0.40665">
        <ele>51.2</ele>
        <time>2023-07-18T08:44:27Z</time>
      </trkpt>
      <trkpt lat="47.31691" lon="0.4066">
        <ele>51.2</ele>
        <time>2023-07-18T08:44:28Z</time>
      </trkpt>
      <trkpt lat="47.31697" lon="0.40655">
        <ele>51.2</ele>
        <time>2023-07-18T08:44:29Z</time>
      </trkpt>
      <trkpt lat="47.31702" lon="0.4065">
        <ele>51.2</ele>
        <time>2023-07-18T08:44:30Z</time>
      </trkpt>
      <trkpt lat="47.31708" lon="0.40645">
        <ele>51</ele>
        <time>2023-07-18T08:44:31Z</time>
      </trkpt>
      <trkpt lat="47.31714" lon="0.40641">
        <ele>51.2</ele>
        <time>2023-07-18T08:44:32Z</time>
      </trkpt>
      <trkpt lat="47.31719" lon="0.40636">
        <ele>51.2</ele>
        <time>2023-07-18T08:44:33Z</time>
      </trkpt>
      <trkpt lat="47.31725" lon="0.40631">
        <ele>51.2</ele>
        <time>2023-07-18T08:44:34Z</time>
      </trkpt>
      <trkpt lat="47.31731" lon="0.40627">
        <ele>51.2</ele>
        <time>2023-07-18T08:44:35Z</time>
      </trkpt>
      <trkpt lat="47.31736" lon="0.40622">
        <ele>51.4</ele>
        <time>2023-07-18T08:44:36Z</time>
      </trkpt>
      <trkpt lat="47.31742" lon="0.40617">
        <ele>51.6</ele>
        <time>2023-07-18T08:44:37Z</time>
      </trkpt>
      <trkpt lat="47.31747" lon="0.40613">
        <ele>51.8</ele>
        <time>2023-07-18T08:44:38Z</time>
      </trkpt>
      <trkpt lat="47.31753" lon="0.40608">
        <ele>51.8</ele>
        <time>2023-07-18T08:44:39Z</time>
      </trkpt>
      <trkpt lat="47.31758" lon="0.40603">
        <ele>52</ele>
        <time>2023-07-18T08:44:40Z</time>
      </trkpt>
      <trkpt lat="47.31763" lon="0.40599">
        <ele>52.2</ele>
        <time>2023-07-18T08:44:41Z</time>
      </trkpt>
      <trkpt lat="47.31769" lon="0.40594">
        <ele>52.4</ele>
        <time>2023-07-18T08:44:42Z</time>
      </trkpt>
      <trkpt lat="47.31774" lon="0.40591">
        <ele>52.4</ele>
        <time>2023-07-18T08:44:43Z</time>
      </trkpt>
      <trkpt lat="47.31779" lon="0.40586">
        <ele>52.8</ele>
        <time>2023-07-18T08:44:44Z</time>
      </trkpt>
      <trkpt lat="47.31784" lon="0.40582">
        <ele>53</ele>
        <time>2023-07-18T08:44:45Z</time>
      </trkpt>
      <trkpt lat="47.3179" lon="0.40579">
        <ele>53.2</ele>
        <time>2023-07-18T08:44:46Z</time>
      </trkpt>
      <trkpt lat="47.31795" lon="0.40574">
        <ele>53.2</ele>
        <time>2023-07-18T08:44:47Z</time>
      </trkpt>
      <trkpt lat="47.31801" lon="0.4057">
        <ele>53.4</ele>
        <time>2023-07-18T08:44:48Z</time>
      </trkpt>
      <trkpt lat="47.31806" lon="0.40566">
        <ele>53.6</ele>
        <time>2023-07-18T08:44:49Z</time>
      </trkpt>
      <trkpt lat="47.31812" lon="0.40561">
        <ele>53.6</ele>
        <time>2023-07-18T08:44:50Z</time>
      </trkpt>
      <trkpt lat="47.31816" lon="0.40557">
        <ele>53.8</ele>
        <time>2023-07-18T08:44:51Z</time>
      </trkpt>
      <trkpt lat="47.31821" lon="0.40553">
        <ele>53.8</ele>
        <time>2023-07-18T08:44:52Z</time>
      </trkpt>
      <trkpt lat="47.31828" lon="0.40547">
        <ele>53.8</ele>
        <time>2023-07-18T08:44:53Z</time>
      </trkpt>
      <trkpt lat="47.31833" lon="0.40542">
        <ele>53.8</ele>
        <time>2023-07-18T08:44:54Z</time>
      </trkpt>
      <trkpt lat="47.31838" lon="0.40538">
        <ele>53.8</ele>
        <time>2023-07-18T08:44:55Z</time>
      </trkpt>
      <trkpt lat="47.31843" lon="0.40533">
        <ele>53.8</ele>
        <time>2023-07-18T08:44:56Z</time>
      </trkpt>
      <trkpt lat="47.31849" lon="0.40528">
        <ele>53.8</ele>
        <time>2023-07-18T08:44:57Z</time>
      </trkpt>
      <trkpt lat="47.31854" lon="0.40524">
        <ele>54</ele>
        <time>2023-07-18T08:44:58Z</time>
      </trkpt>
      <trkpt lat="47.3186" lon="0.40519">
        <ele>54</ele>
        <time>2023-07-18T08:44:59Z</time>
      </trkpt>
      <trkpt lat="47.31865" lon="0.40515">
        <ele>54.2</ele>
        <time>2023-07-18T08:45:00Z</time>
      </trkpt>
      <trkpt lat="47.31871" lon="0.40511">
        <ele>54</ele>
        <time>2023-07-18T08:45:01Z</time>
      </trkpt>
      <trkpt lat="47.31877" lon="0.40507">
        <ele>54.2</ele>
        <time>2023-07-18T08:45:02Z</time>
      </trkpt>
      <trkpt lat="47.31882" lon="0.40502">
        <ele>54.2</ele>
        <time>2023-07-18T08:45:03Z</time>
      </trkpt>
      <trkpt lat="47.31888" lon="0.40498">
        <ele>54.2</ele>
        <time>2023-07-18T08:45:04Z</time>
      </trkpt>
      <trkpt lat="47.31893" lon="0.40493">
        <ele>54.4</ele>
        <time>2023-07-18T08:45:05Z</time>
      </trkpt>
      <trkpt lat="47.31898" lon="0.40489">
        <ele>54.4</ele>
        <time>2023-07-18T08:45:06Z</time>
      </trkpt>
      <trkpt lat="47.31903" lon="0.40484">
        <ele>54.4</ele>
        <time>2023-07-18T08:45:07Z</time>
      </trkpt>
      <trkpt lat="47.31909" lon="0.40479">
        <ele>54.4</ele>
        <time>2023-07-18T08:45:08Z</time>
      </trkpt>
      <trkpt lat="47.31914" lon="0.40474">
        <ele>54.6</ele>
        <time>2023-07-18T08:45:09Z</time>
      </trkpt>
      <trkpt lat="47.31918" lon="0.4047">
        <ele>54.6</ele>
        <time>2023-07-18T08:45:10Z</time>
      </trkpt>
      <trkpt lat="47.31924" lon="0.40465">
        <ele>54.4</ele>
        <time>2023-07-18T08:45:11Z</time>
      </trkpt>
      <trkpt lat="47.31929" lon="0.4046">
        <ele>54.4</ele>
        <time>2023-07-18T08:45:12Z</time>
      </trkpt>
      <trkpt lat="47.31935" lon="0.40456">
        <ele>54.4</ele>
        <time>2023-07-18T08:45:13Z</time>
      </trkpt>
      <trkpt lat="47.31941" lon="0.40452">
        <ele>54.4</ele>
        <time>2023-07-18T08:45:14Z</time>
      </trkpt>
      <trkpt lat="47.31946" lon="0.40447">
        <ele>54.2</ele>
        <time>2023-07-18T08:45:15Z</time>
      </trkpt>
      <trkpt lat="47.31951" lon="0.40443">
        <ele>54</ele>
        <time>2023-07-18T08:45:16Z</time>
      </trkpt>
      <trkpt lat="47.31957" lon="0.40439">
        <ele>54</ele>
        <time>2023-07-18T08:45:17Z</time>
      </trkpt>
      <trkpt lat="47.31963" lon="0.40434">
        <ele>54.2</ele>
        <time>2023-07-18T08:45:18Z</time>
      </trkpt>
      <trkpt lat="47.31968" lon="0.40429">
        <ele>54.2</ele>
        <time>2023-07-18T08:45:19Z</time>
      </trkpt>
      <trkpt lat="47.31972" lon="0.40424">
        <ele>54.2</ele>
        <time>2023-07-18T08:45:20Z</time>
      </trkpt>
      <trkpt lat="47.31977" lon="0.40419">
        <ele>54</ele>
        <time>2023-07-18T08:45:21Z</time>
      </trkpt>
      <trkpt lat="47.31983" lon="0.40414">
        <ele>54</ele>
        <time>2023-07-18T08:45:22Z</time>
      </trkpt>
      <trkpt lat="47.31989" lon="0.4041">
        <ele>54</ele>
        <time>2023-07-18T08:45:23Z</time>
      </trkpt>
      <trkpt lat="47.31995" lon="0.40406">
        <ele>54</ele>
        <time>2023-07-18T08:45:24Z</time>
      </trkpt>
      <trkpt lat="47.32" lon="0.40401">
        <ele>54</ele>
        <time>2023-07-18T08:45:25Z</time>
      </trkpt>
      <trkpt lat="47.32005" lon="0.40397">
        <ele>54</ele>
        <time>2023-07-18T08:45:26Z</time>
      </trkpt>
      <trkpt lat="47.32011" lon="0.40392">
        <ele>54</ele>
        <time>2023-07-18T08:45:27Z</time>
      </trkpt>
      <trkpt lat="47.32016" lon="0.40388">
        <ele>53.8</ele>
        <time>2023-07-18T08:45:28Z</time>
      </trkpt>
      <trkpt lat="47.32022" lon="0.40383">
        <ele>53.8</ele>
        <time>2023-07-18T08:45:29Z</time>
      </trkpt>
      <trkpt lat="47.32028" lon="0.40378">
        <ele>53.8</ele>
        <time>2023-07-18T08:45:30Z</time>
      </trkpt>
      <trkpt lat="47.32034" lon="0.40374">
        <ele>54</ele>
        <time>2023-07-18T08:45:31Z</time>
      </trkpt>
      <trkpt lat="47.32039" lon="0.40369">
        <ele>54</ele>
        <time>2023-07-18T08:45:32Z</time>
      </trkpt>
      <trkpt lat="47.32044" lon="0.40364">
        <ele>54</ele>
        <time>2023-07-18T08:45:33Z</time>
      </trkpt>
      <trkpt lat="47.3205" lon="0.4036">
        <ele>53.8</ele>
        <time>2023-07-18T08:45:34Z</time>
      </trkpt>
      <trkpt lat="47.32056" lon="0.40356">
        <ele>53.8</ele>
        <time>2023-07-18T08:45:35Z</time>
      </trkpt>
      <trkpt lat="47.32061" lon="0.40351">
        <ele>54</ele>
        <time>2023-07-18T08:45:36Z</time>
      </trkpt>
      <trkpt lat="47.32068" lon="0.40346">
        <ele>54</ele>
        <time>2023-07-18T08:45:37Z</time>
      </trkpt>
      <trkpt lat="47.32073" lon="0.40341">
        <ele>53.8</ele>
        <time>2023-07-18T08:45:38Z</time>
      </trkpt>
      <trkpt lat="47.32079" lon="0.40336">
        <ele>53.6</ele>
        <time>2023-07-18T08:45:39Z</time>
      </trkpt>
      <trkpt lat="47.32085" lon="0.40332">
        <ele>53.4</ele>
        <time>2023-07-18T08:45:40Z</time>
      </trkpt>
      <trkpt lat="47.3209" lon="0.40328">
        <ele>53.2</ele>
        <time>2023-07-18T08:45:41Z</time>
      </trkpt>
      <trkpt lat="47.32096" lon="0.40325">
        <ele>53</ele>
        <time>2023-07-18T08:45:42Z</time>
      </trkpt>
      <trkpt lat="47.32101" lon="0.40325">
        <ele>53</ele>
        <time>2023-07-18T08:45:43Z</time>
      </trkpt>
      <trkpt lat="47.32106" lon="0.40327">
        <ele>53</ele>
        <time>2023-07-18T08:45:44Z</time>
      </trkpt>
      <trkpt lat="47.32111" lon="0.40331">
        <ele>53</ele>
        <time>2023-07-18T08:45:45Z</time>
      </trkpt>
      <trkpt lat="47.32115" lon="0.40337">
        <ele>52.8</ele>
        <time>2023-07-18T08:45:46Z</time>
      </trkpt>
      <trkpt lat="47.32118" lon="0.40344">
        <ele>53.2</ele>
        <time>2023-07-18T08:45:47Z</time>
      </trkpt>
      <trkpt lat="47.32122" lon="0.40353">
        <ele>53.2</ele>
        <time>2023-07-18T08:45:48Z</time>
      </trkpt>
      <trkpt lat="47.32124" lon="0.40362">
        <ele>53</ele>
        <time>2023-07-18T08:45:49Z</time>
      </trkpt>
      <trkpt lat="47.32127" lon="0.40371">
        <ele>53</ele>
        <time>2023-07-18T08:45:50Z</time>
      </trkpt>
      <trkpt lat="47.32129" lon="0.40382">
        <ele>53</ele>
        <time>2023-07-18T08:45:51Z</time>
      </trkpt>
      <trkpt lat="47.3213" lon="0.40393">
        <ele>53</ele>
        <time>2023-07-18T08:45:52Z</time>
      </trkpt>
      <trkpt lat="47.32132" lon="0.40403">
        <ele>53</ele>
        <time>2023-07-18T08:45:53Z</time>
      </trkpt>
      <trkpt lat="47.32134" lon="0.40414">
        <ele>52.8</ele>
        <time>2023-07-18T08:45:54Z</time>
      </trkpt>
      <trkpt lat="47.32135" lon="0.40425">
        <ele>52.6</ele>
        <time>2023-07-18T08:45:55Z</time>
      </trkpt>
      <trkpt lat="47.32137" lon="0.40436">
        <ele>53.2</ele>
        <time>2023-07-18T08:45:56Z</time>
      </trkpt>
      <trkpt lat="47.32138" lon="0.40447">
        <ele>53</ele>
        <time>2023-07-18T08:45:57Z</time>
      </trkpt>
      <trkpt lat="47.3214" lon="0.40458">
        <ele>53</ele>
        <time>2023-07-18T08:45:58Z</time>
      </trkpt>
      <trkpt lat="47.32141" lon="0.40469">
        <ele>52.8</ele>
        <time>2023-07-18T08:45:59Z</time>
      </trkpt>
      <trkpt lat="47.32143" lon="0.4048">
        <ele>52.8</ele>
        <time>2023-07-18T08:46:00Z</time>
      </trkpt>
      <trkpt lat="47.32144" lon="0.4049">
        <ele>52.6</ele>
        <time>2023-07-18T08:46:01Z</time>
      </trkpt>
      <trkpt lat="47.32146" lon="0.40501">
        <ele>52.4</ele>
        <time>2023-07-18T08:46:02Z</time>
      </trkpt>
      <trkpt lat="47.32148" lon="0.40511">
        <ele>52.4</ele>
        <time>2023-07-18T08:46:03Z</time>
      </trkpt>
      <trkpt lat="47.32151" lon="0.40521">
        <ele>52</ele>
        <time>2023-07-18T08:46:04Z</time>
      </trkpt>
      <trkpt lat="47.32154" lon="0.40531">
        <ele>52.2</ele>
        <time>2023-07-18T08:46:05Z</time>
      </trkpt>
      <trkpt lat="47.32158" lon="0.40541">
        <ele>52</ele>
        <time>2023-07-18T08:46:06Z</time>
      </trkpt>
      <trkpt lat="47.32161" lon="0.40549">
        <ele>52.2</ele>
        <time>2023-07-18T08:46:07Z</time>
      </trkpt>
      <trkpt lat="47.32164" lon="0.40561">
        <ele>52.2</ele>
        <time>2023-07-18T08:46:08Z</time>
      </trkpt>
      <trkpt lat="47.32167" lon="0.4057">
        <ele>52.2</ele>
        <time>2023-07-18T08:46:09Z</time>
      </trkpt>
      <trkpt lat="47.32171" lon="0.4058">
        <ele>52.2</ele>
        <time>2023-07-18T08:46:10Z</time>
      </trkpt>
      <trkpt lat="47.32174" lon="0.40589">
        <ele>52.2</ele>
        <time>2023-07-18T08:46:11Z</time>
      </trkpt>
      <trkpt lat="47.32178" lon="0.40598">
        <ele>52.2</ele>
        <time>2023-07-18T08:46:12Z</time>
      </trkpt>
      <trkpt lat="47.32182" lon="0.40606">
        <ele>52</ele>
        <time>2023-07-18T08:46:13Z</time>
      </trkpt>
      <trkpt lat="47.32185" lon="0.40615">
        <ele>52</ele>
        <time>2023-07-18T08:46:14Z</time>
      </trkpt>
      <trkpt lat="47.3219" lon="0.40622">
        <ele>52</ele>
        <time>2023-07-18T08:46:15Z</time>
      </trkpt>
      <trkpt lat="47.32195" lon="0.40628">
        <ele>52</ele>
        <time>2023-07-18T08:46:16Z</time>
      </trkpt>
      <trkpt lat="47.322" lon="0.40631">
        <ele>51.6</ele>
        <time>2023-07-18T08:46:17Z</time>
      </trkpt>
      <trkpt lat="47.32206" lon="0.40633">
        <ele>51.4</ele>
        <time>2023-07-18T08:46:18Z</time>
      </trkpt>
      <trkpt lat="47.32212" lon="0.40635">
        <ele>51.2</ele>
        <time>2023-07-18T08:46:19Z</time>
      </trkpt>
      <trkpt lat="47.32219" lon="0.40638">
        <ele>51.2</ele>
        <time>2023-07-18T08:46:20Z</time>
      </trkpt>
      <trkpt lat="47.32225" lon="0.40641">
        <ele>51</ele>
        <time>2023-07-18T08:46:21Z</time>
      </trkpt>
      <trkpt lat="47.32233" lon="0.40642">
        <ele>50.6</ele>
        <time>2023-07-18T08:46:22Z</time>
      </trkpt>
      <trkpt lat="47.32241" lon="0.40641">
        <ele>50.2</ele>
        <time>2023-07-18T08:46:23Z</time>
      </trkpt>
      <trkpt lat="47.32249" lon="0.40638">
        <ele>49.8</ele>
        <time>2023-07-18T08:46:24Z</time>
      </trkpt>
      <trkpt lat="47.32256" lon="0.40635">
        <ele>49.8</ele>
        <time>2023-07-18T08:46:25Z</time>
      </trkpt>
      <trkpt lat="47.32265" lon="0.40631">
        <ele>49.6</ele>
        <time>2023-07-18T08:46:26Z</time>
      </trkpt>
      <trkpt lat="47.32272" lon="0.40627">
        <ele>49.4</ele>
        <time>2023-07-18T08:46:27Z</time>
      </trkpt>
      <trkpt lat="47.32278" lon="0.40623">
        <ele>49.2</ele>
        <time>2023-07-18T08:46:28Z</time>
      </trkpt>
      <trkpt lat="47.32284" lon="0.40622">
        <ele>49.2</ele>
        <time>2023-07-18T08:46:29Z</time>
      </trkpt>
      <trkpt lat="47.32291" lon="0.40622">
        <ele>49</ele>
        <time>2023-07-18T08:46:30Z</time>
      </trkpt>
      <trkpt lat="47.32295" lon="0.40626">
        <ele>48.8</ele>
        <time>2023-07-18T08:46:31Z</time>
      </trkpt>
      <trkpt lat="47.32297" lon="0.40633">
        <ele>48.8</ele>
        <time>2023-07-18T08:46:32Z</time>
      </trkpt>
      <trkpt lat="47.32298" lon="0.40642">
        <ele>48.8</ele>
        <time>2023-07-18T08:46:33Z</time>
      </trkpt>
      <trkpt lat="47.32299" lon="0.4065">
        <ele>48.8</ele>
        <time>2023-07-18T08:46:34Z</time>
      </trkpt>
      <trkpt lat="47.323" lon="0.40658">
        <ele>48.8</ele>
        <time>2023-07-18T08:46:35Z</time>
      </trkpt>
      <trkpt lat="47.32302" lon="0.40666">
        <ele>48.8</ele>
        <time>2023-07-18T08:46:36Z</time>
      </trkpt>
      <trkpt lat="47.32305" lon="0.40673">
        <ele>48.8</ele>
        <time>2023-07-18T08:46:37Z</time>
      </trkpt>
      <trkpt lat="47.32308" lon="0.40679">
        <ele>48.8</ele>
        <time>2023-07-18T08:46:38Z</time>
      </trkpt>
      <trkpt lat="47.32312" lon="0.40686">
        <ele>48.8</ele>
        <time>2023-07-18T08:46:39Z</time>
      </trkpt>
      <trkpt lat="47.32316" lon="0.40693">
        <ele>48.8</ele>
        <time>2023-07-18T08:46:40Z</time>
      </trkpt>
      <trkpt lat="47.3232" lon="0.407">
        <ele>48.8</ele>
        <time>2023-07-18T08:46:41Z</time>
      </trkpt>
      <trkpt lat="47.32324" lon="0.40708">
        <ele>49</ele>
        <time>2023-07-18T08:46:42Z</time>
      </trkpt>
      <trkpt lat="47.32327" lon="0.40717">
        <ele>49</ele>
        <time>2023-07-18T08:46:43Z</time>
      </trkpt>
      <trkpt lat="47.3233" lon="0.40725">
        <ele>49</ele>
        <time>2023-07-18T08:46:44Z</time>
      </trkpt>
      <trkpt lat="47.32333" lon="0.40733">
        <ele>49.2</ele>
        <time>2023-07-18T08:46:45Z</time>
      </trkpt>
      <trkpt lat="47.32335" lon="0.40742">
        <ele>49.2</ele>
        <time>2023-07-18T08:46:46Z</time>
      </trkpt>
      <trkpt lat="47.32338" lon="0.4075">
        <ele>49.2</ele>
        <time>2023-07-18T08:46:47Z</time>
      </trkpt>
      <trkpt lat="47.32341" lon="0.40758">
        <ele>49.2</ele>
        <time>2023-07-18T08:46:48Z</time>
      </trkpt>
      <trkpt lat="47.32344" lon="0.40766">
        <ele>49.2</ele>
        <time>2023-07-18T08:46:49Z</time>
      </trkpt>
      <trkpt lat="47.32347" lon="0.40774">
        <ele>49.2</ele>
        <time>2023-07-18T08:46:50Z</time>
      </trkpt>
      <trkpt lat="47.32352" lon="0.40782">
        <ele>49.2</ele>
        <time>2023-07-18T08:46:51Z</time>
      </trkpt>
      <trkpt lat="47.32355" lon="0.4079">
        <ele>49.2</ele>
        <time>2023-07-18T08:46:52Z</time>
      </trkpt>
      <trkpt lat="47.32357" lon="0.40798">
        <ele>49</ele>
        <time>2023-07-18T08:46:53Z</time>
      </trkpt>
      <trkpt lat="47.3236" lon="0.40806">
        <ele>49</ele>
        <time>2023-07-18T08:46:54Z</time>
      </trkpt>
      <trkpt lat="47.32361" lon="0.40814">
        <ele>49</ele>
        <time>2023-07-18T08:46:55Z</time>
      </trkpt>
      <trkpt lat="47.32364" lon="0.40821">
        <ele>49</ele>
        <time>2023-07-18T08:46:56Z</time>
      </trkpt>
      <trkpt lat="47.32366" lon="0.40827">
        <ele>49</ele>
        <time>2023-07-18T08:46:57Z</time>
      </trkpt>
      <trkpt lat="47.3237" lon="0.40833">
        <ele>48.8</ele>
        <time>2023-07-18T08:46:58Z</time>
      </trkpt>
      <trkpt lat="47.32373" lon="0.40837">
        <ele>48.6</ele>
        <time>2023-07-18T08:46:59Z</time>
      </trkpt>
      <trkpt lat="47.32378" lon="0.40839">
        <ele>48.4</ele>
        <time>2023-07-18T08:47:00Z</time>
      </trkpt>
      <trkpt lat="47.32382" lon="0.40839">
        <ele>48.2</ele>
        <time>2023-07-18T08:47:01Z</time>
      </trkpt>
      <trkpt lat="47.32387" lon="0.40836">
        <ele>48</ele>
        <time>2023-07-18T08:47:02Z</time>
      </trkpt>
      <trkpt lat="47.32391" lon="0.40832">
        <ele>48</ele>
        <time>2023-07-18T08:47:03Z</time>
      </trkpt>
      <trkpt lat="47.32394" lon="0.40829">
        <ele>47.8</ele>
        <time>2023-07-18T08:47:04Z</time>
      </trkpt>
      <trkpt lat="47.32397" lon="0.40824">
        <ele>47.8</ele>
        <time>2023-07-18T08:47:05Z</time>
      </trkpt>
      <trkpt lat="47.32401" lon="0.40818">
        <ele>47.6</ele>
        <time>2023-07-18T08:47:06Z</time>
      </trkpt>
      <trkpt lat="47.32404" lon="0.40813">
        <ele>47.6</ele>
        <time>2023-07-18T08:47:07Z</time>
      </trkpt>
      <trkpt lat="47.32408" lon="0.40807">
        <ele>47.6</ele>
        <time>2023-07-18T08:47:08Z</time>
      </trkpt>
      <trkpt lat="47.3241" lon="0.40801">
        <ele>47.6</ele>
        <time>2023-07-18T08:47:09Z</time>
      </trkpt>
      <trkpt lat="47.32413" lon="0.40794">
        <ele>47.6</ele>
        <time>2023-07-18T08:47:10Z</time>
      </trkpt>
      <trkpt lat="47.32415" lon="0.40789">
        <ele>47.6</ele>
        <time>2023-07-18T08:47:11Z</time>
      </trkpt>
      <trkpt lat="47.32418" lon="0.40783">
        <ele>47.6</ele>
        <time>2023-07-18T08:47:12Z</time>
      </trkpt>
      <trkpt lat="47.3242" lon="0.40778">
        <ele>47.6</ele>
        <time>2023-07-18T08:47:13Z</time>
      </trkpt>
      <trkpt lat="47.32422" lon="0.40773">
        <ele>47.6</ele>
        <time>2023-07-18T08:47:14Z</time>
      </trkpt>
      <trkpt lat="47.32423" lon="0.40768">
        <ele>47.6</ele>
        <time>2023-07-18T08:47:15Z</time>
      </trkpt>
      <trkpt lat="47.32425" lon="0.40765">
        <ele>47.8</ele>
        <time>2023-07-18T08:47:16Z</time>
      </trkpt>
      <trkpt lat="47.32426" lon="0.40762">
        <ele>47.8</ele>
        <time>2023-07-18T08:47:17Z</time>
      </trkpt>
      <trkpt lat="47.32429" lon="0.40759">
        <ele>47.8</ele>
        <time>2023-07-18T08:47:18Z</time>
      </trkpt>
      <trkpt lat="47.32431" lon="0.40758">
        <ele>47.8</ele>
        <time>2023-07-18T08:47:19Z</time>
      </trkpt>
      <trkpt lat="47.32432" lon="0.40757">
        <ele>47.6</ele>
        <time>2023-07-18T08:47:25Z</time>
      </trkpt>
      <trkpt lat="47.32432" lon="0.40757">
        <ele>47.8</ele>
        <time>2023-07-18T08:47:26Z</time>
      </trkpt>
      <trkpt lat="47.32433" lon="0.40757">
        <ele>47.8</ele>
        <time>2023-07-18T08:47:27Z</time>
      </trkpt>
      <trkpt lat="47.32434" lon="0.40756">
        <ele>47.8</ele>
        <time>2023-07-18T08:47:28Z</time>
      </trkpt>
      <trkpt lat="47.32434" lon="0.40755">
        <ele>47.6</ele>
        <time>2023-07-18T08:47:29Z</time>
      </trkpt>
      <trkpt lat="47.32434" lon="0.40755">
        <ele>47.6</ele>
        <time>2023-07-18T08:47:30Z</time>
      </trkpt>
      <trkpt lat="47.32434" lon="0.40755">
        <ele>47.6</ele>
        <time>2023-07-18T08:47:31Z</time>
      </trkpt>
      <trkpt lat="47.32434" lon="0.40755">
        <ele>47.6</ele>
        <time>2023-07-18T08:47:32Z</time>
      </trkpt>
      <trkpt lat="47.32434" lon="0.40755">
        <ele>47.6</ele>
        <time>2023-07-18T08:47:33Z</time>
      </trkpt>
      <trkpt lat="47.32435" lon="0.40754">
        <ele>47.6</ele>
        <time>2023-07-18T08:48:20Z</time>
      </trkpt>
      <trkpt lat="47.32435" lon="0.40753">
        <ele>47.6</ele>
        <time>2023-07-18T08:48:21Z</time>
      </trkpt>
      <trkpt lat="47.32435" lon="0.40753">
        <ele>47.6</ele>
        <time>2023-07-18T08:48:22Z</time>
      </trkpt>
      <trkpt lat="47.32436" lon="0.40753">
        <ele>47.6</ele>
        <time>2023-07-18T08:48:23Z</time>
      </trkpt>
      <trkpt lat="47.32438" lon="0.40755">
        <ele>47.8</ele>
        <time>2023-07-18T08:48:24Z</time>
      </trkpt>
      <trkpt lat="47.32441" lon="0.40757">
        <ele>47.8</ele>
        <time>2023-07-18T08:48:25Z</time>
      </trkpt>
      <trkpt lat="47.32444" lon="0.40759">
        <ele>47.8</ele>
        <time>2023-07-18T08:48:26Z</time>
      </trkpt>
      <trkpt lat="47.32447" lon="0.40759">
        <ele>47.8</ele>
        <time>2023-07-18T08:48:27Z</time>
      </trkpt>
      <trkpt lat="47.3245" lon="0.40759">
        <ele>48</ele>
        <time>2023-07-18T08:48:28Z</time>
      </trkpt>
      <trkpt lat="47.32455" lon="0.40761">
        <ele>48</ele>
        <time>2023-07-18T08:48:29Z</time>
      </trkpt>
      <trkpt lat="47.32458" lon="0.40764">
        <ele>48</ele>
        <time>2023-07-18T08:48:30Z</time>
      </trkpt>
      <trkpt lat="47.32462" lon="0.40768">
        <ele>48</ele>
        <time>2023-07-18T08:48:31Z</time>
      </trkpt>
      <trkpt lat="47.32465" lon="0.40772">
        <ele>48.2</ele>
        <time>2023-07-18T08:48:32Z</time>
      </trkpt>
      <trkpt lat="47.32469" lon="0.40776">
        <ele>48.2</ele>
        <time>2023-07-18T08:48:33Z</time>
      </trkpt>
      <trkpt lat="47.32472" lon="0.40779">
        <ele>48</ele>
        <time>2023-07-18T08:48:34Z</time>
      </trkpt>
      <trkpt lat="47.32476" lon="0.40783">
        <ele>48.2</ele>
        <time>2023-07-18T08:48:35Z</time>
      </trkpt>
      <trkpt lat="47.32478" lon="0.40787">
        <ele>48.2</ele>
        <time>2023-07-18T08:48:36Z</time>
      </trkpt>
      <trkpt lat="47.32481" lon="0.40791">
        <ele>48.4</ele>
        <time>2023-07-18T08:48:37Z</time>
      </trkpt>
      <trkpt lat="47.32484" lon="0.40795">
        <ele>48.4</ele>
        <time>2023-07-18T08:48:38Z</time>
      </trkpt>
      <trkpt lat="47.32486" lon="0.40798">
        <ele>48.6</ele>
        <time>2023-07-18T08:48:39Z</time>
      </trkpt>
      <trkpt lat="47.32489" lon="0.40802">
        <ele>48.6</ele>
        <time>2023-07-18T08:48:40Z</time>
      </trkpt>
      <trkpt lat="47.32491" lon="0.40805">
        <ele>48.8</ele>
        <time>2023-07-18T08:48:41Z</time>
      </trkpt>
      <trkpt lat="47.32494" lon="0.40808">
        <ele>48.8</ele>
        <time>2023-07-18T08:48:42Z</time>
      </trkpt>
      <trkpt lat="47.32495" lon="0.40809">
        <ele>48.6</ele>
        <time>2023-07-18T08:48:43Z</time>
      </trkpt>
      <trkpt lat="47.32496" lon="0.4081">
        <ele>48.6</ele>
        <time>2023-07-18T08:48:44Z</time>
      </trkpt>
      <trkpt lat="47.32498" lon="0.40811">
        <ele>48.6</ele>
        <time>2023-07-18T08:48:45Z</time>
      </trkpt>
      <trkpt lat="47.32499" lon="0.40813">
        <ele>48.6</ele>
        <time>2023-07-18T08:48:46Z</time>
      </trkpt>
      <trkpt lat="47.32501" lon="0.40815">
        <ele>48.6</ele>
        <time>2023-07-18T08:48:47Z</time>
      </trkpt>
      <trkpt lat="47.32503" lon="0.40817">
        <ele>48.6</ele>
        <time>2023-07-18T08:48:48Z</time>
      </trkpt>
      <trkpt lat="47.32506" lon="0.40819">
        <ele>48.6</ele>
        <time>2023-07-18T08:48:49Z</time>
      </trkpt>
      <trkpt lat="47.32509" lon="0.4082">
        <ele>48.6</ele>
        <time>2023-07-18T08:48:50Z</time>
      </trkpt>
      <trkpt lat="47.32514" lon="0.4082">
        <ele>48.6</ele>
        <time>2023-07-18T08:48:51Z</time>
      </trkpt>
      <trkpt lat="47.32518" lon="0.4082">
        <ele>48.6</ele>
        <time>2023-07-18T08:48:52Z</time>
      </trkpt>
      <trkpt lat="47.32524" lon="0.40821">
        <ele>48.6</ele>
        <time>2023-07-18T08:48:53Z</time>
      </trkpt>
      <trkpt lat="47.32528" lon="0.40824">
        <ele>48.8</ele>
        <time>2023-07-18T08:48:54Z</time>
      </trkpt>
      <trkpt lat="47.32532" lon="0.40828">
        <ele>49</ele>
        <time>2023-07-18T08:48:55Z</time>
      </trkpt>
      <trkpt lat="47.32536" lon="0.40832">
        <ele>49</ele>
        <time>2023-07-18T08:48:56Z</time>
      </trkpt>
      <trkpt lat="47.32541" lon="0.40836">
        <ele>49.2</ele>
        <time>2023-07-18T08:48:57Z</time>
      </trkpt>
      <trkpt lat="47.32545" lon="0.4084">
        <ele>49.2</ele>
        <time>2023-07-18T08:48:58Z</time>
      </trkpt>
      <trkpt lat="47.32549" lon="0.40844">
        <ele>49.2</ele>
        <time>2023-07-18T08:48:59Z</time>
      </trkpt>
      <trkpt lat="47.32553" lon="0.40848">
        <ele>49.2</ele>
        <time>2023-07-18T08:49:00Z</time>
      </trkpt>
      <trkpt lat="47.32557" lon="0.40852">
        <ele>49.4</ele>
        <time>2023-07-18T08:49:01Z</time>
      </trkpt>
      <trkpt lat="47.32561" lon="0.40855">
        <ele>49.4</ele>
        <time>2023-07-18T08:49:02Z</time>
      </trkpt>
      <trkpt lat="47.32566" lon="0.40858">
        <ele>49.4</ele>
        <time>2023-07-18T08:49:03Z</time>
      </trkpt>
      <trkpt lat="47.3257" lon="0.40862">
        <ele>49.4</ele>
        <time>2023-07-18T08:49:04Z</time>
      </trkpt>
      <trkpt lat="47.32574" lon="0.40866">
        <ele>49.6</ele>
        <time>2023-07-18T08:49:05Z</time>
      </trkpt>
      <trkpt lat="47.32578" lon="0.4087">
        <ele>49.6</ele>
        <time>2023-07-18T08:49:06Z</time>
      </trkpt>
      <trkpt lat="47.32582" lon="0.40874">
        <ele>49.4</ele>
        <time>2023-07-18T08:49:07Z</time>
      </trkpt>
      <trkpt lat="47.32586" lon="0.40878">
        <ele>49.4</ele>
        <time>2023-07-18T08:49:08Z</time>
      </trkpt>
      <trkpt lat="47.3259" lon="0.40881">
        <ele>49.4</ele>
        <time>2023-07-18T08:49:09Z</time>
      </trkpt>
      <trkpt lat="47.32594" lon="0.40886">
        <ele>49.4</ele>
        <time>2023-07-18T08:49:10Z</time>
      </trkpt>
      <trkpt lat="47.32599" lon="0.4089">
        <ele>49.2</ele>
        <time>2023-07-18T08:49:11Z</time>
      </trkpt>
      <trkpt lat="47.32604" lon="0.40892">
        <ele>49.2</ele>
        <time>2023-07-18T08:49:12Z</time>
      </trkpt>
      <trkpt lat="47.32609" lon="0.40891">
        <ele>49.2</ele>
        <time>2023-07-18T08:49:13Z</time>
      </trkpt>
      <trkpt lat="47.32613" lon="0.40888">
        <ele>49.4</ele>
        <time>2023-07-18T08:49:14Z</time>
      </trkpt>
      <trkpt lat="47.32618" lon="0.40885">
        <ele>49.4</ele>
        <time>2023-07-18T08:49:15Z</time>
      </trkpt>
      <trkpt lat="47.32623" lon="0.40882">
        <ele>49.6</ele>
        <time>2023-07-18T08:49:16Z</time>
      </trkpt>
      <trkpt lat="47.32627" lon="0.4088">
        <ele>49.6</ele>
        <time>2023-07-18T08:49:17Z</time>
      </trkpt>
      <trkpt lat="47.32632" lon="0.40878">
        <ele>49.8</ele>
        <time>2023-07-18T08:49:18Z</time>
      </trkpt>
      <trkpt lat="47.32637" lon="0.40876">
        <ele>49.8</ele>
        <time>2023-07-18T08:49:19Z</time>
      </trkpt>
      <trkpt lat="47.32641" lon="0.40874">
        <ele>50.2</ele>
        <time>2023-07-18T08:49:20Z</time>
      </trkpt>
      <trkpt lat="47.32645" lon="0.40871">
        <ele>50.2</ele>
        <time>2023-07-18T08:49:21Z</time>
      </trkpt>
      <trkpt lat="47.32649" lon="0.40869">
        <ele>50.4</ele>
        <time>2023-07-18T08:49:22Z</time>
      </trkpt>
      <trkpt lat="47.32653" lon="0.40867">
        <ele>50.4</ele>
        <time>2023-07-18T08:49:23Z</time>
      </trkpt>
      <trkpt lat="47.32658" lon="0.40865">
        <ele>50.6</ele>
        <time>2023-07-18T08:49:24Z</time>
      </trkpt>
      <trkpt lat="47.32662" lon="0.40863">
        <ele>50.8</ele>
        <time>2023-07-18T08:49:25Z</time>
      </trkpt>
      <trkpt lat="47.32666" lon="0.40861">
        <ele>51</ele>
        <time>2023-07-18T08:49:26Z</time>
      </trkpt>
      <trkpt lat="47.32669" lon="0.4086">
        <ele>51</ele>
        <time>2023-07-18T08:49:27Z</time>
      </trkpt>
      <trkpt lat="47.32673" lon="0.40858">
        <ele>51.2</ele>
        <time>2023-07-18T08:49:28Z</time>
      </trkpt>
      <trkpt lat="47.32677" lon="0.40856">
        <ele>51.4</ele>
        <time>2023-07-18T08:49:29Z</time>
      </trkpt>
      <trkpt lat="47.32681" lon="0.40855">
        <ele>51.6</ele>
        <time>2023-07-18T08:49:30Z</time>
      </trkpt>
      <trkpt lat="47.32684" lon="0.40853">
        <ele>51.8</ele>
        <time>2023-07-18T08:49:31Z</time>
      </trkpt>
      <trkpt lat="47.32689" lon="0.40852">
        <ele>52</ele>
        <time>2023-07-18T08:49:32Z</time>
      </trkpt>
      <trkpt lat="47.32692" lon="0.40849">
        <ele>52.2</ele>
        <time>2023-07-18T08:49:33Z</time>
      </trkpt>
      <trkpt lat="47.32697" lon="0.40848">
        <ele>52.4</ele>
        <time>2023-07-18T08:49:34Z</time>
      </trkpt>
      <trkpt lat="47.32701" lon="0.40846">
        <ele>52.6</ele>
        <time>2023-07-18T08:49:35Z</time>
      </trkpt>
      <trkpt lat="47.32706" lon="0.40846">
        <ele>52.8</ele>
        <time>2023-07-18T08:49:36Z</time>
      </trkpt>
      <trkpt lat="47.3271" lon="0.40844">
        <ele>53</ele>
        <time>2023-07-18T08:49:37Z</time>
      </trkpt>
      <trkpt lat="47.32713" lon="0.40842">
        <ele>53.4</ele>
        <time>2023-07-18T08:49:38Z</time>
      </trkpt>
      <trkpt lat="47.32716" lon="0.40839">
        <ele>53.8</ele>
        <time>2023-07-18T08:49:39Z</time>
      </trkpt>
      <trkpt lat="47.32719" lon="0.40838">
        <ele>54</ele>
        <time>2023-07-18T08:49:40Z</time>
      </trkpt>
      <trkpt lat="47.32723" lon="0.40836">
        <ele>54.4</ele>
        <time>2023-07-18T08:49:41Z</time>
      </trkpt>
      <trkpt lat="47.32727" lon="0.40835">
        <ele>54.6</ele>
        <time>2023-07-18T08:49:42Z</time>
      </trkpt>
      <trkpt lat="47.32731" lon="0.40833">
        <ele>54.8</ele>
        <time>2023-07-18T08:49:43Z</time>
      </trkpt>
      <trkpt lat="47.32736" lon="0.40831">
        <ele>55.2</ele>
        <time>2023-07-18T08:49:44Z</time>
      </trkpt>
      <trkpt lat="47.3274" lon="0.40831">
        <ele>55.4</ele>
        <time>2023-07-18T08:49:45Z</time>
      </trkpt>
      <trkpt lat="47.32743" lon="0.40831">
        <ele>55.8</ele>
        <time>2023-07-18T08:49:46Z</time>
      </trkpt>
      <trkpt lat="47.32747" lon="0.40832">
        <ele>56</ele>
        <time>2023-07-18T08:49:47Z</time>
      </trkpt>
      <trkpt lat="47.32752" lon="0.40834">
        <ele>56.4</ele>
        <time>2023-07-18T08:49:48Z</time>
      </trkpt>
      <trkpt lat="47.32757" lon="0.40836">
        <ele>56.6</ele>
        <time>2023-07-18T08:49:49Z</time>
      </trkpt>
      <trkpt lat="47.32761" lon="0.40838">
        <ele>57</ele>
        <time>2023-07-18T08:49:50Z</time>
      </trkpt>
      <trkpt lat="47.32765" lon="0.4084">
        <ele>57.4</ele>
        <time>2023-07-18T08:49:51Z</time>
      </trkpt>
      <trkpt lat="47.32768" lon="0.40843">
        <ele>57.6</ele>
        <time>2023-07-18T08:49:52Z</time>
      </trkpt>
      <trkpt lat="47.32772" lon="0.40847">
        <ele>57.8</ele>
        <time>2023-07-18T08:49:53Z</time>
      </trkpt>
      <trkpt lat="47.32777" lon="0.4085">
        <ele>58</ele>
        <time>2023-07-18T08:49:54Z</time>
      </trkpt>
      <trkpt lat="47.32782" lon="0.40854">
        <ele>58.2</ele>
        <time>2023-07-18T08:49:55Z</time>
      </trkpt>
      <trkpt lat="47.32787" lon="0.40858">
        <ele>58.4</ele>
        <time>2023-07-18T08:49:56Z</time>
      </trkpt>
      <trkpt lat="47.32791" lon="0.40863">
        <ele>58.6</ele>
        <time>2023-07-18T08:49:57Z</time>
      </trkpt>
      <trkpt lat="47.32795" lon="0.40867">
        <ele>58.8</ele>
        <time>2023-07-18T08:49:58Z</time>
      </trkpt>
      <trkpt lat="47.32798" lon="0.40874">
        <ele>59</ele>
        <time>2023-07-18T08:49:59Z</time>
      </trkpt>
      <trkpt lat="47.32801" lon="0.40878">
        <ele>59.2</ele>
        <time>2023-07-18T08:50:00Z</time>
      </trkpt>
      <trkpt lat="47.32804" lon="0.40884">
        <ele>59.4</ele>
        <time>2023-07-18T08:50:01Z</time>
      </trkpt>
      <trkpt lat="47.32807" lon="0.4089">
        <ele>59.6</ele>
        <time>2023-07-18T08:50:02Z</time>
      </trkpt>
      <trkpt lat="47.32809" lon="0.40896">
        <ele>59.8</ele>
        <time>2023-07-18T08:50:03Z</time>
      </trkpt>
      <trkpt lat="47.3281" lon="0.40903">
        <ele>60</ele>
        <time>2023-07-18T08:50:04Z</time>
      </trkpt>
      <trkpt lat="47.32812" lon="0.40908">
        <ele>60.2</ele>
        <time>2023-07-18T08:50:05Z</time>
      </trkpt>
      <trkpt lat="47.32815" lon="0.40914">
        <ele>60.2</ele>
        <time>2023-07-18T08:50:06Z</time>
      </trkpt>
      <trkpt lat="47.32817" lon="0.4092">
        <ele>60.4</ele>
        <time>2023-07-18T08:50:07Z</time>
      </trkpt>
      <trkpt lat="47.32819" lon="0.40926">
        <ele>60.6</ele>
        <time>2023-07-18T08:50:08Z</time>
      </trkpt>
      <trkpt lat="47.32822" lon="0.40932">
        <ele>60.8</ele>
        <time>2023-07-18T08:50:09Z</time>
      </trkpt>
      <trkpt lat="47.32825" lon="0.40937">
        <ele>61</ele>
        <time>2023-07-18T08:50:10Z</time>
      </trkpt>
      <trkpt lat="47.32827" lon="0.40942">
        <ele>61.2</ele>
        <time>2023-07-18T08:50:11Z</time>
      </trkpt>
      <trkpt lat="47.3283" lon="0.40949">
        <ele>61.4</ele>
        <time>2023-07-18T08:50:12Z</time>
      </trkpt>
      <trkpt lat="47.32832" lon="0.40954">
        <ele>61.6</ele>
        <time>2023-07-18T08:50:13Z</time>
      </trkpt>
      <trkpt lat="47.32834" lon="0.40959">
        <ele>61.8</ele>
        <time>2023-07-18T08:50:14Z</time>
      </trkpt>
      <trkpt lat="47.32836" lon="0.40965">
        <ele>62</ele>
        <time>2023-07-18T08:50:15Z</time>
      </trkpt>
      <trkpt lat="47.32838" lon="0.40971">
        <ele>62.2</ele>
        <time>2023-07-18T08:50:16Z</time>
      </trkpt>
      <trkpt lat="47.32841" lon="0.40978">
        <ele>62.4</ele>
        <time>2023-07-18T08:50:17Z</time>
      </trkpt>
      <trkpt lat="47.32843" lon="0.40984">
        <ele>62.6</ele>
        <time>2023-07-18T08:50:18Z</time>
      </trkpt>
      <trkpt lat="47.32845" lon="0.4099">
        <ele>62.8</ele>
        <time>2023-07-18T08:50:19Z</time>
      </trkpt>
      <trkpt lat="47.32848" lon="0.40996">
        <ele>63</ele>
        <time>2023-07-18T08:50:20Z</time>
      </trkpt>
      <trkpt lat="47.3285" lon="0.41003">
        <ele>63</ele>
        <time>2023-07-18T08:50:21Z</time>
      </trkpt>
      <trkpt lat="47.32852" lon="0.41009">
        <ele>63.2</ele>
        <time>2023-07-18T08:50:22Z</time>
      </trkpt>
      <trkpt lat="47.32855" lon="0.41015">
        <ele>63.2</ele>
        <time>2023-07-18T08:50:23Z</time>
      </trkpt>
      <trkpt lat="47.32858" lon="0.41021">
        <ele>63.4</ele>
        <time>2023-07-18T08:50:24Z</time>
      </trkpt>
      <trkpt lat="47.32861" lon="0.41026">
        <ele>63.6</ele>
        <time>2023-07-18T08:50:25Z</time>
      </trkpt>
      <trkpt lat="47.32864" lon="0.41032">
        <ele>64</ele>
        <time>2023-07-18T08:50:26Z</time>
      </trkpt>
      <trkpt lat="47.32867" lon="0.41037">
        <ele>64</ele>
        <time>2023-07-18T08:50:27Z</time>
      </trkpt>
      <trkpt lat="47.3287" lon="0.41042">
        <ele>64.2</ele>
        <time>2023-07-18T08:50:28Z</time>
      </trkpt>
      <trkpt lat="47.32874" lon="0.41046">
        <ele>64.4</ele>
        <time>2023-07-18T08:50:29Z</time>
      </trkpt>
      <trkpt lat="47.32877" lon="0.41051">
        <ele>64.6</ele>
        <time>2023-07-18T08:50:30Z</time>
      </trkpt>
      <trkpt lat="47.32881" lon="0.41055">
        <ele>64.6</ele>
        <time>2023-07-18T08:50:31Z</time>
      </trkpt>
      <trkpt lat="47.32885" lon="0.41059">
        <ele>64.8</ele>
        <time>2023-07-18T08:50:32Z</time>
      </trkpt>
      <trkpt lat="47.3289" lon="0.41063">
        <ele>65</ele>
        <time>2023-07-18T08:50:33Z</time>
      </trkpt>
      <trkpt lat="47.32893" lon="0.41067">
        <ele>65.2</ele>
        <time>2023-07-18T08:50:34Z</time>
      </trkpt>
      <trkpt lat="47.32897" lon="0.41071">
        <ele>65.2</ele>
        <time>2023-07-18T08:50:35Z</time>
      </trkpt>
      <trkpt lat="47.329" lon="0.41074">
        <ele>65.4</ele>
        <time>2023-07-18T08:50:36Z</time>
      </trkpt>
      <trkpt lat="47.32904" lon="0.41078">
        <ele>65.6</ele>
        <time>2023-07-18T08:50:37Z</time>
      </trkpt>
      <trkpt lat="47.32909" lon="0.4108">
        <ele>65.8</ele>
        <time>2023-07-18T08:50:38Z</time>
      </trkpt>
      <trkpt lat="47.32913" lon="0.41083">
        <ele>66</ele>
        <time>2023-07-18T08:50:39Z</time>
      </trkpt>
      <trkpt lat="47.32916" lon="0.41086">
        <ele>66.2</ele>
        <time>2023-07-18T08:50:40Z</time>
      </trkpt>
      <trkpt lat="47.3292" lon="0.41089">
        <ele>66.4</ele>
        <time>2023-07-18T08:50:41Z</time>
      </trkpt>
      <trkpt lat="47.32925" lon="0.41092">
        <ele>66.6</ele>
        <time>2023-07-18T08:50:42Z</time>
      </trkpt>
      <trkpt lat="47.32929" lon="0.41094">
        <ele>66.8</ele>
        <time>2023-07-18T08:50:43Z</time>
      </trkpt>
      <trkpt lat="47.32933" lon="0.41097">
        <ele>67</ele>
        <time>2023-07-18T08:50:44Z</time>
      </trkpt>
      <trkpt lat="47.32937" lon="0.411">
        <ele>67.2</ele>
        <time>2023-07-18T08:50:45Z</time>
      </trkpt>
      <trkpt lat="47.32941" lon="0.41103">
        <ele>67.4</ele>
        <time>2023-07-18T08:50:46Z</time>
      </trkpt>
      <trkpt lat="47.32945" lon="0.41106">
        <ele>67.4</ele>
        <time>2023-07-18T08:50:47Z</time>
      </trkpt>
      <trkpt lat="47.32949" lon="0.41109">
        <ele>67.8</ele>
        <time>2023-07-18T08:50:48Z</time>
      </trkpt>
      <trkpt lat="47.32952" lon="0.41112">
        <ele>68</ele>
        <time>2023-07-18T08:50:49Z</time>
      </trkpt>
      <trkpt lat="47.32956" lon="0.41115">
        <ele>68.2</ele>
        <time>2023-07-18T08:50:50Z</time>
      </trkpt>
      <trkpt lat="47.32961" lon="0.41118">
        <ele>68.4</ele>
        <time>2023-07-18T08:50:51Z</time>
      </trkpt>
      <trkpt lat="47.32965" lon="0.4112">
        <ele>68.6</ele>
        <time>2023-07-18T08:50:52Z</time>
      </trkpt>
      <trkpt lat="47.32969" lon="0.41123">
        <ele>68.8</ele>
        <time>2023-07-18T08:50:53Z</time>
      </trkpt>
      <trkpt lat="47.32973" lon="0.41125">
        <ele>69</ele>
        <time>2023-07-18T08:50:54Z</time>
      </trkpt>
      <trkpt lat="47.32977" lon="0.41129">
        <ele>69.2</ele>
        <time>2023-07-18T08:50:55Z</time>
      </trkpt>
      <trkpt lat="47.32981" lon="0.41132">
        <ele>69.4</ele>
        <time>2023-07-18T08:50:56Z</time>
      </trkpt>
      <trkpt lat="47.32986" lon="0.41134">
        <ele>69.6</ele>
        <time>2023-07-18T08:50:57Z</time>
      </trkpt>
      <trkpt lat="47.3299" lon="0.41136">
        <ele>69.8</ele>
        <time>2023-07-18T08:50:58Z</time>
      </trkpt>
      <trkpt lat="47.32994" lon="0.41139">
        <ele>70</ele>
        <time>2023-07-18T08:50:59Z</time>
      </trkpt>
      <trkpt lat="47.32998" lon="0.41141">
        <ele>70.2</ele>
        <time>2023-07-18T08:51:00Z</time>
      </trkpt>
      <trkpt lat="47.33002" lon="0.41143">
        <ele>70.4</ele>
        <time>2023-07-18T08:51:01Z</time>
      </trkpt>
      <trkpt lat="47.33007" lon="0.41145">
        <ele>70.6</ele>
        <time>2023-07-18T08:51:02Z</time>
      </trkpt>
      <trkpt lat="47.33011" lon="0.41147">
        <ele>70.8</ele>
        <time>2023-07-18T08:51:03Z</time>
      </trkpt>
      <trkpt lat="47.33015" lon="0.41149">
        <ele>71</ele>
        <time>2023-07-18T08:51:04Z</time>
      </trkpt>
      <trkpt lat="47.3302" lon="0.4115">
        <ele>71.2</ele>
        <time>2023-07-18T08:51:05Z</time>
      </trkpt>
      <trkpt lat="47.33025" lon="0.41151">
        <ele>71.4</ele>
        <time>2023-07-18T08:51:06Z</time>
      </trkpt>
      <trkpt lat="47.33029" lon="0.41151">
        <ele>71.8</ele>
        <time>2023-07-18T08:51:07Z</time>
      </trkpt>
      <trkpt lat="47.33034" lon="0.41151">
        <ele>72</ele>
        <time>2023-07-18T08:51:08Z</time>
      </trkpt>
      <trkpt lat="47.33038" lon="0.41152">
        <ele>72</ele>
        <time>2023-07-18T08:51:09Z</time>
      </trkpt>
      <trkpt lat="47.33043" lon="0.41152">
        <ele>72.2</ele>
        <time>2023-07-18T08:51:10Z</time>
      </trkpt>
      <trkpt lat="47.33048" lon="0.41152">
        <ele>72.2</ele>
        <time>2023-07-18T08:51:11Z</time>
      </trkpt>
      <trkpt lat="47.33053" lon="0.41153">
        <ele>72.4</ele>
        <time>2023-07-18T08:51:12Z</time>
      </trkpt>
      <trkpt lat="47.33058" lon="0.41153">
        <ele>72.6</ele>
        <time>2023-07-18T08:51:13Z</time>
      </trkpt>
      <trkpt lat="47.33063" lon="0.41152">
        <ele>72.8</ele>
        <time>2023-07-18T08:51:14Z</time>
      </trkpt>
      <trkpt lat="47.33068" lon="0.41152">
        <ele>72.8</ele>
        <time>2023-07-18T08:51:15Z</time>
      </trkpt>
      <trkpt lat="47.33073" lon="0.41152">
        <ele>73</ele>
        <time>2023-07-18T08:51:16Z</time>
      </trkpt>
      <trkpt lat="47.33078" lon="0.41151">
        <ele>73.2</ele>
        <time>2023-07-18T08:51:17Z</time>
      </trkpt>
      <trkpt lat="47.33083" lon="0.41151">
        <ele>73.4</ele>
        <time>2023-07-18T08:51:18Z</time>
      </trkpt>
      <trkpt lat="47.33088" lon="0.41151">
        <ele>73.6</ele>
        <time>2023-07-18T08:51:19Z</time>
      </trkpt>
      <trkpt lat="47.33092" lon="0.4115">
        <ele>73.6</ele>
        <time>2023-07-18T08:51:20Z</time>
      </trkpt>
      <trkpt lat="47.33097" lon="0.4115">
        <ele>73.8</ele>
        <time>2023-07-18T08:51:21Z</time>
      </trkpt>
      <trkpt lat="47.33102" lon="0.4115">
        <ele>73.8</ele>
        <time>2023-07-18T08:51:22Z</time>
      </trkpt>
      <trkpt lat="47.33107" lon="0.41149">
        <ele>74</ele>
        <time>2023-07-18T08:51:23Z</time>
      </trkpt>
      <trkpt lat="47.33112" lon="0.41148">
        <ele>74</ele>
        <time>2023-07-18T08:51:24Z</time>
      </trkpt>
      <trkpt lat="47.33116" lon="0.41148">
        <ele>74.2</ele>
        <time>2023-07-18T08:51:25Z</time>
      </trkpt>
      <trkpt lat="47.33121" lon="0.41148">
        <ele>74.4</ele>
        <time>2023-07-18T08:51:26Z</time>
      </trkpt>
      <trkpt lat="47.33126" lon="0.41148">
        <ele>74.4</ele>
        <time>2023-07-18T08:51:27Z</time>
      </trkpt>
      <trkpt lat="47.33131" lon="0.41147">
        <ele>74.6</ele>
        <time>2023-07-18T08:51:28Z</time>
      </trkpt>
      <trkpt lat="47.33136" lon="0.41147">
        <ele>74.8</ele>
        <time>2023-07-18T08:51:29Z</time>
      </trkpt>
      <trkpt lat="47.33141" lon="0.41147">
        <ele>75</ele>
        <time>2023-07-18T08:51:30Z</time>
      </trkpt>
      <trkpt lat="47.33146" lon="0.41147">
        <ele>75.2</ele>
        <time>2023-07-18T08:51:31Z</time>
      </trkpt>
      <trkpt lat="47.3315" lon="0.41148">
        <ele>75.2</ele>
        <time>2023-07-18T08:51:32Z</time>
      </trkpt>
      <trkpt lat="47.33155" lon="0.41148">
        <ele>75.4</ele>
        <time>2023-07-18T08:51:33Z</time>
      </trkpt>
      <trkpt lat="47.3316" lon="0.41148">
        <ele>75.6</ele>
        <time>2023-07-18T08:51:34Z</time>
      </trkpt>
      <trkpt lat="47.33165" lon="0.41148">
        <ele>75.6</ele>
        <time>2023-07-18T08:51:35Z</time>
      </trkpt>
      <trkpt lat="47.33169" lon="0.41148">
        <ele>75.8</ele>
        <time>2023-07-18T08:51:36Z</time>
      </trkpt>
      <trkpt lat="47.33174" lon="0.41148">
        <ele>76</ele>
        <time>2023-07-18T08:51:37Z</time>
      </trkpt>
      <trkpt lat="47.33179" lon="0.41148">
        <ele>76.2</ele>
        <time>2023-07-18T08:51:38Z</time>
      </trkpt>
      <trkpt lat="47.33183" lon="0.41149">
        <ele>76.4</ele>
        <time>2023-07-18T08:51:39Z</time>
      </trkpt>
      <trkpt lat="47.33188" lon="0.41149">
        <ele>76.6</ele>
        <time>2023-07-18T08:51:40Z</time>
      </trkpt>
      <trkpt lat="47.33193" lon="0.41149">
        <ele>76.6</ele>
        <time>2023-07-18T08:51:41Z</time>
      </trkpt>
      <trkpt lat="47.33197" lon="0.41148">
        <ele>76.8</ele>
        <time>2023-07-18T08:51:42Z</time>
      </trkpt>
      <trkpt lat="47.33202" lon="0.41146">
        <ele>77.2</ele>
        <time>2023-07-18T08:51:43Z</time>
      </trkpt>
      <trkpt lat="47.33207" lon="0.41145">
        <ele>77.2</ele>
        <time>2023-07-18T08:51:44Z</time>
      </trkpt>
      <trkpt lat="47.33212" lon="0.41143">
        <ele>77.4</ele>
        <time>2023-07-18T08:51:45Z</time>
      </trkpt>
      <trkpt lat="47.33217" lon="0.41141">
        <ele>77.4</ele>
        <time>2023-07-18T08:51:46Z</time>
      </trkpt>
      <trkpt lat="47.33222" lon="0.41139">
        <ele>77.6</ele>
        <time>2023-07-18T08:51:47Z</time>
      </trkpt>
      <trkpt lat="47.33227" lon="0.41136">
        <ele>77.6</ele>
        <time>2023-07-18T08:51:48Z</time>
      </trkpt>
      <trkpt lat="47.33231" lon="0.41133">
        <ele>77.8</ele>
        <time>2023-07-18T08:51:49Z</time>
      </trkpt>
      <trkpt lat="47.33236" lon="0.4113">
        <ele>77.8</ele>
        <time>2023-07-18T08:51:50Z</time>
      </trkpt>
      <trkpt lat="47.3324" lon="0.41126">
        <ele>78</ele>
        <time>2023-07-18T08:51:51Z</time>
      </trkpt>
      <trkpt lat="47.33245" lon="0.41123">
        <ele>78.2</ele>
        <time>2023-07-18T08:51:52Z</time>
      </trkpt>
      <trkpt lat="47.33249" lon="0.41119">
        <ele>78.2</ele>
        <time>2023-07-18T08:51:53Z</time>
      </trkpt>
      <trkpt lat="47.33253" lon="0.41114">
        <ele>78.4</ele>
        <time>2023-07-18T08:51:54Z</time>
      </trkpt>
      <trkpt lat="47.33256" lon="0.41109">
        <ele>78.6</ele>
        <time>2023-07-18T08:51:55Z</time>
      </trkpt>
      <trkpt lat="47.3326" lon="0.41105">
        <ele>78.8</ele>
        <time>2023-07-18T08:51:56Z</time>
      </trkpt>
      <trkpt lat="47.33263" lon="0.411">
        <ele>78.8</ele>
        <time>2023-07-18T08:51:57Z</time>
      </trkpt>
      <trkpt lat="47.33267" lon="0.41095">
        <ele>79</ele>
        <time>2023-07-18T08:51:58Z</time>
      </trkpt>
      <trkpt lat="47.33271" lon="0.4109">
        <ele>79</ele>
        <time>2023-07-18T08:51:59Z</time>
      </trkpt>
      <trkpt lat="47.33274" lon="0.41085">
        <ele>79.2</ele>
        <time>2023-07-18T08:52:00Z</time>
      </trkpt>
      <trkpt lat="47.33278" lon="0.41079">
        <ele>79.4</ele>
        <time>2023-07-18T08:52:01Z</time>
      </trkpt>
      <trkpt lat="47.33281" lon="0.41075">
        <ele>79.6</ele>
        <time>2023-07-18T08:52:02Z</time>
      </trkpt>
      <trkpt lat="47.33285" lon="0.4107">
        <ele>79.6</ele>
        <time>2023-07-18T08:52:03Z</time>
      </trkpt>
      <trkpt lat="47.33289" lon="0.41065">
        <ele>79.6</ele>
        <time>2023-07-18T08:52:04Z</time>
      </trkpt>
      <trkpt lat="47.33293" lon="0.4106">
        <ele>79.8</ele>
        <time>2023-07-18T08:52:05Z</time>
      </trkpt>
      <trkpt lat="47.33297" lon="0.41055">
        <ele>79.8</ele>
        <time>2023-07-18T08:52:06Z</time>
      </trkpt>
      <trkpt lat="47.33301" lon="0.4105">
        <ele>80</ele>
        <time>2023-07-18T08:52:07Z</time>
      </trkpt>
      <trkpt lat="47.33305" lon="0.41046">
        <ele>80.2</ele>
        <time>2023-07-18T08:52:08Z</time>
      </trkpt>
      <trkpt lat="47.33309" lon="0.41042">
        <ele>80.4</ele>
        <time>2023-07-18T08:52:09Z</time>
      </trkpt>
      <trkpt lat="47.33313" lon="0.41037">
        <ele>80.4</ele>
        <time>2023-07-18T08:52:10Z</time>
      </trkpt>
      <trkpt lat="47.33317" lon="0.41033">
        <ele>80.6</ele>
        <time>2023-07-18T08:52:11Z</time>
      </trkpt>
      <trkpt lat="47.33321" lon="0.4103">
        <ele>80.6</ele>
        <time>2023-07-18T08:52:12Z</time>
      </trkpt>
      <trkpt lat="47.33325" lon="0.41026">
        <ele>80.8</ele>
        <time>2023-07-18T08:52:13Z</time>
      </trkpt>
      <trkpt lat="47.33329" lon="0.41022">
        <ele>81</ele>
        <time>2023-07-18T08:52:14Z</time>
      </trkpt>
      <trkpt lat="47.33334" lon="0.41018">
        <ele>81</ele>
        <time>2023-07-18T08:52:15Z</time>
      </trkpt>
      <trkpt lat="47.33338" lon="0.41015">
        <ele>81.4</ele>
        <time>2023-07-18T08:52:16Z</time>
      </trkpt>
      <trkpt lat="47.33342" lon="0.41012">
        <ele>81.6</ele>
        <time>2023-07-18T08:52:17Z</time>
      </trkpt>
      <trkpt lat="47.33347" lon="0.4101">
        <ele>81.8</ele>
        <time>2023-07-18T08:52:18Z</time>
      </trkpt>
      <trkpt lat="47.33351" lon="0.41007">
        <ele>82</ele>
        <time>2023-07-18T08:52:19Z</time>
      </trkpt>
      <trkpt lat="47.33355" lon="0.41005">
        <ele>82.2</ele>
        <time>2023-07-18T08:52:20Z</time>
      </trkpt>
      <trkpt lat="47.3336" lon="0.41004">
        <ele>82.2</ele>
        <time>2023-07-18T08:52:21Z</time>
      </trkpt>
      <trkpt lat="47.33365" lon="0.41003">
        <ele>82.4</ele>
        <time>2023-07-18T08:52:22Z</time>
      </trkpt>
      <trkpt lat="47.3337" lon="0.41002">
        <ele>82.6</ele>
        <time>2023-07-18T08:52:23Z</time>
      </trkpt>
      <trkpt lat="47.33375" lon="0.41">
        <ele>82.6</ele>
        <time>2023-07-18T08:52:24Z</time>
      </trkpt>
      <trkpt lat="47.33379" lon="0.41">
        <ele>82.6</ele>
        <time>2023-07-18T08:52:25Z</time>
      </trkpt>
      <trkpt lat="47.33385" lon="0.40999">
        <ele>82.6</ele>
        <time>2023-07-18T08:52:26Z</time>
      </trkpt>
      <trkpt lat="47.33389" lon="0.40998">
        <ele>82.6</ele>
        <time>2023-07-18T08:52:27Z</time>
      </trkpt>
      <trkpt lat="47.33394" lon="0.40998">
        <ele>82.8</ele>
        <time>2023-07-18T08:52:28Z</time>
      </trkpt>
      <trkpt lat="47.334" lon="0.40997">
        <ele>82.8</ele>
        <time>2023-07-18T08:52:29Z</time>
      </trkpt>
      <trkpt lat="47.33405" lon="0.40997">
        <ele>83</ele>
        <time>2023-07-18T08:52:30Z</time>
      </trkpt>
      <trkpt lat="47.3341" lon="0.40996">
        <ele>83.2</ele>
        <time>2023-07-18T08:52:31Z</time>
      </trkpt>
      <trkpt lat="47.33415" lon="0.40995">
        <ele>83.4</ele>
        <time>2023-07-18T08:52:32Z</time>
      </trkpt>
      <trkpt lat="47.3342" lon="0.40995">
        <ele>83.6</ele>
        <time>2023-07-18T08:52:33Z</time>
      </trkpt>
      <trkpt lat="47.33425" lon="0.40994">
        <ele>83.8</ele>
        <time>2023-07-18T08:52:34Z</time>
      </trkpt>
      <trkpt lat="47.3343" lon="0.40993">
        <ele>84</ele>
        <time>2023-07-18T08:52:35Z</time>
      </trkpt>
      <trkpt lat="47.33435" lon="0.40992">
        <ele>84</ele>
        <time>2023-07-18T08:52:36Z</time>
      </trkpt>
      <trkpt lat="47.3344" lon="0.40991">
        <ele>84.2</ele>
        <time>2023-07-18T08:52:37Z</time>
      </trkpt>
      <trkpt lat="47.33445" lon="0.4099">
        <ele>84.2</ele>
        <time>2023-07-18T08:52:38Z</time>
      </trkpt>
      <trkpt lat="47.3345" lon="0.40989">
        <ele>84.4</ele>
        <time>2023-07-18T08:52:39Z</time>
      </trkpt>
      <trkpt lat="47.33456" lon="0.40987">
        <ele>84.4</ele>
        <time>2023-07-18T08:52:40Z</time>
      </trkpt>
      <trkpt lat="47.33461" lon="0.40986">
        <ele>84.6</ele>
        <time>2023-07-18T08:52:41Z</time>
      </trkpt>
      <trkpt lat="47.33466" lon="0.40985">
        <ele>84.8</ele>
        <time>2023-07-18T08:52:42Z</time>
      </trkpt>
      <trkpt lat="47.33471" lon="0.40984">
        <ele>84.8</ele>
        <time>2023-07-18T08:52:43Z</time>
      </trkpt>
      <trkpt lat="47.33475" lon="0.40983">
        <ele>84.8</ele>
        <time>2023-07-18T08:52:44Z</time>
      </trkpt>
      <trkpt lat="47.3348" lon="0.40982">
        <ele>85</ele>
        <time>2023-07-18T08:52:45Z</time>
      </trkpt>
      <trkpt lat="47.33486" lon="0.40982">
        <ele>85</ele>
        <time>2023-07-18T08:52:46Z</time>
      </trkpt>
      <trkpt lat="47.33491" lon="0.40981">
        <ele>85.2</ele>
        <time>2023-07-18T08:52:47Z</time>
      </trkpt>
      <trkpt lat="47.33496" lon="0.40981">
        <ele>85.4</ele>
        <time>2023-07-18T08:52:48Z</time>
      </trkpt>
      <trkpt lat="47.33501" lon="0.4098">
        <ele>85.6</ele>
        <time>2023-07-18T08:52:49Z</time>
      </trkpt>
      <trkpt lat="47.33506" lon="0.4098">
        <ele>85.8</ele>
        <time>2023-07-18T08:52:50Z</time>
      </trkpt>
      <trkpt lat="47.33511" lon="0.4098">
        <ele>86</ele>
        <time>2023-07-18T08:52:51Z</time>
      </trkpt>
      <trkpt lat="47.33516" lon="0.4098">
        <ele>86.2</ele>
        <time>2023-07-18T08:52:52Z</time>
      </trkpt>
      <trkpt lat="47.3352" lon="0.4098">
        <ele>86.2</ele>
        <time>2023-07-18T08:52:53Z</time>
      </trkpt>
      <trkpt lat="47.33525" lon="0.40981">
        <ele>86.4</ele>
        <time>2023-07-18T08:52:54Z</time>
      </trkpt>
      <trkpt lat="47.3353" lon="0.40981">
        <ele>86.6</ele>
        <time>2023-07-18T08:52:55Z</time>
      </trkpt>
      <trkpt lat="47.33535" lon="0.40981">
        <ele>86.8</ele>
        <time>2023-07-18T08:52:56Z</time>
      </trkpt>
      <trkpt lat="47.3354" lon="0.40981">
        <ele>87</ele>
        <time>2023-07-18T08:52:57Z</time>
      </trkpt>
      <trkpt lat="47.33544" lon="0.40981">
        <ele>87</ele>
        <time>2023-07-18T08:52:58Z</time>
      </trkpt>
      <trkpt lat="47.33549" lon="0.40981">
        <ele>87.2</ele>
        <time>2023-07-18T08:52:59Z</time>
      </trkpt>
      <trkpt lat="47.33554" lon="0.40982">
        <ele>87.4</ele>
        <time>2023-07-18T08:53:00Z</time>
      </trkpt>
      <trkpt lat="47.33559" lon="0.40982">
        <ele>87.4</ele>
        <time>2023-07-18T08:53:01Z</time>
      </trkpt>
      <trkpt lat="47.33563" lon="0.40982">
        <ele>87.6</ele>
        <time>2023-07-18T08:53:02Z</time>
      </trkpt>
      <trkpt lat="47.33568" lon="0.40982">
        <ele>87.6</ele>
        <time>2023-07-18T08:53:03Z</time>
      </trkpt>
      <trkpt lat="47.33573" lon="0.40982">
        <ele>87.6</ele>
        <time>2023-07-18T08:53:04Z</time>
      </trkpt>
      <trkpt lat="47.33578" lon="0.40981">
        <ele>87.6</ele>
        <time>2023-07-18T08:53:05Z</time>
      </trkpt>
      <trkpt lat="47.33583" lon="0.40981">
        <ele>87.8</ele>
        <time>2023-07-18T08:53:06Z</time>
      </trkpt>
      <trkpt lat="47.33588" lon="0.4098">
        <ele>87.8</ele>
        <time>2023-07-18T08:53:07Z</time>
      </trkpt>
      <trkpt lat="47.33593" lon="0.4098">
        <ele>88</ele>
        <time>2023-07-18T08:53:08Z</time>
      </trkpt>
      <trkpt lat="47.33597" lon="0.40979">
        <ele>88.2</ele>
        <time>2023-07-18T08:53:09Z</time>
      </trkpt>
      <trkpt lat="47.33602" lon="0.40977">
        <ele>88.4</ele>
        <time>2023-07-18T08:53:10Z</time>
      </trkpt>
      <trkpt lat="47.33606" lon="0.40976">
        <ele>88.4</ele>
        <time>2023-07-18T08:53:11Z</time>
      </trkpt>
      <trkpt lat="47.33611" lon="0.40973">
        <ele>88.6</ele>
        <time>2023-07-18T08:53:12Z</time>
      </trkpt>
      <trkpt lat="47.33615" lon="0.4097">
        <ele>88.8</ele>
        <time>2023-07-18T08:53:13Z</time>
      </trkpt>
      <trkpt lat="47.3362" lon="0.40967">
        <ele>89</ele>
        <time>2023-07-18T08:53:14Z</time>
      </trkpt>
      <trkpt lat="47.33624" lon="0.40964">
        <ele>89.2</ele>
        <time>2023-07-18T08:53:15Z</time>
      </trkpt>
      <trkpt lat="47.33628" lon="0.4096">
        <ele>89.2</ele>
        <time>2023-07-18T08:53:16Z</time>
      </trkpt>
      <trkpt lat="47.33632" lon="0.40956">
        <ele>89.4</ele>
        <time>2023-07-18T08:53:17Z</time>
      </trkpt>
      <trkpt lat="47.33636" lon="0.40951">
        <ele>89.6</ele>
        <time>2023-07-18T08:53:18Z</time>
      </trkpt>
      <trkpt lat="47.3364" lon="0.40947">
        <ele>89.8</ele>
        <time>2023-07-18T08:53:19Z</time>
      </trkpt>
      <trkpt lat="47.33643" lon="0.40942">
        <ele>90</ele>
        <time>2023-07-18T08:53:20Z</time>
      </trkpt>
      <trkpt lat="47.33647" lon="0.40937">
        <ele>90</ele>
        <time>2023-07-18T08:53:21Z</time>
      </trkpt>
      <trkpt lat="47.3365" lon="0.40932">
        <ele>90.2</ele>
        <time>2023-07-18T08:53:22Z</time>
      </trkpt>
      <trkpt lat="47.33654" lon="0.40927">
        <ele>90.4</ele>
        <time>2023-07-18T08:53:23Z</time>
      </trkpt>
      <trkpt lat="47.33657" lon="0.40922">
        <ele>90.6</ele>
        <time>2023-07-18T08:53:24Z</time>
      </trkpt>
      <trkpt lat="47.33661" lon="0.40918">
        <ele>90.6</ele>
        <time>2023-07-18T08:53:25Z</time>
      </trkpt>
      <trkpt lat="47.33664" lon="0.40912">
        <ele>91</ele>
        <time>2023-07-18T08:53:26Z</time>
      </trkpt>
      <trkpt lat="47.33667" lon="0.40907">
        <ele>91.2</ele>
        <time>2023-07-18T08:53:27Z</time>
      </trkpt>
      <trkpt lat="47.3367" lon="0.40902">
        <ele>91.4</ele>
        <time>2023-07-18T08:53:28Z</time>
      </trkpt>
      <trkpt lat="47.33673" lon="0.40896">
        <ele>91.6</ele>
        <time>2023-07-18T08:53:29Z</time>
      </trkpt>
      <trkpt lat="47.33677" lon="0.4089">
        <ele>91.6</ele>
        <time>2023-07-18T08:53:30Z</time>
      </trkpt>
      <trkpt lat="47.3368" lon="0.40885">
        <ele>91.8</ele>
        <time>2023-07-18T08:53:31Z</time>
      </trkpt>
      <trkpt lat="47.33683" lon="0.40879">
        <ele>92</ele>
        <time>2023-07-18T08:53:32Z</time>
      </trkpt>
      <trkpt lat="47.33686" lon="0.40873">
        <ele>92.2</ele>
        <time>2023-07-18T08:53:33Z</time>
      </trkpt>
      <trkpt lat="47.33689" lon="0.40868">
        <ele>92.2</ele>
        <time>2023-07-18T08:53:34Z</time>
      </trkpt>
      <trkpt lat="47.33692" lon="0.40862">
        <ele>92.4</ele>
        <time>2023-07-18T08:53:35Z</time>
      </trkpt>
      <trkpt lat="47.33695" lon="0.40857">
        <ele>92.6</ele>
        <time>2023-07-18T08:53:36Z</time>
      </trkpt>
      <trkpt lat="47.33698" lon="0.40851">
        <ele>92.6</ele>
        <time>2023-07-18T08:53:37Z</time>
      </trkpt>
      <trkpt lat="47.33701" lon="0.40846">
        <ele>92.8</ele>
        <time>2023-07-18T08:53:38Z</time>
      </trkpt>
      <trkpt lat="47.33705" lon="0.4084">
        <ele>93</ele>
        <time>2023-07-18T08:53:39Z</time>
      </trkpt>
      <trkpt lat="47.33708" lon="0.40836">
        <ele>93.2</ele>
        <time>2023-07-18T08:53:40Z</time>
      </trkpt>
      <trkpt lat="47.33712" lon="0.40831">
        <ele>93.2</ele>
        <time>2023-07-18T08:53:41Z</time>
      </trkpt>
      <trkpt lat="47.33716" lon="0.40826">
        <ele>93.4</ele>
        <time>2023-07-18T08:53:42Z</time>
      </trkpt>
      <trkpt lat="47.3372" lon="0.40822">
        <ele>93.4</ele>
        <time>2023-07-18T08:53:43Z</time>
      </trkpt>
      <trkpt lat="47.33724" lon="0.40818">
        <ele>93.6</ele>
        <time>2023-07-18T08:53:44Z</time>
      </trkpt>
      <trkpt lat="47.33728" lon="0.40814">
        <ele>93.6</ele>
        <time>2023-07-18T08:53:45Z</time>
      </trkpt>
      <trkpt lat="47.33733" lon="0.40811">
        <ele>93.8</ele>
        <time>2023-07-18T08:53:46Z</time>
      </trkpt>
      <trkpt lat="47.33738" lon="0.40808">
        <ele>93.8</ele>
        <time>2023-07-18T08:53:47Z</time>
      </trkpt>
      <trkpt lat="47.33743" lon="0.40806">
        <ele>94</ele>
        <time>2023-07-18T08:53:48Z</time>
      </trkpt>
      <trkpt lat="47.33747" lon="0.40803">
        <ele>94</ele>
        <time>2023-07-18T08:53:49Z</time>
      </trkpt>
      <trkpt lat="47.33752" lon="0.40801">
        <ele>94.2</ele>
        <time>2023-07-18T08:53:50Z</time>
      </trkpt>
      <trkpt lat="47.33757" lon="0.40799">
        <ele>94.4</ele>
        <time>2023-07-18T08:53:51Z</time>
      </trkpt>
      <trkpt lat="47.33762" lon="0.40796">
        <ele>94.6</ele>
        <time>2023-07-18T08:53:52Z</time>
      </trkpt>
      <trkpt lat="47.33767" lon="0.40794">
        <ele>94.6</ele>
        <time>2023-07-18T08:53:53Z</time>
      </trkpt>
      <trkpt lat="47.33772" lon="0.40792">
        <ele>94.8</ele>
        <time>2023-07-18T08:53:54Z</time>
      </trkpt>
      <trkpt lat="47.33777" lon="0.40789">
        <ele>95</ele>
        <time>2023-07-18T08:53:55Z</time>
      </trkpt>
      <trkpt lat="47.33781" lon="0.40787">
        <ele>95.2</ele>
        <time>2023-07-18T08:53:56Z</time>
      </trkpt>
      <trkpt lat="47.33786" lon="0.40785">
        <ele>95.4</ele>
        <time>2023-07-18T08:53:57Z</time>
      </trkpt>
      <trkpt lat="47.33791" lon="0.40783">
        <ele>95.6</ele>
        <time>2023-07-18T08:53:58Z</time>
      </trkpt>
      <trkpt lat="47.33796" lon="0.40781">
        <ele>95.8</ele>
        <time>2023-07-18T08:53:59Z</time>
      </trkpt>
      <trkpt lat="47.33801" lon="0.40778">
        <ele>95.8</ele>
        <time>2023-07-18T08:54:00Z</time>
      </trkpt>
      <trkpt lat="47.33806" lon="0.40776">
        <ele>95.8</ele>
        <time>2023-07-18T08:54:01Z</time>
      </trkpt>
      <trkpt lat="47.33811" lon="0.40773">
        <ele>96</ele>
        <time>2023-07-18T08:54:02Z</time>
      </trkpt>
      <trkpt lat="47.33816" lon="0.40771">
        <ele>96.2</ele>
        <time>2023-07-18T08:54:03Z</time>
      </trkpt>
      <trkpt lat="47.33821" lon="0.40769">
        <ele>96.4</ele>
        <time>2023-07-18T08:54:04Z</time>
      </trkpt>
      <trkpt lat="47.33826" lon="0.40767">
        <ele>96.4</ele>
        <time>2023-07-18T08:54:05Z</time>
      </trkpt>
      <trkpt lat="47.33831" lon="0.40765">
        <ele>96.6</ele>
        <time>2023-07-18T08:54:06Z</time>
      </trkpt>
      <trkpt lat="47.33836" lon="0.40764">
        <ele>96.8</ele>
        <time>2023-07-18T08:54:07Z</time>
      </trkpt>
      <trkpt lat="47.33841" lon="0.40762">
        <ele>96.8</ele>
        <time>2023-07-18T08:54:08Z</time>
      </trkpt>
      <trkpt lat="47.33846" lon="0.40759">
        <ele>97</ele>
        <time>2023-07-18T08:54:09Z</time>
      </trkpt>
      <trkpt lat="47.3385" lon="0.40757">
        <ele>97</ele>
        <time>2023-07-18T08:54:10Z</time>
      </trkpt>
      <trkpt lat="47.33855" lon="0.40755">
        <ele>97.2</ele>
        <time>2023-07-18T08:54:11Z</time>
      </trkpt>
      <trkpt lat="47.3386" lon="0.40753">
        <ele>97.2</ele>
        <time>2023-07-18T08:54:12Z</time>
      </trkpt>
      <trkpt lat="47.33865" lon="0.40751">
        <ele>97.4</ele>
        <time>2023-07-18T08:54:13Z</time>
      </trkpt>
      <trkpt lat="47.3387" lon="0.40749">
        <ele>97.6</ele>
        <time>2023-07-18T08:54:14Z</time>
      </trkpt>
      <trkpt lat="47.33875" lon="0.40747">
        <ele>97.6</ele>
        <time>2023-07-18T08:54:15Z</time>
      </trkpt>
      <trkpt lat="47.33879" lon="0.40744">
        <ele>97.8</ele>
        <time>2023-07-18T08:54:16Z</time>
      </trkpt>
      <trkpt lat="47.33884" lon="0.40742">
        <ele>97.8</ele>
        <time>2023-07-18T08:54:17Z</time>
      </trkpt>
      <trkpt lat="47.33889" lon="0.4074">
        <ele>98</ele>
        <time>2023-07-18T08:54:18Z</time>
      </trkpt>
      <trkpt lat="47.33893" lon="0.40738">
        <ele>98.2</ele>
        <time>2023-07-18T08:54:19Z</time>
      </trkpt>
      <trkpt lat="47.33898" lon="0.40736">
        <ele>98.2</ele>
        <time>2023-07-18T08:54:20Z</time>
      </trkpt>
      <trkpt lat="47.33904" lon="0.40734">
        <ele>98.2</ele>
        <time>2023-07-18T08:54:21Z</time>
      </trkpt>
      <trkpt lat="47.33908" lon="0.40731">
        <ele>98.4</ele>
        <time>2023-07-18T08:54:22Z</time>
      </trkpt>
      <trkpt lat="47.33913" lon="0.40729">
        <ele>98.6</ele>
        <time>2023-07-18T08:54:23Z</time>
      </trkpt>
      <trkpt lat="47.33917" lon="0.40727">
        <ele>98.6</ele>
        <time>2023-07-18T08:54:24Z</time>
      </trkpt>
      <trkpt lat="47.33921" lon="0.40726">
        <ele>98.8</ele>
        <time>2023-07-18T08:54:25Z</time>
      </trkpt>
      <trkpt lat="47.33925" lon="0.40725">
        <ele>99</ele>
        <time>2023-07-18T08:54:26Z</time>
      </trkpt>
      <trkpt lat="47.33929" lon="0.40723">
        <ele>99</ele>
        <time>2023-07-18T08:54:27Z</time>
      </trkpt>
      <trkpt lat="47.33933" lon="0.40721">
        <ele>99.2</ele>
        <time>2023-07-18T08:54:28Z</time>
      </trkpt>
      <trkpt lat="47.33937" lon="0.40718">
        <ele>99.2</ele>
        <time>2023-07-18T08:54:29Z</time>
      </trkpt>
      <trkpt lat="47.33941" lon="0.40717">
        <ele>99.4</ele>
        <time>2023-07-18T08:54:30Z</time>
      </trkpt>
      <trkpt lat="47.33945" lon="0.40715">
        <ele>99.4</ele>
        <time>2023-07-18T08:54:31Z</time>
      </trkpt>
      <trkpt lat="47.3395" lon="0.40713">
        <ele>99.6</ele>
        <time>2023-07-18T08:54:32Z</time>
      </trkpt>
      <trkpt lat="47.33955" lon="0.40711">
        <ele>99.8</ele>
        <time>2023-07-18T08:54:33Z</time>
      </trkpt>
      <trkpt lat="47.3396" lon="0.40709">
        <ele>99.8</ele>
        <time>2023-07-18T08:54:34Z</time>
      </trkpt>
      <trkpt lat="47.33965" lon="0.40706">
        <ele>100</ele>
        <time>2023-07-18T08:54:35Z</time>
      </trkpt>
      <trkpt lat="47.33969" lon="0.40704">
        <ele>100</ele>
        <time>2023-07-18T08:54:36Z</time>
      </trkpt>
      <trkpt lat="47.33974" lon="0.40702">
        <ele>100.2</ele>
        <time>2023-07-18T08:54:37Z</time>
      </trkpt>
      <trkpt lat="47.3398" lon="0.407">
        <ele>100.2</ele>
        <time>2023-07-18T08:54:38Z</time>
      </trkpt>
      <trkpt lat="47.33985" lon="0.40698">
        <ele>100.4</ele>
        <time>2023-07-18T08:54:39Z</time>
      </trkpt>
      <trkpt lat="47.3399" lon="0.40697">
        <ele>100.4</ele>
        <time>2023-07-18T08:54:40Z</time>
      </trkpt>
      <trkpt lat="47.33995" lon="0.40694">
        <ele>100.4</ele>
        <time>2023-07-18T08:54:41Z</time>
      </trkpt>
      <trkpt lat="47.34" lon="0.40692">
        <ele>100.6</ele>
        <time>2023-07-18T08:54:42Z</time>
      </trkpt>
      <trkpt lat="47.34005" lon="0.4069">
        <ele>100.6</ele>
        <time>2023-07-18T08:54:43Z</time>
      </trkpt>
      <trkpt lat="47.3401" lon="0.40689">
        <ele>100.8</ele>
        <time>2023-07-18T08:54:44Z</time>
      </trkpt>
      <trkpt lat="47.34015" lon="0.40687">
        <ele>100.8</ele>
        <time>2023-07-18T08:54:45Z</time>
      </trkpt>
      <trkpt lat="47.3402" lon="0.40685">
        <ele>101</ele>
        <time>2023-07-18T08:54:46Z</time>
      </trkpt>
      <trkpt lat="47.34026" lon="0.40684">
        <ele>101</ele>
        <time>2023-07-18T08:54:47Z</time>
      </trkpt>
      <trkpt lat="47.34031" lon="0.40683">
        <ele>101.2</ele>
        <time>2023-07-18T08:54:48Z</time>
      </trkpt>
      <trkpt lat="47.34036" lon="0.40682">
        <ele>101.2</ele>
        <time>2023-07-18T08:54:49Z</time>
      </trkpt>
      <trkpt lat="47.34041" lon="0.40681">
        <ele>101.4</ele>
        <time>2023-07-18T08:54:50Z</time>
      </trkpt>
      <trkpt lat="47.34047" lon="0.4068">
        <ele>101.6</ele>
        <time>2023-07-18T08:54:51Z</time>
      </trkpt>
      <trkpt lat="47.34051" lon="0.4068">
        <ele>101.6</ele>
        <time>2023-07-18T08:54:52Z</time>
      </trkpt>
      <trkpt lat="47.34057" lon="0.4068">
        <ele>101.6</ele>
        <time>2023-07-18T08:54:53Z</time>
      </trkpt>
      <trkpt lat="47.34063" lon="0.40679">
        <ele>101.8</ele>
        <time>2023-07-18T08:54:54Z</time>
      </trkpt>
      <trkpt lat="47.34068" lon="0.40679">
        <ele>102</ele>
        <time>2023-07-18T08:54:55Z</time>
      </trkpt>
      <trkpt lat="47.34072" lon="0.4068">
        <ele>102</ele>
        <time>2023-07-18T08:54:56Z</time>
      </trkpt>
      <trkpt lat="47.34078" lon="0.40679">
        <ele>102.2</ele>
        <time>2023-07-18T08:54:57Z</time>
      </trkpt>
      <trkpt lat="47.34083" lon="0.40679">
        <ele>102.2</ele>
        <time>2023-07-18T08:54:58Z</time>
      </trkpt>
      <trkpt lat="47.34089" lon="0.40678">
        <ele>102.4</ele>
        <time>2023-07-18T08:54:59Z</time>
      </trkpt>
      <trkpt lat="47.34095" lon="0.40678">
        <ele>102.4</ele>
        <time>2023-07-18T08:55:00Z</time>
      </trkpt>
      <trkpt lat="47.34101" lon="0.40677">
        <ele>102.6</ele>
        <time>2023-07-18T08:55:01Z</time>
      </trkpt>
      <trkpt lat="47.34106" lon="0.40676">
        <ele>102.6</ele>
        <time>2023-07-18T08:55:02Z</time>
      </trkpt>
      <trkpt lat="47.34111" lon="0.40675">
        <ele>102.6</ele>
        <time>2023-07-18T08:55:03Z</time>
      </trkpt>
      <trkpt lat="47.34116" lon="0.40675">
        <ele>102.8</ele>
        <time>2023-07-18T08:55:04Z</time>
      </trkpt>
      <trkpt lat="47.34122" lon="0.40674">
        <ele>102.8</ele>
        <time>2023-07-18T08:55:05Z</time>
      </trkpt>
      <trkpt lat="47.34127" lon="0.40672">
        <ele>102.8</ele>
        <time>2023-07-18T08:55:06Z</time>
      </trkpt>
      <trkpt lat="47.34133" lon="0.4067">
        <ele>102.8</ele>
        <time>2023-07-18T08:55:07Z</time>
      </trkpt>
      <trkpt lat="47.34138" lon="0.40669">
        <ele>103</ele>
        <time>2023-07-18T08:55:08Z</time>
      </trkpt>
      <trkpt lat="47.34143" lon="0.40668">
        <ele>103</ele>
        <time>2023-07-18T08:55:09Z</time>
      </trkpt>
      <trkpt lat="47.34148" lon="0.40666">
        <ele>103</ele>
        <time>2023-07-18T08:55:10Z</time>
      </trkpt>
      <trkpt lat="47.34154" lon="0.40664">
        <ele>103.2</ele>
        <time>2023-07-18T08:55:11Z</time>
      </trkpt>
      <trkpt lat="47.3416" lon="0.40662">
        <ele>103.2</ele>
        <time>2023-07-18T08:55:12Z</time>
      </trkpt>
      <trkpt lat="47.34165" lon="0.40661">
        <ele>103.2</ele>
        <time>2023-07-18T08:55:13Z</time>
      </trkpt>
      <trkpt lat="47.34171" lon="0.40659">
        <ele>103.4</ele>
        <time>2023-07-18T08:55:14Z</time>
      </trkpt>
      <trkpt lat="47.34176" lon="0.40658">
        <ele>103.4</ele>
        <time>2023-07-18T08:55:15Z</time>
      </trkpt>
      <trkpt lat="47.34182" lon="0.40657">
        <ele>103.4</ele>
        <time>2023-07-18T08:55:16Z</time>
      </trkpt>
      <trkpt lat="47.34188" lon="0.40656">
        <ele>103.6</ele>
        <time>2023-07-18T08:55:17Z</time>
      </trkpt>
      <trkpt lat="47.34194" lon="0.40655">
        <ele>103.8</ele>
        <time>2023-07-18T08:55:18Z</time>
      </trkpt>
      <trkpt lat="47.342" lon="0.40654">
        <ele>103.8</ele>
        <time>2023-07-18T08:55:19Z</time>
      </trkpt>
      <trkpt lat="47.34206" lon="0.40653">
        <ele>104</ele>
        <time>2023-07-18T08:55:20Z</time>
      </trkpt>
      <trkpt lat="47.34211" lon="0.40652">
        <ele>104</ele>
        <time>2023-07-18T08:55:21Z</time>
      </trkpt>
      <trkpt lat="47.34217" lon="0.40651">
        <ele>104.2</ele>
        <time>2023-07-18T08:55:22Z</time>
      </trkpt>
      <trkpt lat="47.34222" lon="0.4065">
        <ele>104.2</ele>
        <time>2023-07-18T08:55:23Z</time>
      </trkpt>
      <trkpt lat="47.34228" lon="0.40649">
        <ele>104.4</ele>
        <time>2023-07-18T08:55:24Z</time>
      </trkpt>
      <trkpt lat="47.34233" lon="0.40648">
        <ele>104.4</ele>
        <time>2023-07-18T08:55:25Z</time>
      </trkpt>
      <trkpt lat="47.34239" lon="0.40646">
        <ele>104.4</ele>
        <time>2023-07-18T08:55:26Z</time>
      </trkpt>
      <trkpt lat="47.34244" lon="0.40645">
        <ele>104.6</ele>
        <time>2023-07-18T08:55:27Z</time>
      </trkpt>
      <trkpt lat="47.34249" lon="0.40643">
        <ele>104.6</ele>
        <time>2023-07-18T08:55:28Z</time>
      </trkpt>
      <trkpt lat="47.34255" lon="0.40641">
        <ele>104.8</ele>
        <time>2023-07-18T08:55:29Z</time>
      </trkpt>
      <trkpt lat="47.3426" lon="0.40639">
        <ele>104.8</ele>
        <time>2023-07-18T08:55:30Z</time>
      </trkpt>
      <trkpt lat="47.34266" lon="0.40637">
        <ele>104.8</ele>
        <time>2023-07-18T08:55:31Z</time>
      </trkpt>
      <trkpt lat="47.3427" lon="0.40635">
        <ele>105</ele>
        <time>2023-07-18T08:55:32Z</time>
      </trkpt>
      <trkpt lat="47.34275" lon="0.40634">
        <ele>105</ele>
        <time>2023-07-18T08:55:33Z</time>
      </trkpt>
      <trkpt lat="47.3428" lon="0.40632">
        <ele>105.2</ele>
        <time>2023-07-18T08:55:34Z</time>
      </trkpt>
      <trkpt lat="47.34286" lon="0.40631">
        <ele>105.2</ele>
        <time>2023-07-18T08:55:35Z</time>
      </trkpt>
      <trkpt lat="47.34291" lon="0.40629">
        <ele>105.4</ele>
        <time>2023-07-18T08:55:36Z</time>
      </trkpt>
      <trkpt lat="47.34296" lon="0.40629">
        <ele>105.6</ele>
        <time>2023-07-18T08:55:37Z</time>
      </trkpt>
      <trkpt lat="47.34301" lon="0.40629">
        <ele>105.6</ele>
        <time>2023-07-18T08:55:38Z</time>
      </trkpt>
      <trkpt lat="47.34305" lon="0.40628">
        <ele>105.6</ele>
        <time>2023-07-18T08:55:39Z</time>
      </trkpt>
      <trkpt lat="47.34311" lon="0.40628">
        <ele>105.8</ele>
        <time>2023-07-18T08:55:40Z</time>
      </trkpt>
      <trkpt lat="47.34317" lon="0.40629">
        <ele>105.8</ele>
        <time>2023-07-18T08:55:41Z</time>
      </trkpt>
      <trkpt lat="47.34322" lon="0.40628">
        <ele>105.8</ele>
        <time>2023-07-18T08:55:42Z</time>
      </trkpt>
      <trkpt lat="47.34327" lon="0.40628">
        <ele>105.8</ele>
        <time>2023-07-18T08:55:43Z</time>
      </trkpt>
      <trkpt lat="47.34334" lon="0.40628">
        <ele>105.8</ele>
        <time>2023-07-18T08:55:44Z</time>
      </trkpt>
      <trkpt lat="47.3434" lon="0.40626">
        <ele>106</ele>
        <time>2023-07-18T08:55:45Z</time>
      </trkpt>
      <trkpt lat="47.34347" lon="0.40625">
        <ele>106</ele>
        <time>2023-07-18T08:55:46Z</time>
      </trkpt>
      <trkpt lat="47.34353" lon="0.40623">
        <ele>106</ele>
        <time>2023-07-18T08:55:47Z</time>
      </trkpt>
      <trkpt lat="47.34359" lon="0.40621">
        <ele>105.8</ele>
        <time>2023-07-18T08:55:48Z</time>
      </trkpt>
      <trkpt lat="47.34366" lon="0.40618">
        <ele>105.8</ele>
        <time>2023-07-18T08:55:49Z</time>
      </trkpt>
      <trkpt lat="47.34371" lon="0.40614">
        <ele>105.8</ele>
        <time>2023-07-18T08:55:50Z</time>
      </trkpt>
      <trkpt lat="47.34378" lon="0.40609">
        <ele>105.8</ele>
        <time>2023-07-18T08:55:51Z</time>
      </trkpt>
      <trkpt lat="47.34383" lon="0.40605">
        <ele>105.6</ele>
        <time>2023-07-18T08:55:52Z</time>
      </trkpt>
      <trkpt lat="47.34388" lon="0.406">
        <ele>105.8</ele>
        <time>2023-07-18T08:55:53Z</time>
      </trkpt>
      <trkpt lat="47.34393" lon="0.40595">
        <ele>105.8</ele>
        <time>2023-07-18T08:55:54Z</time>
      </trkpt>
      <trkpt lat="47.34398" lon="0.40591">
        <ele>105.8</ele>
        <time>2023-07-18T08:55:55Z</time>
      </trkpt>
      <trkpt lat="47.34404" lon="0.40585">
        <ele>105.8</ele>
        <time>2023-07-18T08:55:56Z</time>
      </trkpt>
      <trkpt lat="47.34409" lon="0.40581">
        <ele>105.8</ele>
        <time>2023-07-18T08:55:57Z</time>
      </trkpt>
      <trkpt lat="47.34415" lon="0.40576">
        <ele>105.8</ele>
        <time>2023-07-18T08:55:58Z</time>
      </trkpt>
      <trkpt lat="47.3442" lon="0.40571">
        <ele>105.8</ele>
        <time>2023-07-18T08:55:59Z</time>
      </trkpt>
      <trkpt lat="47.34426" lon="0.40565">
        <ele>105.8</ele>
        <time>2023-07-18T08:56:00Z</time>
      </trkpt>
      <trkpt lat="47.34431" lon="0.40561">
        <ele>106</ele>
        <time>2023-07-18T08:56:01Z</time>
      </trkpt>
      <trkpt lat="47.34437" lon="0.40556">
        <ele>106</ele>
        <time>2023-07-18T08:56:02Z</time>
      </trkpt>
      <trkpt lat="47.34443" lon="0.40552">
        <ele>106</ele>
        <time>2023-07-18T08:56:03Z</time>
      </trkpt>
      <trkpt lat="47.34447" lon="0.40547">
        <ele>106</ele>
        <time>2023-07-18T08:56:04Z</time>
      </trkpt>
      <trkpt lat="47.34453" lon="0.40543">
        <ele>106</ele>
        <time>2023-07-18T08:56:05Z</time>
      </trkpt>
      <trkpt lat="47.34458" lon="0.40539">
        <ele>106.2</ele>
        <time>2023-07-18T08:56:06Z</time>
      </trkpt>
      <trkpt lat="47.34463" lon="0.40535">
        <ele>106.4</ele>
        <time>2023-07-18T08:56:07Z</time>
      </trkpt>
      <trkpt lat="47.34468" lon="0.40532">
        <ele>106.6</ele>
        <time>2023-07-18T08:56:08Z</time>
      </trkpt>
      <trkpt lat="47.34474" lon="0.40529">
        <ele>106.8</ele>
        <time>2023-07-18T08:56:09Z</time>
      </trkpt>
      <trkpt lat="47.3448" lon="0.40527">
        <ele>107</ele>
        <time>2023-07-18T08:56:10Z</time>
      </trkpt>
      <trkpt lat="47.34484" lon="0.40524">
        <ele>107.2</ele>
        <time>2023-07-18T08:56:11Z</time>
      </trkpt>
      <trkpt lat="47.3449" lon="0.40523">
        <ele>107.4</ele>
        <time>2023-07-18T08:56:12Z</time>
      </trkpt>
      <trkpt lat="47.34495" lon="0.40522">
        <ele>107.6</ele>
        <time>2023-07-18T08:56:13Z</time>
      </trkpt>
      <trkpt lat="47.34501" lon="0.40521">
        <ele>107.8</ele>
        <time>2023-07-18T08:56:14Z</time>
      </trkpt>
      <trkpt lat="47.34506" lon="0.4052">
        <ele>108</ele>
        <time>2023-07-18T08:56:15Z</time>
      </trkpt>
      <trkpt lat="47.34512" lon="0.40519">
        <ele>108.4</ele>
        <time>2023-07-18T08:56:16Z</time>
      </trkpt>
      <trkpt lat="47.34518" lon="0.40518">
        <ele>108.6</ele>
        <time>2023-07-18T08:56:17Z</time>
      </trkpt>
      <trkpt lat="47.34523" lon="0.40518">
        <ele>108.8</ele>
        <time>2023-07-18T08:56:18Z</time>
      </trkpt>
      <trkpt lat="47.34529" lon="0.40518">
        <ele>109</ele>
        <time>2023-07-18T08:56:19Z</time>
      </trkpt>
      <trkpt lat="47.34535" lon="0.40518">
        <ele>109.2</ele>
        <time>2023-07-18T08:56:20Z</time>
      </trkpt>
      <trkpt lat="47.34541" lon="0.40518">
        <ele>109.4</ele>
        <time>2023-07-18T08:56:21Z</time>
      </trkpt>
      <trkpt lat="47.34547" lon="0.40518">
        <ele>109.4</ele>
        <time>2023-07-18T08:56:22Z</time>
      </trkpt>
      <trkpt lat="47.34553" lon="0.40518">
        <ele>109.4</ele>
        <time>2023-07-18T08:56:23Z</time>
      </trkpt>
      <trkpt lat="47.34558" lon="0.40518">
        <ele>109.6</ele>
        <time>2023-07-18T08:56:24Z</time>
      </trkpt>
      <trkpt lat="47.34565" lon="0.40517">
        <ele>109.8</ele>
        <time>2023-07-18T08:56:25Z</time>
      </trkpt>
      <trkpt lat="47.34571" lon="0.40517">
        <ele>109.8</ele>
        <time>2023-07-18T08:56:26Z</time>
      </trkpt>
      <trkpt lat="47.34577" lon="0.40517">
        <ele>109.8</ele>
        <time>2023-07-18T08:56:27Z</time>
      </trkpt>
      <trkpt lat="47.34583" lon="0.40517">
        <ele>110</ele>
        <time>2023-07-18T08:56:28Z</time>
      </trkpt>
      <trkpt lat="47.3459" lon="0.40516">
        <ele>109.8</ele>
        <time>2023-07-18T08:56:29Z</time>
      </trkpt>
      <trkpt lat="47.34596" lon="0.40516">
        <ele>109.8</ele>
        <time>2023-07-18T08:56:30Z</time>
      </trkpt>
      <trkpt lat="47.34602" lon="0.40515">
        <ele>109.8</ele>
        <time>2023-07-18T08:56:31Z</time>
      </trkpt>
      <trkpt lat="47.34609" lon="0.40515">
        <ele>109.8</ele>
        <time>2023-07-18T08:56:32Z</time>
      </trkpt>
      <trkpt lat="47.34615" lon="0.40515">
        <ele>110</ele>
        <time>2023-07-18T08:56:33Z</time>
      </trkpt>
      <trkpt lat="47.34622" lon="0.40515">
        <ele>110</ele>
        <time>2023-07-18T08:56:34Z</time>
      </trkpt>
      <trkpt lat="47.34628" lon="0.40514">
        <ele>109.8</ele>
        <time>2023-07-18T08:56:35Z</time>
      </trkpt>
      <trkpt lat="47.34635" lon="0.40514">
        <ele>109.6</ele>
        <time>2023-07-18T08:56:36Z</time>
      </trkpt>
      <trkpt lat="47.34641" lon="0.40514">
        <ele>109.6</ele>
        <time>2023-07-18T08:56:37Z</time>
      </trkpt>
      <trkpt lat="47.34648" lon="0.40513">
        <ele>109.6</ele>
        <time>2023-07-18T08:56:38Z</time>
      </trkpt>
      <trkpt lat="47.34655" lon="0.40513">
        <ele>109.6</ele>
        <time>2023-07-18T08:56:39Z</time>
      </trkpt>
      <trkpt lat="47.34662" lon="0.40513">
        <ele>109.4</ele>
        <time>2023-07-18T08:56:40Z</time>
      </trkpt>
      <trkpt lat="47.34669" lon="0.40513">
        <ele>109.6</ele>
        <time>2023-07-18T08:56:41Z</time>
      </trkpt>
      <trkpt lat="47.34676" lon="0.40513">
        <ele>109.6</ele>
        <time>2023-07-18T08:56:42Z</time>
      </trkpt>
      <trkpt lat="47.34684" lon="0.40513">
        <ele>109.8</ele>
        <time>2023-07-18T08:56:43Z</time>
      </trkpt>
      <trkpt lat="47.34691" lon="0.40513">
        <ele>109.8</ele>
        <time>2023-07-18T08:56:44Z</time>
      </trkpt>
      <trkpt lat="47.34699" lon="0.40513">
        <ele>109.6</ele>
        <time>2023-07-18T08:56:45Z</time>
      </trkpt>
      <trkpt lat="47.34706" lon="0.40513">
        <ele>109.4</ele>
        <time>2023-07-18T08:56:46Z</time>
      </trkpt>
      <trkpt lat="47.34713" lon="0.40513">
        <ele>109</ele>
        <time>2023-07-18T08:56:47Z</time>
      </trkpt>
      <trkpt lat="47.34721" lon="0.40512">
        <ele>109</ele>
        <time>2023-07-18T08:56:48Z</time>
      </trkpt>
      <trkpt lat="47.34728" lon="0.40512">
        <ele>108.8</ele>
        <time>2023-07-18T08:56:49Z</time>
      </trkpt>
      <trkpt lat="47.34736" lon="0.40511">
        <ele>108.8</ele>
        <time>2023-07-18T08:56:50Z</time>
      </trkpt>
      <trkpt lat="47.34744" lon="0.40511">
        <ele>108.8</ele>
        <time>2023-07-18T08:56:51Z</time>
      </trkpt>
      <trkpt lat="47.34752" lon="0.40511">
        <ele>108.8</ele>
        <time>2023-07-18T08:56:52Z</time>
      </trkpt>
      <trkpt lat="47.3476" lon="0.40511">
        <ele>108.8</ele>
        <time>2023-07-18T08:56:53Z</time>
      </trkpt>
      <trkpt lat="47.34767" lon="0.40511">
        <ele>108.8</ele>
        <time>2023-07-18T08:56:54Z</time>
      </trkpt>
      <trkpt lat="47.34775" lon="0.40512">
        <ele>108.6</ele>
        <time>2023-07-18T08:56:55Z</time>
      </trkpt>
      <trkpt lat="47.34782" lon="0.40513">
        <ele>108.4</ele>
        <time>2023-07-18T08:56:56Z</time>
      </trkpt>
      <trkpt lat="47.3479" lon="0.40514">
        <ele>108</ele>
        <time>2023-07-18T08:56:57Z</time>
      </trkpt>
      <trkpt lat="47.34798" lon="0.40515">
        <ele>107.6</ele>
        <time>2023-07-18T08:56:58Z</time>
      </trkpt>
      <trkpt lat="47.34806" lon="0.40516">
        <ele>107.4</ele>
        <time>2023-07-18T08:56:59Z</time>
      </trkpt>
      <trkpt lat="47.34813" lon="0.40516">
        <ele>107</ele>
        <time>2023-07-18T08:57:00Z</time>
      </trkpt>
      <trkpt lat="47.34821" lon="0.40516">
        <ele>106.6</ele>
        <time>2023-07-18T08:57:01Z</time>
      </trkpt>
      <trkpt lat="47.34829" lon="0.40516">
        <ele>106.6</ele>
        <time>2023-07-18T08:57:02Z</time>
      </trkpt>
      <trkpt lat="47.34836" lon="0.40517">
        <ele>106.4</ele>
        <time>2023-07-18T08:57:03Z</time>
      </trkpt>
      <trkpt lat="47.34844" lon="0.40517">
        <ele>106</ele>
        <time>2023-07-18T08:57:04Z</time>
      </trkpt>
      <trkpt lat="47.34851" lon="0.40517">
        <ele>105.8</ele>
        <time>2023-07-18T08:57:05Z</time>
      </trkpt>
      <trkpt lat="47.34859" lon="0.40516">
        <ele>105.4</ele>
        <time>2023-07-18T08:57:06Z</time>
      </trkpt>
      <trkpt lat="47.34866" lon="0.40516">
        <ele>105</ele>
        <time>2023-07-18T08:57:07Z</time>
      </trkpt>
      <trkpt lat="47.34875" lon="0.40515">
        <ele>104.8</ele>
        <time>2023-07-18T08:57:08Z</time>
      </trkpt>
      <trkpt lat="47.34883" lon="0.40515">
        <ele>104.6</ele>
        <time>2023-07-18T08:57:09Z</time>
      </trkpt>
      <trkpt lat="47.34891" lon="0.40514">
        <ele>104.4</ele>
        <time>2023-07-18T08:57:10Z</time>
      </trkpt>
      <trkpt lat="47.34899" lon="0.40513">
        <ele>104.2</ele>
        <time>2023-07-18T08:57:11Z</time>
      </trkpt>
      <trkpt lat="47.34907" lon="0.40511">
        <ele>104</ele>
        <time>2023-07-18T08:57:12Z</time>
      </trkpt>
      <trkpt lat="47.34916" lon="0.4051">
        <ele>103.6</ele>
        <time>2023-07-18T08:57:13Z</time>
      </trkpt>
      <trkpt lat="47.34925" lon="0.40509">
        <ele>103.4</ele>
        <time>2023-07-18T08:57:14Z</time>
      </trkpt>
      <trkpt lat="47.34934" lon="0.40507">
        <ele>103.2</ele>
        <time>2023-07-18T08:57:15Z</time>
      </trkpt>
      <trkpt lat="47.34943" lon="0.40505">
        <ele>102.8</ele>
        <time>2023-07-18T08:57:16Z</time>
      </trkpt>
      <trkpt lat="47.34952" lon="0.40503">
        <ele>102.4</ele>
        <time>2023-07-18T08:57:17Z</time>
      </trkpt>
      <trkpt lat="47.34961" lon="0.40501">
        <ele>102.2</ele>
        <time>2023-07-18T08:57:18Z</time>
      </trkpt>
      <trkpt lat="47.34971" lon="0.405">
        <ele>102</ele>
        <time>2023-07-18T08:57:19Z</time>
      </trkpt>
      <trkpt lat="47.34979" lon="0.405">
        <ele>101.8</ele>
        <time>2023-07-18T08:57:20Z</time>
      </trkpt>
      <trkpt lat="47.34988" lon="0.40499">
        <ele>101.6</ele>
        <time>2023-07-18T08:57:21Z</time>
      </trkpt>
      <trkpt lat="47.34995" lon="0.40499">
        <ele>101.6</ele>
        <time>2023-07-18T08:57:22Z</time>
      </trkpt>
      <trkpt lat="47.35002" lon="0.40499">
        <ele>101.4</ele>
        <time>2023-07-18T08:57:23Z</time>
      </trkpt>
      <trkpt lat="47.35008" lon="0.405">
        <ele>101.4</ele>
        <time>2023-07-18T08:57:24Z</time>
      </trkpt>
      <trkpt lat="47.35015" lon="0.40503">
        <ele>101.4</ele>
        <time>2023-07-18T08:57:25Z</time>
      </trkpt>
      <trkpt lat="47.35023" lon="0.40507">
        <ele>101.4</ele>
        <time>2023-07-18T08:57:26Z</time>
      </trkpt>
      <trkpt lat="47.3503" lon="0.40512">
        <ele>101.4</ele>
        <time>2023-07-18T08:57:27Z</time>
      </trkpt>
      <trkpt lat="47.35038" lon="0.40519">
        <ele>101.4</ele>
        <time>2023-07-18T08:57:28Z</time>
      </trkpt>
      <trkpt lat="47.35046" lon="0.40524">
        <ele>101.6</ele>
        <time>2023-07-18T08:57:29Z</time>
      </trkpt>
      <trkpt lat="47.35054" lon="0.40529">
        <ele>101.6</ele>
        <time>2023-07-18T08:57:30Z</time>
      </trkpt>
      <trkpt lat="47.35061" lon="0.40535">
        <ele>101.6</ele>
        <time>2023-07-18T08:57:31Z</time>
      </trkpt>
      <trkpt lat="47.35069" lon="0.4054">
        <ele>101.8</ele>
        <time>2023-07-18T08:57:32Z</time>
      </trkpt>
      <trkpt lat="47.35075" lon="0.40544">
        <ele>101.8</ele>
        <time>2023-07-18T08:57:33Z</time>
      </trkpt>
      <trkpt lat="47.3508" lon="0.40547">
        <ele>102</ele>
        <time>2023-07-18T08:57:34Z</time>
      </trkpt>
      <trkpt lat="47.35086" lon="0.40551">
        <ele>102.2</ele>
        <time>2023-07-18T08:57:35Z</time>
      </trkpt>
      <trkpt lat="47.3509" lon="0.40557">
        <ele>102.2</ele>
        <time>2023-07-18T08:57:36Z</time>
      </trkpt>
      <trkpt lat="47.35098" lon="0.40561">
        <ele>102.2</ele>
        <time>2023-07-18T08:57:37Z</time>
      </trkpt>
      <trkpt lat="47.35105" lon="0.40565">
        <ele>102.4</ele>
        <time>2023-07-18T08:57:38Z</time>
      </trkpt>
      <trkpt lat="47.35112" lon="0.40568">
        <ele>102.6</ele>
        <time>2023-07-18T08:57:39Z</time>
      </trkpt>
      <trkpt lat="47.3512" lon="0.40571">
        <ele>102.6</ele>
        <time>2023-07-18T08:57:40Z</time>
      </trkpt>
      <trkpt lat="47.35127" lon="0.40575">
        <ele>102.8</ele>
        <time>2023-07-18T08:57:41Z</time>
      </trkpt>
      <trkpt lat="47.35133" lon="0.40579">
        <ele>102.8</ele>
        <time>2023-07-18T08:57:42Z</time>
      </trkpt>
      <trkpt lat="47.3514" lon="0.40583">
        <ele>102.8</ele>
        <time>2023-07-18T08:57:43Z</time>
      </trkpt>
      <trkpt lat="47.35147" lon="0.40587">
        <ele>103</ele>
        <time>2023-07-18T08:57:44Z</time>
      </trkpt>
      <trkpt lat="47.35154" lon="0.40592">
        <ele>103</ele>
        <time>2023-07-18T08:57:45Z</time>
      </trkpt>
      <trkpt lat="47.35162" lon="0.40597">
        <ele>103</ele>
        <time>2023-07-18T08:57:46Z</time>
      </trkpt>
      <trkpt lat="47.35168" lon="0.40602">
        <ele>103</ele>
        <time>2023-07-18T08:57:47Z</time>
      </trkpt>
      <trkpt lat="47.35175" lon="0.40605">
        <ele>103</ele>
        <time>2023-07-18T08:57:48Z</time>
      </trkpt>
      <trkpt lat="47.35181" lon="0.40611">
        <ele>103</ele>
        <time>2023-07-18T08:57:49Z</time>
      </trkpt>
      <trkpt lat="47.35187" lon="0.40616">
        <ele>103</ele>
        <time>2023-07-18T08:57:50Z</time>
      </trkpt>
      <trkpt lat="47.35192" lon="0.40622">
        <ele>103</ele>
        <time>2023-07-18T08:57:51Z</time>
      </trkpt>
      <trkpt lat="47.35198" lon="0.40625">
        <ele>103.2</ele>
        <time>2023-07-18T08:57:52Z</time>
      </trkpt>
      <trkpt lat="47.35204" lon="0.4063">
        <ele>103.2</ele>
        <time>2023-07-18T08:57:53Z</time>
      </trkpt>
      <trkpt lat="47.3521" lon="0.40635">
        <ele>103.2</ele>
        <time>2023-07-18T08:57:54Z</time>
      </trkpt>
      <trkpt lat="47.35215" lon="0.40642">
        <ele>103.4</ele>
        <time>2023-07-18T08:57:55Z</time>
      </trkpt>
      <trkpt lat="47.3522" lon="0.40649">
        <ele>103.4</ele>
        <time>2023-07-18T08:57:56Z</time>
      </trkpt>
      <trkpt lat="47.35225" lon="0.40655">
        <ele>103.4</ele>
        <time>2023-07-18T08:57:57Z</time>
      </trkpt>
      <trkpt lat="47.3523" lon="0.4066">
        <ele>103.6</ele>
        <time>2023-07-18T08:57:58Z</time>
      </trkpt>
      <trkpt lat="47.35235" lon="0.40666">
        <ele>103.8</ele>
        <time>2023-07-18T08:57:59Z</time>
      </trkpt>
      <trkpt lat="47.35238" lon="0.40672">
        <ele>104</ele>
        <time>2023-07-18T08:58:00Z</time>
      </trkpt>
      <trkpt lat="47.35242" lon="0.40678">
        <ele>104</ele>
        <time>2023-07-18T08:58:01Z</time>
      </trkpt>
      <trkpt lat="47.35246" lon="0.40684">
        <ele>104.2</ele>
        <time>2023-07-18T08:58:02Z</time>
      </trkpt>
      <trkpt lat="47.35249" lon="0.4069">
        <ele>104.4</ele>
        <time>2023-07-18T08:58:03Z</time>
      </trkpt>
      <trkpt lat="47.35252" lon="0.40698">
        <ele>104.2</ele>
        <time>2023-07-18T08:58:04Z</time>
      </trkpt>
      <trkpt lat="47.35256" lon="0.40706">
        <ele>104.4</ele>
        <time>2023-07-18T08:58:05Z</time>
      </trkpt>
      <trkpt lat="47.3526" lon="0.40714">
        <ele>104.4</ele>
        <time>2023-07-18T08:58:06Z</time>
      </trkpt>
      <trkpt lat="47.35264" lon="0.40722">
        <ele>104.6</ele>
        <time>2023-07-18T08:58:07Z</time>
      </trkpt>
      <trkpt lat="47.35268" lon="0.40729">
        <ele>104.6</ele>
        <time>2023-07-18T08:58:08Z</time>
      </trkpt>
      <trkpt lat="47.35271" lon="0.40738">
        <ele>104.8</ele>
        <time>2023-07-18T08:58:09Z</time>
      </trkpt>
      <trkpt lat="47.35275" lon="0.40745">
        <ele>104.8</ele>
        <time>2023-07-18T08:58:10Z</time>
      </trkpt>
      <trkpt lat="47.3528" lon="0.40752">
        <ele>104.8</ele>
        <time>2023-07-18T08:58:11Z</time>
      </trkpt>
      <trkpt lat="47.35284" lon="0.40759">
        <ele>105</ele>
        <time>2023-07-18T08:58:12Z</time>
      </trkpt>
      <trkpt lat="47.35289" lon="0.40765">
        <ele>105</ele>
        <time>2023-07-18T08:58:13Z</time>
      </trkpt>
      <trkpt lat="47.35294" lon="0.40772">
        <ele>105</ele>
        <time>2023-07-18T08:58:14Z</time>
      </trkpt>
      <trkpt lat="47.35299" lon="0.40777">
        <ele>105</ele>
        <time>2023-07-18T08:58:15Z</time>
      </trkpt>
      <trkpt lat="47.35304" lon="0.40782">
        <ele>105.2</ele>
        <time>2023-07-18T08:58:16Z</time>
      </trkpt>
      <trkpt lat="47.35309" lon="0.40787">
        <ele>105.2</ele>
        <time>2023-07-18T08:58:17Z</time>
      </trkpt>
      <trkpt lat="47.35312" lon="0.40792">
        <ele>105.2</ele>
        <time>2023-07-18T08:58:18Z</time>
      </trkpt>
      <trkpt lat="47.35317" lon="0.40798">
        <ele>105.2</ele>
        <time>2023-07-18T08:58:19Z</time>
      </trkpt>
      <trkpt lat="47.35321" lon="0.40802">
        <ele>105.2</ele>
        <time>2023-07-18T08:58:20Z</time>
      </trkpt>
      <trkpt lat="47.35328" lon="0.40809">
        <ele>105.4</ele>
        <time>2023-07-18T08:58:21Z</time>
      </trkpt>
      <trkpt lat="47.35333" lon="0.40815">
        <ele>105.4</ele>
        <time>2023-07-18T08:58:22Z</time>
      </trkpt>
      <trkpt lat="47.35339" lon="0.4082">
        <ele>105.4</ele>
        <time>2023-07-18T08:58:23Z</time>
      </trkpt>
      <trkpt lat="47.35344" lon="0.40826">
        <ele>105.4</ele>
        <time>2023-07-18T08:58:24Z</time>
      </trkpt>
      <trkpt lat="47.3535" lon="0.40832">
        <ele>105.2</ele>
        <time>2023-07-18T08:58:25Z</time>
      </trkpt>
      <trkpt lat="47.35355" lon="0.40838">
        <ele>105.2</ele>
        <time>2023-07-18T08:58:26Z</time>
      </trkpt>
      <trkpt lat="47.3536" lon="0.40844">
        <ele>105</ele>
        <time>2023-07-18T08:58:27Z</time>
      </trkpt>
      <trkpt lat="47.35366" lon="0.40851">
        <ele>105</ele>
        <time>2023-07-18T08:58:28Z</time>
      </trkpt>
      <trkpt lat="47.35371" lon="0.40858">
        <ele>104.8</ele>
        <time>2023-07-18T08:58:29Z</time>
      </trkpt>
      <trkpt lat="47.35377" lon="0.40865">
        <ele>104.8</ele>
        <time>2023-07-18T08:58:30Z</time>
      </trkpt>
      <trkpt lat="47.35382" lon="0.40871">
        <ele>104.8</ele>
        <time>2023-07-18T08:58:31Z</time>
      </trkpt>
      <trkpt lat="47.35387" lon="0.40878">
        <ele>104.8</ele>
        <time>2023-07-18T08:58:32Z</time>
      </trkpt>
      <trkpt lat="47.35392" lon="0.40885">
        <ele>104.8</ele>
        <time>2023-07-18T08:58:33Z</time>
      </trkpt>
      <trkpt lat="47.35397" lon="0.40892">
        <ele>104.8</ele>
        <time>2023-07-18T08:58:34Z</time>
      </trkpt>
      <trkpt lat="47.35403" lon="0.40899">
        <ele>104.8</ele>
        <time>2023-07-18T08:58:35Z</time>
      </trkpt>
      <trkpt lat="47.35408" lon="0.40906">
        <ele>104.6</ele>
        <time>2023-07-18T08:58:36Z</time>
      </trkpt>
      <trkpt lat="47.35413" lon="0.40913">
        <ele>104.4</ele>
        <time>2023-07-18T08:58:37Z</time>
      </trkpt>
      <trkpt lat="47.35418" lon="0.4092">
        <ele>104.2</ele>
        <time>2023-07-18T08:58:38Z</time>
      </trkpt>
      <trkpt lat="47.35424" lon="0.40928">
        <ele>104.2</ele>
        <time>2023-07-18T08:58:39Z</time>
      </trkpt>
      <trkpt lat="47.3543" lon="0.40935">
        <ele>104.2</ele>
        <time>2023-07-18T08:58:40Z</time>
      </trkpt>
      <trkpt lat="47.35435" lon="0.40943">
        <ele>104</ele>
        <time>2023-07-18T08:58:41Z</time>
      </trkpt>
      <trkpt lat="47.35441" lon="0.40951">
        <ele>103.6</ele>
        <time>2023-07-18T08:58:42Z</time>
      </trkpt>
      <trkpt lat="47.35447" lon="0.40958">
        <ele>103.4</ele>
        <time>2023-07-18T08:58:43Z</time>
      </trkpt>
      <trkpt lat="47.35453" lon="0.40966">
        <ele>103.6</ele>
        <time>2023-07-18T08:58:44Z</time>
      </trkpt>
      <trkpt lat="47.35458" lon="0.40973">
        <ele>103.4</ele>
        <time>2023-07-18T08:58:45Z</time>
      </trkpt>
      <trkpt lat="47.35463" lon="0.4098">
        <ele>103.6</ele>
        <time>2023-07-18T08:58:46Z</time>
      </trkpt>
      <trkpt lat="47.35469" lon="0.40987">
        <ele>103.6</ele>
        <time>2023-07-18T08:58:47Z</time>
      </trkpt>
      <trkpt lat="47.35474" lon="0.40993">
        <ele>103.4</ele>
        <time>2023-07-18T08:58:48Z</time>
      </trkpt>
      <trkpt lat="47.35479" lon="0.40999">
        <ele>103</ele>
        <time>2023-07-18T08:58:49Z</time>
      </trkpt>
      <trkpt lat="47.35485" lon="0.41005">
        <ele>102.8</ele>
        <time>2023-07-18T08:58:50Z</time>
      </trkpt>
      <trkpt lat="47.35491" lon="0.4101">
        <ele>102.8</ele>
        <time>2023-07-18T08:58:51Z</time>
      </trkpt>
      <trkpt lat="47.35497" lon="0.41015">
        <ele>102.8</ele>
        <time>2023-07-18T08:58:52Z</time>
      </trkpt>
      <trkpt lat="47.35503" lon="0.4102">
        <ele>102.8</ele>
        <time>2023-07-18T08:58:53Z</time>
      </trkpt>
      <trkpt lat="47.35508" lon="0.41024">
        <ele>103</ele>
        <time>2023-07-18T08:58:54Z</time>
      </trkpt>
      <trkpt lat="47.35514" lon="0.41028">
        <ele>103</ele>
        <time>2023-07-18T08:58:55Z</time>
      </trkpt>
      <trkpt lat="47.35519" lon="0.41032">
        <ele>103.2</ele>
        <time>2023-07-18T08:58:56Z</time>
      </trkpt>
      <trkpt lat="47.35524" lon="0.41037">
        <ele>103.4</ele>
        <time>2023-07-18T08:58:57Z</time>
      </trkpt>
      <trkpt lat="47.35529" lon="0.41041">
        <ele>103.4</ele>
        <time>2023-07-18T08:58:58Z</time>
      </trkpt>
      <trkpt lat="47.35533" lon="0.41046">
        <ele>103.8</ele>
        <time>2023-07-18T08:58:59Z</time>
      </trkpt>
      <trkpt lat="47.35538" lon="0.41051">
        <ele>104</ele>
        <time>2023-07-18T08:59:00Z</time>
      </trkpt>
      <trkpt lat="47.35544" lon="0.41056">
        <ele>104.2</ele>
        <time>2023-07-18T08:59:01Z</time>
      </trkpt>
      <trkpt lat="47.35549" lon="0.4106">
        <ele>104.2</ele>
        <time>2023-07-18T08:59:02Z</time>
      </trkpt>
      <trkpt lat="47.35555" lon="0.41064">
        <ele>104.4</ele>
        <time>2023-07-18T08:59:03Z</time>
      </trkpt>
      <trkpt lat="47.3556" lon="0.41068">
        <ele>104.4</ele>
        <time>2023-07-18T08:59:04Z</time>
      </trkpt>
      <trkpt lat="47.35565" lon="0.41073">
        <ele>104.4</ele>
        <time>2023-07-18T08:59:05Z</time>
      </trkpt>
      <trkpt lat="47.35571" lon="0.41077">
        <ele>104.8</ele>
        <time>2023-07-18T08:59:06Z</time>
      </trkpt>
      <trkpt lat="47.35576" lon="0.41082">
        <ele>105</ele>
        <time>2023-07-18T08:59:07Z</time>
      </trkpt>
      <trkpt lat="47.35581" lon="0.41087">
        <ele>105</ele>
        <time>2023-07-18T08:59:08Z</time>
      </trkpt>
      <trkpt lat="47.35587" lon="0.41091">
        <ele>105</ele>
        <time>2023-07-18T08:59:09Z</time>
      </trkpt>
      <trkpt lat="47.35592" lon="0.41096">
        <ele>105</ele>
        <time>2023-07-18T08:59:10Z</time>
      </trkpt>
      <trkpt lat="47.35598" lon="0.41102">
        <ele>105</ele>
        <time>2023-07-18T08:59:11Z</time>
      </trkpt>
      <trkpt lat="47.35603" lon="0.41106">
        <ele>105</ele>
        <time>2023-07-18T08:59:12Z</time>
      </trkpt>
      <trkpt lat="47.35609" lon="0.41111">
        <ele>105</ele>
        <time>2023-07-18T08:59:13Z</time>
      </trkpt>
      <trkpt lat="47.35615" lon="0.41116">
        <ele>105.2</ele>
        <time>2023-07-18T08:59:14Z</time>
      </trkpt>
      <trkpt lat="47.3562" lon="0.41121">
        <ele>105.2</ele>
        <time>2023-07-18T08:59:15Z</time>
      </trkpt>
      <trkpt lat="47.35626" lon="0.41126">
        <ele>105</ele>
        <time>2023-07-18T08:59:16Z</time>
      </trkpt>
      <trkpt lat="47.35632" lon="0.41132">
        <ele>105</ele>
        <time>2023-07-18T08:59:17Z</time>
      </trkpt>
      <trkpt lat="47.35638" lon="0.41137">
        <ele>104.8</ele>
        <time>2023-07-18T08:59:18Z</time>
      </trkpt>
      <trkpt lat="47.35643" lon="0.41142">
        <ele>104.6</ele>
        <time>2023-07-18T08:59:19Z</time>
      </trkpt>
      <trkpt lat="47.35649" lon="0.41147">
        <ele>104.6</ele>
        <time>2023-07-18T08:59:20Z</time>
      </trkpt>
      <trkpt lat="47.35655" lon="0.41153">
        <ele>104.6</ele>
        <time>2023-07-18T08:59:21Z</time>
      </trkpt>
      <trkpt lat="47.35661" lon="0.41158">
        <ele>104.4</ele>
        <time>2023-07-18T08:59:22Z</time>
      </trkpt>
      <trkpt lat="47.35667" lon="0.41163">
        <ele>104.2</ele>
        <time>2023-07-18T08:59:23Z</time>
      </trkpt>
      <trkpt lat="47.35673" lon="0.41169">
        <ele>104.2</ele>
        <time>2023-07-18T08:59:24Z</time>
      </trkpt>
      <trkpt lat="47.35679" lon="0.41174">
        <ele>104</ele>
        <time>2023-07-18T08:59:25Z</time>
      </trkpt>
      <trkpt lat="47.35686" lon="0.4118">
        <ele>103.8</ele>
        <time>2023-07-18T08:59:26Z</time>
      </trkpt>
      <trkpt lat="47.35692" lon="0.41186">
        <ele>103.6</ele>
        <time>2023-07-18T08:59:27Z</time>
      </trkpt>
      <trkpt lat="47.35698" lon="0.41192">
        <ele>103.4</ele>
        <time>2023-07-18T08:59:28Z</time>
      </trkpt>
      <trkpt lat="47.35704" lon="0.41197">
        <ele>103.4</ele>
        <time>2023-07-18T08:59:29Z</time>
      </trkpt>
      <trkpt lat="47.35711" lon="0.41203">
        <ele>103.2</ele>
        <time>2023-07-18T08:59:30Z</time>
      </trkpt>
      <trkpt lat="47.35717" lon="0.41209">
        <ele>103</ele>
        <time>2023-07-18T08:59:31Z</time>
      </trkpt>
      <trkpt lat="47.35723" lon="0.41215">
        <ele>102.6</ele>
        <time>2023-07-18T08:59:32Z</time>
      </trkpt>
      <trkpt lat="47.3573" lon="0.4122">
        <ele>102.2</ele>
        <time>2023-07-18T08:59:33Z</time>
      </trkpt>
      <trkpt lat="47.35736" lon="0.41226">
        <ele>101.6</ele>
        <time>2023-07-18T08:59:34Z</time>
      </trkpt>
      <trkpt lat="47.35743" lon="0.41233">
        <ele>101.2</ele>
        <time>2023-07-18T08:59:35Z</time>
      </trkpt>
      <trkpt lat="47.35749" lon="0.4124">
        <ele>100.8</ele>
        <time>2023-07-18T08:59:36Z</time>
      </trkpt>
      <trkpt lat="47.35756" lon="0.41247">
        <ele>100.4</ele>
        <time>2023-07-18T08:59:37Z</time>
      </trkpt>
      <trkpt lat="47.35764" lon="0.41254">
        <ele>100</ele>
        <time>2023-07-18T08:59:38Z</time>
      </trkpt>
      <trkpt lat="47.3577" lon="0.41262">
        <ele>99.6</ele>
        <time>2023-07-18T08:59:39Z</time>
      </trkpt>
      <trkpt lat="47.35778" lon="0.4127">
        <ele>99.2</ele>
        <time>2023-07-18T08:59:40Z</time>
      </trkpt>
      <trkpt lat="47.35785" lon="0.41278">
        <ele>98.8</ele>
        <time>2023-07-18T08:59:41Z</time>
      </trkpt>
      <trkpt lat="47.35792" lon="0.41287">
        <ele>98.2</ele>
        <time>2023-07-18T08:59:42Z</time>
      </trkpt>
      <trkpt lat="47.35799" lon="0.41297">
        <ele>97.8</ele>
        <time>2023-07-18T08:59:43Z</time>
      </trkpt>
      <trkpt lat="47.35807" lon="0.41306">
        <ele>97.2</ele>
        <time>2023-07-18T08:59:44Z</time>
      </trkpt>
      <trkpt lat="47.35814" lon="0.41316">
        <ele>96.6</ele>
        <time>2023-07-18T08:59:45Z</time>
      </trkpt>
      <trkpt lat="47.35822" lon="0.41326">
        <ele>96</ele>
        <time>2023-07-18T08:59:46Z</time>
      </trkpt>
      <trkpt lat="47.35829" lon="0.41337">
        <ele>95.4</ele>
        <time>2023-07-18T08:59:47Z</time>
      </trkpt>
      <trkpt lat="47.35836" lon="0.41348">
        <ele>94.6</ele>
        <time>2023-07-18T08:59:48Z</time>
      </trkpt>
      <trkpt lat="47.35844" lon="0.4136">
        <ele>94</ele>
        <time>2023-07-18T08:59:49Z</time>
      </trkpt>
      <trkpt lat="47.35851" lon="0.41371">
        <ele>93.2</ele>
        <time>2023-07-18T08:59:50Z</time>
      </trkpt>
      <trkpt lat="47.35859" lon="0.41383">
        <ele>92.6</ele>
        <time>2023-07-18T08:59:51Z</time>
      </trkpt>
      <trkpt lat="47.35865" lon="0.41394">
        <ele>92</ele>
        <time>2023-07-18T08:59:52Z</time>
      </trkpt>
      <trkpt lat="47.35871" lon="0.41408">
        <ele>91.6</ele>
        <time>2023-07-18T08:59:53Z</time>
      </trkpt>
      <trkpt lat="47.35876" lon="0.4142">
        <ele>91.2</ele>
        <time>2023-07-18T08:59:54Z</time>
      </trkpt>
      <trkpt lat="47.35882" lon="0.41432">
        <ele>90.8</ele>
        <time>2023-07-18T08:59:55Z</time>
      </trkpt>
      <trkpt lat="47.35888" lon="0.41441">
        <ele>90.8</ele>
        <time>2023-07-18T08:59:56Z</time>
      </trkpt>
      <trkpt lat="47.35895" lon="0.41447">
        <ele>90.8</ele>
        <time>2023-07-18T08:59:57Z</time>
      </trkpt>
      <trkpt lat="47.35901" lon="0.41449">
        <ele>91</ele>
        <time>2023-07-18T08:59:58Z</time>
      </trkpt>
      <trkpt lat="47.35907" lon="0.41449">
        <ele>91.2</ele>
        <time>2023-07-18T08:59:59Z</time>
      </trkpt>
      <trkpt lat="47.35913" lon="0.41449">
        <ele>91.4</ele>
        <time>2023-07-18T09:00:00Z</time>
      </trkpt>
      <trkpt lat="47.35919" lon="0.41449">
        <ele>91.6</ele>
        <time>2023-07-18T09:00:01Z</time>
      </trkpt>
      <trkpt lat="47.35924" lon="0.41449">
        <ele>92</ele>
        <time>2023-07-18T09:00:02Z</time>
      </trkpt>
      <trkpt lat="47.35929" lon="0.4145">
        <ele>92.2</ele>
        <time>2023-07-18T09:00:03Z</time>
      </trkpt>
      <trkpt lat="47.35934" lon="0.4145">
        <ele>92.6</ele>
        <time>2023-07-18T09:00:04Z</time>
      </trkpt>
      <trkpt lat="47.35939" lon="0.41451">
        <ele>93</ele>
        <time>2023-07-18T09:00:05Z</time>
      </trkpt>
      <trkpt lat="47.35943" lon="0.41452">
        <ele>93.4</ele>
        <time>2023-07-18T09:00:06Z</time>
      </trkpt>
      <trkpt lat="47.35948" lon="0.41453">
        <ele>93.8</ele>
        <time>2023-07-18T09:00:07Z</time>
      </trkpt>
      <trkpt lat="47.35953" lon="0.41451">
        <ele>94.2</ele>
        <time>2023-07-18T09:00:08Z</time>
      </trkpt>
      <trkpt lat="47.35958" lon="0.41449">
        <ele>94.6</ele>
        <time>2023-07-18T09:00:09Z</time>
      </trkpt>
      <trkpt lat="47.35962" lon="0.41444">
        <ele>95</ele>
        <time>2023-07-18T09:00:10Z</time>
      </trkpt>
      <trkpt lat="47.35964" lon="0.41438">
        <ele>95.4</ele>
        <time>2023-07-18T09:00:11Z</time>
      </trkpt>
      <trkpt lat="47.35967" lon="0.41431">
        <ele>95.8</ele>
        <time>2023-07-18T09:00:12Z</time>
      </trkpt>
      <trkpt lat="47.35969" lon="0.41425">
        <ele>96.2</ele>
        <time>2023-07-18T09:00:13Z</time>
      </trkpt>
      <trkpt lat="47.35971" lon="0.41418">
        <ele>96.6</ele>
        <time>2023-07-18T09:00:14Z</time>
      </trkpt>
      <trkpt lat="47.35972" lon="0.41412">
        <ele>97</ele>
        <time>2023-07-18T09:00:15Z</time>
      </trkpt>
      <trkpt lat="47.35974" lon="0.41406">
        <ele>97.2</ele>
        <time>2023-07-18T09:00:16Z</time>
      </trkpt>
      <trkpt lat="47.35977" lon="0.41401">
        <ele>97.6</ele>
        <time>2023-07-18T09:00:17Z</time>
      </trkpt>
      <trkpt lat="47.35979" lon="0.41397">
        <ele>98.2</ele>
        <time>2023-07-18T09:00:18Z</time>
      </trkpt>
      <trkpt lat="47.35981" lon="0.41394">
        <ele>98.6</ele>
        <time>2023-07-18T09:00:19Z</time>
      </trkpt>
      <trkpt lat="47.35984" lon="0.41393">
        <ele>99</ele>
        <time>2023-07-18T09:00:20Z</time>
      </trkpt>
      <trkpt lat="47.35986" lon="0.41393">
        <ele>99.4</ele>
        <time>2023-07-18T09:00:21Z</time>
      </trkpt>
      <trkpt lat="47.35989" lon="0.41394">
        <ele>100</ele>
        <time>2023-07-18T09:00:22Z</time>
      </trkpt>
      <trkpt lat="47.35992" lon="0.41395">
        <ele>100.4</ele>
        <time>2023-07-18T09:00:23Z</time>
      </trkpt>
      <trkpt lat="47.35996" lon="0.41395">
        <ele>100.8</ele>
        <time>2023-07-18T09:00:24Z</time>
      </trkpt>
      <trkpt lat="47.36" lon="0.41395">
        <ele>101.4</ele>
        <time>2023-07-18T09:00:25Z</time>
      </trkpt>
      <trkpt lat="47.36005" lon="0.41395">
        <ele>101.8</ele>
        <time>2023-07-18T09:00:26Z</time>
      </trkpt>
      <trkpt lat="47.3601" lon="0.41395">
        <ele>102.4</ele>
        <time>2023-07-18T09:00:27Z</time>
      </trkpt>
      <trkpt lat="47.36016" lon="0.41395">
        <ele>102.6</ele>
        <time>2023-07-18T09:00:28Z</time>
      </trkpt>
      <trkpt lat="47.36021" lon="0.41395">
        <ele>103</ele>
        <time>2023-07-18T09:00:29Z</time>
      </trkpt>
      <trkpt lat="47.36028" lon="0.41394">
        <ele>103.4</ele>
        <time>2023-07-18T09:00:30Z</time>
      </trkpt>
      <trkpt lat="47.36034" lon="0.41394">
        <ele>103.8</ele>
        <time>2023-07-18T09:00:31Z</time>
      </trkpt>
      <trkpt lat="47.36039" lon="0.41394">
        <ele>104</ele>
        <time>2023-07-18T09:00:32Z</time>
      </trkpt>
      <trkpt lat="47.36044" lon="0.41394">
        <ele>104.2</ele>
        <time>2023-07-18T09:00:33Z</time>
      </trkpt>
      <trkpt lat="47.36049" lon="0.41394">
        <ele>104.6</ele>
        <time>2023-07-18T09:00:34Z</time>
      </trkpt>
      <trkpt lat="47.36054" lon="0.41394">
        <ele>104.8</ele>
        <time>2023-07-18T09:00:35Z</time>
      </trkpt>
      <trkpt lat="47.36058" lon="0.41394">
        <ele>105</ele>
        <time>2023-07-18T09:00:36Z</time>
      </trkpt>
      <trkpt lat="47.36063" lon="0.41394">
        <ele>105.2</ele>
        <time>2023-07-18T09:00:37Z</time>
      </trkpt>
      <trkpt lat="47.36068" lon="0.41395">
        <ele>105.4</ele>
        <time>2023-07-18T09:00:38Z</time>
      </trkpt>
      <trkpt lat="47.36073" lon="0.41395">
        <ele>105.8</ele>
        <time>2023-07-18T09:00:39Z</time>
      </trkpt>
      <trkpt lat="47.36078" lon="0.41395">
        <ele>106</ele>
        <time>2023-07-18T09:00:40Z</time>
      </trkpt>
      <trkpt lat="47.36082" lon="0.41395">
        <ele>106.2</ele>
        <time>2023-07-18T09:00:41Z</time>
      </trkpt>
      <trkpt lat="47.36087" lon="0.41396">
        <ele>106.4</ele>
        <time>2023-07-18T09:00:42Z</time>
      </trkpt>
      <trkpt lat="47.36092" lon="0.41396">
        <ele>106.8</ele>
        <time>2023-07-18T09:00:43Z</time>
      </trkpt>
      <trkpt lat="47.36097" lon="0.41397">
        <ele>107</ele>
        <time>2023-07-18T09:00:44Z</time>
      </trkpt>
      <trkpt lat="47.36101" lon="0.41397">
        <ele>107.4</ele>
        <time>2023-07-18T09:00:45Z</time>
      </trkpt>
      <trkpt lat="47.36106" lon="0.41397">
        <ele>107.4</ele>
        <time>2023-07-18T09:00:46Z</time>
      </trkpt>
      <trkpt lat="47.36111" lon="0.41397">
        <ele>107.6</ele>
        <time>2023-07-18T09:00:47Z</time>
      </trkpt>
      <trkpt lat="47.36116" lon="0.41397">
        <ele>107.6</ele>
        <time>2023-07-18T09:00:48Z</time>
      </trkpt>
      <trkpt lat="47.36122" lon="0.41397">
        <ele>107.4</ele>
        <time>2023-07-18T09:00:49Z</time>
      </trkpt>
      <trkpt lat="47.36127" lon="0.41397">
        <ele>107.6</ele>
        <time>2023-07-18T09:00:50Z</time>
      </trkpt>
      <trkpt lat="47.36132" lon="0.41398">
        <ele>107.6</ele>
        <time>2023-07-18T09:00:51Z</time>
      </trkpt>
      <trkpt lat="47.36137" lon="0.41398">
        <ele>107.6</ele>
        <time>2023-07-18T09:00:52Z</time>
      </trkpt>
      <trkpt lat="47.36143" lon="0.41398">
        <ele>107.6</ele>
        <time>2023-07-18T09:00:53Z</time>
      </trkpt>
      <trkpt lat="47.36148" lon="0.41399">
        <ele>107.6</ele>
        <time>2023-07-18T09:00:54Z</time>
      </trkpt>
      <trkpt lat="47.36155" lon="0.414">
        <ele>107.6</ele>
        <time>2023-07-18T09:00:55Z</time>
      </trkpt>
      <trkpt lat="47.3616" lon="0.414">
        <ele>107.6</ele>
        <time>2023-07-18T09:00:56Z</time>
      </trkpt>
      <trkpt lat="47.36167" lon="0.41401">
        <ele>107.6</ele>
        <time>2023-07-18T09:00:57Z</time>
      </trkpt>
      <trkpt lat="47.36172" lon="0.41401">
        <ele>107.6</ele>
        <time>2023-07-18T09:00:58Z</time>
      </trkpt>
      <trkpt lat="47.36179" lon="0.41402">
        <ele>107.6</ele>
        <time>2023-07-18T09:00:59Z</time>
      </trkpt>
      <trkpt lat="47.36185" lon="0.41403">
        <ele>107.4</ele>
        <time>2023-07-18T09:01:00Z</time>
      </trkpt>
      <trkpt lat="47.36191" lon="0.41403">
        <ele>107.4</ele>
        <time>2023-07-18T09:01:01Z</time>
      </trkpt>
      <trkpt lat="47.36197" lon="0.41403">
        <ele>107.4</ele>
        <time>2023-07-18T09:01:02Z</time>
      </trkpt>
      <trkpt lat="47.36203" lon="0.41404">
        <ele>107</ele>
        <time>2023-07-18T09:01:03Z</time>
      </trkpt>
      <trkpt lat="47.3621" lon="0.41405">
        <ele>106.8</ele>
        <time>2023-07-18T09:01:04Z</time>
      </trkpt>
      <trkpt lat="47.36216" lon="0.41405">
        <ele>106.6</ele>
        <time>2023-07-18T09:01:05Z</time>
      </trkpt>
      <trkpt lat="47.36223" lon="0.41406">
        <ele>106.4</ele>
        <time>2023-07-18T09:01:06Z</time>
      </trkpt>
      <trkpt lat="47.36229" lon="0.41407">
        <ele>106.2</ele>
        <time>2023-07-18T09:01:07Z</time>
      </trkpt>
      <trkpt lat="47.36236" lon="0.41407">
        <ele>106.2</ele>
        <time>2023-07-18T09:01:08Z</time>
      </trkpt>
      <trkpt lat="47.36243" lon="0.41408">
        <ele>106.2</ele>
        <time>2023-07-18T09:01:09Z</time>
      </trkpt>
      <trkpt lat="47.3625" lon="0.41408">
        <ele>106</ele>
        <time>2023-07-18T09:01:10Z</time>
      </trkpt>
      <trkpt lat="47.36256" lon="0.41409">
        <ele>106.2</ele>
        <time>2023-07-18T09:01:11Z</time>
      </trkpt>
      <trkpt lat="47.36264" lon="0.41411">
        <ele>106.4</ele>
        <time>2023-07-18T09:01:12Z</time>
      </trkpt>
      <trkpt lat="47.36271" lon="0.41412">
        <ele>106.4</ele>
        <time>2023-07-18T09:01:13Z</time>
      </trkpt>
      <trkpt lat="47.36277" lon="0.41414">
        <ele>106.4</ele>
        <time>2023-07-18T09:01:14Z</time>
      </trkpt>
      <trkpt lat="47.36285" lon="0.41417">
        <ele>106.4</ele>
        <time>2023-07-18T09:01:15Z</time>
      </trkpt>
      <trkpt lat="47.36291" lon="0.41421">
        <ele>106.4</ele>
        <time>2023-07-18T09:01:16Z</time>
      </trkpt>
      <trkpt lat="47.36297" lon="0.41425">
        <ele>106.2</ele>
        <time>2023-07-18T09:01:17Z</time>
      </trkpt>
      <trkpt lat="47.36303" lon="0.41429">
        <ele>106</ele>
        <time>2023-07-18T09:01:18Z</time>
      </trkpt>
      <trkpt lat="47.36308" lon="0.41434">
        <ele>106</ele>
        <time>2023-07-18T09:01:19Z</time>
      </trkpt>
      <trkpt lat="47.36316" lon="0.41439">
        <ele>105.8</ele>
        <time>2023-07-18T09:01:20Z</time>
      </trkpt>
      <trkpt lat="47.36321" lon="0.41444">
        <ele>105.6</ele>
        <time>2023-07-18T09:01:21Z</time>
      </trkpt>
      <trkpt lat="47.36327" lon="0.41449">
        <ele>105.4</ele>
        <time>2023-07-18T09:01:22Z</time>
      </trkpt>
      <trkpt lat="47.36332" lon="0.41454">
        <ele>105.4</ele>
        <time>2023-07-18T09:01:23Z</time>
      </trkpt>
      <trkpt lat="47.36338" lon="0.41459">
        <ele>105.4</ele>
        <time>2023-07-18T09:01:24Z</time>
      </trkpt>
      <trkpt lat="47.36344" lon="0.41465">
        <ele>105.4</ele>
        <time>2023-07-18T09:01:25Z</time>
      </trkpt>
      <trkpt lat="47.36349" lon="0.4147">
        <ele>105.4</ele>
        <time>2023-07-18T09:01:26Z</time>
      </trkpt>
      <trkpt lat="47.36356" lon="0.41475">
        <ele>105.4</ele>
        <time>2023-07-18T09:01:27Z</time>
      </trkpt>
      <trkpt lat="47.36361" lon="0.4148">
        <ele>105.4</ele>
        <time>2023-07-18T09:01:28Z</time>
      </trkpt>
      <trkpt lat="47.36367" lon="0.41484">
        <ele>105.4</ele>
        <time>2023-07-18T09:01:29Z</time>
      </trkpt>
      <trkpt lat="47.36374" lon="0.41489">
        <ele>105.4</ele>
        <time>2023-07-18T09:01:30Z</time>
      </trkpt>
      <trkpt lat="47.36379" lon="0.41494">
        <ele>105.4</ele>
        <time>2023-07-18T09:01:31Z</time>
      </trkpt>
      <trkpt lat="47.36385" lon="0.41498">
        <ele>105.4</ele>
        <time>2023-07-18T09:01:32Z</time>
      </trkpt>
      <trkpt lat="47.36391" lon="0.41503">
        <ele>105.4</ele>
        <time>2023-07-18T09:01:33Z</time>
      </trkpt>
      <trkpt lat="47.36397" lon="0.41507">
        <ele>105.6</ele>
        <time>2023-07-18T09:01:34Z</time>
      </trkpt>
      <trkpt lat="47.36403" lon="0.41512">
        <ele>105.8</ele>
        <time>2023-07-18T09:01:35Z</time>
      </trkpt>
      <trkpt lat="47.36407" lon="0.41515">
        <ele>106</ele>
        <time>2023-07-18T09:01:36Z</time>
      </trkpt>
      <trkpt lat="47.36413" lon="0.41519">
        <ele>106.2</ele>
        <time>2023-07-18T09:01:37Z</time>
      </trkpt>
      <trkpt lat="47.36419" lon="0.41523">
        <ele>106.2</ele>
        <time>2023-07-18T09:01:38Z</time>
      </trkpt>
      <trkpt lat="47.36425" lon="0.41527">
        <ele>106.4</ele>
        <time>2023-07-18T09:01:39Z</time>
      </trkpt>
      <trkpt lat="47.3643" lon="0.4153">
        <ele>106.6</ele>
        <time>2023-07-18T09:01:40Z</time>
      </trkpt>
      <trkpt lat="47.36436" lon="0.41534">
        <ele>106.6</ele>
        <time>2023-07-18T09:01:41Z</time>
      </trkpt>
      <trkpt lat="47.36442" lon="0.41538">
        <ele>106.8</ele>
        <time>2023-07-18T09:01:42Z</time>
      </trkpt>
      <trkpt lat="47.36448" lon="0.41542">
        <ele>107</ele>
        <time>2023-07-18T09:01:43Z</time>
      </trkpt>
      <trkpt lat="47.36453" lon="0.41545">
        <ele>107</ele>
        <time>2023-07-18T09:01:44Z</time>
      </trkpt>
      <trkpt lat="47.36459" lon="0.41549">
        <ele>107.2</ele>
        <time>2023-07-18T09:01:45Z</time>
      </trkpt>
      <trkpt lat="47.36464" lon="0.41553">
        <ele>107.2</ele>
        <time>2023-07-18T09:01:46Z</time>
      </trkpt>
      <trkpt lat="47.36469" lon="0.41558">
        <ele>107.2</ele>
        <time>2023-07-18T09:01:47Z</time>
      </trkpt>
      <trkpt lat="47.36473" lon="0.41563">
        <ele>107.4</ele>
        <time>2023-07-18T09:01:48Z</time>
      </trkpt>
      <trkpt lat="47.36479" lon="0.41568">
        <ele>107.4</ele>
        <time>2023-07-18T09:01:49Z</time>
      </trkpt>
      <trkpt lat="47.36485" lon="0.41574">
        <ele>107.6</ele>
        <time>2023-07-18T09:01:50Z</time>
      </trkpt>
      <trkpt lat="47.36491" lon="0.41579">
        <ele>107.8</ele>
        <time>2023-07-18T09:01:51Z</time>
      </trkpt>
      <trkpt lat="47.36497" lon="0.41584">
        <ele>107.8</ele>
        <time>2023-07-18T09:01:52Z</time>
      </trkpt>
      <trkpt lat="47.36502" lon="0.41589">
        <ele>108</ele>
        <time>2023-07-18T09:01:53Z</time>
      </trkpt>
      <trkpt lat="47.36507" lon="0.41595">
        <ele>108</ele>
        <time>2023-07-18T09:01:54Z</time>
      </trkpt>
      <trkpt lat="47.36512" lon="0.41602">
        <ele>108.2</ele>
        <time>2023-07-18T09:01:55Z</time>
      </trkpt>
      <trkpt lat="47.36518" lon="0.41608">
        <ele>108.2</ele>
        <time>2023-07-18T09:01:56Z</time>
      </trkpt>
      <trkpt lat="47.36523" lon="0.41614">
        <ele>108.4</ele>
        <time>2023-07-18T09:01:57Z</time>
      </trkpt>
      <trkpt lat="47.36528" lon="0.41621">
        <ele>108.4</ele>
        <time>2023-07-18T09:01:58Z</time>
      </trkpt>
      <trkpt lat="47.36534" lon="0.41626">
        <ele>108.6</ele>
        <time>2023-07-18T09:01:59Z</time>
      </trkpt>
      <trkpt lat="47.36539" lon="0.41632">
        <ele>108.6</ele>
        <time>2023-07-18T09:02:00Z</time>
      </trkpt>
      <trkpt lat="47.36543" lon="0.41638">
        <ele>108.8</ele>
        <time>2023-07-18T09:02:01Z</time>
      </trkpt>
      <trkpt lat="47.36549" lon="0.41643">
        <ele>108.8</ele>
        <time>2023-07-18T09:02:02Z</time>
      </trkpt>
      <trkpt lat="47.36554" lon="0.41646">
        <ele>108.8</ele>
        <time>2023-07-18T09:02:03Z</time>
      </trkpt>
      <trkpt lat="47.3656" lon="0.4165">
        <ele>108.8</ele>
        <time>2023-07-18T09:02:04Z</time>
      </trkpt>
      <trkpt lat="47.36565" lon="0.41654">
        <ele>108.8</ele>
        <time>2023-07-18T09:02:05Z</time>
      </trkpt>
      <trkpt lat="47.36571" lon="0.41657">
        <ele>108.8</ele>
        <time>2023-07-18T09:02:06Z</time>
      </trkpt>
      <trkpt lat="47.36576" lon="0.41661">
        <ele>109</ele>
        <time>2023-07-18T09:02:07Z</time>
      </trkpt>
      <trkpt lat="47.36582" lon="0.41666">
        <ele>109</ele>
        <time>2023-07-18T09:02:08Z</time>
      </trkpt>
      <trkpt lat="47.36587" lon="0.41671">
        <ele>109.2</ele>
        <time>2023-07-18T09:02:09Z</time>
      </trkpt>
      <trkpt lat="47.36592" lon="0.41676">
        <ele>109.2</ele>
        <time>2023-07-18T09:02:10Z</time>
      </trkpt>
      <trkpt lat="47.36598" lon="0.4168">
        <ele>109.2</ele>
        <time>2023-07-18T09:02:11Z</time>
      </trkpt>
      <trkpt lat="47.36604" lon="0.41685">
        <ele>109.2</ele>
        <time>2023-07-18T09:02:12Z</time>
      </trkpt>
      <trkpt lat="47.36609" lon="0.41691">
        <ele>109.2</ele>
        <time>2023-07-18T09:02:13Z</time>
      </trkpt>
      <trkpt lat="47.36615" lon="0.41696">
        <ele>109.2</ele>
        <time>2023-07-18T09:02:14Z</time>
      </trkpt>
      <trkpt lat="47.36621" lon="0.41701">
        <ele>109.2</ele>
        <time>2023-07-18T09:02:15Z</time>
      </trkpt>
      <trkpt lat="47.36627" lon="0.41706">
        <ele>109.2</ele>
        <time>2023-07-18T09:02:16Z</time>
      </trkpt>
      <trkpt lat="47.36633" lon="0.4171">
        <ele>109.4</ele>
        <time>2023-07-18T09:02:17Z</time>
      </trkpt>
      <trkpt lat="47.36639" lon="0.41715">
        <ele>109.4</ele>
        <time>2023-07-18T09:02:18Z</time>
      </trkpt>
      <trkpt lat="47.36644" lon="0.4172">
        <ele>109.4</ele>
        <time>2023-07-18T09:02:19Z</time>
      </trkpt>
      <trkpt lat="47.3665" lon="0.41726">
        <ele>109.4</ele>
        <time>2023-07-18T09:02:20Z</time>
      </trkpt>
      <trkpt lat="47.36656" lon="0.41731">
        <ele>109.4</ele>
        <time>2023-07-18T09:02:21Z</time>
      </trkpt>
      <trkpt lat="47.36662" lon="0.41735">
        <ele>109.4</ele>
        <time>2023-07-18T09:02:22Z</time>
      </trkpt>
      <trkpt lat="47.36668" lon="0.4174">
        <ele>109.4</ele>
        <time>2023-07-18T09:02:23Z</time>
      </trkpt>
      <trkpt lat="47.36675" lon="0.41744">
        <ele>109.4</ele>
        <time>2023-07-18T09:02:24Z</time>
      </trkpt>
      <trkpt lat="47.36682" lon="0.41749">
        <ele>109.4</ele>
        <time>2023-07-18T09:02:25Z</time>
      </trkpt>
      <trkpt lat="47.36688" lon="0.41754">
        <ele>109.4</ele>
        <time>2023-07-18T09:02:26Z</time>
      </trkpt>
      <trkpt lat="47.36695" lon="0.41758">
        <ele>109.2</ele>
        <time>2023-07-18T09:02:27Z</time>
      </trkpt>
      <trkpt lat="47.36702" lon="0.41762">
        <ele>109</ele>
        <time>2023-07-18T09:02:28Z</time>
      </trkpt>
      <trkpt lat="47.36708" lon="0.41766">
        <ele>109</ele>
        <time>2023-07-18T09:02:29Z</time>
      </trkpt>
      <trkpt lat="47.36716" lon="0.4177">
        <ele>108.8</ele>
        <time>2023-07-18T09:02:30Z</time>
      </trkpt>
      <trkpt lat="47.36723" lon="0.41773">
        <ele>108.8</ele>
        <time>2023-07-18T09:02:31Z</time>
      </trkpt>
      <trkpt lat="47.3673" lon="0.41776">
        <ele>108.4</ele>
        <time>2023-07-18T09:02:32Z</time>
      </trkpt>
      <trkpt lat="47.36737" lon="0.41779">
        <ele>108.2</ele>
        <time>2023-07-18T09:02:33Z</time>
      </trkpt>
      <trkpt lat="47.36745" lon="0.41781">
        <ele>108</ele>
        <time>2023-07-18T09:02:34Z</time>
      </trkpt>
      <trkpt lat="47.36753" lon="0.41784">
        <ele>107.6</ele>
        <time>2023-07-18T09:02:35Z</time>
      </trkpt>
      <trkpt lat="47.3676" lon="0.41786">
        <ele>107.4</ele>
        <time>2023-07-18T09:02:36Z</time>
      </trkpt>
      <trkpt lat="47.36769" lon="0.41788">
        <ele>107.2</ele>
        <time>2023-07-18T09:02:37Z</time>
      </trkpt>
      <trkpt lat="47.36777" lon="0.4179">
        <ele>106.8</ele>
        <time>2023-07-18T09:02:38Z</time>
      </trkpt>
      <trkpt lat="47.36786" lon="0.41792">
        <ele>106.4</ele>
        <time>2023-07-18T09:02:39Z</time>
      </trkpt>
      <trkpt lat="47.36794" lon="0.41794">
        <ele>105.8</ele>
        <time>2023-07-18T09:02:40Z</time>
      </trkpt>
      <trkpt lat="47.36803" lon="0.41796">
        <ele>105.4</ele>
        <time>2023-07-18T09:02:41Z</time>
      </trkpt>
      <trkpt lat="47.36813" lon="0.41799">
        <ele>104.8</ele>
        <time>2023-07-18T09:02:42Z</time>
      </trkpt>
      <trkpt lat="47.36823" lon="0.41801">
        <ele>104.4</ele>
        <time>2023-07-18T09:02:43Z</time>
      </trkpt>
      <trkpt lat="47.36832" lon="0.41804">
        <ele>104</ele>
        <time>2023-07-18T09:02:44Z</time>
      </trkpt>
      <trkpt lat="47.36842" lon="0.41808">
        <ele>103.6</ele>
        <time>2023-07-18T09:02:45Z</time>
      </trkpt>
      <trkpt lat="47.36851" lon="0.41812">
        <ele>103.2</ele>
        <time>2023-07-18T09:02:46Z</time>
      </trkpt>
      <trkpt lat="47.36859" lon="0.41817">
        <ele>103.2</ele>
        <time>2023-07-18T09:02:47Z</time>
      </trkpt>
      <trkpt lat="47.36867" lon="0.41822">
        <ele>103.2</ele>
        <time>2023-07-18T09:02:48Z</time>
      </trkpt>
      <trkpt lat="47.36874" lon="0.41828">
        <ele>103.2</ele>
        <time>2023-07-18T09:02:49Z</time>
      </trkpt>
      <trkpt lat="47.36882" lon="0.41833">
        <ele>103.2</ele>
        <time>2023-07-18T09:02:50Z</time>
      </trkpt>
      <trkpt lat="47.36889" lon="0.41838">
        <ele>103.2</ele>
        <time>2023-07-18T09:02:51Z</time>
      </trkpt>
      <trkpt lat="47.36895" lon="0.41843">
        <ele>103.4</ele>
        <time>2023-07-18T09:02:52Z</time>
      </trkpt>
      <trkpt lat="47.36902" lon="0.41848">
        <ele>103.8</ele>
        <time>2023-07-18T09:02:53Z</time>
      </trkpt>
      <trkpt lat="47.36908" lon="0.41852">
        <ele>104</ele>
        <time>2023-07-18T09:02:54Z</time>
      </trkpt>
      <trkpt lat="47.36914" lon="0.41855">
        <ele>104.2</ele>
        <time>2023-07-18T09:02:55Z</time>
      </trkpt>
      <trkpt lat="47.36921" lon="0.41857">
        <ele>104.4</ele>
        <time>2023-07-18T09:02:56Z</time>
      </trkpt>
      <trkpt lat="47.36927" lon="0.4186">
        <ele>104.6</ele>
        <time>2023-07-18T09:02:57Z</time>
      </trkpt>
      <trkpt lat="47.36932" lon="0.41862">
        <ele>105</ele>
        <time>2023-07-18T09:02:58Z</time>
      </trkpt>
      <trkpt lat="47.36938" lon="0.41864">
        <ele>105.2</ele>
        <time>2023-07-18T09:02:59Z</time>
      </trkpt>
      <trkpt lat="47.36944" lon="0.41866">
        <ele>105.4</ele>
        <time>2023-07-18T09:03:00Z</time>
      </trkpt>
      <trkpt lat="47.3695" lon="0.41868">
        <ele>105.6</ele>
        <time>2023-07-18T09:03:01Z</time>
      </trkpt>
      <trkpt lat="47.36956" lon="0.4187">
        <ele>105.8</ele>
        <time>2023-07-18T09:03:02Z</time>
      </trkpt>
      <trkpt lat="47.36961" lon="0.41871">
        <ele>106.2</ele>
        <time>2023-07-18T09:03:03Z</time>
      </trkpt>
      <trkpt lat="47.36966" lon="0.41873">
        <ele>106.4</ele>
        <time>2023-07-18T09:03:04Z</time>
      </trkpt>
      <trkpt lat="47.36972" lon="0.41875">
        <ele>106.8</ele>
        <time>2023-07-18T09:03:05Z</time>
      </trkpt>
      <trkpt lat="47.36978" lon="0.41876">
        <ele>107</ele>
        <time>2023-07-18T09:03:06Z</time>
      </trkpt>
      <trkpt lat="47.36983" lon="0.41878">
        <ele>107</ele>
        <time>2023-07-18T09:03:07Z</time>
      </trkpt>
      <trkpt lat="47.36988" lon="0.41881">
        <ele>107.2</ele>
        <time>2023-07-18T09:03:08Z</time>
      </trkpt>
      <trkpt lat="47.36993" lon="0.41882">
        <ele>107.2</ele>
        <time>2023-07-18T09:03:09Z</time>
      </trkpt>
      <trkpt lat="47.36998" lon="0.41884">
        <ele>107.4</ele>
        <time>2023-07-18T09:03:10Z</time>
      </trkpt>
      <trkpt lat="47.37002" lon="0.41885">
        <ele>107.4</ele>
        <time>2023-07-18T09:03:11Z</time>
      </trkpt>
      <trkpt lat="47.37007" lon="0.41888">
        <ele>107.6</ele>
        <time>2023-07-18T09:03:12Z</time>
      </trkpt>
      <trkpt lat="47.37012" lon="0.4189">
        <ele>107.6</ele>
        <time>2023-07-18T09:03:13Z</time>
      </trkpt>
      <trkpt lat="47.37019" lon="0.41893">
        <ele>107.6</ele>
        <time>2023-07-18T09:03:14Z</time>
      </trkpt>
      <trkpt lat="47.37025" lon="0.41897">
        <ele>107.6</ele>
        <time>2023-07-18T09:03:15Z</time>
      </trkpt>
      <trkpt lat="47.37032" lon="0.41899">
        <ele>107.6</ele>
        <time>2023-07-18T09:03:16Z</time>
      </trkpt>
      <trkpt lat="47.37038" lon="0.41902">
        <ele>107.6</ele>
        <time>2023-07-18T09:03:17Z</time>
      </trkpt>
      <trkpt lat="47.37045" lon="0.41906">
        <ele>107.6</ele>
        <time>2023-07-18T09:03:18Z</time>
      </trkpt>
      <trkpt lat="47.37051" lon="0.41909">
        <ele>107.6</ele>
        <time>2023-07-18T09:03:19Z</time>
      </trkpt>
      <trkpt lat="47.37058" lon="0.41913">
        <ele>107.6</ele>
        <time>2023-07-18T09:03:20Z</time>
      </trkpt>
      <trkpt lat="47.37066" lon="0.41917">
        <ele>107.6</ele>
        <time>2023-07-18T09:03:21Z</time>
      </trkpt>
      <trkpt lat="47.37073" lon="0.41921">
        <ele>107.6</ele>
        <time>2023-07-18T09:03:22Z</time>
      </trkpt>
      <trkpt lat="47.3708" lon="0.41926">
        <ele>107.8</ele>
        <time>2023-07-18T09:03:23Z</time>
      </trkpt>
      <trkpt lat="47.37087" lon="0.4193">
        <ele>107.6</ele>
        <time>2023-07-18T09:03:24Z</time>
      </trkpt>
      <trkpt lat="47.37093" lon="0.41933">
        <ele>107.6</ele>
        <time>2023-07-18T09:03:25Z</time>
      </trkpt>
      <trkpt lat="47.37099" lon="0.41937">
        <ele>107.6</ele>
        <time>2023-07-18T09:03:26Z</time>
      </trkpt>
      <trkpt lat="47.37107" lon="0.4194">
        <ele>107.8</ele>
        <time>2023-07-18T09:03:27Z</time>
      </trkpt>
      <trkpt lat="47.37116" lon="0.41944">
        <ele>107.8</ele>
        <time>2023-07-18T09:03:28Z</time>
      </trkpt>
      <trkpt lat="47.37124" lon="0.41948">
        <ele>107.8</ele>
        <time>2023-07-18T09:03:29Z</time>
      </trkpt>
      <trkpt lat="47.37133" lon="0.4195">
        <ele>107.8</ele>
        <time>2023-07-18T09:03:30Z</time>
      </trkpt>
      <trkpt lat="47.3714" lon="0.41953">
        <ele>107.8</ele>
        <time>2023-07-18T09:03:31Z</time>
      </trkpt>
      <trkpt lat="47.37148" lon="0.41953">
        <ele>107.8</ele>
        <time>2023-07-18T09:03:32Z</time>
      </trkpt>
      <trkpt lat="47.37156" lon="0.41951">
        <ele>107.8</ele>
        <time>2023-07-18T09:03:33Z</time>
      </trkpt>
      <trkpt lat="47.37163" lon="0.41947">
        <ele>107.8</ele>
        <time>2023-07-18T09:03:34Z</time>
      </trkpt>
      <trkpt lat="47.3717" lon="0.41943">
        <ele>107.8</ele>
        <time>2023-07-18T09:03:35Z</time>
      </trkpt>
      <trkpt lat="47.37177" lon="0.41938">
        <ele>107.6</ele>
        <time>2023-07-18T09:03:36Z</time>
      </trkpt>
      <trkpt lat="47.37183" lon="0.41935">
        <ele>107.6</ele>
        <time>2023-07-18T09:03:37Z</time>
      </trkpt>
      <trkpt lat="47.37189" lon="0.41933">
        <ele>107.6</ele>
        <time>2023-07-18T09:03:38Z</time>
      </trkpt>
      <trkpt lat="47.37196" lon="0.41932">
        <ele>107.6</ele>
        <time>2023-07-18T09:03:39Z</time>
      </trkpt>
      <trkpt lat="47.37203" lon="0.41933">
        <ele>107.6</ele>
        <time>2023-07-18T09:03:40Z</time>
      </trkpt>
      <trkpt lat="47.3721" lon="0.41934">
        <ele>107.8</ele>
        <time>2023-07-18T09:03:41Z</time>
      </trkpt>
      <trkpt lat="47.37218" lon="0.41935">
        <ele>107.6</ele>
        <time>2023-07-18T09:03:42Z</time>
      </trkpt>
      <trkpt lat="47.37225" lon="0.41937">
        <ele>107.8</ele>
        <time>2023-07-18T09:03:43Z</time>
      </trkpt>
      <trkpt lat="47.37231" lon="0.41939">
        <ele>107.8</ele>
        <time>2023-07-18T09:03:44Z</time>
      </trkpt>
      <trkpt lat="47.37239" lon="0.41942">
        <ele>107.8</ele>
        <time>2023-07-18T09:03:45Z</time>
      </trkpt>
      <trkpt lat="47.37245" lon="0.41944">
        <ele>108</ele>
        <time>2023-07-18T09:03:46Z</time>
      </trkpt>
      <trkpt lat="47.37253" lon="0.41947">
        <ele>108</ele>
        <time>2023-07-18T09:03:47Z</time>
      </trkpt>
      <trkpt lat="47.37259" lon="0.41949">
        <ele>108.2</ele>
        <time>2023-07-18T09:03:48Z</time>
      </trkpt>
      <trkpt lat="47.37266" lon="0.41951">
        <ele>108.2</ele>
        <time>2023-07-18T09:03:49Z</time>
      </trkpt>
      <trkpt lat="47.37272" lon="0.41954">
        <ele>108.4</ele>
        <time>2023-07-18T09:03:50Z</time>
      </trkpt>
      <trkpt lat="47.37279" lon="0.41956">
        <ele>108.4</ele>
        <time>2023-07-18T09:03:51Z</time>
      </trkpt>
      <trkpt lat="47.37286" lon="0.41959">
        <ele>108.6</ele>
        <time>2023-07-18T09:03:52Z</time>
      </trkpt>
      <trkpt lat="47.37292" lon="0.41961">
        <ele>108.6</ele>
        <time>2023-07-18T09:03:53Z</time>
      </trkpt>
      <trkpt lat="47.37299" lon="0.41963">
        <ele>108.8</ele>
        <time>2023-07-18T09:03:54Z</time>
      </trkpt>
      <trkpt lat="47.37305" lon="0.41966">
        <ele>108.8</ele>
        <time>2023-07-18T09:03:55Z</time>
      </trkpt>
      <trkpt lat="47.37312" lon="0.41968">
        <ele>109</ele>
        <time>2023-07-18T09:03:56Z</time>
      </trkpt>
      <trkpt lat="47.37317" lon="0.4197">
        <ele>109</ele>
        <time>2023-07-18T09:03:57Z</time>
      </trkpt>
      <trkpt lat="47.37325" lon="0.41974">
        <ele>109</ele>
        <time>2023-07-18T09:03:58Z</time>
      </trkpt>
      <trkpt lat="47.37332" lon="0.41976">
        <ele>109.2</ele>
        <time>2023-07-18T09:03:59Z</time>
      </trkpt>
      <trkpt lat="47.37338" lon="0.41979">
        <ele>109</ele>
        <time>2023-07-18T09:04:00Z</time>
      </trkpt>
      <trkpt lat="47.37344" lon="0.41982">
        <ele>109.2</ele>
        <time>2023-07-18T09:04:01Z</time>
      </trkpt>
      <trkpt lat="47.37351" lon="0.41985">
        <ele>109.2</ele>
        <time>2023-07-18T09:04:02Z</time>
      </trkpt>
      <trkpt lat="47.37358" lon="0.41989">
        <ele>109</ele>
        <time>2023-07-18T09:04:03Z</time>
      </trkpt>
      <trkpt lat="47.37365" lon="0.41992">
        <ele>109</ele>
        <time>2023-07-18T09:04:04Z</time>
      </trkpt>
      <trkpt lat="47.3737" lon="0.41997">
        <ele>108.8</ele>
        <time>2023-07-18T09:04:05Z</time>
      </trkpt>
      <trkpt lat="47.37377" lon="0.42002">
        <ele>109.2</ele>
        <time>2023-07-18T09:04:06Z</time>
      </trkpt>
      <trkpt lat="47.37383" lon="0.42007">
        <ele>109</ele>
        <time>2023-07-18T09:04:07Z</time>
      </trkpt>
      <trkpt lat="47.37389" lon="0.42013">
        <ele>109</ele>
        <time>2023-07-18T09:04:08Z</time>
      </trkpt>
      <trkpt lat="47.37396" lon="0.42018">
        <ele>108.8</ele>
        <time>2023-07-18T09:04:09Z</time>
      </trkpt>
      <trkpt lat="47.37403" lon="0.42024">
        <ele>108.6</ele>
        <time>2023-07-18T09:04:10Z</time>
      </trkpt>
      <trkpt lat="47.37409" lon="0.42028">
        <ele>108.4</ele>
        <time>2023-07-18T09:04:11Z</time>
      </trkpt>
      <trkpt lat="47.37418" lon="0.42034">
        <ele>108</ele>
        <time>2023-07-18T09:04:12Z</time>
      </trkpt>
      <trkpt lat="47.37424" lon="0.42039">
        <ele>107.8</ele>
        <time>2023-07-18T09:04:13Z</time>
      </trkpt>
      <trkpt lat="47.37432" lon="0.42044">
        <ele>107.6</ele>
        <time>2023-07-18T09:04:14Z</time>
      </trkpt>
      <trkpt lat="47.37439" lon="0.4205">
        <ele>107.4</ele>
        <time>2023-07-18T09:04:15Z</time>
      </trkpt>
      <trkpt lat="47.37446" lon="0.42055">
        <ele>107.2</ele>
        <time>2023-07-18T09:04:16Z</time>
      </trkpt>
      <trkpt lat="47.37454" lon="0.42061">
        <ele>107</ele>
        <time>2023-07-18T09:04:17Z</time>
      </trkpt>
      <trkpt lat="47.37461" lon="0.42067">
        <ele>107</ele>
        <time>2023-07-18T09:04:18Z</time>
      </trkpt>
      <trkpt lat="47.37469" lon="0.42073">
        <ele>106.6</ele>
        <time>2023-07-18T09:04:19Z</time>
      </trkpt>
      <trkpt lat="47.37476" lon="0.42078">
        <ele>106.4</ele>
        <time>2023-07-18T09:04:20Z</time>
      </trkpt>
      <trkpt lat="47.37483" lon="0.42085">
        <ele>106</ele>
        <time>2023-07-18T09:04:21Z</time>
      </trkpt>
      <trkpt lat="47.3749" lon="0.42091">
        <ele>105.8</ele>
        <time>2023-07-18T09:04:22Z</time>
      </trkpt>
      <trkpt lat="47.37497" lon="0.42099">
        <ele>105.8</ele>
        <time>2023-07-18T09:04:23Z</time>
      </trkpt>
      <trkpt lat="47.37504" lon="0.42108">
        <ele>105.6</ele>
        <time>2023-07-18T09:04:24Z</time>
      </trkpt>
      <trkpt lat="47.37512" lon="0.42116">
        <ele>105</ele>
        <time>2023-07-18T09:04:25Z</time>
      </trkpt>
      <trkpt lat="47.37519" lon="0.42124">
        <ele>105</ele>
        <time>2023-07-18T09:04:26Z</time>
      </trkpt>
      <trkpt lat="47.37527" lon="0.42133">
        <ele>104.4</ele>
        <time>2023-07-18T09:04:27Z</time>
      </trkpt>
      <trkpt lat="47.37534" lon="0.42142">
        <ele>104.2</ele>
        <time>2023-07-18T09:04:28Z</time>
      </trkpt>
      <trkpt lat="47.3754" lon="0.42151">
        <ele>103.8</ele>
        <time>2023-07-18T09:04:29Z</time>
      </trkpt>
      <trkpt lat="47.37548" lon="0.4216">
        <ele>103.6</ele>
        <time>2023-07-18T09:04:30Z</time>
      </trkpt>
      <trkpt lat="47.37555" lon="0.4217">
        <ele>103.4</ele>
        <time>2023-07-18T09:04:31Z</time>
      </trkpt>
      <trkpt lat="47.37562" lon="0.42179">
        <ele>103.4</ele>
        <time>2023-07-18T09:04:32Z</time>
      </trkpt>
      <trkpt lat="47.37569" lon="0.42188">
        <ele>103.2</ele>
        <time>2023-07-18T09:04:33Z</time>
      </trkpt>
      <trkpt lat="47.37577" lon="0.42197">
        <ele>103</ele>
        <time>2023-07-18T09:04:34Z</time>
      </trkpt>
      <trkpt lat="47.37584" lon="0.42206">
        <ele>103</ele>
        <time>2023-07-18T09:04:35Z</time>
      </trkpt>
      <trkpt lat="47.3759" lon="0.42214">
        <ele>102.8</ele>
        <time>2023-07-18T09:04:36Z</time>
      </trkpt>
      <trkpt lat="47.37597" lon="0.42222">
        <ele>103</ele>
        <time>2023-07-18T09:04:37Z</time>
      </trkpt>
      <trkpt lat="47.37603" lon="0.42229">
        <ele>103</ele>
        <time>2023-07-18T09:04:38Z</time>
      </trkpt>
      <trkpt lat="47.37608" lon="0.42235">
        <ele>103.2</ele>
        <time>2023-07-18T09:04:39Z</time>
      </trkpt>
      <trkpt lat="47.37615" lon="0.42243">
        <ele>103.2</ele>
        <time>2023-07-18T09:04:40Z</time>
      </trkpt>
      <trkpt lat="47.37621" lon="0.42249">
        <ele>103.4</ele>
        <time>2023-07-18T09:04:41Z</time>
      </trkpt>
      <trkpt lat="47.37628" lon="0.42254">
        <ele>103.4</ele>
        <time>2023-07-18T09:04:42Z</time>
      </trkpt>
      <trkpt lat="47.37634" lon="0.4226">
        <ele>103.6</ele>
        <time>2023-07-18T09:04:43Z</time>
      </trkpt>
      <trkpt lat="47.3764" lon="0.42265">
        <ele>103.8</ele>
        <time>2023-07-18T09:04:44Z</time>
      </trkpt>
      <trkpt lat="47.37647" lon="0.42271">
        <ele>103.8</ele>
        <time>2023-07-18T09:04:45Z</time>
      </trkpt>
      <trkpt lat="47.37653" lon="0.42277">
        <ele>104</ele>
        <time>2023-07-18T09:04:46Z</time>
      </trkpt>
      <trkpt lat="47.37659" lon="0.42282">
        <ele>104</ele>
        <time>2023-07-18T09:04:47Z</time>
      </trkpt>
      <trkpt lat="47.37665" lon="0.42289">
        <ele>104</ele>
        <time>2023-07-18T09:04:48Z</time>
      </trkpt>
      <trkpt lat="47.37671" lon="0.42295">
        <ele>104</ele>
        <time>2023-07-18T09:04:49Z</time>
      </trkpt>
      <trkpt lat="47.37677" lon="0.42301">
        <ele>104</ele>
        <time>2023-07-18T09:04:50Z</time>
      </trkpt>
      <trkpt lat="47.37683" lon="0.42307">
        <ele>104</ele>
        <time>2023-07-18T09:04:51Z</time>
      </trkpt>
      <trkpt lat="47.37689" lon="0.42314">
        <ele>104</ele>
        <time>2023-07-18T09:04:52Z</time>
      </trkpt>
      <trkpt lat="47.37695" lon="0.4232">
        <ele>104</ele>
        <time>2023-07-18T09:04:53Z</time>
      </trkpt>
      <trkpt lat="47.37701" lon="0.42325">
        <ele>104</ele>
        <time>2023-07-18T09:04:54Z</time>
      </trkpt>
      <trkpt lat="47.37708" lon="0.4233">
        <ele>104.2</ele>
        <time>2023-07-18T09:04:55Z</time>
      </trkpt>
      <trkpt lat="47.37714" lon="0.42333">
        <ele>104.2</ele>
        <time>2023-07-18T09:04:56Z</time>
      </trkpt>
      <trkpt lat="47.37719" lon="0.42335">
        <ele>104.4</ele>
        <time>2023-07-18T09:04:57Z</time>
      </trkpt>
      <trkpt lat="47.37726" lon="0.42337">
        <ele>104.2</ele>
        <time>2023-07-18T09:04:58Z</time>
      </trkpt>
      <trkpt lat="47.37733" lon="0.4234">
        <ele>104.2</ele>
        <time>2023-07-18T09:04:59Z</time>
      </trkpt>
      <trkpt lat="47.3774" lon="0.42343">
        <ele>104.2</ele>
        <time>2023-07-18T09:05:00Z</time>
      </trkpt>
      <trkpt lat="47.37747" lon="0.42346">
        <ele>104.2</ele>
        <time>2023-07-18T09:05:01Z</time>
      </trkpt>
      <trkpt lat="47.37753" lon="0.42351">
        <ele>104.2</ele>
        <time>2023-07-18T09:05:02Z</time>
      </trkpt>
      <trkpt lat="47.3776" lon="0.42355">
        <ele>104.2</ele>
        <time>2023-07-18T09:05:03Z</time>
      </trkpt>
      <trkpt lat="47.37766" lon="0.4236">
        <ele>104.2</ele>
        <time>2023-07-18T09:05:04Z</time>
      </trkpt>
      <trkpt lat="47.37772" lon="0.42364">
        <ele>104.4</ele>
        <time>2023-07-18T09:05:05Z</time>
      </trkpt>
      <trkpt lat="47.37779" lon="0.42369">
        <ele>104.4</ele>
        <time>2023-07-18T09:05:06Z</time>
      </trkpt>
      <trkpt lat="47.37786" lon="0.42373">
        <ele>104.6</ele>
        <time>2023-07-18T09:05:07Z</time>
      </trkpt>
      <trkpt lat="47.37792" lon="0.42376">
        <ele>104.2</ele>
        <time>2023-07-18T09:05:08Z</time>
      </trkpt>
      <trkpt lat="47.37799" lon="0.4238">
        <ele>104.4</ele>
        <time>2023-07-18T09:05:09Z</time>
      </trkpt>
      <trkpt lat="47.37806" lon="0.42382">
        <ele>104.2</ele>
        <time>2023-07-18T09:05:10Z</time>
      </trkpt>
      <trkpt lat="47.37813" lon="0.42385">
        <ele>104</ele>
        <time>2023-07-18T09:05:11Z</time>
      </trkpt>
      <trkpt lat="47.3782" lon="0.42389">
        <ele>104</ele>
        <time>2023-07-18T09:05:12Z</time>
      </trkpt>
      <trkpt lat="47.37827" lon="0.42391">
        <ele>103.6</ele>
        <time>2023-07-18T09:05:13Z</time>
      </trkpt>
      <trkpt lat="47.37834" lon="0.42394">
        <ele>103.6</ele>
        <time>2023-07-18T09:05:14Z</time>
      </trkpt>
      <trkpt lat="47.3784" lon="0.42398">
        <ele>103.6</ele>
        <time>2023-07-18T09:05:15Z</time>
      </trkpt>
      <trkpt lat="47.37848" lon="0.42402">
        <ele>103.6</ele>
        <time>2023-07-18T09:05:16Z</time>
      </trkpt>
      <trkpt lat="47.37854" lon="0.42405">
        <ele>103.2</ele>
        <time>2023-07-18T09:05:17Z</time>
      </trkpt>
      <trkpt lat="47.37861" lon="0.4241">
        <ele>103</ele>
        <time>2023-07-18T09:05:18Z</time>
      </trkpt>
      <trkpt lat="47.37867" lon="0.42414">
        <ele>102.8</ele>
        <time>2023-07-18T09:05:19Z</time>
      </trkpt>
      <trkpt lat="47.37874" lon="0.42418">
        <ele>102.6</ele>
        <time>2023-07-18T09:05:20Z</time>
      </trkpt>
      <trkpt lat="47.37881" lon="0.42422">
        <ele>102.4</ele>
        <time>2023-07-18T09:05:21Z</time>
      </trkpt>
      <trkpt lat="47.37888" lon="0.42427">
        <ele>102.4</ele>
        <time>2023-07-18T09:05:22Z</time>
      </trkpt>
      <trkpt lat="47.37894" lon="0.42431">
        <ele>102.2</ele>
        <time>2023-07-18T09:05:23Z</time>
      </trkpt>
      <trkpt lat="47.37901" lon="0.42435">
        <ele>102</ele>
        <time>2023-07-18T09:05:24Z</time>
      </trkpt>
      <trkpt lat="47.37908" lon="0.42439">
        <ele>101.6</ele>
        <time>2023-07-18T09:05:25Z</time>
      </trkpt>
      <trkpt lat="47.37915" lon="0.42443">
        <ele>101.4</ele>
        <time>2023-07-18T09:05:26Z</time>
      </trkpt>
      <trkpt lat="47.37922" lon="0.42447">
        <ele>101</ele>
        <time>2023-07-18T09:05:27Z</time>
      </trkpt>
      <trkpt lat="47.37929" lon="0.42452">
        <ele>100.8</ele>
        <time>2023-07-18T09:05:28Z</time>
      </trkpt>
      <trkpt lat="47.37936" lon="0.42456">
        <ele>100.6</ele>
        <time>2023-07-18T09:05:29Z</time>
      </trkpt>
      <trkpt lat="47.37943" lon="0.4246">
        <ele>100.4</ele>
        <time>2023-07-18T09:05:30Z</time>
      </trkpt>
      <trkpt lat="47.3795" lon="0.42464">
        <ele>100.2</ele>
        <time>2023-07-18T09:05:31Z</time>
      </trkpt>
      <trkpt lat="47.37956" lon="0.42469">
        <ele>99.8</ele>
        <time>2023-07-18T09:05:32Z</time>
      </trkpt>
      <trkpt lat="47.37964" lon="0.42473">
        <ele>99.4</ele>
        <time>2023-07-18T09:05:33Z</time>
      </trkpt>
      <trkpt lat="47.37971" lon="0.42478">
        <ele>99.2</ele>
        <time>2023-07-18T09:05:34Z</time>
      </trkpt>
      <trkpt lat="47.37978" lon="0.42482">
        <ele>99</ele>
        <time>2023-07-18T09:05:35Z</time>
      </trkpt>
      <trkpt lat="47.37985" lon="0.42486">
        <ele>99</ele>
        <time>2023-07-18T09:05:36Z</time>
      </trkpt>
      <trkpt lat="47.37992" lon="0.4249">
        <ele>98.6</ele>
        <time>2023-07-18T09:05:37Z</time>
      </trkpt>
      <trkpt lat="47.37999" lon="0.42494">
        <ele>98.4</ele>
        <time>2023-07-18T09:05:38Z</time>
      </trkpt>
      <trkpt lat="47.38005" lon="0.42497">
        <ele>98.2</ele>
        <time>2023-07-18T09:05:39Z</time>
      </trkpt>
      <trkpt lat="47.3801" lon="0.42501">
        <ele>98</ele>
        <time>2023-07-18T09:05:40Z</time>
      </trkpt>
      <trkpt lat="47.38014" lon="0.42504">
        <ele>97.6</ele>
        <time>2023-07-18T09:05:41Z</time>
      </trkpt>
      <trkpt lat="47.38017" lon="0.42506">
        <ele>97.4</ele>
        <time>2023-07-18T09:05:42Z</time>
      </trkpt>
      <trkpt lat="47.38019" lon="0.42509">
        <ele>97.2</ele>
        <time>2023-07-18T09:05:43Z</time>
      </trkpt>
      <trkpt lat="47.3802" lon="0.42512">
        <ele>97</ele>
        <time>2023-07-18T09:05:44Z</time>
      </trkpt>
      <trkpt lat="47.38022" lon="0.42513">
        <ele>96.6</ele>
        <time>2023-07-18T09:05:50Z</time>
      </trkpt>
      <trkpt lat="47.38024" lon="0.42513">
        <ele>96.6</ele>
        <time>2023-07-18T09:05:51Z</time>
      </trkpt>
      <trkpt lat="47.38026" lon="0.42513">
        <ele>96.6</ele>
        <time>2023-07-18T09:05:52Z</time>
      </trkpt>
      <trkpt lat="47.38029" lon="0.42513">
        <ele>96.6</ele>
        <time>2023-07-18T09:05:53Z</time>
      </trkpt>
      <trkpt lat="47.38033" lon="0.42511">
        <ele>96.6</ele>
        <time>2023-07-18T09:05:54Z</time>
      </trkpt>
      <trkpt lat="47.38036" lon="0.42509">
        <ele>96.6</ele>
        <time>2023-07-18T09:05:55Z</time>
      </trkpt>
      <trkpt lat="47.3804" lon="0.42505">
        <ele>96.6</ele>
        <time>2023-07-18T09:05:56Z</time>
      </trkpt>
      <trkpt lat="47.38044" lon="0.42502">
        <ele>96.8</ele>
        <time>2023-07-18T09:05:57Z</time>
      </trkpt>
      <trkpt lat="47.38048" lon="0.42499">
        <ele>96.8</ele>
        <time>2023-07-18T09:05:58Z</time>
      </trkpt>
      <trkpt lat="47.38052" lon="0.42496">
        <ele>97</ele>
        <time>2023-07-18T09:05:59Z</time>
      </trkpt>
      <trkpt lat="47.38056" lon="0.42493">
        <ele>97</ele>
        <time>2023-07-18T09:06:00Z</time>
      </trkpt>
      <trkpt lat="47.38061" lon="0.42489">
        <ele>97</ele>
        <time>2023-07-18T09:06:01Z</time>
      </trkpt>
      <trkpt lat="47.38066" lon="0.42485">
        <ele>97.2</ele>
        <time>2023-07-18T09:06:02Z</time>
      </trkpt>
      <trkpt lat="47.3807" lon="0.42481">
        <ele>97.2</ele>
        <time>2023-07-18T09:06:03Z</time>
      </trkpt>
      <trkpt lat="47.38074" lon="0.42479">
        <ele>97.4</ele>
        <time>2023-07-18T09:06:04Z</time>
      </trkpt>
      <trkpt lat="47.38079" lon="0.42475">
        <ele>97.4</ele>
        <time>2023-07-18T09:06:05Z</time>
      </trkpt>
      <trkpt lat="47.38083" lon="0.42472">
        <ele>97.6</ele>
        <time>2023-07-18T09:06:06Z</time>
      </trkpt>
      <trkpt lat="47.38089" lon="0.42468">
        <ele>97.6</ele>
        <time>2023-07-18T09:06:07Z</time>
      </trkpt>
      <trkpt lat="47.38094" lon="0.42464">
        <ele>97.8</ele>
        <time>2023-07-18T09:06:08Z</time>
      </trkpt>
      <trkpt lat="47.38099" lon="0.4246">
        <ele>98</ele>
        <time>2023-07-18T09:06:09Z</time>
      </trkpt>
      <trkpt lat="47.38103" lon="0.42456">
        <ele>98</ele>
        <time>2023-07-18T09:06:10Z</time>
      </trkpt>
      <trkpt lat="47.38107" lon="0.42453">
        <ele>98</ele>
        <time>2023-07-18T09:06:11Z</time>
      </trkpt>
      <trkpt lat="47.38109" lon="0.42452">
        <ele>98</ele>
        <time>2023-07-18T09:06:12Z</time>
      </trkpt>
      <trkpt lat="47.38111" lon="0.4245">
        <ele>98</ele>
        <time>2023-07-18T09:06:13Z</time>
      </trkpt>
      <trkpt lat="47.38113" lon="0.42448">
        <ele>98</ele>
        <time>2023-07-18T09:06:14Z</time>
      </trkpt>
      <trkpt lat="47.38115" lon="0.42447">
        <ele>98.2</ele>
        <time>2023-07-18T09:06:15Z</time>
      </trkpt>
      <trkpt lat="47.38118" lon="0.42445">
        <ele>98.2</ele>
        <time>2023-07-18T09:06:16Z</time>
      </trkpt>
      <trkpt lat="47.38121" lon="0.42443">
        <ele>98.2</ele>
        <time>2023-07-18T09:06:17Z</time>
      </trkpt>
      <trkpt lat="47.38124" lon="0.42441">
        <ele>98.2</ele>
        <time>2023-07-18T09:06:18Z</time>
      </trkpt>
      <trkpt lat="47.38128" lon="0.42438">
        <ele>98.4</ele>
        <time>2023-07-18T09:06:19Z</time>
      </trkpt>
      <trkpt lat="47.38131" lon="0.42435">
        <ele>98.4</ele>
        <time>2023-07-18T09:06:20Z</time>
      </trkpt>
      <trkpt lat="47.38136" lon="0.42431">
        <ele>98.6</ele>
        <time>2023-07-18T09:06:21Z</time>
      </trkpt>
      <trkpt lat="47.3814" lon="0.42427">
        <ele>98.8</ele>
        <time>2023-07-18T09:06:22Z</time>
      </trkpt>
      <trkpt lat="47.38145" lon="0.42423">
        <ele>98.8</ele>
        <time>2023-07-18T09:06:23Z</time>
      </trkpt>
      <trkpt lat="47.38149" lon="0.42419">
        <ele>99</ele>
        <time>2023-07-18T09:06:24Z</time>
      </trkpt>
      <trkpt lat="47.38153" lon="0.42415">
        <ele>99.2</ele>
        <time>2023-07-18T09:06:25Z</time>
      </trkpt>
      <trkpt lat="47.38158" lon="0.4241">
        <ele>99.4</ele>
        <time>2023-07-18T09:06:26Z</time>
      </trkpt>
      <trkpt lat="47.38164" lon="0.42406">
        <ele>99.4</ele>
        <time>2023-07-18T09:06:27Z</time>
      </trkpt>
      <trkpt lat="47.38169" lon="0.42403">
        <ele>99.6</ele>
        <time>2023-07-18T09:06:28Z</time>
      </trkpt>
      <trkpt lat="47.38174" lon="0.424">
        <ele>99.8</ele>
        <time>2023-07-18T09:06:29Z</time>
      </trkpt>
      <trkpt lat="47.38179" lon="0.42396">
        <ele>100</ele>
        <time>2023-07-18T09:06:30Z</time>
      </trkpt>
      <trkpt lat="47.38184" lon="0.42393">
        <ele>100.2</ele>
        <time>2023-07-18T09:06:31Z</time>
      </trkpt>
      <trkpt lat="47.3819" lon="0.42388">
        <ele>100.4</ele>
        <time>2023-07-18T09:06:32Z</time>
      </trkpt>
      <trkpt lat="47.38195" lon="0.42384">
        <ele>100.8</ele>
        <time>2023-07-18T09:06:33Z</time>
      </trkpt>
      <trkpt lat="47.38201" lon="0.4238">
        <ele>100.8</ele>
        <time>2023-07-18T09:06:34Z</time>
      </trkpt>
      <trkpt lat="47.38206" lon="0.42376">
        <ele>101</ele>
        <time>2023-07-18T09:06:35Z</time>
      </trkpt>
      <trkpt lat="47.38212" lon="0.42372">
        <ele>101.2</ele>
        <time>2023-07-18T09:06:36Z</time>
      </trkpt>
      <trkpt lat="47.38217" lon="0.42368">
        <ele>101.4</ele>
        <time>2023-07-18T09:06:37Z</time>
      </trkpt>
      <trkpt lat="47.38222" lon="0.42364">
        <ele>101.6</ele>
        <time>2023-07-18T09:06:38Z</time>
      </trkpt>
      <trkpt lat="47.38227" lon="0.42359">
        <ele>101.8</ele>
        <time>2023-07-18T09:06:39Z</time>
      </trkpt>
      <trkpt lat="47.38232" lon="0.42355">
        <ele>101.8</ele>
        <time>2023-07-18T09:06:40Z</time>
      </trkpt>
      <trkpt lat="47.38238" lon="0.42351">
        <ele>101.8</ele>
        <time>2023-07-18T09:06:41Z</time>
      </trkpt>
      <trkpt lat="47.38243" lon="0.42348">
        <ele>102</ele>
        <time>2023-07-18T09:06:42Z</time>
      </trkpt>
      <trkpt lat="47.38248" lon="0.42344">
        <ele>102</ele>
        <time>2023-07-18T09:06:43Z</time>
      </trkpt>
      <trkpt lat="47.38253" lon="0.4234">
        <ele>102.2</ele>
        <time>2023-07-18T09:06:44Z</time>
      </trkpt>
      <trkpt lat="47.38259" lon="0.42335">
        <ele>102.2</ele>
        <time>2023-07-18T09:06:45Z</time>
      </trkpt>
      <trkpt lat="47.38264" lon="0.42331">
        <ele>102</ele>
        <time>2023-07-18T09:06:46Z</time>
      </trkpt>
      <trkpt lat="47.3827" lon="0.42327">
        <ele>102.2</ele>
        <time>2023-07-18T09:06:47Z</time>
      </trkpt>
      <trkpt lat="47.38275" lon="0.42322">
        <ele>102</ele>
        <time>2023-07-18T09:06:48Z</time>
      </trkpt>
      <trkpt lat="47.38281" lon="0.42317">
        <ele>101.8</ele>
        <time>2023-07-18T09:06:49Z</time>
      </trkpt>
      <trkpt lat="47.38286" lon="0.42313">
        <ele>101.8</ele>
        <time>2023-07-18T09:06:50Z</time>
      </trkpt>
      <trkpt lat="47.38292" lon="0.42308">
        <ele>101.8</ele>
        <time>2023-07-18T09:06:51Z</time>
      </trkpt>
      <trkpt lat="47.38297" lon="0.42303">
        <ele>101.6</ele>
        <time>2023-07-18T09:06:52Z</time>
      </trkpt>
      <trkpt lat="47.38303" lon="0.42298">
        <ele>101.4</ele>
        <time>2023-07-18T09:06:53Z</time>
      </trkpt>
      <trkpt lat="47.38309" lon="0.42293">
        <ele>101.2</ele>
        <time>2023-07-18T09:06:54Z</time>
      </trkpt>
      <trkpt lat="47.38314" lon="0.4229">
        <ele>101</ele>
        <time>2023-07-18T09:06:55Z</time>
      </trkpt>
      <trkpt lat="47.38319" lon="0.42288">
        <ele>100.8</ele>
        <time>2023-07-18T09:06:56Z</time>
      </trkpt>
      <trkpt lat="47.38324" lon="0.4229">
        <ele>100.8</ele>
        <time>2023-07-18T09:06:57Z</time>
      </trkpt>
      <trkpt lat="47.38329" lon="0.42294">
        <ele>100.8</ele>
        <time>2023-07-18T09:06:58Z</time>
      </trkpt>
      <trkpt lat="47.38333" lon="0.423">
        <ele>100.8</ele>
        <time>2023-07-18T09:06:59Z</time>
      </trkpt>
      <trkpt lat="47.38335" lon="0.42308">
        <ele>101</ele>
        <time>2023-07-18T09:07:00Z</time>
      </trkpt>
      <trkpt lat="47.38337" lon="0.42317">
        <ele>100.8</ele>
        <time>2023-07-18T09:07:01Z</time>
      </trkpt>
      <trkpt lat="47.38338" lon="0.42327">
        <ele>100.8</ele>
        <time>2023-07-18T09:07:02Z</time>
      </trkpt>
      <trkpt lat="47.38339" lon="0.42337">
        <ele>101</ele>
        <time>2023-07-18T09:07:03Z</time>
      </trkpt>
      <trkpt lat="47.3834" lon="0.42347">
        <ele>100.8</ele>
        <time>2023-07-18T09:07:04Z</time>
      </trkpt>
      <trkpt lat="47.3834" lon="0.42357">
        <ele>101</ele>
        <time>2023-07-18T09:07:05Z</time>
      </trkpt>
      <trkpt lat="47.3834" lon="0.42367">
        <ele>101</ele>
        <time>2023-07-18T09:07:06Z</time>
      </trkpt>
      <trkpt lat="47.38339" lon="0.42378">
        <ele>100.8</ele>
        <time>2023-07-18T09:07:07Z</time>
      </trkpt>
      <trkpt lat="47.38338" lon="0.42387">
        <ele>100.8</ele>
        <time>2023-07-18T09:07:08Z</time>
      </trkpt>
      <trkpt lat="47.38337" lon="0.42397">
        <ele>100.6</ele>
        <time>2023-07-18T09:07:09Z</time>
      </trkpt>
      <trkpt lat="47.38335" lon="0.42407">
        <ele>100.6</ele>
        <time>2023-07-18T09:07:10Z</time>
      </trkpt>
      <trkpt lat="47.38334" lon="0.42417">
        <ele>100.4</ele>
        <time>2023-07-18T09:07:11Z</time>
      </trkpt>
      <trkpt lat="47.38331" lon="0.42426">
        <ele>100.4</ele>
        <time>2023-07-18T09:07:12Z</time>
      </trkpt>
      <trkpt lat="47.38329" lon="0.42436">
        <ele>100.4</ele>
        <time>2023-07-18T09:07:13Z</time>
      </trkpt>
      <trkpt lat="47.38328" lon="0.42446">
        <ele>100.2</ele>
        <time>2023-07-18T09:07:14Z</time>
      </trkpt>
      <trkpt lat="47.38328" lon="0.42456">
        <ele>100.2</ele>
        <time>2023-07-18T09:07:15Z</time>
      </trkpt>
      <trkpt lat="47.38328" lon="0.42466">
        <ele>100.2</ele>
        <time>2023-07-18T09:07:16Z</time>
      </trkpt>
      <trkpt lat="47.38328" lon="0.42476">
        <ele>100.2</ele>
        <time>2023-07-18T09:07:17Z</time>
      </trkpt>
      <trkpt lat="47.38327" lon="0.42487">
        <ele>100.2</ele>
        <time>2023-07-18T09:07:18Z</time>
      </trkpt>
      <trkpt lat="47.38327" lon="0.42497">
        <ele>100.4</ele>
        <time>2023-07-18T09:07:19Z</time>
      </trkpt>
      <trkpt lat="47.38327" lon="0.42507">
        <ele>100.4</ele>
        <time>2023-07-18T09:07:20Z</time>
      </trkpt>
      <trkpt lat="47.38326" lon="0.42517">
        <ele>100.2</ele>
        <time>2023-07-18T09:07:21Z</time>
      </trkpt>
      <trkpt lat="47.38326" lon="0.42527">
        <ele>100</ele>
        <time>2023-07-18T09:07:22Z</time>
      </trkpt>
      <trkpt lat="47.38326" lon="0.42536">
        <ele>100</ele>
        <time>2023-07-18T09:07:23Z</time>
      </trkpt>
      <trkpt lat="47.38326" lon="0.42546">
        <ele>100</ele>
        <time>2023-07-18T09:07:24Z</time>
      </trkpt>
      <trkpt lat="47.38326" lon="0.42556">
        <ele>100</ele>
        <time>2023-07-18T09:07:25Z</time>
      </trkpt>
      <trkpt lat="47.38325" lon="0.42566">
        <ele>100</ele>
        <time>2023-07-18T09:07:26Z</time>
      </trkpt>
      <trkpt lat="47.38324" lon="0.42575">
        <ele>100</ele>
        <time>2023-07-18T09:07:27Z</time>
      </trkpt>
      <trkpt lat="47.38323" lon="0.42585">
        <ele>100</ele>
        <time>2023-07-18T09:07:28Z</time>
      </trkpt>
      <trkpt lat="47.38322" lon="0.42594">
        <ele>99.8</ele>
        <time>2023-07-18T09:07:29Z</time>
      </trkpt>
      <trkpt lat="47.38321" lon="0.42604">
        <ele>100</ele>
        <time>2023-07-18T09:07:30Z</time>
      </trkpt>
      <trkpt lat="47.38321" lon="0.42614">
        <ele>100</ele>
        <time>2023-07-18T09:07:31Z</time>
      </trkpt>
      <trkpt lat="47.38322" lon="0.42623">
        <ele>99.8</ele>
        <time>2023-07-18T09:07:32Z</time>
      </trkpt>
      <trkpt lat="47.38323" lon="0.42632">
        <ele>99.8</ele>
        <time>2023-07-18T09:07:33Z</time>
      </trkpt>
      <trkpt lat="47.38324" lon="0.42642">
        <ele>99.8</ele>
        <time>2023-07-18T09:07:34Z</time>
      </trkpt>
      <trkpt lat="47.38325" lon="0.42653">
        <ele>99.6</ele>
        <time>2023-07-18T09:07:35Z</time>
      </trkpt>
      <trkpt lat="47.38326" lon="0.42663">
        <ele>99.4</ele>
        <time>2023-07-18T09:07:36Z</time>
      </trkpt>
      <trkpt lat="47.38327" lon="0.42672">
        <ele>99.2</ele>
        <time>2023-07-18T09:07:37Z</time>
      </trkpt>
      <trkpt lat="47.38327" lon="0.42683">
        <ele>99</ele>
        <time>2023-07-18T09:07:38Z</time>
      </trkpt>
      <trkpt lat="47.38327" lon="0.42694">
        <ele>98.8</ele>
        <time>2023-07-18T09:07:39Z</time>
      </trkpt>
      <trkpt lat="47.38328" lon="0.42705">
        <ele>98.6</ele>
        <time>2023-07-18T09:07:40Z</time>
      </trkpt>
      <trkpt lat="47.38328" lon="0.42715">
        <ele>98.4</ele>
        <time>2023-07-18T09:07:41Z</time>
      </trkpt>
      <trkpt lat="47.38328" lon="0.42727">
        <ele>98.2</ele>
        <time>2023-07-18T09:07:42Z</time>
      </trkpt>
      <trkpt lat="47.38328" lon="0.42738">
        <ele>98</ele>
        <time>2023-07-18T09:07:43Z</time>
      </trkpt>
      <trkpt lat="47.38328" lon="0.42749">
        <ele>97.6</ele>
        <time>2023-07-18T09:07:44Z</time>
      </trkpt>
      <trkpt lat="47.38329" lon="0.4276">
        <ele>97.2</ele>
        <time>2023-07-18T09:07:45Z</time>
      </trkpt>
      <trkpt lat="47.3833" lon="0.42772">
        <ele>96.8</ele>
        <time>2023-07-18T09:07:46Z</time>
      </trkpt>
      <trkpt lat="47.38332" lon="0.42782">
        <ele>96.4</ele>
        <time>2023-07-18T09:07:47Z</time>
      </trkpt>
      <trkpt lat="47.38336" lon="0.42793">
        <ele>96</ele>
        <time>2023-07-18T09:07:48Z</time>
      </trkpt>
      <trkpt lat="47.38341" lon="0.42803">
        <ele>95.8</ele>
        <time>2023-07-18T09:07:49Z</time>
      </trkpt>
      <trkpt lat="47.38346" lon="0.42812">
        <ele>95.6</ele>
        <time>2023-07-18T09:07:50Z</time>
      </trkpt>
      <trkpt lat="47.38352" lon="0.42821">
        <ele>95.4</ele>
        <time>2023-07-18T09:07:51Z</time>
      </trkpt>
      <trkpt lat="47.38357" lon="0.4283">
        <ele>95</ele>
        <time>2023-07-18T09:07:52Z</time>
      </trkpt>
      <trkpt lat="47.38363" lon="0.42838">
        <ele>94.8</ele>
        <time>2023-07-18T09:07:53Z</time>
      </trkpt>
      <trkpt lat="47.38369" lon="0.42845">
        <ele>94.4</ele>
        <time>2023-07-18T09:07:54Z</time>
      </trkpt>
      <trkpt lat="47.38375" lon="0.42852">
        <ele>94.4</ele>
        <time>2023-07-18T09:07:55Z</time>
      </trkpt>
      <trkpt lat="47.3838" lon="0.4286">
        <ele>94.4</ele>
        <time>2023-07-18T09:07:56Z</time>
      </trkpt>
      <trkpt lat="47.38385" lon="0.42868">
        <ele>94.4</ele>
        <time>2023-07-18T09:07:57Z</time>
      </trkpt>
      <trkpt lat="47.38388" lon="0.42877">
        <ele>94.4</ele>
        <time>2023-07-18T09:07:58Z</time>
      </trkpt>
      <trkpt lat="47.38391" lon="0.42886">
        <ele>94.4</ele>
        <time>2023-07-18T09:07:59Z</time>
      </trkpt>
      <trkpt lat="47.38393" lon="0.42895">
        <ele>94.2</ele>
        <time>2023-07-18T09:08:00Z</time>
      </trkpt>
      <trkpt lat="47.38395" lon="0.42905">
        <ele>94.4</ele>
        <time>2023-07-18T09:08:01Z</time>
      </trkpt>
      <trkpt lat="47.38398" lon="0.42914">
        <ele>94.6</ele>
        <time>2023-07-18T09:08:02Z</time>
      </trkpt>
      <trkpt lat="47.384" lon="0.42922">
        <ele>94.8</ele>
        <time>2023-07-18T09:08:03Z</time>
      </trkpt>
      <trkpt lat="47.38401" lon="0.42931">
        <ele>95</ele>
        <time>2023-07-18T09:08:04Z</time>
      </trkpt>
      <trkpt lat="47.38402" lon="0.42939">
        <ele>95.4</ele>
        <time>2023-07-18T09:08:05Z</time>
      </trkpt>
      <trkpt lat="47.38403" lon="0.42948">
        <ele>95.6</ele>
        <time>2023-07-18T09:08:06Z</time>
      </trkpt>
      <trkpt lat="47.38403" lon="0.42956">
        <ele>96</ele>
        <time>2023-07-18T09:08:07Z</time>
      </trkpt>
      <trkpt lat="47.38403" lon="0.42965">
        <ele>96.2</ele>
        <time>2023-07-18T09:08:08Z</time>
      </trkpt>
      <trkpt lat="47.38402" lon="0.42973">
        <ele>96.6</ele>
        <time>2023-07-18T09:08:09Z</time>
      </trkpt>
      <trkpt lat="47.38401" lon="0.42982">
        <ele>96.8</ele>
        <time>2023-07-18T09:08:10Z</time>
      </trkpt>
      <trkpt lat="47.384" lon="0.4299">
        <ele>97.2</ele>
        <time>2023-07-18T09:08:11Z</time>
      </trkpt>
      <trkpt lat="47.38398" lon="0.42998">
        <ele>97.4</ele>
        <time>2023-07-18T09:08:12Z</time>
      </trkpt>
      <trkpt lat="47.38396" lon="0.43006">
        <ele>97.8</ele>
        <time>2023-07-18T09:08:13Z</time>
      </trkpt>
      <trkpt lat="47.38394" lon="0.43014">
        <ele>98</ele>
        <time>2023-07-18T09:08:14Z</time>
      </trkpt>
      <trkpt lat="47.38391" lon="0.43021">
        <ele>98.4</ele>
        <time>2023-07-18T09:08:15Z</time>
      </trkpt>
      <trkpt lat="47.38389" lon="0.43029">
        <ele>98.6</ele>
        <time>2023-07-18T09:08:16Z</time>
      </trkpt>
      <trkpt lat="47.38386" lon="0.43037">
        <ele>99</ele>
        <time>2023-07-18T09:08:17Z</time>
      </trkpt>
      <trkpt lat="47.38383" lon="0.43044">
        <ele>99.2</ele>
        <time>2023-07-18T09:08:18Z</time>
      </trkpt>
      <trkpt lat="47.3838" lon="0.43051">
        <ele>99.4</ele>
        <time>2023-07-18T09:08:19Z</time>
      </trkpt>
      <trkpt lat="47.38377" lon="0.43058">
        <ele>99.6</ele>
        <time>2023-07-18T09:08:20Z</time>
      </trkpt>
      <trkpt lat="47.38374" lon="0.43064">
        <ele>99.8</ele>
        <time>2023-07-18T09:08:21Z</time>
      </trkpt>
      <trkpt lat="47.38371" lon="0.43072">
        <ele>100</ele>
        <time>2023-07-18T09:08:22Z</time>
      </trkpt>
      <trkpt lat="47.38367" lon="0.43079">
        <ele>100.2</ele>
        <time>2023-07-18T09:08:23Z</time>
      </trkpt>
      <trkpt lat="47.38364" lon="0.43086">
        <ele>100.4</ele>
        <time>2023-07-18T09:08:24Z</time>
      </trkpt>
      <trkpt lat="47.38362" lon="0.43093">
        <ele>100.6</ele>
        <time>2023-07-18T09:08:25Z</time>
      </trkpt>
      <trkpt lat="47.38359" lon="0.43099">
        <ele>101</ele>
        <time>2023-07-18T09:08:26Z</time>
      </trkpt>
      <trkpt lat="47.38356" lon="0.43106">
        <ele>101.2</ele>
        <time>2023-07-18T09:08:27Z</time>
      </trkpt>
      <trkpt lat="47.38353" lon="0.43113">
        <ele>101.6</ele>
        <time>2023-07-18T09:08:28Z</time>
      </trkpt>
      <trkpt lat="47.38351" lon="0.43119">
        <ele>101.6</ele>
        <time>2023-07-18T09:08:29Z</time>
      </trkpt>
      <trkpt lat="47.38348" lon="0.43127">
        <ele>101.8</ele>
        <time>2023-07-18T09:08:30Z</time>
      </trkpt>
      <trkpt lat="47.38346" lon="0.43135">
        <ele>102</ele>
        <time>2023-07-18T09:08:31Z</time>
      </trkpt>
      <trkpt lat="47.38345" lon="0.43142">
        <ele>102.2</ele>
        <time>2023-07-18T09:08:32Z</time>
      </trkpt>
      <trkpt lat="47.38343" lon="0.4315">
        <ele>102.2</ele>
        <time>2023-07-18T09:08:33Z</time>
      </trkpt>
      <trkpt lat="47.38343" lon="0.43159">
        <ele>102</ele>
        <time>2023-07-18T09:08:34Z</time>
      </trkpt>
      <trkpt lat="47.38345" lon="0.43168">
        <ele>102</ele>
        <time>2023-07-18T09:08:35Z</time>
      </trkpt>
      <trkpt lat="47.38346" lon="0.43177">
        <ele>102</ele>
        <time>2023-07-18T09:08:36Z</time>
      </trkpt>
      <trkpt lat="47.38348" lon="0.43186">
        <ele>101.8</ele>
        <time>2023-07-18T09:08:37Z</time>
      </trkpt>
      <trkpt lat="47.3835" lon="0.43196">
        <ele>101.8</ele>
        <time>2023-07-18T09:08:38Z</time>
      </trkpt>
      <trkpt lat="47.38353" lon="0.43205">
        <ele>101.6</ele>
        <time>2023-07-18T09:08:39Z</time>
      </trkpt>
      <trkpt lat="47.38355" lon="0.43215">
        <ele>101.4</ele>
        <time>2023-07-18T09:08:40Z</time>
      </trkpt>
      <trkpt lat="47.38358" lon="0.43225">
        <ele>101.4</ele>
        <time>2023-07-18T09:08:41Z</time>
      </trkpt>
      <trkpt lat="47.38362" lon="0.43234">
        <ele>101.2</ele>
        <time>2023-07-18T09:08:42Z</time>
      </trkpt>
      <trkpt lat="47.38365" lon="0.43243">
        <ele>101.2</ele>
        <time>2023-07-18T09:08:43Z</time>
      </trkpt>
      <trkpt lat="47.38369" lon="0.43252">
        <ele>101.2</ele>
        <time>2023-07-18T09:08:44Z</time>
      </trkpt>
      <trkpt lat="47.38373" lon="0.43262">
        <ele>101</ele>
        <time>2023-07-18T09:08:45Z</time>
      </trkpt>
      <trkpt lat="47.38377" lon="0.43271">
        <ele>100.8</ele>
        <time>2023-07-18T09:08:46Z</time>
      </trkpt>
      <trkpt lat="47.38381" lon="0.43281">
        <ele>100.6</ele>
        <time>2023-07-18T09:08:47Z</time>
      </trkpt>
      <trkpt lat="47.38385" lon="0.43291">
        <ele>100.2</ele>
        <time>2023-07-18T09:08:48Z</time>
      </trkpt>
      <trkpt lat="47.38389" lon="0.433">
        <ele>100</ele>
        <time>2023-07-18T09:08:49Z</time>
      </trkpt>
      <trkpt lat="47.38393" lon="0.4331">
        <ele>99.8</ele>
        <time>2023-07-18T09:08:50Z</time>
      </trkpt>
      <trkpt lat="47.38397" lon="0.4332">
        <ele>99.4</ele>
        <time>2023-07-18T09:08:51Z</time>
      </trkpt>
      <trkpt lat="47.38401" lon="0.4333">
        <ele>99.2</ele>
        <time>2023-07-18T09:08:52Z</time>
      </trkpt>
      <trkpt lat="47.38406" lon="0.43341">
        <ele>98.8</ele>
        <time>2023-07-18T09:08:53Z</time>
      </trkpt>
      <trkpt lat="47.38411" lon="0.43351">
        <ele>98.4</ele>
        <time>2023-07-18T09:08:54Z</time>
      </trkpt>
      <trkpt lat="47.38415" lon="0.43361">
        <ele>98</ele>
        <time>2023-07-18T09:08:55Z</time>
      </trkpt>
      <trkpt lat="47.38419" lon="0.43371">
        <ele>97.8</ele>
        <time>2023-07-18T09:08:56Z</time>
      </trkpt>
      <trkpt lat="47.38423" lon="0.43382">
        <ele>97.8</ele>
        <time>2023-07-18T09:08:57Z</time>
      </trkpt>
      <trkpt lat="47.38428" lon="0.43392">
        <ele>97.4</ele>
        <time>2023-07-18T09:08:58Z</time>
      </trkpt>
      <trkpt lat="47.38432" lon="0.43402">
        <ele>97.2</ele>
        <time>2023-07-18T09:08:59Z</time>
      </trkpt>
      <trkpt lat="47.38437" lon="0.43412">
        <ele>97</ele>
        <time>2023-07-18T09:09:00Z</time>
      </trkpt>
      <trkpt lat="47.3844" lon="0.43423">
        <ele>96.8</ele>
        <time>2023-07-18T09:09:01Z</time>
      </trkpt>
      <trkpt lat="47.38444" lon="0.43433">
        <ele>96.8</ele>
        <time>2023-07-18T09:09:02Z</time>
      </trkpt>
      <trkpt lat="47.38448" lon="0.43443">
        <ele>96.8</ele>
        <time>2023-07-18T09:09:03Z</time>
      </trkpt>
      <trkpt lat="47.38451" lon="0.43454">
        <ele>96.6</ele>
        <time>2023-07-18T09:09:04Z</time>
      </trkpt>
      <trkpt lat="47.38454" lon="0.43464">
        <ele>96.4</ele>
        <time>2023-07-18T09:09:05Z</time>
      </trkpt>
      <trkpt lat="47.38457" lon="0.43475">
        <ele>96.2</ele>
        <time>2023-07-18T09:09:06Z</time>
      </trkpt>
      <trkpt lat="47.3846" lon="0.43485">
        <ele>96.2</ele>
        <time>2023-07-18T09:09:07Z</time>
      </trkpt>
      <trkpt lat="47.38462" lon="0.43495">
        <ele>96</ele>
        <time>2023-07-18T09:09:08Z</time>
      </trkpt>
      <trkpt lat="47.38464" lon="0.43506">
        <ele>95.8</ele>
        <time>2023-07-18T09:09:09Z</time>
      </trkpt>
      <trkpt lat="47.38467" lon="0.43517">
        <ele>95.6</ele>
        <time>2023-07-18T09:09:10Z</time>
      </trkpt>
      <trkpt lat="47.3847" lon="0.43528">
        <ele>95.4</ele>
        <time>2023-07-18T09:09:11Z</time>
      </trkpt>
      <trkpt lat="47.38473" lon="0.43538">
        <ele>95.2</ele>
        <time>2023-07-18T09:09:12Z</time>
      </trkpt>
      <trkpt lat="47.38476" lon="0.43548">
        <ele>95</ele>
        <time>2023-07-18T09:09:13Z</time>
      </trkpt>
      <trkpt lat="47.38481" lon="0.43558">
        <ele>94.8</ele>
        <time>2023-07-18T09:09:14Z</time>
      </trkpt>
      <trkpt lat="47.38485" lon="0.43568">
        <ele>94.8</ele>
        <time>2023-07-18T09:09:15Z</time>
      </trkpt>
      <trkpt lat="47.38489" lon="0.43578">
        <ele>94.6</ele>
        <time>2023-07-18T09:09:16Z</time>
      </trkpt>
      <trkpt lat="47.38494" lon="0.43587">
        <ele>94.4</ele>
        <time>2023-07-18T09:09:17Z</time>
      </trkpt>
      <trkpt lat="47.38499" lon="0.43595">
        <ele>94.4</ele>
        <time>2023-07-18T09:09:18Z</time>
      </trkpt>
      <trkpt lat="47.38504" lon="0.43603">
        <ele>94.2</ele>
        <time>2023-07-18T09:09:19Z</time>
      </trkpt>
      <trkpt lat="47.38509" lon="0.43611">
        <ele>93.8</ele>
        <time>2023-07-18T09:09:20Z</time>
      </trkpt>
      <trkpt lat="47.38514" lon="0.43619">
        <ele>93.6</ele>
        <time>2023-07-18T09:09:21Z</time>
      </trkpt>
      <trkpt lat="47.38519" lon="0.43627">
        <ele>93.4</ele>
        <time>2023-07-18T09:09:22Z</time>
      </trkpt>
      <trkpt lat="47.38523" lon="0.43634">
        <ele>93.4</ele>
        <time>2023-07-18T09:09:23Z</time>
      </trkpt>
      <trkpt lat="47.38529" lon="0.43642">
        <ele>93.4</ele>
        <time>2023-07-18T09:09:24Z</time>
      </trkpt>
      <trkpt lat="47.38533" lon="0.43649">
        <ele>93.6</ele>
        <time>2023-07-18T09:09:25Z</time>
      </trkpt>
      <trkpt lat="47.38538" lon="0.43656">
        <ele>93.6</ele>
        <time>2023-07-18T09:09:26Z</time>
      </trkpt>
      <trkpt lat="47.38543" lon="0.43663">
        <ele>93.8</ele>
        <time>2023-07-18T09:09:27Z</time>
      </trkpt>
      <trkpt lat="47.38547" lon="0.43671">
        <ele>93.8</ele>
        <time>2023-07-18T09:09:28Z</time>
      </trkpt>
      <trkpt lat="47.38551" lon="0.43679">
        <ele>93.8</ele>
        <time>2023-07-18T09:09:29Z</time>
      </trkpt>
      <trkpt lat="47.38556" lon="0.43687">
        <ele>93.8</ele>
        <time>2023-07-18T09:09:30Z</time>
      </trkpt>
      <trkpt lat="47.38559" lon="0.43694">
        <ele>93.8</ele>
        <time>2023-07-18T09:09:31Z</time>
      </trkpt>
      <trkpt lat="47.38563" lon="0.43704">
        <ele>94.2</ele>
        <time>2023-07-18T09:09:32Z</time>
      </trkpt>
      <trkpt lat="47.38566" lon="0.43713">
        <ele>94.2</ele>
        <time>2023-07-18T09:09:33Z</time>
      </trkpt>
      <trkpt lat="47.3857" lon="0.43723">
        <ele>94.2</ele>
        <time>2023-07-18T09:09:34Z</time>
      </trkpt>
      <trkpt lat="47.38574" lon="0.43732">
        <ele>94.2</ele>
        <time>2023-07-18T09:09:35Z</time>
      </trkpt>
      <trkpt lat="47.38578" lon="0.43742">
        <ele>94.2</ele>
        <time>2023-07-18T09:09:36Z</time>
      </trkpt>
      <trkpt lat="47.38581" lon="0.43751">
        <ele>94</ele>
        <time>2023-07-18T09:09:37Z</time>
      </trkpt>
      <trkpt lat="47.38585" lon="0.43761">
        <ele>94.2</ele>
        <time>2023-07-18T09:09:38Z</time>
      </trkpt>
      <trkpt lat="47.38589" lon="0.43771">
        <ele>94</ele>
        <time>2023-07-18T09:09:39Z</time>
      </trkpt>
      <trkpt lat="47.38593" lon="0.4378">
        <ele>94</ele>
        <time>2023-07-18T09:09:40Z</time>
      </trkpt>
      <trkpt lat="47.38597" lon="0.4379">
        <ele>94</ele>
        <time>2023-07-18T09:09:41Z</time>
      </trkpt>
      <trkpt lat="47.38601" lon="0.438">
        <ele>94</ele>
        <time>2023-07-18T09:09:42Z</time>
      </trkpt>
      <trkpt lat="47.38604" lon="0.4381">
        <ele>94</ele>
        <time>2023-07-18T09:09:43Z</time>
      </trkpt>
      <trkpt lat="47.38609" lon="0.4382">
        <ele>94</ele>
        <time>2023-07-18T09:09:44Z</time>
      </trkpt>
      <trkpt lat="47.38612" lon="0.4383">
        <ele>94</ele>
        <time>2023-07-18T09:09:45Z</time>
      </trkpt>
      <trkpt lat="47.38615" lon="0.43839">
        <ele>94</ele>
        <time>2023-07-18T09:09:46Z</time>
      </trkpt>
      <trkpt lat="47.38619" lon="0.43848">
        <ele>94</ele>
        <time>2023-07-18T09:09:47Z</time>
      </trkpt>
      <trkpt lat="47.38622" lon="0.43858">
        <ele>94</ele>
        <time>2023-07-18T09:09:48Z</time>
      </trkpt>
      <trkpt lat="47.38626" lon="0.43868">
        <ele>93.8</ele>
        <time>2023-07-18T09:09:49Z</time>
      </trkpt>
      <trkpt lat="47.3863" lon="0.43877">
        <ele>93.8</ele>
        <time>2023-07-18T09:09:50Z</time>
      </trkpt>
      <trkpt lat="47.38634" lon="0.43886">
        <ele>93.8</ele>
        <time>2023-07-18T09:09:51Z</time>
      </trkpt>
      <trkpt lat="47.38638" lon="0.43896">
        <ele>93.6</ele>
        <time>2023-07-18T09:09:52Z</time>
      </trkpt>
      <trkpt lat="47.38641" lon="0.43906">
        <ele>93.6</ele>
        <time>2023-07-18T09:09:53Z</time>
      </trkpt>
      <trkpt lat="47.38645" lon="0.43915">
        <ele>93.4</ele>
        <time>2023-07-18T09:09:54Z</time>
      </trkpt>
      <trkpt lat="47.38648" lon="0.43922">
        <ele>93.2</ele>
        <time>2023-07-18T09:09:55Z</time>
      </trkpt>
      <trkpt lat="47.38652" lon="0.43933">
        <ele>93</ele>
        <time>2023-07-18T09:09:56Z</time>
      </trkpt>
      <trkpt lat="47.38656" lon="0.43943">
        <ele>92.8</ele>
        <time>2023-07-18T09:09:57Z</time>
      </trkpt>
      <trkpt lat="47.38659" lon="0.43952">
        <ele>92.8</ele>
        <time>2023-07-18T09:09:58Z</time>
      </trkpt>
      <trkpt lat="47.38663" lon="0.43962">
        <ele>92.8</ele>
        <time>2023-07-18T09:09:59Z</time>
      </trkpt>
      <trkpt lat="47.38667" lon="0.43972">
        <ele>92.8</ele>
        <time>2023-07-18T09:10:00Z</time>
      </trkpt>
      <trkpt lat="47.3867" lon="0.43982">
        <ele>92.8</ele>
        <time>2023-07-18T09:10:01Z</time>
      </trkpt>
      <trkpt lat="47.38674" lon="0.43992">
        <ele>92.8</ele>
        <time>2023-07-18T09:10:02Z</time>
      </trkpt>
      <trkpt lat="47.38677" lon="0.44002">
        <ele>92.6</ele>
        <time>2023-07-18T09:10:03Z</time>
      </trkpt>
      <trkpt lat="47.38681" lon="0.44012">
        <ele>92.4</ele>
        <time>2023-07-18T09:10:04Z</time>
      </trkpt>
      <trkpt lat="47.38684" lon="0.44022">
        <ele>92.2</ele>
        <time>2023-07-18T09:10:05Z</time>
      </trkpt>
      <trkpt lat="47.38688" lon="0.44032">
        <ele>92.4</ele>
        <time>2023-07-18T09:10:06Z</time>
      </trkpt>
      <trkpt lat="47.38691" lon="0.4404">
        <ele>92.4</ele>
        <time>2023-07-18T09:10:07Z</time>
      </trkpt>
      <trkpt lat="47.38696" lon="0.44052">
        <ele>92.2</ele>
        <time>2023-07-18T09:10:08Z</time>
      </trkpt>
      <trkpt lat="47.38699" lon="0.4406">
        <ele>92.2</ele>
        <time>2023-07-18T09:10:09Z</time>
      </trkpt>
      <trkpt lat="47.38704" lon="0.44072">
        <ele>92</ele>
        <time>2023-07-18T09:10:10Z</time>
      </trkpt>
      <trkpt lat="47.38707" lon="0.44082">
        <ele>92</ele>
        <time>2023-07-18T09:10:11Z</time>
      </trkpt>
      <trkpt lat="47.38711" lon="0.44092">
        <ele>92</ele>
        <time>2023-07-18T09:10:12Z</time>
      </trkpt>
      <trkpt lat="47.38715" lon="0.44102">
        <ele>91.8</ele>
        <time>2023-07-18T09:10:13Z</time>
      </trkpt>
      <trkpt lat="47.38718" lon="0.44112">
        <ele>91.4</ele>
        <time>2023-07-18T09:10:14Z</time>
      </trkpt>
      <trkpt lat="47.38722" lon="0.44121">
        <ele>91.2</ele>
        <time>2023-07-18T09:10:15Z</time>
      </trkpt>
      <trkpt lat="47.38726" lon="0.44131">
        <ele>90.8</ele>
        <time>2023-07-18T09:10:16Z</time>
      </trkpt>
      <trkpt lat="47.38729" lon="0.4414">
        <ele>90.6</ele>
        <time>2023-07-18T09:10:17Z</time>
      </trkpt>
      <trkpt lat="47.38734" lon="0.4415">
        <ele>90.2</ele>
        <time>2023-07-18T09:10:18Z</time>
      </trkpt>
      <trkpt lat="47.38739" lon="0.44162">
        <ele>90</ele>
        <time>2023-07-18T09:10:19Z</time>
      </trkpt>
      <trkpt lat="47.38743" lon="0.44173">
        <ele>89.8</ele>
        <time>2023-07-18T09:10:20Z</time>
      </trkpt>
      <trkpt lat="47.38747" lon="0.44185">
        <ele>89.4</ele>
        <time>2023-07-18T09:10:21Z</time>
      </trkpt>
      <trkpt lat="47.38751" lon="0.44196">
        <ele>89.2</ele>
        <time>2023-07-18T09:10:22Z</time>
      </trkpt>
      <trkpt lat="47.38755" lon="0.44207">
        <ele>89</ele>
        <time>2023-07-18T09:10:23Z</time>
      </trkpt>
      <trkpt lat="47.3876" lon="0.44219">
        <ele>88.8</ele>
        <time>2023-07-18T09:10:24Z</time>
      </trkpt>
      <trkpt lat="47.38763" lon="0.44229">
        <ele>88.6</ele>
        <time>2023-07-18T09:10:25Z</time>
      </trkpt>
      <trkpt lat="47.38766" lon="0.44238">
        <ele>88.4</ele>
        <time>2023-07-18T09:10:26Z</time>
      </trkpt>
      <trkpt lat="47.38771" lon="0.44251">
        <ele>88.2</ele>
        <time>2023-07-18T09:10:27Z</time>
      </trkpt>
      <trkpt lat="47.38775" lon="0.44262">
        <ele>88</ele>
        <time>2023-07-18T09:10:28Z</time>
      </trkpt>
      <trkpt lat="47.38779" lon="0.44273">
        <ele>87.8</ele>
        <time>2023-07-18T09:10:29Z</time>
      </trkpt>
      <trkpt lat="47.38784" lon="0.44283">
        <ele>87.6</ele>
        <time>2023-07-18T09:10:30Z</time>
      </trkpt>
      <trkpt lat="47.38788" lon="0.44294">
        <ele>87.4</ele>
        <time>2023-07-18T09:10:31Z</time>
      </trkpt>
      <trkpt lat="47.38792" lon="0.44304">
        <ele>87.4</ele>
        <time>2023-07-18T09:10:32Z</time>
      </trkpt>
      <trkpt lat="47.38796" lon="0.44315">
        <ele>87.2</ele>
        <time>2023-07-18T09:10:33Z</time>
      </trkpt>
      <trkpt lat="47.388" lon="0.44325">
        <ele>87</ele>
        <time>2023-07-18T09:10:34Z</time>
      </trkpt>
      <trkpt lat="47.38803" lon="0.44336">
        <ele>86.8</ele>
        <time>2023-07-18T09:10:35Z</time>
      </trkpt>
      <trkpt lat="47.38808" lon="0.44347">
        <ele>86.6</ele>
        <time>2023-07-18T09:10:36Z</time>
      </trkpt>
      <trkpt lat="47.38811" lon="0.44357">
        <ele>86.4</ele>
        <time>2023-07-18T09:10:37Z</time>
      </trkpt>
      <trkpt lat="47.38815" lon="0.44367">
        <ele>86.2</ele>
        <time>2023-07-18T09:10:38Z</time>
      </trkpt>
      <trkpt lat="47.38819" lon="0.44377">
        <ele>86.2</ele>
        <time>2023-07-18T09:10:39Z</time>
      </trkpt>
      <trkpt lat="47.38824" lon="0.44388">
        <ele>86</ele>
        <time>2023-07-18T09:10:40Z</time>
      </trkpt>
      <trkpt lat="47.38828" lon="0.44398">
        <ele>85.6</ele>
        <time>2023-07-18T09:10:41Z</time>
      </trkpt>
      <trkpt lat="47.38832" lon="0.44409">
        <ele>85.4</ele>
        <time>2023-07-18T09:10:42Z</time>
      </trkpt>
      <trkpt lat="47.38836" lon="0.4442">
        <ele>85.2</ele>
        <time>2023-07-18T09:10:43Z</time>
      </trkpt>
      <trkpt lat="47.3884" lon="0.44431">
        <ele>85.2</ele>
        <time>2023-07-18T09:10:44Z</time>
      </trkpt>
      <trkpt lat="47.38844" lon="0.44443">
        <ele>85</ele>
        <time>2023-07-18T09:10:45Z</time>
      </trkpt>
      <trkpt lat="47.38848" lon="0.44454">
        <ele>84.8</ele>
        <time>2023-07-18T09:10:46Z</time>
      </trkpt>
      <trkpt lat="47.38852" lon="0.44465">
        <ele>84.6</ele>
        <time>2023-07-18T09:10:47Z</time>
      </trkpt>
      <trkpt lat="47.38857" lon="0.44478">
        <ele>84</ele>
        <time>2023-07-18T09:10:48Z</time>
      </trkpt>
      <trkpt lat="47.38861" lon="0.4449">
        <ele>83.8</ele>
        <time>2023-07-18T09:10:49Z</time>
      </trkpt>
      <trkpt lat="47.38865" lon="0.44501">
        <ele>83.4</ele>
        <time>2023-07-18T09:10:50Z</time>
      </trkpt>
      <trkpt lat="47.38868" lon="0.44513">
        <ele>83</ele>
        <time>2023-07-18T09:10:51Z</time>
      </trkpt>
      <trkpt lat="47.38872" lon="0.44524">
        <ele>82.6</ele>
        <time>2023-07-18T09:10:52Z</time>
      </trkpt>
      <trkpt lat="47.38877" lon="0.44535">
        <ele>82.2</ele>
        <time>2023-07-18T09:10:53Z</time>
      </trkpt>
      <trkpt lat="47.38882" lon="0.44547">
        <ele>81.8</ele>
        <time>2023-07-18T09:10:54Z</time>
      </trkpt>
      <trkpt lat="47.38887" lon="0.44559">
        <ele>81.2</ele>
        <time>2023-07-18T09:10:55Z</time>
      </trkpt>
      <trkpt lat="47.38891" lon="0.44571">
        <ele>80.6</ele>
        <time>2023-07-18T09:10:56Z</time>
      </trkpt>
      <trkpt lat="47.38896" lon="0.44583">
        <ele>80.2</ele>
        <time>2023-07-18T09:10:57Z</time>
      </trkpt>
      <trkpt lat="47.38901" lon="0.44596">
        <ele>79.6</ele>
        <time>2023-07-18T09:10:58Z</time>
      </trkpt>
      <trkpt lat="47.38906" lon="0.44609">
        <ele>79.2</ele>
        <time>2023-07-18T09:10:59Z</time>
      </trkpt>
      <trkpt lat="47.38911" lon="0.44621">
        <ele>78.8</ele>
        <time>2023-07-18T09:11:00Z</time>
      </trkpt>
      <trkpt lat="47.38916" lon="0.44633">
        <ele>78.2</ele>
        <time>2023-07-18T09:11:01Z</time>
      </trkpt>
      <trkpt lat="47.38921" lon="0.44644">
        <ele>77.8</ele>
        <time>2023-07-18T09:11:02Z</time>
      </trkpt>
      <trkpt lat="47.38924" lon="0.44655">
        <ele>77.6</ele>
        <time>2023-07-18T09:11:03Z</time>
      </trkpt>
      <trkpt lat="47.38927" lon="0.44668">
        <ele>77.4</ele>
        <time>2023-07-18T09:11:04Z</time>
      </trkpt>
      <trkpt lat="47.38929" lon="0.44681">
        <ele>77.4</ele>
        <time>2023-07-18T09:11:05Z</time>
      </trkpt>
      <trkpt lat="47.38932" lon="0.44693">
        <ele>77.2</ele>
        <time>2023-07-18T09:11:06Z</time>
      </trkpt>
      <trkpt lat="47.38936" lon="0.44702">
        <ele>77.2</ele>
        <time>2023-07-18T09:11:07Z</time>
      </trkpt>
      <trkpt lat="47.38939" lon="0.44711">
        <ele>77.4</ele>
        <time>2023-07-18T09:11:08Z</time>
      </trkpt>
      <trkpt lat="47.38942" lon="0.4472">
        <ele>77.6</ele>
        <time>2023-07-18T09:11:09Z</time>
      </trkpt>
      <trkpt lat="47.38945" lon="0.44729">
        <ele>77.8</ele>
        <time>2023-07-18T09:11:10Z</time>
      </trkpt>
      <trkpt lat="47.38948" lon="0.44734">
        <ele>78.2</ele>
        <time>2023-07-18T09:11:11Z</time>
      </trkpt>
      <trkpt lat="47.38951" lon="0.44739">
        <ele>78.4</ele>
        <time>2023-07-18T09:11:12Z</time>
      </trkpt>
      <trkpt lat="47.38955" lon="0.44743">
        <ele>78.6</ele>
        <time>2023-07-18T09:11:13Z</time>
      </trkpt>
      <trkpt lat="47.38957" lon="0.44748">
        <ele>79</ele>
        <time>2023-07-18T09:11:14Z</time>
      </trkpt>
      <trkpt lat="47.3896" lon="0.44752">
        <ele>79.2</ele>
        <time>2023-07-18T09:11:15Z</time>
      </trkpt>
      <trkpt lat="47.38963" lon="0.44756">
        <ele>79.6</ele>
        <time>2023-07-18T09:11:16Z</time>
      </trkpt>
      <trkpt lat="47.38966" lon="0.44764">
        <ele>80</ele>
        <time>2023-07-18T09:11:17Z</time>
      </trkpt>
      <trkpt lat="47.38969" lon="0.44769">
        <ele>80.2</ele>
        <time>2023-07-18T09:11:18Z</time>
      </trkpt>
      <trkpt lat="47.38972" lon="0.44771">
        <ele>80.6</ele>
        <time>2023-07-18T09:11:19Z</time>
      </trkpt>
      <trkpt lat="47.38973" lon="0.44775">
        <ele>81</ele>
        <time>2023-07-18T09:11:20Z</time>
      </trkpt>
      <trkpt lat="47.38975" lon="0.44779">
        <ele>81.2</ele>
        <time>2023-07-18T09:11:21Z</time>
      </trkpt>
      <trkpt lat="47.38977" lon="0.44784">
        <ele>81.6</ele>
        <time>2023-07-18T09:11:22Z</time>
      </trkpt>
      <trkpt lat="47.38979" lon="0.44787">
        <ele>82</ele>
        <time>2023-07-18T09:11:23Z</time>
      </trkpt>
      <trkpt lat="47.3898" lon="0.44787">
        <ele>82.4</ele>
        <time>2023-07-18T09:11:24Z</time>
      </trkpt>
      <trkpt lat="47.3898" lon="0.44787">
        <ele>82.8</ele>
        <time>2023-07-18T09:11:25Z</time>
      </trkpt>
      <trkpt lat="47.3898" lon="0.44788">
        <ele>83</ele>
        <time>2023-07-18T09:11:26Z</time>
      </trkpt>
      <trkpt lat="47.38982" lon="0.4479">
        <ele>83.4</ele>
        <time>2023-07-18T09:11:27Z</time>
      </trkpt>
      <trkpt lat="47.38985" lon="0.44792">
        <ele>83.8</ele>
        <time>2023-07-18T09:11:28Z</time>
      </trkpt>
      <trkpt lat="47.38988" lon="0.44794">
        <ele>84.2</ele>
        <time>2023-07-18T09:11:29Z</time>
      </trkpt>
      <trkpt lat="47.38992" lon="0.44795">
        <ele>84.4</ele>
        <time>2023-07-18T09:11:30Z</time>
      </trkpt>
      <trkpt lat="47.38995" lon="0.44797">
        <ele>84.8</ele>
        <time>2023-07-18T09:11:31Z</time>
      </trkpt>
      <trkpt lat="47.38997" lon="0.448">
        <ele>85</ele>
        <time>2023-07-18T09:11:32Z</time>
      </trkpt>
      <trkpt lat="47.39" lon="0.44801">
        <ele>85.4</ele>
        <time>2023-07-18T09:11:33Z</time>
      </trkpt>
      <trkpt lat="47.39003" lon="0.44803">
        <ele>85.8</ele>
        <time>2023-07-18T09:11:34Z</time>
      </trkpt>
      <trkpt lat="47.39006" lon="0.44805">
        <ele>86.2</ele>
        <time>2023-07-18T09:11:35Z</time>
      </trkpt>
      <trkpt lat="47.39009" lon="0.44808">
        <ele>86.4</ele>
        <time>2023-07-18T09:11:36Z</time>
      </trkpt>
      <trkpt lat="47.39011" lon="0.44812">
        <ele>86.8</ele>
        <time>2023-07-18T09:11:37Z</time>
      </trkpt>
      <trkpt lat="47.39014" lon="0.44815">
        <ele>87.2</ele>
        <time>2023-07-18T09:11:38Z</time>
      </trkpt>
      <trkpt lat="47.39016" lon="0.44819">
        <ele>87.6</ele>
        <time>2023-07-18T09:11:39Z</time>
      </trkpt>
      <trkpt lat="47.39019" lon="0.44821">
        <ele>87.8</ele>
        <time>2023-07-18T09:11:40Z</time>
      </trkpt>
      <trkpt lat="47.39023" lon="0.44824">
        <ele>88.2</ele>
        <time>2023-07-18T09:11:41Z</time>
      </trkpt>
      <trkpt lat="47.39027" lon="0.44826">
        <ele>88.6</ele>
        <time>2023-07-18T09:11:42Z</time>
      </trkpt>
      <trkpt lat="47.39032" lon="0.4483">
        <ele>89</ele>
        <time>2023-07-18T09:11:43Z</time>
      </trkpt>
      <trkpt lat="47.39037" lon="0.44833">
        <ele>89.2</ele>
        <time>2023-07-18T09:11:44Z</time>
      </trkpt>
      <trkpt lat="47.39041" lon="0.44837">
        <ele>89.6</ele>
        <time>2023-07-18T09:11:45Z</time>
      </trkpt>
      <trkpt lat="47.39045" lon="0.44841">
        <ele>90</ele>
        <time>2023-07-18T09:11:46Z</time>
      </trkpt>
      <trkpt lat="47.39048" lon="0.44847">
        <ele>90.2</ele>
        <time>2023-07-18T09:11:47Z</time>
      </trkpt>
      <trkpt lat="47.39052" lon="0.44853">
        <ele>90.6</ele>
        <time>2023-07-18T09:11:48Z</time>
      </trkpt>
      <trkpt lat="47.39056" lon="0.44859">
        <ele>91</ele>
        <time>2023-07-18T09:11:49Z</time>
      </trkpt>
      <trkpt lat="47.39058" lon="0.44865">
        <ele>91.4</ele>
        <time>2023-07-18T09:11:50Z</time>
      </trkpt>
      <trkpt lat="47.39059" lon="0.44871">
        <ele>91.8</ele>
        <time>2023-07-18T09:11:51Z</time>
      </trkpt>
      <trkpt lat="47.39062" lon="0.44876">
        <ele>92.2</ele>
        <time>2023-07-18T09:11:52Z</time>
      </trkpt>
      <trkpt lat="47.39064" lon="0.44882">
        <ele>92.4</ele>
        <time>2023-07-18T09:11:53Z</time>
      </trkpt>
      <trkpt lat="47.39065" lon="0.44889">
        <ele>92.8</ele>
        <time>2023-07-18T09:11:54Z</time>
      </trkpt>
      <trkpt lat="47.39066" lon="0.44896">
        <ele>93.2</ele>
        <time>2023-07-18T09:11:55Z</time>
      </trkpt>
      <trkpt lat="47.39067" lon="0.44903">
        <ele>93.4</ele>
        <time>2023-07-18T09:11:56Z</time>
      </trkpt>
      <trkpt lat="47.39067" lon="0.4491">
        <ele>93.8</ele>
        <time>2023-07-18T09:11:57Z</time>
      </trkpt>
      <trkpt lat="47.39066" lon="0.44917">
        <ele>94.2</ele>
        <time>2023-07-18T09:11:58Z</time>
      </trkpt>
      <trkpt lat="47.39064" lon="0.44924">
        <ele>94.6</ele>
        <time>2023-07-18T09:11:59Z</time>
      </trkpt>
      <trkpt lat="47.39063" lon="0.44929">
        <ele>94.8</ele>
        <time>2023-07-18T09:12:00Z</time>
      </trkpt>
      <trkpt lat="47.39062" lon="0.44935">
        <ele>95.2</ele>
        <time>2023-07-18T09:12:01Z</time>
      </trkpt>
      <trkpt lat="47.3906" lon="0.44939">
        <ele>95.6</ele>
        <time>2023-07-18T09:12:02Z</time>
      </trkpt>
      <trkpt lat="47.39059" lon="0.44943">
        <ele>95.8</ele>
        <time>2023-07-18T09:12:03Z</time>
      </trkpt>
      <trkpt lat="47.39057" lon="0.44945">
        <ele>96.2</ele>
        <time>2023-07-18T09:12:04Z</time>
      </trkpt>
      <trkpt lat="47.39055" lon="0.44948">
        <ele>96.4</ele>
        <time>2023-07-18T09:12:05Z</time>
      </trkpt>
      <trkpt lat="47.39053" lon="0.44951">
        <ele>96.8</ele>
        <time>2023-07-18T09:12:06Z</time>
      </trkpt>
      <trkpt lat="47.3905" lon="0.44955">
        <ele>97</ele>
        <time>2023-07-18T09:12:07Z</time>
      </trkpt>
      <trkpt lat="47.39049" lon="0.44958">
        <ele>97.4</ele>
        <time>2023-07-18T09:12:08Z</time>
      </trkpt>
      <trkpt lat="47.39046" lon="0.44961">
        <ele>97.6</ele>
        <time>2023-07-18T09:12:09Z</time>
      </trkpt>
      <trkpt lat="47.39044" lon="0.44963">
        <ele>97.8</ele>
        <time>2023-07-18T09:12:10Z</time>
      </trkpt>
      <trkpt lat="47.39042" lon="0.44966">
        <ele>98</ele>
        <time>2023-07-18T09:12:11Z</time>
      </trkpt>
      <trkpt lat="47.3904" lon="0.44968">
        <ele>98.4</ele>
        <time>2023-07-18T09:12:12Z</time>
      </trkpt>
      <trkpt lat="47.39037" lon="0.44971">
        <ele>98.6</ele>
        <time>2023-07-18T09:12:13Z</time>
      </trkpt>
      <trkpt lat="47.39034" lon="0.44974">
        <ele>98.8</ele>
        <time>2023-07-18T09:12:14Z</time>
      </trkpt>
      <trkpt lat="47.3903" lon="0.44976">
        <ele>98.8</ele>
        <time>2023-07-18T09:12:15Z</time>
      </trkpt>
      <trkpt lat="47.39026" lon="0.44978">
        <ele>99</ele>
        <time>2023-07-18T09:12:16Z</time>
      </trkpt>
      <trkpt lat="47.39023" lon="0.44979">
        <ele>99</ele>
        <time>2023-07-18T09:12:17Z</time>
      </trkpt>
      <trkpt lat="47.39019" lon="0.44982">
        <ele>99.2</ele>
        <time>2023-07-18T09:12:18Z</time>
      </trkpt>
      <trkpt lat="47.39014" lon="0.44984">
        <ele>99.4</ele>
        <time>2023-07-18T09:12:19Z</time>
      </trkpt>
      <trkpt lat="47.39008" lon="0.44986">
        <ele>99.4</ele>
        <time>2023-07-18T09:12:20Z</time>
      </trkpt>
      <trkpt lat="47.39003" lon="0.44988">
        <ele>99.4</ele>
        <time>2023-07-18T09:12:21Z</time>
      </trkpt>
      <trkpt lat="47.38999" lon="0.4499">
        <ele>99.6</ele>
        <time>2023-07-18T09:12:22Z</time>
      </trkpt>
      <trkpt lat="47.38994" lon="0.44992">
        <ele>99.6</ele>
        <time>2023-07-18T09:12:23Z</time>
      </trkpt>
      <trkpt lat="47.3899" lon="0.44993">
        <ele>99.6</ele>
        <time>2023-07-18T09:12:24Z</time>
      </trkpt>
      <trkpt lat="47.38985" lon="0.44995">
        <ele>99.6</ele>
        <time>2023-07-18T09:12:25Z</time>
      </trkpt>
      <trkpt lat="47.3898" lon="0.44997">
        <ele>99.6</ele>
        <time>2023-07-18T09:12:26Z</time>
      </trkpt>
      <trkpt lat="47.38976" lon="0.44999">
        <ele>99.6</ele>
        <time>2023-07-18T09:12:27Z</time>
      </trkpt>
      <trkpt lat="47.38971" lon="0.45001">
        <ele>99.6</ele>
        <time>2023-07-18T09:12:28Z</time>
      </trkpt>
      <trkpt lat="47.38966" lon="0.45004">
        <ele>99.6</ele>
        <time>2023-07-18T09:12:29Z</time>
      </trkpt>
      <trkpt lat="47.3896" lon="0.45007">
        <ele>99.6</ele>
        <time>2023-07-18T09:12:30Z</time>
      </trkpt>
      <trkpt lat="47.38955" lon="0.4501">
        <ele>99.6</ele>
        <time>2023-07-18T09:12:31Z</time>
      </trkpt>
      <trkpt lat="47.38951" lon="0.45011">
        <ele>99.6</ele>
        <time>2023-07-18T09:12:32Z</time>
      </trkpt>
      <trkpt lat="47.38947" lon="0.45013">
        <ele>99.6</ele>
        <time>2023-07-18T09:12:33Z</time>
      </trkpt>
      <trkpt lat="47.38942" lon="0.45016">
        <ele>99.8</ele>
        <time>2023-07-18T09:12:34Z</time>
      </trkpt>
      <trkpt lat="47.38938" lon="0.45018">
        <ele>99.8</ele>
        <time>2023-07-18T09:12:35Z</time>
      </trkpt>
      <trkpt lat="47.38932" lon="0.45021">
        <ele>100</ele>
        <time>2023-07-18T09:12:36Z</time>
      </trkpt>
      <trkpt lat="47.38928" lon="0.45024">
        <ele>99.8</ele>
        <time>2023-07-18T09:12:37Z</time>
      </trkpt>
      <trkpt lat="47.38922" lon="0.45027">
        <ele>99.8</ele>
        <time>2023-07-18T09:12:38Z</time>
      </trkpt>
      <trkpt lat="47.38917" lon="0.4503">
        <ele>99.8</ele>
        <time>2023-07-18T09:12:39Z</time>
      </trkpt>
      <trkpt lat="47.38913" lon="0.45033">
        <ele>99.8</ele>
        <time>2023-07-18T09:12:40Z</time>
      </trkpt>
      <trkpt lat="47.38908" lon="0.45037">
        <ele>99.8</ele>
        <time>2023-07-18T09:12:41Z</time>
      </trkpt>
      <trkpt lat="47.38903" lon="0.45043">
        <ele>99.8</ele>
        <time>2023-07-18T09:12:42Z</time>
      </trkpt>
      <trkpt lat="47.38898" lon="0.4505">
        <ele>99.4</ele>
        <time>2023-07-18T09:12:43Z</time>
      </trkpt>
      <trkpt lat="47.38894" lon="0.45057">
        <ele>99.4</ele>
        <time>2023-07-18T09:12:44Z</time>
      </trkpt>
      <trkpt lat="47.38891" lon="0.45065">
        <ele>99.2</ele>
        <time>2023-07-18T09:12:45Z</time>
      </trkpt>
      <trkpt lat="47.38889" lon="0.45075">
        <ele>99.2</ele>
        <time>2023-07-18T09:12:46Z</time>
      </trkpt>
      <trkpt lat="47.38889" lon="0.45085">
        <ele>99.2</ele>
        <time>2023-07-18T09:12:47Z</time>
      </trkpt>
      <trkpt lat="47.38889" lon="0.45096">
        <ele>98.8</ele>
        <time>2023-07-18T09:12:48Z</time>
      </trkpt>
      <trkpt lat="47.38891" lon="0.45106">
        <ele>98.6</ele>
        <time>2023-07-18T09:12:49Z</time>
      </trkpt>
      <trkpt lat="47.38894" lon="0.45117">
        <ele>98.4</ele>
        <time>2023-07-18T09:12:50Z</time>
      </trkpt>
      <trkpt lat="47.38896" lon="0.45126">
        <ele>98.4</ele>
        <time>2023-07-18T09:12:51Z</time>
      </trkpt>
      <trkpt lat="47.38899" lon="0.45135">
        <ele>98.4</ele>
        <time>2023-07-18T09:12:52Z</time>
      </trkpt>
      <trkpt lat="47.38901" lon="0.45145">
        <ele>98.2</ele>
        <time>2023-07-18T09:12:53Z</time>
      </trkpt>
      <trkpt lat="47.38903" lon="0.45155">
        <ele>98.4</ele>
        <time>2023-07-18T09:12:54Z</time>
      </trkpt>
      <trkpt lat="47.38905" lon="0.45165">
        <ele>98.4</ele>
        <time>2023-07-18T09:12:55Z</time>
      </trkpt>
      <trkpt lat="47.38908" lon="0.45174">
        <ele>98.4</ele>
        <time>2023-07-18T09:12:56Z</time>
      </trkpt>
      <trkpt lat="47.3891" lon="0.45184">
        <ele>98.4</ele>
        <time>2023-07-18T09:12:57Z</time>
      </trkpt>
      <trkpt lat="47.38912" lon="0.45194">
        <ele>98.2</ele>
        <time>2023-07-18T09:12:58Z</time>
      </trkpt>
      <trkpt lat="47.38914" lon="0.45203">
        <ele>98.2</ele>
        <time>2023-07-18T09:12:59Z</time>
      </trkpt>
      <trkpt lat="47.38916" lon="0.45212">
        <ele>98.2</ele>
        <time>2023-07-18T09:13:00Z</time>
      </trkpt>
      <trkpt lat="47.38918" lon="0.45222">
        <ele>98.2</ele>
        <time>2023-07-18T09:13:01Z</time>
      </trkpt>
      <trkpt lat="47.3892" lon="0.45231">
        <ele>98</ele>
        <time>2023-07-18T09:13:02Z</time>
      </trkpt>
      <trkpt lat="47.38922" lon="0.4524">
        <ele>97.8</ele>
        <time>2023-07-18T09:13:03Z</time>
      </trkpt>
      <trkpt lat="47.38924" lon="0.4525">
        <ele>97.6</ele>
        <time>2023-07-18T09:13:04Z</time>
      </trkpt>
      <trkpt lat="47.38926" lon="0.4526">
        <ele>97.6</ele>
        <time>2023-07-18T09:13:05Z</time>
      </trkpt>
      <trkpt lat="47.38929" lon="0.45269">
        <ele>97.6</ele>
        <time>2023-07-18T09:13:06Z</time>
      </trkpt>
      <trkpt lat="47.38931" lon="0.45279">
        <ele>97.6</ele>
        <time>2023-07-18T09:13:07Z</time>
      </trkpt>
      <trkpt lat="47.38934" lon="0.45288">
        <ele>97.4</ele>
        <time>2023-07-18T09:13:08Z</time>
      </trkpt>
      <trkpt lat="47.38936" lon="0.45297">
        <ele>97.4</ele>
        <time>2023-07-18T09:13:09Z</time>
      </trkpt>
      <trkpt lat="47.38938" lon="0.45307">
        <ele>97.4</ele>
        <time>2023-07-18T09:13:10Z</time>
      </trkpt>
      <trkpt lat="47.3894" lon="0.45317">
        <ele>97.4</ele>
        <time>2023-07-18T09:13:11Z</time>
      </trkpt>
      <trkpt lat="47.38942" lon="0.45326">
        <ele>97.4</ele>
        <time>2023-07-18T09:13:12Z</time>
      </trkpt>
      <trkpt lat="47.38945" lon="0.45335">
        <ele>97.4</ele>
        <time>2023-07-18T09:13:13Z</time>
      </trkpt>
      <trkpt lat="47.38947" lon="0.45344">
        <ele>97.6</ele>
        <time>2023-07-18T09:13:14Z</time>
      </trkpt>
      <trkpt lat="47.38949" lon="0.45353">
        <ele>97.6</ele>
        <time>2023-07-18T09:13:15Z</time>
      </trkpt>
      <trkpt lat="47.38951" lon="0.45362">
        <ele>97.6</ele>
        <time>2023-07-18T09:13:16Z</time>
      </trkpt>
      <trkpt lat="47.38953" lon="0.45371">
        <ele>97.6</ele>
        <time>2023-07-18T09:13:17Z</time>
      </trkpt>
      <trkpt lat="47.38955" lon="0.4538">
        <ele>97.6</ele>
        <time>2023-07-18T09:13:18Z</time>
      </trkpt>
      <trkpt lat="47.38956" lon="0.45388">
        <ele>97.8</ele>
        <time>2023-07-18T09:13:19Z</time>
      </trkpt>
      <trkpt lat="47.38958" lon="0.45397">
        <ele>97.8</ele>
        <time>2023-07-18T09:13:20Z</time>
      </trkpt>
      <trkpt lat="47.38961" lon="0.45406">
        <ele>98</ele>
        <time>2023-07-18T09:13:21Z</time>
      </trkpt>
      <trkpt lat="47.38963" lon="0.45414">
        <ele>98</ele>
        <time>2023-07-18T09:13:22Z</time>
      </trkpt>
      <trkpt lat="47.38965" lon="0.45423">
        <ele>98</ele>
        <time>2023-07-18T09:13:23Z</time>
      </trkpt>
      <trkpt lat="47.38966" lon="0.45431">
        <ele>98.2</ele>
        <time>2023-07-18T09:13:24Z</time>
      </trkpt>
      <trkpt lat="47.38969" lon="0.4544">
        <ele>98.4</ele>
        <time>2023-07-18T09:13:25Z</time>
      </trkpt>
      <trkpt lat="47.3897" lon="0.45448">
        <ele>98.8</ele>
        <time>2023-07-18T09:13:26Z</time>
      </trkpt>
      <trkpt lat="47.38972" lon="0.45456">
        <ele>98.8</ele>
        <time>2023-07-18T09:13:27Z</time>
      </trkpt>
      <trkpt lat="47.38974" lon="0.45464">
        <ele>99</ele>
        <time>2023-07-18T09:13:28Z</time>
      </trkpt>
      <trkpt lat="47.38976" lon="0.45472">
        <ele>99.2</ele>
        <time>2023-07-18T09:13:29Z</time>
      </trkpt>
      <trkpt lat="47.38978" lon="0.4548">
        <ele>99.4</ele>
        <time>2023-07-18T09:13:30Z</time>
      </trkpt>
      <trkpt lat="47.3898" lon="0.45488">
        <ele>99.4</ele>
        <time>2023-07-18T09:13:31Z</time>
      </trkpt>
      <trkpt lat="47.38982" lon="0.45497">
        <ele>99.4</ele>
        <time>2023-07-18T09:13:32Z</time>
      </trkpt>
      <trkpt lat="47.38984" lon="0.45505">
        <ele>99.4</ele>
        <time>2023-07-18T09:13:33Z</time>
      </trkpt>
      <trkpt lat="47.38985" lon="0.45514">
        <ele>99.4</ele>
        <time>2023-07-18T09:13:34Z</time>
      </trkpt>
      <trkpt lat="47.38987" lon="0.45522">
        <ele>99.2</ele>
        <time>2023-07-18T09:13:35Z</time>
      </trkpt>
      <trkpt lat="47.38989" lon="0.45531">
        <ele>99.2</ele>
        <time>2023-07-18T09:13:36Z</time>
      </trkpt>
      <trkpt lat="47.3899" lon="0.4554">
        <ele>99</ele>
        <time>2023-07-18T09:13:37Z</time>
      </trkpt>
      <trkpt lat="47.38992" lon="0.4555">
        <ele>99</ele>
        <time>2023-07-18T09:13:38Z</time>
      </trkpt>
      <trkpt lat="47.38994" lon="0.4556">
        <ele>98.8</ele>
        <time>2023-07-18T09:13:39Z</time>
      </trkpt>
      <trkpt lat="47.38995" lon="0.4557">
        <ele>98.6</ele>
        <time>2023-07-18T09:13:40Z</time>
      </trkpt>
      <trkpt lat="47.38997" lon="0.4558">
        <ele>98.2</ele>
        <time>2023-07-18T09:13:41Z</time>
      </trkpt>
      <trkpt lat="47.38997" lon="0.4559">
        <ele>98.2</ele>
        <time>2023-07-18T09:13:42Z</time>
      </trkpt>
      <trkpt lat="47.38998" lon="0.456">
        <ele>98</ele>
        <time>2023-07-18T09:13:43Z</time>
      </trkpt>
      <trkpt lat="47.38998" lon="0.45611">
        <ele>97.8</ele>
        <time>2023-07-18T09:13:44Z</time>
      </trkpt>
      <trkpt lat="47.38998" lon="0.45622">
        <ele>97.4</ele>
        <time>2023-07-18T09:13:45Z</time>
      </trkpt>
      <trkpt lat="47.38999" lon="0.45632">
        <ele>97.2</ele>
        <time>2023-07-18T09:13:46Z</time>
      </trkpt>
      <trkpt lat="47.39" lon="0.45643">
        <ele>97</ele>
        <time>2023-07-18T09:13:47Z</time>
      </trkpt>
      <trkpt lat="47.39002" lon="0.45654">
        <ele>96.8</ele>
        <time>2023-07-18T09:13:48Z</time>
      </trkpt>
      <trkpt lat="47.39004" lon="0.45665">
        <ele>96.6</ele>
        <time>2023-07-18T09:13:49Z</time>
      </trkpt>
      <trkpt lat="47.39008" lon="0.45675">
        <ele>96.4</ele>
        <time>2023-07-18T09:13:50Z</time>
      </trkpt>
      <trkpt lat="47.39011" lon="0.45685">
        <ele>96.4</ele>
        <time>2023-07-18T09:13:51Z</time>
      </trkpt>
      <trkpt lat="47.39016" lon="0.45694">
        <ele>96</ele>
        <time>2023-07-18T09:13:52Z</time>
      </trkpt>
      <trkpt lat="47.39021" lon="0.45702">
        <ele>96</ele>
        <time>2023-07-18T09:13:53Z</time>
      </trkpt>
      <trkpt lat="47.39027" lon="0.45709">
        <ele>95.8</ele>
        <time>2023-07-18T09:13:54Z</time>
      </trkpt>
      <trkpt lat="47.39033" lon="0.45716">
        <ele>95.6</ele>
        <time>2023-07-18T09:13:55Z</time>
      </trkpt>
      <trkpt lat="47.39039" lon="0.45723">
        <ele>95.6</ele>
        <time>2023-07-18T09:13:56Z</time>
      </trkpt>
      <trkpt lat="47.39045" lon="0.45729">
        <ele>95.6</ele>
        <time>2023-07-18T09:13:57Z</time>
      </trkpt>
      <trkpt lat="47.39052" lon="0.45735">
        <ele>95.4</ele>
        <time>2023-07-18T09:13:58Z</time>
      </trkpt>
      <trkpt lat="47.39058" lon="0.4574">
        <ele>95.2</ele>
        <time>2023-07-18T09:13:59Z</time>
      </trkpt>
      <trkpt lat="47.39065" lon="0.45745">
        <ele>95</ele>
        <time>2023-07-18T09:14:00Z</time>
      </trkpt>
      <trkpt lat="47.39072" lon="0.45749">
        <ele>95</ele>
        <time>2023-07-18T09:14:01Z</time>
      </trkpt>
      <trkpt lat="47.39078" lon="0.45754">
        <ele>95</ele>
        <time>2023-07-18T09:14:02Z</time>
      </trkpt>
      <trkpt lat="47.39085" lon="0.45757">
        <ele>95</ele>
        <time>2023-07-18T09:14:03Z</time>
      </trkpt>
      <trkpt lat="47.39092" lon="0.45761">
        <ele>95</ele>
        <time>2023-07-18T09:14:04Z</time>
      </trkpt>
      <trkpt lat="47.39098" lon="0.45765">
        <ele>95.2</ele>
        <time>2023-07-18T09:14:05Z</time>
      </trkpt>
      <trkpt lat="47.39104" lon="0.45768">
        <ele>95.4</ele>
        <time>2023-07-18T09:14:06Z</time>
      </trkpt>
      <trkpt lat="47.39111" lon="0.45773">
        <ele>95.4</ele>
        <time>2023-07-18T09:14:07Z</time>
      </trkpt>
      <trkpt lat="47.39117" lon="0.45777">
        <ele>95.6</ele>
        <time>2023-07-18T09:14:08Z</time>
      </trkpt>
      <trkpt lat="47.39122" lon="0.45781">
        <ele>95.6</ele>
        <time>2023-07-18T09:14:09Z</time>
      </trkpt>
      <trkpt lat="47.39128" lon="0.45786">
        <ele>95.8</ele>
        <time>2023-07-18T09:14:10Z</time>
      </trkpt>
      <trkpt lat="47.39133" lon="0.4579">
        <ele>96</ele>
        <time>2023-07-18T09:14:11Z</time>
      </trkpt>
      <trkpt lat="47.39138" lon="0.45794">
        <ele>96</ele>
        <time>2023-07-18T09:14:12Z</time>
      </trkpt>
      <trkpt lat="47.39144" lon="0.45798">
        <ele>96.2</ele>
        <time>2023-07-18T09:14:13Z</time>
      </trkpt>
      <trkpt lat="47.39148" lon="0.45802">
        <ele>96.4</ele>
        <time>2023-07-18T09:14:14Z</time>
      </trkpt>
      <trkpt lat="47.39154" lon="0.45806">
        <ele>96.6</ele>
        <time>2023-07-18T09:14:15Z</time>
      </trkpt>
      <trkpt lat="47.39158" lon="0.4581">
        <ele>96.8</ele>
        <time>2023-07-18T09:14:16Z</time>
      </trkpt>
      <trkpt lat="47.39163" lon="0.45815">
        <ele>97</ele>
        <time>2023-07-18T09:14:17Z</time>
      </trkpt>
      <trkpt lat="47.39168" lon="0.45819">
        <ele>97.4</ele>
        <time>2023-07-18T09:14:18Z</time>
      </trkpt>
      <trkpt lat="47.39172" lon="0.45823">
        <ele>97.6</ele>
        <time>2023-07-18T09:14:19Z</time>
      </trkpt>
      <trkpt lat="47.39177" lon="0.45827">
        <ele>97.8</ele>
        <time>2023-07-18T09:14:20Z</time>
      </trkpt>
      <trkpt lat="47.39181" lon="0.4583">
        <ele>98</ele>
        <time>2023-07-18T09:14:21Z</time>
      </trkpt>
      <trkpt lat="47.39185" lon="0.45834">
        <ele>98.4</ele>
        <time>2023-07-18T09:14:22Z</time>
      </trkpt>
      <trkpt lat="47.3919" lon="0.45838">
        <ele>98.6</ele>
        <time>2023-07-18T09:14:23Z</time>
      </trkpt>
      <trkpt lat="47.39194" lon="0.45842">
        <ele>99</ele>
        <time>2023-07-18T09:14:24Z</time>
      </trkpt>
      <trkpt lat="47.39199" lon="0.45846">
        <ele>99.4</ele>
        <time>2023-07-18T09:14:25Z</time>
      </trkpt>
      <trkpt lat="47.39203" lon="0.4585">
        <ele>99.6</ele>
        <time>2023-07-18T09:14:26Z</time>
      </trkpt>
      <trkpt lat="47.39207" lon="0.45854">
        <ele>99.8</ele>
        <time>2023-07-18T09:14:27Z</time>
      </trkpt>
      <trkpt lat="47.39212" lon="0.45858">
        <ele>100.2</ele>
        <time>2023-07-18T09:14:28Z</time>
      </trkpt>
      <trkpt lat="47.39216" lon="0.45862">
        <ele>100.4</ele>
        <time>2023-07-18T09:14:29Z</time>
      </trkpt>
      <trkpt lat="47.3922" lon="0.45866">
        <ele>100.6</ele>
        <time>2023-07-18T09:14:30Z</time>
      </trkpt>
      <trkpt lat="47.39225" lon="0.4587">
        <ele>101</ele>
        <time>2023-07-18T09:14:31Z</time>
      </trkpt>
      <trkpt lat="47.39229" lon="0.45873">
        <ele>101.2</ele>
        <time>2023-07-18T09:14:32Z</time>
      </trkpt>
      <trkpt lat="47.39234" lon="0.45877">
        <ele>101.6</ele>
        <time>2023-07-18T09:14:33Z</time>
      </trkpt>
      <trkpt lat="47.39238" lon="0.45881">
        <ele>101.8</ele>
        <time>2023-07-18T09:14:34Z</time>
      </trkpt>
      <trkpt lat="47.39242" lon="0.45884">
        <ele>102</ele>
        <time>2023-07-18T09:14:35Z</time>
      </trkpt>
      <trkpt lat="47.39246" lon="0.45888">
        <ele>102.4</ele>
        <time>2023-07-18T09:14:36Z</time>
      </trkpt>
      <trkpt lat="47.39251" lon="0.45891">
        <ele>102.4</ele>
        <time>2023-07-18T09:14:37Z</time>
      </trkpt>
      <trkpt lat="47.39255" lon="0.45895">
        <ele>102.8</ele>
        <time>2023-07-18T09:14:38Z</time>
      </trkpt>
      <trkpt lat="47.39259" lon="0.45898">
        <ele>103</ele>
        <time>2023-07-18T09:14:39Z</time>
      </trkpt>
      <trkpt lat="47.39264" lon="0.45902">
        <ele>103.4</ele>
        <time>2023-07-18T09:14:40Z</time>
      </trkpt>
      <trkpt lat="47.39267" lon="0.45906">
        <ele>103.6</ele>
        <time>2023-07-18T09:14:41Z</time>
      </trkpt>
      <trkpt lat="47.39272" lon="0.45909">
        <ele>103.8</ele>
        <time>2023-07-18T09:14:42Z</time>
      </trkpt>
      <trkpt lat="47.39276" lon="0.45912">
        <ele>104</ele>
        <time>2023-07-18T09:14:43Z</time>
      </trkpt>
      <trkpt lat="47.3928" lon="0.45916">
        <ele>104.2</ele>
        <time>2023-07-18T09:14:44Z</time>
      </trkpt>
      <trkpt lat="47.39284" lon="0.45919">
        <ele>104.4</ele>
        <time>2023-07-18T09:14:45Z</time>
      </trkpt>
      <trkpt lat="47.39288" lon="0.45923">
        <ele>104.6</ele>
        <time>2023-07-18T09:14:46Z</time>
      </trkpt>
      <trkpt lat="47.39292" lon="0.45926">
        <ele>105</ele>
        <time>2023-07-18T09:14:47Z</time>
      </trkpt>
      <trkpt lat="47.39296" lon="0.45929">
        <ele>105.4</ele>
        <time>2023-07-18T09:14:48Z</time>
      </trkpt>
      <trkpt lat="47.393" lon="0.45932">
        <ele>105.6</ele>
        <time>2023-07-18T09:14:49Z</time>
      </trkpt>
      <trkpt lat="47.39304" lon="0.45936">
        <ele>105.8</ele>
        <time>2023-07-18T09:14:50Z</time>
      </trkpt>
      <trkpt lat="47.39309" lon="0.45939">
        <ele>105.8</ele>
        <time>2023-07-18T09:14:51Z</time>
      </trkpt>
      <trkpt lat="47.39313" lon="0.45943">
        <ele>105.8</ele>
        <time>2023-07-18T09:14:52Z</time>
      </trkpt>
      <trkpt lat="47.39317" lon="0.45947">
        <ele>106</ele>
        <time>2023-07-18T09:14:53Z</time>
      </trkpt>
      <trkpt lat="47.39321" lon="0.45951">
        <ele>106</ele>
        <time>2023-07-18T09:14:54Z</time>
      </trkpt>
      <trkpt lat="47.39325" lon="0.45955">
        <ele>106.2</ele>
        <time>2023-07-18T09:14:55Z</time>
      </trkpt>
      <trkpt lat="47.3933" lon="0.45959">
        <ele>106.4</ele>
        <time>2023-07-18T09:14:56Z</time>
      </trkpt>
      <trkpt lat="47.39334" lon="0.45963">
        <ele>106.6</ele>
        <time>2023-07-18T09:14:57Z</time>
      </trkpt>
      <trkpt lat="47.39338" lon="0.45968">
        <ele>106.6</ele>
        <time>2023-07-18T09:14:58Z</time>
      </trkpt>
      <trkpt lat="47.39343" lon="0.45972">
        <ele>106.8</ele>
        <time>2023-07-18T09:14:59Z</time>
      </trkpt>
      <trkpt lat="47.39346" lon="0.45977">
        <ele>106.8</ele>
        <time>2023-07-18T09:15:00Z</time>
      </trkpt>
      <trkpt lat="47.39349" lon="0.45983">
        <ele>107</ele>
        <time>2023-07-18T09:15:01Z</time>
      </trkpt>
      <trkpt lat="47.39353" lon="0.4599">
        <ele>107</ele>
        <time>2023-07-18T09:15:02Z</time>
      </trkpt>
      <trkpt lat="47.39356" lon="0.45996">
        <ele>107</ele>
        <time>2023-07-18T09:15:03Z</time>
      </trkpt>
      <trkpt lat="47.39359" lon="0.46002">
        <ele>107.2</ele>
        <time>2023-07-18T09:15:04Z</time>
      </trkpt>
      <trkpt lat="47.39362" lon="0.46008">
        <ele>107.2</ele>
        <time>2023-07-18T09:15:05Z</time>
      </trkpt>
      <trkpt lat="47.39366" lon="0.46014">
        <ele>107.4</ele>
        <time>2023-07-18T09:15:06Z</time>
      </trkpt>
      <trkpt lat="47.39369" lon="0.4602">
        <ele>107.6</ele>
        <time>2023-07-18T09:15:07Z</time>
      </trkpt>
      <trkpt lat="47.39372" lon="0.46027">
        <ele>107.6</ele>
        <time>2023-07-18T09:15:08Z</time>
      </trkpt>
      <trkpt lat="47.39375" lon="0.46033">
        <ele>107.8</ele>
        <time>2023-07-18T09:15:09Z</time>
      </trkpt>
      <trkpt lat="47.39378" lon="0.4604">
        <ele>107.8</ele>
        <time>2023-07-18T09:15:10Z</time>
      </trkpt>
      <trkpt lat="47.39381" lon="0.46046">
        <ele>107.6</ele>
        <time>2023-07-18T09:15:11Z</time>
      </trkpt>
      <trkpt lat="47.39383" lon="0.46053">
        <ele>107.6</ele>
        <time>2023-07-18T09:15:12Z</time>
      </trkpt>
      <trkpt lat="47.39386" lon="0.4606">
        <ele>107.4</ele>
        <time>2023-07-18T09:15:13Z</time>
      </trkpt>
      <trkpt lat="47.39389" lon="0.46066">
        <ele>107.4</ele>
        <time>2023-07-18T09:15:14Z</time>
      </trkpt>
      <trkpt lat="47.39392" lon="0.46073">
        <ele>107.6</ele>
        <time>2023-07-18T09:15:15Z</time>
      </trkpt>
      <trkpt lat="47.39395" lon="0.4608">
        <ele>107.6</ele>
        <time>2023-07-18T09:15:16Z</time>
      </trkpt>
      <trkpt lat="47.39398" lon="0.46087">
        <ele>107.4</ele>
        <time>2023-07-18T09:15:17Z</time>
      </trkpt>
      <trkpt lat="47.39402" lon="0.46094">
        <ele>107.6</ele>
        <time>2023-07-18T09:15:18Z</time>
      </trkpt>
      <trkpt lat="47.39405" lon="0.46101">
        <ele>107.6</ele>
        <time>2023-07-18T09:15:19Z</time>
      </trkpt>
      <trkpt lat="47.39408" lon="0.46109">
        <ele>107.6</ele>
        <time>2023-07-18T09:15:20Z</time>
      </trkpt>
      <trkpt lat="47.39412" lon="0.46116">
        <ele>107.8</ele>
        <time>2023-07-18T09:15:21Z</time>
      </trkpt>
      <trkpt lat="47.39415" lon="0.46124">
        <ele>107.6</ele>
        <time>2023-07-18T09:15:22Z</time>
      </trkpt>
      <trkpt lat="47.39418" lon="0.46131">
        <ele>107.6</ele>
        <time>2023-07-18T09:15:23Z</time>
      </trkpt>
      <trkpt lat="47.39422" lon="0.46139">
        <ele>107.6</ele>
        <time>2023-07-18T09:15:24Z</time>
      </trkpt>
      <trkpt lat="47.39426" lon="0.46147">
        <ele>107.6</ele>
        <time>2023-07-18T09:15:25Z</time>
      </trkpt>
      <trkpt lat="47.39429" lon="0.46155">
        <ele>107.8</ele>
        <time>2023-07-18T09:15:26Z</time>
      </trkpt>
      <trkpt lat="47.39432" lon="0.46163">
        <ele>107.8</ele>
        <time>2023-07-18T09:15:27Z</time>
      </trkpt>
      <trkpt lat="47.39435" lon="0.46171">
        <ele>107.8</ele>
        <time>2023-07-18T09:15:28Z</time>
      </trkpt>
      <trkpt lat="47.39438" lon="0.46179">
        <ele>107.6</ele>
        <time>2023-07-18T09:15:29Z</time>
      </trkpt>
      <trkpt lat="47.39441" lon="0.46187">
        <ele>107.6</ele>
        <time>2023-07-18T09:15:30Z</time>
      </trkpt>
      <trkpt lat="47.39444" lon="0.46196">
        <ele>107.4</ele>
        <time>2023-07-18T09:15:31Z</time>
      </trkpt>
      <trkpt lat="47.39447" lon="0.46205">
        <ele>107.2</ele>
        <time>2023-07-18T09:15:32Z</time>
      </trkpt>
      <trkpt lat="47.3945" lon="0.46213">
        <ele>107.2</ele>
        <time>2023-07-18T09:15:33Z</time>
      </trkpt>
      <trkpt lat="47.39453" lon="0.46222">
        <ele>107.2</ele>
        <time>2023-07-18T09:15:34Z</time>
      </trkpt>
      <trkpt lat="47.39455" lon="0.4623">
        <ele>107</ele>
        <time>2023-07-18T09:15:35Z</time>
      </trkpt>
      <trkpt lat="47.39458" lon="0.46239">
        <ele>107</ele>
        <time>2023-07-18T09:15:36Z</time>
      </trkpt>
      <trkpt lat="47.39461" lon="0.46248">
        <ele>106.8</ele>
        <time>2023-07-18T09:15:37Z</time>
      </trkpt>
      <trkpt lat="47.39464" lon="0.46256">
        <ele>106.6</ele>
        <time>2023-07-18T09:15:38Z</time>
      </trkpt>
      <trkpt lat="47.39466" lon="0.46265">
        <ele>106.8</ele>
        <time>2023-07-18T09:15:39Z</time>
      </trkpt>
      <trkpt lat="47.39469" lon="0.46274">
        <ele>106.8</ele>
        <time>2023-07-18T09:15:40Z</time>
      </trkpt>
      <trkpt lat="47.39471" lon="0.46282">
        <ele>106.8</ele>
        <time>2023-07-18T09:15:41Z</time>
      </trkpt>
      <trkpt lat="47.39473" lon="0.46292">
        <ele>106.6</ele>
        <time>2023-07-18T09:15:42Z</time>
      </trkpt>
      <trkpt lat="47.39475" lon="0.463">
        <ele>106.6</ele>
        <time>2023-07-18T09:15:43Z</time>
      </trkpt>
      <trkpt lat="47.39478" lon="0.46309">
        <ele>106.4</ele>
        <time>2023-07-18T09:15:44Z</time>
      </trkpt>
      <trkpt lat="47.39479" lon="0.46319">
        <ele>106.4</ele>
        <time>2023-07-18T09:15:45Z</time>
      </trkpt>
      <trkpt lat="47.39481" lon="0.46328">
        <ele>106.2</ele>
        <time>2023-07-18T09:15:46Z</time>
      </trkpt>
      <trkpt lat="47.39483" lon="0.46338">
        <ele>106</ele>
        <time>2023-07-18T09:15:47Z</time>
      </trkpt>
      <trkpt lat="47.39485" lon="0.46347">
        <ele>105.8</ele>
        <time>2023-07-18T09:15:48Z</time>
      </trkpt>
      <trkpt lat="47.39487" lon="0.46357">
        <ele>105.6</ele>
        <time>2023-07-18T09:15:49Z</time>
      </trkpt>
      <trkpt lat="47.39489" lon="0.46367">
        <ele>105.4</ele>
        <time>2023-07-18T09:15:50Z</time>
      </trkpt>
      <trkpt lat="47.39491" lon="0.46377">
        <ele>105.2</ele>
        <time>2023-07-18T09:15:51Z</time>
      </trkpt>
      <trkpt lat="47.39493" lon="0.46387">
        <ele>105</ele>
        <time>2023-07-18T09:15:52Z</time>
      </trkpt>
      <trkpt lat="47.39495" lon="0.46397">
        <ele>105</ele>
        <time>2023-07-18T09:15:53Z</time>
      </trkpt>
      <trkpt lat="47.39497" lon="0.46408">
        <ele>104.8</ele>
        <time>2023-07-18T09:15:54Z</time>
      </trkpt>
      <trkpt lat="47.39499" lon="0.46418">
        <ele>104.6</ele>
        <time>2023-07-18T09:15:55Z</time>
      </trkpt>
      <trkpt lat="47.395" lon="0.46428">
        <ele>104.4</ele>
        <time>2023-07-18T09:15:56Z</time>
      </trkpt>
      <trkpt lat="47.39502" lon="0.46439">
        <ele>104.2</ele>
        <time>2023-07-18T09:15:57Z</time>
      </trkpt>
      <trkpt lat="47.39504" lon="0.46449">
        <ele>104.2</ele>
        <time>2023-07-18T09:15:58Z</time>
      </trkpt>
      <trkpt lat="47.39506" lon="0.4646">
        <ele>104.2</ele>
        <time>2023-07-18T09:15:59Z</time>
      </trkpt>
      <trkpt lat="47.39508" lon="0.4647">
        <ele>104</ele>
        <time>2023-07-18T09:16:00Z</time>
      </trkpt>
      <trkpt lat="47.3951" lon="0.4648">
        <ele>103.8</ele>
        <time>2023-07-18T09:16:01Z</time>
      </trkpt>
      <trkpt lat="47.39513" lon="0.46491">
        <ele>103.6</ele>
        <time>2023-07-18T09:16:02Z</time>
      </trkpt>
      <trkpt lat="47.39515" lon="0.46501">
        <ele>103.4</ele>
        <time>2023-07-18T09:16:03Z</time>
      </trkpt>
      <trkpt lat="47.39518" lon="0.46512">
        <ele>103.2</ele>
        <time>2023-07-18T09:16:04Z</time>
      </trkpt>
      <trkpt lat="47.3952" lon="0.46522">
        <ele>103.2</ele>
        <time>2023-07-18T09:16:05Z</time>
      </trkpt>
      <trkpt lat="47.39523" lon="0.46532">
        <ele>103</ele>
        <time>2023-07-18T09:16:06Z</time>
      </trkpt>
      <trkpt lat="47.39526" lon="0.46542">
        <ele>102.8</ele>
        <time>2023-07-18T09:16:07Z</time>
      </trkpt>
      <trkpt lat="47.39529" lon="0.46552">
        <ele>102.4</ele>
        <time>2023-07-18T09:16:08Z</time>
      </trkpt>
      <trkpt lat="47.39532" lon="0.46563">
        <ele>102.4</ele>
        <time>2023-07-18T09:16:09Z</time>
      </trkpt>
      <trkpt lat="47.39536" lon="0.46573">
        <ele>102.4</ele>
        <time>2023-07-18T09:16:10Z</time>
      </trkpt>
      <trkpt lat="47.39539" lon="0.46583">
        <ele>102.2</ele>
        <time>2023-07-18T09:16:11Z</time>
      </trkpt>
      <trkpt lat="47.39542" lon="0.46594">
        <ele>102.2</ele>
        <time>2023-07-18T09:16:12Z</time>
      </trkpt>
      <trkpt lat="47.39545" lon="0.46604">
        <ele>102</ele>
        <time>2023-07-18T09:16:13Z</time>
      </trkpt>
      <trkpt lat="47.39548" lon="0.46614">
        <ele>102</ele>
        <time>2023-07-18T09:16:14Z</time>
      </trkpt>
      <trkpt lat="47.39551" lon="0.46624">
        <ele>101.8</ele>
        <time>2023-07-18T09:16:15Z</time>
      </trkpt>
      <trkpt lat="47.39553" lon="0.46633">
        <ele>101.8</ele>
        <time>2023-07-18T09:16:16Z</time>
      </trkpt>
      <trkpt lat="47.39556" lon="0.46643">
        <ele>101.8</ele>
        <time>2023-07-18T09:16:17Z</time>
      </trkpt>
      <trkpt lat="47.39559" lon="0.46652">
        <ele>101.6</ele>
        <time>2023-07-18T09:16:18Z</time>
      </trkpt>
      <trkpt lat="47.39562" lon="0.46661">
        <ele>101.4</ele>
        <time>2023-07-18T09:16:19Z</time>
      </trkpt>
      <trkpt lat="47.39565" lon="0.4667">
        <ele>101.4</ele>
        <time>2023-07-18T09:16:20Z</time>
      </trkpt>
      <trkpt lat="47.39568" lon="0.46679">
        <ele>101.4</ele>
        <time>2023-07-18T09:16:21Z</time>
      </trkpt>
      <trkpt lat="47.39571" lon="0.46687">
        <ele>101.4</ele>
        <time>2023-07-18T09:16:22Z</time>
      </trkpt>
      <trkpt lat="47.39574" lon="0.46695">
        <ele>101.4</ele>
        <time>2023-07-18T09:16:23Z</time>
      </trkpt>
      <trkpt lat="47.39578" lon="0.46703">
        <ele>101.2</ele>
        <time>2023-07-18T09:16:24Z</time>
      </trkpt>
      <trkpt lat="47.39583" lon="0.46709">
        <ele>101.2</ele>
        <time>2023-07-18T09:16:25Z</time>
      </trkpt>
      <trkpt lat="47.39589" lon="0.46715">
        <ele>101</ele>
        <time>2023-07-18T09:16:26Z</time>
      </trkpt>
      <trkpt lat="47.39595" lon="0.4672">
        <ele>101</ele>
        <time>2023-07-18T09:16:27Z</time>
      </trkpt>
      <trkpt lat="47.396" lon="0.46725">
        <ele>100.8</ele>
        <time>2023-07-18T09:16:28Z</time>
      </trkpt>
      <trkpt lat="47.39605" lon="0.46732">
        <ele>100.6</ele>
        <time>2023-07-18T09:16:29Z</time>
      </trkpt>
      <trkpt lat="47.3961" lon="0.46739">
        <ele>100.2</ele>
        <time>2023-07-18T09:16:30Z</time>
      </trkpt>
      <trkpt lat="47.39615" lon="0.46747">
        <ele>99.8</ele>
        <time>2023-07-18T09:16:31Z</time>
      </trkpt>
      <trkpt lat="47.3962" lon="0.46756">
        <ele>99.4</ele>
        <time>2023-07-18T09:16:32Z</time>
      </trkpt>
      <trkpt lat="47.39624" lon="0.46764">
        <ele>99.4</ele>
        <time>2023-07-18T09:16:33Z</time>
      </trkpt>
      <trkpt lat="47.39629" lon="0.46773">
        <ele>99</ele>
        <time>2023-07-18T09:16:34Z</time>
      </trkpt>
      <trkpt lat="47.39634" lon="0.46782">
        <ele>99</ele>
        <time>2023-07-18T09:16:35Z</time>
      </trkpt>
      <trkpt lat="47.39639" lon="0.46792">
        <ele>98.8</ele>
        <time>2023-07-18T09:16:36Z</time>
      </trkpt>
      <trkpt lat="47.39644" lon="0.46801">
        <ele>98.6</ele>
        <time>2023-07-18T09:16:37Z</time>
      </trkpt>
      <trkpt lat="47.3965" lon="0.4681">
        <ele>98.6</ele>
        <time>2023-07-18T09:16:38Z</time>
      </trkpt>
      <trkpt lat="47.39656" lon="0.46819">
        <ele>98.4</ele>
        <time>2023-07-18T09:16:39Z</time>
      </trkpt>
      <trkpt lat="47.39661" lon="0.46827">
        <ele>98.4</ele>
        <time>2023-07-18T09:16:40Z</time>
      </trkpt>
      <trkpt lat="47.39668" lon="0.46835">
        <ele>98.6</ele>
        <time>2023-07-18T09:16:41Z</time>
      </trkpt>
      <trkpt lat="47.39674" lon="0.46842">
        <ele>98.4</ele>
        <time>2023-07-18T09:16:42Z</time>
      </trkpt>
      <trkpt lat="47.39679" lon="0.4685">
        <ele>98.4</ele>
        <time>2023-07-18T09:16:43Z</time>
      </trkpt>
      <trkpt lat="47.39685" lon="0.46858">
        <ele>98.4</ele>
        <time>2023-07-18T09:16:44Z</time>
      </trkpt>
      <trkpt lat="47.3969" lon="0.46866">
        <ele>98.6</ele>
        <time>2023-07-18T09:16:45Z</time>
      </trkpt>
      <trkpt lat="47.39693" lon="0.46874">
        <ele>99</ele>
        <time>2023-07-18T09:16:46Z</time>
      </trkpt>
      <trkpt lat="47.39697" lon="0.46882">
        <ele>99</ele>
        <time>2023-07-18T09:16:47Z</time>
      </trkpt>
      <trkpt lat="47.397" lon="0.4689">
        <ele>99.2</ele>
        <time>2023-07-18T09:16:48Z</time>
      </trkpt>
      <trkpt lat="47.39703" lon="0.46899">
        <ele>99.2</ele>
        <time>2023-07-18T09:16:49Z</time>
      </trkpt>
      <trkpt lat="47.39705" lon="0.46907">
        <ele>99.4</ele>
        <time>2023-07-18T09:16:50Z</time>
      </trkpt>
      <trkpt lat="47.39707" lon="0.46916">
        <ele>99.6</ele>
        <time>2023-07-18T09:16:51Z</time>
      </trkpt>
      <trkpt lat="47.39708" lon="0.46925">
        <ele>99.6</ele>
        <time>2023-07-18T09:16:52Z</time>
      </trkpt>
      <trkpt lat="47.3971" lon="0.46934">
        <ele>99.6</ele>
        <time>2023-07-18T09:16:53Z</time>
      </trkpt>
      <trkpt lat="47.39711" lon="0.46942">
        <ele>99.6</ele>
        <time>2023-07-18T09:16:54Z</time>
      </trkpt>
      <trkpt lat="47.39712" lon="0.46951">
        <ele>99.8</ele>
        <time>2023-07-18T09:16:55Z</time>
      </trkpt>
      <trkpt lat="47.39712" lon="0.46959">
        <ele>99.8</ele>
        <time>2023-07-18T09:16:56Z</time>
      </trkpt>
      <trkpt lat="47.39713" lon="0.46968">
        <ele>99.6</ele>
        <time>2023-07-18T09:16:57Z</time>
      </trkpt>
      <trkpt lat="47.39713" lon="0.46977">
        <ele>99.8</ele>
        <time>2023-07-18T09:16:58Z</time>
      </trkpt>
      <trkpt lat="47.39713" lon="0.46987">
        <ele>99.8</ele>
        <time>2023-07-18T09:16:59Z</time>
      </trkpt>
      <trkpt lat="47.39712" lon="0.46996">
        <ele>99.8</ele>
        <time>2023-07-18T09:17:00Z</time>
      </trkpt>
      <trkpt lat="47.39711" lon="0.47006">
        <ele>100</ele>
        <time>2023-07-18T09:17:01Z</time>
      </trkpt>
      <trkpt lat="47.39711" lon="0.47016">
        <ele>100</ele>
        <time>2023-07-18T09:17:02Z</time>
      </trkpt>
      <trkpt lat="47.39711" lon="0.47026">
        <ele>100</ele>
        <time>2023-07-18T09:17:03Z</time>
      </trkpt>
      <trkpt lat="47.39711" lon="0.47035">
        <ele>100.2</ele>
        <time>2023-07-18T09:17:04Z</time>
      </trkpt>
      <trkpt lat="47.39711" lon="0.47046">
        <ele>100.4</ele>
        <time>2023-07-18T09:17:05Z</time>
      </trkpt>
      <trkpt lat="47.39711" lon="0.47056">
        <ele>100.6</ele>
        <time>2023-07-18T09:17:06Z</time>
      </trkpt>
      <trkpt lat="47.39712" lon="0.47066">
        <ele>100.4</ele>
        <time>2023-07-18T09:17:07Z</time>
      </trkpt>
      <trkpt lat="47.39713" lon="0.47075">
        <ele>100.6</ele>
        <time>2023-07-18T09:17:08Z</time>
      </trkpt>
      <trkpt lat="47.39714" lon="0.47085">
        <ele>100.6</ele>
        <time>2023-07-18T09:17:09Z</time>
      </trkpt>
      <trkpt lat="47.39715" lon="0.47095">
        <ele>100.4</ele>
        <time>2023-07-18T09:17:10Z</time>
      </trkpt>
      <trkpt lat="47.39716" lon="0.47105">
        <ele>100.4</ele>
        <time>2023-07-18T09:17:11Z</time>
      </trkpt>
      <trkpt lat="47.39717" lon="0.47116">
        <ele>100.4</ele>
        <time>2023-07-18T09:17:12Z</time>
      </trkpt>
      <trkpt lat="47.39717" lon="0.47126">
        <ele>100.2</ele>
        <time>2023-07-18T09:17:13Z</time>
      </trkpt>
      <trkpt lat="47.39718" lon="0.47136">
        <ele>100</ele>
        <time>2023-07-18T09:17:14Z</time>
      </trkpt>
      <trkpt lat="47.39717" lon="0.47145">
        <ele>100</ele>
        <time>2023-07-18T09:17:15Z</time>
      </trkpt>
      <trkpt lat="47.39717" lon="0.47155">
        <ele>99.8</ele>
        <time>2023-07-18T09:17:16Z</time>
      </trkpt>
      <trkpt lat="47.39716" lon="0.47166">
        <ele>99.8</ele>
        <time>2023-07-18T09:17:17Z</time>
      </trkpt>
      <trkpt lat="47.39715" lon="0.47175">
        <ele>99.6</ele>
        <time>2023-07-18T09:17:18Z</time>
      </trkpt>
      <trkpt lat="47.39714" lon="0.47185">
        <ele>99.4</ele>
        <time>2023-07-18T09:17:19Z</time>
      </trkpt>
      <trkpt lat="47.39713" lon="0.47195">
        <ele>99.4</ele>
        <time>2023-07-18T09:17:20Z</time>
      </trkpt>
      <trkpt lat="47.39712" lon="0.47204">
        <ele>99.4</ele>
        <time>2023-07-18T09:17:21Z</time>
      </trkpt>
      <trkpt lat="47.39711" lon="0.47214">
        <ele>99.2</ele>
        <time>2023-07-18T09:17:22Z</time>
      </trkpt>
      <trkpt lat="47.39711" lon="0.47223">
        <ele>99.2</ele>
        <time>2023-07-18T09:17:23Z</time>
      </trkpt>
      <trkpt lat="47.3971" lon="0.47233">
        <ele>99.2</ele>
        <time>2023-07-18T09:17:24Z</time>
      </trkpt>
      <trkpt lat="47.3971" lon="0.47242">
        <ele>99.2</ele>
        <time>2023-07-18T09:17:25Z</time>
      </trkpt>
      <trkpt lat="47.39709" lon="0.47251">
        <ele>99.4</ele>
        <time>2023-07-18T09:17:26Z</time>
      </trkpt>
      <trkpt lat="47.39708" lon="0.4726">
        <ele>99.4</ele>
        <time>2023-07-18T09:17:27Z</time>
      </trkpt>
      <trkpt lat="47.39708" lon="0.47268">
        <ele>99.4</ele>
        <time>2023-07-18T09:17:28Z</time>
      </trkpt>
      <trkpt lat="47.39707" lon="0.47277">
        <ele>99.4</ele>
        <time>2023-07-18T09:17:29Z</time>
      </trkpt>
      <trkpt lat="47.39706" lon="0.47285">
        <ele>99.4</ele>
        <time>2023-07-18T09:17:30Z</time>
      </trkpt>
      <trkpt lat="47.39705" lon="0.47293">
        <ele>99.4</ele>
        <time>2023-07-18T09:17:31Z</time>
      </trkpt>
      <trkpt lat="47.39705" lon="0.47301">
        <ele>99.4</ele>
        <time>2023-07-18T09:17:32Z</time>
      </trkpt>
      <trkpt lat="47.39704" lon="0.47309">
        <ele>99.4</ele>
        <time>2023-07-18T09:17:33Z</time>
      </trkpt>
      <trkpt lat="47.39704" lon="0.47317">
        <ele>99.4</ele>
        <time>2023-07-18T09:17:34Z</time>
      </trkpt>
      <trkpt lat="47.39703" lon="0.47325">
        <ele>99.4</ele>
        <time>2023-07-18T09:17:35Z</time>
      </trkpt>
      <trkpt lat="47.39703" lon="0.47332">
        <ele>99.4</ele>
        <time>2023-07-18T09:17:36Z</time>
      </trkpt>
      <trkpt lat="47.39702" lon="0.47339">
        <ele>99.4</ele>
        <time>2023-07-18T09:17:37Z</time>
      </trkpt>
      <trkpt lat="47.39701" lon="0.47347">
        <ele>99.4</ele>
        <time>2023-07-18T09:17:38Z</time>
      </trkpt>
      <trkpt lat="47.39701" lon="0.47354">
        <ele>99.6</ele>
        <time>2023-07-18T09:17:39Z</time>
      </trkpt>
      <trkpt lat="47.397" lon="0.47362">
        <ele>99.6</ele>
        <time>2023-07-18T09:17:40Z</time>
      </trkpt>
      <trkpt lat="47.397" lon="0.4737">
        <ele>99.6</ele>
        <time>2023-07-18T09:17:41Z</time>
      </trkpt>
      <trkpt lat="47.397" lon="0.47378">
        <ele>99.8</ele>
        <time>2023-07-18T09:17:42Z</time>
      </trkpt>
      <trkpt lat="47.39699" lon="0.47386">
        <ele>100</ele>
        <time>2023-07-18T09:17:43Z</time>
      </trkpt>
      <trkpt lat="47.39698" lon="0.47393">
        <ele>100</ele>
        <time>2023-07-18T09:17:44Z</time>
      </trkpt>
      <trkpt lat="47.39697" lon="0.47401">
        <ele>100.2</ele>
        <time>2023-07-18T09:17:45Z</time>
      </trkpt>
      <trkpt lat="47.39696" lon="0.47409">
        <ele>100.2</ele>
        <time>2023-07-18T09:17:46Z</time>
      </trkpt>
      <trkpt lat="47.39696" lon="0.47417">
        <ele>100.4</ele>
        <time>2023-07-18T09:17:47Z</time>
      </trkpt>
      <trkpt lat="47.39695" lon="0.47425">
        <ele>100.6</ele>
        <time>2023-07-18T09:17:48Z</time>
      </trkpt>
      <trkpt lat="47.39695" lon="0.47433">
        <ele>100.4</ele>
        <time>2023-07-18T09:17:49Z</time>
      </trkpt>
      <trkpt lat="47.39695" lon="0.47441">
        <ele>100.4</ele>
        <time>2023-07-18T09:17:50Z</time>
      </trkpt>
      <trkpt lat="47.39694" lon="0.47449">
        <ele>100.4</ele>
        <time>2023-07-18T09:17:51Z</time>
      </trkpt>
      <trkpt lat="47.39693" lon="0.47457">
        <ele>100.4</ele>
        <time>2023-07-18T09:17:52Z</time>
      </trkpt>
      <trkpt lat="47.39693" lon="0.47466">
        <ele>100.4</ele>
        <time>2023-07-18T09:17:53Z</time>
      </trkpt>
      <trkpt lat="47.39692" lon="0.47474">
        <ele>100.4</ele>
        <time>2023-07-18T09:17:54Z</time>
      </trkpt>
      <trkpt lat="47.39692" lon="0.47482">
        <ele>100.6</ele>
        <time>2023-07-18T09:17:55Z</time>
      </trkpt>
      <trkpt lat="47.39691" lon="0.4749">
        <ele>100.6</ele>
        <time>2023-07-18T09:17:56Z</time>
      </trkpt>
      <trkpt lat="47.39691" lon="0.47497">
        <ele>100.6</ele>
        <time>2023-07-18T09:17:57Z</time>
      </trkpt>
      <trkpt lat="47.3969" lon="0.47506">
        <ele>100.6</ele>
        <time>2023-07-18T09:17:58Z</time>
      </trkpt>
      <trkpt lat="47.39689" lon="0.47513">
        <ele>100.6</ele>
        <time>2023-07-18T09:17:59Z</time>
      </trkpt>
      <trkpt lat="47.39688" lon="0.47522">
        <ele>100.6</ele>
        <time>2023-07-18T09:18:00Z</time>
      </trkpt>
      <trkpt lat="47.39688" lon="0.47529">
        <ele>100.6</ele>
        <time>2023-07-18T09:18:01Z</time>
      </trkpt>
      <trkpt lat="47.39687" lon="0.47537">
        <ele>100.6</ele>
        <time>2023-07-18T09:18:02Z</time>
      </trkpt>
      <trkpt lat="47.39687" lon="0.47544">
        <ele>100.6</ele>
        <time>2023-07-18T09:18:03Z</time>
      </trkpt>
      <trkpt lat="47.39687" lon="0.47551">
        <ele>100.6</ele>
        <time>2023-07-18T09:18:04Z</time>
      </trkpt>
      <trkpt lat="47.39686" lon="0.47559">
        <ele>100.8</ele>
        <time>2023-07-18T09:18:05Z</time>
      </trkpt>
      <trkpt lat="47.39685" lon="0.47566">
        <ele>100.8</ele>
        <time>2023-07-18T09:18:06Z</time>
      </trkpt>
      <trkpt lat="47.39685" lon="0.47574">
        <ele>100.8</ele>
        <time>2023-07-18T09:18:07Z</time>
      </trkpt>
      <trkpt lat="47.39684" lon="0.47581">
        <ele>100.8</ele>
        <time>2023-07-18T09:18:08Z</time>
      </trkpt>
      <trkpt lat="47.39684" lon="0.47589">
        <ele>101</ele>
        <time>2023-07-18T09:18:09Z</time>
      </trkpt>
      <trkpt lat="47.39683" lon="0.47597">
        <ele>101</ele>
        <time>2023-07-18T09:18:10Z</time>
      </trkpt>
      <trkpt lat="47.39682" lon="0.47605">
        <ele>101</ele>
        <time>2023-07-18T09:18:11Z</time>
      </trkpt>
      <trkpt lat="47.39682" lon="0.47613">
        <ele>101.2</ele>
        <time>2023-07-18T09:18:12Z</time>
      </trkpt>
      <trkpt lat="47.39681" lon="0.47622">
        <ele>101.2</ele>
        <time>2023-07-18T09:18:13Z</time>
      </trkpt>
      <trkpt lat="47.3968" lon="0.4763">
        <ele>101.2</ele>
        <time>2023-07-18T09:18:14Z</time>
      </trkpt>
      <trkpt lat="47.3968" lon="0.47639">
        <ele>101.4</ele>
        <time>2023-07-18T09:18:15Z</time>
      </trkpt>
      <trkpt lat="47.39679" lon="0.47647">
        <ele>101.4</ele>
        <time>2023-07-18T09:18:16Z</time>
      </trkpt>
      <trkpt lat="47.39679" lon="0.47655">
        <ele>101.4</ele>
        <time>2023-07-18T09:18:17Z</time>
      </trkpt>
      <trkpt lat="47.39679" lon="0.47663">
        <ele>101.6</ele>
        <time>2023-07-18T09:18:18Z</time>
      </trkpt>
      <trkpt lat="47.39678" lon="0.47671">
        <ele>101.6</ele>
        <time>2023-07-18T09:18:19Z</time>
      </trkpt>
      <trkpt lat="47.39678" lon="0.47679">
        <ele>101.8</ele>
        <time>2023-07-18T09:18:20Z</time>
      </trkpt>
      <trkpt lat="47.39677" lon="0.47687">
        <ele>101.8</ele>
        <time>2023-07-18T09:18:21Z</time>
      </trkpt>
      <trkpt lat="47.39676" lon="0.47696">
        <ele>101.8</ele>
        <time>2023-07-18T09:18:22Z</time>
      </trkpt>
      <trkpt lat="47.39676" lon="0.47705">
        <ele>101.8</ele>
        <time>2023-07-18T09:18:23Z</time>
      </trkpt>
      <trkpt lat="47.39675" lon="0.47713">
        <ele>102</ele>
        <time>2023-07-18T09:18:24Z</time>
      </trkpt>
      <trkpt lat="47.39674" lon="0.47722">
        <ele>102</ele>
        <time>2023-07-18T09:18:25Z</time>
      </trkpt>
      <trkpt lat="47.39674" lon="0.4773">
        <ele>102.2</ele>
        <time>2023-07-18T09:18:26Z</time>
      </trkpt>
      <trkpt lat="47.39674" lon="0.47738">
        <ele>102.2</ele>
        <time>2023-07-18T09:18:27Z</time>
      </trkpt>
      <trkpt lat="47.39672" lon="0.47746">
        <ele>102.2</ele>
        <time>2023-07-18T09:18:28Z</time>
      </trkpt>
      <trkpt lat="47.39672" lon="0.47754">
        <ele>102.2</ele>
        <time>2023-07-18T09:18:29Z</time>
      </trkpt>
      <trkpt lat="47.39671" lon="0.47762">
        <ele>102.2</ele>
        <time>2023-07-18T09:18:30Z</time>
      </trkpt>
      <trkpt lat="47.39671" lon="0.47769">
        <ele>102.2</ele>
        <time>2023-07-18T09:18:31Z</time>
      </trkpt>
      <trkpt lat="47.39671" lon="0.47777">
        <ele>102.4</ele>
        <time>2023-07-18T09:18:32Z</time>
      </trkpt>
      <trkpt lat="47.3967" lon="0.47785">
        <ele>102.4</ele>
        <time>2023-07-18T09:18:33Z</time>
      </trkpt>
      <trkpt lat="47.39669" lon="0.47793">
        <ele>102.4</ele>
        <time>2023-07-18T09:18:34Z</time>
      </trkpt>
      <trkpt lat="47.39669" lon="0.478">
        <ele>102.4</ele>
        <time>2023-07-18T09:18:35Z</time>
      </trkpt>
      <trkpt lat="47.39669" lon="0.47808">
        <ele>102.4</ele>
        <time>2023-07-18T09:18:36Z</time>
      </trkpt>
      <trkpt lat="47.39668" lon="0.47816">
        <ele>102.4</ele>
        <time>2023-07-18T09:18:37Z</time>
      </trkpt>
      <trkpt lat="47.39667" lon="0.47824">
        <ele>102.4</ele>
        <time>2023-07-18T09:18:38Z</time>
      </trkpt>
      <trkpt lat="47.39666" lon="0.47832">
        <ele>102.4</ele>
        <time>2023-07-18T09:18:39Z</time>
      </trkpt>
      <trkpt lat="47.39666" lon="0.4784">
        <ele>102.4</ele>
        <time>2023-07-18T09:18:40Z</time>
      </trkpt>
      <trkpt lat="47.39665" lon="0.47847">
        <ele>102.4</ele>
        <time>2023-07-18T09:18:41Z</time>
      </trkpt>
      <trkpt lat="47.39664" lon="0.47855">
        <ele>102.2</ele>
        <time>2023-07-18T09:18:42Z</time>
      </trkpt>
      <trkpt lat="47.39664" lon="0.47863">
        <ele>102.2</ele>
        <time>2023-07-18T09:18:43Z</time>
      </trkpt>
      <trkpt lat="47.39662" lon="0.4787">
        <ele>102.2</ele>
        <time>2023-07-18T09:18:44Z</time>
      </trkpt>
      <trkpt lat="47.39661" lon="0.47876">
        <ele>102.2</ele>
        <time>2023-07-18T09:18:45Z</time>
      </trkpt>
      <trkpt lat="47.39661" lon="0.47881">
        <ele>102.2</ele>
        <time>2023-07-18T09:18:46Z</time>
      </trkpt>
      <trkpt lat="47.39661" lon="0.47885">
        <ele>102.2</ele>
        <time>2023-07-18T09:18:47Z</time>
      </trkpt>
      <trkpt lat="47.3966" lon="0.4789">
        <ele>102.4</ele>
        <time>2023-07-18T09:18:48Z</time>
      </trkpt>
      <trkpt lat="47.39659" lon="0.47895">
        <ele>102.4</ele>
        <time>2023-07-18T09:18:49Z</time>
      </trkpt>
      <trkpt lat="47.39658" lon="0.47901">
        <ele>102.4</ele>
        <time>2023-07-18T09:18:50Z</time>
      </trkpt>
      <trkpt lat="47.39656" lon="0.47907">
        <ele>102.6</ele>
        <time>2023-07-18T09:18:51Z</time>
      </trkpt>
      <trkpt lat="47.39653" lon="0.47914">
        <ele>102.8</ele>
        <time>2023-07-18T09:18:52Z</time>
      </trkpt>
      <trkpt lat="47.39648" lon="0.47922">
        <ele>103</ele>
        <time>2023-07-18T09:18:53Z</time>
      </trkpt>
      <trkpt lat="47.39645" lon="0.47932">
        <ele>103</ele>
        <time>2023-07-18T09:18:54Z</time>
      </trkpt>
      <trkpt lat="47.39641" lon="0.47942">
        <ele>103.2</ele>
        <time>2023-07-18T09:18:55Z</time>
      </trkpt>
      <trkpt lat="47.39638" lon="0.4795">
        <ele>103.4</ele>
        <time>2023-07-18T09:18:56Z</time>
      </trkpt>
      <trkpt lat="47.39636" lon="0.47957">
        <ele>103.4</ele>
        <time>2023-07-18T09:18:57Z</time>
      </trkpt>
      <trkpt lat="47.39632" lon="0.47965">
        <ele>103.6</ele>
        <time>2023-07-18T09:18:58Z</time>
      </trkpt>
      <trkpt lat="47.3963" lon="0.47973">
        <ele>103.6</ele>
        <time>2023-07-18T09:18:59Z</time>
      </trkpt>
      <trkpt lat="47.39626" lon="0.4798">
        <ele>103.8</ele>
        <time>2023-07-18T09:19:00Z</time>
      </trkpt>
      <trkpt lat="47.39625" lon="0.47984">
        <ele>103.8</ele>
        <time>2023-07-18T09:19:01Z</time>
      </trkpt>
      <trkpt lat="47.39622" lon="0.4799">
        <ele>104</ele>
        <time>2023-07-18T09:19:02Z</time>
      </trkpt>
      <trkpt lat="47.39617" lon="0.48004">
        <ele>104</ele>
        <time>2023-07-18T09:19:03Z</time>
      </trkpt>
      <trkpt lat="47.39614" lon="0.48011">
        <ele>104.2</ele>
        <time>2023-07-18T09:19:04Z</time>
      </trkpt>
      <trkpt lat="47.39612" lon="0.48018">
        <ele>104.2</ele>
        <time>2023-07-18T09:19:05Z</time>
      </trkpt>
      <trkpt lat="47.3961" lon="0.48025">
        <ele>104.2</ele>
        <time>2023-07-18T09:19:06Z</time>
      </trkpt>
      <trkpt lat="47.39607" lon="0.48031">
        <ele>104.2</ele>
        <time>2023-07-18T09:19:07Z</time>
      </trkpt>
      <trkpt lat="47.39604" lon="0.48038">
        <ele>104.2</ele>
        <time>2023-07-18T09:19:08Z</time>
      </trkpt>
      <trkpt lat="47.39601" lon="0.48046">
        <ele>104.2</ele>
        <time>2023-07-18T09:19:09Z</time>
      </trkpt>
      <trkpt lat="47.39597" lon="0.48054">
        <ele>104</ele>
        <time>2023-07-18T09:19:10Z</time>
      </trkpt>
      <trkpt lat="47.39594" lon="0.48063">
        <ele>103.8</ele>
        <time>2023-07-18T09:19:11Z</time>
      </trkpt>
      <trkpt lat="47.39591" lon="0.48071">
        <ele>103.8</ele>
        <time>2023-07-18T09:19:12Z</time>
      </trkpt>
      <trkpt lat="47.39588" lon="0.48079">
        <ele>103.6</ele>
        <time>2023-07-18T09:19:13Z</time>
      </trkpt>
      <trkpt lat="47.39584" lon="0.48089">
        <ele>103.8</ele>
        <time>2023-07-18T09:19:14Z</time>
      </trkpt>
      <trkpt lat="47.39582" lon="0.48097">
        <ele>103.6</ele>
        <time>2023-07-18T09:19:15Z</time>
      </trkpt>
      <trkpt lat="47.39578" lon="0.48105">
        <ele>103.6</ele>
        <time>2023-07-18T09:19:16Z</time>
      </trkpt>
      <trkpt lat="47.39574" lon="0.48114">
        <ele>103.6</ele>
        <time>2023-07-18T09:19:17Z</time>
      </trkpt>
      <trkpt lat="47.39571" lon="0.48123">
        <ele>103.2</ele>
        <time>2023-07-18T09:19:18Z</time>
      </trkpt>
      <trkpt lat="47.39568" lon="0.48132">
        <ele>103</ele>
        <time>2023-07-18T09:19:19Z</time>
      </trkpt>
      <trkpt lat="47.39565" lon="0.48141">
        <ele>103</ele>
        <time>2023-07-18T09:19:20Z</time>
      </trkpt>
      <trkpt lat="47.39561" lon="0.4815">
        <ele>102.6</ele>
        <time>2023-07-18T09:19:21Z</time>
      </trkpt>
      <trkpt lat="47.39558" lon="0.48159">
        <ele>102.8</ele>
        <time>2023-07-18T09:19:22Z</time>
      </trkpt>
      <trkpt lat="47.39554" lon="0.48169">
        <ele>103</ele>
        <time>2023-07-18T09:19:23Z</time>
      </trkpt>
      <trkpt lat="47.39551" lon="0.48178">
        <ele>103</ele>
        <time>2023-07-18T09:19:24Z</time>
      </trkpt>
      <trkpt lat="47.39547" lon="0.48188">
        <ele>102.8</ele>
        <time>2023-07-18T09:19:25Z</time>
      </trkpt>
      <trkpt lat="47.39543" lon="0.48197">
        <ele>102.8</ele>
        <time>2023-07-18T09:19:26Z</time>
      </trkpt>
      <trkpt lat="47.3954" lon="0.48206">
        <ele>102.6</ele>
        <time>2023-07-18T09:19:27Z</time>
      </trkpt>
      <trkpt lat="47.39537" lon="0.48216">
        <ele>102.6</ele>
        <time>2023-07-18T09:19:28Z</time>
      </trkpt>
      <trkpt lat="47.39534" lon="0.48226">
        <ele>102.4</ele>
        <time>2023-07-18T09:19:29Z</time>
      </trkpt>
      <trkpt lat="47.3953" lon="0.48235">
        <ele>102.2</ele>
        <time>2023-07-18T09:19:30Z</time>
      </trkpt>
      <trkpt lat="47.39528" lon="0.48245">
        <ele>102</ele>
        <time>2023-07-18T09:19:31Z</time>
      </trkpt>
      <trkpt lat="47.39524" lon="0.48255">
        <ele>102</ele>
        <time>2023-07-18T09:19:32Z</time>
      </trkpt>
      <trkpt lat="47.39521" lon="0.48264">
        <ele>102</ele>
        <time>2023-07-18T09:19:33Z</time>
      </trkpt>
      <trkpt lat="47.39517" lon="0.48273">
        <ele>101.8</ele>
        <time>2023-07-18T09:19:34Z</time>
      </trkpt>
      <trkpt lat="47.39513" lon="0.48281">
        <ele>101.8</ele>
        <time>2023-07-18T09:19:35Z</time>
      </trkpt>
      <trkpt lat="47.3951" lon="0.48291">
        <ele>101.8</ele>
        <time>2023-07-18T09:19:36Z</time>
      </trkpt>
      <trkpt lat="47.39507" lon="0.48301">
        <ele>101.6</ele>
        <time>2023-07-18T09:19:37Z</time>
      </trkpt>
      <trkpt lat="47.39503" lon="0.4831">
        <ele>101.4</ele>
        <time>2023-07-18T09:19:38Z</time>
      </trkpt>
      <trkpt lat="47.395" lon="0.48319">
        <ele>101.4</ele>
        <time>2023-07-18T09:19:39Z</time>
      </trkpt>
      <trkpt lat="47.39497" lon="0.48328">
        <ele>101.4</ele>
        <time>2023-07-18T09:19:40Z</time>
      </trkpt>
      <trkpt lat="47.39495" lon="0.48337">
        <ele>101.4</ele>
        <time>2023-07-18T09:19:41Z</time>
      </trkpt>
      <trkpt lat="47.39492" lon="0.48346">
        <ele>101.2</ele>
        <time>2023-07-18T09:19:42Z</time>
      </trkpt>
      <trkpt lat="47.39489" lon="0.48354">
        <ele>101.2</ele>
        <time>2023-07-18T09:19:43Z</time>
      </trkpt>
      <trkpt lat="47.39485" lon="0.48362">
        <ele>101.2</ele>
        <time>2023-07-18T09:19:44Z</time>
      </trkpt>
      <trkpt lat="47.39481" lon="0.4837">
        <ele>101.2</ele>
        <time>2023-07-18T09:19:45Z</time>
      </trkpt>
      <trkpt lat="47.39478" lon="0.48378">
        <ele>101.2</ele>
        <time>2023-07-18T09:19:46Z</time>
      </trkpt>
      <trkpt lat="47.39475" lon="0.48387">
        <ele>101.2</ele>
        <time>2023-07-18T09:19:47Z</time>
      </trkpt>
      <trkpt lat="47.39472" lon="0.48396">
        <ele>101.2</ele>
        <time>2023-07-18T09:19:48Z</time>
      </trkpt>
      <trkpt lat="47.3947" lon="0.48404">
        <ele>101.2</ele>
        <time>2023-07-18T09:19:49Z</time>
      </trkpt>
      <trkpt lat="47.39467" lon="0.48413">
        <ele>101.2</ele>
        <time>2023-07-18T09:19:50Z</time>
      </trkpt>
      <trkpt lat="47.39464" lon="0.48422">
        <ele>101.2</ele>
        <time>2023-07-18T09:19:51Z</time>
      </trkpt>
      <trkpt lat="47.39461" lon="0.48431">
        <ele>101.4</ele>
        <time>2023-07-18T09:19:52Z</time>
      </trkpt>
      <trkpt lat="47.39457" lon="0.48439">
        <ele>101.2</ele>
        <time>2023-07-18T09:19:53Z</time>
      </trkpt>
      <trkpt lat="47.39454" lon="0.48448">
        <ele>101.4</ele>
        <time>2023-07-18T09:19:54Z</time>
      </trkpt>
      <trkpt lat="47.3945" lon="0.48456">
        <ele>101.4</ele>
        <time>2023-07-18T09:19:55Z</time>
      </trkpt>
      <trkpt lat="47.39447" lon="0.48465">
        <ele>101.4</ele>
        <time>2023-07-18T09:19:56Z</time>
      </trkpt>
      <trkpt lat="47.39444" lon="0.48474">
        <ele>101.4</ele>
        <time>2023-07-18T09:19:57Z</time>
      </trkpt>
      <trkpt lat="47.3944" lon="0.48483">
        <ele>101.4</ele>
        <time>2023-07-18T09:19:58Z</time>
      </trkpt>
      <trkpt lat="47.39437" lon="0.48492">
        <ele>101.4</ele>
        <time>2023-07-18T09:19:59Z</time>
      </trkpt>
      <trkpt lat="47.39434" lon="0.48501">
        <ele>101.6</ele>
        <time>2023-07-18T09:20:00Z</time>
      </trkpt>
      <trkpt lat="47.39431" lon="0.4851">
        <ele>101.6</ele>
        <time>2023-07-18T09:20:01Z</time>
      </trkpt>
      <trkpt lat="47.39427" lon="0.48519">
        <ele>101.8</ele>
        <time>2023-07-18T09:20:02Z</time>
      </trkpt>
      <trkpt lat="47.39423" lon="0.48527">
        <ele>101.8</ele>
        <time>2023-07-18T09:20:03Z</time>
      </trkpt>
      <trkpt lat="47.3942" lon="0.48536">
        <ele>101.8</ele>
        <time>2023-07-18T09:20:04Z</time>
      </trkpt>
      <trkpt lat="47.39417" lon="0.48544">
        <ele>102</ele>
        <time>2023-07-18T09:20:05Z</time>
      </trkpt>
      <trkpt lat="47.39413" lon="0.48552">
        <ele>102.2</ele>
        <time>2023-07-18T09:20:06Z</time>
      </trkpt>
      <trkpt lat="47.3941" lon="0.48561">
        <ele>102.4</ele>
        <time>2023-07-18T09:20:07Z</time>
      </trkpt>
      <trkpt lat="47.39406" lon="0.48569">
        <ele>102.4</ele>
        <time>2023-07-18T09:20:08Z</time>
      </trkpt>
      <trkpt lat="47.39403" lon="0.48578">
        <ele>102.4</ele>
        <time>2023-07-18T09:20:09Z</time>
      </trkpt>
      <trkpt lat="47.394" lon="0.48586">
        <ele>102.4</ele>
        <time>2023-07-18T09:20:10Z</time>
      </trkpt>
      <trkpt lat="47.39398" lon="0.48595">
        <ele>102.6</ele>
        <time>2023-07-18T09:20:11Z</time>
      </trkpt>
      <trkpt lat="47.39395" lon="0.48602">
        <ele>102.6</ele>
        <time>2023-07-18T09:20:12Z</time>
      </trkpt>
      <trkpt lat="47.39391" lon="0.4861">
        <ele>102.6</ele>
        <time>2023-07-18T09:20:13Z</time>
      </trkpt>
      <trkpt lat="47.39388" lon="0.48618">
        <ele>102.6</ele>
        <time>2023-07-18T09:20:14Z</time>
      </trkpt>
      <trkpt lat="47.39384" lon="0.48626">
        <ele>102.8</ele>
        <time>2023-07-18T09:20:15Z</time>
      </trkpt>
      <trkpt lat="47.39381" lon="0.48634">
        <ele>102.8</ele>
        <time>2023-07-18T09:20:16Z</time>
      </trkpt>
      <trkpt lat="47.39378" lon="0.48642">
        <ele>102.8</ele>
        <time>2023-07-18T09:20:17Z</time>
      </trkpt>
      <trkpt lat="47.39375" lon="0.48651">
        <ele>103</ele>
        <time>2023-07-18T09:20:18Z</time>
      </trkpt>
      <trkpt lat="47.39371" lon="0.48659">
        <ele>103</ele>
        <time>2023-07-18T09:20:19Z</time>
      </trkpt>
      <trkpt lat="47.39368" lon="0.48668">
        <ele>103.2</ele>
        <time>2023-07-18T09:20:20Z</time>
      </trkpt>
      <trkpt lat="47.39365" lon="0.48676">
        <ele>103.4</ele>
        <time>2023-07-18T09:20:21Z</time>
      </trkpt>
      <trkpt lat="47.39362" lon="0.48686">
        <ele>103.4</ele>
        <time>2023-07-18T09:20:22Z</time>
      </trkpt>
      <trkpt lat="47.3936" lon="0.48694">
        <ele>103.6</ele>
        <time>2023-07-18T09:20:23Z</time>
      </trkpt>
      <trkpt lat="47.39356" lon="0.48702">
        <ele>103.6</ele>
        <time>2023-07-18T09:20:24Z</time>
      </trkpt>
      <trkpt lat="47.39352" lon="0.4871">
        <ele>103.6</ele>
        <time>2023-07-18T09:20:25Z</time>
      </trkpt>
      <trkpt lat="47.39349" lon="0.48718">
        <ele>103.6</ele>
        <time>2023-07-18T09:20:26Z</time>
      </trkpt>
      <trkpt lat="47.39346" lon="0.48726">
        <ele>103.6</ele>
        <time>2023-07-18T09:20:27Z</time>
      </trkpt>
      <trkpt lat="47.39342" lon="0.48734">
        <ele>103.6</ele>
        <time>2023-07-18T09:20:28Z</time>
      </trkpt>
      <trkpt lat="47.3934" lon="0.48742">
        <ele>103.6</ele>
        <time>2023-07-18T09:20:29Z</time>
      </trkpt>
      <trkpt lat="47.39337" lon="0.4875">
        <ele>103.6</ele>
        <time>2023-07-18T09:20:30Z</time>
      </trkpt>
      <trkpt lat="47.39333" lon="0.48759">
        <ele>103.8</ele>
        <time>2023-07-18T09:20:31Z</time>
      </trkpt>
      <trkpt lat="47.3933" lon="0.48767">
        <ele>103.8</ele>
        <time>2023-07-18T09:20:32Z</time>
      </trkpt>
      <trkpt lat="47.39327" lon="0.48775">
        <ele>103.8</ele>
        <time>2023-07-18T09:20:33Z</time>
      </trkpt>
      <trkpt lat="47.39323" lon="0.48783">
        <ele>103.8</ele>
        <time>2023-07-18T09:20:34Z</time>
      </trkpt>
      <trkpt lat="47.3932" lon="0.48791">
        <ele>104</ele>
        <time>2023-07-18T09:20:35Z</time>
      </trkpt>
      <trkpt lat="47.39317" lon="0.488">
        <ele>104.2</ele>
        <time>2023-07-18T09:20:36Z</time>
      </trkpt>
      <trkpt lat="47.39313" lon="0.48808">
        <ele>104.2</ele>
        <time>2023-07-18T09:20:37Z</time>
      </trkpt>
      <trkpt lat="47.3931" lon="0.48817">
        <ele>104.2</ele>
        <time>2023-07-18T09:20:38Z</time>
      </trkpt>
      <trkpt lat="47.39307" lon="0.48825">
        <ele>104.2</ele>
        <time>2023-07-18T09:20:39Z</time>
      </trkpt>
      <trkpt lat="47.39304" lon="0.48834">
        <ele>104.4</ele>
        <time>2023-07-18T09:20:40Z</time>
      </trkpt>
      <trkpt lat="47.39301" lon="0.48842">
        <ele>104.6</ele>
        <time>2023-07-18T09:20:41Z</time>
      </trkpt>
      <trkpt lat="47.39298" lon="0.48851">
        <ele>104.8</ele>
        <time>2023-07-18T09:20:42Z</time>
      </trkpt>
      <trkpt lat="47.39295" lon="0.48859">
        <ele>104.8</ele>
        <time>2023-07-18T09:20:43Z</time>
      </trkpt>
      <trkpt lat="47.39293" lon="0.48868">
        <ele>104.8</ele>
        <time>2023-07-18T09:20:44Z</time>
      </trkpt>
      <trkpt lat="47.3929" lon="0.48876">
        <ele>104.8</ele>
        <time>2023-07-18T09:20:45Z</time>
      </trkpt>
      <trkpt lat="47.39287" lon="0.48885">
        <ele>104.8</ele>
        <time>2023-07-18T09:20:46Z</time>
      </trkpt>
      <trkpt lat="47.39285" lon="0.48894">
        <ele>104.8</ele>
        <time>2023-07-18T09:20:47Z</time>
      </trkpt>
      <trkpt lat="47.39281" lon="0.48902">
        <ele>105</ele>
        <time>2023-07-18T09:20:48Z</time>
      </trkpt>
      <trkpt lat="47.39278" lon="0.48911">
        <ele>105</ele>
        <time>2023-07-18T09:20:49Z</time>
      </trkpt>
      <trkpt lat="47.39275" lon="0.48919">
        <ele>105.2</ele>
        <time>2023-07-18T09:20:50Z</time>
      </trkpt>
      <trkpt lat="47.39272" lon="0.48927">
        <ele>105.2</ele>
        <time>2023-07-18T09:20:51Z</time>
      </trkpt>
      <trkpt lat="47.39268" lon="0.48935">
        <ele>105.2</ele>
        <time>2023-07-18T09:20:52Z</time>
      </trkpt>
      <trkpt lat="47.39265" lon="0.48944">
        <ele>105.4</ele>
        <time>2023-07-18T09:20:53Z</time>
      </trkpt>
      <trkpt lat="47.39261" lon="0.48952">
        <ele>105.4</ele>
        <time>2023-07-18T09:20:54Z</time>
      </trkpt>
      <trkpt lat="47.39258" lon="0.4896">
        <ele>105.4</ele>
        <time>2023-07-18T09:20:55Z</time>
      </trkpt>
      <trkpt lat="47.39255" lon="0.48968">
        <ele>105.6</ele>
        <time>2023-07-18T09:20:56Z</time>
      </trkpt>
      <trkpt lat="47.39251" lon="0.48976">
        <ele>105.6</ele>
        <time>2023-07-18T09:20:57Z</time>
      </trkpt>
      <trkpt lat="47.39248" lon="0.48985">
        <ele>105.6</ele>
        <time>2023-07-18T09:20:58Z</time>
      </trkpt>
      <trkpt lat="47.39245" lon="0.48993">
        <ele>105.6</ele>
        <time>2023-07-18T09:20:59Z</time>
      </trkpt>
      <trkpt lat="47.39242" lon="0.49002">
        <ele>105.6</ele>
        <time>2023-07-18T09:21:00Z</time>
      </trkpt>
      <trkpt lat="47.39239" lon="0.4901">
        <ele>105.6</ele>
        <time>2023-07-18T09:21:01Z</time>
      </trkpt>
      <trkpt lat="47.39236" lon="0.49019">
        <ele>105.8</ele>
        <time>2023-07-18T09:21:02Z</time>
      </trkpt>
      <trkpt lat="47.39233" lon="0.49027">
        <ele>105.8</ele>
        <time>2023-07-18T09:21:03Z</time>
      </trkpt>
      <trkpt lat="47.3923" lon="0.49036">
        <ele>105.8</ele>
        <time>2023-07-18T09:21:04Z</time>
      </trkpt>
      <trkpt lat="47.39227" lon="0.49044">
        <ele>105.8</ele>
        <time>2023-07-18T09:21:05Z</time>
      </trkpt>
      <trkpt lat="47.39224" lon="0.49053">
        <ele>106</ele>
        <time>2023-07-18T09:21:06Z</time>
      </trkpt>
      <trkpt lat="47.3922" lon="0.49061">
        <ele>106</ele>
        <time>2023-07-18T09:21:07Z</time>
      </trkpt>
      <trkpt lat="47.39217" lon="0.4907">
        <ele>106</ele>
        <time>2023-07-18T09:21:08Z</time>
      </trkpt>
      <trkpt lat="47.39214" lon="0.49078">
        <ele>106</ele>
        <time>2023-07-18T09:21:09Z</time>
      </trkpt>
      <trkpt lat="47.3921" lon="0.49087">
        <ele>106.2</ele>
        <time>2023-07-18T09:21:10Z</time>
      </trkpt>
      <trkpt lat="47.39206" lon="0.49095">
        <ele>106.2</ele>
        <time>2023-07-18T09:21:11Z</time>
      </trkpt>
      <trkpt lat="47.39204" lon="0.49103">
        <ele>106.2</ele>
        <time>2023-07-18T09:21:12Z</time>
      </trkpt>
      <trkpt lat="47.39201" lon="0.49112">
        <ele>106.2</ele>
        <time>2023-07-18T09:21:13Z</time>
      </trkpt>
      <trkpt lat="47.39198" lon="0.4912">
        <ele>106.2</ele>
        <time>2023-07-18T09:21:14Z</time>
      </trkpt>
      <trkpt lat="47.39196" lon="0.49128">
        <ele>106.2</ele>
        <time>2023-07-18T09:21:15Z</time>
      </trkpt>
      <trkpt lat="47.39193" lon="0.49136">
        <ele>106.2</ele>
        <time>2023-07-18T09:21:16Z</time>
      </trkpt>
      <trkpt lat="47.3919" lon="0.49144">
        <ele>106.2</ele>
        <time>2023-07-18T09:21:17Z</time>
      </trkpt>
      <trkpt lat="47.39187" lon="0.49153">
        <ele>106.2</ele>
        <time>2023-07-18T09:21:18Z</time>
      </trkpt>
      <trkpt lat="47.39183" lon="0.49161">
        <ele>106.2</ele>
        <time>2023-07-18T09:21:19Z</time>
      </trkpt>
      <trkpt lat="47.39179" lon="0.4917">
        <ele>106.2</ele>
        <time>2023-07-18T09:21:20Z</time>
      </trkpt>
      <trkpt lat="47.39176" lon="0.49179">
        <ele>106.2</ele>
        <time>2023-07-18T09:21:21Z</time>
      </trkpt>
      <trkpt lat="47.39172" lon="0.49188">
        <ele>106</ele>
        <time>2023-07-18T09:21:22Z</time>
      </trkpt>
      <trkpt lat="47.3917" lon="0.49197">
        <ele>106</ele>
        <time>2023-07-18T09:21:23Z</time>
      </trkpt>
      <trkpt lat="47.39166" lon="0.49206">
        <ele>106</ele>
        <time>2023-07-18T09:21:24Z</time>
      </trkpt>
      <trkpt lat="47.39162" lon="0.49215">
        <ele>106</ele>
        <time>2023-07-18T09:21:25Z</time>
      </trkpt>
      <trkpt lat="47.39159" lon="0.49224">
        <ele>106</ele>
        <time>2023-07-18T09:21:26Z</time>
      </trkpt>
      <trkpt lat="47.39155" lon="0.49233">
        <ele>106</ele>
        <time>2023-07-18T09:21:27Z</time>
      </trkpt>
      <trkpt lat="47.39151" lon="0.49242">
        <ele>106</ele>
        <time>2023-07-18T09:21:28Z</time>
      </trkpt>
      <trkpt lat="47.39148" lon="0.49251">
        <ele>106</ele>
        <time>2023-07-18T09:21:29Z</time>
      </trkpt>
      <trkpt lat="47.39144" lon="0.4926">
        <ele>106</ele>
        <time>2023-07-18T09:21:30Z</time>
      </trkpt>
      <trkpt lat="47.39141" lon="0.49269">
        <ele>106</ele>
        <time>2023-07-18T09:21:31Z</time>
      </trkpt>
      <trkpt lat="47.39138" lon="0.49278">
        <ele>105.8</ele>
        <time>2023-07-18T09:21:32Z</time>
      </trkpt>
      <trkpt lat="47.39135" lon="0.49288">
        <ele>105.8</ele>
        <time>2023-07-18T09:21:33Z</time>
      </trkpt>
      <trkpt lat="47.39131" lon="0.49296">
        <ele>105.8</ele>
        <time>2023-07-18T09:21:34Z</time>
      </trkpt>
      <trkpt lat="47.39127" lon="0.49306">
        <ele>105.8</ele>
        <time>2023-07-18T09:21:35Z</time>
      </trkpt>
      <trkpt lat="47.39124" lon="0.49316">
        <ele>105.8</ele>
        <time>2023-07-18T09:21:36Z</time>
      </trkpt>
      <trkpt lat="47.3912" lon="0.49326">
        <ele>105.8</ele>
        <time>2023-07-18T09:21:37Z</time>
      </trkpt>
      <trkpt lat="47.39118" lon="0.49335">
        <ele>105.6</ele>
        <time>2023-07-18T09:21:38Z</time>
      </trkpt>
      <trkpt lat="47.39115" lon="0.49344">
        <ele>105.4</ele>
        <time>2023-07-18T09:21:39Z</time>
      </trkpt>
      <trkpt lat="47.39111" lon="0.49353">
        <ele>105</ele>
        <time>2023-07-18T09:21:40Z</time>
      </trkpt>
      <trkpt lat="47.39108" lon="0.49362">
        <ele>105</ele>
        <time>2023-07-18T09:21:41Z</time>
      </trkpt>
      <trkpt lat="47.39103" lon="0.49372">
        <ele>104.6</ele>
        <time>2023-07-18T09:21:42Z</time>
      </trkpt>
      <trkpt lat="47.391" lon="0.49382">
        <ele>104.4</ele>
        <time>2023-07-18T09:21:43Z</time>
      </trkpt>
      <trkpt lat="47.39097" lon="0.49393">
        <ele>104.2</ele>
        <time>2023-07-18T09:21:44Z</time>
      </trkpt>
      <trkpt lat="47.39093" lon="0.49403">
        <ele>103.8</ele>
        <time>2023-07-18T09:21:45Z</time>
      </trkpt>
      <trkpt lat="47.39089" lon="0.49413">
        <ele>103.6</ele>
        <time>2023-07-18T09:21:46Z</time>
      </trkpt>
      <trkpt lat="47.39085" lon="0.49424">
        <ele>103.4</ele>
        <time>2023-07-18T09:21:47Z</time>
      </trkpt>
      <trkpt lat="47.39082" lon="0.49434">
        <ele>103.4</ele>
        <time>2023-07-18T09:21:48Z</time>
      </trkpt>
      <trkpt lat="47.39078" lon="0.49444">
        <ele>103.2</ele>
        <time>2023-07-18T09:21:49Z</time>
      </trkpt>
      <trkpt lat="47.39075" lon="0.49454">
        <ele>103.2</ele>
        <time>2023-07-18T09:21:50Z</time>
      </trkpt>
      <trkpt lat="47.39071" lon="0.49464">
        <ele>103.2</ele>
        <time>2023-07-18T09:21:51Z</time>
      </trkpt>
      <trkpt lat="47.39067" lon="0.49474">
        <ele>103</ele>
        <time>2023-07-18T09:21:52Z</time>
      </trkpt>
      <trkpt lat="47.39064" lon="0.49485">
        <ele>103</ele>
        <time>2023-07-18T09:21:53Z</time>
      </trkpt>
      <trkpt lat="47.3906" lon="0.49495">
        <ele>103</ele>
        <time>2023-07-18T09:21:54Z</time>
      </trkpt>
      <trkpt lat="47.39056" lon="0.49505">
        <ele>102.8</ele>
        <time>2023-07-18T09:21:55Z</time>
      </trkpt>
      <trkpt lat="47.39052" lon="0.49515">
        <ele>102.8</ele>
        <time>2023-07-18T09:21:56Z</time>
      </trkpt>
      <trkpt lat="47.39048" lon="0.49524">
        <ele>103</ele>
        <time>2023-07-18T09:21:57Z</time>
      </trkpt>
      <trkpt lat="47.39045" lon="0.49534">
        <ele>103</ele>
        <time>2023-07-18T09:21:58Z</time>
      </trkpt>
      <trkpt lat="47.39041" lon="0.49543">
        <ele>102.8</ele>
        <time>2023-07-18T09:21:59Z</time>
      </trkpt>
      <trkpt lat="47.39038" lon="0.49552">
        <ele>102.8</ele>
        <time>2023-07-18T09:22:00Z</time>
      </trkpt>
      <trkpt lat="47.39035" lon="0.49562">
        <ele>102.8</ele>
        <time>2023-07-18T09:22:01Z</time>
      </trkpt>
      <trkpt lat="47.39031" lon="0.49572">
        <ele>102.8</ele>
        <time>2023-07-18T09:22:02Z</time>
      </trkpt>
      <trkpt lat="47.39028" lon="0.49581">
        <ele>102.8</ele>
        <time>2023-07-18T09:22:03Z</time>
      </trkpt>
      <trkpt lat="47.39025" lon="0.4959">
        <ele>102.8</ele>
        <time>2023-07-18T09:22:04Z</time>
      </trkpt>
      <trkpt lat="47.39021" lon="0.49599">
        <ele>102.8</ele>
        <time>2023-07-18T09:22:05Z</time>
      </trkpt>
      <trkpt lat="47.39017" lon="0.49607">
        <ele>102.8</ele>
        <time>2023-07-18T09:22:06Z</time>
      </trkpt>
      <trkpt lat="47.39013" lon="0.49616">
        <ele>102.8</ele>
        <time>2023-07-18T09:22:07Z</time>
      </trkpt>
      <trkpt lat="47.3901" lon="0.49625">
        <ele>103</ele>
        <time>2023-07-18T09:22:08Z</time>
      </trkpt>
      <trkpt lat="47.39006" lon="0.49633">
        <ele>102.8</ele>
        <time>2023-07-18T09:22:09Z</time>
      </trkpt>
      <trkpt lat="47.39002" lon="0.49642">
        <ele>103</ele>
        <time>2023-07-18T09:22:10Z</time>
      </trkpt>
      <trkpt lat="47.38999" lon="0.49651">
        <ele>103</ele>
        <time>2023-07-18T09:22:11Z</time>
      </trkpt>
      <trkpt lat="47.38997" lon="0.4966">
        <ele>103.2</ele>
        <time>2023-07-18T09:22:12Z</time>
      </trkpt>
      <trkpt lat="47.38993" lon="0.49668">
        <ele>103.2</ele>
        <time>2023-07-18T09:22:13Z</time>
      </trkpt>
      <trkpt lat="47.38989" lon="0.49677">
        <ele>103.4</ele>
        <time>2023-07-18T09:22:14Z</time>
      </trkpt>
      <trkpt lat="47.38986" lon="0.49685">
        <ele>103.6</ele>
        <time>2023-07-18T09:22:15Z</time>
      </trkpt>
      <trkpt lat="47.38983" lon="0.49693">
        <ele>103.8</ele>
        <time>2023-07-18T09:22:16Z</time>
      </trkpt>
      <trkpt lat="47.38979" lon="0.49702">
        <ele>103.8</ele>
        <time>2023-07-18T09:22:17Z</time>
      </trkpt>
      <trkpt lat="47.38976" lon="0.4971">
        <ele>104</ele>
        <time>2023-07-18T09:22:18Z</time>
      </trkpt>
      <trkpt lat="47.38973" lon="0.49718">
        <ele>104</ele>
        <time>2023-07-18T09:22:19Z</time>
      </trkpt>
      <trkpt lat="47.3897" lon="0.49726">
        <ele>104.2</ele>
        <time>2023-07-18T09:22:20Z</time>
      </trkpt>
      <trkpt lat="47.38967" lon="0.49735">
        <ele>104.2</ele>
        <time>2023-07-18T09:22:21Z</time>
      </trkpt>
      <trkpt lat="47.38963" lon="0.49743">
        <ele>104.4</ele>
        <time>2023-07-18T09:22:22Z</time>
      </trkpt>
      <trkpt lat="47.38959" lon="0.49753">
        <ele>104.4</ele>
        <time>2023-07-18T09:22:23Z</time>
      </trkpt>
      <trkpt lat="47.38956" lon="0.49762">
        <ele>104.4</ele>
        <time>2023-07-18T09:22:24Z</time>
      </trkpt>
      <trkpt lat="47.38954" lon="0.4977">
        <ele>104.6</ele>
        <time>2023-07-18T09:22:25Z</time>
      </trkpt>
      <trkpt lat="47.38952" lon="0.49778">
        <ele>104.4</ele>
        <time>2023-07-18T09:22:26Z</time>
      </trkpt>
      <trkpt lat="47.38948" lon="0.49786">
        <ele>104.6</ele>
        <time>2023-07-18T09:22:27Z</time>
      </trkpt>
      <trkpt lat="47.38946" lon="0.49794">
        <ele>104.6</ele>
        <time>2023-07-18T09:22:28Z</time>
      </trkpt>
      <trkpt lat="47.38942" lon="0.49803">
        <ele>104.8</ele>
        <time>2023-07-18T09:22:29Z</time>
      </trkpt>
      <trkpt lat="47.38939" lon="0.49811">
        <ele>104.8</ele>
        <time>2023-07-18T09:22:30Z</time>
      </trkpt>
      <trkpt lat="47.38935" lon="0.4982">
        <ele>105</ele>
        <time>2023-07-18T09:22:31Z</time>
      </trkpt>
      <trkpt lat="47.38933" lon="0.49829">
        <ele>105</ele>
        <time>2023-07-18T09:22:32Z</time>
      </trkpt>
      <trkpt lat="47.3893" lon="0.49838">
        <ele>105</ele>
        <time>2023-07-18T09:22:33Z</time>
      </trkpt>
      <trkpt lat="47.38926" lon="0.49846">
        <ele>105</ele>
        <time>2023-07-18T09:22:34Z</time>
      </trkpt>
      <trkpt lat="47.38923" lon="0.49855">
        <ele>104.8</ele>
        <time>2023-07-18T09:22:35Z</time>
      </trkpt>
      <trkpt lat="47.38919" lon="0.49863">
        <ele>104.8</ele>
        <time>2023-07-18T09:22:36Z</time>
      </trkpt>
      <trkpt lat="47.38916" lon="0.49872">
        <ele>104.8</ele>
        <time>2023-07-18T09:22:37Z</time>
      </trkpt>
      <trkpt lat="47.38912" lon="0.49881">
        <ele>104.8</ele>
        <time>2023-07-18T09:22:38Z</time>
      </trkpt>
      <trkpt lat="47.38909" lon="0.4989">
        <ele>104.8</ele>
        <time>2023-07-18T09:22:39Z</time>
      </trkpt>
      <trkpt lat="47.38905" lon="0.49899">
        <ele>105</ele>
        <time>2023-07-18T09:22:40Z</time>
      </trkpt>
      <trkpt lat="47.38902" lon="0.49908">
        <ele>105</ele>
        <time>2023-07-18T09:22:41Z</time>
      </trkpt>
      <trkpt lat="47.38898" lon="0.49917">
        <ele>104.8</ele>
        <time>2023-07-18T09:22:42Z</time>
      </trkpt>
      <trkpt lat="47.38895" lon="0.49926">
        <ele>104.8</ele>
        <time>2023-07-18T09:22:43Z</time>
      </trkpt>
      <trkpt lat="47.38891" lon="0.49935">
        <ele>104.6</ele>
        <time>2023-07-18T09:22:44Z</time>
      </trkpt>
      <trkpt lat="47.38887" lon="0.49944">
        <ele>104.6</ele>
        <time>2023-07-18T09:22:45Z</time>
      </trkpt>
      <trkpt lat="47.38884" lon="0.49954">
        <ele>104.6</ele>
        <time>2023-07-18T09:22:46Z</time>
      </trkpt>
      <trkpt lat="47.38881" lon="0.49964">
        <ele>104.6</ele>
        <time>2023-07-18T09:22:47Z</time>
      </trkpt>
      <trkpt lat="47.38876" lon="0.49973">
        <ele>104.4</ele>
        <time>2023-07-18T09:22:48Z</time>
      </trkpt>
      <trkpt lat="47.38873" lon="0.49983">
        <ele>104.4</ele>
        <time>2023-07-18T09:22:49Z</time>
      </trkpt>
      <trkpt lat="47.38868" lon="0.49993">
        <ele>104.4</ele>
        <time>2023-07-18T09:22:50Z</time>
      </trkpt>
      <trkpt lat="47.38865" lon="0.50003">
        <ele>104.2</ele>
        <time>2023-07-18T09:22:51Z</time>
      </trkpt>
      <trkpt lat="47.38861" lon="0.50013">
        <ele>104.2</ele>
        <time>2023-07-18T09:22:52Z</time>
      </trkpt>
      <trkpt lat="47.38858" lon="0.50022">
        <ele>104.2</ele>
        <time>2023-07-18T09:22:53Z</time>
      </trkpt>
      <trkpt lat="47.38854" lon="0.50032">
        <ele>104</ele>
        <time>2023-07-18T09:22:54Z</time>
      </trkpt>
      <trkpt lat="47.38851" lon="0.50042">
        <ele>104</ele>
        <time>2023-07-18T09:22:55Z</time>
      </trkpt>
      <trkpt lat="47.38848" lon="0.50051">
        <ele>103.8</ele>
        <time>2023-07-18T09:22:56Z</time>
      </trkpt>
      <trkpt lat="47.38843" lon="0.50061">
        <ele>103.8</ele>
        <time>2023-07-18T09:22:57Z</time>
      </trkpt>
      <trkpt lat="47.38839" lon="0.50069">
        <ele>103.8</ele>
        <time>2023-07-18T09:22:58Z</time>
      </trkpt>
      <trkpt lat="47.38836" lon="0.50079">
        <ele>103.8</ele>
        <time>2023-07-18T09:22:59Z</time>
      </trkpt>
      <trkpt lat="47.38833" lon="0.50088">
        <ele>103.6</ele>
        <time>2023-07-18T09:23:00Z</time>
      </trkpt>
      <trkpt lat="47.3883" lon="0.50097">
        <ele>103.6</ele>
        <time>2023-07-18T09:23:01Z</time>
      </trkpt>
      <trkpt lat="47.38826" lon="0.50106">
        <ele>103.4</ele>
        <time>2023-07-18T09:23:02Z</time>
      </trkpt>
      <trkpt lat="47.38823" lon="0.50115">
        <ele>103.2</ele>
        <time>2023-07-18T09:23:03Z</time>
      </trkpt>
      <trkpt lat="47.3882" lon="0.50124">
        <ele>103</ele>
        <time>2023-07-18T09:23:04Z</time>
      </trkpt>
      <trkpt lat="47.38818" lon="0.50131">
        <ele>103</ele>
        <time>2023-07-18T09:23:05Z</time>
      </trkpt>
      <trkpt lat="47.38814" lon="0.5014">
        <ele>102.8</ele>
        <time>2023-07-18T09:23:06Z</time>
      </trkpt>
      <trkpt lat="47.3881" lon="0.50149">
        <ele>102.8</ele>
        <time>2023-07-18T09:23:07Z</time>
      </trkpt>
      <trkpt lat="47.38807" lon="0.50157">
        <ele>102.8</ele>
        <time>2023-07-18T09:23:08Z</time>
      </trkpt>
      <trkpt lat="47.38803" lon="0.50165">
        <ele>102.8</ele>
        <time>2023-07-18T09:23:09Z</time>
      </trkpt>
      <trkpt lat="47.388" lon="0.50174">
        <ele>102.8</ele>
        <time>2023-07-18T09:23:10Z</time>
      </trkpt>
      <trkpt lat="47.38797" lon="0.50183">
        <ele>102.8</ele>
        <time>2023-07-18T09:23:11Z</time>
      </trkpt>
      <trkpt lat="47.38794" lon="0.50191">
        <ele>103</ele>
        <time>2023-07-18T09:23:12Z</time>
      </trkpt>
      <trkpt lat="47.3879" lon="0.50199">
        <ele>103</ele>
        <time>2023-07-18T09:23:13Z</time>
      </trkpt>
      <trkpt lat="47.38786" lon="0.50207">
        <ele>103</ele>
        <time>2023-07-18T09:23:14Z</time>
      </trkpt>
      <trkpt lat="47.38783" lon="0.50215">
        <ele>103.2</ele>
        <time>2023-07-18T09:23:15Z</time>
      </trkpt>
      <trkpt lat="47.38779" lon="0.50223">
        <ele>103.2</ele>
        <time>2023-07-18T09:23:16Z</time>
      </trkpt>
      <trkpt lat="47.38776" lon="0.50231">
        <ele>103.4</ele>
        <time>2023-07-18T09:23:17Z</time>
      </trkpt>
      <trkpt lat="47.38772" lon="0.50239">
        <ele>103.2</ele>
        <time>2023-07-18T09:23:18Z</time>
      </trkpt>
      <trkpt lat="47.38769" lon="0.50246">
        <ele>103.4</ele>
        <time>2023-07-18T09:23:19Z</time>
      </trkpt>
      <trkpt lat="47.38765" lon="0.50254">
        <ele>103.4</ele>
        <time>2023-07-18T09:23:20Z</time>
      </trkpt>
      <trkpt lat="47.38762" lon="0.50262">
        <ele>103.6</ele>
        <time>2023-07-18T09:23:21Z</time>
      </trkpt>
      <trkpt lat="47.38758" lon="0.50271">
        <ele>103.6</ele>
        <time>2023-07-18T09:23:22Z</time>
      </trkpt>
      <trkpt lat="47.38755" lon="0.50278">
        <ele>103.6</ele>
        <time>2023-07-18T09:23:23Z</time>
      </trkpt>
      <trkpt lat="47.38751" lon="0.50286">
        <ele>103.6</ele>
        <time>2023-07-18T09:23:24Z</time>
      </trkpt>
      <trkpt lat="47.38748" lon="0.50294">
        <ele>103.6</ele>
        <time>2023-07-18T09:23:25Z</time>
      </trkpt>
      <trkpt lat="47.38745" lon="0.50302">
        <ele>103.6</ele>
        <time>2023-07-18T09:23:26Z</time>
      </trkpt>
      <trkpt lat="47.38742" lon="0.5031">
        <ele>103.6</ele>
        <time>2023-07-18T09:23:27Z</time>
      </trkpt>
      <trkpt lat="47.38738" lon="0.50318">
        <ele>103.6</ele>
        <time>2023-07-18T09:23:28Z</time>
      </trkpt>
      <trkpt lat="47.38734" lon="0.50326">
        <ele>103.6</ele>
        <time>2023-07-18T09:23:29Z</time>
      </trkpt>
      <trkpt lat="47.3873" lon="0.50334">
        <ele>103.8</ele>
        <time>2023-07-18T09:23:30Z</time>
      </trkpt>
      <trkpt lat="47.38726" lon="0.50343">
        <ele>103.8</ele>
        <time>2023-07-18T09:23:31Z</time>
      </trkpt>
      <trkpt lat="47.38722" lon="0.50351">
        <ele>103.8</ele>
        <time>2023-07-18T09:23:32Z</time>
      </trkpt>
      <trkpt lat="47.38719" lon="0.50359">
        <ele>103.8</ele>
        <time>2023-07-18T09:23:33Z</time>
      </trkpt>
      <trkpt lat="47.38715" lon="0.50367">
        <ele>103.8</ele>
        <time>2023-07-18T09:23:34Z</time>
      </trkpt>
      <trkpt lat="47.38712" lon="0.50375">
        <ele>103.8</ele>
        <time>2023-07-18T09:23:35Z</time>
      </trkpt>
      <trkpt lat="47.38709" lon="0.50384">
        <ele>103.6</ele>
        <time>2023-07-18T09:23:36Z</time>
      </trkpt>
      <trkpt lat="47.38706" lon="0.50393">
        <ele>103.6</ele>
        <time>2023-07-18T09:23:37Z</time>
      </trkpt>
      <trkpt lat="47.38703" lon="0.50402">
        <ele>103.4</ele>
        <time>2023-07-18T09:23:38Z</time>
      </trkpt>
      <trkpt lat="47.387" lon="0.50411">
        <ele>103.4</ele>
        <time>2023-07-18T09:23:39Z</time>
      </trkpt>
      <trkpt lat="47.38696" lon="0.5042">
        <ele>103.2</ele>
        <time>2023-07-18T09:23:40Z</time>
      </trkpt>
      <trkpt lat="47.38692" lon="0.50429">
        <ele>103.2</ele>
        <time>2023-07-18T09:23:41Z</time>
      </trkpt>
      <trkpt lat="47.38688" lon="0.50439">
        <ele>103.2</ele>
        <time>2023-07-18T09:23:42Z</time>
      </trkpt>
      <trkpt lat="47.38685" lon="0.50448">
        <ele>103</ele>
        <time>2023-07-18T09:23:43Z</time>
      </trkpt>
      <trkpt lat="47.38682" lon="0.50457">
        <ele>103</ele>
        <time>2023-07-18T09:23:44Z</time>
      </trkpt>
      <trkpt lat="47.38678" lon="0.50466">
        <ele>103</ele>
        <time>2023-07-18T09:23:45Z</time>
      </trkpt>
      <trkpt lat="47.38674" lon="0.50474">
        <ele>102.8</ele>
        <time>2023-07-18T09:23:46Z</time>
      </trkpt>
      <trkpt lat="47.38669" lon="0.50483">
        <ele>102.8</ele>
        <time>2023-07-18T09:23:47Z</time>
      </trkpt>
      <trkpt lat="47.38665" lon="0.50491">
        <ele>102.8</ele>
        <time>2023-07-18T09:23:48Z</time>
      </trkpt>
      <trkpt lat="47.38661" lon="0.50501">
        <ele>102.6</ele>
        <time>2023-07-18T09:23:49Z</time>
      </trkpt>
      <trkpt lat="47.38658" lon="0.50509">
        <ele>102.6</ele>
        <time>2023-07-18T09:23:50Z</time>
      </trkpt>
      <trkpt lat="47.38654" lon="0.50518">
        <ele>102.4</ele>
        <time>2023-07-18T09:23:51Z</time>
      </trkpt>
      <trkpt lat="47.3865" lon="0.50528">
        <ele>102.2</ele>
        <time>2023-07-18T09:23:52Z</time>
      </trkpt>
      <trkpt lat="47.38647" lon="0.50536">
        <ele>102.2</ele>
        <time>2023-07-18T09:23:53Z</time>
      </trkpt>
      <trkpt lat="47.38643" lon="0.50545">
        <ele>102.2</ele>
        <time>2023-07-18T09:23:54Z</time>
      </trkpt>
      <trkpt lat="47.38639" lon="0.50554">
        <ele>102.2</ele>
        <time>2023-07-18T09:23:55Z</time>
      </trkpt>
      <trkpt lat="47.38635" lon="0.50563">
        <ele>102.2</ele>
        <time>2023-07-18T09:23:56Z</time>
      </trkpt>
      <trkpt lat="47.38631" lon="0.50572">
        <ele>102</ele>
        <time>2023-07-18T09:23:57Z</time>
      </trkpt>
      <trkpt lat="47.38628" lon="0.50581">
        <ele>102</ele>
        <time>2023-07-18T09:23:58Z</time>
      </trkpt>
      <trkpt lat="47.38624" lon="0.5059">
        <ele>101.8</ele>
        <time>2023-07-18T09:23:59Z</time>
      </trkpt>
      <trkpt lat="47.3862" lon="0.50599">
        <ele>101.6</ele>
        <time>2023-07-18T09:24:00Z</time>
      </trkpt>
      <trkpt lat="47.38616" lon="0.50608">
        <ele>101.4</ele>
        <time>2023-07-18T09:24:01Z</time>
      </trkpt>
      <trkpt lat="47.38612" lon="0.50617">
        <ele>101.2</ele>
        <time>2023-07-18T09:24:02Z</time>
      </trkpt>
      <trkpt lat="47.38609" lon="0.50626">
        <ele>101</ele>
        <time>2023-07-18T09:24:03Z</time>
      </trkpt>
      <trkpt lat="47.38604" lon="0.50635">
        <ele>100.8</ele>
        <time>2023-07-18T09:24:04Z</time>
      </trkpt>
      <trkpt lat="47.386" lon="0.50645">
        <ele>100.8</ele>
        <time>2023-07-18T09:24:05Z</time>
      </trkpt>
      <trkpt lat="47.38596" lon="0.50655">
        <ele>100.6</ele>
        <time>2023-07-18T09:24:06Z</time>
      </trkpt>
      <trkpt lat="47.38593" lon="0.50664">
        <ele>100.6</ele>
        <time>2023-07-18T09:24:07Z</time>
      </trkpt>
      <trkpt lat="47.38589" lon="0.50673">
        <ele>100.6</ele>
        <time>2023-07-18T09:24:08Z</time>
      </trkpt>
      <trkpt lat="47.38586" lon="0.50682">
        <ele>100.4</ele>
        <time>2023-07-18T09:24:09Z</time>
      </trkpt>
      <trkpt lat="47.38582" lon="0.50691">
        <ele>100.4</ele>
        <time>2023-07-18T09:24:10Z</time>
      </trkpt>
      <trkpt lat="47.38578" lon="0.507">
        <ele>100.4</ele>
        <time>2023-07-18T09:24:11Z</time>
      </trkpt>
      <trkpt lat="47.38575" lon="0.50709">
        <ele>100.2</ele>
        <time>2023-07-18T09:24:12Z</time>
      </trkpt>
      <trkpt lat="47.3857" lon="0.50718">
        <ele>100.2</ele>
        <time>2023-07-18T09:24:13Z</time>
      </trkpt>
      <trkpt lat="47.38567" lon="0.50727">
        <ele>100.2</ele>
        <time>2023-07-18T09:24:14Z</time>
      </trkpt>
      <trkpt lat="47.38562" lon="0.50735">
        <ele>100.4</ele>
        <time>2023-07-18T09:24:15Z</time>
      </trkpt>
      <trkpt lat="47.38559" lon="0.50743">
        <ele>100.4</ele>
        <time>2023-07-18T09:24:16Z</time>
      </trkpt>
      <trkpt lat="47.38556" lon="0.50751">
        <ele>100.4</ele>
        <time>2023-07-18T09:24:17Z</time>
      </trkpt>
      <trkpt lat="47.38553" lon="0.5076">
        <ele>100.4</ele>
        <time>2023-07-18T09:24:18Z</time>
      </trkpt>
      <trkpt lat="47.3855" lon="0.50768">
        <ele>100.6</ele>
        <time>2023-07-18T09:24:19Z</time>
      </trkpt>
      <trkpt lat="47.38546" lon="0.50777">
        <ele>100.8</ele>
        <time>2023-07-18T09:24:20Z</time>
      </trkpt>
      <trkpt lat="47.38543" lon="0.50785">
        <ele>101</ele>
        <time>2023-07-18T09:24:21Z</time>
      </trkpt>
      <trkpt lat="47.3854" lon="0.50794">
        <ele>101.2</ele>
        <time>2023-07-18T09:24:22Z</time>
      </trkpt>
      <trkpt lat="47.38536" lon="0.50802">
        <ele>101.2</ele>
        <time>2023-07-18T09:24:23Z</time>
      </trkpt>
      <trkpt lat="47.38533" lon="0.5081">
        <ele>101.4</ele>
        <time>2023-07-18T09:24:24Z</time>
      </trkpt>
      <trkpt lat="47.38529" lon="0.50818">
        <ele>101.4</ele>
        <time>2023-07-18T09:24:25Z</time>
      </trkpt>
      <trkpt lat="47.38525" lon="0.50825">
        <ele>101.6</ele>
        <time>2023-07-18T09:24:26Z</time>
      </trkpt>
      <trkpt lat="47.38521" lon="0.50834">
        <ele>101.6</ele>
        <time>2023-07-18T09:24:27Z</time>
      </trkpt>
      <trkpt lat="47.38518" lon="0.50841">
        <ele>101.8</ele>
        <time>2023-07-18T09:24:28Z</time>
      </trkpt>
      <trkpt lat="47.38514" lon="0.50849">
        <ele>101.8</ele>
        <time>2023-07-18T09:24:29Z</time>
      </trkpt>
      <trkpt lat="47.38511" lon="0.50857">
        <ele>101.8</ele>
        <time>2023-07-18T09:24:30Z</time>
      </trkpt>
      <trkpt lat="47.38507" lon="0.50865">
        <ele>102</ele>
        <time>2023-07-18T09:24:31Z</time>
      </trkpt>
      <trkpt lat="47.38505" lon="0.50872">
        <ele>102</ele>
        <time>2023-07-18T09:24:32Z</time>
      </trkpt>
      <trkpt lat="47.38502" lon="0.5088">
        <ele>102</ele>
        <time>2023-07-18T09:24:33Z</time>
      </trkpt>
      <trkpt lat="47.38498" lon="0.50888">
        <ele>102</ele>
        <time>2023-07-18T09:24:34Z</time>
      </trkpt>
      <trkpt lat="47.38495" lon="0.50895">
        <ele>102.2</ele>
        <time>2023-07-18T09:24:35Z</time>
      </trkpt>
      <trkpt lat="47.38493" lon="0.50903">
        <ele>102</ele>
        <time>2023-07-18T09:24:36Z</time>
      </trkpt>
      <trkpt lat="47.3849" lon="0.50912">
        <ele>102</ele>
        <time>2023-07-18T09:24:37Z</time>
      </trkpt>
      <trkpt lat="47.38486" lon="0.50919">
        <ele>102</ele>
        <time>2023-07-18T09:24:38Z</time>
      </trkpt>
      <trkpt lat="47.38483" lon="0.50928">
        <ele>102</ele>
        <time>2023-07-18T09:24:39Z</time>
      </trkpt>
      <trkpt lat="47.38481" lon="0.50936">
        <ele>102</ele>
        <time>2023-07-18T09:24:40Z</time>
      </trkpt>
      <trkpt lat="47.38477" lon="0.50944">
        <ele>101.8</ele>
        <time>2023-07-18T09:24:41Z</time>
      </trkpt>
      <trkpt lat="47.38473" lon="0.50952">
        <ele>101.8</ele>
        <time>2023-07-18T09:24:42Z</time>
      </trkpt>
      <trkpt lat="47.3847" lon="0.50961">
        <ele>101.8</ele>
        <time>2023-07-18T09:24:43Z</time>
      </trkpt>
      <trkpt lat="47.38466" lon="0.50969">
        <ele>101.6</ele>
        <time>2023-07-18T09:24:44Z</time>
      </trkpt>
      <trkpt lat="47.38462" lon="0.50978">
        <ele>101.6</ele>
        <time>2023-07-18T09:24:45Z</time>
      </trkpt>
      <trkpt lat="47.38459" lon="0.50986">
        <ele>101.4</ele>
        <time>2023-07-18T09:24:46Z</time>
      </trkpt>
      <trkpt lat="47.38455" lon="0.50995">
        <ele>101.2</ele>
        <time>2023-07-18T09:24:47Z</time>
      </trkpt>
      <trkpt lat="47.38451" lon="0.51004">
        <ele>101</ele>
        <time>2023-07-18T09:24:48Z</time>
      </trkpt>
      <trkpt lat="47.38448" lon="0.51013">
        <ele>100.8</ele>
        <time>2023-07-18T09:24:49Z</time>
      </trkpt>
      <trkpt lat="47.38444" lon="0.51022">
        <ele>100.6</ele>
        <time>2023-07-18T09:24:50Z</time>
      </trkpt>
      <trkpt lat="47.3844" lon="0.51032">
        <ele>100.4</ele>
        <time>2023-07-18T09:24:51Z</time>
      </trkpt>
      <trkpt lat="47.38436" lon="0.51041">
        <ele>100.2</ele>
        <time>2023-07-18T09:24:52Z</time>
      </trkpt>
      <trkpt lat="47.38432" lon="0.5105">
        <ele>99.8</ele>
        <time>2023-07-18T09:24:53Z</time>
      </trkpt>
      <trkpt lat="47.38427" lon="0.5106">
        <ele>99.6</ele>
        <time>2023-07-18T09:24:54Z</time>
      </trkpt>
      <trkpt lat="47.38423" lon="0.51069">
        <ele>99.4</ele>
        <time>2023-07-18T09:24:55Z</time>
      </trkpt>
      <trkpt lat="47.38419" lon="0.51077">
        <ele>99.2</ele>
        <time>2023-07-18T09:24:56Z</time>
      </trkpt>
      <trkpt lat="47.38414" lon="0.51086">
        <ele>99</ele>
        <time>2023-07-18T09:24:57Z</time>
      </trkpt>
      <trkpt lat="47.3841" lon="0.51094">
        <ele>98.6</ele>
        <time>2023-07-18T09:24:58Z</time>
      </trkpt>
      <trkpt lat="47.38404" lon="0.51102">
        <ele>98.4</ele>
        <time>2023-07-18T09:24:59Z</time>
      </trkpt>
      <trkpt lat="47.384" lon="0.51111">
        <ele>98</ele>
        <time>2023-07-18T09:25:00Z</time>
      </trkpt>
      <trkpt lat="47.38396" lon="0.5112">
        <ele>97.8</ele>
        <time>2023-07-18T09:25:01Z</time>
      </trkpt>
      <trkpt lat="47.38392" lon="0.51129">
        <ele>97.6</ele>
        <time>2023-07-18T09:25:02Z</time>
      </trkpt>
      <trkpt lat="47.3839" lon="0.5114">
        <ele>97.4</ele>
        <time>2023-07-18T09:25:03Z</time>
      </trkpt>
      <trkpt lat="47.38388" lon="0.5115">
        <ele>97.2</ele>
        <time>2023-07-18T09:25:04Z</time>
      </trkpt>
      <trkpt lat="47.38388" lon="0.51162">
        <ele>97</ele>
        <time>2023-07-18T09:25:05Z</time>
      </trkpt>
      <trkpt lat="47.38388" lon="0.51173">
        <ele>96.8</ele>
        <time>2023-07-18T09:25:06Z</time>
      </trkpt>
      <trkpt lat="47.38389" lon="0.51184">
        <ele>96.8</ele>
        <time>2023-07-18T09:25:07Z</time>
      </trkpt>
      <trkpt lat="47.3839" lon="0.51195">
        <ele>96.6</ele>
        <time>2023-07-18T09:25:08Z</time>
      </trkpt>
      <trkpt lat="47.38389" lon="0.51207">
        <ele>96.4</ele>
        <time>2023-07-18T09:25:09Z</time>
      </trkpt>
      <trkpt lat="47.38388" lon="0.51218">
        <ele>96.2</ele>
        <time>2023-07-18T09:25:10Z</time>
      </trkpt>
      <trkpt lat="47.38388" lon="0.5123">
        <ele>96.2</ele>
        <time>2023-07-18T09:25:11Z</time>
      </trkpt>
      <trkpt lat="47.38388" lon="0.51241">
        <ele>96</ele>
        <time>2023-07-18T09:25:12Z</time>
      </trkpt>
      <trkpt lat="47.38385" lon="0.51252">
        <ele>95.8</ele>
        <time>2023-07-18T09:25:13Z</time>
      </trkpt>
      <trkpt lat="47.38381" lon="0.51262">
        <ele>95.6</ele>
        <time>2023-07-18T09:25:14Z</time>
      </trkpt>
      <trkpt lat="47.38376" lon="0.51272">
        <ele>95.4</ele>
        <time>2023-07-18T09:25:15Z</time>
      </trkpt>
      <trkpt lat="47.38371" lon="0.51281">
        <ele>95</ele>
        <time>2023-07-18T09:25:16Z</time>
      </trkpt>
      <trkpt lat="47.38367" lon="0.51291">
        <ele>94.8</ele>
        <time>2023-07-18T09:25:17Z</time>
      </trkpt>
      <trkpt lat="47.38364" lon="0.51301">
        <ele>94.6</ele>
        <time>2023-07-18T09:25:18Z</time>
      </trkpt>
      <trkpt lat="47.3836" lon="0.51311">
        <ele>94.4</ele>
        <time>2023-07-18T09:25:19Z</time>
      </trkpt>
      <trkpt lat="47.38356" lon="0.51321">
        <ele>94</ele>
        <time>2023-07-18T09:25:20Z</time>
      </trkpt>
      <trkpt lat="47.38353" lon="0.51332">
        <ele>93.8</ele>
        <time>2023-07-18T09:25:21Z</time>
      </trkpt>
      <trkpt lat="47.38348" lon="0.51342">
        <ele>93.4</ele>
        <time>2023-07-18T09:25:22Z</time>
      </trkpt>
      <trkpt lat="47.38344" lon="0.51352">
        <ele>93</ele>
        <time>2023-07-18T09:25:23Z</time>
      </trkpt>
      <trkpt lat="47.38339" lon="0.51363">
        <ele>92.6</ele>
        <time>2023-07-18T09:25:24Z</time>
      </trkpt>
      <trkpt lat="47.38334" lon="0.51374">
        <ele>92.4</ele>
        <time>2023-07-18T09:25:25Z</time>
      </trkpt>
      <trkpt lat="47.3833" lon="0.51384">
        <ele>92</ele>
        <time>2023-07-18T09:25:26Z</time>
      </trkpt>
      <trkpt lat="47.38325" lon="0.51394">
        <ele>91.6</ele>
        <time>2023-07-18T09:25:27Z</time>
      </trkpt>
      <trkpt lat="47.38321" lon="0.51404">
        <ele>91.4</ele>
        <time>2023-07-18T09:25:28Z</time>
      </trkpt>
      <trkpt lat="47.38317" lon="0.51415">
        <ele>90.8</ele>
        <time>2023-07-18T09:25:29Z</time>
      </trkpt>
      <trkpt lat="47.38313" lon="0.51425">
        <ele>90.4</ele>
        <time>2023-07-18T09:25:30Z</time>
      </trkpt>
      <trkpt lat="47.38308" lon="0.51436">
        <ele>90</ele>
        <time>2023-07-18T09:25:31Z</time>
      </trkpt>
      <trkpt lat="47.38305" lon="0.51446">
        <ele>89.8</ele>
        <time>2023-07-18T09:25:32Z</time>
      </trkpt>
      <trkpt lat="47.38302" lon="0.51455">
        <ele>89.4</ele>
        <time>2023-07-18T09:25:33Z</time>
      </trkpt>
      <trkpt lat="47.38299" lon="0.51466">
        <ele>89</ele>
        <time>2023-07-18T09:25:34Z</time>
      </trkpt>
      <trkpt lat="47.38297" lon="0.51477">
        <ele>88.6</ele>
        <time>2023-07-18T09:25:35Z</time>
      </trkpt>
      <trkpt lat="47.38295" lon="0.51491">
        <ele>88</ele>
        <time>2023-07-18T09:25:36Z</time>
      </trkpt>
      <trkpt lat="47.38293" lon="0.51502">
        <ele>87.6</ele>
        <time>2023-07-18T09:25:37Z</time>
      </trkpt>
      <trkpt lat="47.38294" lon="0.51513">
        <ele>87.2</ele>
        <time>2023-07-18T09:25:38Z</time>
      </trkpt>
      <trkpt lat="47.38298" lon="0.51525">
        <ele>86.8</ele>
        <time>2023-07-18T09:25:39Z</time>
      </trkpt>
      <trkpt lat="47.38301" lon="0.51535">
        <ele>86.4</ele>
        <time>2023-07-18T09:25:40Z</time>
      </trkpt>
      <trkpt lat="47.38305" lon="0.51547">
        <ele>86</ele>
        <time>2023-07-18T09:25:41Z</time>
      </trkpt>
      <trkpt lat="47.38308" lon="0.5156">
        <ele>85.6</ele>
        <time>2023-07-18T09:25:42Z</time>
      </trkpt>
      <trkpt lat="47.38312" lon="0.51571">
        <ele>85.4</ele>
        <time>2023-07-18T09:25:43Z</time>
      </trkpt>
      <trkpt lat="47.38315" lon="0.51583">
        <ele>85</ele>
        <time>2023-07-18T09:25:44Z</time>
      </trkpt>
      <trkpt lat="47.38318" lon="0.51596">
        <ele>84.4</ele>
        <time>2023-07-18T09:25:45Z</time>
      </trkpt>
      <trkpt lat="47.38322" lon="0.5161">
        <ele>84</ele>
        <time>2023-07-18T09:25:46Z</time>
      </trkpt>
      <trkpt lat="47.38326" lon="0.51624">
        <ele>83.6</ele>
        <time>2023-07-18T09:25:47Z</time>
      </trkpt>
      <trkpt lat="47.38331" lon="0.51638">
        <ele>83.2</ele>
        <time>2023-07-18T09:25:48Z</time>
      </trkpt>
      <trkpt lat="47.38333" lon="0.51652">
        <ele>82.8</ele>
        <time>2023-07-18T09:25:49Z</time>
      </trkpt>
      <trkpt lat="47.38335" lon="0.51666">
        <ele>82.2</ele>
        <time>2023-07-18T09:25:50Z</time>
      </trkpt>
      <trkpt lat="47.38338" lon="0.51678">
        <ele>81.8</ele>
        <time>2023-07-18T09:25:51Z</time>
      </trkpt>
      <trkpt lat="47.38343" lon="0.51691">
        <ele>81.2</ele>
        <time>2023-07-18T09:25:52Z</time>
      </trkpt>
      <trkpt lat="47.38346" lon="0.51707">
        <ele>80.8</ele>
        <time>2023-07-18T09:25:53Z</time>
      </trkpt>
      <trkpt lat="47.38351" lon="0.51727">
        <ele>80.4</ele>
        <time>2023-07-18T09:25:54Z</time>
      </trkpt>
      <trkpt lat="47.38356" lon="0.51746">
        <ele>79.8</ele>
        <time>2023-07-18T09:25:55Z</time>
      </trkpt>
      <trkpt lat="47.3836" lon="0.51762">
        <ele>79.4</ele>
        <time>2023-07-18T09:25:56Z</time>
      </trkpt>
      <trkpt lat="47.38363" lon="0.51778">
        <ele>79</ele>
        <time>2023-07-18T09:25:57Z</time>
      </trkpt>
      <trkpt lat="47.38367" lon="0.51788">
        <ele>78.6</ele>
        <time>2023-07-18T09:25:58Z</time>
      </trkpt>
      <trkpt lat="47.3837" lon="0.51802">
        <ele>78.2</ele>
        <time>2023-07-18T09:25:59Z</time>
      </trkpt>
      <trkpt lat="47.38374" lon="0.51813">
        <ele>77.6</ele>
        <time>2023-07-18T09:26:00Z</time>
      </trkpt>
      <trkpt lat="47.38378" lon="0.51825">
        <ele>77.4</ele>
        <time>2023-07-18T09:26:01Z</time>
      </trkpt>
      <trkpt lat="47.38383" lon="0.51837">
        <ele>77</ele>
        <time>2023-07-18T09:26:02Z</time>
      </trkpt>
      <trkpt lat="47.38385" lon="0.51848">
        <ele>76.8</ele>
        <time>2023-07-18T09:26:03Z</time>
      </trkpt>
      <trkpt lat="47.38389" lon="0.51859">
        <ele>76.4</ele>
        <time>2023-07-18T09:26:04Z</time>
      </trkpt>
      <trkpt lat="47.38392" lon="0.5187">
        <ele>75.8</ele>
        <time>2023-07-18T09:26:05Z</time>
      </trkpt>
      <trkpt lat="47.38395" lon="0.51881">
        <ele>75.4</ele>
        <time>2023-07-18T09:26:06Z</time>
      </trkpt>
      <trkpt lat="47.38398" lon="0.51892">
        <ele>75</ele>
        <time>2023-07-18T09:26:07Z</time>
      </trkpt>
      <trkpt lat="47.38402" lon="0.51902">
        <ele>74.8</ele>
        <time>2023-07-18T09:26:08Z</time>
      </trkpt>
      <trkpt lat="47.38405" lon="0.5191">
        <ele>74.6</ele>
        <time>2023-07-18T09:26:09Z</time>
      </trkpt>
      <trkpt lat="47.38409" lon="0.51921">
        <ele>74.4</ele>
        <time>2023-07-18T09:26:10Z</time>
      </trkpt>
      <trkpt lat="47.38412" lon="0.51932">
        <ele>74.4</ele>
        <time>2023-07-18T09:26:11Z</time>
      </trkpt>
      <trkpt lat="47.38415" lon="0.51942">
        <ele>74.2</ele>
        <time>2023-07-18T09:26:12Z</time>
      </trkpt>
      <trkpt lat="47.38417" lon="0.51953">
        <ele>74</ele>
        <time>2023-07-18T09:26:13Z</time>
      </trkpt>
      <trkpt lat="47.3842" lon="0.5196">
        <ele>74</ele>
        <time>2023-07-18T09:26:14Z</time>
      </trkpt>
      <trkpt lat="47.38422" lon="0.51968">
        <ele>73.8</ele>
        <time>2023-07-18T09:26:15Z</time>
      </trkpt>
      <trkpt lat="47.38425" lon="0.51979">
        <ele>73.8</ele>
        <time>2023-07-18T09:26:16Z</time>
      </trkpt>
      <trkpt lat="47.38426" lon="0.5199">
        <ele>73.8</ele>
        <time>2023-07-18T09:26:17Z</time>
      </trkpt>
      <trkpt lat="47.38425" lon="0.52001">
        <ele>73.8</ele>
        <time>2023-07-18T09:26:18Z</time>
      </trkpt>
      <trkpt lat="47.38425" lon="0.52012">
        <ele>73.8</ele>
        <time>2023-07-18T09:26:19Z</time>
      </trkpt>
      <trkpt lat="47.38424" lon="0.52023">
        <ele>73.6</ele>
        <time>2023-07-18T09:26:20Z</time>
      </trkpt>
      <trkpt lat="47.38423" lon="0.52034">
        <ele>73.6</ele>
        <time>2023-07-18T09:26:21Z</time>
      </trkpt>
      <trkpt lat="47.38423" lon="0.52045">
        <ele>74</ele>
        <time>2023-07-18T09:26:22Z</time>
      </trkpt>
      <trkpt lat="47.38425" lon="0.52055">
        <ele>74.2</ele>
        <time>2023-07-18T09:26:23Z</time>
      </trkpt>
      <trkpt lat="47.38427" lon="0.52065">
        <ele>74.2</ele>
        <time>2023-07-18T09:26:24Z</time>
      </trkpt>
      <trkpt lat="47.38428" lon="0.52074">
        <ele>74.2</ele>
        <time>2023-07-18T09:26:25Z</time>
      </trkpt>
      <trkpt lat="47.3843" lon="0.52083">
        <ele>74.2</ele>
        <time>2023-07-18T09:26:26Z</time>
      </trkpt>
      <trkpt lat="47.38434" lon="0.52091">
        <ele>74</ele>
        <time>2023-07-18T09:26:27Z</time>
      </trkpt>
      <trkpt lat="47.38437" lon="0.521">
        <ele>74</ele>
        <time>2023-07-18T09:26:28Z</time>
      </trkpt>
      <trkpt lat="47.38439" lon="0.5211">
        <ele>74</ele>
        <time>2023-07-18T09:26:29Z</time>
      </trkpt>
      <trkpt lat="47.38442" lon="0.52121">
        <ele>74</ele>
        <time>2023-07-18T09:26:30Z</time>
      </trkpt>
      <trkpt lat="47.38445" lon="0.52129">
        <ele>74</ele>
        <time>2023-07-18T09:26:31Z</time>
      </trkpt>
      <trkpt lat="47.38449" lon="0.52138">
        <ele>74</ele>
        <time>2023-07-18T09:26:32Z</time>
      </trkpt>
      <trkpt lat="47.38452" lon="0.52147">
        <ele>74</ele>
        <time>2023-07-18T09:26:33Z</time>
      </trkpt>
      <trkpt lat="47.38455" lon="0.52157">
        <ele>73.8</ele>
        <time>2023-07-18T09:26:34Z</time>
      </trkpt>
      <trkpt lat="47.38458" lon="0.52166">
        <ele>73.6</ele>
        <time>2023-07-18T09:26:35Z</time>
      </trkpt>
      <trkpt lat="47.38462" lon="0.52177">
        <ele>73.6</ele>
        <time>2023-07-18T09:26:36Z</time>
      </trkpt>
      <trkpt lat="47.38465" lon="0.52185">
        <ele>73.4</ele>
        <time>2023-07-18T09:26:37Z</time>
      </trkpt>
      <trkpt lat="47.38469" lon="0.52194">
        <ele>73.2</ele>
        <time>2023-07-18T09:26:38Z</time>
      </trkpt>
      <trkpt lat="47.38472" lon="0.52203">
        <ele>72.8</ele>
        <time>2023-07-18T09:26:39Z</time>
      </trkpt>
      <trkpt lat="47.38475" lon="0.52213">
        <ele>72.4</ele>
        <time>2023-07-18T09:26:40Z</time>
      </trkpt>
      <trkpt lat="47.38478" lon="0.52223">
        <ele>72</ele>
        <time>2023-07-18T09:26:41Z</time>
      </trkpt>
      <trkpt lat="47.38481" lon="0.52234">
        <ele>71.6</ele>
        <time>2023-07-18T09:26:42Z</time>
      </trkpt>
      <trkpt lat="47.38483" lon="0.52244">
        <ele>71.2</ele>
        <time>2023-07-18T09:26:43Z</time>
      </trkpt>
      <trkpt lat="47.38485" lon="0.52254">
        <ele>71</ele>
        <time>2023-07-18T09:26:44Z</time>
      </trkpt>
      <trkpt lat="47.38487" lon="0.52265">
        <ele>71</ele>
        <time>2023-07-18T09:26:45Z</time>
      </trkpt>
      <trkpt lat="47.38488" lon="0.52276">
        <ele>70.8</ele>
        <time>2023-07-18T09:26:46Z</time>
      </trkpt>
      <trkpt lat="47.38489" lon="0.52287">
        <ele>70.6</ele>
        <time>2023-07-18T09:26:47Z</time>
      </trkpt>
      <trkpt lat="47.38489" lon="0.52298">
        <ele>70.4</ele>
        <time>2023-07-18T09:26:48Z</time>
      </trkpt>
      <trkpt lat="47.38489" lon="0.52309">
        <ele>70.2</ele>
        <time>2023-07-18T09:26:49Z</time>
      </trkpt>
      <trkpt lat="47.38488" lon="0.5232">
        <ele>70</ele>
        <time>2023-07-18T09:26:50Z</time>
      </trkpt>
      <trkpt lat="47.38486" lon="0.52332">
        <ele>69.6</ele>
        <time>2023-07-18T09:26:51Z</time>
      </trkpt>
      <trkpt lat="47.38485" lon="0.52343">
        <ele>69.4</ele>
        <time>2023-07-18T09:26:52Z</time>
      </trkpt>
      <trkpt lat="47.38483" lon="0.52355">
        <ele>69.2</ele>
        <time>2023-07-18T09:26:53Z</time>
      </trkpt>
      <trkpt lat="47.3848" lon="0.52367">
        <ele>68.8</ele>
        <time>2023-07-18T09:26:54Z</time>
      </trkpt>
      <trkpt lat="47.38477" lon="0.52379">
        <ele>68.4</ele>
        <time>2023-07-18T09:26:55Z</time>
      </trkpt>
      <trkpt lat="47.38474" lon="0.5239">
        <ele>68</ele>
        <time>2023-07-18T09:26:56Z</time>
      </trkpt>
      <trkpt lat="47.3847" lon="0.52402">
        <ele>67.4</ele>
        <time>2023-07-18T09:26:57Z</time>
      </trkpt>
      <trkpt lat="47.38466" lon="0.52414">
        <ele>66.8</ele>
        <time>2023-07-18T09:26:58Z</time>
      </trkpt>
      <trkpt lat="47.38462" lon="0.52427">
        <ele>66.4</ele>
        <time>2023-07-18T09:26:59Z</time>
      </trkpt>
      <trkpt lat="47.38457" lon="0.52439">
        <ele>65.8</ele>
        <time>2023-07-18T09:27:00Z</time>
      </trkpt>
      <trkpt lat="47.38453" lon="0.52451">
        <ele>65.2</ele>
        <time>2023-07-18T09:27:01Z</time>
      </trkpt>
      <trkpt lat="47.38449" lon="0.52464">
        <ele>64.8</ele>
        <time>2023-07-18T09:27:02Z</time>
      </trkpt>
      <trkpt lat="47.38444" lon="0.52477">
        <ele>64.2</ele>
        <time>2023-07-18T09:27:03Z</time>
      </trkpt>
      <trkpt lat="47.3844" lon="0.5249">
        <ele>63.8</ele>
        <time>2023-07-18T09:27:04Z</time>
      </trkpt>
      <trkpt lat="47.38435" lon="0.52502">
        <ele>63.4</ele>
        <time>2023-07-18T09:27:05Z</time>
      </trkpt>
      <trkpt lat="47.38431" lon="0.52515">
        <ele>63</ele>
        <time>2023-07-18T09:27:06Z</time>
      </trkpt>
      <trkpt lat="47.38427" lon="0.52528">
        <ele>62.4</ele>
        <time>2023-07-18T09:27:07Z</time>
      </trkpt>
      <trkpt lat="47.38422" lon="0.5254">
        <ele>62</ele>
        <time>2023-07-18T09:27:08Z</time>
      </trkpt>
      <trkpt lat="47.38419" lon="0.52552">
        <ele>61.4</ele>
        <time>2023-07-18T09:27:09Z</time>
      </trkpt>
      <trkpt lat="47.38417" lon="0.52565">
        <ele>61</ele>
        <time>2023-07-18T09:27:10Z</time>
      </trkpt>
      <trkpt lat="47.38417" lon="0.52578">
        <ele>60.8</ele>
        <time>2023-07-18T09:27:11Z</time>
      </trkpt>
      <trkpt lat="47.3842" lon="0.5259">
        <ele>60.4</ele>
        <time>2023-07-18T09:27:12Z</time>
      </trkpt>
      <trkpt lat="47.38422" lon="0.52603">
        <ele>60</ele>
        <time>2023-07-18T09:27:13Z</time>
      </trkpt>
      <trkpt lat="47.38425" lon="0.52615">
        <ele>59.6</ele>
        <time>2023-07-18T09:27:14Z</time>
      </trkpt>
      <trkpt lat="47.38427" lon="0.52627">
        <ele>59.2</ele>
        <time>2023-07-18T09:27:15Z</time>
      </trkpt>
      <trkpt lat="47.3843" lon="0.52639">
        <ele>58.8</ele>
        <time>2023-07-18T09:27:16Z</time>
      </trkpt>
      <trkpt lat="47.38432" lon="0.5265">
        <ele>58.4</ele>
        <time>2023-07-18T09:27:17Z</time>
      </trkpt>
      <trkpt lat="47.38434" lon="0.5266">
        <ele>57.8</ele>
        <time>2023-07-18T09:27:18Z</time>
      </trkpt>
      <trkpt lat="47.38435" lon="0.52668">
        <ele>57.2</ele>
        <time>2023-07-18T09:27:19Z</time>
      </trkpt>
      <trkpt lat="47.38436" lon="0.52675">
        <ele>56.8</ele>
        <time>2023-07-18T09:27:20Z</time>
      </trkpt>
      <trkpt lat="47.38437" lon="0.52681">
        <ele>56.2</ele>
        <time>2023-07-18T09:27:21Z</time>
      </trkpt>
      <trkpt lat="47.38441" lon="0.52685">
        <ele>56</ele>
        <time>2023-07-18T09:27:22Z</time>
      </trkpt>
      <trkpt lat="47.38445" lon="0.52686">
        <ele>55.8</ele>
        <time>2023-07-18T09:27:23Z</time>
      </trkpt>
      <trkpt lat="47.38449" lon="0.52685">
        <ele>55.6</ele>
        <time>2023-07-18T09:27:24Z</time>
      </trkpt>
      <trkpt lat="47.38455" lon="0.52682">
        <ele>55.4</ele>
        <time>2023-07-18T09:27:25Z</time>
      </trkpt>
      <trkpt lat="47.38461" lon="0.5268">
        <ele>55.4</ele>
        <time>2023-07-18T09:27:26Z</time>
      </trkpt>
      <trkpt lat="47.38467" lon="0.52677">
        <ele>55.6</ele>
        <time>2023-07-18T09:27:27Z</time>
      </trkpt>
      <trkpt lat="47.38474" lon="0.52674">
        <ele>55.6</ele>
        <time>2023-07-18T09:27:28Z</time>
      </trkpt>
      <trkpt lat="47.3848" lon="0.52671">
        <ele>55.6</ele>
        <time>2023-07-18T09:27:29Z</time>
      </trkpt>
      <trkpt lat="47.38487" lon="0.52668">
        <ele>55.6</ele>
        <time>2023-07-18T09:27:30Z</time>
      </trkpt>
      <trkpt lat="47.38493" lon="0.52664">
        <ele>55.6</ele>
        <time>2023-07-18T09:27:31Z</time>
      </trkpt>
      <trkpt lat="47.385" lon="0.52661">
        <ele>55.6</ele>
        <time>2023-07-18T09:27:32Z</time>
      </trkpt>
      <trkpt lat="47.38507" lon="0.52657">
        <ele>55.6</ele>
        <time>2023-07-18T09:27:33Z</time>
      </trkpt>
      <trkpt lat="47.38514" lon="0.52653">
        <ele>55.8</ele>
        <time>2023-07-18T09:27:34Z</time>
      </trkpt>
      <trkpt lat="47.3852" lon="0.5265">
        <ele>55.8</ele>
        <time>2023-07-18T09:27:35Z</time>
      </trkpt>
      <trkpt lat="47.38527" lon="0.52646">
        <ele>55.8</ele>
        <time>2023-07-18T09:27:36Z</time>
      </trkpt>
      <trkpt lat="47.38534" lon="0.52641">
        <ele>55.8</ele>
        <time>2023-07-18T09:27:37Z</time>
      </trkpt>
      <trkpt lat="47.38541" lon="0.52636">
        <ele>55.8</ele>
        <time>2023-07-18T09:27:38Z</time>
      </trkpt>
      <trkpt lat="47.38547" lon="0.52629">
        <ele>55.8</ele>
        <time>2023-07-18T09:27:39Z</time>
      </trkpt>
      <trkpt lat="47.38552" lon="0.52622">
        <ele>56</ele>
        <time>2023-07-18T09:27:40Z</time>
      </trkpt>
      <trkpt lat="47.38557" lon="0.52615">
        <ele>56</ele>
        <time>2023-07-18T09:27:41Z</time>
      </trkpt>
      <trkpt lat="47.38562" lon="0.52608">
        <ele>56.2</ele>
        <time>2023-07-18T09:27:42Z</time>
      </trkpt>
      <trkpt lat="47.38568" lon="0.526">
        <ele>56.4</ele>
        <time>2023-07-18T09:27:43Z</time>
      </trkpt>
      <trkpt lat="47.38573" lon="0.52592">
        <ele>56.4</ele>
        <time>2023-07-18T09:27:44Z</time>
      </trkpt>
      <trkpt lat="47.38577" lon="0.52585">
        <ele>56.4</ele>
        <time>2023-07-18T09:27:45Z</time>
      </trkpt>
      <trkpt lat="47.38582" lon="0.52577">
        <ele>56.4</ele>
        <time>2023-07-18T09:27:46Z</time>
      </trkpt>
      <trkpt lat="47.38588" lon="0.5257">
        <ele>56.2</ele>
        <time>2023-07-18T09:27:47Z</time>
      </trkpt>
      <trkpt lat="47.38592" lon="0.52563">
        <ele>56.2</ele>
        <time>2023-07-18T09:27:48Z</time>
      </trkpt>
      <trkpt lat="47.38597" lon="0.52556">
        <ele>56</ele>
        <time>2023-07-18T09:27:49Z</time>
      </trkpt>
      <trkpt lat="47.38602" lon="0.5255">
        <ele>55.8</ele>
        <time>2023-07-18T09:27:50Z</time>
      </trkpt>
      <trkpt lat="47.38607" lon="0.52543">
        <ele>55.6</ele>
        <time>2023-07-18T09:27:51Z</time>
      </trkpt>
      <trkpt lat="47.38613" lon="0.52536">
        <ele>55.6</ele>
        <time>2023-07-18T09:27:52Z</time>
      </trkpt>
      <trkpt lat="47.38619" lon="0.52529">
        <ele>55.6</ele>
        <time>2023-07-18T09:27:53Z</time>
      </trkpt>
      <trkpt lat="47.38625" lon="0.52523">
        <ele>55.6</ele>
        <time>2023-07-18T09:27:54Z</time>
      </trkpt>
      <trkpt lat="47.38631" lon="0.52517">
        <ele>55.6</ele>
        <time>2023-07-18T09:27:55Z</time>
      </trkpt>
      <trkpt lat="47.38638" lon="0.52512">
        <ele>55.6</ele>
        <time>2023-07-18T09:27:56Z</time>
      </trkpt>
      <trkpt lat="47.38644" lon="0.52507">
        <ele>55.8</ele>
        <time>2023-07-18T09:27:57Z</time>
      </trkpt>
      <trkpt lat="47.38651" lon="0.52502">
        <ele>55.8</ele>
        <time>2023-07-18T09:27:58Z</time>
      </trkpt>
      <trkpt lat="47.38657" lon="0.52499">
        <ele>55.8</ele>
        <time>2023-07-18T09:27:59Z</time>
      </trkpt>
      <trkpt lat="47.38663" lon="0.52495">
        <ele>56</ele>
        <time>2023-07-18T09:28:00Z</time>
      </trkpt>
      <trkpt lat="47.3867" lon="0.52493">
        <ele>56</ele>
        <time>2023-07-18T09:28:01Z</time>
      </trkpt>
      <trkpt lat="47.38677" lon="0.5249">
        <ele>56</ele>
        <time>2023-07-18T09:28:02Z</time>
      </trkpt>
      <trkpt lat="47.38684" lon="0.52488">
        <ele>56.2</ele>
        <time>2023-07-18T09:28:03Z</time>
      </trkpt>
      <trkpt lat="47.3869" lon="0.52486">
        <ele>56.2</ele>
        <time>2023-07-18T09:28:04Z</time>
      </trkpt>
      <trkpt lat="47.38697" lon="0.52483">
        <ele>56.2</ele>
        <time>2023-07-18T09:28:05Z</time>
      </trkpt>
      <trkpt lat="47.38704" lon="0.52481">
        <ele>56.2</ele>
        <time>2023-07-18T09:28:06Z</time>
      </trkpt>
      <trkpt lat="47.3871" lon="0.52479">
        <ele>56.2</ele>
        <time>2023-07-18T09:28:07Z</time>
      </trkpt>
      <trkpt lat="47.38717" lon="0.52477">
        <ele>56.2</ele>
        <time>2023-07-18T09:28:08Z</time>
      </trkpt>
      <trkpt lat="47.38722" lon="0.52475">
        <ele>56.4</ele>
        <time>2023-07-18T09:28:09Z</time>
      </trkpt>
      <trkpt lat="47.38728" lon="0.52474">
        <ele>56.4</ele>
        <time>2023-07-18T09:28:10Z</time>
      </trkpt>
      <trkpt lat="47.38734" lon="0.52472">
        <ele>56.4</ele>
        <time>2023-07-18T09:28:11Z</time>
      </trkpt>
      <trkpt lat="47.38741" lon="0.52471">
        <ele>56.6</ele>
        <time>2023-07-18T09:28:12Z</time>
      </trkpt>
      <trkpt lat="47.38747" lon="0.5247">
        <ele>56.6</ele>
        <time>2023-07-18T09:28:13Z</time>
      </trkpt>
      <trkpt lat="47.38753" lon="0.52469">
        <ele>56.8</ele>
        <time>2023-07-18T09:28:14Z</time>
      </trkpt>
      <trkpt lat="47.38758" lon="0.52467">
        <ele>57</ele>
        <time>2023-07-18T09:28:15Z</time>
      </trkpt>
      <trkpt lat="47.38764" lon="0.52466">
        <ele>57.2</ele>
        <time>2023-07-18T09:28:16Z</time>
      </trkpt>
      <trkpt lat="47.3877" lon="0.52465">
        <ele>57.4</ele>
        <time>2023-07-18T09:28:17Z</time>
      </trkpt>
      <trkpt lat="47.38775" lon="0.52464">
        <ele>57.6</ele>
        <time>2023-07-18T09:28:18Z</time>
      </trkpt>
      <trkpt lat="47.38781" lon="0.52463">
        <ele>58</ele>
        <time>2023-07-18T09:28:19Z</time>
      </trkpt>
      <trkpt lat="47.38787" lon="0.52461">
        <ele>58.4</ele>
        <time>2023-07-18T09:28:20Z</time>
      </trkpt>
      <trkpt lat="47.38792" lon="0.52459">
        <ele>58.6</ele>
        <time>2023-07-18T09:28:21Z</time>
      </trkpt>
      <trkpt lat="47.38797" lon="0.52458">
        <ele>58.8</ele>
        <time>2023-07-18T09:28:22Z</time>
      </trkpt>
      <trkpt lat="47.38803" lon="0.52456">
        <ele>59.2</ele>
        <time>2023-07-18T09:28:23Z</time>
      </trkpt>
      <trkpt lat="47.38808" lon="0.52454">
        <ele>59.6</ele>
        <time>2023-07-18T09:28:24Z</time>
      </trkpt>
      <trkpt lat="47.38814" lon="0.52453">
        <ele>59.8</ele>
        <time>2023-07-18T09:28:25Z</time>
      </trkpt>
      <trkpt lat="47.38819" lon="0.52452">
        <ele>60</ele>
        <time>2023-07-18T09:28:26Z</time>
      </trkpt>
      <trkpt lat="47.38825" lon="0.52451">
        <ele>60.2</ele>
        <time>2023-07-18T09:28:27Z</time>
      </trkpt>
      <trkpt lat="47.3883" lon="0.5245">
        <ele>60.4</ele>
        <time>2023-07-18T09:28:28Z</time>
      </trkpt>
      <trkpt lat="47.38836" lon="0.5245">
        <ele>60.6</ele>
        <time>2023-07-18T09:28:29Z</time>
      </trkpt>
      <trkpt lat="47.38841" lon="0.5245">
        <ele>60.6</ele>
        <time>2023-07-18T09:28:30Z</time>
      </trkpt>
      <trkpt lat="47.38847" lon="0.5245">
        <ele>61</ele>
        <time>2023-07-18T09:28:31Z</time>
      </trkpt>
      <trkpt lat="47.38852" lon="0.5245">
        <ele>61.2</ele>
        <time>2023-07-18T09:28:32Z</time>
      </trkpt>
      <trkpt lat="47.38858" lon="0.5245">
        <ele>61.4</ele>
        <time>2023-07-18T09:28:33Z</time>
      </trkpt>
      <trkpt lat="47.38864" lon="0.52451">
        <ele>61.4</ele>
        <time>2023-07-18T09:28:34Z</time>
      </trkpt>
      <trkpt lat="47.38869" lon="0.52452">
        <ele>61.4</ele>
        <time>2023-07-18T09:28:35Z</time>
      </trkpt>
      <trkpt lat="47.38876" lon="0.52452">
        <ele>61.2</ele>
        <time>2023-07-18T09:28:36Z</time>
      </trkpt>
      <trkpt lat="47.38881" lon="0.52453">
        <ele>61.2</ele>
        <time>2023-07-18T09:28:37Z</time>
      </trkpt>
      <trkpt lat="47.38887" lon="0.52453">
        <ele>61</ele>
        <time>2023-07-18T09:28:38Z</time>
      </trkpt>
      <trkpt lat="47.38894" lon="0.52454">
        <ele>61</ele>
        <time>2023-07-18T09:28:39Z</time>
      </trkpt>
      <trkpt lat="47.38899" lon="0.52454">
        <ele>61</ele>
        <time>2023-07-18T09:28:40Z</time>
      </trkpt>
      <trkpt lat="47.38905" lon="0.52455">
        <ele>61</ele>
        <time>2023-07-18T09:28:41Z</time>
      </trkpt>
      <trkpt lat="47.3891" lon="0.52456">
        <ele>61</ele>
        <time>2023-07-18T09:28:42Z</time>
      </trkpt>
      <trkpt lat="47.38916" lon="0.52457">
        <ele>61.2</ele>
        <time>2023-07-18T09:28:43Z</time>
      </trkpt>
      <trkpt lat="47.38921" lon="0.52458">
        <ele>61.2</ele>
        <time>2023-07-18T09:28:44Z</time>
      </trkpt>
      <trkpt lat="47.38927" lon="0.52459">
        <ele>61.2</ele>
        <time>2023-07-18T09:28:45Z</time>
      </trkpt>
      <trkpt lat="47.38932" lon="0.52459">
        <ele>61.4</ele>
        <time>2023-07-18T09:28:46Z</time>
      </trkpt>
      <trkpt lat="47.38937" lon="0.5246">
        <ele>61.4</ele>
        <time>2023-07-18T09:28:47Z</time>
      </trkpt>
      <trkpt lat="47.38943" lon="0.52461">
        <ele>61.4</ele>
        <time>2023-07-18T09:28:48Z</time>
      </trkpt>
      <trkpt lat="47.38949" lon="0.52463">
        <ele>61.6</ele>
        <time>2023-07-18T09:28:49Z</time>
      </trkpt>
      <trkpt lat="47.38955" lon="0.52465">
        <ele>61.6</ele>
        <time>2023-07-18T09:28:50Z</time>
      </trkpt>
      <trkpt lat="47.38961" lon="0.52467">
        <ele>61.8</ele>
        <time>2023-07-18T09:28:51Z</time>
      </trkpt>
      <trkpt lat="47.38966" lon="0.52469">
        <ele>62</ele>
        <time>2023-07-18T09:28:52Z</time>
      </trkpt>
      <trkpt lat="47.38972" lon="0.52471">
        <ele>62.2</ele>
        <time>2023-07-18T09:28:53Z</time>
      </trkpt>
      <trkpt lat="47.38977" lon="0.52473">
        <ele>62.2</ele>
        <time>2023-07-18T09:28:54Z</time>
      </trkpt>
      <trkpt lat="47.38983" lon="0.52476">
        <ele>62.4</ele>
        <time>2023-07-18T09:28:55Z</time>
      </trkpt>
      <trkpt lat="47.38988" lon="0.52478">
        <ele>62.6</ele>
        <time>2023-07-18T09:28:56Z</time>
      </trkpt>
      <trkpt lat="47.38994" lon="0.5248">
        <ele>62.6</ele>
        <time>2023-07-18T09:28:57Z</time>
      </trkpt>
      <trkpt lat="47.39" lon="0.52482">
        <ele>62.6</ele>
        <time>2023-07-18T09:28:58Z</time>
      </trkpt>
      <trkpt lat="47.39006" lon="0.52484">
        <ele>62.8</ele>
        <time>2023-07-18T09:28:59Z</time>
      </trkpt>
      <trkpt lat="47.39012" lon="0.52486">
        <ele>62.8</ele>
        <time>2023-07-18T09:29:00Z</time>
      </trkpt>
      <trkpt lat="47.39018" lon="0.52488">
        <ele>62.8</ele>
        <time>2023-07-18T09:29:01Z</time>
      </trkpt>
      <trkpt lat="47.39024" lon="0.52491">
        <ele>62.8</ele>
        <time>2023-07-18T09:29:02Z</time>
      </trkpt>
      <trkpt lat="47.3903" lon="0.52493">
        <ele>62.8</ele>
        <time>2023-07-18T09:29:03Z</time>
      </trkpt>
      <trkpt lat="47.39037" lon="0.52496">
        <ele>62.6</ele>
        <time>2023-07-18T09:29:04Z</time>
      </trkpt>
      <trkpt lat="47.39044" lon="0.52498">
        <ele>62.6</ele>
        <time>2023-07-18T09:29:05Z</time>
      </trkpt>
      <trkpt lat="47.3905" lon="0.525">
        <ele>62.4</ele>
        <time>2023-07-18T09:29:06Z</time>
      </trkpt>
      <trkpt lat="47.39058" lon="0.52503">
        <ele>62.2</ele>
        <time>2023-07-18T09:29:07Z</time>
      </trkpt>
      <trkpt lat="47.39064" lon="0.52505">
        <ele>62</ele>
        <time>2023-07-18T09:29:08Z</time>
      </trkpt>
      <trkpt lat="47.39071" lon="0.52508">
        <ele>61.8</ele>
        <time>2023-07-18T09:29:09Z</time>
      </trkpt>
      <trkpt lat="47.39078" lon="0.52511">
        <ele>61.6</ele>
        <time>2023-07-18T09:29:10Z</time>
      </trkpt>
      <trkpt lat="47.39085" lon="0.52515">
        <ele>61.6</ele>
        <time>2023-07-18T09:29:11Z</time>
      </trkpt>
      <trkpt lat="47.39092" lon="0.52518">
        <ele>61.4</ele>
        <time>2023-07-18T09:29:12Z</time>
      </trkpt>
      <trkpt lat="47.39099" lon="0.52521">
        <ele>61.4</ele>
        <time>2023-07-18T09:29:13Z</time>
      </trkpt>
      <trkpt lat="47.39106" lon="0.52524">
        <ele>61.4</ele>
        <time>2023-07-18T09:29:14Z</time>
      </trkpt>
      <trkpt lat="47.39114" lon="0.52526">
        <ele>61.4</ele>
        <time>2023-07-18T09:29:15Z</time>
      </trkpt>
      <trkpt lat="47.39121" lon="0.52529">
        <ele>61.2</ele>
        <time>2023-07-18T09:29:16Z</time>
      </trkpt>
      <trkpt lat="47.39128" lon="0.52531">
        <ele>61.4</ele>
        <time>2023-07-18T09:29:17Z</time>
      </trkpt>
      <trkpt lat="47.39134" lon="0.52532">
        <ele>61.6</ele>
        <time>2023-07-18T09:29:18Z</time>
      </trkpt>
      <trkpt lat="47.3914" lon="0.52532">
        <ele>61.6</ele>
        <time>2023-07-18T09:29:19Z</time>
      </trkpt>
      <trkpt lat="47.39146" lon="0.52532">
        <ele>61.8</ele>
        <time>2023-07-18T09:29:20Z</time>
      </trkpt>
      <trkpt lat="47.39152" lon="0.52532">
        <ele>62</ele>
        <time>2023-07-18T09:29:21Z</time>
      </trkpt>
      <trkpt lat="47.39158" lon="0.52532">
        <ele>62</ele>
        <time>2023-07-18T09:29:22Z</time>
      </trkpt>
      <trkpt lat="47.39163" lon="0.52532">
        <ele>62.2</ele>
        <time>2023-07-18T09:29:23Z</time>
      </trkpt>
      <trkpt lat="47.39169" lon="0.52532">
        <ele>62.2</ele>
        <time>2023-07-18T09:29:24Z</time>
      </trkpt>
      <trkpt lat="47.39175" lon="0.52531">
        <ele>62.4</ele>
        <time>2023-07-18T09:29:25Z</time>
      </trkpt>
      <trkpt lat="47.3918" lon="0.5253">
        <ele>62.6</ele>
        <time>2023-07-18T09:29:26Z</time>
      </trkpt>
      <trkpt lat="47.39186" lon="0.52529">
        <ele>62.8</ele>
        <time>2023-07-18T09:29:27Z</time>
      </trkpt>
      <trkpt lat="47.39191" lon="0.52528">
        <ele>63</ele>
        <time>2023-07-18T09:29:28Z</time>
      </trkpt>
      <trkpt lat="47.39197" lon="0.52525">
        <ele>63.2</ele>
        <time>2023-07-18T09:29:29Z</time>
      </trkpt>
      <trkpt lat="47.39203" lon="0.52523">
        <ele>63.4</ele>
        <time>2023-07-18T09:29:30Z</time>
      </trkpt>
      <trkpt lat="47.39208" lon="0.52521">
        <ele>63.6</ele>
        <time>2023-07-18T09:29:31Z</time>
      </trkpt>
      <trkpt lat="47.39213" lon="0.52519">
        <ele>63.6</ele>
        <time>2023-07-18T09:29:32Z</time>
      </trkpt>
      <trkpt lat="47.39219" lon="0.52516">
        <ele>63.8</ele>
        <time>2023-07-18T09:29:33Z</time>
      </trkpt>
      <trkpt lat="47.39225" lon="0.52513">
        <ele>63.8</ele>
        <time>2023-07-18T09:29:34Z</time>
      </trkpt>
      <trkpt lat="47.39231" lon="0.5251">
        <ele>63.8</ele>
        <time>2023-07-18T09:29:35Z</time>
      </trkpt>
      <trkpt lat="47.39237" lon="0.52508">
        <ele>63.8</ele>
        <time>2023-07-18T09:29:36Z</time>
      </trkpt>
      <trkpt lat="47.39244" lon="0.52505">
        <ele>63.8</ele>
        <time>2023-07-18T09:29:37Z</time>
      </trkpt>
      <trkpt lat="47.3925" lon="0.52502">
        <ele>63.8</ele>
        <time>2023-07-18T09:29:38Z</time>
      </trkpt>
      <trkpt lat="47.39256" lon="0.52499">
        <ele>63.8</ele>
        <time>2023-07-18T09:29:39Z</time>
      </trkpt>
      <trkpt lat="47.39263" lon="0.52497">
        <ele>64</ele>
        <time>2023-07-18T09:29:40Z</time>
      </trkpt>
      <trkpt lat="47.3927" lon="0.52496">
        <ele>63.8</ele>
        <time>2023-07-18T09:29:41Z</time>
      </trkpt>
      <trkpt lat="47.39278" lon="0.52495">
        <ele>63.6</ele>
        <time>2023-07-18T09:29:42Z</time>
      </trkpt>
      <trkpt lat="47.39285" lon="0.52495">
        <ele>63.6</ele>
        <time>2023-07-18T09:29:43Z</time>
      </trkpt>
      <trkpt lat="47.39292" lon="0.52496">
        <ele>63.4</ele>
        <time>2023-07-18T09:29:44Z</time>
      </trkpt>
      <trkpt lat="47.393" lon="0.52496">
        <ele>63.2</ele>
        <time>2023-07-18T09:29:45Z</time>
      </trkpt>
      <trkpt lat="47.39307" lon="0.52497">
        <ele>62.8</ele>
        <time>2023-07-18T09:29:46Z</time>
      </trkpt>
      <trkpt lat="47.39315" lon="0.52498">
        <ele>62.6</ele>
        <time>2023-07-18T09:29:47Z</time>
      </trkpt>
      <trkpt lat="47.39323" lon="0.52498">
        <ele>62.4</ele>
        <time>2023-07-18T09:29:48Z</time>
      </trkpt>
      <trkpt lat="47.3933" lon="0.52499">
        <ele>62.2</ele>
        <time>2023-07-18T09:29:49Z</time>
      </trkpt>
      <trkpt lat="47.39338" lon="0.525">
        <ele>62</ele>
        <time>2023-07-18T09:29:50Z</time>
      </trkpt>
      <trkpt lat="47.39346" lon="0.525">
        <ele>61.8</ele>
        <time>2023-07-18T09:29:51Z</time>
      </trkpt>
      <trkpt lat="47.39352" lon="0.52501">
        <ele>61.6</ele>
        <time>2023-07-18T09:29:52Z</time>
      </trkpt>
      <trkpt lat="47.3936" lon="0.52502">
        <ele>61.2</ele>
        <time>2023-07-18T09:29:53Z</time>
      </trkpt>
      <trkpt lat="47.39368" lon="0.52502">
        <ele>61</ele>
        <time>2023-07-18T09:29:54Z</time>
      </trkpt>
      <trkpt lat="47.39375" lon="0.52503">
        <ele>60.8</ele>
        <time>2023-07-18T09:29:55Z</time>
      </trkpt>
      <trkpt lat="47.39383" lon="0.52503">
        <ele>60.4</ele>
        <time>2023-07-18T09:29:56Z</time>
      </trkpt>
      <trkpt lat="47.3939" lon="0.52504">
        <ele>60.2</ele>
        <time>2023-07-18T09:29:57Z</time>
      </trkpt>
      <trkpt lat="47.39397" lon="0.52505">
        <ele>60</ele>
        <time>2023-07-18T09:29:58Z</time>
      </trkpt>
      <trkpt lat="47.39405" lon="0.52506">
        <ele>59.8</ele>
        <time>2023-07-18T09:29:59Z</time>
      </trkpt>
      <trkpt lat="47.39412" lon="0.52506">
        <ele>59.8</ele>
        <time>2023-07-18T09:30:00Z</time>
      </trkpt>
      <trkpt lat="47.3942" lon="0.52506">
        <ele>59.6</ele>
        <time>2023-07-18T09:30:01Z</time>
      </trkpt>
      <trkpt lat="47.39427" lon="0.52506">
        <ele>59.6</ele>
        <time>2023-07-18T09:30:02Z</time>
      </trkpt>
      <trkpt lat="47.39434" lon="0.52506">
        <ele>59.4</ele>
        <time>2023-07-18T09:30:03Z</time>
      </trkpt>
      <trkpt lat="47.39441" lon="0.52505">
        <ele>59.4</ele>
        <time>2023-07-18T09:30:04Z</time>
      </trkpt>
      <trkpt lat="47.39448" lon="0.52505">
        <ele>59.2</ele>
        <time>2023-07-18T09:30:05Z</time>
      </trkpt>
      <trkpt lat="47.39454" lon="0.52505">
        <ele>59</ele>
        <time>2023-07-18T09:30:06Z</time>
      </trkpt>
      <trkpt lat="47.39461" lon="0.52506">
        <ele>58.6</ele>
        <time>2023-07-18T09:30:07Z</time>
      </trkpt>
      <trkpt lat="47.39468" lon="0.52507">
        <ele>58.6</ele>
        <time>2023-07-18T09:30:08Z</time>
      </trkpt>
      <trkpt lat="47.39476" lon="0.52508">
        <ele>58.6</ele>
        <time>2023-07-18T09:30:09Z</time>
      </trkpt>
      <trkpt lat="47.39483" lon="0.52509">
        <ele>58.6</ele>
        <time>2023-07-18T09:30:10Z</time>
      </trkpt>
      <trkpt lat="47.39491" lon="0.52512">
        <ele>58.4</ele>
        <time>2023-07-18T09:30:11Z</time>
      </trkpt>
      <trkpt lat="47.39497" lon="0.52514">
        <ele>58.2</ele>
        <time>2023-07-18T09:30:12Z</time>
      </trkpt>
      <trkpt lat="47.39504" lon="0.52517">
        <ele>58.2</ele>
        <time>2023-07-18T09:30:13Z</time>
      </trkpt>
      <trkpt lat="47.39511" lon="0.5252">
        <ele>58</ele>
        <time>2023-07-18T09:30:14Z</time>
      </trkpt>
      <trkpt lat="47.39518" lon="0.52524">
        <ele>58</ele>
        <time>2023-07-18T09:30:15Z</time>
      </trkpt>
      <trkpt lat="47.39524" lon="0.52529">
        <ele>58</ele>
        <time>2023-07-18T09:30:16Z</time>
      </trkpt>
      <trkpt lat="47.3953" lon="0.52535">
        <ele>58</ele>
        <time>2023-07-18T09:30:17Z</time>
      </trkpt>
      <trkpt lat="47.39536" lon="0.52541">
        <ele>58</ele>
        <time>2023-07-18T09:30:18Z</time>
      </trkpt>
      <trkpt lat="47.39542" lon="0.52547">
        <ele>58</ele>
        <time>2023-07-18T09:30:19Z</time>
      </trkpt>
      <trkpt lat="47.39548" lon="0.52554">
        <ele>58</ele>
        <time>2023-07-18T09:30:20Z</time>
      </trkpt>
      <trkpt lat="47.39554" lon="0.52561">
        <ele>58.2</ele>
        <time>2023-07-18T09:30:21Z</time>
      </trkpt>
      <trkpt lat="47.3956" lon="0.52568">
        <ele>58.2</ele>
        <time>2023-07-18T09:30:22Z</time>
      </trkpt>
      <trkpt lat="47.39565" lon="0.52575">
        <ele>58.2</ele>
        <time>2023-07-18T09:30:23Z</time>
      </trkpt>
      <trkpt lat="47.3957" lon="0.52582">
        <ele>58.4</ele>
        <time>2023-07-18T09:30:24Z</time>
      </trkpt>
      <trkpt lat="47.39575" lon="0.52589">
        <ele>58.2</ele>
        <time>2023-07-18T09:30:25Z</time>
      </trkpt>
      <trkpt lat="47.39579" lon="0.52597">
        <ele>58.4</ele>
        <time>2023-07-18T09:30:26Z</time>
      </trkpt>
      <trkpt lat="47.39584" lon="0.52603">
        <ele>58.4</ele>
        <time>2023-07-18T09:30:27Z</time>
      </trkpt>
      <trkpt lat="47.39589" lon="0.52609">
        <ele>58.4</ele>
        <time>2023-07-18T09:30:28Z</time>
      </trkpt>
      <trkpt lat="47.39595" lon="0.52615">
        <ele>58.4</ele>
        <time>2023-07-18T09:30:29Z</time>
      </trkpt>
      <trkpt lat="47.39602" lon="0.5262">
        <ele>58.2</ele>
        <time>2023-07-18T09:30:30Z</time>
      </trkpt>
      <trkpt lat="47.39608" lon="0.52622">
        <ele>58.4</ele>
        <time>2023-07-18T09:30:31Z</time>
      </trkpt>
      <trkpt lat="47.39615" lon="0.52624">
        <ele>58.6</ele>
        <time>2023-07-18T09:30:32Z</time>
      </trkpt>
      <trkpt lat="47.39621" lon="0.52624">
        <ele>58.8</ele>
        <time>2023-07-18T09:30:33Z</time>
      </trkpt>
      <trkpt lat="47.39628" lon="0.52624">
        <ele>58.8</ele>
        <time>2023-07-18T09:30:34Z</time>
      </trkpt>
      <trkpt lat="47.39634" lon="0.52622">
        <ele>59</ele>
        <time>2023-07-18T09:30:35Z</time>
      </trkpt>
      <trkpt lat="47.39641" lon="0.52619">
        <ele>59</ele>
        <time>2023-07-18T09:30:36Z</time>
      </trkpt>
      <trkpt lat="47.39647" lon="0.52614">
        <ele>58.8</ele>
        <time>2023-07-18T09:30:37Z</time>
      </trkpt>
      <trkpt lat="47.39653" lon="0.52609">
        <ele>58.8</ele>
        <time>2023-07-18T09:30:38Z</time>
      </trkpt>
      <trkpt lat="47.39659" lon="0.52606">
        <ele>58.8</ele>
        <time>2023-07-18T09:30:39Z</time>
      </trkpt>
      <trkpt lat="47.39665" lon="0.52602">
        <ele>58.8</ele>
        <time>2023-07-18T09:30:40Z</time>
      </trkpt>
      <trkpt lat="47.39671" lon="0.52598">
        <ele>58.8</ele>
        <time>2023-07-18T09:30:41Z</time>
      </trkpt>
      <trkpt lat="47.39677" lon="0.52594">
        <ele>58.8</ele>
        <time>2023-07-18T09:30:42Z</time>
      </trkpt>
      <trkpt lat="47.39684" lon="0.5259">
        <ele>58.8</ele>
        <time>2023-07-18T09:30:43Z</time>
      </trkpt>
      <trkpt lat="47.3969" lon="0.52586">
        <ele>58.6</ele>
        <time>2023-07-18T09:30:44Z</time>
      </trkpt>
      <trkpt lat="47.39696" lon="0.52582">
        <ele>58.6</ele>
        <time>2023-07-18T09:30:45Z</time>
      </trkpt>
      <trkpt lat="47.39702" lon="0.52578">
        <ele>58.6</ele>
        <time>2023-07-18T09:30:46Z</time>
      </trkpt>
      <trkpt lat="47.39709" lon="0.52575">
        <ele>58.4</ele>
        <time>2023-07-18T09:30:47Z</time>
      </trkpt>
      <trkpt lat="47.39715" lon="0.52571">
        <ele>58.4</ele>
        <time>2023-07-18T09:30:48Z</time>
      </trkpt>
      <trkpt lat="47.39721" lon="0.52567">
        <ele>58.4</ele>
        <time>2023-07-18T09:30:49Z</time>
      </trkpt>
      <trkpt lat="47.39727" lon="0.52563">
        <ele>58.4</ele>
        <time>2023-07-18T09:30:50Z</time>
      </trkpt>
      <trkpt lat="47.39734" lon="0.5256">
        <ele>58.4</ele>
        <time>2023-07-18T09:30:51Z</time>
      </trkpt>
      <trkpt lat="47.3974" lon="0.52556">
        <ele>58.4</ele>
        <time>2023-07-18T09:30:52Z</time>
      </trkpt>
      <trkpt lat="47.39747" lon="0.52553">
        <ele>58.6</ele>
        <time>2023-07-18T09:30:53Z</time>
      </trkpt>
      <trkpt lat="47.39753" lon="0.52549">
        <ele>58.6</ele>
        <time>2023-07-18T09:30:54Z</time>
      </trkpt>
      <trkpt lat="47.39759" lon="0.52545">
        <ele>58.6</ele>
        <time>2023-07-18T09:30:55Z</time>
      </trkpt>
      <trkpt lat="47.39765" lon="0.52541">
        <ele>58.8</ele>
        <time>2023-07-18T09:30:56Z</time>
      </trkpt>
      <trkpt lat="47.39771" lon="0.52537">
        <ele>58.8</ele>
        <time>2023-07-18T09:30:57Z</time>
      </trkpt>
      <trkpt lat="47.39777" lon="0.52533">
        <ele>58.8</ele>
        <time>2023-07-18T09:30:58Z</time>
      </trkpt>
      <trkpt lat="47.39782" lon="0.5253">
        <ele>58.8</ele>
        <time>2023-07-18T09:30:59Z</time>
      </trkpt>
      <trkpt lat="47.39788" lon="0.52526">
        <ele>59</ele>
        <time>2023-07-18T09:31:00Z</time>
      </trkpt>
      <trkpt lat="47.39795" lon="0.52522">
        <ele>59</ele>
        <time>2023-07-18T09:31:01Z</time>
      </trkpt>
      <trkpt lat="47.398" lon="0.52517">
        <ele>59</ele>
        <time>2023-07-18T09:31:02Z</time>
      </trkpt>
      <trkpt lat="47.39806" lon="0.52513">
        <ele>59</ele>
        <time>2023-07-18T09:31:03Z</time>
      </trkpt>
      <trkpt lat="47.39811" lon="0.52509">
        <ele>59</ele>
        <time>2023-07-18T09:31:04Z</time>
      </trkpt>
      <trkpt lat="47.39816" lon="0.52504">
        <ele>58.8</ele>
        <time>2023-07-18T09:31:05Z</time>
      </trkpt>
      <trkpt lat="47.39822" lon="0.525">
        <ele>58.6</ele>
        <time>2023-07-18T09:31:06Z</time>
      </trkpt>
      <trkpt lat="47.39828" lon="0.52496">
        <ele>58.6</ele>
        <time>2023-07-18T09:31:07Z</time>
      </trkpt>
      <trkpt lat="47.39833" lon="0.52492">
        <ele>58.6</ele>
        <time>2023-07-18T09:31:08Z</time>
      </trkpt>
      <trkpt lat="47.3984" lon="0.52487">
        <ele>58.6</ele>
        <time>2023-07-18T09:31:09Z</time>
      </trkpt>
      <trkpt lat="47.39846" lon="0.52483">
        <ele>58.6</ele>
        <time>2023-07-18T09:31:10Z</time>
      </trkpt>
      <trkpt lat="47.39851" lon="0.52479">
        <ele>58.6</ele>
        <time>2023-07-18T09:31:11Z</time>
      </trkpt>
      <trkpt lat="47.39857" lon="0.52475">
        <ele>58.6</ele>
        <time>2023-07-18T09:31:12Z</time>
      </trkpt>
      <trkpt lat="47.39863" lon="0.52471">
        <ele>58.6</ele>
        <time>2023-07-18T09:31:13Z</time>
      </trkpt>
      <trkpt lat="47.39868" lon="0.52466">
        <ele>58.6</ele>
        <time>2023-07-18T09:31:14Z</time>
      </trkpt>
      <trkpt lat="47.39873" lon="0.52462">
        <ele>58.6</ele>
        <time>2023-07-18T09:31:15Z</time>
      </trkpt>
      <trkpt lat="47.39878" lon="0.52458">
        <ele>58.6</ele>
        <time>2023-07-18T09:31:16Z</time>
      </trkpt>
      <trkpt lat="47.39883" lon="0.52454">
        <ele>58.6</ele>
        <time>2023-07-18T09:31:17Z</time>
      </trkpt>
      <trkpt lat="47.39888" lon="0.5245">
        <ele>58.6</ele>
        <time>2023-07-18T09:31:18Z</time>
      </trkpt>
      <trkpt lat="47.39894" lon="0.52446">
        <ele>58.6</ele>
        <time>2023-07-18T09:31:19Z</time>
      </trkpt>
      <trkpt lat="47.39899" lon="0.52442">
        <ele>58.6</ele>
        <time>2023-07-18T09:31:20Z</time>
      </trkpt>
      <trkpt lat="47.39904" lon="0.52438">
        <ele>58.6</ele>
        <time>2023-07-18T09:31:21Z</time>
      </trkpt>
      <trkpt lat="47.3991" lon="0.52433">
        <ele>58.6</ele>
        <time>2023-07-18T09:31:22Z</time>
      </trkpt>
      <trkpt lat="47.39915" lon="0.52429">
        <ele>58.8</ele>
        <time>2023-07-18T09:31:23Z</time>
      </trkpt>
      <trkpt lat="47.3992" lon="0.52425">
        <ele>58.8</ele>
        <time>2023-07-18T09:31:24Z</time>
      </trkpt>
      <trkpt lat="47.39925" lon="0.52421">
        <ele>58.8</ele>
        <time>2023-07-18T09:31:25Z</time>
      </trkpt>
      <trkpt lat="47.3993" lon="0.52418">
        <ele>58.8</ele>
        <time>2023-07-18T09:31:26Z</time>
      </trkpt>
      <trkpt lat="47.39935" lon="0.52414">
        <ele>59</ele>
        <time>2023-07-18T09:31:27Z</time>
      </trkpt>
      <trkpt lat="47.39939" lon="0.52411">
        <ele>59.2</ele>
        <time>2023-07-18T09:31:28Z</time>
      </trkpt>
      <trkpt lat="47.39944" lon="0.52407">
        <ele>59.2</ele>
        <time>2023-07-18T09:31:29Z</time>
      </trkpt>
      <trkpt lat="47.39949" lon="0.52404">
        <ele>59.2</ele>
        <time>2023-07-18T09:31:30Z</time>
      </trkpt>
      <trkpt lat="47.39953" lon="0.52402">
        <ele>59.2</ele>
        <time>2023-07-18T09:31:31Z</time>
      </trkpt>
      <trkpt lat="47.39957" lon="0.524">
        <ele>59.2</ele>
        <time>2023-07-18T09:31:32Z</time>
      </trkpt>
      <trkpt lat="47.39959" lon="0.52401">
        <ele>59.2</ele>
        <time>2023-07-18T09:31:33Z</time>
      </trkpt>
      <trkpt lat="47.39962" lon="0.52404">
        <ele>59.4</ele>
        <time>2023-07-18T09:31:34Z</time>
      </trkpt>
      <trkpt lat="47.39964" lon="0.52408">
        <ele>59.6</ele>
        <time>2023-07-18T09:31:35Z</time>
      </trkpt>
      <trkpt lat="47.39964" lon="0.52413">
        <ele>59.6</ele>
        <time>2023-07-18T09:31:36Z</time>
      </trkpt>
      <trkpt lat="47.39963" lon="0.52418">
        <ele>59.6</ele>
        <time>2023-07-18T09:31:37Z</time>
      </trkpt>
      <trkpt lat="47.39961" lon="0.52424">
        <ele>59.8</ele>
        <time>2023-07-18T09:31:38Z</time>
      </trkpt>
      <trkpt lat="47.39958" lon="0.52431">
        <ele>59.8</ele>
        <time>2023-07-18T09:31:39Z</time>
      </trkpt>
      <trkpt lat="47.39956" lon="0.52438">
        <ele>60</ele>
        <time>2023-07-18T09:31:40Z</time>
      </trkpt>
      <trkpt lat="47.39952" lon="0.52446">
        <ele>60.2</ele>
        <time>2023-07-18T09:31:41Z</time>
      </trkpt>
      <trkpt lat="47.39949" lon="0.52454">
        <ele>60.4</ele>
        <time>2023-07-18T09:31:42Z</time>
      </trkpt>
      <trkpt lat="47.39946" lon="0.52463">
        <ele>60.4</ele>
        <time>2023-07-18T09:31:43Z</time>
      </trkpt>
      <trkpt lat="47.39943" lon="0.52471">
        <ele>60.4</ele>
        <time>2023-07-18T09:31:44Z</time>
      </trkpt>
      <trkpt lat="47.39941" lon="0.52479">
        <ele>60.4</ele>
        <time>2023-07-18T09:31:45Z</time>
      </trkpt>
      <trkpt lat="47.39936" lon="0.52488">
        <ele>60.6</ele>
        <time>2023-07-18T09:31:46Z</time>
      </trkpt>
      <trkpt lat="47.39933" lon="0.52497">
        <ele>60.4</ele>
        <time>2023-07-18T09:31:47Z</time>
      </trkpt>
      <trkpt lat="47.3993" lon="0.52505">
        <ele>60.4</ele>
        <time>2023-07-18T09:31:48Z</time>
      </trkpt>
      <trkpt lat="47.39928" lon="0.52513">
        <ele>60.4</ele>
        <time>2023-07-18T09:31:49Z</time>
      </trkpt>
      <trkpt lat="47.39925" lon="0.52522">
        <ele>60.4</ele>
        <time>2023-07-18T09:31:50Z</time>
      </trkpt>
      <trkpt lat="47.39922" lon="0.52531">
        <ele>60.4</ele>
        <time>2023-07-18T09:31:51Z</time>
      </trkpt>
      <trkpt lat="47.39919" lon="0.5254">
        <ele>60.4</ele>
        <time>2023-07-18T09:31:52Z</time>
      </trkpt>
      <trkpt lat="47.39916" lon="0.52548">
        <ele>60.4</ele>
        <time>2023-07-18T09:31:53Z</time>
      </trkpt>
      <trkpt lat="47.39914" lon="0.52557">
        <ele>60.4</ele>
        <time>2023-07-18T09:31:54Z</time>
      </trkpt>
      <trkpt lat="47.39911" lon="0.52565">
        <ele>60.4</ele>
        <time>2023-07-18T09:31:55Z</time>
      </trkpt>
      <trkpt lat="47.39908" lon="0.52574">
        <ele>60.4</ele>
        <time>2023-07-18T09:31:56Z</time>
      </trkpt>
      <trkpt lat="47.39905" lon="0.52582">
        <ele>60.4</ele>
        <time>2023-07-18T09:31:57Z</time>
      </trkpt>
      <trkpt lat="47.39902" lon="0.5259">
        <ele>60.6</ele>
        <time>2023-07-18T09:31:58Z</time>
      </trkpt>
      <trkpt lat="47.39899" lon="0.52599">
        <ele>60.6</ele>
        <time>2023-07-18T09:31:59Z</time>
      </trkpt>
      <trkpt lat="47.39896" lon="0.52607">
        <ele>60.6</ele>
        <time>2023-07-18T09:32:00Z</time>
      </trkpt>
      <trkpt lat="47.39893" lon="0.52616">
        <ele>60.6</ele>
        <time>2023-07-18T09:32:01Z</time>
      </trkpt>
      <trkpt lat="47.39891" lon="0.52624">
        <ele>60.8</ele>
        <time>2023-07-18T09:32:02Z</time>
      </trkpt>
      <trkpt lat="47.39888" lon="0.52633">
        <ele>60.8</ele>
        <time>2023-07-18T09:32:03Z</time>
      </trkpt>
      <trkpt lat="47.39885" lon="0.52641">
        <ele>60.8</ele>
        <time>2023-07-18T09:32:04Z</time>
      </trkpt>
      <trkpt lat="47.39882" lon="0.52649">
        <ele>60.8</ele>
        <time>2023-07-18T09:32:05Z</time>
      </trkpt>
      <trkpt lat="47.39879" lon="0.52658">
        <ele>60.8</ele>
        <time>2023-07-18T09:32:06Z</time>
      </trkpt>
      <trkpt lat="47.39876" lon="0.52667">
        <ele>60.8</ele>
        <time>2023-07-18T09:32:07Z</time>
      </trkpt>
      <trkpt lat="47.39873" lon="0.52675">
        <ele>60.8</ele>
        <time>2023-07-18T09:32:08Z</time>
      </trkpt>
      <trkpt lat="47.3987" lon="0.52684">
        <ele>61</ele>
        <time>2023-07-18T09:32:09Z</time>
      </trkpt>
      <trkpt lat="47.39868" lon="0.52692">
        <ele>61</ele>
        <time>2023-07-18T09:32:10Z</time>
      </trkpt>
      <trkpt lat="47.39865" lon="0.527">
        <ele>61</ele>
        <time>2023-07-18T09:32:11Z</time>
      </trkpt>
      <trkpt lat="47.39861" lon="0.52708">
        <ele>61</ele>
        <time>2023-07-18T09:32:12Z</time>
      </trkpt>
      <trkpt lat="47.39858" lon="0.52715">
        <ele>61</ele>
        <time>2023-07-18T09:32:13Z</time>
      </trkpt>
      <trkpt lat="47.39854" lon="0.52723">
        <ele>61</ele>
        <time>2023-07-18T09:32:14Z</time>
      </trkpt>
      <trkpt lat="47.3985" lon="0.52731">
        <ele>61</ele>
        <time>2023-07-18T09:32:15Z</time>
      </trkpt>
      <trkpt lat="47.39846" lon="0.52737">
        <ele>61</ele>
        <time>2023-07-18T09:32:16Z</time>
      </trkpt>
      <trkpt lat="47.39841" lon="0.52743">
        <ele>60.8</ele>
        <time>2023-07-18T09:32:17Z</time>
      </trkpt>
      <trkpt lat="47.39836" lon="0.52749">
        <ele>60.8</ele>
        <time>2023-07-18T09:32:18Z</time>
      </trkpt>
      <trkpt lat="47.39831" lon="0.52753">
        <ele>60.8</ele>
        <time>2023-07-18T09:32:19Z</time>
      </trkpt>
      <trkpt lat="47.39825" lon="0.52757">
        <ele>60.8</ele>
        <time>2023-07-18T09:32:20Z</time>
      </trkpt>
      <trkpt lat="47.3982" lon="0.52761">
        <ele>60.8</ele>
        <time>2023-07-18T09:32:21Z</time>
      </trkpt>
      <trkpt lat="47.39815" lon="0.52763">
        <ele>60.8</ele>
        <time>2023-07-18T09:32:22Z</time>
      </trkpt>
      <trkpt lat="47.39811" lon="0.52767">
        <ele>60.8</ele>
        <time>2023-07-18T09:32:23Z</time>
      </trkpt>
      <trkpt lat="47.39806" lon="0.52772">
        <ele>61</ele>
        <time>2023-07-18T09:32:24Z</time>
      </trkpt>
      <trkpt lat="47.39804" lon="0.52776">
        <ele>61</ele>
        <time>2023-07-18T09:32:25Z</time>
      </trkpt>
      <trkpt lat="47.39804" lon="0.52781">
        <ele>61.4</ele>
        <time>2023-07-18T09:32:26Z</time>
      </trkpt>
      <trkpt lat="47.39805" lon="0.52786">
        <ele>61.6</ele>
        <time>2023-07-18T09:32:27Z</time>
      </trkpt>
      <trkpt lat="47.39807" lon="0.52788">
        <ele>61.8</ele>
        <time>2023-07-18T09:32:28Z</time>
      </trkpt>
      <trkpt lat="47.39811" lon="0.5279">
        <ele>62</ele>
        <time>2023-07-18T09:32:29Z</time>
      </trkpt>
      <trkpt lat="47.39814" lon="0.52791">
        <ele>62.4</ele>
        <time>2023-07-18T09:32:30Z</time>
      </trkpt>
      <trkpt lat="47.39817" lon="0.52792">
        <ele>62.6</ele>
        <time>2023-07-18T09:32:31Z</time>
      </trkpt>
      <trkpt lat="47.39821" lon="0.52794">
        <ele>62.8</ele>
        <time>2023-07-18T09:32:32Z</time>
      </trkpt>
      <trkpt lat="47.39824" lon="0.52795">
        <ele>63</ele>
        <time>2023-07-18T09:32:33Z</time>
      </trkpt>
      <trkpt lat="47.39828" lon="0.52795">
        <ele>63.2</ele>
        <time>2023-07-18T09:32:34Z</time>
      </trkpt>
      <trkpt lat="47.39834" lon="0.52795">
        <ele>63.4</ele>
        <time>2023-07-18T09:32:35Z</time>
      </trkpt>
      <trkpt lat="47.39839" lon="0.52794">
        <ele>63.6</ele>
        <time>2023-07-18T09:32:36Z</time>
      </trkpt>
      <trkpt lat="47.39845" lon="0.52793">
        <ele>63.8</ele>
        <time>2023-07-18T09:32:37Z</time>
      </trkpt>
      <trkpt lat="47.3985" lon="0.52791">
        <ele>64</ele>
        <time>2023-07-18T09:32:38Z</time>
      </trkpt>
      <trkpt lat="47.39856" lon="0.5279">
        <ele>64.2</ele>
        <time>2023-07-18T09:32:39Z</time>
      </trkpt>
      <trkpt lat="47.39861" lon="0.5279">
        <ele>64.4</ele>
        <time>2023-07-18T09:32:40Z</time>
      </trkpt>
      <trkpt lat="47.39867" lon="0.5279">
        <ele>64.8</ele>
        <time>2023-07-18T09:32:41Z</time>
      </trkpt>
      <trkpt lat="47.39872" lon="0.5279">
        <ele>65</ele>
        <time>2023-07-18T09:32:42Z</time>
      </trkpt>
      <trkpt lat="47.39879" lon="0.52791">
        <ele>65.2</ele>
        <time>2023-07-18T09:32:43Z</time>
      </trkpt>
      <trkpt lat="47.39885" lon="0.52793">
        <ele>65.4</ele>
        <time>2023-07-18T09:32:44Z</time>
      </trkpt>
      <trkpt lat="47.39891" lon="0.52794">
        <ele>65.4</ele>
        <time>2023-07-18T09:32:45Z</time>
      </trkpt>
      <trkpt lat="47.39896" lon="0.52796">
        <ele>65.4</ele>
        <time>2023-07-18T09:32:46Z</time>
      </trkpt>
      <trkpt lat="47.39902" lon="0.52798">
        <ele>65.6</ele>
        <time>2023-07-18T09:32:47Z</time>
      </trkpt>
      <trkpt lat="47.39908" lon="0.528">
        <ele>65.6</ele>
        <time>2023-07-18T09:32:48Z</time>
      </trkpt>
      <trkpt lat="47.39914" lon="0.52802">
        <ele>65.6</ele>
        <time>2023-07-18T09:32:49Z</time>
      </trkpt>
      <trkpt lat="47.3992" lon="0.52804">
        <ele>65.8</ele>
        <time>2023-07-18T09:32:50Z</time>
      </trkpt>
      <trkpt lat="47.39926" lon="0.52806">
        <ele>66</ele>
        <time>2023-07-18T09:32:51Z</time>
      </trkpt>
      <trkpt lat="47.39931" lon="0.52808">
        <ele>66</ele>
        <time>2023-07-18T09:32:52Z</time>
      </trkpt>
      <trkpt lat="47.39937" lon="0.5281">
        <ele>66.2</ele>
        <time>2023-07-18T09:32:53Z</time>
      </trkpt>
      <trkpt lat="47.39943" lon="0.52812">
        <ele>66.4</ele>
        <time>2023-07-18T09:32:54Z</time>
      </trkpt>
      <trkpt lat="47.39949" lon="0.52814">
        <ele>66.6</ele>
        <time>2023-07-18T09:32:55Z</time>
      </trkpt>
      <trkpt lat="47.39954" lon="0.52816">
        <ele>66.6</ele>
        <time>2023-07-18T09:32:56Z</time>
      </trkpt>
      <trkpt lat="47.3996" lon="0.52818">
        <ele>66.4</ele>
        <time>2023-07-18T09:32:57Z</time>
      </trkpt>
      <trkpt lat="47.39966" lon="0.5282">
        <ele>66.6</ele>
        <time>2023-07-18T09:32:58Z</time>
      </trkpt>
      <trkpt lat="47.39972" lon="0.52821">
        <ele>66.6</ele>
        <time>2023-07-18T09:32:59Z</time>
      </trkpt>
      <trkpt lat="47.39979" lon="0.52822">
        <ele>66.8</ele>
        <time>2023-07-18T09:33:00Z</time>
      </trkpt>
      <trkpt lat="47.39985" lon="0.52823">
        <ele>66.8</ele>
        <time>2023-07-18T09:33:01Z</time>
      </trkpt>
      <trkpt lat="47.39991" lon="0.52821">
        <ele>67</ele>
        <time>2023-07-18T09:33:02Z</time>
      </trkpt>
      <trkpt lat="47.39998" lon="0.52818">
        <ele>67</ele>
        <time>2023-07-18T09:33:03Z</time>
      </trkpt>
      <trkpt lat="47.40004" lon="0.52814">
        <ele>67</ele>
        <time>2023-07-18T09:33:04Z</time>
      </trkpt>
      <trkpt lat="47.4001" lon="0.5281">
        <ele>66.6</ele>
        <time>2023-07-18T09:33:05Z</time>
      </trkpt>
      <trkpt lat="47.40016" lon="0.52806">
        <ele>66.6</ele>
        <time>2023-07-18T09:33:06Z</time>
      </trkpt>
      <trkpt lat="47.40023" lon="0.52802">
        <ele>66.6</ele>
        <time>2023-07-18T09:33:07Z</time>
      </trkpt>
      <trkpt lat="47.40029" lon="0.52797">
        <ele>66.4</ele>
        <time>2023-07-18T09:33:08Z</time>
      </trkpt>
      <trkpt lat="47.40036" lon="0.52793">
        <ele>66.2</ele>
        <time>2023-07-18T09:33:09Z</time>
      </trkpt>
      <trkpt lat="47.40042" lon="0.52789">
        <ele>66</ele>
        <time>2023-07-18T09:33:10Z</time>
      </trkpt>
      <trkpt lat="47.40049" lon="0.52784">
        <ele>65.8</ele>
        <time>2023-07-18T09:33:11Z</time>
      </trkpt>
      <trkpt lat="47.40055" lon="0.52779">
        <ele>65.4</ele>
        <time>2023-07-18T09:33:12Z</time>
      </trkpt>
      <trkpt lat="47.40061" lon="0.52774">
        <ele>65</ele>
        <time>2023-07-18T09:33:13Z</time>
      </trkpt>
      <trkpt lat="47.40067" lon="0.52768">
        <ele>64.6</ele>
        <time>2023-07-18T09:33:14Z</time>
      </trkpt>
      <trkpt lat="47.40073" lon="0.52762">
        <ele>64.2</ele>
        <time>2023-07-18T09:33:15Z</time>
      </trkpt>
      <trkpt lat="47.4008" lon="0.52756">
        <ele>63.8</ele>
        <time>2023-07-18T09:33:16Z</time>
      </trkpt>
      <trkpt lat="47.40085" lon="0.5275">
        <ele>63.6</ele>
        <time>2023-07-18T09:33:17Z</time>
      </trkpt>
      <trkpt lat="47.40091" lon="0.52743">
        <ele>63.4</ele>
        <time>2023-07-18T09:33:18Z</time>
      </trkpt>
      <trkpt lat="47.40097" lon="0.52737">
        <ele>63.4</ele>
        <time>2023-07-18T09:33:19Z</time>
      </trkpt>
      <trkpt lat="47.40102" lon="0.5273">
        <ele>63.2</ele>
        <time>2023-07-18T09:33:20Z</time>
      </trkpt>
      <trkpt lat="47.40107" lon="0.52722">
        <ele>63</ele>
        <time>2023-07-18T09:33:21Z</time>
      </trkpt>
      <trkpt lat="47.40112" lon="0.52715">
        <ele>62.6</ele>
        <time>2023-07-18T09:33:22Z</time>
      </trkpt>
      <trkpt lat="47.40117" lon="0.52707">
        <ele>62.4</ele>
        <time>2023-07-18T09:33:23Z</time>
      </trkpt>
      <trkpt lat="47.40122" lon="0.52699">
        <ele>62.2</ele>
        <time>2023-07-18T09:33:24Z</time>
      </trkpt>
      <trkpt lat="47.40126" lon="0.52691">
        <ele>62.2</ele>
        <time>2023-07-18T09:33:25Z</time>
      </trkpt>
      <trkpt lat="47.40132" lon="0.52682">
        <ele>62.2</ele>
        <time>2023-07-18T09:33:26Z</time>
      </trkpt>
      <trkpt lat="47.40137" lon="0.52674">
        <ele>62.2</ele>
        <time>2023-07-18T09:33:27Z</time>
      </trkpt>
      <trkpt lat="47.40142" lon="0.52667">
        <ele>62.4</ele>
        <time>2023-07-18T09:33:28Z</time>
      </trkpt>
      <trkpt lat="47.40146" lon="0.52659">
        <ele>62.4</ele>
        <time>2023-07-18T09:33:29Z</time>
      </trkpt>
      <trkpt lat="47.4015" lon="0.52651">
        <ele>62.2</ele>
        <time>2023-07-18T09:33:30Z</time>
      </trkpt>
      <trkpt lat="47.40155" lon="0.52643">
        <ele>62.2</ele>
        <time>2023-07-18T09:33:31Z</time>
      </trkpt>
      <trkpt lat="47.40159" lon="0.52636">
        <ele>62</ele>
        <time>2023-07-18T09:33:32Z</time>
      </trkpt>
      <trkpt lat="47.40164" lon="0.5263">
        <ele>61.6</ele>
        <time>2023-07-18T09:33:33Z</time>
      </trkpt>
      <trkpt lat="47.4017" lon="0.52626">
        <ele>61.4</ele>
        <time>2023-07-18T09:33:34Z</time>
      </trkpt>
      <trkpt lat="47.40175" lon="0.52626">
        <ele>61.2</ele>
        <time>2023-07-18T09:33:35Z</time>
      </trkpt>
      <trkpt lat="47.4018" lon="0.52629">
        <ele>61</ele>
        <time>2023-07-18T09:33:36Z</time>
      </trkpt>
      <trkpt lat="47.40184" lon="0.52635">
        <ele>60.8</ele>
        <time>2023-07-18T09:33:37Z</time>
      </trkpt>
      <trkpt lat="47.40186" lon="0.52642">
        <ele>60.6</ele>
        <time>2023-07-18T09:33:38Z</time>
      </trkpt>
      <trkpt lat="47.40187" lon="0.52649">
        <ele>60.4</ele>
        <time>2023-07-18T09:33:39Z</time>
      </trkpt>
      <trkpt lat="47.40188" lon="0.52656">
        <ele>60.4</ele>
        <time>2023-07-18T09:33:40Z</time>
      </trkpt>
      <trkpt lat="47.4019" lon="0.52664">
        <ele>60.6</ele>
        <time>2023-07-18T09:33:41Z</time>
      </trkpt>
      <trkpt lat="47.40191" lon="0.52671">
        <ele>60.6</ele>
        <time>2023-07-18T09:33:42Z</time>
      </trkpt>
      <trkpt lat="47.40192" lon="0.52679">
        <ele>60.8</ele>
        <time>2023-07-18T09:33:43Z</time>
      </trkpt>
      <trkpt lat="47.40193" lon="0.52688">
        <ele>61</ele>
        <time>2023-07-18T09:33:44Z</time>
      </trkpt>
      <trkpt lat="47.40194" lon="0.52696">
        <ele>61.2</ele>
        <time>2023-07-18T09:33:45Z</time>
      </trkpt>
      <trkpt lat="47.40195" lon="0.52705">
        <ele>61.4</ele>
        <time>2023-07-18T09:33:46Z</time>
      </trkpt>
      <trkpt lat="47.40197" lon="0.52713">
        <ele>61.6</ele>
        <time>2023-07-18T09:33:47Z</time>
      </trkpt>
      <trkpt lat="47.40198" lon="0.52721">
        <ele>61.8</ele>
        <time>2023-07-18T09:33:48Z</time>
      </trkpt>
      <trkpt lat="47.40199" lon="0.52729">
        <ele>62</ele>
        <time>2023-07-18T09:33:49Z</time>
      </trkpt>
      <trkpt lat="47.402" lon="0.52737">
        <ele>62.2</ele>
        <time>2023-07-18T09:33:50Z</time>
      </trkpt>
      <trkpt lat="47.40202" lon="0.52744">
        <ele>62.6</ele>
        <time>2023-07-18T09:33:51Z</time>
      </trkpt>
      <trkpt lat="47.40204" lon="0.5275">
        <ele>62.8</ele>
        <time>2023-07-18T09:33:52Z</time>
      </trkpt>
      <trkpt lat="47.40208" lon="0.52756">
        <ele>63</ele>
        <time>2023-07-18T09:33:53Z</time>
      </trkpt>
      <trkpt lat="47.40212" lon="0.52761">
        <ele>63.4</ele>
        <time>2023-07-18T09:33:54Z</time>
      </trkpt>
      <trkpt lat="47.40216" lon="0.52764">
        <ele>63.8</ele>
        <time>2023-07-18T09:33:55Z</time>
      </trkpt>
      <trkpt lat="47.40221" lon="0.52767">
        <ele>64</ele>
        <time>2023-07-18T09:33:56Z</time>
      </trkpt>
      <trkpt lat="47.40225" lon="0.52768">
        <ele>64.4</ele>
        <time>2023-07-18T09:33:57Z</time>
      </trkpt>
      <trkpt lat="47.40231" lon="0.52769">
        <ele>64.8</ele>
        <time>2023-07-18T09:33:58Z</time>
      </trkpt>
      <trkpt lat="47.40235" lon="0.52769">
        <ele>65.2</ele>
        <time>2023-07-18T09:33:59Z</time>
      </trkpt>
      <trkpt lat="47.4024" lon="0.52769">
        <ele>65.4</ele>
        <time>2023-07-18T09:34:00Z</time>
      </trkpt>
      <trkpt lat="47.40245" lon="0.52769">
        <ele>65.8</ele>
        <time>2023-07-18T09:34:01Z</time>
      </trkpt>
      <trkpt lat="47.4025" lon="0.5277">
        <ele>66.2</ele>
        <time>2023-07-18T09:34:02Z</time>
      </trkpt>
      <trkpt lat="47.40256" lon="0.5277">
        <ele>66.4</ele>
        <time>2023-07-18T09:34:03Z</time>
      </trkpt>
      <trkpt lat="47.4026" lon="0.52771">
        <ele>66.8</ele>
        <time>2023-07-18T09:34:04Z</time>
      </trkpt>
      <trkpt lat="47.40266" lon="0.52771">
        <ele>67</ele>
        <time>2023-07-18T09:34:05Z</time>
      </trkpt>
      <trkpt lat="47.4027" lon="0.5277">
        <ele>67.2</ele>
        <time>2023-07-18T09:34:06Z</time>
      </trkpt>
      <trkpt lat="47.40275" lon="0.5277">
        <ele>67.4</ele>
        <time>2023-07-18T09:34:07Z</time>
      </trkpt>
      <trkpt lat="47.4028" lon="0.5277">
        <ele>67.6</ele>
        <time>2023-07-18T09:34:08Z</time>
      </trkpt>
      <trkpt lat="47.40286" lon="0.5277">
        <ele>67.8</ele>
        <time>2023-07-18T09:34:09Z</time>
      </trkpt>
      <trkpt lat="47.40292" lon="0.52769">
        <ele>67.8</ele>
        <time>2023-07-18T09:34:10Z</time>
      </trkpt>
      <trkpt lat="47.40297" lon="0.52769">
        <ele>68</ele>
        <time>2023-07-18T09:34:11Z</time>
      </trkpt>
      <trkpt lat="47.40303" lon="0.52768">
        <ele>68.2</ele>
        <time>2023-07-18T09:34:12Z</time>
      </trkpt>
      <trkpt lat="47.40308" lon="0.52766">
        <ele>68.2</ele>
        <time>2023-07-18T09:34:13Z</time>
      </trkpt>
      <trkpt lat="47.40313" lon="0.52764">
        <ele>68.2</ele>
        <time>2023-07-18T09:34:14Z</time>
      </trkpt>
      <trkpt lat="47.40318" lon="0.52762">
        <ele>68.4</ele>
        <time>2023-07-18T09:34:15Z</time>
      </trkpt>
      <trkpt lat="47.40323" lon="0.52759">
        <ele>68.2</ele>
        <time>2023-07-18T09:34:16Z</time>
      </trkpt>
      <trkpt lat="47.40328" lon="0.52758">
        <ele>68.2</ele>
        <time>2023-07-18T09:34:17Z</time>
      </trkpt>
      <trkpt lat="47.40332" lon="0.52756">
        <ele>68.2</ele>
        <time>2023-07-18T09:34:18Z</time>
      </trkpt>
      <trkpt lat="47.40337" lon="0.52754">
        <ele>68.2</ele>
        <time>2023-07-18T09:34:19Z</time>
      </trkpt>
      <trkpt lat="47.40343" lon="0.52751">
        <ele>68</ele>
        <time>2023-07-18T09:34:20Z</time>
      </trkpt>
      <trkpt lat="47.40348" lon="0.52747">
        <ele>68</ele>
        <time>2023-07-18T09:34:21Z</time>
      </trkpt>
      <trkpt lat="47.40354" lon="0.52744">
        <ele>67.8</ele>
        <time>2023-07-18T09:34:22Z</time>
      </trkpt>
      <trkpt lat="47.4036" lon="0.5274">
        <ele>67.8</ele>
        <time>2023-07-18T09:34:23Z</time>
      </trkpt>
      <trkpt lat="47.40366" lon="0.52736">
        <ele>67.6</ele>
        <time>2023-07-18T09:34:24Z</time>
      </trkpt>
      <trkpt lat="47.40372" lon="0.52731">
        <ele>67.4</ele>
        <time>2023-07-18T09:34:25Z</time>
      </trkpt>
      <trkpt lat="47.40378" lon="0.52727">
        <ele>67.2</ele>
        <time>2023-07-18T09:34:26Z</time>
      </trkpt>
      <trkpt lat="47.40383" lon="0.52722">
        <ele>67</ele>
        <time>2023-07-18T09:34:27Z</time>
      </trkpt>
      <trkpt lat="47.4039" lon="0.52716">
        <ele>66.8</ele>
        <time>2023-07-18T09:34:28Z</time>
      </trkpt>
      <trkpt lat="47.40396" lon="0.52709">
        <ele>66.6</ele>
        <time>2023-07-18T09:34:29Z</time>
      </trkpt>
      <trkpt lat="47.40402" lon="0.52703">
        <ele>66.4</ele>
        <time>2023-07-18T09:34:30Z</time>
      </trkpt>
      <trkpt lat="47.40409" lon="0.52697">
        <ele>66.2</ele>
        <time>2023-07-18T09:34:31Z</time>
      </trkpt>
      <trkpt lat="47.40415" lon="0.52691">
        <ele>65.8</ele>
        <time>2023-07-18T09:34:32Z</time>
      </trkpt>
      <trkpt lat="47.40422" lon="0.52685">
        <ele>65.4</ele>
        <time>2023-07-18T09:34:33Z</time>
      </trkpt>
      <trkpt lat="47.40428" lon="0.5268">
        <ele>65</ele>
        <time>2023-07-18T09:34:34Z</time>
      </trkpt>
      <trkpt lat="47.40435" lon="0.52675">
        <ele>64.8</ele>
        <time>2023-07-18T09:34:35Z</time>
      </trkpt>
      <trkpt lat="47.40443" lon="0.5267">
        <ele>64.8</ele>
        <time>2023-07-18T09:34:36Z</time>
      </trkpt>
      <trkpt lat="47.4045" lon="0.52665">
        <ele>64.6</ele>
        <time>2023-07-18T09:34:37Z</time>
      </trkpt>
      <trkpt lat="47.40458" lon="0.52662">
        <ele>64.6</ele>
        <time>2023-07-18T09:34:38Z</time>
      </trkpt>
      <trkpt lat="47.40464" lon="0.52657">
        <ele>64.6</ele>
        <time>2023-07-18T09:34:39Z</time>
      </trkpt>
      <trkpt lat="47.40471" lon="0.52653">
        <ele>64.6</ele>
        <time>2023-07-18T09:34:40Z</time>
      </trkpt>
      <trkpt lat="47.40478" lon="0.5265">
        <ele>64.6</ele>
        <time>2023-07-18T09:34:41Z</time>
      </trkpt>
      <trkpt lat="47.40485" lon="0.52646">
        <ele>64.6</ele>
        <time>2023-07-18T09:34:42Z</time>
      </trkpt>
      <trkpt lat="47.40491" lon="0.52643">
        <ele>64.6</ele>
        <time>2023-07-18T09:34:43Z</time>
      </trkpt>
      <trkpt lat="47.40498" lon="0.5264">
        <ele>64.6</ele>
        <time>2023-07-18T09:34:44Z</time>
      </trkpt>
      <trkpt lat="47.40504" lon="0.52638">
        <ele>64.6</ele>
        <time>2023-07-18T09:34:45Z</time>
      </trkpt>
      <trkpt lat="47.40511" lon="0.52636">
        <ele>64.6</ele>
        <time>2023-07-18T09:34:46Z</time>
      </trkpt>
      <trkpt lat="47.40517" lon="0.52635">
        <ele>64.8</ele>
        <time>2023-07-18T09:34:47Z</time>
      </trkpt>
      <trkpt lat="47.40523" lon="0.52634">
        <ele>64.8</ele>
        <time>2023-07-18T09:34:48Z</time>
      </trkpt>
      <trkpt lat="47.40529" lon="0.52633">
        <ele>64.8</ele>
        <time>2023-07-18T09:34:49Z</time>
      </trkpt>
      <trkpt lat="47.40535" lon="0.52632">
        <ele>65</ele>
        <time>2023-07-18T09:34:50Z</time>
      </trkpt>
      <trkpt lat="47.40541" lon="0.52631">
        <ele>65</ele>
        <time>2023-07-18T09:34:51Z</time>
      </trkpt>
      <trkpt lat="47.40548" lon="0.52631">
        <ele>65.2</ele>
        <time>2023-07-18T09:34:52Z</time>
      </trkpt>
      <trkpt lat="47.40554" lon="0.52632">
        <ele>65.2</ele>
        <time>2023-07-18T09:34:53Z</time>
      </trkpt>
      <trkpt lat="47.40561" lon="0.52633">
        <ele>65.4</ele>
        <time>2023-07-18T09:34:54Z</time>
      </trkpt>
      <trkpt lat="47.40567" lon="0.52635">
        <ele>65.6</ele>
        <time>2023-07-18T09:34:55Z</time>
      </trkpt>
      <trkpt lat="47.40573" lon="0.52637">
        <ele>65.4</ele>
        <time>2023-07-18T09:34:56Z</time>
      </trkpt>
      <trkpt lat="47.4058" lon="0.52639">
        <ele>65.4</ele>
        <time>2023-07-18T09:34:57Z</time>
      </trkpt>
      <trkpt lat="47.40586" lon="0.52642">
        <ele>65.2</ele>
        <time>2023-07-18T09:34:58Z</time>
      </trkpt>
      <trkpt lat="47.40593" lon="0.52645">
        <ele>65.2</ele>
        <time>2023-07-18T09:34:59Z</time>
      </trkpt>
      <trkpt lat="47.40599" lon="0.52647">
        <ele>65</ele>
        <time>2023-07-18T09:35:00Z</time>
      </trkpt>
      <trkpt lat="47.40607" lon="0.52649">
        <ele>65</ele>
        <time>2023-07-18T09:35:01Z</time>
      </trkpt>
      <trkpt lat="47.40614" lon="0.5265">
        <ele>65</ele>
        <time>2023-07-18T09:35:02Z</time>
      </trkpt>
      <trkpt lat="47.40622" lon="0.52649">
        <ele>64.8</ele>
        <time>2023-07-18T09:35:03Z</time>
      </trkpt>
      <trkpt lat="47.40629" lon="0.52648">
        <ele>64.8</ele>
        <time>2023-07-18T09:35:04Z</time>
      </trkpt>
      <trkpt lat="47.40635" lon="0.52647">
        <ele>65</ele>
        <time>2023-07-18T09:35:05Z</time>
      </trkpt>
      <trkpt lat="47.40641" lon="0.52644">
        <ele>65</ele>
        <time>2023-07-18T09:35:06Z</time>
      </trkpt>
      <trkpt lat="47.40648" lon="0.52642">
        <ele>65</ele>
        <time>2023-07-18T09:35:07Z</time>
      </trkpt>
      <trkpt lat="47.40653" lon="0.52642">
        <ele>65</ele>
        <time>2023-07-18T09:35:08Z</time>
      </trkpt>
      <trkpt lat="47.40659" lon="0.52645">
        <ele>65.2</ele>
        <time>2023-07-18T09:35:09Z</time>
      </trkpt>
      <trkpt lat="47.40663" lon="0.52649">
        <ele>65.2</ele>
        <time>2023-07-18T09:35:10Z</time>
      </trkpt>
      <trkpt lat="47.40665" lon="0.52654">
        <ele>65.4</ele>
        <time>2023-07-18T09:35:11Z</time>
      </trkpt>
      <trkpt lat="47.40666" lon="0.52661">
        <ele>65.6</ele>
        <time>2023-07-18T09:35:12Z</time>
      </trkpt>
      <trkpt lat="47.40667" lon="0.52669">
        <ele>65.8</ele>
        <time>2023-07-18T09:35:13Z</time>
      </trkpt>
      <trkpt lat="47.40668" lon="0.52677">
        <ele>66</ele>
        <time>2023-07-18T09:35:14Z</time>
      </trkpt>
      <trkpt lat="47.40669" lon="0.52685">
        <ele>66.4</ele>
        <time>2023-07-18T09:35:15Z</time>
      </trkpt>
      <trkpt lat="47.40671" lon="0.52693">
        <ele>66.6</ele>
        <time>2023-07-18T09:35:16Z</time>
      </trkpt>
      <trkpt lat="47.40672" lon="0.52701">
        <ele>67</ele>
        <time>2023-07-18T09:35:17Z</time>
      </trkpt>
      <trkpt lat="47.40673" lon="0.52709">
        <ele>67.2</ele>
        <time>2023-07-18T09:35:18Z</time>
      </trkpt>
      <trkpt lat="47.40675" lon="0.52717">
        <ele>67.4</ele>
        <time>2023-07-18T09:35:19Z</time>
      </trkpt>
      <trkpt lat="47.40675" lon="0.52725">
        <ele>67.4</ele>
        <time>2023-07-18T09:35:20Z</time>
      </trkpt>
      <trkpt lat="47.40676" lon="0.52733">
        <ele>67.6</ele>
        <time>2023-07-18T09:35:21Z</time>
      </trkpt>
      <trkpt lat="47.40678" lon="0.52741">
        <ele>67.8</ele>
        <time>2023-07-18T09:35:22Z</time>
      </trkpt>
      <trkpt lat="47.40679" lon="0.52749">
        <ele>67.8</ele>
        <time>2023-07-18T09:35:23Z</time>
      </trkpt>
      <trkpt lat="47.40681" lon="0.52757">
        <ele>68</ele>
        <time>2023-07-18T09:35:24Z</time>
      </trkpt>
      <trkpt lat="47.40682" lon="0.52765">
        <ele>68</ele>
        <time>2023-07-18T09:35:25Z</time>
      </trkpt>
      <trkpt lat="47.40684" lon="0.52774">
        <ele>68</ele>
        <time>2023-07-18T09:35:26Z</time>
      </trkpt>
      <trkpt lat="47.40685" lon="0.52781">
        <ele>68</ele>
        <time>2023-07-18T09:35:27Z</time>
      </trkpt>
      <trkpt lat="47.40687" lon="0.52788">
        <ele>68.2</ele>
        <time>2023-07-18T09:35:28Z</time>
      </trkpt>
      <trkpt lat="47.40688" lon="0.52796">
        <ele>68.4</ele>
        <time>2023-07-18T09:35:29Z</time>
      </trkpt>
      <trkpt lat="47.40689" lon="0.52804">
        <ele>68.6</ele>
        <time>2023-07-18T09:35:30Z</time>
      </trkpt>
      <trkpt lat="47.40691" lon="0.52812">
        <ele>68.8</ele>
        <time>2023-07-18T09:35:31Z</time>
      </trkpt>
      <trkpt lat="47.40691" lon="0.5282">
        <ele>69</ele>
        <time>2023-07-18T09:35:32Z</time>
      </trkpt>
      <trkpt lat="47.40693" lon="0.52829">
        <ele>69.2</ele>
        <time>2023-07-18T09:35:33Z</time>
      </trkpt>
      <trkpt lat="47.40693" lon="0.52837">
        <ele>69.4</ele>
        <time>2023-07-18T09:35:34Z</time>
      </trkpt>
      <trkpt lat="47.40694" lon="0.52845">
        <ele>69.4</ele>
        <time>2023-07-18T09:35:35Z</time>
      </trkpt>
      <trkpt lat="47.40695" lon="0.52853">
        <ele>69.6</ele>
        <time>2023-07-18T09:35:36Z</time>
      </trkpt>
      <trkpt lat="47.40696" lon="0.5286">
        <ele>69.6</ele>
        <time>2023-07-18T09:35:37Z</time>
      </trkpt>
      <trkpt lat="47.40697" lon="0.52868">
        <ele>69.8</ele>
        <time>2023-07-18T09:35:38Z</time>
      </trkpt>
      <trkpt lat="47.40698" lon="0.52876">
        <ele>70</ele>
        <time>2023-07-18T09:35:39Z</time>
      </trkpt>
      <trkpt lat="47.40699" lon="0.52884">
        <ele>70</ele>
        <time>2023-07-18T09:35:40Z</time>
      </trkpt>
      <trkpt lat="47.407" lon="0.52891">
        <ele>70.2</ele>
        <time>2023-07-18T09:35:41Z</time>
      </trkpt>
      <trkpt lat="47.40701" lon="0.52899">
        <ele>70.2</ele>
        <time>2023-07-18T09:35:42Z</time>
      </trkpt>
      <trkpt lat="47.40702" lon="0.52906">
        <ele>70.4</ele>
        <time>2023-07-18T09:35:43Z</time>
      </trkpt>
      <trkpt lat="47.40704" lon="0.52914">
        <ele>70.4</ele>
        <time>2023-07-18T09:35:44Z</time>
      </trkpt>
      <trkpt lat="47.40705" lon="0.52922">
        <ele>70.6</ele>
        <time>2023-07-18T09:35:45Z</time>
      </trkpt>
      <trkpt lat="47.40707" lon="0.5293">
        <ele>70.4</ele>
        <time>2023-07-18T09:35:46Z</time>
      </trkpt>
      <trkpt lat="47.40708" lon="0.52938">
        <ele>70.4</ele>
        <time>2023-07-18T09:35:47Z</time>
      </trkpt>
      <trkpt lat="47.4071" lon="0.52945">
        <ele>70.6</ele>
        <time>2023-07-18T09:35:48Z</time>
      </trkpt>
      <trkpt lat="47.40712" lon="0.52953">
        <ele>70.8</ele>
        <time>2023-07-18T09:35:49Z</time>
      </trkpt>
      <trkpt lat="47.40714" lon="0.5296">
        <ele>71</ele>
        <time>2023-07-18T09:35:50Z</time>
      </trkpt>
      <trkpt lat="47.40716" lon="0.52968">
        <ele>71.2</ele>
        <time>2023-07-18T09:35:51Z</time>
      </trkpt>
      <trkpt lat="47.40719" lon="0.52974">
        <ele>71.2</ele>
        <time>2023-07-18T09:35:52Z</time>
      </trkpt>
      <trkpt lat="47.40722" lon="0.52982">
        <ele>71.2</ele>
        <time>2023-07-18T09:35:53Z</time>
      </trkpt>
      <trkpt lat="47.40725" lon="0.52988">
        <ele>71.2</ele>
        <time>2023-07-18T09:35:54Z</time>
      </trkpt>
      <trkpt lat="47.40727" lon="0.52995">
        <ele>71.2</ele>
        <time>2023-07-18T09:35:55Z</time>
      </trkpt>
      <trkpt lat="47.4073" lon="0.53001">
        <ele>71.2</ele>
        <time>2023-07-18T09:35:56Z</time>
      </trkpt>
      <trkpt lat="47.40733" lon="0.53007">
        <ele>71.2</ele>
        <time>2023-07-18T09:35:57Z</time>
      </trkpt>
      <trkpt lat="47.40736" lon="0.53013">
        <ele>71.4</ele>
        <time>2023-07-18T09:35:58Z</time>
      </trkpt>
      <trkpt lat="47.40738" lon="0.53018">
        <ele>71.4</ele>
        <time>2023-07-18T09:35:59Z</time>
      </trkpt>
      <trkpt lat="47.4074" lon="0.53024">
        <ele>71.6</ele>
        <time>2023-07-18T09:36:00Z</time>
      </trkpt>
      <trkpt lat="47.40742" lon="0.5303">
        <ele>71.6</ele>
        <time>2023-07-18T09:36:01Z</time>
      </trkpt>
      <trkpt lat="47.40745" lon="0.53036">
        <ele>71.8</ele>
        <time>2023-07-18T09:36:02Z</time>
      </trkpt>
      <trkpt lat="47.40749" lon="0.53042">
        <ele>71.8</ele>
        <time>2023-07-18T09:36:03Z</time>
      </trkpt>
      <trkpt lat="47.40753" lon="0.53048">
        <ele>72</ele>
        <time>2023-07-18T09:36:04Z</time>
      </trkpt>
      <trkpt lat="47.40757" lon="0.53054">
        <ele>72.2</ele>
        <time>2023-07-18T09:36:05Z</time>
      </trkpt>
      <trkpt lat="47.4076" lon="0.53061">
        <ele>72.6</ele>
        <time>2023-07-18T09:36:06Z</time>
      </trkpt>
      <trkpt lat="47.40762" lon="0.53067">
        <ele>72.6</ele>
        <time>2023-07-18T09:36:07Z</time>
      </trkpt>
      <trkpt lat="47.40763" lon="0.53073">
        <ele>72.8</ele>
        <time>2023-07-18T09:36:08Z</time>
      </trkpt>
      <trkpt lat="47.40765" lon="0.5308">
        <ele>72.6</ele>
        <time>2023-07-18T09:36:09Z</time>
      </trkpt>
      <trkpt lat="47.40767" lon="0.53085">
        <ele>72.8</ele>
        <time>2023-07-18T09:36:10Z</time>
      </trkpt>
      <trkpt lat="47.40769" lon="0.53092">
        <ele>73</ele>
        <time>2023-07-18T09:36:11Z</time>
      </trkpt>
      <trkpt lat="47.4077" lon="0.53099">
        <ele>73</ele>
        <time>2023-07-18T09:36:12Z</time>
      </trkpt>
      <trkpt lat="47.40771" lon="0.53105">
        <ele>73.2</ele>
        <time>2023-07-18T09:36:13Z</time>
      </trkpt>
      <trkpt lat="47.40772" lon="0.53112">
        <ele>73.4</ele>
        <time>2023-07-18T09:36:14Z</time>
      </trkpt>
      <trkpt lat="47.40773" lon="0.53119">
        <ele>73.4</ele>
        <time>2023-07-18T09:36:15Z</time>
      </trkpt>
      <trkpt lat="47.40775" lon="0.53126">
        <ele>73.4</ele>
        <time>2023-07-18T09:36:16Z</time>
      </trkpt>
      <trkpt lat="47.40776" lon="0.53135">
        <ele>73.6</ele>
        <time>2023-07-18T09:36:17Z</time>
      </trkpt>
      <trkpt lat="47.40777" lon="0.53143">
        <ele>73.6</ele>
        <time>2023-07-18T09:36:18Z</time>
      </trkpt>
      <trkpt lat="47.40778" lon="0.53149">
        <ele>73.8</ele>
        <time>2023-07-18T09:36:19Z</time>
      </trkpt>
      <trkpt lat="47.40778" lon="0.53158">
        <ele>73.8</ele>
        <time>2023-07-18T09:36:20Z</time>
      </trkpt>
      <trkpt lat="47.40778" lon="0.53164">
        <ele>74</ele>
        <time>2023-07-18T09:36:21Z</time>
      </trkpt>
      <trkpt lat="47.40779" lon="0.53171">
        <ele>74.2</ele>
        <time>2023-07-18T09:36:22Z</time>
      </trkpt>
      <trkpt lat="47.4078" lon="0.53179">
        <ele>74.4</ele>
        <time>2023-07-18T09:36:23Z</time>
      </trkpt>
      <trkpt lat="47.4078" lon="0.53187">
        <ele>74.6</ele>
        <time>2023-07-18T09:36:24Z</time>
      </trkpt>
      <trkpt lat="47.40781" lon="0.53195">
        <ele>74.6</ele>
        <time>2023-07-18T09:36:25Z</time>
      </trkpt>
      <trkpt lat="47.40781" lon="0.53202">
        <ele>74.8</ele>
        <time>2023-07-18T09:36:26Z</time>
      </trkpt>
      <trkpt lat="47.40782" lon="0.53209">
        <ele>75</ele>
        <time>2023-07-18T09:36:27Z</time>
      </trkpt>
      <trkpt lat="47.40783" lon="0.53216">
        <ele>75</ele>
        <time>2023-07-18T09:36:28Z</time>
      </trkpt>
      <trkpt lat="47.40784" lon="0.53222">
        <ele>75</ele>
        <time>2023-07-18T09:36:29Z</time>
      </trkpt>
      <trkpt lat="47.40784" lon="0.53228">
        <ele>75.2</ele>
        <time>2023-07-18T09:36:30Z</time>
      </trkpt>
      <trkpt lat="47.40785" lon="0.53236">
        <ele>75.2</ele>
        <time>2023-07-18T09:36:31Z</time>
      </trkpt>
      <trkpt lat="47.40784" lon="0.5324">
        <ele>75.4</ele>
        <time>2023-07-18T09:36:32Z</time>
      </trkpt>
      <trkpt lat="47.40783" lon="0.53247">
        <ele>75.4</ele>
        <time>2023-07-18T09:36:33Z</time>
      </trkpt>
      <trkpt lat="47.40781" lon="0.53254">
        <ele>75.6</ele>
        <time>2023-07-18T09:36:34Z</time>
      </trkpt>
      <trkpt lat="47.40779" lon="0.5326">
        <ele>75.8</ele>
        <time>2023-07-18T09:36:35Z</time>
      </trkpt>
      <trkpt lat="47.40779" lon="0.53268">
        <ele>75.8</ele>
        <time>2023-07-18T09:36:36Z</time>
      </trkpt>
      <trkpt lat="47.40779" lon="0.53275">
        <ele>75.8</ele>
        <time>2023-07-18T09:36:37Z</time>
      </trkpt>
      <trkpt lat="47.40779" lon="0.53282">
        <ele>76</ele>
        <time>2023-07-18T09:36:38Z</time>
      </trkpt>
      <trkpt lat="47.40779" lon="0.53291">
        <ele>76</ele>
        <time>2023-07-18T09:36:39Z</time>
      </trkpt>
      <trkpt lat="47.40778" lon="0.53299">
        <ele>76.2</ele>
        <time>2023-07-18T09:36:40Z</time>
      </trkpt>
      <trkpt lat="47.40779" lon="0.53306">
        <ele>76.2</ele>
        <time>2023-07-18T09:36:41Z</time>
      </trkpt>
      <trkpt lat="47.4078" lon="0.53314">
        <ele>76.2</ele>
        <time>2023-07-18T09:36:42Z</time>
      </trkpt>
      <trkpt lat="47.40782" lon="0.53323">
        <ele>76.4</ele>
        <time>2023-07-18T09:36:43Z</time>
      </trkpt>
      <trkpt lat="47.40783" lon="0.5333">
        <ele>76.4</ele>
        <time>2023-07-18T09:36:44Z</time>
      </trkpt>
      <trkpt lat="47.40784" lon="0.53339">
        <ele>76.6</ele>
        <time>2023-07-18T09:36:45Z</time>
      </trkpt>
      <trkpt lat="47.40785" lon="0.53346">
        <ele>76.8</ele>
        <time>2023-07-18T09:36:46Z</time>
      </trkpt>
      <trkpt lat="47.40785" lon="0.53355">
        <ele>76.8</ele>
        <time>2023-07-18T09:36:47Z</time>
      </trkpt>
      <trkpt lat="47.40787" lon="0.53363">
        <ele>77</ele>
        <time>2023-07-18T09:36:48Z</time>
      </trkpt>
      <trkpt lat="47.40789" lon="0.53371">
        <ele>77.2</ele>
        <time>2023-07-18T09:36:49Z</time>
      </trkpt>
      <trkpt lat="47.40792" lon="0.53379">
        <ele>77.4</ele>
        <time>2023-07-18T09:36:50Z</time>
      </trkpt>
      <trkpt lat="47.40791" lon="0.53386">
        <ele>77.6</ele>
        <time>2023-07-18T09:36:51Z</time>
      </trkpt>
      <trkpt lat="47.40795" lon="0.53394">
        <ele>77.8</ele>
        <time>2023-07-18T09:36:52Z</time>
      </trkpt>
      <trkpt lat="47.40799" lon="0.53404">
        <ele>77.8</ele>
        <time>2023-07-18T09:36:53Z</time>
      </trkpt>
      <trkpt lat="47.40801" lon="0.53411">
        <ele>78</ele>
        <time>2023-07-18T09:36:54Z</time>
      </trkpt>
      <trkpt lat="47.40802" lon="0.53417">
        <ele>77.8</ele>
        <time>2023-07-18T09:36:55Z</time>
      </trkpt>
      <trkpt lat="47.40804" lon="0.53425">
        <ele>78</ele>
        <time>2023-07-18T09:36:56Z</time>
      </trkpt>
      <trkpt lat="47.40804" lon="0.53433">
        <ele>78</ele>
        <time>2023-07-18T09:36:57Z</time>
      </trkpt>
      <trkpt lat="47.40804" lon="0.53442">
        <ele>78.2</ele>
        <time>2023-07-18T09:36:58Z</time>
      </trkpt>
      <trkpt lat="47.40805" lon="0.53449">
        <ele>78.2</ele>
        <time>2023-07-18T09:36:59Z</time>
      </trkpt>
      <trkpt lat="47.40805" lon="0.53456">
        <ele>78.2</ele>
        <time>2023-07-18T09:37:00Z</time>
      </trkpt>
      <trkpt lat="47.40803" lon="0.53462">
        <ele>78.4</ele>
        <time>2023-07-18T09:37:01Z</time>
      </trkpt>
      <trkpt lat="47.40802" lon="0.53469">
        <ele>78.4</ele>
        <time>2023-07-18T09:37:02Z</time>
      </trkpt>
      <trkpt lat="47.40805" lon="0.53477">
        <ele>78.6</ele>
        <time>2023-07-18T09:37:03Z</time>
      </trkpt>
      <trkpt lat="47.40806" lon="0.53486">
        <ele>78.6</ele>
        <time>2023-07-18T09:37:04Z</time>
      </trkpt>
      <trkpt lat="47.40808" lon="0.53495">
        <ele>78.8</ele>
        <time>2023-07-18T09:37:05Z</time>
      </trkpt>
      <trkpt lat="47.40811" lon="0.53505">
        <ele>78.8</ele>
        <time>2023-07-18T09:37:06Z</time>
      </trkpt>
      <trkpt lat="47.4081" lon="0.53513">
        <ele>78.8</ele>
        <time>2023-07-18T09:37:07Z</time>
      </trkpt>
      <trkpt lat="47.40808" lon="0.53522">
        <ele>78.8</ele>
        <time>2023-07-18T09:37:08Z</time>
      </trkpt>
      <trkpt lat="47.40806" lon="0.53532">
        <ele>78.8</ele>
        <time>2023-07-18T09:37:09Z</time>
      </trkpt>
      <trkpt lat="47.40804" lon="0.53541">
        <ele>78.8</ele>
        <time>2023-07-18T09:37:10Z</time>
      </trkpt>
      <trkpt lat="47.40801" lon="0.5355">
        <ele>78.8</ele>
        <time>2023-07-18T09:37:11Z</time>
      </trkpt>
      <trkpt lat="47.408" lon="0.53559">
        <ele>78.6</ele>
        <time>2023-07-18T09:37:12Z</time>
      </trkpt>
      <trkpt lat="47.408" lon="0.53568">
        <ele>78.6</ele>
        <time>2023-07-18T09:37:13Z</time>
      </trkpt>
      <trkpt lat="47.40799" lon="0.53577">
        <ele>78.6</ele>
        <time>2023-07-18T09:37:14Z</time>
      </trkpt>
      <trkpt lat="47.40798" lon="0.53587">
        <ele>78.6</ele>
        <time>2023-07-18T09:37:15Z</time>
      </trkpt>
      <trkpt lat="47.40797" lon="0.53596">
        <ele>78.6</ele>
        <time>2023-07-18T09:37:16Z</time>
      </trkpt>
      <trkpt lat="47.40795" lon="0.53605">
        <ele>78.6</ele>
        <time>2023-07-18T09:37:17Z</time>
      </trkpt>
      <trkpt lat="47.40794" lon="0.53614">
        <ele>78.6</ele>
        <time>2023-07-18T09:37:18Z</time>
      </trkpt>
      <trkpt lat="47.40793" lon="0.53622">
        <ele>78.8</ele>
        <time>2023-07-18T09:37:19Z</time>
      </trkpt>
      <trkpt lat="47.40792" lon="0.53631">
        <ele>79</ele>
        <time>2023-07-18T09:37:20Z</time>
      </trkpt>
      <trkpt lat="47.4079" lon="0.53639">
        <ele>79</ele>
        <time>2023-07-18T09:37:21Z</time>
      </trkpt>
      <trkpt lat="47.40789" lon="0.53647">
        <ele>79.2</ele>
        <time>2023-07-18T09:37:22Z</time>
      </trkpt>
      <trkpt lat="47.40787" lon="0.53655">
        <ele>79.2</ele>
        <time>2023-07-18T09:37:23Z</time>
      </trkpt>
      <trkpt lat="47.40786" lon="0.53663">
        <ele>79.2</ele>
        <time>2023-07-18T09:37:24Z</time>
      </trkpt>
      <trkpt lat="47.40784" lon="0.53671">
        <ele>79.4</ele>
        <time>2023-07-18T09:37:25Z</time>
      </trkpt>
      <trkpt lat="47.40783" lon="0.53679">
        <ele>79.4</ele>
        <time>2023-07-18T09:37:26Z</time>
      </trkpt>
      <trkpt lat="47.40782" lon="0.53687">
        <ele>79.6</ele>
        <time>2023-07-18T09:37:27Z</time>
      </trkpt>
      <trkpt lat="47.40781" lon="0.53695">
        <ele>79.4</ele>
        <time>2023-07-18T09:37:28Z</time>
      </trkpt>
      <trkpt lat="47.40779" lon="0.53703">
        <ele>79.6</ele>
        <time>2023-07-18T09:37:29Z</time>
      </trkpt>
      <trkpt lat="47.40777" lon="0.53711">
        <ele>79.8</ele>
        <time>2023-07-18T09:37:30Z</time>
      </trkpt>
      <trkpt lat="47.40776" lon="0.53718">
        <ele>79.8</ele>
        <time>2023-07-18T09:37:31Z</time>
      </trkpt>
      <trkpt lat="47.40774" lon="0.53726">
        <ele>80</ele>
        <time>2023-07-18T09:37:32Z</time>
      </trkpt>
      <trkpt lat="47.40773" lon="0.53734">
        <ele>80</ele>
        <time>2023-07-18T09:37:33Z</time>
      </trkpt>
      <trkpt lat="47.40773" lon="0.53742">
        <ele>80.2</ele>
        <time>2023-07-18T09:37:34Z</time>
      </trkpt>
      <trkpt lat="47.40773" lon="0.5375">
        <ele>80.4</ele>
        <time>2023-07-18T09:37:35Z</time>
      </trkpt>
      <trkpt lat="47.40771" lon="0.53757">
        <ele>80.6</ele>
        <time>2023-07-18T09:37:36Z</time>
      </trkpt>
      <trkpt lat="47.4077" lon="0.53765">
        <ele>80.8</ele>
        <time>2023-07-18T09:37:37Z</time>
      </trkpt>
      <trkpt lat="47.40769" lon="0.53772">
        <ele>80.8</ele>
        <time>2023-07-18T09:37:38Z</time>
      </trkpt>
      <trkpt lat="47.40768" lon="0.53781">
        <ele>81</ele>
        <time>2023-07-18T09:37:39Z</time>
      </trkpt>
      <trkpt lat="47.40767" lon="0.53789">
        <ele>81.2</ele>
        <time>2023-07-18T09:37:40Z</time>
      </trkpt>
      <trkpt lat="47.40766" lon="0.53797">
        <ele>81.4</ele>
        <time>2023-07-18T09:37:41Z</time>
      </trkpt>
      <trkpt lat="47.40765" lon="0.53805">
        <ele>81.6</ele>
        <time>2023-07-18T09:37:42Z</time>
      </trkpt>
      <trkpt lat="47.40763" lon="0.53812">
        <ele>81.8</ele>
        <time>2023-07-18T09:37:43Z</time>
      </trkpt>
      <trkpt lat="47.40762" lon="0.53819">
        <ele>81.8</ele>
        <time>2023-07-18T09:37:44Z</time>
      </trkpt>
      <trkpt lat="47.40761" lon="0.53826">
        <ele>82</ele>
        <time>2023-07-18T09:37:45Z</time>
      </trkpt>
      <trkpt lat="47.4076" lon="0.53833">
        <ele>82</ele>
        <time>2023-07-18T09:37:46Z</time>
      </trkpt>
      <trkpt lat="47.40758" lon="0.53841">
        <ele>82.2</ele>
        <time>2023-07-18T09:37:47Z</time>
      </trkpt>
      <trkpt lat="47.40756" lon="0.53848">
        <ele>82.4</ele>
        <time>2023-07-18T09:37:48Z</time>
      </trkpt>
      <trkpt lat="47.40755" lon="0.53856">
        <ele>82.8</ele>
        <time>2023-07-18T09:37:49Z</time>
      </trkpt>
      <trkpt lat="47.40755" lon="0.53863">
        <ele>83</ele>
        <time>2023-07-18T09:37:50Z</time>
      </trkpt>
      <trkpt lat="47.40755" lon="0.5387">
        <ele>83.4</ele>
        <time>2023-07-18T09:37:51Z</time>
      </trkpt>
      <trkpt lat="47.40755" lon="0.53877">
        <ele>83.4</ele>
        <time>2023-07-18T09:37:52Z</time>
      </trkpt>
      <trkpt lat="47.40755" lon="0.53884">
        <ele>83.6</ele>
        <time>2023-07-18T09:37:53Z</time>
      </trkpt>
      <trkpt lat="47.40754" lon="0.53891">
        <ele>83.6</ele>
        <time>2023-07-18T09:37:54Z</time>
      </trkpt>
      <trkpt lat="47.40754" lon="0.53898">
        <ele>83.8</ele>
        <time>2023-07-18T09:37:55Z</time>
      </trkpt>
      <trkpt lat="47.40753" lon="0.53906">
        <ele>84</ele>
        <time>2023-07-18T09:37:56Z</time>
      </trkpt>
      <trkpt lat="47.40753" lon="0.53914">
        <ele>84.2</ele>
        <time>2023-07-18T09:37:57Z</time>
      </trkpt>
      <trkpt lat="47.40752" lon="0.53922">
        <ele>84.4</ele>
        <time>2023-07-18T09:37:58Z</time>
      </trkpt>
      <trkpt lat="47.40752" lon="0.53928">
        <ele>84.6</ele>
        <time>2023-07-18T09:37:59Z</time>
      </trkpt>
      <trkpt lat="47.40751" lon="0.53935">
        <ele>84.8</ele>
        <time>2023-07-18T09:38:00Z</time>
      </trkpt>
      <trkpt lat="47.4075" lon="0.53941">
        <ele>85.2</ele>
        <time>2023-07-18T09:38:01Z</time>
      </trkpt>
      <trkpt lat="47.40749" lon="0.53948">
        <ele>85.6</ele>
        <time>2023-07-18T09:38:02Z</time>
      </trkpt>
      <trkpt lat="47.40749" lon="0.53955">
        <ele>86</ele>
        <time>2023-07-18T09:38:03Z</time>
      </trkpt>
      <trkpt lat="47.40749" lon="0.53962">
        <ele>86.2</ele>
        <time>2023-07-18T09:38:04Z</time>
      </trkpt>
      <trkpt lat="47.40749" lon="0.53969">
        <ele>86.4</ele>
        <time>2023-07-18T09:38:05Z</time>
      </trkpt>
      <trkpt lat="47.40749" lon="0.53975">
        <ele>86.6</ele>
        <time>2023-07-18T09:38:06Z</time>
      </trkpt>
      <trkpt lat="47.4075" lon="0.53982">
        <ele>86.8</ele>
        <time>2023-07-18T09:38:07Z</time>
      </trkpt>
      <trkpt lat="47.40751" lon="0.53989">
        <ele>87</ele>
        <time>2023-07-18T09:38:08Z</time>
      </trkpt>
      <trkpt lat="47.40752" lon="0.53995">
        <ele>87.2</ele>
        <time>2023-07-18T09:38:09Z</time>
      </trkpt>
      <trkpt lat="47.40753" lon="0.54002">
        <ele>87.4</ele>
        <time>2023-07-18T09:38:10Z</time>
      </trkpt>
      <trkpt lat="47.40755" lon="0.54008">
        <ele>87.6</ele>
        <time>2023-07-18T09:38:11Z</time>
      </trkpt>
      <trkpt lat="47.40757" lon="0.54014">
        <ele>87.8</ele>
        <time>2023-07-18T09:38:12Z</time>
      </trkpt>
      <trkpt lat="47.4076" lon="0.5402">
        <ele>87.8</ele>
        <time>2023-07-18T09:38:13Z</time>
      </trkpt>
      <trkpt lat="47.40762" lon="0.54026">
        <ele>88</ele>
        <time>2023-07-18T09:38:14Z</time>
      </trkpt>
      <trkpt lat="47.40764" lon="0.54033">
        <ele>88.2</ele>
        <time>2023-07-18T09:38:15Z</time>
      </trkpt>
      <trkpt lat="47.40767" lon="0.54039">
        <ele>88.4</ele>
        <time>2023-07-18T09:38:16Z</time>
      </trkpt>
      <trkpt lat="47.40769" lon="0.54045">
        <ele>88.6</ele>
        <time>2023-07-18T09:38:17Z</time>
      </trkpt>
      <trkpt lat="47.40771" lon="0.54052">
        <ele>88.6</ele>
        <time>2023-07-18T09:38:18Z</time>
      </trkpt>
      <trkpt lat="47.40774" lon="0.54058">
        <ele>89</ele>
        <time>2023-07-18T09:38:19Z</time>
      </trkpt>
      <trkpt lat="47.40776" lon="0.54064">
        <ele>89.2</ele>
        <time>2023-07-18T09:38:20Z</time>
      </trkpt>
      <trkpt lat="47.40778" lon="0.54071">
        <ele>89.2</ele>
        <time>2023-07-18T09:38:21Z</time>
      </trkpt>
      <trkpt lat="47.4078" lon="0.54077">
        <ele>89.2</ele>
        <time>2023-07-18T09:38:22Z</time>
      </trkpt>
      <trkpt lat="47.40782" lon="0.54083">
        <ele>89</ele>
        <time>2023-07-18T09:38:23Z</time>
      </trkpt>
      <trkpt lat="47.40785" lon="0.54089">
        <ele>88.8</ele>
        <time>2023-07-18T09:38:24Z</time>
      </trkpt>
      <trkpt lat="47.40787" lon="0.54096">
        <ele>88.8</ele>
        <time>2023-07-18T09:38:25Z</time>
      </trkpt>
      <trkpt lat="47.4079" lon="0.54102">
        <ele>88.6</ele>
        <time>2023-07-18T09:38:26Z</time>
      </trkpt>
      <trkpt lat="47.40793" lon="0.54109">
        <ele>88.4</ele>
        <time>2023-07-18T09:38:27Z</time>
      </trkpt>
      <trkpt lat="47.40795" lon="0.54115">
        <ele>88.2</ele>
        <time>2023-07-18T09:38:28Z</time>
      </trkpt>
      <trkpt lat="47.40798" lon="0.54122">
        <ele>88</ele>
        <time>2023-07-18T09:38:29Z</time>
      </trkpt>
      <trkpt lat="47.408" lon="0.54128">
        <ele>88</ele>
        <time>2023-07-18T09:38:30Z</time>
      </trkpt>
      <trkpt lat="47.40803" lon="0.54135">
        <ele>88</ele>
        <time>2023-07-18T09:38:31Z</time>
      </trkpt>
      <trkpt lat="47.40805" lon="0.54141">
        <ele>88</ele>
        <time>2023-07-18T09:38:32Z</time>
      </trkpt>
      <trkpt lat="47.40808" lon="0.54148">
        <ele>88.2</ele>
        <time>2023-07-18T09:38:33Z</time>
      </trkpt>
      <trkpt lat="47.40811" lon="0.54154">
        <ele>88.2</ele>
        <time>2023-07-18T09:38:34Z</time>
      </trkpt>
      <trkpt lat="47.40814" lon="0.54161">
        <ele>88.4</ele>
        <time>2023-07-18T09:38:35Z</time>
      </trkpt>
      <trkpt lat="47.40816" lon="0.54167">
        <ele>88.4</ele>
        <time>2023-07-18T09:38:36Z</time>
      </trkpt>
      <trkpt lat="47.40819" lon="0.54174">
        <ele>88.4</ele>
        <time>2023-07-18T09:38:37Z</time>
      </trkpt>
      <trkpt lat="47.40821" lon="0.5418">
        <ele>88.6</ele>
        <time>2023-07-18T09:38:38Z</time>
      </trkpt>
      <trkpt lat="47.40824" lon="0.54186">
        <ele>88.6</ele>
        <time>2023-07-18T09:38:39Z</time>
      </trkpt>
      <trkpt lat="47.40827" lon="0.54193">
        <ele>88.6</ele>
        <time>2023-07-18T09:38:40Z</time>
      </trkpt>
      <trkpt lat="47.4083" lon="0.542">
        <ele>89</ele>
        <time>2023-07-18T09:38:41Z</time>
      </trkpt>
      <trkpt lat="47.40833" lon="0.54206">
        <ele>89.2</ele>
        <time>2023-07-18T09:38:42Z</time>
      </trkpt>
      <trkpt lat="47.40835" lon="0.54213">
        <ele>89.2</ele>
        <time>2023-07-18T09:38:43Z</time>
      </trkpt>
      <trkpt lat="47.40838" lon="0.5422">
        <ele>89</ele>
        <time>2023-07-18T09:38:44Z</time>
      </trkpt>
      <trkpt lat="47.40841" lon="0.54225">
        <ele>89</ele>
        <time>2023-07-18T09:38:45Z</time>
      </trkpt>
      <trkpt lat="47.40844" lon="0.54232">
        <ele>89.2</ele>
        <time>2023-07-18T09:38:46Z</time>
      </trkpt>
      <trkpt lat="47.40846" lon="0.54239">
        <ele>89.4</ele>
        <time>2023-07-18T09:38:47Z</time>
      </trkpt>
      <trkpt lat="47.40849" lon="0.54245">
        <ele>89.4</ele>
        <time>2023-07-18T09:38:48Z</time>
      </trkpt>
      <trkpt lat="47.40852" lon="0.54251">
        <ele>89.4</ele>
        <time>2023-07-18T09:38:49Z</time>
      </trkpt>
      <trkpt lat="47.40855" lon="0.54258">
        <ele>89.4</ele>
        <time>2023-07-18T09:38:50Z</time>
      </trkpt>
      <trkpt lat="47.40857" lon="0.54264">
        <ele>89.4</ele>
        <time>2023-07-18T09:38:51Z</time>
      </trkpt>
      <trkpt lat="47.4086" lon="0.5427">
        <ele>89.2</ele>
        <time>2023-07-18T09:38:52Z</time>
      </trkpt>
      <trkpt lat="47.40863" lon="0.54277">
        <ele>89.2</ele>
        <time>2023-07-18T09:38:53Z</time>
      </trkpt>
      <trkpt lat="47.40865" lon="0.54283">
        <ele>89.2</ele>
        <time>2023-07-18T09:38:54Z</time>
      </trkpt>
      <trkpt lat="47.40868" lon="0.5429">
        <ele>89.2</ele>
        <time>2023-07-18T09:38:55Z</time>
      </trkpt>
      <trkpt lat="47.40871" lon="0.54296">
        <ele>89.2</ele>
        <time>2023-07-18T09:38:56Z</time>
      </trkpt>
      <trkpt lat="47.40873" lon="0.54303">
        <ele>89.2</ele>
        <time>2023-07-18T09:38:57Z</time>
      </trkpt>
      <trkpt lat="47.40876" lon="0.54309">
        <ele>89.4</ele>
        <time>2023-07-18T09:38:58Z</time>
      </trkpt>
      <trkpt lat="47.40879" lon="0.54316">
        <ele>89.6</ele>
        <time>2023-07-18T09:38:59Z</time>
      </trkpt>
      <trkpt lat="47.40881" lon="0.54322">
        <ele>89.6</ele>
        <time>2023-07-18T09:39:00Z</time>
      </trkpt>
      <trkpt lat="47.40884" lon="0.54329">
        <ele>89.8</ele>
        <time>2023-07-18T09:39:01Z</time>
      </trkpt>
      <trkpt lat="47.40887" lon="0.54335">
        <ele>90</ele>
        <time>2023-07-18T09:39:02Z</time>
      </trkpt>
      <trkpt lat="47.40889" lon="0.54341">
        <ele>90.2</ele>
        <time>2023-07-18T09:39:03Z</time>
      </trkpt>
      <trkpt lat="47.40892" lon="0.54348">
        <ele>90.4</ele>
        <time>2023-07-18T09:39:04Z</time>
      </trkpt>
      <trkpt lat="47.40894" lon="0.54355">
        <ele>90.6</ele>
        <time>2023-07-18T09:39:05Z</time>
      </trkpt>
      <trkpt lat="47.40897" lon="0.54361">
        <ele>90.8</ele>
        <time>2023-07-18T09:39:06Z</time>
      </trkpt>
      <trkpt lat="47.409" lon="0.54368">
        <ele>91.2</ele>
        <time>2023-07-18T09:39:07Z</time>
      </trkpt>
      <trkpt lat="47.40902" lon="0.54374">
        <ele>91.6</ele>
        <time>2023-07-18T09:39:08Z</time>
      </trkpt>
      <trkpt lat="47.40905" lon="0.5438">
        <ele>91.8</ele>
        <time>2023-07-18T09:39:09Z</time>
      </trkpt>
      <trkpt lat="47.40908" lon="0.54386">
        <ele>91.8</ele>
        <time>2023-07-18T09:39:10Z</time>
      </trkpt>
      <trkpt lat="47.4091" lon="0.54392">
        <ele>91.8</ele>
        <time>2023-07-18T09:39:11Z</time>
      </trkpt>
      <trkpt lat="47.40913" lon="0.54398">
        <ele>91.6</ele>
        <time>2023-07-18T09:39:12Z</time>
      </trkpt>
      <trkpt lat="47.40915" lon="0.54404">
        <ele>91.6</ele>
        <time>2023-07-18T09:39:13Z</time>
      </trkpt>
      <trkpt lat="47.40917" lon="0.5441">
        <ele>91.6</ele>
        <time>2023-07-18T09:39:14Z</time>
      </trkpt>
      <trkpt lat="47.40919" lon="0.54415">
        <ele>91.6</ele>
        <time>2023-07-18T09:39:15Z</time>
      </trkpt>
      <trkpt lat="47.40922" lon="0.5442">
        <ele>91.8</ele>
        <time>2023-07-18T09:39:16Z</time>
      </trkpt>
      <trkpt lat="47.40924" lon="0.54426">
        <ele>91.8</ele>
        <time>2023-07-18T09:39:17Z</time>
      </trkpt>
      <trkpt lat="47.40927" lon="0.54431">
        <ele>92</ele>
        <time>2023-07-18T09:39:18Z</time>
      </trkpt>
      <trkpt lat="47.40929" lon="0.54437">
        <ele>92</ele>
        <time>2023-07-18T09:39:19Z</time>
      </trkpt>
      <trkpt lat="47.40931" lon="0.54442">
        <ele>92</ele>
        <time>2023-07-18T09:39:20Z</time>
      </trkpt>
      <trkpt lat="47.40934" lon="0.54448">
        <ele>92</ele>
        <time>2023-07-18T09:39:21Z</time>
      </trkpt>
      <trkpt lat="47.40936" lon="0.54455">
        <ele>92.2</ele>
        <time>2023-07-18T09:39:22Z</time>
      </trkpt>
      <trkpt lat="47.40937" lon="0.54461">
        <ele>92.6</ele>
        <time>2023-07-18T09:39:23Z</time>
      </trkpt>
      <trkpt lat="47.40939" lon="0.54467">
        <ele>93</ele>
        <time>2023-07-18T09:39:24Z</time>
      </trkpt>
      <trkpt lat="47.40938" lon="0.54473">
        <ele>93.4</ele>
        <time>2023-07-18T09:39:25Z</time>
      </trkpt>
      <trkpt lat="47.40936" lon="0.54477">
        <ele>93.6</ele>
        <time>2023-07-18T09:39:26Z</time>
      </trkpt>
      <trkpt lat="47.40932" lon="0.5448">
        <ele>93.8</ele>
        <time>2023-07-18T09:39:27Z</time>
      </trkpt>
      <trkpt lat="47.40927" lon="0.54482">
        <ele>93.8</ele>
        <time>2023-07-18T09:39:28Z</time>
      </trkpt>
      <trkpt lat="47.40923" lon="0.54483">
        <ele>93.8</ele>
        <time>2023-07-18T09:39:29Z</time>
      </trkpt>
      <trkpt lat="47.40917" lon="0.54485">
        <ele>94.2</ele>
        <time>2023-07-18T09:39:30Z</time>
      </trkpt>
      <trkpt lat="47.40912" lon="0.54487">
        <ele>94.2</ele>
        <time>2023-07-18T09:39:31Z</time>
      </trkpt>
      <trkpt lat="47.40906" lon="0.54489">
        <ele>94.6</ele>
        <time>2023-07-18T09:39:32Z</time>
      </trkpt>
      <trkpt lat="47.409" lon="0.54491">
        <ele>94.4</ele>
        <time>2023-07-18T09:39:33Z</time>
      </trkpt>
      <trkpt lat="47.40894" lon="0.54493">
        <ele>94.2</ele>
        <time>2023-07-18T09:39:34Z</time>
      </trkpt>
      <trkpt lat="47.40888" lon="0.54496">
        <ele>93.6</ele>
        <time>2023-07-18T09:39:35Z</time>
      </trkpt>
      <trkpt lat="47.40882" lon="0.54498">
        <ele>93.2</ele>
        <time>2023-07-18T09:39:36Z</time>
      </trkpt>
      <trkpt lat="47.40877" lon="0.545">
        <ele>93</ele>
        <time>2023-07-18T09:39:37Z</time>
      </trkpt>
      <trkpt lat="47.40871" lon="0.54502">
        <ele>92.8</ele>
        <time>2023-07-18T09:39:38Z</time>
      </trkpt>
      <trkpt lat="47.40865" lon="0.54504">
        <ele>92.8</ele>
        <time>2023-07-18T09:39:39Z</time>
      </trkpt>
      <trkpt lat="47.4086" lon="0.54506">
        <ele>92.4</ele>
        <time>2023-07-18T09:39:40Z</time>
      </trkpt>
      <trkpt lat="47.40855" lon="0.54508">
        <ele>92.2</ele>
        <time>2023-07-18T09:39:41Z</time>
      </trkpt>
      <trkpt lat="47.40849" lon="0.5451">
        <ele>92</ele>
        <time>2023-07-18T09:39:42Z</time>
      </trkpt>
      <trkpt lat="47.40843" lon="0.54513">
        <ele>91.8</ele>
        <time>2023-07-18T09:39:43Z</time>
      </trkpt>
      <trkpt lat="47.40837" lon="0.54514">
        <ele>91.8</ele>
        <time>2023-07-18T09:39:44Z</time>
      </trkpt>
      <trkpt lat="47.40832" lon="0.54516">
        <ele>91.8</ele>
        <time>2023-07-18T09:39:45Z</time>
      </trkpt>
      <trkpt lat="47.40826" lon="0.54518">
        <ele>92</ele>
        <time>2023-07-18T09:39:46Z</time>
      </trkpt>
      <trkpt lat="47.4082" lon="0.5452">
        <ele>92.2</ele>
        <time>2023-07-18T09:39:47Z</time>
      </trkpt>
      <trkpt lat="47.40815" lon="0.54523">
        <ele>92</ele>
        <time>2023-07-18T09:39:48Z</time>
      </trkpt>
      <trkpt lat="47.40809" lon="0.54525">
        <ele>91.8</ele>
        <time>2023-07-18T09:39:49Z</time>
      </trkpt>
      <trkpt lat="47.40804" lon="0.54527">
        <ele>91.6</ele>
        <time>2023-07-18T09:39:50Z</time>
      </trkpt>
      <trkpt lat="47.40799" lon="0.54529">
        <ele>91.6</ele>
        <time>2023-07-18T09:39:51Z</time>
      </trkpt>
      <trkpt lat="47.40794" lon="0.54532">
        <ele>91.4</ele>
        <time>2023-07-18T09:39:52Z</time>
      </trkpt>
      <trkpt lat="47.40788" lon="0.54533">
        <ele>91.2</ele>
        <time>2023-07-18T09:39:53Z</time>
      </trkpt>
      <trkpt lat="47.40783" lon="0.54536">
        <ele>91.2</ele>
        <time>2023-07-18T09:39:54Z</time>
      </trkpt>
      <trkpt lat="47.40777" lon="0.54538">
        <ele>91.4</ele>
        <time>2023-07-18T09:39:55Z</time>
      </trkpt>
      <trkpt lat="47.40772" lon="0.54541">
        <ele>91.4</ele>
        <time>2023-07-18T09:39:56Z</time>
      </trkpt>
      <trkpt lat="47.40768" lon="0.54546">
        <ele>91.6</ele>
        <time>2023-07-18T09:39:57Z</time>
      </trkpt>
      <trkpt lat="47.40765" lon="0.54553">
        <ele>91.6</ele>
        <time>2023-07-18T09:39:58Z</time>
      </trkpt>
      <trkpt lat="47.40764" lon="0.54561">
        <ele>91.8</ele>
        <time>2023-07-18T09:39:59Z</time>
      </trkpt>
      <trkpt lat="47.40764" lon="0.5457">
        <ele>91.8</ele>
        <time>2023-07-18T09:40:00Z</time>
      </trkpt>
      <trkpt lat="47.40764" lon="0.54578">
        <ele>92</ele>
        <time>2023-07-18T09:40:01Z</time>
      </trkpt>
      <trkpt lat="47.40763" lon="0.54587">
        <ele>92</ele>
        <time>2023-07-18T09:40:02Z</time>
      </trkpt>
      <trkpt lat="47.40763" lon="0.54595">
        <ele>92</ele>
        <time>2023-07-18T09:40:03Z</time>
      </trkpt>
      <trkpt lat="47.40764" lon="0.54604">
        <ele>92</ele>
        <time>2023-07-18T09:40:04Z</time>
      </trkpt>
      <trkpt lat="47.40764" lon="0.54612">
        <ele>92</ele>
        <time>2023-07-18T09:40:05Z</time>
      </trkpt>
      <trkpt lat="47.40764" lon="0.5462">
        <ele>92</ele>
        <time>2023-07-18T09:40:06Z</time>
      </trkpt>
      <trkpt lat="47.40763" lon="0.54629">
        <ele>92.2</ele>
        <time>2023-07-18T09:40:07Z</time>
      </trkpt>
      <trkpt lat="47.40763" lon="0.54636">
        <ele>92</ele>
        <time>2023-07-18T09:40:08Z</time>
      </trkpt>
      <trkpt lat="47.40762" lon="0.54645">
        <ele>92.2</ele>
        <time>2023-07-18T09:40:09Z</time>
      </trkpt>
      <trkpt lat="47.40761" lon="0.54652">
        <ele>92.2</ele>
        <time>2023-07-18T09:40:10Z</time>
      </trkpt>
      <trkpt lat="47.40759" lon="0.5466">
        <ele>92.4</ele>
        <time>2023-07-18T09:40:11Z</time>
      </trkpt>
      <trkpt lat="47.40757" lon="0.54668">
        <ele>92.4</ele>
        <time>2023-07-18T09:40:12Z</time>
      </trkpt>
      <trkpt lat="47.40754" lon="0.54674">
        <ele>92.4</ele>
        <time>2023-07-18T09:40:13Z</time>
      </trkpt>
      <trkpt lat="47.40752" lon="0.54681">
        <ele>92.6</ele>
        <time>2023-07-18T09:40:14Z</time>
      </trkpt>
      <trkpt lat="47.40749" lon="0.54687">
        <ele>92.8</ele>
        <time>2023-07-18T09:40:15Z</time>
      </trkpt>
      <trkpt lat="47.40746" lon="0.54694">
        <ele>92.8</ele>
        <time>2023-07-18T09:40:16Z</time>
      </trkpt>
      <trkpt lat="47.40742" lon="0.547">
        <ele>92.8</ele>
        <time>2023-07-18T09:40:17Z</time>
      </trkpt>
      <trkpt lat="47.40739" lon="0.54706">
        <ele>93</ele>
        <time>2023-07-18T09:40:18Z</time>
      </trkpt>
      <trkpt lat="47.40736" lon="0.54712">
        <ele>93.4</ele>
        <time>2023-07-18T09:40:19Z</time>
      </trkpt>
      <trkpt lat="47.40732" lon="0.54719">
        <ele>93.6</ele>
        <time>2023-07-18T09:40:20Z</time>
      </trkpt>
      <trkpt lat="47.4073" lon="0.54725">
        <ele>93.8</ele>
        <time>2023-07-18T09:40:21Z</time>
      </trkpt>
      <trkpt lat="47.40726" lon="0.54731">
        <ele>93.8</ele>
        <time>2023-07-18T09:40:22Z</time>
      </trkpt>
      <trkpt lat="47.40724" lon="0.54738">
        <ele>93.8</ele>
        <time>2023-07-18T09:40:23Z</time>
      </trkpt>
      <trkpt lat="47.40721" lon="0.54744">
        <ele>93.8</ele>
        <time>2023-07-18T09:40:24Z</time>
      </trkpt>
      <trkpt lat="47.40719" lon="0.54751">
        <ele>93.8</ele>
        <time>2023-07-18T09:40:25Z</time>
      </trkpt>
      <trkpt lat="47.40717" lon="0.54759">
        <ele>94</ele>
        <time>2023-07-18T09:40:26Z</time>
      </trkpt>
      <trkpt lat="47.40715" lon="0.54766">
        <ele>94</ele>
        <time>2023-07-18T09:40:27Z</time>
      </trkpt>
      <trkpt lat="47.40714" lon="0.54773">
        <ele>94.2</ele>
        <time>2023-07-18T09:40:28Z</time>
      </trkpt>
      <trkpt lat="47.40713" lon="0.54781">
        <ele>94.2</ele>
        <time>2023-07-18T09:40:29Z</time>
      </trkpt>
      <trkpt lat="47.40712" lon="0.54789">
        <ele>94.4</ele>
        <time>2023-07-18T09:40:30Z</time>
      </trkpt>
      <trkpt lat="47.40712" lon="0.54797">
        <ele>94.6</ele>
        <time>2023-07-18T09:40:31Z</time>
      </trkpt>
      <trkpt lat="47.40711" lon="0.54804">
        <ele>94.6</ele>
        <time>2023-07-18T09:40:32Z</time>
      </trkpt>
      <trkpt lat="47.40711" lon="0.54811">
        <ele>94.8</ele>
        <time>2023-07-18T09:40:33Z</time>
      </trkpt>
      <trkpt lat="47.40711" lon="0.54819">
        <ele>95</ele>
        <time>2023-07-18T09:40:34Z</time>
      </trkpt>
      <trkpt lat="47.40711" lon="0.54827">
        <ele>95.2</ele>
        <time>2023-07-18T09:40:35Z</time>
      </trkpt>
      <trkpt lat="47.40711" lon="0.54834">
        <ele>95.4</ele>
        <time>2023-07-18T09:40:36Z</time>
      </trkpt>
      <trkpt lat="47.40711" lon="0.54842">
        <ele>95.6</ele>
        <time>2023-07-18T09:40:37Z</time>
      </trkpt>
      <trkpt lat="47.40711" lon="0.54849">
        <ele>95.6</ele>
        <time>2023-07-18T09:40:38Z</time>
      </trkpt>
      <trkpt lat="47.40711" lon="0.54857">
        <ele>95.6</ele>
        <time>2023-07-18T09:40:39Z</time>
      </trkpt>
      <trkpt lat="47.40711" lon="0.54864">
        <ele>95.4</ele>
        <time>2023-07-18T09:40:40Z</time>
      </trkpt>
      <trkpt lat="47.40711" lon="0.54871">
        <ele>95.6</ele>
        <time>2023-07-18T09:40:41Z</time>
      </trkpt>
      <trkpt lat="47.4071" lon="0.54878">
        <ele>95.6</ele>
        <time>2023-07-18T09:40:42Z</time>
      </trkpt>
      <trkpt lat="47.4071" lon="0.54886">
        <ele>95.8</ele>
        <time>2023-07-18T09:40:43Z</time>
      </trkpt>
      <trkpt lat="47.4071" lon="0.54893">
        <ele>95.8</ele>
        <time>2023-07-18T09:40:44Z</time>
      </trkpt>
      <trkpt lat="47.4071" lon="0.54899">
        <ele>96</ele>
        <time>2023-07-18T09:40:45Z</time>
      </trkpt>
      <trkpt lat="47.4071" lon="0.54907">
        <ele>96.2</ele>
        <time>2023-07-18T09:40:46Z</time>
      </trkpt>
      <trkpt lat="47.4071" lon="0.54913">
        <ele>96.4</ele>
        <time>2023-07-18T09:40:47Z</time>
      </trkpt>
      <trkpt lat="47.4071" lon="0.5492">
        <ele>96.4</ele>
        <time>2023-07-18T09:40:48Z</time>
      </trkpt>
      <trkpt lat="47.40709" lon="0.54927">
        <ele>96.6</ele>
        <time>2023-07-18T09:40:49Z</time>
      </trkpt>
      <trkpt lat="47.4071" lon="0.54934">
        <ele>96.4</ele>
        <time>2023-07-18T09:40:50Z</time>
      </trkpt>
      <trkpt lat="47.40709" lon="0.54941">
        <ele>96.4</ele>
        <time>2023-07-18T09:40:51Z</time>
      </trkpt>
      <trkpt lat="47.4071" lon="0.54947">
        <ele>96.4</ele>
        <time>2023-07-18T09:40:52Z</time>
      </trkpt>
      <trkpt lat="47.4071" lon="0.54954">
        <ele>96.6</ele>
        <time>2023-07-18T09:40:53Z</time>
      </trkpt>
      <trkpt lat="47.4071" lon="0.54962">
        <ele>97</ele>
        <time>2023-07-18T09:40:54Z</time>
      </trkpt>
      <trkpt lat="47.4071" lon="0.54969">
        <ele>97</ele>
        <time>2023-07-18T09:40:55Z</time>
      </trkpt>
      <trkpt lat="47.4071" lon="0.54975">
        <ele>97.4</ele>
        <time>2023-07-18T09:40:56Z</time>
      </trkpt>
      <trkpt lat="47.4071" lon="0.54982">
        <ele>97.6</ele>
        <time>2023-07-18T09:40:57Z</time>
      </trkpt>
      <trkpt lat="47.4071" lon="0.54989">
        <ele>97.6</ele>
        <time>2023-07-18T09:40:58Z</time>
      </trkpt>
      <trkpt lat="47.4071" lon="0.54995">
        <ele>97.8</ele>
        <time>2023-07-18T09:40:59Z</time>
      </trkpt>
      <trkpt lat="47.4071" lon="0.55002">
        <ele>98</ele>
        <time>2023-07-18T09:41:00Z</time>
      </trkpt>
      <trkpt lat="47.4071" lon="0.55009">
        <ele>98.2</ele>
        <time>2023-07-18T09:41:01Z</time>
      </trkpt>
      <trkpt lat="47.4071" lon="0.55016">
        <ele>98.4</ele>
        <time>2023-07-18T09:41:02Z</time>
      </trkpt>
      <trkpt lat="47.4071" lon="0.55022">
        <ele>98.4</ele>
        <time>2023-07-18T09:41:03Z</time>
      </trkpt>
      <trkpt lat="47.4071" lon="0.55029">
        <ele>98.6</ele>
        <time>2023-07-18T09:41:04Z</time>
      </trkpt>
      <trkpt lat="47.4071" lon="0.55036">
        <ele>98.8</ele>
        <time>2023-07-18T09:41:05Z</time>
      </trkpt>
      <trkpt lat="47.4071" lon="0.55042">
        <ele>99</ele>
        <time>2023-07-18T09:41:06Z</time>
      </trkpt>
      <trkpt lat="47.4071" lon="0.55049">
        <ele>99</ele>
        <time>2023-07-18T09:41:07Z</time>
      </trkpt>
      <trkpt lat="47.4071" lon="0.55056">
        <ele>99.2</ele>
        <time>2023-07-18T09:41:08Z</time>
      </trkpt>
      <trkpt lat="47.4071" lon="0.55063">
        <ele>99.4</ele>
        <time>2023-07-18T09:41:09Z</time>
      </trkpt>
      <trkpt lat="47.4071" lon="0.55069">
        <ele>99.6</ele>
        <time>2023-07-18T09:41:10Z</time>
      </trkpt>
      <trkpt lat="47.4071" lon="0.55076">
        <ele>100</ele>
        <time>2023-07-18T09:41:11Z</time>
      </trkpt>
      <trkpt lat="47.4071" lon="0.55083">
        <ele>100.4</ele>
        <time>2023-07-18T09:41:12Z</time>
      </trkpt>
      <trkpt lat="47.4071" lon="0.5509">
        <ele>100.6</ele>
        <time>2023-07-18T09:41:13Z</time>
      </trkpt>
      <trkpt lat="47.4071" lon="0.55096">
        <ele>100.8</ele>
        <time>2023-07-18T09:41:14Z</time>
      </trkpt>
      <trkpt lat="47.4071" lon="0.55103">
        <ele>101</ele>
        <time>2023-07-18T09:41:15Z</time>
      </trkpt>
      <trkpt lat="47.4071" lon="0.5511">
        <ele>101</ele>
        <time>2023-07-18T09:41:16Z</time>
      </trkpt>
      <trkpt lat="47.4071" lon="0.55117">
        <ele>101.2</ele>
        <time>2023-07-18T09:41:17Z</time>
      </trkpt>
      <trkpt lat="47.4071" lon="0.55124">
        <ele>101.4</ele>
        <time>2023-07-18T09:41:18Z</time>
      </trkpt>
      <trkpt lat="47.4071" lon="0.55131">
        <ele>101.4</ele>
        <time>2023-07-18T09:41:19Z</time>
      </trkpt>
      <trkpt lat="47.4071" lon="0.55138">
        <ele>101.6</ele>
        <time>2023-07-18T09:41:20Z</time>
      </trkpt>
      <trkpt lat="47.40709" lon="0.55145">
        <ele>101.8</ele>
        <time>2023-07-18T09:41:21Z</time>
      </trkpt>
      <trkpt lat="47.40709" lon="0.55152">
        <ele>102</ele>
        <time>2023-07-18T09:41:22Z</time>
      </trkpt>
      <trkpt lat="47.4071" lon="0.55159">
        <ele>102.2</ele>
        <time>2023-07-18T09:41:23Z</time>
      </trkpt>
      <trkpt lat="47.4071" lon="0.55166">
        <ele>102.2</ele>
        <time>2023-07-18T09:41:24Z</time>
      </trkpt>
      <trkpt lat="47.4071" lon="0.55172">
        <ele>102.4</ele>
        <time>2023-07-18T09:41:25Z</time>
      </trkpt>
      <trkpt lat="47.4071" lon="0.55179">
        <ele>102.6</ele>
        <time>2023-07-18T09:41:26Z</time>
      </trkpt>
      <trkpt lat="47.4071" lon="0.55186">
        <ele>102.8</ele>
        <time>2023-07-18T09:41:27Z</time>
      </trkpt>
      <trkpt lat="47.4071" lon="0.55192">
        <ele>103</ele>
        <time>2023-07-18T09:41:28Z</time>
      </trkpt>
      <trkpt lat="47.4071" lon="0.55199">
        <ele>103</ele>
        <time>2023-07-18T09:41:29Z</time>
      </trkpt>
      <trkpt lat="47.4071" lon="0.55206">
        <ele>103.2</ele>
        <time>2023-07-18T09:41:30Z</time>
      </trkpt>
      <trkpt lat="47.4071" lon="0.55212">
        <ele>103.6</ele>
        <time>2023-07-18T09:41:31Z</time>
      </trkpt>
      <trkpt lat="47.4071" lon="0.55219">
        <ele>103.8</ele>
        <time>2023-07-18T09:41:32Z</time>
      </trkpt>
      <trkpt lat="47.4071" lon="0.55226">
        <ele>103.8</ele>
        <time>2023-07-18T09:41:33Z</time>
      </trkpt>
      <trkpt lat="47.40711" lon="0.55233">
        <ele>104</ele>
        <time>2023-07-18T09:41:34Z</time>
      </trkpt>
      <trkpt lat="47.40711" lon="0.55239">
        <ele>104</ele>
        <time>2023-07-18T09:41:35Z</time>
      </trkpt>
      <trkpt lat="47.40712" lon="0.55246">
        <ele>104.2</ele>
        <time>2023-07-18T09:41:36Z</time>
      </trkpt>
      <trkpt lat="47.40712" lon="0.55252">
        <ele>104.2</ele>
        <time>2023-07-18T09:41:37Z</time>
      </trkpt>
      <trkpt lat="47.40712" lon="0.55258">
        <ele>104.4</ele>
        <time>2023-07-18T09:41:38Z</time>
      </trkpt>
      <trkpt lat="47.40712" lon="0.55264">
        <ele>104.4</ele>
        <time>2023-07-18T09:41:39Z</time>
      </trkpt>
      <trkpt lat="47.40712" lon="0.5527">
        <ele>104.4</ele>
        <time>2023-07-18T09:41:40Z</time>
      </trkpt>
      <trkpt lat="47.40712" lon="0.55276">
        <ele>104.6</ele>
        <time>2023-07-18T09:41:41Z</time>
      </trkpt>
      <trkpt lat="47.40712" lon="0.55282">
        <ele>104.6</ele>
        <time>2023-07-18T09:41:42Z</time>
      </trkpt>
      <trkpt lat="47.40712" lon="0.55288">
        <ele>104.6</ele>
        <time>2023-07-18T09:41:43Z</time>
      </trkpt>
      <trkpt lat="47.40712" lon="0.55294">
        <ele>104.6</ele>
        <time>2023-07-18T09:41:44Z</time>
      </trkpt>
      <trkpt lat="47.40712" lon="0.55301">
        <ele>104.6</ele>
        <time>2023-07-18T09:41:45Z</time>
      </trkpt>
      <trkpt lat="47.40711" lon="0.55307">
        <ele>104.8</ele>
        <time>2023-07-18T09:41:46Z</time>
      </trkpt>
      <trkpt lat="47.40711" lon="0.55313">
        <ele>105</ele>
        <time>2023-07-18T09:41:47Z</time>
      </trkpt>
      <trkpt lat="47.40711" lon="0.55319">
        <ele>105</ele>
        <time>2023-07-18T09:41:48Z</time>
      </trkpt>
      <trkpt lat="47.4071" lon="0.55324">
        <ele>105</ele>
        <time>2023-07-18T09:41:49Z</time>
      </trkpt>
      <trkpt lat="47.4071" lon="0.55329">
        <ele>105</ele>
        <time>2023-07-18T09:41:50Z</time>
      </trkpt>
      <trkpt lat="47.4071" lon="0.55334">
        <ele>105</ele>
        <time>2023-07-18T09:41:51Z</time>
      </trkpt>
      <trkpt lat="47.40711" lon="0.55338">
        <ele>105.2</ele>
        <time>2023-07-18T09:41:52Z</time>
      </trkpt>
      <trkpt lat="47.40711" lon="0.55343">
        <ele>105.4</ele>
        <time>2023-07-18T09:41:53Z</time>
      </trkpt>
      <trkpt lat="47.40711" lon="0.55348">
        <ele>105.6</ele>
        <time>2023-07-18T09:41:54Z</time>
      </trkpt>
      <trkpt lat="47.40712" lon="0.55353">
        <ele>105.6</ele>
        <time>2023-07-18T09:41:55Z</time>
      </trkpt>
      <trkpt lat="47.40713" lon="0.55359">
        <ele>105.8</ele>
        <time>2023-07-18T09:41:56Z</time>
      </trkpt>
      <trkpt lat="47.40715" lon="0.55365">
        <ele>106</ele>
        <time>2023-07-18T09:41:57Z</time>
      </trkpt>
      <trkpt lat="47.40715" lon="0.55372">
        <ele>106</ele>
        <time>2023-07-18T09:41:58Z</time>
      </trkpt>
      <trkpt lat="47.40717" lon="0.55378">
        <ele>106.2</ele>
        <time>2023-07-18T09:41:59Z</time>
      </trkpt>
      <trkpt lat="47.40719" lon="0.55385">
        <ele>106.2</ele>
        <time>2023-07-18T09:42:00Z</time>
      </trkpt>
      <trkpt lat="47.4072" lon="0.55393">
        <ele>106.2</ele>
        <time>2023-07-18T09:42:01Z</time>
      </trkpt>
      <trkpt lat="47.40721" lon="0.554">
        <ele>106.2</ele>
        <time>2023-07-18T09:42:02Z</time>
      </trkpt>
      <trkpt lat="47.40722" lon="0.55407">
        <ele>106.2</ele>
        <time>2023-07-18T09:42:03Z</time>
      </trkpt>
      <trkpt lat="47.40723" lon="0.55415">
        <ele>106.2</ele>
        <time>2023-07-18T09:42:04Z</time>
      </trkpt>
      <trkpt lat="47.40725" lon="0.55423">
        <ele>106.2</ele>
        <time>2023-07-18T09:42:05Z</time>
      </trkpt>
      <trkpt lat="47.40725" lon="0.5543">
        <ele>106.2</ele>
        <time>2023-07-18T09:42:06Z</time>
      </trkpt>
      <trkpt lat="47.40726" lon="0.55438">
        <ele>106.2</ele>
        <time>2023-07-18T09:42:07Z</time>
      </trkpt>
      <trkpt lat="47.40727" lon="0.55446">
        <ele>106.2</ele>
        <time>2023-07-18T09:42:08Z</time>
      </trkpt>
      <trkpt lat="47.40729" lon="0.55454">
        <ele>106.2</ele>
        <time>2023-07-18T09:42:09Z</time>
      </trkpt>
      <trkpt lat="47.4073" lon="0.55461">
        <ele>106.2</ele>
        <time>2023-07-18T09:42:10Z</time>
      </trkpt>
      <trkpt lat="47.40731" lon="0.55469">
        <ele>106.2</ele>
        <time>2023-07-18T09:42:11Z</time>
      </trkpt>
      <trkpt lat="47.40733" lon="0.55477">
        <ele>106.4</ele>
        <time>2023-07-18T09:42:12Z</time>
      </trkpt>
      <trkpt lat="47.40734" lon="0.55485">
        <ele>106.2</ele>
        <time>2023-07-18T09:42:13Z</time>
      </trkpt>
      <trkpt lat="47.40735" lon="0.55494">
        <ele>106.2</ele>
        <time>2023-07-18T09:42:14Z</time>
      </trkpt>
      <trkpt lat="47.40736" lon="0.55502">
        <ele>106</ele>
        <time>2023-07-18T09:42:15Z</time>
      </trkpt>
      <trkpt lat="47.40738" lon="0.5551">
        <ele>106</ele>
        <time>2023-07-18T09:42:16Z</time>
      </trkpt>
      <trkpt lat="47.40739" lon="0.55518">
        <ele>106</ele>
        <time>2023-07-18T09:42:17Z</time>
      </trkpt>
      <trkpt lat="47.4074" lon="0.55525">
        <ele>106</ele>
        <time>2023-07-18T09:42:18Z</time>
      </trkpt>
      <trkpt lat="47.40741" lon="0.55533">
        <ele>106</ele>
        <time>2023-07-18T09:42:19Z</time>
      </trkpt>
      <trkpt lat="47.40742" lon="0.55541">
        <ele>106.2</ele>
        <time>2023-07-18T09:42:20Z</time>
      </trkpt>
      <trkpt lat="47.40744" lon="0.55549">
        <ele>106.2</ele>
        <time>2023-07-18T09:42:21Z</time>
      </trkpt>
      <trkpt lat="47.40744" lon="0.55557">
        <ele>106.2</ele>
        <time>2023-07-18T09:42:22Z</time>
      </trkpt>
      <trkpt lat="47.40746" lon="0.55565">
        <ele>106.2</ele>
        <time>2023-07-18T09:42:23Z</time>
      </trkpt>
      <trkpt lat="47.40746" lon="0.55573">
        <ele>106.2</ele>
        <time>2023-07-18T09:42:24Z</time>
      </trkpt>
      <trkpt lat="47.40747" lon="0.55581">
        <ele>106.4</ele>
        <time>2023-07-18T09:42:25Z</time>
      </trkpt>
      <trkpt lat="47.40748" lon="0.55589">
        <ele>106.4</ele>
        <time>2023-07-18T09:42:26Z</time>
      </trkpt>
      <trkpt lat="47.40749" lon="0.55596">
        <ele>106.6</ele>
        <time>2023-07-18T09:42:27Z</time>
      </trkpt>
      <trkpt lat="47.40751" lon="0.55605">
        <ele>106.6</ele>
        <time>2023-07-18T09:42:28Z</time>
      </trkpt>
      <trkpt lat="47.40752" lon="0.55613">
        <ele>106.6</ele>
        <time>2023-07-18T09:42:29Z</time>
      </trkpt>
      <trkpt lat="47.40753" lon="0.55621">
        <ele>106.8</ele>
        <time>2023-07-18T09:42:30Z</time>
      </trkpt>
      <trkpt lat="47.40754" lon="0.55629">
        <ele>107</ele>
        <time>2023-07-18T09:42:31Z</time>
      </trkpt>
      <trkpt lat="47.40755" lon="0.55636">
        <ele>107.2</ele>
        <time>2023-07-18T09:42:32Z</time>
      </trkpt>
      <trkpt lat="47.40757" lon="0.55644">
        <ele>107.4</ele>
        <time>2023-07-18T09:42:33Z</time>
      </trkpt>
      <trkpt lat="47.40758" lon="0.55652">
        <ele>107.6</ele>
        <time>2023-07-18T09:42:34Z</time>
      </trkpt>
      <trkpt lat="47.40759" lon="0.55659">
        <ele>108</ele>
        <time>2023-07-18T09:42:35Z</time>
      </trkpt>
      <trkpt lat="47.40759" lon="0.55667">
        <ele>108</ele>
        <time>2023-07-18T09:42:36Z</time>
      </trkpt>
      <trkpt lat="47.40759" lon="0.55675">
        <ele>108.2</ele>
        <time>2023-07-18T09:42:37Z</time>
      </trkpt>
      <trkpt lat="47.40759" lon="0.55683">
        <ele>108.4</ele>
        <time>2023-07-18T09:42:38Z</time>
      </trkpt>
      <trkpt lat="47.40759" lon="0.5569">
        <ele>108.2</ele>
        <time>2023-07-18T09:42:39Z</time>
      </trkpt>
      <trkpt lat="47.40758" lon="0.55698">
        <ele>108.2</ele>
        <time>2023-07-18T09:42:40Z</time>
      </trkpt>
      <trkpt lat="47.40757" lon="0.55706">
        <ele>108.2</ele>
        <time>2023-07-18T09:42:41Z</time>
      </trkpt>
      <trkpt lat="47.40757" lon="0.55713">
        <ele>108</ele>
        <time>2023-07-18T09:42:42Z</time>
      </trkpt>
      <trkpt lat="47.40756" lon="0.55721">
        <ele>107.8</ele>
        <time>2023-07-18T09:42:43Z</time>
      </trkpt>
      <trkpt lat="47.40755" lon="0.55729">
        <ele>107.8</ele>
        <time>2023-07-18T09:42:44Z</time>
      </trkpt>
      <trkpt lat="47.40755" lon="0.55737">
        <ele>107.8</ele>
        <time>2023-07-18T09:42:45Z</time>
      </trkpt>
      <trkpt lat="47.40754" lon="0.55744">
        <ele>107.6</ele>
        <time>2023-07-18T09:42:46Z</time>
      </trkpt>
      <trkpt lat="47.40754" lon="0.55753">
        <ele>107.8</ele>
        <time>2023-07-18T09:42:47Z</time>
      </trkpt>
      <trkpt lat="47.40753" lon="0.55761">
        <ele>108</ele>
        <time>2023-07-18T09:42:48Z</time>
      </trkpt>
      <trkpt lat="47.40752" lon="0.55769">
        <ele>108</ele>
        <time>2023-07-18T09:42:49Z</time>
      </trkpt>
      <trkpt lat="47.40752" lon="0.55777">
        <ele>108.2</ele>
        <time>2023-07-18T09:42:50Z</time>
      </trkpt>
      <trkpt lat="47.40751" lon="0.55785">
        <ele>108.2</ele>
        <time>2023-07-18T09:42:51Z</time>
      </trkpt>
      <trkpt lat="47.40751" lon="0.55793">
        <ele>108.2</ele>
        <time>2023-07-18T09:42:52Z</time>
      </trkpt>
      <trkpt lat="47.40751" lon="0.55801">
        <ele>108.2</ele>
        <time>2023-07-18T09:42:53Z</time>
      </trkpt>
      <trkpt lat="47.40752" lon="0.55809">
        <ele>108.2</ele>
        <time>2023-07-18T09:42:54Z</time>
      </trkpt>
      <trkpt lat="47.40752" lon="0.55817">
        <ele>108.2</ele>
        <time>2023-07-18T09:42:55Z</time>
      </trkpt>
      <trkpt lat="47.40754" lon="0.55825">
        <ele>108</ele>
        <time>2023-07-18T09:42:56Z</time>
      </trkpt>
      <trkpt lat="47.40755" lon="0.55833">
        <ele>108</ele>
        <time>2023-07-18T09:42:57Z</time>
      </trkpt>
      <trkpt lat="47.40757" lon="0.5584">
        <ele>108</ele>
        <time>2023-07-18T09:42:58Z</time>
      </trkpt>
      <trkpt lat="47.40759" lon="0.55848">
        <ele>107.8</ele>
        <time>2023-07-18T09:42:59Z</time>
      </trkpt>
      <trkpt lat="47.4076" lon="0.55856">
        <ele>107.8</ele>
        <time>2023-07-18T09:43:00Z</time>
      </trkpt>
      <trkpt lat="47.40763" lon="0.55863">
        <ele>107.8</ele>
        <time>2023-07-18T09:43:01Z</time>
      </trkpt>
      <trkpt lat="47.40765" lon="0.55871">
        <ele>107.8</ele>
        <time>2023-07-18T09:43:02Z</time>
      </trkpt>
      <trkpt lat="47.40768" lon="0.55878">
        <ele>107.8</ele>
        <time>2023-07-18T09:43:03Z</time>
      </trkpt>
      <trkpt lat="47.40772" lon="0.55885">
        <ele>107.8</ele>
        <time>2023-07-18T09:43:04Z</time>
      </trkpt>
      <trkpt lat="47.40775" lon="0.55892">
        <ele>107.8</ele>
        <time>2023-07-18T09:43:05Z</time>
      </trkpt>
      <trkpt lat="47.40778" lon="0.559">
        <ele>107.6</ele>
        <time>2023-07-18T09:43:06Z</time>
      </trkpt>
      <trkpt lat="47.40781" lon="0.55907">
        <ele>107.4</ele>
        <time>2023-07-18T09:43:07Z</time>
      </trkpt>
      <trkpt lat="47.40785" lon="0.55915">
        <ele>107.4</ele>
        <time>2023-07-18T09:43:08Z</time>
      </trkpt>
      <trkpt lat="47.40789" lon="0.55922">
        <ele>107.6</ele>
        <time>2023-07-18T09:43:09Z</time>
      </trkpt>
      <trkpt lat="47.40792" lon="0.5593">
        <ele>107.8</ele>
        <time>2023-07-18T09:43:10Z</time>
      </trkpt>
      <trkpt lat="47.40795" lon="0.55937">
        <ele>107.8</ele>
        <time>2023-07-18T09:43:11Z</time>
      </trkpt>
      <trkpt lat="47.40799" lon="0.55945">
        <ele>107.8</ele>
        <time>2023-07-18T09:43:12Z</time>
      </trkpt>
      <trkpt lat="47.40802" lon="0.55953">
        <ele>107.8</ele>
        <time>2023-07-18T09:43:13Z</time>
      </trkpt>
      <trkpt lat="47.40806" lon="0.55961">
        <ele>107.6</ele>
        <time>2023-07-18T09:43:14Z</time>
      </trkpt>
      <trkpt lat="47.40809" lon="0.55969">
        <ele>107.6</ele>
        <time>2023-07-18T09:43:15Z</time>
      </trkpt>
      <trkpt lat="47.40813" lon="0.55977">
        <ele>107.8</ele>
        <time>2023-07-18T09:43:16Z</time>
      </trkpt>
      <trkpt lat="47.40816" lon="0.55984">
        <ele>107.8</ele>
        <time>2023-07-18T09:43:17Z</time>
      </trkpt>
      <trkpt lat="47.40821" lon="0.55992">
        <ele>107.8</ele>
        <time>2023-07-18T09:43:18Z</time>
      </trkpt>
      <trkpt lat="47.40825" lon="0.55998">
        <ele>107.6</ele>
        <time>2023-07-18T09:43:19Z</time>
      </trkpt>
      <trkpt lat="47.4083" lon="0.56003">
        <ele>107.6</ele>
        <time>2023-07-18T09:43:20Z</time>
      </trkpt>
      <trkpt lat="47.40836" lon="0.56005">
        <ele>107.4</ele>
        <time>2023-07-18T09:43:21Z</time>
      </trkpt>
      <trkpt lat="47.40842" lon="0.56005">
        <ele>107.2</ele>
        <time>2023-07-18T09:43:22Z</time>
      </trkpt>
      <trkpt lat="47.40848" lon="0.56004">
        <ele>107</ele>
        <time>2023-07-18T09:43:23Z</time>
      </trkpt>
      <trkpt lat="47.40855" lon="0.56001">
        <ele>107</ele>
        <time>2023-07-18T09:43:24Z</time>
      </trkpt>
      <trkpt lat="47.40862" lon="0.56">
        <ele>107</ele>
        <time>2023-07-18T09:43:25Z</time>
      </trkpt>
      <trkpt lat="47.40868" lon="0.55998">
        <ele>107</ele>
        <time>2023-07-18T09:43:26Z</time>
      </trkpt>
      <trkpt lat="47.40875" lon="0.55997">
        <ele>106.8</ele>
        <time>2023-07-18T09:43:27Z</time>
      </trkpt>
      <trkpt lat="47.40882" lon="0.55995">
        <ele>106.8</ele>
        <time>2023-07-18T09:43:28Z</time>
      </trkpt>
      <trkpt lat="47.40889" lon="0.55994">
        <ele>106.8</ele>
        <time>2023-07-18T09:43:29Z</time>
      </trkpt>
      <trkpt lat="47.40896" lon="0.55993">
        <ele>106.6</ele>
        <time>2023-07-18T09:43:30Z</time>
      </trkpt>
      <trkpt lat="47.40902" lon="0.55991">
        <ele>106.6</ele>
        <time>2023-07-18T09:43:31Z</time>
      </trkpt>
      <trkpt lat="47.40909" lon="0.5599">
        <ele>106.4</ele>
        <time>2023-07-18T09:43:32Z</time>
      </trkpt>
      <trkpt lat="47.40916" lon="0.55988">
        <ele>106.4</ele>
        <time>2023-07-18T09:43:33Z</time>
      </trkpt>
      <trkpt lat="47.40923" lon="0.55986">
        <ele>106.2</ele>
        <time>2023-07-18T09:43:34Z</time>
      </trkpt>
      <trkpt lat="47.40929" lon="0.55986">
        <ele>106.2</ele>
        <time>2023-07-18T09:43:35Z</time>
      </trkpt>
      <trkpt lat="47.40935" lon="0.55988">
        <ele>106.2</ele>
        <time>2023-07-18T09:43:36Z</time>
      </trkpt>
      <trkpt lat="47.4094" lon="0.55993">
        <ele>106.4</ele>
        <time>2023-07-18T09:43:37Z</time>
      </trkpt>
      <trkpt lat="47.40945" lon="0.56001">
        <ele>106.8</ele>
        <time>2023-07-18T09:43:38Z</time>
      </trkpt>
      <trkpt lat="47.40947" lon="0.56009">
        <ele>107</ele>
        <time>2023-07-18T09:43:39Z</time>
      </trkpt>
      <trkpt lat="47.40948" lon="0.56018">
        <ele>107</ele>
        <time>2023-07-18T09:43:40Z</time>
      </trkpt>
      <trkpt lat="47.4095" lon="0.56026">
        <ele>107.2</ele>
        <time>2023-07-18T09:43:41Z</time>
      </trkpt>
      <trkpt lat="47.40953" lon="0.56033">
        <ele>107</ele>
        <time>2023-07-18T09:43:42Z</time>
      </trkpt>
      <trkpt lat="47.40957" lon="0.56038">
        <ele>106.8</ele>
        <time>2023-07-18T09:43:43Z</time>
      </trkpt>
      <trkpt lat="47.40962" lon="0.56041">
        <ele>106.6</ele>
        <time>2023-07-18T09:43:44Z</time>
      </trkpt>
      <trkpt lat="47.40967" lon="0.56041">
        <ele>106.6</ele>
        <time>2023-07-18T09:43:45Z</time>
      </trkpt>
      <trkpt lat="47.40973" lon="0.56041">
        <ele>106.4</ele>
        <time>2023-07-18T09:43:46Z</time>
      </trkpt>
      <trkpt lat="47.40979" lon="0.5604">
        <ele>106.4</ele>
        <time>2023-07-18T09:43:47Z</time>
      </trkpt>
      <trkpt lat="47.40986" lon="0.5604">
        <ele>106.4</ele>
        <time>2023-07-18T09:43:48Z</time>
      </trkpt>
      <trkpt lat="47.40992" lon="0.5604">
        <ele>106.4</ele>
        <time>2023-07-18T09:43:49Z</time>
      </trkpt>
      <trkpt lat="47.40998" lon="0.56039">
        <ele>106.4</ele>
        <time>2023-07-18T09:43:50Z</time>
      </trkpt>
      <trkpt lat="47.41005" lon="0.56039">
        <ele>106.6</ele>
        <time>2023-07-18T09:43:51Z</time>
      </trkpt>
      <trkpt lat="47.41011" lon="0.56038">
        <ele>106.6</ele>
        <time>2023-07-18T09:43:52Z</time>
      </trkpt>
      <trkpt lat="47.41017" lon="0.56038">
        <ele>106.6</ele>
        <time>2023-07-18T09:43:53Z</time>
      </trkpt>
      <trkpt lat="47.41023" lon="0.56037">
        <ele>106.6</ele>
        <time>2023-07-18T09:43:54Z</time>
      </trkpt>
      <trkpt lat="47.41029" lon="0.56037">
        <ele>106.8</ele>
        <time>2023-07-18T09:43:55Z</time>
      </trkpt>
      <trkpt lat="47.41036" lon="0.56037">
        <ele>106.8</ele>
        <time>2023-07-18T09:43:56Z</time>
      </trkpt>
      <trkpt lat="47.41042" lon="0.56037">
        <ele>107</ele>
        <time>2023-07-18T09:43:57Z</time>
      </trkpt>
      <trkpt lat="47.41048" lon="0.56037">
        <ele>107</ele>
        <time>2023-07-18T09:43:58Z</time>
      </trkpt>
      <trkpt lat="47.41054" lon="0.56037">
        <ele>107.2</ele>
        <time>2023-07-18T09:43:59Z</time>
      </trkpt>
      <trkpt lat="47.4106" lon="0.56037">
        <ele>107.2</ele>
        <time>2023-07-18T09:44:00Z</time>
      </trkpt>
      <trkpt lat="47.41066" lon="0.56037">
        <ele>107.4</ele>
        <time>2023-07-18T09:44:01Z</time>
      </trkpt>
      <trkpt lat="47.41072" lon="0.56037">
        <ele>107.4</ele>
        <time>2023-07-18T09:44:02Z</time>
      </trkpt>
      <trkpt lat="47.41079" lon="0.56038">
        <ele>107.4</ele>
        <time>2023-07-18T09:44:03Z</time>
      </trkpt>
      <trkpt lat="47.41084" lon="0.56041">
        <ele>107.6</ele>
        <time>2023-07-18T09:44:04Z</time>
      </trkpt>
      <trkpt lat="47.41087" lon="0.56045">
        <ele>107.8</ele>
        <time>2023-07-18T09:44:05Z</time>
      </trkpt>
      <trkpt lat="47.41091" lon="0.56052">
        <ele>108</ele>
        <time>2023-07-18T09:44:06Z</time>
      </trkpt>
      <trkpt lat="47.41093" lon="0.5606">
        <ele>108.2</ele>
        <time>2023-07-18T09:44:07Z</time>
      </trkpt>
      <trkpt lat="47.41094" lon="0.56069">
        <ele>108.2</ele>
        <time>2023-07-18T09:44:08Z</time>
      </trkpt>
      <trkpt lat="47.41096" lon="0.56078">
        <ele>108.2</ele>
        <time>2023-07-18T09:44:09Z</time>
      </trkpt>
      <trkpt lat="47.41097" lon="0.56086">
        <ele>108.2</ele>
        <time>2023-07-18T09:44:10Z</time>
      </trkpt>
      <trkpt lat="47.41099" lon="0.56095">
        <ele>108.4</ele>
        <time>2023-07-18T09:44:11Z</time>
      </trkpt>
      <trkpt lat="47.41101" lon="0.56104">
        <ele>108.2</ele>
        <time>2023-07-18T09:44:12Z</time>
      </trkpt>
      <trkpt lat="47.41102" lon="0.56112">
        <ele>108.4</ele>
        <time>2023-07-18T09:44:13Z</time>
      </trkpt>
      <trkpt lat="47.41105" lon="0.56121">
        <ele>108.4</ele>
        <time>2023-07-18T09:44:14Z</time>
      </trkpt>
      <trkpt lat="47.41106" lon="0.5613">
        <ele>108.6</ele>
        <time>2023-07-18T09:44:15Z</time>
      </trkpt>
      <trkpt lat="47.41108" lon="0.56138">
        <ele>108.6</ele>
        <time>2023-07-18T09:44:16Z</time>
      </trkpt>
      <trkpt lat="47.4111" lon="0.56146">
        <ele>108.6</ele>
        <time>2023-07-18T09:44:17Z</time>
      </trkpt>
      <trkpt lat="47.41112" lon="0.56155">
        <ele>108.6</ele>
        <time>2023-07-18T09:44:18Z</time>
      </trkpt>
      <trkpt lat="47.41114" lon="0.56163">
        <ele>108.6</ele>
        <time>2023-07-18T09:44:19Z</time>
      </trkpt>
      <trkpt lat="47.41116" lon="0.56171">
        <ele>108.8</ele>
        <time>2023-07-18T09:44:20Z</time>
      </trkpt>
      <trkpt lat="47.41117" lon="0.5618">
        <ele>108.8</ele>
        <time>2023-07-18T09:44:21Z</time>
      </trkpt>
      <trkpt lat="47.41119" lon="0.56189">
        <ele>109</ele>
        <time>2023-07-18T09:44:22Z</time>
      </trkpt>
      <trkpt lat="47.4112" lon="0.56198">
        <ele>108.8</ele>
        <time>2023-07-18T09:44:23Z</time>
      </trkpt>
      <trkpt lat="47.41121" lon="0.56206">
        <ele>108.8</ele>
        <time>2023-07-18T09:44:24Z</time>
      </trkpt>
      <trkpt lat="47.41121" lon="0.56215">
        <ele>108.8</ele>
        <time>2023-07-18T09:44:25Z</time>
      </trkpt>
      <trkpt lat="47.41121" lon="0.56224">
        <ele>109</ele>
        <time>2023-07-18T09:44:26Z</time>
      </trkpt>
      <trkpt lat="47.41121" lon="0.56233">
        <ele>108.8</ele>
        <time>2023-07-18T09:44:27Z</time>
      </trkpt>
      <trkpt lat="47.4112" lon="0.56242">
        <ele>108.6</ele>
        <time>2023-07-18T09:44:28Z</time>
      </trkpt>
      <trkpt lat="47.4112" lon="0.5625">
        <ele>108.6</ele>
        <time>2023-07-18T09:44:29Z</time>
      </trkpt>
      <trkpt lat="47.41119" lon="0.56259">
        <ele>108.6</ele>
        <time>2023-07-18T09:44:30Z</time>
      </trkpt>
      <trkpt lat="47.41119" lon="0.56268">
        <ele>108.8</ele>
        <time>2023-07-18T09:44:31Z</time>
      </trkpt>
      <trkpt lat="47.41119" lon="0.56277">
        <ele>109</ele>
        <time>2023-07-18T09:44:32Z</time>
      </trkpt>
      <trkpt lat="47.41119" lon="0.56286">
        <ele>109.2</ele>
        <time>2023-07-18T09:44:33Z</time>
      </trkpt>
      <trkpt lat="47.41119" lon="0.56295">
        <ele>109.2</ele>
        <time>2023-07-18T09:44:34Z</time>
      </trkpt>
      <trkpt lat="47.41119" lon="0.56304">
        <ele>109.2</ele>
        <time>2023-07-18T09:44:35Z</time>
      </trkpt>
      <trkpt lat="47.4112" lon="0.56313">
        <ele>109.2</ele>
        <time>2023-07-18T09:44:36Z</time>
      </trkpt>
      <trkpt lat="47.41121" lon="0.56321">
        <ele>109.2</ele>
        <time>2023-07-18T09:44:37Z</time>
      </trkpt>
      <trkpt lat="47.41122" lon="0.5633">
        <ele>109</ele>
        <time>2023-07-18T09:44:38Z</time>
      </trkpt>
      <trkpt lat="47.41123" lon="0.56339">
        <ele>109</ele>
        <time>2023-07-18T09:44:39Z</time>
      </trkpt>
      <trkpt lat="47.41124" lon="0.56348">
        <ele>108.8</ele>
        <time>2023-07-18T09:44:40Z</time>
      </trkpt>
      <trkpt lat="47.41126" lon="0.56357">
        <ele>108.8</ele>
        <time>2023-07-18T09:44:41Z</time>
      </trkpt>
      <trkpt lat="47.41128" lon="0.56366">
        <ele>108.8</ele>
        <time>2023-07-18T09:44:42Z</time>
      </trkpt>
      <trkpt lat="47.41131" lon="0.56375">
        <ele>108.8</ele>
        <time>2023-07-18T09:44:43Z</time>
      </trkpt>
      <trkpt lat="47.41133" lon="0.56383">
        <ele>108.8</ele>
        <time>2023-07-18T09:44:44Z</time>
      </trkpt>
      <trkpt lat="47.41135" lon="0.56391">
        <ele>108.8</ele>
        <time>2023-07-18T09:44:45Z</time>
      </trkpt>
      <trkpt lat="47.41137" lon="0.56399">
        <ele>108.8</ele>
        <time>2023-07-18T09:44:46Z</time>
      </trkpt>
      <trkpt lat="47.41139" lon="0.56408">
        <ele>108.8</ele>
        <time>2023-07-18T09:44:47Z</time>
      </trkpt>
      <trkpt lat="47.41141" lon="0.56416">
        <ele>108.6</ele>
        <time>2023-07-18T09:44:48Z</time>
      </trkpt>
      <trkpt lat="47.41143" lon="0.56425">
        <ele>108.4</ele>
        <time>2023-07-18T09:44:49Z</time>
      </trkpt>
      <trkpt lat="47.41144" lon="0.56433">
        <ele>108.4</ele>
        <time>2023-07-18T09:44:50Z</time>
      </trkpt>
      <trkpt lat="47.41144" lon="0.56442">
        <ele>108.6</ele>
        <time>2023-07-18T09:44:51Z</time>
      </trkpt>
      <trkpt lat="47.41144" lon="0.56451">
        <ele>108.6</ele>
        <time>2023-07-18T09:44:52Z</time>
      </trkpt>
      <trkpt lat="47.41144" lon="0.56459">
        <ele>108.6</ele>
        <time>2023-07-18T09:44:53Z</time>
      </trkpt>
      <trkpt lat="47.41143" lon="0.56467">
        <ele>108.6</ele>
        <time>2023-07-18T09:44:54Z</time>
      </trkpt>
      <trkpt lat="47.41141" lon="0.56476">
        <ele>108.8</ele>
        <time>2023-07-18T09:44:55Z</time>
      </trkpt>
      <trkpt lat="47.41139" lon="0.56484">
        <ele>109</ele>
        <time>2023-07-18T09:44:56Z</time>
      </trkpt>
      <trkpt lat="47.41137" lon="0.56493">
        <ele>109</ele>
        <time>2023-07-18T09:44:57Z</time>
      </trkpt>
      <trkpt lat="47.41136" lon="0.56501">
        <ele>109</ele>
        <time>2023-07-18T09:44:58Z</time>
      </trkpt>
      <trkpt lat="47.41135" lon="0.5651">
        <ele>108.8</ele>
        <time>2023-07-18T09:44:59Z</time>
      </trkpt>
      <trkpt lat="47.41135" lon="0.56519">
        <ele>109</ele>
        <time>2023-07-18T09:45:00Z</time>
      </trkpt>
      <trkpt lat="47.41135" lon="0.56527">
        <ele>108.8</ele>
        <time>2023-07-18T09:45:01Z</time>
      </trkpt>
      <trkpt lat="47.41136" lon="0.56536">
        <ele>108.8</ele>
        <time>2023-07-18T09:45:02Z</time>
      </trkpt>
      <trkpt lat="47.41137" lon="0.56545">
        <ele>108.8</ele>
        <time>2023-07-18T09:45:03Z</time>
      </trkpt>
      <trkpt lat="47.41138" lon="0.56553">
        <ele>108.8</ele>
        <time>2023-07-18T09:45:04Z</time>
      </trkpt>
      <trkpt lat="47.4114" lon="0.56562">
        <ele>108.8</ele>
        <time>2023-07-18T09:45:05Z</time>
      </trkpt>
      <trkpt lat="47.41142" lon="0.5657">
        <ele>108.8</ele>
        <time>2023-07-18T09:45:06Z</time>
      </trkpt>
      <trkpt lat="47.41143" lon="0.56579">
        <ele>108.8</ele>
        <time>2023-07-18T09:45:07Z</time>
      </trkpt>
      <trkpt lat="47.41144" lon="0.56588">
        <ele>108.8</ele>
        <time>2023-07-18T09:45:08Z</time>
      </trkpt>
      <trkpt lat="47.41145" lon="0.56595">
        <ele>108.8</ele>
        <time>2023-07-18T09:45:09Z</time>
      </trkpt>
      <trkpt lat="47.41146" lon="0.56604">
        <ele>108.8</ele>
        <time>2023-07-18T09:45:10Z</time>
      </trkpt>
      <trkpt lat="47.41147" lon="0.56613">
        <ele>108.8</ele>
        <time>2023-07-18T09:45:11Z</time>
      </trkpt>
      <trkpt lat="47.41148" lon="0.56622">
        <ele>108.8</ele>
        <time>2023-07-18T09:45:12Z</time>
      </trkpt>
      <trkpt lat="47.41148" lon="0.5663">
        <ele>108.6</ele>
        <time>2023-07-18T09:45:13Z</time>
      </trkpt>
      <trkpt lat="47.41148" lon="0.56639">
        <ele>108.8</ele>
        <time>2023-07-18T09:45:14Z</time>
      </trkpt>
      <trkpt lat="47.41148" lon="0.56648">
        <ele>108.8</ele>
        <time>2023-07-18T09:45:15Z</time>
      </trkpt>
      <trkpt lat="47.41147" lon="0.56655">
        <ele>108.8</ele>
        <time>2023-07-18T09:45:16Z</time>
      </trkpt>
      <trkpt lat="47.41146" lon="0.56665">
        <ele>108.6</ele>
        <time>2023-07-18T09:45:17Z</time>
      </trkpt>
      <trkpt lat="47.41145" lon="0.56673">
        <ele>108.4</ele>
        <time>2023-07-18T09:45:18Z</time>
      </trkpt>
      <trkpt lat="47.41145" lon="0.56682">
        <ele>108.4</ele>
        <time>2023-07-18T09:45:19Z</time>
      </trkpt>
      <trkpt lat="47.41144" lon="0.5669">
        <ele>108.4</ele>
        <time>2023-07-18T09:45:20Z</time>
      </trkpt>
      <trkpt lat="47.41143" lon="0.56699">
        <ele>108.4</ele>
        <time>2023-07-18T09:45:21Z</time>
      </trkpt>
      <trkpt lat="47.41142" lon="0.56708">
        <ele>108.6</ele>
        <time>2023-07-18T09:45:22Z</time>
      </trkpt>
      <trkpt lat="47.41141" lon="0.56716">
        <ele>108.8</ele>
        <time>2023-07-18T09:45:23Z</time>
      </trkpt>
      <trkpt lat="47.4114" lon="0.56726">
        <ele>109</ele>
        <time>2023-07-18T09:45:24Z</time>
      </trkpt>
      <trkpt lat="47.41139" lon="0.56734">
        <ele>109</ele>
        <time>2023-07-18T09:45:25Z</time>
      </trkpt>
      <trkpt lat="47.41138" lon="0.56743">
        <ele>109</ele>
        <time>2023-07-18T09:45:26Z</time>
      </trkpt>
      <trkpt lat="47.41137" lon="0.56751">
        <ele>109.2</ele>
        <time>2023-07-18T09:45:27Z</time>
      </trkpt>
      <trkpt lat="47.41137" lon="0.5676">
        <ele>109</ele>
        <time>2023-07-18T09:45:28Z</time>
      </trkpt>
      <trkpt lat="47.41136" lon="0.56768">
        <ele>109</ele>
        <time>2023-07-18T09:45:29Z</time>
      </trkpt>
      <trkpt lat="47.41135" lon="0.56776">
        <ele>109.2</ele>
        <time>2023-07-18T09:45:30Z</time>
      </trkpt>
      <trkpt lat="47.41134" lon="0.56785">
        <ele>109</ele>
        <time>2023-07-18T09:45:31Z</time>
      </trkpt>
      <trkpt lat="47.41133" lon="0.56793">
        <ele>109</ele>
        <time>2023-07-18T09:45:32Z</time>
      </trkpt>
      <trkpt lat="47.41132" lon="0.56801">
        <ele>109</ele>
        <time>2023-07-18T09:45:33Z</time>
      </trkpt>
      <trkpt lat="47.4113" lon="0.56809">
        <ele>109.2</ele>
        <time>2023-07-18T09:45:34Z</time>
      </trkpt>
      <trkpt lat="47.4113" lon="0.56818">
        <ele>109.2</ele>
        <time>2023-07-18T09:45:35Z</time>
      </trkpt>
      <trkpt lat="47.41128" lon="0.56826">
        <ele>109.2</ele>
        <time>2023-07-18T09:45:36Z</time>
      </trkpt>
      <trkpt lat="47.41127" lon="0.56835">
        <ele>109</ele>
        <time>2023-07-18T09:45:37Z</time>
      </trkpt>
      <trkpt lat="47.41127" lon="0.56844">
        <ele>109</ele>
        <time>2023-07-18T09:45:38Z</time>
      </trkpt>
      <trkpt lat="47.41126" lon="0.56853">
        <ele>109.2</ele>
        <time>2023-07-18T09:45:39Z</time>
      </trkpt>
      <trkpt lat="47.41124" lon="0.56862">
        <ele>109.2</ele>
        <time>2023-07-18T09:45:40Z</time>
      </trkpt>
      <trkpt lat="47.41123" lon="0.56872">
        <ele>109.2</ele>
        <time>2023-07-18T09:45:41Z</time>
      </trkpt>
      <trkpt lat="47.41121" lon="0.56881">
        <ele>109.2</ele>
        <time>2023-07-18T09:45:42Z</time>
      </trkpt>
      <trkpt lat="47.41119" lon="0.56891">
        <ele>109.2</ele>
        <time>2023-07-18T09:45:43Z</time>
      </trkpt>
      <trkpt lat="47.41117" lon="0.569">
        <ele>109.2</ele>
        <time>2023-07-18T09:45:44Z</time>
      </trkpt>
      <trkpt lat="47.41114" lon="0.56908">
        <ele>109.2</ele>
        <time>2023-07-18T09:45:45Z</time>
      </trkpt>
      <trkpt lat="47.41111" lon="0.56916">
        <ele>109</ele>
        <time>2023-07-18T09:45:46Z</time>
      </trkpt>
      <trkpt lat="47.41107" lon="0.56923">
        <ele>108.8</ele>
        <time>2023-07-18T09:45:47Z</time>
      </trkpt>
      <trkpt lat="47.41102" lon="0.56928">
        <ele>108.8</ele>
        <time>2023-07-18T09:45:48Z</time>
      </trkpt>
      <trkpt lat="47.41097" lon="0.56933">
        <ele>108.6</ele>
        <time>2023-07-18T09:45:49Z</time>
      </trkpt>
      <trkpt lat="47.41091" lon="0.56938">
        <ele>108.6</ele>
        <time>2023-07-18T09:45:50Z</time>
      </trkpt>
      <trkpt lat="47.41084" lon="0.56942">
        <ele>108.6</ele>
        <time>2023-07-18T09:45:51Z</time>
      </trkpt>
      <trkpt lat="47.41077" lon="0.56946">
        <ele>108.4</ele>
        <time>2023-07-18T09:45:52Z</time>
      </trkpt>
      <trkpt lat="47.41071" lon="0.5695">
        <ele>108.4</ele>
        <time>2023-07-18T09:45:53Z</time>
      </trkpt>
      <trkpt lat="47.41064" lon="0.56955">
        <ele>108.4</ele>
        <time>2023-07-18T09:45:54Z</time>
      </trkpt>
      <trkpt lat="47.41058" lon="0.56958">
        <ele>108.2</ele>
        <time>2023-07-18T09:45:55Z</time>
      </trkpt>
      <trkpt lat="47.41053" lon="0.56962">
        <ele>108.2</ele>
        <time>2023-07-18T09:45:56Z</time>
      </trkpt>
      <trkpt lat="47.41047" lon="0.56966">
        <ele>108.2</ele>
        <time>2023-07-18T09:45:57Z</time>
      </trkpt>
      <trkpt lat="47.4104" lon="0.5697">
        <ele>108</ele>
        <time>2023-07-18T09:45:58Z</time>
      </trkpt>
      <trkpt lat="47.41034" lon="0.56975">
        <ele>108</ele>
        <time>2023-07-18T09:45:59Z</time>
      </trkpt>
      <trkpt lat="47.41028" lon="0.56979">
        <ele>108</ele>
        <time>2023-07-18T09:46:00Z</time>
      </trkpt>
      <trkpt lat="47.41021" lon="0.56983">
        <ele>107.8</ele>
        <time>2023-07-18T09:46:01Z</time>
      </trkpt>
      <trkpt lat="47.41015" lon="0.56987">
        <ele>107.8</ele>
        <time>2023-07-18T09:46:02Z</time>
      </trkpt>
      <trkpt lat="47.4101" lon="0.56991">
        <ele>107.8</ele>
        <time>2023-07-18T09:46:03Z</time>
      </trkpt>
      <trkpt lat="47.41004" lon="0.56995">
        <ele>108</ele>
        <time>2023-07-18T09:46:04Z</time>
      </trkpt>
      <trkpt lat="47.40998" lon="0.56999">
        <ele>108</ele>
        <time>2023-07-18T09:46:05Z</time>
      </trkpt>
      <trkpt lat="47.40992" lon="0.57003">
        <ele>108</ele>
        <time>2023-07-18T09:46:06Z</time>
      </trkpt>
      <trkpt lat="47.40986" lon="0.57007">
        <ele>108</ele>
        <time>2023-07-18T09:46:07Z</time>
      </trkpt>
      <trkpt lat="47.40981" lon="0.57011">
        <ele>108.2</ele>
        <time>2023-07-18T09:46:08Z</time>
      </trkpt>
      <trkpt lat="47.40975" lon="0.57015">
        <ele>108.2</ele>
        <time>2023-07-18T09:46:09Z</time>
      </trkpt>
      <trkpt lat="47.40969" lon="0.57019">
        <ele>108.2</ele>
        <time>2023-07-18T09:46:10Z</time>
      </trkpt>
      <trkpt lat="47.40963" lon="0.57023">
        <ele>108</ele>
        <time>2023-07-18T09:46:11Z</time>
      </trkpt>
      <trkpt lat="47.40957" lon="0.57027">
        <ele>108</ele>
        <time>2023-07-18T09:46:12Z</time>
      </trkpt>
      <trkpt lat="47.40952" lon="0.5703">
        <ele>107.8</ele>
        <time>2023-07-18T09:46:13Z</time>
      </trkpt>
      <trkpt lat="47.40947" lon="0.57034">
        <ele>107.8</ele>
        <time>2023-07-18T09:46:14Z</time>
      </trkpt>
      <trkpt lat="47.40941" lon="0.57038">
        <ele>107.6</ele>
        <time>2023-07-18T09:46:15Z</time>
      </trkpt>
      <trkpt lat="47.40936" lon="0.57041">
        <ele>107.6</ele>
        <time>2023-07-18T09:46:16Z</time>
      </trkpt>
      <trkpt lat="47.4093" lon="0.57044">
        <ele>107.4</ele>
        <time>2023-07-18T09:46:17Z</time>
      </trkpt>
      <trkpt lat="47.40924" lon="0.57047">
        <ele>107.4</ele>
        <time>2023-07-18T09:46:18Z</time>
      </trkpt>
      <trkpt lat="47.40921" lon="0.57051">
        <ele>107.6</ele>
        <time>2023-07-18T09:46:19Z</time>
      </trkpt>
      <trkpt lat="47.40918" lon="0.57057">
        <ele>107.6</ele>
        <time>2023-07-18T09:46:20Z</time>
      </trkpt>
      <trkpt lat="47.40919" lon="0.57064">
        <ele>107.4</ele>
        <time>2023-07-18T09:46:21Z</time>
      </trkpt>
      <trkpt lat="47.40921" lon="0.5707">
        <ele>107.2</ele>
        <time>2023-07-18T09:46:22Z</time>
      </trkpt>
      <trkpt lat="47.40926" lon="0.57074">
        <ele>107</ele>
        <time>2023-07-18T09:46:23Z</time>
      </trkpt>
      <trkpt lat="47.40931" lon="0.57078">
        <ele>107</ele>
        <time>2023-07-18T09:46:24Z</time>
      </trkpt>
      <trkpt lat="47.40935" lon="0.57082">
        <ele>107.4</ele>
        <time>2023-07-18T09:46:25Z</time>
      </trkpt>
      <trkpt lat="47.40939" lon="0.57087">
        <ele>107.6</ele>
        <time>2023-07-18T09:46:26Z</time>
      </trkpt>
      <trkpt lat="47.40943" lon="0.57092">
        <ele>107.6</ele>
        <time>2023-07-18T09:46:27Z</time>
      </trkpt>
      <trkpt lat="47.40947" lon="0.57098">
        <ele>107.8</ele>
        <time>2023-07-18T09:46:28Z</time>
      </trkpt>
      <trkpt lat="47.40951" lon="0.57104">
        <ele>107.8</ele>
        <time>2023-07-18T09:46:29Z</time>
      </trkpt>
      <trkpt lat="47.40955" lon="0.57111">
        <ele>107.6</ele>
        <time>2023-07-18T09:46:30Z</time>
      </trkpt>
      <trkpt lat="47.40959" lon="0.57119">
        <ele>107.6</ele>
        <time>2023-07-18T09:46:31Z</time>
      </trkpt>
      <trkpt lat="47.40962" lon="0.57125">
        <ele>107.8</ele>
        <time>2023-07-18T09:46:32Z</time>
      </trkpt>
      <trkpt lat="47.40965" lon="0.57132">
        <ele>108</ele>
        <time>2023-07-18T09:46:33Z</time>
      </trkpt>
      <trkpt lat="47.40968" lon="0.5714">
        <ele>108</ele>
        <time>2023-07-18T09:46:34Z</time>
      </trkpt>
      <trkpt lat="47.40972" lon="0.57147">
        <ele>108.2</ele>
        <time>2023-07-18T09:46:35Z</time>
      </trkpt>
      <trkpt lat="47.40975" lon="0.57155">
        <ele>108.4</ele>
        <time>2023-07-18T09:46:36Z</time>
      </trkpt>
      <trkpt lat="47.40978" lon="0.57162">
        <ele>108.2</ele>
        <time>2023-07-18T09:46:37Z</time>
      </trkpt>
      <trkpt lat="47.40981" lon="0.5717">
        <ele>108.4</ele>
        <time>2023-07-18T09:46:38Z</time>
      </trkpt>
      <trkpt lat="47.40985" lon="0.57178">
        <ele>108.4</ele>
        <time>2023-07-18T09:46:39Z</time>
      </trkpt>
      <trkpt lat="47.40989" lon="0.57187">
        <ele>108.4</ele>
        <time>2023-07-18T09:46:40Z</time>
      </trkpt>
      <trkpt lat="47.40991" lon="0.57193">
        <ele>108.6</ele>
        <time>2023-07-18T09:46:41Z</time>
      </trkpt>
      <trkpt lat="47.40995" lon="0.57201">
        <ele>108.4</ele>
        <time>2023-07-18T09:46:42Z</time>
      </trkpt>
      <trkpt lat="47.40998" lon="0.57208">
        <ele>108.4</ele>
        <time>2023-07-18T09:46:43Z</time>
      </trkpt>
      <trkpt lat="47.41002" lon="0.57216">
        <ele>108.2</ele>
        <time>2023-07-18T09:46:44Z</time>
      </trkpt>
      <trkpt lat="47.41004" lon="0.57224">
        <ele>108</ele>
        <time>2023-07-18T09:46:45Z</time>
      </trkpt>
      <trkpt lat="47.41008" lon="0.57231">
        <ele>107.6</ele>
        <time>2023-07-18T09:46:46Z</time>
      </trkpt>
      <trkpt lat="47.41011" lon="0.57239">
        <ele>107.4</ele>
        <time>2023-07-18T09:46:47Z</time>
      </trkpt>
      <trkpt lat="47.41014" lon="0.57247">
        <ele>107.6</ele>
        <time>2023-07-18T09:46:48Z</time>
      </trkpt>
      <trkpt lat="47.41018" lon="0.57254">
        <ele>107.6</ele>
        <time>2023-07-18T09:46:49Z</time>
      </trkpt>
      <trkpt lat="47.41021" lon="0.57262">
        <ele>107.6</ele>
        <time>2023-07-18T09:46:50Z</time>
      </trkpt>
      <trkpt lat="47.41025" lon="0.57269">
        <ele>107.4</ele>
        <time>2023-07-18T09:46:51Z</time>
      </trkpt>
      <trkpt lat="47.41028" lon="0.57277">
        <ele>107.4</ele>
        <time>2023-07-18T09:46:52Z</time>
      </trkpt>
      <trkpt lat="47.41032" lon="0.57285">
        <ele>107.4</ele>
        <time>2023-07-18T09:46:53Z</time>
      </trkpt>
      <trkpt lat="47.41035" lon="0.57292">
        <ele>107.6</ele>
        <time>2023-07-18T09:46:54Z</time>
      </trkpt>
      <trkpt lat="47.41038" lon="0.573">
        <ele>107.6</ele>
        <time>2023-07-18T09:46:55Z</time>
      </trkpt>
      <trkpt lat="47.41042" lon="0.57308">
        <ele>107.6</ele>
        <time>2023-07-18T09:46:56Z</time>
      </trkpt>
      <trkpt lat="47.41045" lon="0.57315">
        <ele>107.6</ele>
        <time>2023-07-18T09:46:57Z</time>
      </trkpt>
      <trkpt lat="47.41048" lon="0.57323">
        <ele>107.4</ele>
        <time>2023-07-18T09:46:58Z</time>
      </trkpt>
      <trkpt lat="47.41052" lon="0.5733">
        <ele>107.4</ele>
        <time>2023-07-18T09:46:59Z</time>
      </trkpt>
      <trkpt lat="47.41055" lon="0.57338">
        <ele>107.4</ele>
        <time>2023-07-18T09:47:00Z</time>
      </trkpt>
      <trkpt lat="47.41058" lon="0.57345">
        <ele>107.4</ele>
        <time>2023-07-18T09:47:01Z</time>
      </trkpt>
      <trkpt lat="47.41062" lon="0.57353">
        <ele>107.4</ele>
        <time>2023-07-18T09:47:02Z</time>
      </trkpt>
      <trkpt lat="47.41065" lon="0.57361">
        <ele>107.2</ele>
        <time>2023-07-18T09:47:03Z</time>
      </trkpt>
      <trkpt lat="47.41067" lon="0.5737">
        <ele>107.2</ele>
        <time>2023-07-18T09:47:04Z</time>
      </trkpt>
      <trkpt lat="47.41067" lon="0.57379">
        <ele>107</ele>
        <time>2023-07-18T09:47:05Z</time>
      </trkpt>
      <trkpt lat="47.41066" lon="0.57387">
        <ele>106.8</ele>
        <time>2023-07-18T09:47:06Z</time>
      </trkpt>
      <trkpt lat="47.41063" lon="0.57393">
        <ele>107.2</ele>
        <time>2023-07-18T09:47:07Z</time>
      </trkpt>
      <trkpt lat="47.41059" lon="0.574">
        <ele>107.6</ele>
        <time>2023-07-18T09:47:08Z</time>
      </trkpt>
      <trkpt lat="47.41056" lon="0.57407">
        <ele>108</ele>
        <time>2023-07-18T09:47:09Z</time>
      </trkpt>
      <trkpt lat="47.41054" lon="0.57415">
        <ele>108</ele>
        <time>2023-07-18T09:47:10Z</time>
      </trkpt>
      <trkpt lat="47.41054" lon="0.57423">
        <ele>108.4</ele>
        <time>2023-07-18T09:47:11Z</time>
      </trkpt>
      <trkpt lat="47.41056" lon="0.57432">
        <ele>108.4</ele>
        <time>2023-07-18T09:47:12Z</time>
      </trkpt>
      <trkpt lat="47.41058" lon="0.57438">
        <ele>108.2</ele>
        <time>2023-07-18T09:47:13Z</time>
      </trkpt>
      <trkpt lat="47.41061" lon="0.57445">
        <ele>108</ele>
        <time>2023-07-18T09:47:14Z</time>
      </trkpt>
      <trkpt lat="47.41064" lon="0.57452">
        <ele>107.8</ele>
        <time>2023-07-18T09:47:15Z</time>
      </trkpt>
      <trkpt lat="47.41066" lon="0.57459">
        <ele>107.6</ele>
        <time>2023-07-18T09:47:16Z</time>
      </trkpt>
      <trkpt lat="47.41069" lon="0.57466">
        <ele>107.6</ele>
        <time>2023-07-18T09:47:17Z</time>
      </trkpt>
      <trkpt lat="47.41071" lon="0.57474">
        <ele>107.4</ele>
        <time>2023-07-18T09:47:18Z</time>
      </trkpt>
      <trkpt lat="47.41074" lon="0.57482">
        <ele>107.2</ele>
        <time>2023-07-18T09:47:19Z</time>
      </trkpt>
      <trkpt lat="47.41076" lon="0.5749">
        <ele>107</ele>
        <time>2023-07-18T09:47:20Z</time>
      </trkpt>
      <trkpt lat="47.41078" lon="0.57499">
        <ele>106.8</ele>
        <time>2023-07-18T09:47:21Z</time>
      </trkpt>
      <trkpt lat="47.4108" lon="0.57505">
        <ele>106.8</ele>
        <time>2023-07-18T09:47:22Z</time>
      </trkpt>
      <trkpt lat="47.41083" lon="0.57513">
        <ele>106.8</ele>
        <time>2023-07-18T09:47:23Z</time>
      </trkpt>
      <trkpt lat="47.41085" lon="0.57521">
        <ele>107</ele>
        <time>2023-07-18T09:47:24Z</time>
      </trkpt>
      <trkpt lat="47.41088" lon="0.5753">
        <ele>106.8</ele>
        <time>2023-07-18T09:47:25Z</time>
      </trkpt>
      <trkpt lat="47.4109" lon="0.57536">
        <ele>107</ele>
        <time>2023-07-18T09:47:26Z</time>
      </trkpt>
      <trkpt lat="47.41092" lon="0.57544">
        <ele>106.8</ele>
        <time>2023-07-18T09:47:27Z</time>
      </trkpt>
      <trkpt lat="47.41094" lon="0.57552">
        <ele>106.8</ele>
        <time>2023-07-18T09:47:28Z</time>
      </trkpt>
      <trkpt lat="47.41096" lon="0.5756">
        <ele>106.6</ele>
        <time>2023-07-18T09:47:29Z</time>
      </trkpt>
      <trkpt lat="47.41097" lon="0.57569">
        <ele>106.8</ele>
        <time>2023-07-18T09:47:30Z</time>
      </trkpt>
      <trkpt lat="47.41098" lon="0.57578">
        <ele>106.6</ele>
        <time>2023-07-18T09:47:31Z</time>
      </trkpt>
      <trkpt lat="47.41099" lon="0.57587">
        <ele>106.8</ele>
        <time>2023-07-18T09:47:32Z</time>
      </trkpt>
      <trkpt lat="47.41099" lon="0.57597">
        <ele>106.8</ele>
        <time>2023-07-18T09:47:33Z</time>
      </trkpt>
      <trkpt lat="47.411" lon="0.57605">
        <ele>106.8</ele>
        <time>2023-07-18T09:47:34Z</time>
      </trkpt>
      <trkpt lat="47.41101" lon="0.57616">
        <ele>106.8</ele>
        <time>2023-07-18T09:47:35Z</time>
      </trkpt>
      <trkpt lat="47.41101" lon="0.57623">
        <ele>106.8</ele>
        <time>2023-07-18T09:47:36Z</time>
      </trkpt>
      <trkpt lat="47.41102" lon="0.57632">
        <ele>106.6</ele>
        <time>2023-07-18T09:47:37Z</time>
      </trkpt>
      <trkpt lat="47.41103" lon="0.57641">
        <ele>106.6</ele>
        <time>2023-07-18T09:47:38Z</time>
      </trkpt>
      <trkpt lat="47.41103" lon="0.57652">
        <ele>106.8</ele>
        <time>2023-07-18T09:47:39Z</time>
      </trkpt>
      <trkpt lat="47.41103" lon="0.5766">
        <ele>107</ele>
        <time>2023-07-18T09:47:40Z</time>
      </trkpt>
      <trkpt lat="47.41104" lon="0.57669">
        <ele>107.2</ele>
        <time>2023-07-18T09:47:41Z</time>
      </trkpt>
      <trkpt lat="47.41105" lon="0.57679">
        <ele>107.2</ele>
        <time>2023-07-18T09:47:42Z</time>
      </trkpt>
      <trkpt lat="47.41106" lon="0.57688">
        <ele>107.2</ele>
        <time>2023-07-18T09:47:43Z</time>
      </trkpt>
      <trkpt lat="47.41106" lon="0.57695">
        <ele>107.4</ele>
        <time>2023-07-18T09:47:44Z</time>
      </trkpt>
      <trkpt lat="47.41107" lon="0.57704">
        <ele>107.4</ele>
        <time>2023-07-18T09:47:45Z</time>
      </trkpt>
      <trkpt lat="47.41108" lon="0.57714">
        <ele>107.6</ele>
        <time>2023-07-18T09:47:46Z</time>
      </trkpt>
      <trkpt lat="47.41109" lon="0.57722">
        <ele>107.4</ele>
        <time>2023-07-18T09:47:47Z</time>
      </trkpt>
      <trkpt lat="47.41111" lon="0.5773">
        <ele>107.4</ele>
        <time>2023-07-18T09:47:48Z</time>
      </trkpt>
      <trkpt lat="47.41112" lon="0.57739">
        <ele>107.4</ele>
        <time>2023-07-18T09:47:49Z</time>
      </trkpt>
      <trkpt lat="47.41114" lon="0.57747">
        <ele>107.4</ele>
        <time>2023-07-18T09:47:50Z</time>
      </trkpt>
      <trkpt lat="47.41116" lon="0.57756">
        <ele>107.4</ele>
        <time>2023-07-18T09:47:51Z</time>
      </trkpt>
      <trkpt lat="47.41117" lon="0.57764">
        <ele>107.4</ele>
        <time>2023-07-18T09:47:52Z</time>
      </trkpt>
      <trkpt lat="47.41119" lon="0.57772">
        <ele>107.4</ele>
        <time>2023-07-18T09:47:53Z</time>
      </trkpt>
      <trkpt lat="47.41121" lon="0.57781">
        <ele>107.4</ele>
        <time>2023-07-18T09:47:54Z</time>
      </trkpt>
      <trkpt lat="47.41123" lon="0.57791">
        <ele>107.4</ele>
        <time>2023-07-18T09:47:55Z</time>
      </trkpt>
      <trkpt lat="47.41124" lon="0.578">
        <ele>107.4</ele>
        <time>2023-07-18T09:47:56Z</time>
      </trkpt>
      <trkpt lat="47.41126" lon="0.57807">
        <ele>107.4</ele>
        <time>2023-07-18T09:47:57Z</time>
      </trkpt>
      <trkpt lat="47.41129" lon="0.57816">
        <ele>107.4</ele>
        <time>2023-07-18T09:47:58Z</time>
      </trkpt>
      <trkpt lat="47.4113" lon="0.57825">
        <ele>107.6</ele>
        <time>2023-07-18T09:47:59Z</time>
      </trkpt>
      <trkpt lat="47.41132" lon="0.57836">
        <ele>107.6</ele>
        <time>2023-07-18T09:48:00Z</time>
      </trkpt>
      <trkpt lat="47.41134" lon="0.57843">
        <ele>107.8</ele>
        <time>2023-07-18T09:48:01Z</time>
      </trkpt>
      <trkpt lat="47.41136" lon="0.57851">
        <ele>107.8</ele>
        <time>2023-07-18T09:48:02Z</time>
      </trkpt>
      <trkpt lat="47.41138" lon="0.57859">
        <ele>107.8</ele>
        <time>2023-07-18T09:48:03Z</time>
      </trkpt>
      <trkpt lat="47.4114" lon="0.57867">
        <ele>107.8</ele>
        <time>2023-07-18T09:48:04Z</time>
      </trkpt>
      <trkpt lat="47.41142" lon="0.57876">
        <ele>108.2</ele>
        <time>2023-07-18T09:48:05Z</time>
      </trkpt>
      <trkpt lat="47.41143" lon="0.57885">
        <ele>108</ele>
        <time>2023-07-18T09:48:06Z</time>
      </trkpt>
      <trkpt lat="47.41145" lon="0.57891">
        <ele>108</ele>
        <time>2023-07-18T09:48:07Z</time>
      </trkpt>
      <trkpt lat="47.41147" lon="0.57899">
        <ele>108</ele>
        <time>2023-07-18T09:48:08Z</time>
      </trkpt>
      <trkpt lat="47.41148" lon="0.57907">
        <ele>108.2</ele>
        <time>2023-07-18T09:48:09Z</time>
      </trkpt>
      <trkpt lat="47.4115" lon="0.57915">
        <ele>108.2</ele>
        <time>2023-07-18T09:48:10Z</time>
      </trkpt>
      <trkpt lat="47.41152" lon="0.57923">
        <ele>108.4</ele>
        <time>2023-07-18T09:48:11Z</time>
      </trkpt>
      <trkpt lat="47.41154" lon="0.57931">
        <ele>108.6</ele>
        <time>2023-07-18T09:48:12Z</time>
      </trkpt>
      <trkpt lat="47.41156" lon="0.57939">
        <ele>109</ele>
        <time>2023-07-18T09:48:13Z</time>
      </trkpt>
      <trkpt lat="47.41158" lon="0.57947">
        <ele>109</ele>
        <time>2023-07-18T09:48:14Z</time>
      </trkpt>
      <trkpt lat="47.41159" lon="0.57955">
        <ele>108.8</ele>
        <time>2023-07-18T09:48:15Z</time>
      </trkpt>
      <trkpt lat="47.41162" lon="0.57964">
        <ele>108.6</ele>
        <time>2023-07-18T09:48:16Z</time>
      </trkpt>
      <trkpt lat="47.41165" lon="0.5797">
        <ele>108.6</ele>
        <time>2023-07-18T09:48:17Z</time>
      </trkpt>
      <trkpt lat="47.41167" lon="0.57976">
        <ele>108.4</ele>
        <time>2023-07-18T09:48:18Z</time>
      </trkpt>
      <trkpt lat="47.4117" lon="0.57984">
        <ele>108.2</ele>
        <time>2023-07-18T09:48:19Z</time>
      </trkpt>
      <trkpt lat="47.41173" lon="0.57992">
        <ele>108</ele>
        <time>2023-07-18T09:48:20Z</time>
      </trkpt>
      <trkpt lat="47.41176" lon="0.57998">
        <ele>107.8</ele>
        <time>2023-07-18T09:48:21Z</time>
      </trkpt>
      <trkpt lat="47.4118" lon="0.58004">
        <ele>107.8</ele>
        <time>2023-07-18T09:48:22Z</time>
      </trkpt>
      <trkpt lat="47.41184" lon="0.5801">
        <ele>107.6</ele>
        <time>2023-07-18T09:48:23Z</time>
      </trkpt>
      <trkpt lat="47.41188" lon="0.58016">
        <ele>107.4</ele>
        <time>2023-07-18T09:48:24Z</time>
      </trkpt>
      <trkpt lat="47.41191" lon="0.58022">
        <ele>107.4</ele>
        <time>2023-07-18T09:48:25Z</time>
      </trkpt>
      <trkpt lat="47.41195" lon="0.58029">
        <ele>107.4</ele>
        <time>2023-07-18T09:48:26Z</time>
      </trkpt>
      <trkpt lat="47.41199" lon="0.58034">
        <ele>107.4</ele>
        <time>2023-07-18T09:48:27Z</time>
      </trkpt>
      <trkpt lat="47.41203" lon="0.5804">
        <ele>107</ele>
        <time>2023-07-18T09:48:28Z</time>
      </trkpt>
      <trkpt lat="47.41207" lon="0.58046">
        <ele>107</ele>
        <time>2023-07-18T09:48:29Z</time>
      </trkpt>
      <trkpt lat="47.41211" lon="0.58052">
        <ele>107.2</ele>
        <time>2023-07-18T09:48:30Z</time>
      </trkpt>
      <trkpt lat="47.41214" lon="0.58059">
        <ele>107</ele>
        <time>2023-07-18T09:48:31Z</time>
      </trkpt>
      <trkpt lat="47.41217" lon="0.58065">
        <ele>107</ele>
        <time>2023-07-18T09:48:32Z</time>
      </trkpt>
      <trkpt lat="47.41221" lon="0.58071">
        <ele>107</ele>
        <time>2023-07-18T09:48:33Z</time>
      </trkpt>
      <trkpt lat="47.41224" lon="0.58077">
        <ele>107</ele>
        <time>2023-07-18T09:48:34Z</time>
      </trkpt>
      <trkpt lat="47.41227" lon="0.58083">
        <ele>107</ele>
        <time>2023-07-18T09:48:35Z</time>
      </trkpt>
      <trkpt lat="47.4123" lon="0.58088">
        <ele>107</ele>
        <time>2023-07-18T09:48:36Z</time>
      </trkpt>
      <trkpt lat="47.41233" lon="0.58093">
        <ele>106.8</ele>
        <time>2023-07-18T09:48:37Z</time>
      </trkpt>
      <trkpt lat="47.41236" lon="0.58099">
        <ele>106.8</ele>
        <time>2023-07-18T09:48:38Z</time>
      </trkpt>
      <trkpt lat="47.41239" lon="0.58106">
        <ele>106.8</ele>
        <time>2023-07-18T09:48:39Z</time>
      </trkpt>
      <trkpt lat="47.41242" lon="0.58113">
        <ele>106.6</ele>
        <time>2023-07-18T09:48:40Z</time>
      </trkpt>
      <trkpt lat="47.41245" lon="0.5812">
        <ele>106.6</ele>
        <time>2023-07-18T09:48:41Z</time>
      </trkpt>
      <trkpt lat="47.41248" lon="0.58128">
        <ele>106.6</ele>
        <time>2023-07-18T09:48:42Z</time>
      </trkpt>
      <trkpt lat="47.41249" lon="0.58135">
        <ele>106.4</ele>
        <time>2023-07-18T09:48:43Z</time>
      </trkpt>
      <trkpt lat="47.41251" lon="0.58142">
        <ele>106.4</ele>
        <time>2023-07-18T09:48:44Z</time>
      </trkpt>
      <trkpt lat="47.41253" lon="0.58149">
        <ele>106.2</ele>
        <time>2023-07-18T09:48:45Z</time>
      </trkpt>
      <trkpt lat="47.41254" lon="0.58157">
        <ele>106.2</ele>
        <time>2023-07-18T09:48:46Z</time>
      </trkpt>
      <trkpt lat="47.41254" lon="0.58165">
        <ele>106.2</ele>
        <time>2023-07-18T09:48:47Z</time>
      </trkpt>
      <trkpt lat="47.41253" lon="0.58174">
        <ele>106.4</ele>
        <time>2023-07-18T09:48:48Z</time>
      </trkpt>
      <trkpt lat="47.41251" lon="0.58183">
        <ele>106.4</ele>
        <time>2023-07-18T09:48:49Z</time>
      </trkpt>
      <trkpt lat="47.41249" lon="0.58192">
        <ele>106.6</ele>
        <time>2023-07-18T09:48:50Z</time>
      </trkpt>
      <trkpt lat="47.41247" lon="0.582">
        <ele>106.6</ele>
        <time>2023-07-18T09:48:51Z</time>
      </trkpt>
      <trkpt lat="47.41244" lon="0.58208">
        <ele>106.8</ele>
        <time>2023-07-18T09:48:52Z</time>
      </trkpt>
      <trkpt lat="47.41242" lon="0.58216">
        <ele>106.8</ele>
        <time>2023-07-18T09:48:53Z</time>
      </trkpt>
      <trkpt lat="47.41239" lon="0.58224">
        <ele>107</ele>
        <time>2023-07-18T09:48:54Z</time>
      </trkpt>
      <trkpt lat="47.41236" lon="0.58232">
        <ele>107.2</ele>
        <time>2023-07-18T09:48:55Z</time>
      </trkpt>
      <trkpt lat="47.41234" lon="0.5824">
        <ele>107</ele>
        <time>2023-07-18T09:48:56Z</time>
      </trkpt>
      <trkpt lat="47.41232" lon="0.58249">
        <ele>107</ele>
        <time>2023-07-18T09:48:57Z</time>
      </trkpt>
      <trkpt lat="47.4123" lon="0.58257">
        <ele>107</ele>
        <time>2023-07-18T09:48:58Z</time>
      </trkpt>
      <trkpt lat="47.41227" lon="0.58266">
        <ele>107.2</ele>
        <time>2023-07-18T09:48:59Z</time>
      </trkpt>
      <trkpt lat="47.41225" lon="0.58274">
        <ele>107.2</ele>
        <time>2023-07-18T09:49:00Z</time>
      </trkpt>
      <trkpt lat="47.41224" lon="0.58283">
        <ele>107.4</ele>
        <time>2023-07-18T09:49:01Z</time>
      </trkpt>
      <trkpt lat="47.41222" lon="0.58292">
        <ele>107.4</ele>
        <time>2023-07-18T09:49:02Z</time>
      </trkpt>
      <trkpt lat="47.4122" lon="0.583">
        <ele>107.6</ele>
        <time>2023-07-18T09:49:03Z</time>
      </trkpt>
      <trkpt lat="47.41218" lon="0.58309">
        <ele>107.6</ele>
        <time>2023-07-18T09:49:04Z</time>
      </trkpt>
      <trkpt lat="47.41217" lon="0.58318">
        <ele>107.6</ele>
        <time>2023-07-18T09:49:05Z</time>
      </trkpt>
      <trkpt lat="47.41214" lon="0.58326">
        <ele>107.6</ele>
        <time>2023-07-18T09:49:06Z</time>
      </trkpt>
      <trkpt lat="47.41212" lon="0.58335">
        <ele>107.6</ele>
        <time>2023-07-18T09:49:07Z</time>
      </trkpt>
      <trkpt lat="47.41211" lon="0.58344">
        <ele>107.6</ele>
        <time>2023-07-18T09:49:08Z</time>
      </trkpt>
      <trkpt lat="47.41209" lon="0.58353">
        <ele>107.8</ele>
        <time>2023-07-18T09:49:09Z</time>
      </trkpt>
      <trkpt lat="47.41208" lon="0.58362">
        <ele>107.8</ele>
        <time>2023-07-18T09:49:10Z</time>
      </trkpt>
      <trkpt lat="47.41206" lon="0.58371">
        <ele>107.8</ele>
        <time>2023-07-18T09:49:11Z</time>
      </trkpt>
      <trkpt lat="47.41204" lon="0.58381">
        <ele>107.8</ele>
        <time>2023-07-18T09:49:12Z</time>
      </trkpt>
      <trkpt lat="47.41202" lon="0.58389">
        <ele>107.8</ele>
        <time>2023-07-18T09:49:13Z</time>
      </trkpt>
      <trkpt lat="47.41201" lon="0.58398">
        <ele>107.6</ele>
        <time>2023-07-18T09:49:14Z</time>
      </trkpt>
      <trkpt lat="47.41199" lon="0.58407">
        <ele>107.8</ele>
        <time>2023-07-18T09:49:15Z</time>
      </trkpt>
      <trkpt lat="47.41198" lon="0.58416">
        <ele>107.8</ele>
        <time>2023-07-18T09:49:16Z</time>
      </trkpt>
      <trkpt lat="47.41196" lon="0.58425">
        <ele>108</ele>
        <time>2023-07-18T09:49:17Z</time>
      </trkpt>
      <trkpt lat="47.41194" lon="0.58434">
        <ele>108</ele>
        <time>2023-07-18T09:49:18Z</time>
      </trkpt>
      <trkpt lat="47.41193" lon="0.58443">
        <ele>108.2</ele>
        <time>2023-07-18T09:49:19Z</time>
      </trkpt>
      <trkpt lat="47.41191" lon="0.58452">
        <ele>108.4</ele>
        <time>2023-07-18T09:49:20Z</time>
      </trkpt>
      <trkpt lat="47.41191" lon="0.58461">
        <ele>108.2</ele>
        <time>2023-07-18T09:49:21Z</time>
      </trkpt>
      <trkpt lat="47.4119" lon="0.5847">
        <ele>108.2</ele>
        <time>2023-07-18T09:49:22Z</time>
      </trkpt>
      <trkpt lat="47.41189" lon="0.58479">
        <ele>108.4</ele>
        <time>2023-07-18T09:49:23Z</time>
      </trkpt>
      <trkpt lat="47.41188" lon="0.58488">
        <ele>108.4</ele>
        <time>2023-07-18T09:49:24Z</time>
      </trkpt>
      <trkpt lat="47.41188" lon="0.58497">
        <ele>108.4</ele>
        <time>2023-07-18T09:49:25Z</time>
      </trkpt>
      <trkpt lat="47.41189" lon="0.58507">
        <ele>108.4</ele>
        <time>2023-07-18T09:49:26Z</time>
      </trkpt>
      <trkpt lat="47.41189" lon="0.58516">
        <ele>108.4</ele>
        <time>2023-07-18T09:49:27Z</time>
      </trkpt>
      <trkpt lat="47.4119" lon="0.58525">
        <ele>108.4</ele>
        <time>2023-07-18T09:49:28Z</time>
      </trkpt>
      <trkpt lat="47.41191" lon="0.58534">
        <ele>108.6</ele>
        <time>2023-07-18T09:49:29Z</time>
      </trkpt>
      <trkpt lat="47.41193" lon="0.58542">
        <ele>108.8</ele>
        <time>2023-07-18T09:49:30Z</time>
      </trkpt>
      <trkpt lat="47.41194" lon="0.58551">
        <ele>108.8</ele>
        <time>2023-07-18T09:49:31Z</time>
      </trkpt>
      <trkpt lat="47.41196" lon="0.5856">
        <ele>108.6</ele>
        <time>2023-07-18T09:49:32Z</time>
      </trkpt>
      <trkpt lat="47.41198" lon="0.58568">
        <ele>108.6</ele>
        <time>2023-07-18T09:49:33Z</time>
      </trkpt>
      <trkpt lat="47.41199" lon="0.58577">
        <ele>108.6</ele>
        <time>2023-07-18T09:49:34Z</time>
      </trkpt>
      <trkpt lat="47.41202" lon="0.58585">
        <ele>108.6</ele>
        <time>2023-07-18T09:49:35Z</time>
      </trkpt>
      <trkpt lat="47.41204" lon="0.58593">
        <ele>108.4</ele>
        <time>2023-07-18T09:49:36Z</time>
      </trkpt>
      <trkpt lat="47.41206" lon="0.58601">
        <ele>108.4</ele>
        <time>2023-07-18T09:49:37Z</time>
      </trkpt>
      <trkpt lat="47.41208" lon="0.5861">
        <ele>108.4</ele>
        <time>2023-07-18T09:49:38Z</time>
      </trkpt>
      <trkpt lat="47.4121" lon="0.58618">
        <ele>108.4</ele>
        <time>2023-07-18T09:49:39Z</time>
      </trkpt>
      <trkpt lat="47.41213" lon="0.58627">
        <ele>108.2</ele>
        <time>2023-07-18T09:49:40Z</time>
      </trkpt>
      <trkpt lat="47.41215" lon="0.58635">
        <ele>108</ele>
        <time>2023-07-18T09:49:41Z</time>
      </trkpt>
      <trkpt lat="47.41218" lon="0.58645">
        <ele>108</ele>
        <time>2023-07-18T09:49:42Z</time>
      </trkpt>
      <trkpt lat="47.4122" lon="0.58654">
        <ele>107.8</ele>
        <time>2023-07-18T09:49:43Z</time>
      </trkpt>
      <trkpt lat="47.41223" lon="0.58662">
        <ele>107.8</ele>
        <time>2023-07-18T09:49:44Z</time>
      </trkpt>
      <trkpt lat="47.41225" lon="0.58672">
        <ele>107.8</ele>
        <time>2023-07-18T09:49:45Z</time>
      </trkpt>
      <trkpt lat="47.41226" lon="0.58681">
        <ele>107.8</ele>
        <time>2023-07-18T09:49:46Z</time>
      </trkpt>
      <trkpt lat="47.41228" lon="0.58691">
        <ele>107.8</ele>
        <time>2023-07-18T09:49:47Z</time>
      </trkpt>
      <trkpt lat="47.4123" lon="0.587">
        <ele>108</ele>
        <time>2023-07-18T09:49:48Z</time>
      </trkpt>
      <trkpt lat="47.41231" lon="0.58709">
        <ele>108</ele>
        <time>2023-07-18T09:49:49Z</time>
      </trkpt>
      <trkpt lat="47.41232" lon="0.58719">
        <ele>108</ele>
        <time>2023-07-18T09:49:50Z</time>
      </trkpt>
      <trkpt lat="47.41233" lon="0.58727">
        <ele>108.2</ele>
        <time>2023-07-18T09:49:51Z</time>
      </trkpt>
      <trkpt lat="47.41234" lon="0.58736">
        <ele>108.2</ele>
        <time>2023-07-18T09:49:52Z</time>
      </trkpt>
      <trkpt lat="47.41235" lon="0.58745">
        <ele>108</ele>
        <time>2023-07-18T09:49:53Z</time>
      </trkpt>
      <trkpt lat="47.41235" lon="0.58754">
        <ele>108.2</ele>
        <time>2023-07-18T09:49:54Z</time>
      </trkpt>
      <trkpt lat="47.41236" lon="0.58762">
        <ele>108</ele>
        <time>2023-07-18T09:49:55Z</time>
      </trkpt>
      <trkpt lat="47.41236" lon="0.58771">
        <ele>108</ele>
        <time>2023-07-18T09:49:56Z</time>
      </trkpt>
      <trkpt lat="47.41237" lon="0.5878">
        <ele>108</ele>
        <time>2023-07-18T09:49:57Z</time>
      </trkpt>
      <trkpt lat="47.41237" lon="0.58789">
        <ele>107.8</ele>
        <time>2023-07-18T09:49:58Z</time>
      </trkpt>
      <trkpt lat="47.41238" lon="0.58798">
        <ele>107.8</ele>
        <time>2023-07-18T09:49:59Z</time>
      </trkpt>
      <trkpt lat="47.41238" lon="0.58806">
        <ele>107.8</ele>
        <time>2023-07-18T09:50:00Z</time>
      </trkpt>
      <trkpt lat="47.41238" lon="0.58815">
        <ele>107.8</ele>
        <time>2023-07-18T09:50:01Z</time>
      </trkpt>
      <trkpt lat="47.41239" lon="0.58824">
        <ele>107.8</ele>
        <time>2023-07-18T09:50:02Z</time>
      </trkpt>
      <trkpt lat="47.4124" lon="0.58833">
        <ele>107.8</ele>
        <time>2023-07-18T09:50:03Z</time>
      </trkpt>
      <trkpt lat="47.4124" lon="0.58842">
        <ele>107.6</ele>
        <time>2023-07-18T09:50:04Z</time>
      </trkpt>
      <trkpt lat="47.4124" lon="0.58851">
        <ele>107.6</ele>
        <time>2023-07-18T09:50:05Z</time>
      </trkpt>
      <trkpt lat="47.41241" lon="0.5886">
        <ele>107.6</ele>
        <time>2023-07-18T09:50:06Z</time>
      </trkpt>
      <trkpt lat="47.41241" lon="0.58869">
        <ele>107.8</ele>
        <time>2023-07-18T09:50:07Z</time>
      </trkpt>
      <trkpt lat="47.41242" lon="0.58877">
        <ele>107.8</ele>
        <time>2023-07-18T09:50:08Z</time>
      </trkpt>
      <trkpt lat="47.41243" lon="0.58886">
        <ele>107.8</ele>
        <time>2023-07-18T09:50:09Z</time>
      </trkpt>
      <trkpt lat="47.41243" lon="0.58896">
        <ele>108</ele>
        <time>2023-07-18T09:50:10Z</time>
      </trkpt>
      <trkpt lat="47.41244" lon="0.58905">
        <ele>108.2</ele>
        <time>2023-07-18T09:50:11Z</time>
      </trkpt>
      <trkpt lat="47.41244" lon="0.58914">
        <ele>108.2</ele>
        <time>2023-07-18T09:50:12Z</time>
      </trkpt>
      <trkpt lat="47.41245" lon="0.58922">
        <ele>108.2</ele>
        <time>2023-07-18T09:50:13Z</time>
      </trkpt>
      <trkpt lat="47.41246" lon="0.58931">
        <ele>108.4</ele>
        <time>2023-07-18T09:50:14Z</time>
      </trkpt>
      <trkpt lat="47.41247" lon="0.58939">
        <ele>108.6</ele>
        <time>2023-07-18T09:50:15Z</time>
      </trkpt>
      <trkpt lat="47.41248" lon="0.58947">
        <ele>108.6</ele>
        <time>2023-07-18T09:50:16Z</time>
      </trkpt>
      <trkpt lat="47.41249" lon="0.58957">
        <ele>108.6</ele>
        <time>2023-07-18T09:50:17Z</time>
      </trkpt>
      <trkpt lat="47.41251" lon="0.58965">
        <ele>108.4</ele>
        <time>2023-07-18T09:50:18Z</time>
      </trkpt>
      <trkpt lat="47.41252" lon="0.58974">
        <ele>108.6</ele>
        <time>2023-07-18T09:50:19Z</time>
      </trkpt>
      <trkpt lat="47.41254" lon="0.58983">
        <ele>108.8</ele>
        <time>2023-07-18T09:50:20Z</time>
      </trkpt>
      <trkpt lat="47.41255" lon="0.58992">
        <ele>108.6</ele>
        <time>2023-07-18T09:50:21Z</time>
      </trkpt>
      <trkpt lat="47.41256" lon="0.59001">
        <ele>108.4</ele>
        <time>2023-07-18T09:50:22Z</time>
      </trkpt>
      <trkpt lat="47.41257" lon="0.59009">
        <ele>108.6</ele>
        <time>2023-07-18T09:50:23Z</time>
      </trkpt>
      <trkpt lat="47.41258" lon="0.59018">
        <ele>108.4</ele>
        <time>2023-07-18T09:50:24Z</time>
      </trkpt>
      <trkpt lat="47.4126" lon="0.59027">
        <ele>108.4</ele>
        <time>2023-07-18T09:50:25Z</time>
      </trkpt>
      <trkpt lat="47.41261" lon="0.59035">
        <ele>108.2</ele>
        <time>2023-07-18T09:50:26Z</time>
      </trkpt>
      <trkpt lat="47.41262" lon="0.59044">
        <ele>108</ele>
        <time>2023-07-18T09:50:27Z</time>
      </trkpt>
      <trkpt lat="47.41264" lon="0.59053">
        <ele>108</ele>
        <time>2023-07-18T09:50:28Z</time>
      </trkpt>
      <trkpt lat="47.41265" lon="0.59062">
        <ele>108</ele>
        <time>2023-07-18T09:50:29Z</time>
      </trkpt>
      <trkpt lat="47.41266" lon="0.5907">
        <ele>108</ele>
        <time>2023-07-18T09:50:30Z</time>
      </trkpt>
      <trkpt lat="47.41268" lon="0.59079">
        <ele>108</ele>
        <time>2023-07-18T09:50:31Z</time>
      </trkpt>
      <trkpt lat="47.41269" lon="0.59088">
        <ele>108</ele>
        <time>2023-07-18T09:50:32Z</time>
      </trkpt>
      <trkpt lat="47.4127" lon="0.59097">
        <ele>108</ele>
        <time>2023-07-18T09:50:33Z</time>
      </trkpt>
      <trkpt lat="47.41272" lon="0.59106">
        <ele>108.2</ele>
        <time>2023-07-18T09:50:34Z</time>
      </trkpt>
      <trkpt lat="47.41273" lon="0.59115">
        <ele>108.2</ele>
        <time>2023-07-18T09:50:35Z</time>
      </trkpt>
      <trkpt lat="47.41274" lon="0.59123">
        <ele>108.2</ele>
        <time>2023-07-18T09:50:36Z</time>
      </trkpt>
      <trkpt lat="47.41276" lon="0.59132">
        <ele>108</ele>
        <time>2023-07-18T09:50:37Z</time>
      </trkpt>
      <trkpt lat="47.41277" lon="0.5914">
        <ele>108.2</ele>
        <time>2023-07-18T09:50:38Z</time>
      </trkpt>
      <trkpt lat="47.41279" lon="0.59149">
        <ele>108.2</ele>
        <time>2023-07-18T09:50:39Z</time>
      </trkpt>
      <trkpt lat="47.41281" lon="0.59158">
        <ele>108.2</ele>
        <time>2023-07-18T09:50:40Z</time>
      </trkpt>
      <trkpt lat="47.41282" lon="0.59166">
        <ele>108.2</ele>
        <time>2023-07-18T09:50:41Z</time>
      </trkpt>
      <trkpt lat="47.41283" lon="0.59175">
        <ele>108</ele>
        <time>2023-07-18T09:50:42Z</time>
      </trkpt>
      <trkpt lat="47.41285" lon="0.59183">
        <ele>108</ele>
        <time>2023-07-18T09:50:43Z</time>
      </trkpt>
      <trkpt lat="47.41287" lon="0.59192">
        <ele>108</ele>
        <time>2023-07-18T09:50:44Z</time>
      </trkpt>
      <trkpt lat="47.41289" lon="0.592">
        <ele>107.8</ele>
        <time>2023-07-18T09:50:45Z</time>
      </trkpt>
      <trkpt lat="47.41291" lon="0.59209">
        <ele>107.6</ele>
        <time>2023-07-18T09:50:46Z</time>
      </trkpt>
      <trkpt lat="47.41292" lon="0.59218">
        <ele>107.4</ele>
        <time>2023-07-18T09:50:47Z</time>
      </trkpt>
      <trkpt lat="47.41294" lon="0.59226">
        <ele>107.4</ele>
        <time>2023-07-18T09:50:48Z</time>
      </trkpt>
      <trkpt lat="47.41296" lon="0.59234">
        <ele>107.2</ele>
        <time>2023-07-18T09:50:49Z</time>
      </trkpt>
      <trkpt lat="47.41298" lon="0.59242">
        <ele>107.2</ele>
        <time>2023-07-18T09:50:50Z</time>
      </trkpt>
      <trkpt lat="47.413" lon="0.59251">
        <ele>107</ele>
        <time>2023-07-18T09:50:51Z</time>
      </trkpt>
      <trkpt lat="47.41302" lon="0.59259">
        <ele>107</ele>
        <time>2023-07-18T09:50:52Z</time>
      </trkpt>
      <trkpt lat="47.41305" lon="0.59267">
        <ele>107</ele>
        <time>2023-07-18T09:50:53Z</time>
      </trkpt>
      <trkpt lat="47.41307" lon="0.59276">
        <ele>107.4</ele>
        <time>2023-07-18T09:50:54Z</time>
      </trkpt>
      <trkpt lat="47.4131" lon="0.59284">
        <ele>107.4</ele>
        <time>2023-07-18T09:50:55Z</time>
      </trkpt>
      <trkpt lat="47.41312" lon="0.59291">
        <ele>107.2</ele>
        <time>2023-07-18T09:50:56Z</time>
      </trkpt>
      <trkpt lat="47.41314" lon="0.59299">
        <ele>107</ele>
        <time>2023-07-18T09:50:57Z</time>
      </trkpt>
      <trkpt lat="47.41316" lon="0.59307">
        <ele>107</ele>
        <time>2023-07-18T09:50:58Z</time>
      </trkpt>
      <trkpt lat="47.41318" lon="0.59315">
        <ele>106.6</ele>
        <time>2023-07-18T09:50:59Z</time>
      </trkpt>
      <trkpt lat="47.4132" lon="0.59321">
        <ele>106.4</ele>
        <time>2023-07-18T09:51:00Z</time>
      </trkpt>
      <trkpt lat="47.41323" lon="0.59325">
        <ele>106.2</ele>
        <time>2023-07-18T09:51:01Z</time>
      </trkpt>
      <trkpt lat="47.41328" lon="0.59327">
        <ele>106</ele>
        <time>2023-07-18T09:51:02Z</time>
      </trkpt>
      <trkpt lat="47.41333" lon="0.59329">
        <ele>106</ele>
        <time>2023-07-18T09:51:03Z</time>
      </trkpt>
      <trkpt lat="47.41336" lon="0.59333">
        <ele>106</ele>
        <time>2023-07-18T09:51:04Z</time>
      </trkpt>
      <trkpt lat="47.41337" lon="0.5934">
        <ele>106</ele>
        <time>2023-07-18T09:51:05Z</time>
      </trkpt>
      <trkpt lat="47.41336" lon="0.59348">
        <ele>106.2</ele>
        <time>2023-07-18T09:51:06Z</time>
      </trkpt>
      <trkpt lat="47.41333" lon="0.59355">
        <ele>106.4</ele>
        <time>2023-07-18T09:51:07Z</time>
      </trkpt>
      <trkpt lat="47.41331" lon="0.59364">
        <ele>106.4</ele>
        <time>2023-07-18T09:51:08Z</time>
      </trkpt>
      <trkpt lat="47.41328" lon="0.59372">
        <ele>106.4</ele>
        <time>2023-07-18T09:51:09Z</time>
      </trkpt>
      <trkpt lat="47.41326" lon="0.59381">
        <ele>106.4</ele>
        <time>2023-07-18T09:51:10Z</time>
      </trkpt>
      <trkpt lat="47.41323" lon="0.5939">
        <ele>106.4</ele>
        <time>2023-07-18T09:51:11Z</time>
      </trkpt>
      <trkpt lat="47.41321" lon="0.59399">
        <ele>106.4</ele>
        <time>2023-07-18T09:51:12Z</time>
      </trkpt>
      <trkpt lat="47.41319" lon="0.59407">
        <ele>106.4</ele>
        <time>2023-07-18T09:51:13Z</time>
      </trkpt>
      <trkpt lat="47.41317" lon="0.59416">
        <ele>106.6</ele>
        <time>2023-07-18T09:51:14Z</time>
      </trkpt>
      <trkpt lat="47.41315" lon="0.59425">
        <ele>106.6</ele>
        <time>2023-07-18T09:51:15Z</time>
      </trkpt>
      <trkpt lat="47.41312" lon="0.59434">
        <ele>106.6</ele>
        <time>2023-07-18T09:51:16Z</time>
      </trkpt>
      <trkpt lat="47.4131" lon="0.59442">
        <ele>106.8</ele>
        <time>2023-07-18T09:51:17Z</time>
      </trkpt>
      <trkpt lat="47.41308" lon="0.59451">
        <ele>106.8</ele>
        <time>2023-07-18T09:51:18Z</time>
      </trkpt>
      <trkpt lat="47.41306" lon="0.5946">
        <ele>106.6</ele>
        <time>2023-07-18T09:51:19Z</time>
      </trkpt>
      <trkpt lat="47.41304" lon="0.59468">
        <ele>106.6</ele>
        <time>2023-07-18T09:51:20Z</time>
      </trkpt>
      <trkpt lat="47.41302" lon="0.59476">
        <ele>106.4</ele>
        <time>2023-07-18T09:51:21Z</time>
      </trkpt>
      <trkpt lat="47.41299" lon="0.59485">
        <ele>106.4</ele>
        <time>2023-07-18T09:51:22Z</time>
      </trkpt>
      <trkpt lat="47.41297" lon="0.59493">
        <ele>106.6</ele>
        <time>2023-07-18T09:51:23Z</time>
      </trkpt>
      <trkpt lat="47.41294" lon="0.59502">
        <ele>106.6</ele>
        <time>2023-07-18T09:51:24Z</time>
      </trkpt>
      <trkpt lat="47.41292" lon="0.5951">
        <ele>106.6</ele>
        <time>2023-07-18T09:51:25Z</time>
      </trkpt>
      <trkpt lat="47.41289" lon="0.59518">
        <ele>106.6</ele>
        <time>2023-07-18T09:51:26Z</time>
      </trkpt>
      <trkpt lat="47.41286" lon="0.59526">
        <ele>106.4</ele>
        <time>2023-07-18T09:51:27Z</time>
      </trkpt>
      <trkpt lat="47.41283" lon="0.59535">
        <ele>106.4</ele>
        <time>2023-07-18T09:51:28Z</time>
      </trkpt>
      <trkpt lat="47.41281" lon="0.59543">
        <ele>106.4</ele>
        <time>2023-07-18T09:51:29Z</time>
      </trkpt>
      <trkpt lat="47.41279" lon="0.59551">
        <ele>106.4</ele>
        <time>2023-07-18T09:51:30Z</time>
      </trkpt>
      <trkpt lat="47.41276" lon="0.5956">
        <ele>106.4</ele>
        <time>2023-07-18T09:51:31Z</time>
      </trkpt>
      <trkpt lat="47.41275" lon="0.5957">
        <ele>106.4</ele>
        <time>2023-07-18T09:51:32Z</time>
      </trkpt>
      <trkpt lat="47.41273" lon="0.59579">
        <ele>106.4</ele>
        <time>2023-07-18T09:51:33Z</time>
      </trkpt>
      <trkpt lat="47.41273" lon="0.59588">
        <ele>106.4</ele>
        <time>2023-07-18T09:51:34Z</time>
      </trkpt>
      <trkpt lat="47.41273" lon="0.59597">
        <ele>106.4</ele>
        <time>2023-07-18T09:51:35Z</time>
      </trkpt>
      <trkpt lat="47.41274" lon="0.59606">
        <ele>106.2</ele>
        <time>2023-07-18T09:51:36Z</time>
      </trkpt>
      <trkpt lat="47.41275" lon="0.59616">
        <ele>106.4</ele>
        <time>2023-07-18T09:51:37Z</time>
      </trkpt>
      <trkpt lat="47.41275" lon="0.59625">
        <ele>106.4</ele>
        <time>2023-07-18T09:51:38Z</time>
      </trkpt>
      <trkpt lat="47.41275" lon="0.59634">
        <ele>106.4</ele>
        <time>2023-07-18T09:51:39Z</time>
      </trkpt>
      <trkpt lat="47.41276" lon="0.59643">
        <ele>106.4</ele>
        <time>2023-07-18T09:51:40Z</time>
      </trkpt>
      <trkpt lat="47.41277" lon="0.59652">
        <ele>106.4</ele>
        <time>2023-07-18T09:51:41Z</time>
      </trkpt>
      <trkpt lat="47.41277" lon="0.59661">
        <ele>106.4</ele>
        <time>2023-07-18T09:51:42Z</time>
      </trkpt>
      <trkpt lat="47.41277" lon="0.5967">
        <ele>106.6</ele>
        <time>2023-07-18T09:51:43Z</time>
      </trkpt>
      <trkpt lat="47.41278" lon="0.59679">
        <ele>106.8</ele>
        <time>2023-07-18T09:51:44Z</time>
      </trkpt>
      <trkpt lat="47.41278" lon="0.59688">
        <ele>106.8</ele>
        <time>2023-07-18T09:51:45Z</time>
      </trkpt>
      <trkpt lat="47.41278" lon="0.59697">
        <ele>107</ele>
        <time>2023-07-18T09:51:46Z</time>
      </trkpt>
      <trkpt lat="47.41279" lon="0.59705">
        <ele>107</ele>
        <time>2023-07-18T09:51:47Z</time>
      </trkpt>
      <trkpt lat="47.41279" lon="0.59714">
        <ele>107.2</ele>
        <time>2023-07-18T09:51:48Z</time>
      </trkpt>
      <trkpt lat="47.4128" lon="0.59722">
        <ele>107.2</ele>
        <time>2023-07-18T09:51:49Z</time>
      </trkpt>
      <trkpt lat="47.4128" lon="0.59731">
        <ele>107.2</ele>
        <time>2023-07-18T09:51:50Z</time>
      </trkpt>
      <trkpt lat="47.4128" lon="0.5974">
        <ele>107.2</ele>
        <time>2023-07-18T09:51:51Z</time>
      </trkpt>
      <trkpt lat="47.4128" lon="0.59749">
        <ele>107</ele>
        <time>2023-07-18T09:51:52Z</time>
      </trkpt>
      <trkpt lat="47.4128" lon="0.59757">
        <ele>107.2</ele>
        <time>2023-07-18T09:51:53Z</time>
      </trkpt>
      <trkpt lat="47.4128" lon="0.59765">
        <ele>106.8</ele>
        <time>2023-07-18T09:51:54Z</time>
      </trkpt>
      <trkpt lat="47.4128" lon="0.59774">
        <ele>107</ele>
        <time>2023-07-18T09:51:55Z</time>
      </trkpt>
      <trkpt lat="47.41281" lon="0.59782">
        <ele>106.8</ele>
        <time>2023-07-18T09:51:56Z</time>
      </trkpt>
      <trkpt lat="47.41281" lon="0.59791">
        <ele>106.8</ele>
        <time>2023-07-18T09:51:57Z</time>
      </trkpt>
      <trkpt lat="47.41281" lon="0.598">
        <ele>106.8</ele>
        <time>2023-07-18T09:51:58Z</time>
      </trkpt>
      <trkpt lat="47.41281" lon="0.59809">
        <ele>106.8</ele>
        <time>2023-07-18T09:51:59Z</time>
      </trkpt>
      <trkpt lat="47.41282" lon="0.59818">
        <ele>107</ele>
        <time>2023-07-18T09:52:00Z</time>
      </trkpt>
      <trkpt lat="47.41282" lon="0.59827">
        <ele>107</ele>
        <time>2023-07-18T09:52:01Z</time>
      </trkpt>
      <trkpt lat="47.41282" lon="0.59836">
        <ele>107</ele>
        <time>2023-07-18T09:52:02Z</time>
      </trkpt>
      <trkpt lat="47.41282" lon="0.59845">
        <ele>107</ele>
        <time>2023-07-18T09:52:03Z</time>
      </trkpt>
      <trkpt lat="47.41282" lon="0.59855">
        <ele>106.8</ele>
        <time>2023-07-18T09:52:04Z</time>
      </trkpt>
      <trkpt lat="47.41282" lon="0.59864">
        <ele>106.8</ele>
        <time>2023-07-18T09:52:05Z</time>
      </trkpt>
      <trkpt lat="47.41282" lon="0.59873">
        <ele>106.8</ele>
        <time>2023-07-18T09:52:06Z</time>
      </trkpt>
      <trkpt lat="47.41282" lon="0.59882">
        <ele>106.6</ele>
        <time>2023-07-18T09:52:07Z</time>
      </trkpt>
      <trkpt lat="47.41283" lon="0.59891">
        <ele>106.6</ele>
        <time>2023-07-18T09:52:08Z</time>
      </trkpt>
      <trkpt lat="47.41283" lon="0.599">
        <ele>106.4</ele>
        <time>2023-07-18T09:52:09Z</time>
      </trkpt>
      <trkpt lat="47.41283" lon="0.5991">
        <ele>106.4</ele>
        <time>2023-07-18T09:52:10Z</time>
      </trkpt>
      <trkpt lat="47.41284" lon="0.59919">
        <ele>106.2</ele>
        <time>2023-07-18T09:52:11Z</time>
      </trkpt>
      <trkpt lat="47.41284" lon="0.59928">
        <ele>106.2</ele>
        <time>2023-07-18T09:52:12Z</time>
      </trkpt>
      <trkpt lat="47.41285" lon="0.59936">
        <ele>106</ele>
        <time>2023-07-18T09:52:13Z</time>
      </trkpt>
      <trkpt lat="47.41286" lon="0.59946">
        <ele>105.8</ele>
        <time>2023-07-18T09:52:14Z</time>
      </trkpt>
      <trkpt lat="47.41286" lon="0.59955">
        <ele>105.8</ele>
        <time>2023-07-18T09:52:15Z</time>
      </trkpt>
      <trkpt lat="47.41287" lon="0.59964">
        <ele>105.6</ele>
        <time>2023-07-18T09:52:16Z</time>
      </trkpt>
      <trkpt lat="47.41288" lon="0.59973">
        <ele>105.4</ele>
        <time>2023-07-18T09:52:17Z</time>
      </trkpt>
      <trkpt lat="47.41288" lon="0.59983">
        <ele>105.6</ele>
        <time>2023-07-18T09:52:18Z</time>
      </trkpt>
      <trkpt lat="47.41289" lon="0.59993">
        <ele>105.6</ele>
        <time>2023-07-18T09:52:19Z</time>
      </trkpt>
      <trkpt lat="47.4129" lon="0.60002">
        <ele>105.6</ele>
        <time>2023-07-18T09:52:20Z</time>
      </trkpt>
      <trkpt lat="47.4129" lon="0.60012">
        <ele>105.6</ele>
        <time>2023-07-18T09:52:21Z</time>
      </trkpt>
      <trkpt lat="47.41291" lon="0.60021">
        <ele>105.4</ele>
        <time>2023-07-18T09:52:22Z</time>
      </trkpt>
      <trkpt lat="47.41292" lon="0.6003">
        <ele>105.4</ele>
        <time>2023-07-18T09:52:23Z</time>
      </trkpt>
      <trkpt lat="47.41292" lon="0.6004">
        <ele>105.2</ele>
        <time>2023-07-18T09:52:24Z</time>
      </trkpt>
      <trkpt lat="47.41292" lon="0.6005">
        <ele>105.2</ele>
        <time>2023-07-18T09:52:25Z</time>
      </trkpt>
      <trkpt lat="47.41292" lon="0.6006">
        <ele>105</ele>
        <time>2023-07-18T09:52:26Z</time>
      </trkpt>
      <trkpt lat="47.41291" lon="0.60069">
        <ele>105</ele>
        <time>2023-07-18T09:52:27Z</time>
      </trkpt>
      <trkpt lat="47.41291" lon="0.60079">
        <ele>104.8</ele>
        <time>2023-07-18T09:52:28Z</time>
      </trkpt>
      <trkpt lat="47.41291" lon="0.60088">
        <ele>105</ele>
        <time>2023-07-18T09:52:29Z</time>
      </trkpt>
      <trkpt lat="47.4129" lon="0.60097">
        <ele>105</ele>
        <time>2023-07-18T09:52:30Z</time>
      </trkpt>
      <trkpt lat="47.4129" lon="0.60107">
        <ele>104.8</ele>
        <time>2023-07-18T09:52:31Z</time>
      </trkpt>
      <trkpt lat="47.4129" lon="0.60116">
        <ele>104.8</ele>
        <time>2023-07-18T09:52:32Z</time>
      </trkpt>
      <trkpt lat="47.41289" lon="0.60125">
        <ele>104.6</ele>
        <time>2023-07-18T09:52:33Z</time>
      </trkpt>
      <trkpt lat="47.41288" lon="0.60134">
        <ele>104.6</ele>
        <time>2023-07-18T09:52:34Z</time>
      </trkpt>
      <trkpt lat="47.41288" lon="0.60143">
        <ele>104.6</ele>
        <time>2023-07-18T09:52:35Z</time>
      </trkpt>
      <trkpt lat="47.41287" lon="0.60153">
        <ele>104.6</ele>
        <time>2023-07-18T09:52:36Z</time>
      </trkpt>
      <trkpt lat="47.41286" lon="0.60162">
        <ele>104.4</ele>
        <time>2023-07-18T09:52:37Z</time>
      </trkpt>
      <trkpt lat="47.41285" lon="0.6017">
        <ele>104.2</ele>
        <time>2023-07-18T09:52:38Z</time>
      </trkpt>
      <trkpt lat="47.41285" lon="0.60179">
        <ele>104</ele>
        <time>2023-07-18T09:52:39Z</time>
      </trkpt>
      <trkpt lat="47.41284" lon="0.60188">
        <ele>104</ele>
        <time>2023-07-18T09:52:40Z</time>
      </trkpt>
      <trkpt lat="47.41283" lon="0.60196">
        <ele>104.2</ele>
        <time>2023-07-18T09:52:41Z</time>
      </trkpt>
      <trkpt lat="47.41283" lon="0.60203">
        <ele>104.2</ele>
        <time>2023-07-18T09:52:42Z</time>
      </trkpt>
      <trkpt lat="47.41283" lon="0.60211">
        <ele>104</ele>
        <time>2023-07-18T09:52:43Z</time>
      </trkpt>
      <trkpt lat="47.41282" lon="0.60218">
        <ele>104</ele>
        <time>2023-07-18T09:52:44Z</time>
      </trkpt>
      <trkpt lat="47.41282" lon="0.60226">
        <ele>104</ele>
        <time>2023-07-18T09:52:45Z</time>
      </trkpt>
      <trkpt lat="47.41281" lon="0.60233">
        <ele>103.8</ele>
        <time>2023-07-18T09:52:46Z</time>
      </trkpt>
      <trkpt lat="47.4128" lon="0.6024">
        <ele>103.8</ele>
        <time>2023-07-18T09:52:47Z</time>
      </trkpt>
      <trkpt lat="47.4128" lon="0.60247">
        <ele>103.8</ele>
        <time>2023-07-18T09:52:48Z</time>
      </trkpt>
      <trkpt lat="47.4128" lon="0.60253">
        <ele>103.6</ele>
        <time>2023-07-18T09:52:49Z</time>
      </trkpt>
      <trkpt lat="47.4128" lon="0.6026">
        <ele>103.4</ele>
        <time>2023-07-18T09:52:50Z</time>
      </trkpt>
      <trkpt lat="47.41279" lon="0.60265">
        <ele>103.2</ele>
        <time>2023-07-18T09:52:51Z</time>
      </trkpt>
      <trkpt lat="47.41279" lon="0.60271">
        <ele>103</ele>
        <time>2023-07-18T09:52:52Z</time>
      </trkpt>
      <trkpt lat="47.41278" lon="0.60277">
        <ele>103</ele>
        <time>2023-07-18T09:52:53Z</time>
      </trkpt>
      <trkpt lat="47.41277" lon="0.60283">
        <ele>103</ele>
        <time>2023-07-18T09:52:54Z</time>
      </trkpt>
      <trkpt lat="47.41276" lon="0.60287">
        <ele>102.8</ele>
        <time>2023-07-18T09:52:55Z</time>
      </trkpt>
      <trkpt lat="47.41276" lon="0.6029">
        <ele>102.6</ele>
        <time>2023-07-18T09:52:56Z</time>
      </trkpt>
      <trkpt lat="47.41276" lon="0.60291">
        <ele>102.6</ele>
        <time>2023-07-18T09:52:57Z</time>
      </trkpt>
      <trkpt lat="47.41275" lon="0.60292">
        <ele>102.2</ele>
        <time>2023-07-18T09:53:03Z</time>
      </trkpt>
      <trkpt lat="47.41275" lon="0.60294">
        <ele>102.2</ele>
        <time>2023-07-18T09:53:04Z</time>
      </trkpt>
      <trkpt lat="47.41274" lon="0.60295">
        <ele>102.4</ele>
        <time>2023-07-18T09:53:05Z</time>
      </trkpt>
      <trkpt lat="47.41274" lon="0.60297">
        <ele>102.4</ele>
        <time>2023-07-18T09:53:06Z</time>
      </trkpt>
      <trkpt lat="47.41273" lon="0.60299">
        <ele>102.4</ele>
        <time>2023-07-18T09:53:07Z</time>
      </trkpt>
      <trkpt lat="47.41274" lon="0.60299">
        <ele>102.4</ele>
        <time>2023-07-18T09:53:08Z</time>
      </trkpt>
      <trkpt lat="47.41274" lon="0.60299">
        <ele>102.4</ele>
        <time>2023-07-18T09:53:09Z</time>
      </trkpt>
      <trkpt lat="47.41274" lon="0.603">
        <ele>102.4</ele>
        <time>2023-07-18T09:53:10Z</time>
      </trkpt>
      <trkpt lat="47.41273" lon="0.603">
        <ele>102.4</ele>
        <time>2023-07-18T09:53:11Z</time>
      </trkpt>
      <trkpt lat="47.41272" lon="0.603">
        <ele>102.4</ele>
        <time>2023-07-18T09:53:12Z</time>
      </trkpt>
      <trkpt lat="47.4127" lon="0.60299">
        <ele>102.4</ele>
        <time>2023-07-18T09:53:13Z</time>
      </trkpt>
      <trkpt lat="47.41268" lon="0.60298">
        <ele>102.6</ele>
        <time>2023-07-18T09:53:14Z</time>
      </trkpt>
      <trkpt lat="47.41266" lon="0.60296">
        <ele>102.6</ele>
        <time>2023-07-18T09:53:15Z</time>
      </trkpt>
      <trkpt lat="47.41263" lon="0.60294">
        <ele>102.6</ele>
        <time>2023-07-18T09:53:16Z</time>
      </trkpt>
      <trkpt lat="47.4126" lon="0.60291">
        <ele>102.6</ele>
        <time>2023-07-18T09:53:17Z</time>
      </trkpt>
      <trkpt lat="47.41257" lon="0.60288">
        <ele>102.6</ele>
        <time>2023-07-18T09:53:18Z</time>
      </trkpt>
      <trkpt lat="47.41253" lon="0.60284">
        <ele>102.6</ele>
        <time>2023-07-18T09:53:19Z</time>
      </trkpt>
      <trkpt lat="47.41248" lon="0.60279">
        <ele>102.6</ele>
        <time>2023-07-18T09:53:20Z</time>
      </trkpt>
      <trkpt lat="47.41244" lon="0.60275">
        <ele>102.8</ele>
        <time>2023-07-18T09:53:21Z</time>
      </trkpt>
      <trkpt lat="47.41239" lon="0.60271">
        <ele>102.8</ele>
        <time>2023-07-18T09:53:22Z</time>
      </trkpt>
      <trkpt lat="47.41234" lon="0.60266">
        <ele>102.8</ele>
        <time>2023-07-18T09:53:23Z</time>
      </trkpt>
      <trkpt lat="47.41229" lon="0.6026">
        <ele>102.8</ele>
        <time>2023-07-18T09:53:24Z</time>
      </trkpt>
      <trkpt lat="47.41224" lon="0.60255">
        <ele>103</ele>
        <time>2023-07-18T09:53:25Z</time>
      </trkpt>
      <trkpt lat="47.41219" lon="0.60249">
        <ele>103</ele>
        <time>2023-07-18T09:53:26Z</time>
      </trkpt>
      <trkpt lat="47.41214" lon="0.60244">
        <ele>103</ele>
        <time>2023-07-18T09:53:27Z</time>
      </trkpt>
      <trkpt lat="47.41209" lon="0.60238">
        <ele>103.2</ele>
        <time>2023-07-18T09:53:28Z</time>
      </trkpt>
      <trkpt lat="47.41204" lon="0.60233">
        <ele>103.2</ele>
        <time>2023-07-18T09:53:29Z</time>
      </trkpt>
      <trkpt lat="47.41199" lon="0.60228">
        <ele>103.4</ele>
        <time>2023-07-18T09:53:30Z</time>
      </trkpt>
      <trkpt lat="47.41194" lon="0.60223">
        <ele>103.4</ele>
        <time>2023-07-18T09:53:31Z</time>
      </trkpt>
      <trkpt lat="47.41189" lon="0.60218">
        <ele>103.6</ele>
        <time>2023-07-18T09:53:32Z</time>
      </trkpt>
      <trkpt lat="47.41184" lon="0.60213">
        <ele>103.6</ele>
        <time>2023-07-18T09:53:33Z</time>
      </trkpt>
      <trkpt lat="47.41179" lon="0.60208">
        <ele>103.6</ele>
        <time>2023-07-18T09:53:34Z</time>
      </trkpt>
      <trkpt lat="47.41174" lon="0.60203">
        <ele>103.6</ele>
        <time>2023-07-18T09:53:35Z</time>
      </trkpt>
      <trkpt lat="47.41169" lon="0.60198">
        <ele>103.8</ele>
        <time>2023-07-18T09:53:36Z</time>
      </trkpt>
      <trkpt lat="47.41164" lon="0.60193">
        <ele>103.8</ele>
        <time>2023-07-18T09:53:37Z</time>
      </trkpt>
      <trkpt lat="47.41159" lon="0.60188">
        <ele>103.8</ele>
        <time>2023-07-18T09:53:38Z</time>
      </trkpt>
      <trkpt lat="47.41154" lon="0.60183">
        <ele>104</ele>
        <time>2023-07-18T09:53:39Z</time>
      </trkpt>
      <trkpt lat="47.41149" lon="0.60178">
        <ele>104</ele>
        <time>2023-07-18T09:53:40Z</time>
      </trkpt>
      <trkpt lat="47.41144" lon="0.60173">
        <ele>104</ele>
        <time>2023-07-18T09:53:41Z</time>
      </trkpt>
      <trkpt lat="47.41138" lon="0.60168">
        <ele>104</ele>
        <time>2023-07-18T09:53:42Z</time>
      </trkpt>
      <trkpt lat="47.41133" lon="0.60164">
        <ele>104</ele>
        <time>2023-07-18T09:53:43Z</time>
      </trkpt>
      <trkpt lat="47.41128" lon="0.60159">
        <ele>104.2</ele>
        <time>2023-07-18T09:53:44Z</time>
      </trkpt>
      <trkpt lat="47.41123" lon="0.60154">
        <ele>104.2</ele>
        <time>2023-07-18T09:53:45Z</time>
      </trkpt>
      <trkpt lat="47.41118" lon="0.60149">
        <ele>104.2</ele>
        <time>2023-07-18T09:53:46Z</time>
      </trkpt>
      <trkpt lat="47.41113" lon="0.60144">
        <ele>104.4</ele>
        <time>2023-07-18T09:53:47Z</time>
      </trkpt>
      <trkpt lat="47.41108" lon="0.60139">
        <ele>104.4</ele>
        <time>2023-07-18T09:53:48Z</time>
      </trkpt>
      <trkpt lat="47.41102" lon="0.60135">
        <ele>104.4</ele>
        <time>2023-07-18T09:53:49Z</time>
      </trkpt>
      <trkpt lat="47.41097" lon="0.6013">
        <ele>104.6</ele>
        <time>2023-07-18T09:53:50Z</time>
      </trkpt>
      <trkpt lat="47.41092" lon="0.60126">
        <ele>104.6</ele>
        <time>2023-07-18T09:53:51Z</time>
      </trkpt>
      <trkpt lat="47.41087" lon="0.6012">
        <ele>104.6</ele>
        <time>2023-07-18T09:53:52Z</time>
      </trkpt>
      <trkpt lat="47.41082" lon="0.60116">
        <ele>104.8</ele>
        <time>2023-07-18T09:53:53Z</time>
      </trkpt>
      <trkpt lat="47.41076" lon="0.60111">
        <ele>104.8</ele>
        <time>2023-07-18T09:53:54Z</time>
      </trkpt>
      <trkpt lat="47.41072" lon="0.60107">
        <ele>104.8</ele>
        <time>2023-07-18T09:53:55Z</time>
      </trkpt>
      <trkpt lat="47.41067" lon="0.60103">
        <ele>105</ele>
        <time>2023-07-18T09:53:56Z</time>
      </trkpt>
      <trkpt lat="47.41063" lon="0.60099">
        <ele>105</ele>
        <time>2023-07-18T09:53:57Z</time>
      </trkpt>
      <trkpt lat="47.41059" lon="0.60099">
        <ele>105</ele>
        <time>2023-07-18T09:53:58Z</time>
      </trkpt>
      <trkpt lat="47.41056" lon="0.60103">
        <ele>105</ele>
        <time>2023-07-18T09:53:59Z</time>
      </trkpt>
      <trkpt lat="47.41054" lon="0.60107">
        <ele>105</ele>
        <time>2023-07-18T09:54:00Z</time>
      </trkpt>
      <trkpt lat="47.41052" lon="0.60112">
        <ele>105</ele>
        <time>2023-07-18T09:54:01Z</time>
      </trkpt>
      <trkpt lat="47.41049" lon="0.60118">
        <ele>105</ele>
        <time>2023-07-18T09:54:02Z</time>
      </trkpt>
      <trkpt lat="47.41047" lon="0.60124">
        <ele>105.2</ele>
        <time>2023-07-18T09:54:03Z</time>
      </trkpt>
      <trkpt lat="47.41044" lon="0.6013">
        <ele>105.2</ele>
        <time>2023-07-18T09:54:04Z</time>
      </trkpt>
      <trkpt lat="47.41041" lon="0.60136">
        <ele>105.4</ele>
        <time>2023-07-18T09:54:05Z</time>
      </trkpt>
      <trkpt lat="47.41038" lon="0.60142">
        <ele>105.6</ele>
        <time>2023-07-18T09:54:06Z</time>
      </trkpt>
      <trkpt lat="47.41035" lon="0.60149">
        <ele>105.8</ele>
        <time>2023-07-18T09:54:07Z</time>
      </trkpt>
      <trkpt lat="47.41032" lon="0.60157">
        <ele>105.8</ele>
        <time>2023-07-18T09:54:08Z</time>
      </trkpt>
      <trkpt lat="47.41029" lon="0.60165">
        <ele>105.8</ele>
        <time>2023-07-18T09:54:09Z</time>
      </trkpt>
      <trkpt lat="47.41027" lon="0.60172">
        <ele>105.8</ele>
        <time>2023-07-18T09:54:10Z</time>
      </trkpt>
      <trkpt lat="47.41024" lon="0.6018">
        <ele>106</ele>
        <time>2023-07-18T09:54:11Z</time>
      </trkpt>
      <trkpt lat="47.41021" lon="0.60187">
        <ele>106</ele>
        <time>2023-07-18T09:54:12Z</time>
      </trkpt>
      <trkpt lat="47.41019" lon="0.60195">
        <ele>106.2</ele>
        <time>2023-07-18T09:54:13Z</time>
      </trkpt>
      <trkpt lat="47.41016" lon="0.60203">
        <ele>106.4</ele>
        <time>2023-07-18T09:54:14Z</time>
      </trkpt>
      <trkpt lat="47.41014" lon="0.6021">
        <ele>106.4</ele>
        <time>2023-07-18T09:54:15Z</time>
      </trkpt>
      <trkpt lat="47.41011" lon="0.60217">
        <ele>106.4</ele>
        <time>2023-07-18T09:54:16Z</time>
      </trkpt>
      <trkpt lat="47.41008" lon="0.60224">
        <ele>106.4</ele>
        <time>2023-07-18T09:54:17Z</time>
      </trkpt>
      <trkpt lat="47.41006" lon="0.60231">
        <ele>106.2</ele>
        <time>2023-07-18T09:54:18Z</time>
      </trkpt>
      <trkpt lat="47.41003" lon="0.60239">
        <ele>106.2</ele>
        <time>2023-07-18T09:54:19Z</time>
      </trkpt>
      <trkpt lat="47.41" lon="0.60245">
        <ele>106.2</ele>
        <time>2023-07-18T09:54:20Z</time>
      </trkpt>
      <trkpt lat="47.40997" lon="0.60252">
        <ele>106</ele>
        <time>2023-07-18T09:54:21Z</time>
      </trkpt>
      <trkpt lat="47.40993" lon="0.60259">
        <ele>106.2</ele>
        <time>2023-07-18T09:54:22Z</time>
      </trkpt>
      <trkpt lat="47.40991" lon="0.60266">
        <ele>106.2</ele>
        <time>2023-07-18T09:54:23Z</time>
      </trkpt>
      <trkpt lat="47.40988" lon="0.60274">
        <ele>106.2</ele>
        <time>2023-07-18T09:54:24Z</time>
      </trkpt>
      <trkpt lat="47.40985" lon="0.60281">
        <ele>106</ele>
        <time>2023-07-18T09:54:25Z</time>
      </trkpt>
      <trkpt lat="47.40982" lon="0.60289">
        <ele>106</ele>
        <time>2023-07-18T09:54:26Z</time>
      </trkpt>
      <trkpt lat="47.40979" lon="0.60296">
        <ele>106</ele>
        <time>2023-07-18T09:54:27Z</time>
      </trkpt>
      <trkpt lat="47.40976" lon="0.60304">
        <ele>106</ele>
        <time>2023-07-18T09:54:28Z</time>
      </trkpt>
      <trkpt lat="47.40974" lon="0.60311">
        <ele>106</ele>
        <time>2023-07-18T09:54:29Z</time>
      </trkpt>
      <trkpt lat="47.40971" lon="0.60318">
        <ele>106</ele>
        <time>2023-07-18T09:54:30Z</time>
      </trkpt>
      <trkpt lat="47.40968" lon="0.60326">
        <ele>106</ele>
        <time>2023-07-18T09:54:31Z</time>
      </trkpt>
      <trkpt lat="47.40965" lon="0.60333">
        <ele>105.8</ele>
        <time>2023-07-18T09:54:32Z</time>
      </trkpt>
      <trkpt lat="47.40962" lon="0.60339">
        <ele>105.8</ele>
        <time>2023-07-18T09:54:33Z</time>
      </trkpt>
      <trkpt lat="47.4096" lon="0.60346">
        <ele>105.8</ele>
        <time>2023-07-18T09:54:34Z</time>
      </trkpt>
      <trkpt lat="47.40957" lon="0.60352">
        <ele>105.8</ele>
        <time>2023-07-18T09:54:35Z</time>
      </trkpt>
      <trkpt lat="47.40954" lon="0.60359">
        <ele>105.8</ele>
        <time>2023-07-18T09:54:36Z</time>
      </trkpt>
      <trkpt lat="47.40952" lon="0.60366">
        <ele>105.8</ele>
        <time>2023-07-18T09:54:37Z</time>
      </trkpt>
      <trkpt lat="47.40948" lon="0.60373">
        <ele>106</ele>
        <time>2023-07-18T09:54:38Z</time>
      </trkpt>
      <trkpt lat="47.40945" lon="0.6038">
        <ele>106</ele>
        <time>2023-07-18T09:54:39Z</time>
      </trkpt>
      <trkpt lat="47.40943" lon="0.60386">
        <ele>106</ele>
        <time>2023-07-18T09:54:40Z</time>
      </trkpt>
      <trkpt lat="47.4094" lon="0.60394">
        <ele>106.2</ele>
        <time>2023-07-18T09:54:41Z</time>
      </trkpt>
      <trkpt lat="47.40938" lon="0.60401">
        <ele>106.2</ele>
        <time>2023-07-18T09:54:42Z</time>
      </trkpt>
      <trkpt lat="47.40935" lon="0.60408">
        <ele>106.2</ele>
        <time>2023-07-18T09:54:43Z</time>
      </trkpt>
      <trkpt lat="47.40932" lon="0.60414">
        <ele>106.2</ele>
        <time>2023-07-18T09:54:44Z</time>
      </trkpt>
      <trkpt lat="47.40929" lon="0.60421">
        <ele>106</ele>
        <time>2023-07-18T09:54:45Z</time>
      </trkpt>
      <trkpt lat="47.40925" lon="0.60428">
        <ele>106</ele>
        <time>2023-07-18T09:54:46Z</time>
      </trkpt>
      <trkpt lat="47.40921" lon="0.60435">
        <ele>106.2</ele>
        <time>2023-07-18T09:54:47Z</time>
      </trkpt>
      <trkpt lat="47.40918" lon="0.60441">
        <ele>106.4</ele>
        <time>2023-07-18T09:54:48Z</time>
      </trkpt>
      <trkpt lat="47.40915" lon="0.60448">
        <ele>106.2</ele>
        <time>2023-07-18T09:54:49Z</time>
      </trkpt>
      <trkpt lat="47.40912" lon="0.60455">
        <ele>106.2</ele>
        <time>2023-07-18T09:54:50Z</time>
      </trkpt>
      <trkpt lat="47.40908" lon="0.60462">
        <ele>106.2</ele>
        <time>2023-07-18T09:54:51Z</time>
      </trkpt>
      <trkpt lat="47.40906" lon="0.60469">
        <ele>106.2</ele>
        <time>2023-07-18T09:54:52Z</time>
      </trkpt>
      <trkpt lat="47.40903" lon="0.60477">
        <ele>106</ele>
        <time>2023-07-18T09:54:53Z</time>
      </trkpt>
      <trkpt lat="47.409" lon="0.60484">
        <ele>106</ele>
        <time>2023-07-18T09:54:54Z</time>
      </trkpt>
      <trkpt lat="47.40897" lon="0.6049">
        <ele>105.8</ele>
        <time>2023-07-18T09:54:55Z</time>
      </trkpt>
      <trkpt lat="47.40894" lon="0.60497">
        <ele>105.8</ele>
        <time>2023-07-18T09:54:56Z</time>
      </trkpt>
      <trkpt lat="47.40891" lon="0.60504">
        <ele>105.8</ele>
        <time>2023-07-18T09:54:57Z</time>
      </trkpt>
      <trkpt lat="47.40888" lon="0.60511">
        <ele>105.8</ele>
        <time>2023-07-18T09:54:58Z</time>
      </trkpt>
      <trkpt lat="47.40885" lon="0.60519">
        <ele>105.8</ele>
        <time>2023-07-18T09:54:59Z</time>
      </trkpt>
      <trkpt lat="47.40883" lon="0.60526">
        <ele>105.8</ele>
        <time>2023-07-18T09:55:00Z</time>
      </trkpt>
      <trkpt lat="47.40879" lon="0.60533">
        <ele>105.6</ele>
        <time>2023-07-18T09:55:01Z</time>
      </trkpt>
      <trkpt lat="47.40876" lon="0.6054">
        <ele>105.6</ele>
        <time>2023-07-18T09:55:02Z</time>
      </trkpt>
      <trkpt lat="47.40873" lon="0.60547">
        <ele>105.6</ele>
        <time>2023-07-18T09:55:03Z</time>
      </trkpt>
      <trkpt lat="47.4087" lon="0.60554">
        <ele>105.6</ele>
        <time>2023-07-18T09:55:04Z</time>
      </trkpt>
      <trkpt lat="47.40866" lon="0.60561">
        <ele>105.4</ele>
        <time>2023-07-18T09:55:05Z</time>
      </trkpt>
      <trkpt lat="47.40863" lon="0.60568">
        <ele>105.4</ele>
        <time>2023-07-18T09:55:06Z</time>
      </trkpt>
      <trkpt lat="47.40859" lon="0.60575">
        <ele>105.4</ele>
        <time>2023-07-18T09:55:07Z</time>
      </trkpt>
      <trkpt lat="47.40856" lon="0.60583">
        <ele>105.4</ele>
        <time>2023-07-18T09:55:08Z</time>
      </trkpt>
      <trkpt lat="47.40854" lon="0.60589">
        <ele>105.2</ele>
        <time>2023-07-18T09:55:09Z</time>
      </trkpt>
      <trkpt lat="47.4085" lon="0.60595">
        <ele>105.2</ele>
        <time>2023-07-18T09:55:10Z</time>
      </trkpt>
      <trkpt lat="47.40846" lon="0.60602">
        <ele>105.2</ele>
        <time>2023-07-18T09:55:11Z</time>
      </trkpt>
      <trkpt lat="47.40842" lon="0.60607">
        <ele>105</ele>
        <time>2023-07-18T09:55:12Z</time>
      </trkpt>
      <trkpt lat="47.40839" lon="0.60613">
        <ele>104.8</ele>
        <time>2023-07-18T09:55:13Z</time>
      </trkpt>
      <trkpt lat="47.40835" lon="0.60619">
        <ele>104.8</ele>
        <time>2023-07-18T09:55:14Z</time>
      </trkpt>
      <trkpt lat="47.40832" lon="0.60626">
        <ele>104.8</ele>
        <time>2023-07-18T09:55:15Z</time>
      </trkpt>
      <trkpt lat="47.40828" lon="0.60632">
        <ele>104.8</ele>
        <time>2023-07-18T09:55:16Z</time>
      </trkpt>
      <trkpt lat="47.40825" lon="0.60638">
        <ele>104.8</ele>
        <time>2023-07-18T09:55:17Z</time>
      </trkpt>
      <trkpt lat="47.40822" lon="0.60644">
        <ele>104.8</ele>
        <time>2023-07-18T09:55:18Z</time>
      </trkpt>
      <trkpt lat="47.40819" lon="0.6065">
        <ele>104.8</ele>
        <time>2023-07-18T09:55:19Z</time>
      </trkpt>
      <trkpt lat="47.40816" lon="0.60656">
        <ele>104.6</ele>
        <time>2023-07-18T09:55:20Z</time>
      </trkpt>
      <trkpt lat="47.40812" lon="0.60662">
        <ele>104.6</ele>
        <time>2023-07-18T09:55:21Z</time>
      </trkpt>
      <trkpt lat="47.40808" lon="0.60668">
        <ele>104.6</ele>
        <time>2023-07-18T09:55:22Z</time>
      </trkpt>
      <trkpt lat="47.40805" lon="0.60673">
        <ele>104.4</ele>
        <time>2023-07-18T09:55:23Z</time>
      </trkpt>
      <trkpt lat="47.40801" lon="0.60678">
        <ele>104.4</ele>
        <time>2023-07-18T09:55:24Z</time>
      </trkpt>
      <trkpt lat="47.40799" lon="0.60684">
        <ele>104.2</ele>
        <time>2023-07-18T09:55:25Z</time>
      </trkpt>
      <trkpt lat="47.40798" lon="0.60689">
        <ele>104.2</ele>
        <time>2023-07-18T09:55:26Z</time>
      </trkpt>
      <trkpt lat="47.408" lon="0.60695">
        <ele>104.2</ele>
        <time>2023-07-18T09:55:27Z</time>
      </trkpt>
      <trkpt lat="47.40804" lon="0.60698">
        <ele>104</ele>
        <time>2023-07-18T09:55:28Z</time>
      </trkpt>
      <trkpt lat="47.40808" lon="0.60701">
        <ele>104</ele>
        <time>2023-07-18T09:55:29Z</time>
      </trkpt>
      <trkpt lat="47.40812" lon="0.60704">
        <ele>104</ele>
        <time>2023-07-18T09:55:30Z</time>
      </trkpt>
      <trkpt lat="47.40817" lon="0.60707">
        <ele>104</ele>
        <time>2023-07-18T09:55:31Z</time>
      </trkpt>
      <trkpt lat="47.40822" lon="0.6071">
        <ele>104.2</ele>
        <time>2023-07-18T09:55:32Z</time>
      </trkpt>
      <trkpt lat="47.40827" lon="0.60714">
        <ele>104.2</ele>
        <time>2023-07-18T09:55:33Z</time>
      </trkpt>
      <trkpt lat="47.40831" lon="0.60717">
        <ele>104</ele>
        <time>2023-07-18T09:55:34Z</time>
      </trkpt>
      <trkpt lat="47.40836" lon="0.6072">
        <ele>104</ele>
        <time>2023-07-18T09:55:35Z</time>
      </trkpt>
      <trkpt lat="47.40841" lon="0.60723">
        <ele>104</ele>
        <time>2023-07-18T09:55:36Z</time>
      </trkpt>
      <trkpt lat="47.40845" lon="0.60726">
        <ele>104</ele>
        <time>2023-07-18T09:55:37Z</time>
      </trkpt>
      <trkpt lat="47.4085" lon="0.60728">
        <ele>104</ele>
        <time>2023-07-18T09:55:38Z</time>
      </trkpt>
      <trkpt lat="47.40854" lon="0.60731">
        <ele>104</ele>
        <time>2023-07-18T09:55:39Z</time>
      </trkpt>
      <trkpt lat="47.40858" lon="0.60735">
        <ele>104</ele>
        <time>2023-07-18T09:55:40Z</time>
      </trkpt>
      <trkpt lat="47.40862" lon="0.60739">
        <ele>104</ele>
        <time>2023-07-18T09:55:41Z</time>
      </trkpt>
      <trkpt lat="47.40865" lon="0.60742">
        <ele>103.8</ele>
        <time>2023-07-18T09:55:42Z</time>
      </trkpt>
      <trkpt lat="47.4087" lon="0.60744">
        <ele>103.8</ele>
        <time>2023-07-18T09:55:43Z</time>
      </trkpt>
      <trkpt lat="47.40874" lon="0.60747">
        <ele>103.8</ele>
        <time>2023-07-18T09:55:44Z</time>
      </trkpt>
      <trkpt lat="47.40877" lon="0.60749">
        <ele>103.8</ele>
        <time>2023-07-18T09:55:45Z</time>
      </trkpt>
      <trkpt lat="47.40881" lon="0.60751">
        <ele>103.8</ele>
        <time>2023-07-18T09:55:46Z</time>
      </trkpt>
      <trkpt lat="47.40884" lon="0.60753">
        <ele>103.8</ele>
        <time>2023-07-18T09:55:47Z</time>
      </trkpt>
      <trkpt lat="47.40887" lon="0.60755">
        <ele>103.8</ele>
        <time>2023-07-18T09:55:48Z</time>
      </trkpt>
      <trkpt lat="47.4089" lon="0.60757">
        <ele>103.8</ele>
        <time>2023-07-18T09:55:49Z</time>
      </trkpt>
      <trkpt lat="47.40894" lon="0.6076">
        <ele>103.8</ele>
        <time>2023-07-18T09:55:50Z</time>
      </trkpt>
      <trkpt lat="47.40896" lon="0.60763">
        <ele>103.8</ele>
        <time>2023-07-18T09:55:51Z</time>
      </trkpt>
      <trkpt lat="47.40897" lon="0.60767">
        <ele>103.8</ele>
        <time>2023-07-18T09:55:52Z</time>
      </trkpt>
      <trkpt lat="47.40896" lon="0.60772">
        <ele>103.8</ele>
        <time>2023-07-18T09:55:53Z</time>
      </trkpt>
      <trkpt lat="47.40894" lon="0.60778">
        <ele>103.8</ele>
        <time>2023-07-18T09:55:54Z</time>
      </trkpt>
      <trkpt lat="47.4089" lon="0.60784">
        <ele>103.8</ele>
        <time>2023-07-18T09:55:55Z</time>
      </trkpt>
      <trkpt lat="47.40887" lon="0.6079">
        <ele>103.8</ele>
        <time>2023-07-18T09:55:56Z</time>
      </trkpt>
      <trkpt lat="47.40882" lon="0.60797">
        <ele>103.8</ele>
        <time>2023-07-18T09:55:57Z</time>
      </trkpt>
      <trkpt lat="47.40878" lon="0.60803">
        <ele>103.8</ele>
        <time>2023-07-18T09:55:58Z</time>
      </trkpt>
      <trkpt lat="47.40874" lon="0.60809">
        <ele>104</ele>
        <time>2023-07-18T09:55:59Z</time>
      </trkpt>
      <trkpt lat="47.40871" lon="0.60814">
        <ele>104</ele>
        <time>2023-07-18T09:56:00Z</time>
      </trkpt>
      <trkpt lat="47.40867" lon="0.6082">
        <ele>103.8</ele>
        <time>2023-07-18T09:56:01Z</time>
      </trkpt>
      <trkpt lat="47.40864" lon="0.60825">
        <ele>103.8</ele>
        <time>2023-07-18T09:56:02Z</time>
      </trkpt>
      <trkpt lat="47.40861" lon="0.60831">
        <ele>103.8</ele>
        <time>2023-07-18T09:56:03Z</time>
      </trkpt>
      <trkpt lat="47.40858" lon="0.60836">
        <ele>103.8</ele>
        <time>2023-07-18T09:56:04Z</time>
      </trkpt>
      <trkpt lat="47.40855" lon="0.6084">
        <ele>103.8</ele>
        <time>2023-07-18T09:56:05Z</time>
      </trkpt>
      <trkpt lat="47.40853" lon="0.60842">
        <ele>103.6</ele>
        <time>2023-07-18T09:56:06Z</time>
      </trkpt>
      <trkpt lat="47.40851" lon="0.60842">
        <ele>103.6</ele>
        <time>2023-07-18T09:56:07Z</time>
      </trkpt>
      <trkpt lat="47.4085" lon="0.60842">
        <ele>103.4</ele>
        <time>2023-07-18T09:56:08Z</time>
      </trkpt>
      <trkpt lat="47.40849" lon="0.6084">
        <ele>103.4</ele>
        <time>2023-07-18T09:56:09Z</time>
      </trkpt>
      <trkpt lat="47.40847" lon="0.60839">
        <ele>103.4</ele>
        <time>2023-07-18T09:56:10Z</time>
      </trkpt>
      <trkpt lat="47.40845" lon="0.60839">
        <ele>103.2</ele>
        <time>2023-07-18T09:56:11Z</time>
      </trkpt>
      <trkpt lat="47.40842" lon="0.60839">
        <ele>103.2</ele>
        <time>2023-07-18T09:56:12Z</time>
      </trkpt>
      <trkpt lat="47.40841" lon="0.60837">
        <ele>103.2</ele>
        <time>2023-07-18T09:56:13Z</time>
      </trkpt>
      <trkpt lat="47.4084" lon="0.60836">
        <ele>103.2</ele>
        <time>2023-07-18T09:56:14Z</time>
      </trkpt>
      <trkpt lat="47.40839" lon="0.60835">
        <ele>103.2</ele>
        <time>2023-07-18T09:56:15Z</time>
      </trkpt>
      <trkpt lat="47.40837" lon="0.60833">
        <ele>103.2</ele>
        <time>2023-07-18T09:56:16Z</time>
      </trkpt>
      <trkpt lat="47.40837" lon="0.60832">
        <ele>103.2</ele>
        <time>2023-07-18T09:56:17Z</time>
      </trkpt>
      <trkpt lat="47.40837" lon="0.60832">
        <ele>103.2</ele>
        <time>2023-07-18T09:56:18Z</time>
      </trkpt>
      <trkpt lat="47.40836" lon="0.6083">
        <ele>103.2</ele>
        <time>2023-07-18T09:56:23Z</time>
      </trkpt>
      <trkpt lat="47.40836" lon="0.6083">
        <ele>103.2</ele>
        <time>2023-07-18T09:56:24Z</time>
      </trkpt>
      <trkpt lat="47.40836" lon="0.6083">
        <ele>103.2</ele>
        <time>2023-07-18T09:56:25Z</time>
      </trkpt>
      <trkpt lat="47.40836" lon="0.6083">
        <ele>103.2</ele>
        <time>2023-07-18T09:56:26Z</time>
      </trkpt>
      <trkpt lat="47.40836" lon="0.6083">
        <ele>103.2</ele>
        <time>2023-07-18T09:56:27Z</time>
      </trkpt>
      <trkpt lat="47.40836" lon="0.6083">
        <ele>103.2</ele>
        <time>2023-07-18T09:56:28Z</time>
      </trkpt>
      <trkpt lat="47.40836" lon="0.6083">
        <ele>103.2</ele>
        <time>2023-07-18T09:56:29Z</time>
      </trkpt>
      <trkpt lat="47.40836" lon="0.6083">
        <ele>103.2</ele>
        <time>2023-07-18T09:56:30Z</time>
        <extensions>
          <visugpx:TrkExtension xmlns:visugpx="https://www.visugpx.com/editgpx/">
            <visugpx:node>1</visugpx:node>
            </visugpx:TrkExtension>
        </extensions>
      </trkpt>
    </trkseg>
  </trk>
</gpx>